<?xml version="1.0" encoding="UTF-8" standalone="no" ?>
<gpx xmlns="http://www.topografix.com/GPX/1/1" xmlns:xsi="http://www.w3.org/2001/XMLSchema-instance" xsi:schemaLocation="http://www.topografix.com/GPX/1/1 http://www.topografix.com/GPX/1/1/gpx.xsd" version="1.1" creator="VisuGPX - https://www.visugpx.com">
  <metadata>
    <name>Cumul Sorties vélo avec Robin</name>
  </metadata>
  <trk>
    <name><![CDATA[Toulouse Cyclisme sur route]]></name>
    <extensions>
      <line xmlns="http://www.topografix.com/GPX/gpx_style/0/2">
        <color>0000FF</color>
        <width>4</width>
      </line>
    </extensions>
    <trkseg>
      <trkpt lat="43.54347" lon="1.45871">
        <ele>199</ele>
        <time>2020-05-31T13:58:19.000Z</time>
      </trkpt>
      <trkpt lat="43.54347" lon="1.45871">
        <ele>199</ele>
        <time>2020-05-31T13:58:19.000Z</time>
      </trkpt>
      <trkpt lat="43.54348" lon="1.45875">
        <ele>199.19999694824</ele>
        <time>2020-05-31T13:58:20.000Z</time>
      </trkpt>
      <trkpt lat="43.54347" lon="1.4588">
        <ele>199.80000305176</ele>
        <time>2020-05-31T13:58:21.000Z</time>
      </trkpt>
      <trkpt lat="43.54347" lon="1.45884">
        <ele>200.19999694824</ele>
        <time>2020-05-31T13:58:22.000Z</time>
      </trkpt>
      <trkpt lat="43.54346" lon="1.45888">
        <ele>200.19999694824</ele>
        <time>2020-05-31T13:58:23.000Z</time>
      </trkpt>
      <trkpt lat="43.5435" lon="1.45904">
        <ele>199.39999389648</ele>
        <time>2020-05-31T13:58:27.000Z</time>
      </trkpt>
      <trkpt lat="43.54354" lon="1.45911">
        <ele>199.80000305176</ele>
        <time>2020-05-31T13:58:29.000Z</time>
      </trkpt>
      <trkpt lat="43.54358" lon="1.4592">
        <ele>199.19999694824</ele>
        <time>2020-05-31T13:58:31.000Z</time>
      </trkpt>
      <trkpt lat="43.54359" lon="1.45924">
        <ele>198.80000305176</ele>
        <time>2020-05-31T13:58:32.000Z</time>
      </trkpt>
      <trkpt lat="43.54363" lon="1.45933">
        <ele>198.60000610352</ele>
        <time>2020-05-31T13:58:34.000Z</time>
      </trkpt>
      <trkpt lat="43.54366" lon="1.45942">
        <ele>198.60000610352</ele>
        <time>2020-05-31T13:58:36.000Z</time>
      </trkpt>
      <trkpt lat="43.54369" lon="1.45951">
        <ele>199.19999694824</ele>
        <time>2020-05-31T13:58:38.000Z</time>
      </trkpt>
      <trkpt lat="43.54373" lon="1.4596">
        <ele>199</ele>
        <time>2020-05-31T13:58:40.000Z</time>
      </trkpt>
      <trkpt lat="43.54378" lon="1.45967">
        <ele>198.80000305176</ele>
        <time>2020-05-31T13:58:42.000Z</time>
      </trkpt>
      <trkpt lat="43.54383" lon="1.45971">
        <ele>198.80000305176</ele>
        <time>2020-05-31T13:58:44.000Z</time>
      </trkpt>
      <trkpt lat="43.54389" lon="1.45973">
        <ele>198.80000305176</ele>
        <time>2020-05-31T13:58:46.000Z</time>
      </trkpt>
      <trkpt lat="43.54395" lon="1.45972">
        <ele>198.80000305176</ele>
        <time>2020-05-31T13:58:48.000Z</time>
      </trkpt>
      <trkpt lat="43.54399" lon="1.45969">
        <ele>198.80000305176</ele>
        <time>2020-05-31T13:58:50.000Z</time>
      </trkpt>
      <trkpt lat="43.54403" lon="1.45964">
        <ele>199</ele>
        <time>2020-05-31T13:58:52.000Z</time>
      </trkpt>
      <trkpt lat="43.54406" lon="1.45958">
        <ele>199.19999694824</ele>
        <time>2020-05-31T13:58:54.000Z</time>
      </trkpt>
      <trkpt lat="43.54408" lon="1.45952">
        <ele>199.39999389648</ele>
        <time>2020-05-31T13:58:56.000Z</time>
      </trkpt>
      <trkpt lat="43.54409" lon="1.45945">
        <ele>200</ele>
        <time>2020-05-31T13:58:58.000Z</time>
      </trkpt>
      <trkpt lat="43.5441" lon="1.45939">
        <ele>200.19999694824</ele>
        <time>2020-05-31T13:59:00.000Z</time>
      </trkpt>
      <trkpt lat="43.54411" lon="1.45933">
        <ele>200.60000610352</ele>
        <time>2020-05-31T13:59:02.000Z</time>
      </trkpt>
      <trkpt lat="43.54413" lon="1.45927">
        <ele>201</ele>
        <time>2020-05-31T13:59:04.000Z</time>
      </trkpt>
      <trkpt lat="43.54413" lon="1.45924">
        <ele>201.19999694824</ele>
        <time>2020-05-31T13:59:05.000Z</time>
      </trkpt>
      <trkpt lat="43.54414" lon="1.45922">
        <ele>201.39999389648</ele>
        <time>2020-05-31T13:59:06.000Z</time>
      </trkpt>
      <trkpt lat="43.54413" lon="1.45916">
        <ele>201.80000305176</ele>
        <time>2020-05-31T13:59:08.000Z</time>
      </trkpt>
      <trkpt lat="43.54413" lon="1.45909">
        <ele>202.19999694824</ele>
        <time>2020-05-31T13:59:10.000Z</time>
      </trkpt>
      <trkpt lat="43.54412" lon="1.45906">
        <ele>202.39999389648</ele>
        <time>2020-05-31T13:59:11.000Z</time>
      </trkpt>
      <trkpt lat="43.54412" lon="1.45902">
        <ele>202.60000610352</ele>
        <time>2020-05-31T13:59:12.000Z</time>
      </trkpt>
      <trkpt lat="43.54411" lon="1.45895">
        <ele>202.80000305176</ele>
        <time>2020-05-31T13:59:14.000Z</time>
      </trkpt>
      <trkpt lat="43.54411" lon="1.45887">
        <ele>203</ele>
        <time>2020-05-31T13:59:16.000Z</time>
      </trkpt>
      <trkpt lat="43.5441" lon="1.4588">
        <ele>203.19999694824</ele>
        <time>2020-05-31T13:59:18.000Z</time>
      </trkpt>
      <trkpt lat="43.54409" lon="1.45872">
        <ele>203.39999389648</ele>
        <time>2020-05-31T13:59:20.000Z</time>
      </trkpt>
      <trkpt lat="43.54408" lon="1.45864">
        <ele>203.39999389648</ele>
        <time>2020-05-31T13:59:22.000Z</time>
      </trkpt>
      <trkpt lat="43.54408" lon="1.45861">
        <ele>203.60000610352</ele>
        <time>2020-05-31T13:59:23.000Z</time>
      </trkpt>
      <trkpt lat="43.54407" lon="1.45857">
        <ele>203.60000610352</ele>
        <time>2020-05-31T13:59:24.000Z</time>
      </trkpt>
      <trkpt lat="43.54406" lon="1.4585">
        <ele>204</ele>
        <time>2020-05-31T13:59:26.000Z</time>
      </trkpt>
      <trkpt lat="43.54406" lon="1.45842">
        <ele>204</ele>
        <time>2020-05-31T13:59:28.000Z</time>
      </trkpt>
      <trkpt lat="43.54405" lon="1.45835">
        <ele>204</ele>
        <time>2020-05-31T13:59:30.000Z</time>
      </trkpt>
      <trkpt lat="43.54404" lon="1.45827">
        <ele>204.19999694824</ele>
        <time>2020-05-31T13:59:32.000Z</time>
      </trkpt>
      <trkpt lat="43.54403" lon="1.45819">
        <ele>204.39999389648</ele>
        <time>2020-05-31T13:59:34.000Z</time>
      </trkpt>
      <trkpt lat="43.54402" lon="1.45811">
        <ele>204.39999389648</ele>
        <time>2020-05-31T13:59:36.000Z</time>
      </trkpt>
      <trkpt lat="43.54401" lon="1.45807">
        <ele>204.60000610352</ele>
        <time>2020-05-31T13:59:37.000Z</time>
      </trkpt>
      <trkpt lat="43.54401" lon="1.45803">
        <ele>205</ele>
        <time>2020-05-31T13:59:38.000Z</time>
      </trkpt>
      <trkpt lat="43.544" lon="1.45795">
        <ele>205</ele>
        <time>2020-05-31T13:59:40.000Z</time>
      </trkpt>
      <trkpt lat="43.54399" lon="1.45787">
        <ele>205.19999694824</ele>
        <time>2020-05-31T13:59:42.000Z</time>
      </trkpt>
      <trkpt lat="43.54398" lon="1.45778">
        <ele>205.19999694824</ele>
        <time>2020-05-31T13:59:44.000Z</time>
      </trkpt>
      <trkpt lat="43.54398" lon="1.45769">
        <ele>205.19999694824</ele>
        <time>2020-05-31T13:59:46.000Z</time>
      </trkpt>
      <trkpt lat="43.54399" lon="1.45761">
        <ele>205.19999694824</ele>
        <time>2020-05-31T13:59:48.000Z</time>
      </trkpt>
      <trkpt lat="43.54399" lon="1.45753">
        <ele>205.19999694824</ele>
        <time>2020-05-31T13:59:50.000Z</time>
      </trkpt>
      <trkpt lat="43.544" lon="1.45745">
        <ele>205.19999694824</ele>
        <time>2020-05-31T13:59:52.000Z</time>
      </trkpt>
      <trkpt lat="43.54402" lon="1.45738">
        <ele>205.19999694824</ele>
        <time>2020-05-31T13:59:54.000Z</time>
      </trkpt>
      <trkpt lat="43.54404" lon="1.4573">
        <ele>205.19999694824</ele>
        <time>2020-05-31T13:59:56.000Z</time>
      </trkpt>
      <trkpt lat="43.54406" lon="1.45723">
        <ele>205.19999694824</ele>
        <time>2020-05-31T13:59:58.000Z</time>
      </trkpt>
      <trkpt lat="43.54408" lon="1.45717">
        <ele>205.19999694824</ele>
        <time>2020-05-31T14:00:00.000Z</time>
      </trkpt>
      <trkpt lat="43.54411" lon="1.4571">
        <ele>205.60000610352</ele>
        <time>2020-05-31T14:00:02.000Z</time>
      </trkpt>
      <trkpt lat="43.54412" lon="1.45707">
        <ele>205.60000610352</ele>
        <time>2020-05-31T14:00:03.000Z</time>
      </trkpt>
      <trkpt lat="43.54414" lon="1.45704">
        <ele>206</ele>
        <time>2020-05-31T14:00:04.000Z</time>
      </trkpt>
      <trkpt lat="43.54417" lon="1.45699">
        <ele>206.19999694824</ele>
        <time>2020-05-31T14:00:06.000Z</time>
      </trkpt>
      <trkpt lat="43.54421" lon="1.45694">
        <ele>206.60000610352</ele>
        <time>2020-05-31T14:00:08.000Z</time>
      </trkpt>
      <trkpt lat="43.54423" lon="1.45692">
        <ele>207</ele>
        <time>2020-05-31T14:00:09.000Z</time>
      </trkpt>
      <trkpt lat="43.54425" lon="1.4569">
        <ele>207.19999694824</ele>
        <time>2020-05-31T14:00:10.000Z</time>
      </trkpt>
      <trkpt lat="43.54428" lon="1.45686">
        <ele>207.80000305176</ele>
        <time>2020-05-31T14:00:12.000Z</time>
      </trkpt>
      <trkpt lat="43.5443" lon="1.45684">
        <ele>208</ele>
        <time>2020-05-31T14:00:13.000Z</time>
      </trkpt>
      <trkpt lat="43.54432" lon="1.45682">
        <ele>208.19999694824</ele>
        <time>2020-05-31T14:00:14.000Z</time>
      </trkpt>
      <trkpt lat="43.54435" lon="1.45678">
        <ele>208.39999389648</ele>
        <time>2020-05-31T14:00:16.000Z</time>
      </trkpt>
      <trkpt lat="43.54439" lon="1.45675">
        <ele>208.80000305176</ele>
        <time>2020-05-31T14:00:18.000Z</time>
      </trkpt>
      <trkpt lat="43.54441" lon="1.4567">
        <ele>209.19999694824</ele>
        <time>2020-05-31T14:00:20.000Z</time>
      </trkpt>
      <trkpt lat="43.54442" lon="1.45664">
        <ele>209.60000610352</ele>
        <time>2020-05-31T14:00:22.000Z</time>
      </trkpt>
      <trkpt lat="43.54441" lon="1.45659">
        <ele>209.80000305176</ele>
        <time>2020-05-31T14:00:24.000Z</time>
      </trkpt>
      <trkpt lat="43.54439" lon="1.45653">
        <ele>209.80000305176</ele>
        <time>2020-05-31T14:00:26.000Z</time>
      </trkpt>
      <trkpt lat="43.54439" lon="1.45647">
        <ele>209.80000305176</ele>
        <time>2020-05-31T14:00:28.000Z</time>
      </trkpt>
      <trkpt lat="43.5444" lon="1.45639">
        <ele>209.80000305176</ele>
        <time>2020-05-31T14:00:30.000Z</time>
      </trkpt>
      <trkpt lat="43.54441" lon="1.4563">
        <ele>209.80000305176</ele>
        <time>2020-05-31T14:00:32.000Z</time>
      </trkpt>
      <trkpt lat="43.54442" lon="1.45622">
        <ele>209.60000610352</ele>
        <time>2020-05-31T14:00:34.000Z</time>
      </trkpt>
      <trkpt lat="43.54445" lon="1.45614">
        <ele>209.39999389648</ele>
        <time>2020-05-31T14:00:36.000Z</time>
      </trkpt>
      <trkpt lat="43.54447" lon="1.45606">
        <ele>209.39999389648</ele>
        <time>2020-05-31T14:00:38.000Z</time>
      </trkpt>
      <trkpt lat="43.54449" lon="1.45598">
        <ele>209.39999389648</ele>
        <time>2020-05-31T14:00:40.000Z</time>
      </trkpt>
      <trkpt lat="43.54449" lon="1.4559">
        <ele>209.39999389648</ele>
        <time>2020-05-31T14:00:42.000Z</time>
      </trkpt>
      <trkpt lat="43.54445" lon="1.45584">
        <ele>209.39999389648</ele>
        <time>2020-05-31T14:00:44.000Z</time>
      </trkpt>
      <trkpt lat="43.54439" lon="1.45581">
        <ele>209.39999389648</ele>
        <time>2020-05-31T14:00:46.000Z</time>
      </trkpt>
      <trkpt lat="43.54433" lon="1.45582">
        <ele>209.39999389648</ele>
        <time>2020-05-31T14:00:48.000Z</time>
      </trkpt>
      <trkpt lat="43.54427" lon="1.45589">
        <ele>209.39999389648</ele>
        <time>2020-05-31T14:00:50.000Z</time>
      </trkpt>
      <trkpt lat="43.54424" lon="1.45595">
        <ele>209.39999389648</ele>
        <time>2020-05-31T14:00:51.000Z</time>
      </trkpt>
      <trkpt lat="43.54421" lon="1.45599">
        <ele>209.39999389648</ele>
        <time>2020-05-31T14:00:52.000Z</time>
      </trkpt>
      <trkpt lat="43.54414" lon="1.45609">
        <ele>208.39999389648</ele>
        <time>2020-05-31T14:00:54.000Z</time>
      </trkpt>
      <trkpt lat="43.54407" lon="1.45619">
        <ele>207.39999389648</ele>
        <time>2020-05-31T14:00:56.000Z</time>
      </trkpt>
      <trkpt lat="43.544" lon="1.45629">
        <ele>207</ele>
        <time>2020-05-31T14:00:58.000Z</time>
      </trkpt>
      <trkpt lat="43.54393" lon="1.45639">
        <ele>206.80000305176</ele>
        <time>2020-05-31T14:01:00.000Z</time>
      </trkpt>
      <trkpt lat="43.54386" lon="1.45649">
        <ele>206.60000610352</ele>
        <time>2020-05-31T14:01:02.000Z</time>
      </trkpt>
      <trkpt lat="43.5438" lon="1.45658">
        <ele>206.19999694824</ele>
        <time>2020-05-31T14:01:04.000Z</time>
      </trkpt>
      <trkpt lat="43.54373" lon="1.45667">
        <ele>205.60000610352</ele>
        <time>2020-05-31T14:01:06.000Z</time>
      </trkpt>
      <trkpt lat="43.54367" lon="1.45676">
        <ele>205</ele>
        <time>2020-05-31T14:01:08.000Z</time>
      </trkpt>
      <trkpt lat="43.54361" lon="1.45686">
        <ele>204.80000305176</ele>
        <time>2020-05-31T14:01:10.000Z</time>
      </trkpt>
      <trkpt lat="43.54354" lon="1.45697">
        <ele>204.60000610352</ele>
        <time>2020-05-31T14:01:12.000Z</time>
      </trkpt>
      <trkpt lat="43.54348" lon="1.45707">
        <ele>204.60000610352</ele>
        <time>2020-05-31T14:01:14.000Z</time>
      </trkpt>
      <trkpt lat="43.54343" lon="1.45717">
        <ele>204.19999694824</ele>
        <time>2020-05-31T14:01:16.000Z</time>
      </trkpt>
      <trkpt lat="43.54337" lon="1.45727">
        <ele>204</ele>
        <time>2020-05-31T14:01:18.000Z</time>
      </trkpt>
      <trkpt lat="43.54334" lon="1.45732">
        <ele>204</ele>
        <time>2020-05-31T14:01:19.000Z</time>
      </trkpt>
      <trkpt lat="43.54332" lon="1.45736">
        <ele>204</ele>
        <time>2020-05-31T14:01:20.000Z</time>
      </trkpt>
      <trkpt lat="43.54326" lon="1.45745">
        <ele>204</ele>
        <time>2020-05-31T14:01:22.000Z</time>
      </trkpt>
      <trkpt lat="43.5432" lon="1.45754">
        <ele>204</ele>
        <time>2020-05-31T14:01:24.000Z</time>
      </trkpt>
      <trkpt lat="43.54313" lon="1.45764">
        <ele>204</ele>
        <time>2020-05-31T14:01:26.000Z</time>
      </trkpt>
      <trkpt lat="43.54307" lon="1.45773">
        <ele>204</ele>
        <time>2020-05-31T14:01:28.000Z</time>
      </trkpt>
      <trkpt lat="43.54301" lon="1.45783">
        <ele>203.80000305176</ele>
        <time>2020-05-31T14:01:30.000Z</time>
      </trkpt>
      <trkpt lat="43.54295" lon="1.45792">
        <ele>203.80000305176</ele>
        <time>2020-05-31T14:01:32.000Z</time>
      </trkpt>
      <trkpt lat="43.54289" lon="1.45801">
        <ele>203.60000610352</ele>
        <time>2020-05-31T14:01:34.000Z</time>
      </trkpt>
      <trkpt lat="43.54283" lon="1.4581">
        <ele>203.39999389648</ele>
        <time>2020-05-31T14:01:36.000Z</time>
      </trkpt>
      <trkpt lat="43.54277" lon="1.45819">
        <ele>203.19999694824</ele>
        <time>2020-05-31T14:01:38.000Z</time>
      </trkpt>
      <trkpt lat="43.54271" lon="1.45827">
        <ele>203.19999694824</ele>
        <time>2020-05-31T14:01:40.000Z</time>
      </trkpt>
      <trkpt lat="43.54266" lon="1.45836">
        <ele>203.19999694824</ele>
        <time>2020-05-31T14:01:42.000Z</time>
      </trkpt>
      <trkpt lat="43.54261" lon="1.45845">
        <ele>203.19999694824</ele>
        <time>2020-05-31T14:01:44.000Z</time>
      </trkpt>
      <trkpt lat="43.54256" lon="1.45853">
        <ele>203.19999694824</ele>
        <time>2020-05-31T14:01:46.000Z</time>
      </trkpt>
      <trkpt lat="43.54251" lon="1.45861">
        <ele>203.39999389648</ele>
        <time>2020-05-31T14:01:48.000Z</time>
      </trkpt>
      <trkpt lat="43.54246" lon="1.4587">
        <ele>203.80000305176</ele>
        <time>2020-05-31T14:01:50.000Z</time>
      </trkpt>
      <trkpt lat="43.54242" lon="1.45878">
        <ele>204.39999389648</ele>
        <time>2020-05-31T14:01:52.000Z</time>
      </trkpt>
      <trkpt lat="43.54238" lon="1.45886">
        <ele>205</ele>
        <time>2020-05-31T14:01:54.000Z</time>
      </trkpt>
      <trkpt lat="43.54235" lon="1.4589">
        <ele>205.39999389648</ele>
        <time>2020-05-31T14:01:55.000Z</time>
      </trkpt>
      <trkpt lat="43.54233" lon="1.45894">
        <ele>205.39999389648</ele>
        <time>2020-05-31T14:01:56.000Z</time>
      </trkpt>
      <trkpt lat="43.54229" lon="1.45902">
        <ele>205.80000305176</ele>
        <time>2020-05-31T14:01:58.000Z</time>
      </trkpt>
      <trkpt lat="43.54225" lon="1.4591">
        <ele>206.19999694824</ele>
        <time>2020-05-31T14:02:00.000Z</time>
      </trkpt>
      <trkpt lat="43.54223" lon="1.45914">
        <ele>206.80000305176</ele>
        <time>2020-05-31T14:02:01.000Z</time>
      </trkpt>
      <trkpt lat="43.54221" lon="1.45919">
        <ele>207.19999694824</ele>
        <time>2020-05-31T14:02:02.000Z</time>
      </trkpt>
      <trkpt lat="43.54217" lon="1.45928">
        <ele>207.39999389648</ele>
        <time>2020-05-31T14:02:04.000Z</time>
      </trkpt>
      <trkpt lat="43.54214" lon="1.45937">
        <ele>207.39999389648</ele>
        <time>2020-05-31T14:02:06.000Z</time>
      </trkpt>
      <trkpt lat="43.54211" lon="1.45946">
        <ele>207.39999389648</ele>
        <time>2020-05-31T14:02:08.000Z</time>
      </trkpt>
      <trkpt lat="43.54208" lon="1.45955">
        <ele>207.60000610352</ele>
        <time>2020-05-31T14:02:10.000Z</time>
      </trkpt>
      <trkpt lat="43.54204" lon="1.45965">
        <ele>207.60000610352</ele>
        <time>2020-05-31T14:02:12.000Z</time>
      </trkpt>
      <trkpt lat="43.54201" lon="1.45974">
        <ele>207.60000610352</ele>
        <time>2020-05-31T14:02:14.000Z</time>
      </trkpt>
      <trkpt lat="43.54196" lon="1.45983">
        <ele>207.60000610352</ele>
        <time>2020-05-31T14:02:16.000Z</time>
      </trkpt>
      <trkpt lat="43.54192" lon="1.45992">
        <ele>208</ele>
        <time>2020-05-31T14:02:18.000Z</time>
      </trkpt>
      <trkpt lat="43.54187" lon="1.46002">
        <ele>208.39999389648</ele>
        <time>2020-05-31T14:02:20.000Z</time>
      </trkpt>
      <trkpt lat="43.54183" lon="1.46012">
        <ele>208.60000610352</ele>
        <time>2020-05-31T14:02:22.000Z</time>
      </trkpt>
      <trkpt lat="43.54179" lon="1.46023">
        <ele>208.60000610352</ele>
        <time>2020-05-31T14:02:24.000Z</time>
      </trkpt>
      <trkpt lat="43.54174" lon="1.46035">
        <ele>208.60000610352</ele>
        <time>2020-05-31T14:02:26.000Z</time>
      </trkpt>
      <trkpt lat="43.54169" lon="1.46047">
        <ele>208</ele>
        <time>2020-05-31T14:02:28.000Z</time>
      </trkpt>
      <trkpt lat="43.54165" lon="1.4606">
        <ele>207.39999389648</ele>
        <time>2020-05-31T14:02:30.000Z</time>
      </trkpt>
      <trkpt lat="43.54163" lon="1.46066">
        <ele>207.19999694824</ele>
        <time>2020-05-31T14:02:31.000Z</time>
      </trkpt>
      <trkpt lat="43.5416" lon="1.46073">
        <ele>207</ele>
        <time>2020-05-31T14:02:32.000Z</time>
      </trkpt>
      <trkpt lat="43.54154" lon="1.46084">
        <ele>206.80000305176</ele>
        <time>2020-05-31T14:02:34.000Z</time>
      </trkpt>
      <trkpt lat="43.54148" lon="1.46096">
        <ele>206.80000305176</ele>
        <time>2020-05-31T14:02:36.000Z</time>
      </trkpt>
      <trkpt lat="43.54141" lon="1.46109">
        <ele>206.60000610352</ele>
        <time>2020-05-31T14:02:38.000Z</time>
      </trkpt>
      <trkpt lat="43.54135" lon="1.46121">
        <ele>206</ele>
        <time>2020-05-31T14:02:40.000Z</time>
      </trkpt>
      <trkpt lat="43.54129" lon="1.46135">
        <ele>205.39999389648</ele>
        <time>2020-05-31T14:02:42.000Z</time>
      </trkpt>
      <trkpt lat="43.54122" lon="1.46149">
        <ele>205</ele>
        <time>2020-05-31T14:02:44.000Z</time>
      </trkpt>
      <trkpt lat="43.54115" lon="1.46162">
        <ele>204.39999389648</ele>
        <time>2020-05-31T14:02:46.000Z</time>
      </trkpt>
      <trkpt lat="43.54107" lon="1.46175">
        <ele>204</ele>
        <time>2020-05-31T14:02:48.000Z</time>
      </trkpt>
      <trkpt lat="43.54104" lon="1.46182">
        <ele>203.80000305176</ele>
        <time>2020-05-31T14:02:49.000Z</time>
      </trkpt>
      <trkpt lat="43.541" lon="1.46189">
        <ele>203.80000305176</ele>
        <time>2020-05-31T14:02:50.000Z</time>
      </trkpt>
      <trkpt lat="43.54093" lon="1.46204">
        <ele>203.80000305176</ele>
        <time>2020-05-31T14:02:52.000Z</time>
      </trkpt>
      <trkpt lat="43.54085" lon="1.46219">
        <ele>203.80000305176</ele>
        <time>2020-05-31T14:02:54.000Z</time>
      </trkpt>
      <trkpt lat="43.54077" lon="1.46234">
        <ele>203.60000610352</ele>
        <time>2020-05-31T14:02:56.000Z</time>
      </trkpt>
      <trkpt lat="43.54067" lon="1.4625">
        <ele>203.39999389648</ele>
        <time>2020-05-31T14:02:58.000Z</time>
      </trkpt>
      <trkpt lat="43.54056" lon="1.46265">
        <ele>203</ele>
        <time>2020-05-31T14:03:00.000Z</time>
      </trkpt>
      <trkpt lat="43.54051" lon="1.46273">
        <ele>202.80000305176</ele>
        <time>2020-05-31T14:03:01.000Z</time>
      </trkpt>
      <trkpt lat="43.54046" lon="1.4628">
        <ele>202.19999694824</ele>
        <time>2020-05-31T14:03:02.000Z</time>
      </trkpt>
      <trkpt lat="43.5404" lon="1.46287">
        <ele>201.60000610352</ele>
        <time>2020-05-31T14:03:03.000Z</time>
      </trkpt>
      <trkpt lat="43.54034" lon="1.46292">
        <ele>201.39999389648</ele>
        <time>2020-05-31T14:03:04.000Z</time>
      </trkpt>
      <trkpt lat="43.54028" lon="1.46298">
        <ele>201</ele>
        <time>2020-05-31T14:03:05.000Z</time>
      </trkpt>
      <trkpt lat="43.54022" lon="1.46305">
        <ele>200.60000610352</ele>
        <time>2020-05-31T14:03:06.000Z</time>
      </trkpt>
      <trkpt lat="43.54017" lon="1.46312">
        <ele>200.39999389648</ele>
        <time>2020-05-31T14:03:07.000Z</time>
      </trkpt>
      <trkpt lat="43.54011" lon="1.46319">
        <ele>200.19999694824</ele>
        <time>2020-05-31T14:03:08.000Z</time>
      </trkpt>
      <trkpt lat="43.54006" lon="1.46326">
        <ele>199.80000305176</ele>
        <time>2020-05-31T14:03:09.000Z</time>
      </trkpt>
      <trkpt lat="43.54" lon="1.46332">
        <ele>199.39999389648</ele>
        <time>2020-05-31T14:03:10.000Z</time>
      </trkpt>
      <trkpt lat="43.53991" lon="1.46342">
        <ele>198.39999389648</ele>
        <time>2020-05-31T14:03:12.000Z</time>
      </trkpt>
      <trkpt lat="43.53983" lon="1.46351">
        <ele>197.60000610352</ele>
        <time>2020-05-31T14:03:14.000Z</time>
      </trkpt>
      <trkpt lat="43.53977" lon="1.4636">
        <ele>197.39999389648</ele>
        <time>2020-05-31T14:03:16.000Z</time>
      </trkpt>
      <trkpt lat="43.53971" lon="1.46369">
        <ele>197.19999694824</ele>
        <time>2020-05-31T14:03:18.000Z</time>
      </trkpt>
      <trkpt lat="43.53968" lon="1.46373">
        <ele>197</ele>
        <time>2020-05-31T14:03:19.000Z</time>
      </trkpt>
      <trkpt lat="43.53964" lon="1.46377">
        <ele>197</ele>
        <time>2020-05-31T14:03:20.000Z</time>
      </trkpt>
      <trkpt lat="43.53958" lon="1.46384">
        <ele>197</ele>
        <time>2020-05-31T14:03:22.000Z</time>
      </trkpt>
      <trkpt lat="43.53955" lon="1.46387">
        <ele>197</ele>
        <time>2020-05-31T14:03:23.000Z</time>
      </trkpt>
      <trkpt lat="43.53952" lon="1.46391">
        <ele>197</ele>
        <time>2020-05-31T14:03:24.000Z</time>
      </trkpt>
      <trkpt lat="43.53949" lon="1.46396">
        <ele>197</ele>
        <time>2020-05-31T14:03:25.000Z</time>
      </trkpt>
      <trkpt lat="43.53946" lon="1.46401">
        <ele>197</ele>
        <time>2020-05-31T14:03:26.000Z</time>
      </trkpt>
      <trkpt lat="43.5394" lon="1.46411">
        <ele>197</ele>
        <time>2020-05-31T14:03:28.000Z</time>
      </trkpt>
      <trkpt lat="43.53933" lon="1.46421">
        <ele>196.60000610352</ele>
        <time>2020-05-31T14:03:30.000Z</time>
      </trkpt>
      <trkpt lat="43.53927" lon="1.46432">
        <ele>196.19999694824</ele>
        <time>2020-05-31T14:03:32.000Z</time>
      </trkpt>
      <trkpt lat="43.53921" lon="1.46444">
        <ele>196</ele>
        <time>2020-05-31T14:03:34.000Z</time>
      </trkpt>
      <trkpt lat="43.53915" lon="1.46456">
        <ele>195.80000305176</ele>
        <time>2020-05-31T14:03:36.000Z</time>
      </trkpt>
      <trkpt lat="43.53908" lon="1.46467">
        <ele>195.80000305176</ele>
        <time>2020-05-31T14:03:38.000Z</time>
      </trkpt>
      <trkpt lat="43.53902" lon="1.46479">
        <ele>195.39999389648</ele>
        <time>2020-05-31T14:03:40.000Z</time>
      </trkpt>
      <trkpt lat="43.53898" lon="1.46485">
        <ele>195.19999694824</ele>
        <time>2020-05-31T14:03:41.000Z</time>
      </trkpt>
      <trkpt lat="43.53895" lon="1.4649">
        <ele>194.60000610352</ele>
        <time>2020-05-31T14:03:42.000Z</time>
      </trkpt>
      <trkpt lat="43.53889" lon="1.46502">
        <ele>194</ele>
        <time>2020-05-31T14:03:44.000Z</time>
      </trkpt>
      <trkpt lat="43.53882" lon="1.46513">
        <ele>193.60000610352</ele>
        <time>2020-05-31T14:03:46.000Z</time>
      </trkpt>
      <trkpt lat="43.53876" lon="1.46524">
        <ele>192.60000610352</ele>
        <time>2020-05-31T14:03:48.000Z</time>
      </trkpt>
      <trkpt lat="43.53873" lon="1.4653">
        <ele>192.60000610352</ele>
        <time>2020-05-31T14:03:49.000Z</time>
      </trkpt>
      <trkpt lat="43.53871" lon="1.46537">
        <ele>192.19999694824</ele>
        <time>2020-05-31T14:03:50.000Z</time>
      </trkpt>
      <trkpt lat="43.53866" lon="1.46549">
        <ele>191.80000305176</ele>
        <time>2020-05-31T14:03:52.000Z</time>
      </trkpt>
      <trkpt lat="43.53862" lon="1.46555">
        <ele>191.60000610352</ele>
        <time>2020-05-31T14:03:53.000Z</time>
      </trkpt>
      <trkpt lat="43.53859" lon="1.4656">
        <ele>191.19999694824</ele>
        <time>2020-05-31T14:03:54.000Z</time>
      </trkpt>
      <trkpt lat="43.53852" lon="1.46572">
        <ele>190.80000305176</ele>
        <time>2020-05-31T14:03:56.000Z</time>
      </trkpt>
      <trkpt lat="43.53844" lon="1.46583">
        <ele>190.60000610352</ele>
        <time>2020-05-31T14:03:58.000Z</time>
      </trkpt>
      <trkpt lat="43.53836" lon="1.46594">
        <ele>190.39999389648</ele>
        <time>2020-05-31T14:04:00.000Z</time>
      </trkpt>
      <trkpt lat="43.53828" lon="1.46606">
        <ele>190.19999694824</ele>
        <time>2020-05-31T14:04:02.000Z</time>
      </trkpt>
      <trkpt lat="43.5382" lon="1.46618">
        <ele>190</ele>
        <time>2020-05-31T14:04:04.000Z</time>
      </trkpt>
      <trkpt lat="43.53812" lon="1.4663">
        <ele>190</ele>
        <time>2020-05-31T14:04:06.000Z</time>
      </trkpt>
      <trkpt lat="43.53803" lon="1.46643">
        <ele>189.60000610352</ele>
        <time>2020-05-31T14:04:08.000Z</time>
      </trkpt>
      <trkpt lat="43.53794" lon="1.46656">
        <ele>189.39999389648</ele>
        <time>2020-05-31T14:04:10.000Z</time>
      </trkpt>
      <trkpt lat="43.53785" lon="1.46669">
        <ele>188.39999389648</ele>
        <time>2020-05-31T14:04:12.000Z</time>
      </trkpt>
      <trkpt lat="43.53776" lon="1.46681">
        <ele>187.80000305176</ele>
        <time>2020-05-31T14:04:14.000Z</time>
      </trkpt>
      <trkpt lat="43.53767" lon="1.46693">
        <ele>187.60000610352</ele>
        <time>2020-05-31T14:04:16.000Z</time>
      </trkpt>
      <trkpt lat="43.53762" lon="1.46699">
        <ele>187.39999389648</ele>
        <time>2020-05-31T14:04:17.000Z</time>
      </trkpt>
      <trkpt lat="43.53758" lon="1.46705">
        <ele>187</ele>
        <time>2020-05-31T14:04:18.000Z</time>
      </trkpt>
      <trkpt lat="43.5375" lon="1.46716">
        <ele>185.60000610352</ele>
        <time>2020-05-31T14:04:20.000Z</time>
      </trkpt>
      <trkpt lat="43.53742" lon="1.46727">
        <ele>184.19999694824</ele>
        <time>2020-05-31T14:04:22.000Z</time>
      </trkpt>
      <trkpt lat="43.53735" lon="1.46737">
        <ele>183.80000305176</ele>
        <time>2020-05-31T14:04:24.000Z</time>
      </trkpt>
      <trkpt lat="43.53729" lon="1.46747">
        <ele>183.60000610352</ele>
        <time>2020-05-31T14:04:26.000Z</time>
      </trkpt>
      <trkpt lat="43.53723" lon="1.46758">
        <ele>183.60000610352</ele>
        <time>2020-05-31T14:04:28.000Z</time>
      </trkpt>
      <trkpt lat="43.53717" lon="1.46768">
        <ele>183.39999389648</ele>
        <time>2020-05-31T14:04:30.000Z</time>
      </trkpt>
      <trkpt lat="43.53712" lon="1.46778">
        <ele>183.39999389648</ele>
        <time>2020-05-31T14:04:32.000Z</time>
      </trkpt>
      <trkpt lat="43.53707" lon="1.46788">
        <ele>183.39999389648</ele>
        <time>2020-05-31T14:04:34.000Z</time>
      </trkpt>
      <trkpt lat="43.53702" lon="1.46798">
        <ele>183.19999694824</ele>
        <time>2020-05-31T14:04:36.000Z</time>
      </trkpt>
      <trkpt lat="43.537" lon="1.46802">
        <ele>183.19999694824</ele>
        <time>2020-05-31T14:04:37.000Z</time>
      </trkpt>
      <trkpt lat="43.53698" lon="1.46807">
        <ele>183.19999694824</ele>
        <time>2020-05-31T14:04:38.000Z</time>
      </trkpt>
      <trkpt lat="43.53693" lon="1.46816">
        <ele>183.19999694824</ele>
        <time>2020-05-31T14:04:40.000Z</time>
      </trkpt>
      <trkpt lat="43.53688" lon="1.46824">
        <ele>183.19999694824</ele>
        <time>2020-05-31T14:04:42.000Z</time>
      </trkpt>
      <trkpt lat="43.53682" lon="1.46833">
        <ele>183.19999694824</ele>
        <time>2020-05-31T14:04:44.000Z</time>
      </trkpt>
      <trkpt lat="43.53676" lon="1.46838">
        <ele>183.39999389648</ele>
        <time>2020-05-31T14:04:46.000Z</time>
      </trkpt>
      <trkpt lat="43.53671" lon="1.4684">
        <ele>183.80000305176</ele>
        <time>2020-05-31T14:04:48.000Z</time>
      </trkpt>
      <trkpt lat="43.53665" lon="1.46838">
        <ele>183.80000305176</ele>
        <time>2020-05-31T14:04:50.000Z</time>
      </trkpt>
      <trkpt lat="43.53659" lon="1.46837">
        <ele>184.19999694824</ele>
        <time>2020-05-31T14:04:52.000Z</time>
      </trkpt>
      <trkpt lat="43.53653" lon="1.46839">
        <ele>184.60000610352</ele>
        <time>2020-05-31T14:04:54.000Z</time>
      </trkpt>
      <trkpt lat="43.53646" lon="1.46841">
        <ele>185</ele>
        <time>2020-05-31T14:04:56.000Z</time>
      </trkpt>
      <trkpt lat="43.5364" lon="1.46841">
        <ele>185.39999389648</ele>
        <time>2020-05-31T14:04:58.000Z</time>
      </trkpt>
      <trkpt lat="43.53634" lon="1.46839">
        <ele>185.60000610352</ele>
        <time>2020-05-31T14:05:00.000Z</time>
      </trkpt>
      <trkpt lat="43.53629" lon="1.46836">
        <ele>186</ele>
        <time>2020-05-31T14:05:02.000Z</time>
      </trkpt>
      <trkpt lat="43.53624" lon="1.46833">
        <ele>186.60000610352</ele>
        <time>2020-05-31T14:05:04.000Z</time>
      </trkpt>
      <trkpt lat="43.53622" lon="1.46831">
        <ele>186.80000305176</ele>
        <time>2020-05-31T14:05:05.000Z</time>
      </trkpt>
      <trkpt lat="43.53619" lon="1.4683">
        <ele>186.80000305176</ele>
        <time>2020-05-31T14:05:06.000Z</time>
      </trkpt>
      <trkpt lat="43.53614" lon="1.46828">
        <ele>187.39999389648</ele>
        <time>2020-05-31T14:05:08.000Z</time>
      </trkpt>
      <trkpt lat="43.53612" lon="1.46826">
        <ele>187.80000305176</ele>
        <time>2020-05-31T14:05:09.000Z</time>
      </trkpt>
      <trkpt lat="43.53611" lon="1.46825">
        <ele>188.19999694824</ele>
        <time>2020-05-31T14:05:10.000Z</time>
      </trkpt>
      <trkpt lat="43.53613" lon="1.46824">
        <ele>188.39999389648</ele>
        <time>2020-05-31T14:05:12.000Z</time>
      </trkpt>
      <trkpt lat="43.53613" lon="1.46826">
        <ele>188.60000610352</ele>
        <time>2020-05-31T14:05:14.000Z</time>
      </trkpt>
      <trkpt lat="43.53614" lon="1.46828">
        <ele>189.39999389648</ele>
        <time>2020-05-31T14:05:17.000Z</time>
      </trkpt>
      <trkpt lat="43.53614" lon="1.46828">
        <ele>189.80000305176</ele>
        <time>2020-05-31T14:05:18.000Z</time>
      </trkpt>
      <trkpt lat="43.53612" lon="1.46826">
        <ele>189.80000305176</ele>
        <time>2020-05-31T14:06:13.000Z</time>
      </trkpt>
      <trkpt lat="43.53611" lon="1.46825">
        <ele>189.60000610352</ele>
        <time>2020-05-31T14:06:14.000Z</time>
      </trkpt>
      <trkpt lat="43.53607" lon="1.46824">
        <ele>189.60000610352</ele>
        <time>2020-05-31T14:06:16.000Z</time>
      </trkpt>
      <trkpt lat="43.53604" lon="1.4682">
        <ele>189.60000610352</ele>
        <time>2020-05-31T14:06:18.000Z</time>
      </trkpt>
      <trkpt lat="43.53601" lon="1.46815">
        <ele>189.60000610352</ele>
        <time>2020-05-31T14:06:20.000Z</time>
      </trkpt>
      <trkpt lat="43.53598" lon="1.4681">
        <ele>189.60000610352</ele>
        <time>2020-05-31T14:06:22.000Z</time>
      </trkpt>
      <trkpt lat="43.53597" lon="1.46809">
        <ele>189.80000305176</ele>
        <time>2020-05-31T14:06:23.000Z</time>
      </trkpt>
      <trkpt lat="43.53595" lon="1.46808">
        <ele>189.80000305176</ele>
        <time>2020-05-31T14:06:25.000Z</time>
      </trkpt>
      <trkpt lat="43.53595" lon="1.46808">
        <ele>190.19999694824</ele>
        <time>2020-05-31T14:06:26.000Z</time>
      </trkpt>
      <trkpt lat="43.53592" lon="1.46809">
        <ele>191.80000305176</ele>
        <time>2020-05-31T14:07:12.000Z</time>
      </trkpt>
      <trkpt lat="43.5359" lon="1.46811">
        <ele>191.80000305176</ele>
        <time>2020-05-31T14:07:14.000Z</time>
      </trkpt>
      <trkpt lat="43.53586" lon="1.46815">
        <ele>191.80000305176</ele>
        <time>2020-05-31T14:07:16.000Z</time>
      </trkpt>
      <trkpt lat="43.53583" lon="1.46822">
        <ele>191.80000305176</ele>
        <time>2020-05-31T14:07:18.000Z</time>
      </trkpt>
      <trkpt lat="43.53582" lon="1.4683">
        <ele>191.19999694824</ele>
        <time>2020-05-31T14:07:20.000Z</time>
      </trkpt>
      <trkpt lat="43.5358" lon="1.46836">
        <ele>190.80000305176</ele>
        <time>2020-05-31T14:07:22.000Z</time>
      </trkpt>
      <trkpt lat="43.53579" lon="1.46839">
        <ele>190.80000305176</ele>
        <time>2020-05-31T14:07:23.000Z</time>
      </trkpt>
      <trkpt lat="43.53577" lon="1.46841">
        <ele>190.60000610352</ele>
        <time>2020-05-31T14:07:24.000Z</time>
      </trkpt>
      <trkpt lat="43.53575" lon="1.46846">
        <ele>190.39999389648</ele>
        <time>2020-05-31T14:07:26.000Z</time>
      </trkpt>
      <trkpt lat="43.53572" lon="1.4685">
        <ele>190.19999694824</ele>
        <time>2020-05-31T14:07:28.000Z</time>
      </trkpt>
      <trkpt lat="43.5357" lon="1.46855">
        <ele>190.19999694824</ele>
        <time>2020-05-31T14:07:30.000Z</time>
      </trkpt>
      <trkpt lat="43.53566" lon="1.4686">
        <ele>190</ele>
        <time>2020-05-31T14:07:32.000Z</time>
      </trkpt>
      <trkpt lat="43.53562" lon="1.46866">
        <ele>189.80000305176</ele>
        <time>2020-05-31T14:07:34.000Z</time>
      </trkpt>
      <trkpt lat="43.53558" lon="1.46874">
        <ele>189.60000610352</ele>
        <time>2020-05-31T14:07:36.000Z</time>
      </trkpt>
      <trkpt lat="43.53554" lon="1.46881">
        <ele>189.39999389648</ele>
        <time>2020-05-31T14:07:38.000Z</time>
      </trkpt>
      <trkpt lat="43.53549" lon="1.46889">
        <ele>189.19999694824</ele>
        <time>2020-05-31T14:07:40.000Z</time>
      </trkpt>
      <trkpt lat="43.53544" lon="1.46896">
        <ele>189.19999694824</ele>
        <time>2020-05-31T14:07:42.000Z</time>
      </trkpt>
      <trkpt lat="43.5354" lon="1.46903">
        <ele>189.19999694824</ele>
        <time>2020-05-31T14:07:44.000Z</time>
      </trkpt>
      <trkpt lat="43.53537" lon="1.4691">
        <ele>189</ele>
        <time>2020-05-31T14:07:46.000Z</time>
      </trkpt>
      <trkpt lat="43.53532" lon="1.46917">
        <ele>189</ele>
        <time>2020-05-31T14:07:48.000Z</time>
      </trkpt>
      <trkpt lat="43.53528" lon="1.46924">
        <ele>189</ele>
        <time>2020-05-31T14:07:50.000Z</time>
      </trkpt>
      <trkpt lat="43.53523" lon="1.46932">
        <ele>189</ele>
        <time>2020-05-31T14:07:52.000Z</time>
      </trkpt>
      <trkpt lat="43.53518" lon="1.46939">
        <ele>189</ele>
        <time>2020-05-31T14:07:54.000Z</time>
      </trkpt>
      <trkpt lat="43.53513" lon="1.46948">
        <ele>189</ele>
        <time>2020-05-31T14:07:56.000Z</time>
      </trkpt>
      <trkpt lat="43.53509" lon="1.46956">
        <ele>189</ele>
        <time>2020-05-31T14:07:58.000Z</time>
      </trkpt>
      <trkpt lat="43.53503" lon="1.46964">
        <ele>188.80000305176</ele>
        <time>2020-05-31T14:08:00.000Z</time>
      </trkpt>
      <trkpt lat="43.53498" lon="1.46973">
        <ele>188.60000610352</ele>
        <time>2020-05-31T14:08:02.000Z</time>
      </trkpt>
      <trkpt lat="43.53495" lon="1.46977">
        <ele>188.39999389648</ele>
        <time>2020-05-31T14:08:03.000Z</time>
      </trkpt>
      <trkpt lat="43.53492" lon="1.46982">
        <ele>188.19999694824</ele>
        <time>2020-05-31T14:08:04.000Z</time>
      </trkpt>
      <trkpt lat="43.53487" lon="1.46991">
        <ele>188.19999694824</ele>
        <time>2020-05-31T14:08:06.000Z</time>
      </trkpt>
      <trkpt lat="43.5348" lon="1.47">
        <ele>187.80000305176</ele>
        <time>2020-05-31T14:08:08.000Z</time>
      </trkpt>
      <trkpt lat="43.53472" lon="1.47007">
        <ele>187.80000305176</ele>
        <time>2020-05-31T14:08:10.000Z</time>
      </trkpt>
      <trkpt lat="43.53464" lon="1.47009">
        <ele>187.80000305176</ele>
        <time>2020-05-31T14:08:12.000Z</time>
      </trkpt>
      <trkpt lat="43.53458" lon="1.47007">
        <ele>187.80000305176</ele>
        <time>2020-05-31T14:08:14.000Z</time>
      </trkpt>
      <trkpt lat="43.53452" lon="1.47007">
        <ele>187.80000305176</ele>
        <time>2020-05-31T14:08:16.000Z</time>
      </trkpt>
      <trkpt lat="43.53448" lon="1.47012">
        <ele>188.19999694824</ele>
        <time>2020-05-31T14:08:18.000Z</time>
      </trkpt>
      <trkpt lat="43.53444" lon="1.47018">
        <ele>188.60000610352</ele>
        <time>2020-05-31T14:08:20.000Z</time>
      </trkpt>
      <trkpt lat="43.53443" lon="1.47021">
        <ele>188.80000305176</ele>
        <time>2020-05-31T14:08:21.000Z</time>
      </trkpt>
      <trkpt lat="43.53443" lon="1.47024">
        <ele>189</ele>
        <time>2020-05-31T14:08:22.000Z</time>
      </trkpt>
      <trkpt lat="43.53446" lon="1.47031">
        <ele>189.19999694824</ele>
        <time>2020-05-31T14:08:24.000Z</time>
      </trkpt>
      <trkpt lat="43.5345" lon="1.47038">
        <ele>189.19999694824</ele>
        <time>2020-05-31T14:08:26.000Z</time>
      </trkpt>
      <trkpt lat="43.53452" lon="1.47042">
        <ele>189.39999389648</ele>
        <time>2020-05-31T14:08:27.000Z</time>
      </trkpt>
      <trkpt lat="43.53454" lon="1.47047">
        <ele>189.39999389648</ele>
        <time>2020-05-31T14:08:28.000Z</time>
      </trkpt>
      <trkpt lat="43.53457" lon="1.47051">
        <ele>189.39999389648</ele>
        <time>2020-05-31T14:08:29.000Z</time>
      </trkpt>
      <trkpt lat="43.5346" lon="1.47054">
        <ele>189.39999389648</ele>
        <time>2020-05-31T14:08:30.000Z</time>
      </trkpt>
      <trkpt lat="43.53467" lon="1.47061">
        <ele>189.19999694824</ele>
        <time>2020-05-31T14:08:32.000Z</time>
      </trkpt>
      <trkpt lat="43.53474" lon="1.47068">
        <ele>188.80000305176</ele>
        <time>2020-05-31T14:08:34.000Z</time>
      </trkpt>
      <trkpt lat="43.53482" lon="1.47077">
        <ele>188.39999389648</ele>
        <time>2020-05-31T14:08:36.000Z</time>
      </trkpt>
      <trkpt lat="43.5349" lon="1.47087">
        <ele>188</ele>
        <time>2020-05-31T14:08:38.000Z</time>
      </trkpt>
      <trkpt lat="43.53499" lon="1.47098">
        <ele>187.60000610352</ele>
        <time>2020-05-31T14:08:40.000Z</time>
      </trkpt>
      <trkpt lat="43.53503" lon="1.47103">
        <ele>187.39999389648</ele>
        <time>2020-05-31T14:08:41.000Z</time>
      </trkpt>
      <trkpt lat="43.53509" lon="1.4711">
        <ele>187.19999694824</ele>
        <time>2020-05-31T14:08:42.000Z</time>
      </trkpt>
      <trkpt lat="43.53521" lon="1.47124">
        <ele>186.80000305176</ele>
        <time>2020-05-31T14:08:44.000Z</time>
      </trkpt>
      <trkpt lat="43.53533" lon="1.47139">
        <ele>186.39999389648</ele>
        <time>2020-05-31T14:08:46.000Z</time>
      </trkpt>
      <trkpt lat="43.53545" lon="1.47155">
        <ele>184.60000610352</ele>
        <time>2020-05-31T14:08:48.000Z</time>
      </trkpt>
      <trkpt lat="43.53558" lon="1.47171">
        <ele>183</ele>
        <time>2020-05-31T14:08:50.000Z</time>
      </trkpt>
      <trkpt lat="43.53571" lon="1.47188">
        <ele>182</ele>
        <time>2020-05-31T14:08:52.000Z</time>
      </trkpt>
      <trkpt lat="43.53583" lon="1.47203">
        <ele>180.19999694824</ele>
        <time>2020-05-31T14:08:54.000Z</time>
      </trkpt>
      <trkpt lat="43.53595" lon="1.47219">
        <ele>179.39999389648</ele>
        <time>2020-05-31T14:08:56.000Z</time>
      </trkpt>
      <trkpt lat="43.53601" lon="1.47226">
        <ele>178.39999389648</ele>
        <time>2020-05-31T14:08:57.000Z</time>
      </trkpt>
      <trkpt lat="43.53607" lon="1.47233">
        <ele>177.80000305176</ele>
        <time>2020-05-31T14:08:58.000Z</time>
      </trkpt>
      <trkpt lat="43.53621" lon="1.47245">
        <ele>177.19999694824</ele>
        <time>2020-05-31T14:09:00.000Z</time>
      </trkpt>
      <trkpt lat="43.53636" lon="1.47258">
        <ele>176.60000610352</ele>
        <time>2020-05-31T14:09:02.000Z</time>
      </trkpt>
      <trkpt lat="43.53643" lon="1.47266">
        <ele>176.39999389648</ele>
        <time>2020-05-31T14:09:03.000Z</time>
      </trkpt>
      <trkpt lat="43.5365" lon="1.47275">
        <ele>176</ele>
        <time>2020-05-31T14:09:04.000Z</time>
      </trkpt>
      <trkpt lat="43.53664" lon="1.47294">
        <ele>175</ele>
        <time>2020-05-31T14:09:06.000Z</time>
      </trkpt>
      <trkpt lat="43.53671" lon="1.47303">
        <ele>174.19999694824</ele>
        <time>2020-05-31T14:09:07.000Z</time>
      </trkpt>
      <trkpt lat="43.53679" lon="1.47312">
        <ele>173.39999389648</ele>
        <time>2020-05-31T14:09:08.000Z</time>
      </trkpt>
      <trkpt lat="43.53687" lon="1.47321">
        <ele>172.80000305176</ele>
        <time>2020-05-31T14:09:09.000Z</time>
      </trkpt>
      <trkpt lat="43.53695" lon="1.47331">
        <ele>172.19999694824</ele>
        <time>2020-05-31T14:09:10.000Z</time>
      </trkpt>
      <trkpt lat="43.53713" lon="1.47351">
        <ele>171.39999389648</ele>
        <time>2020-05-31T14:09:12.000Z</time>
      </trkpt>
      <trkpt lat="43.53731" lon="1.47371">
        <ele>169.80000305176</ele>
        <time>2020-05-31T14:09:14.000Z</time>
      </trkpt>
      <trkpt lat="43.53749" lon="1.47392">
        <ele>168.39999389648</ele>
        <time>2020-05-31T14:09:16.000Z</time>
      </trkpt>
      <trkpt lat="43.53766" lon="1.47411">
        <ele>167.60000610352</ele>
        <time>2020-05-31T14:09:18.000Z</time>
      </trkpt>
      <trkpt lat="43.53772" lon="1.47419">
        <ele>166.60000610352</ele>
        <time>2020-05-31T14:09:19.000Z</time>
      </trkpt>
      <trkpt lat="43.53777" lon="1.47428">
        <ele>165.19999694824</ele>
        <time>2020-05-31T14:09:20.000Z</time>
      </trkpt>
      <trkpt lat="43.5378" lon="1.47437">
        <ele>163.80000305176</ele>
        <time>2020-05-31T14:09:21.000Z</time>
      </trkpt>
      <trkpt lat="43.53782" lon="1.47446">
        <ele>162.19999694824</ele>
        <time>2020-05-31T14:09:22.000Z</time>
      </trkpt>
      <trkpt lat="43.53784" lon="1.47455">
        <ele>161.19999694824</ele>
        <time>2020-05-31T14:09:23.000Z</time>
      </trkpt>
      <trkpt lat="43.53786" lon="1.47461">
        <ele>161</ele>
        <time>2020-05-31T14:09:24.000Z</time>
      </trkpt>
      <trkpt lat="43.53794" lon="1.4747">
        <ele>160.80000305176</ele>
        <time>2020-05-31T14:09:26.000Z</time>
      </trkpt>
      <trkpt lat="43.53801" lon="1.47482">
        <ele>160</ele>
        <time>2020-05-31T14:09:28.000Z</time>
      </trkpt>
      <trkpt lat="43.53807" lon="1.47497">
        <ele>159.39999389648</ele>
        <time>2020-05-31T14:09:30.000Z</time>
      </trkpt>
      <trkpt lat="43.53812" lon="1.47514">
        <ele>159</ele>
        <time>2020-05-31T14:09:32.000Z</time>
      </trkpt>
      <trkpt lat="43.53814" lon="1.47521">
        <ele>158.80000305176</ele>
        <time>2020-05-31T14:09:33.000Z</time>
      </trkpt>
      <trkpt lat="43.53816" lon="1.47528">
        <ele>158.60000610352</ele>
        <time>2020-05-31T14:09:34.000Z</time>
      </trkpt>
      <trkpt lat="43.5382" lon="1.47543">
        <ele>158.19999694824</ele>
        <time>2020-05-31T14:09:36.000Z</time>
      </trkpt>
      <trkpt lat="43.53821" lon="1.4755">
        <ele>157.80000305176</ele>
        <time>2020-05-31T14:09:37.000Z</time>
      </trkpt>
      <trkpt lat="43.53824" lon="1.47558">
        <ele>157.60000610352</ele>
        <time>2020-05-31T14:09:38.000Z</time>
      </trkpt>
      <trkpt lat="43.53828" lon="1.47573">
        <ele>157.39999389648</ele>
        <time>2020-05-31T14:09:40.000Z</time>
      </trkpt>
      <trkpt lat="43.53832" lon="1.47588">
        <ele>157</ele>
        <time>2020-05-31T14:09:42.000Z</time>
      </trkpt>
      <trkpt lat="43.53837" lon="1.47605">
        <ele>156.80000305176</ele>
        <time>2020-05-31T14:09:44.000Z</time>
      </trkpt>
      <trkpt lat="43.53843" lon="1.47621">
        <ele>156.19999694824</ele>
        <time>2020-05-31T14:09:46.000Z</time>
      </trkpt>
      <trkpt lat="43.5385" lon="1.47639">
        <ele>155.60000610352</ele>
        <time>2020-05-31T14:09:48.000Z</time>
      </trkpt>
      <trkpt lat="43.53858" lon="1.47657">
        <ele>155.39999389648</ele>
        <time>2020-05-31T14:09:50.000Z</time>
      </trkpt>
      <trkpt lat="43.53866" lon="1.47675">
        <ele>155.39999389648</ele>
        <time>2020-05-31T14:09:52.000Z</time>
      </trkpt>
      <trkpt lat="43.53875" lon="1.47691">
        <ele>155.19999694824</ele>
        <time>2020-05-31T14:09:54.000Z</time>
      </trkpt>
      <trkpt lat="43.53882" lon="1.47706">
        <ele>154.39999389648</ele>
        <time>2020-05-31T14:09:56.000Z</time>
      </trkpt>
      <trkpt lat="43.53891" lon="1.47721">
        <ele>153.80000305176</ele>
        <time>2020-05-31T14:09:58.000Z</time>
      </trkpt>
      <trkpt lat="43.539" lon="1.47735">
        <ele>153.60000610352</ele>
        <time>2020-05-31T14:10:00.000Z</time>
      </trkpt>
      <trkpt lat="43.5391" lon="1.47749">
        <ele>153.39999389648</ele>
        <time>2020-05-31T14:10:02.000Z</time>
      </trkpt>
      <trkpt lat="43.53914" lon="1.47756">
        <ele>153.39999389648</ele>
        <time>2020-05-31T14:10:03.000Z</time>
      </trkpt>
      <trkpt lat="43.53917" lon="1.47764">
        <ele>153.39999389648</ele>
        <time>2020-05-31T14:10:04.000Z</time>
      </trkpt>
      <trkpt lat="43.53922" lon="1.47778">
        <ele>153</ele>
        <time>2020-05-31T14:10:06.000Z</time>
      </trkpt>
      <trkpt lat="43.53924" lon="1.47785">
        <ele>152.80000305176</ele>
        <time>2020-05-31T14:10:07.000Z</time>
      </trkpt>
      <trkpt lat="43.53928" lon="1.4779">
        <ele>152.60000610352</ele>
        <time>2020-05-31T14:10:08.000Z</time>
      </trkpt>
      <trkpt lat="43.53932" lon="1.47794">
        <ele>152.39999389648</ele>
        <time>2020-05-31T14:10:09.000Z</time>
      </trkpt>
      <trkpt lat="43.53936" lon="1.47798">
        <ele>152.19999694824</ele>
        <time>2020-05-31T14:10:10.000Z</time>
      </trkpt>
      <trkpt lat="43.53948" lon="1.47809">
        <ele>151.39999389648</ele>
        <time>2020-05-31T14:10:12.000Z</time>
      </trkpt>
      <trkpt lat="43.53961" lon="1.47824">
        <ele>150.39999389648</ele>
        <time>2020-05-31T14:10:14.000Z</time>
      </trkpt>
      <trkpt lat="43.53974" lon="1.47839">
        <ele>150</ele>
        <time>2020-05-31T14:10:16.000Z</time>
      </trkpt>
      <trkpt lat="43.53988" lon="1.47856">
        <ele>149.80000305176</ele>
        <time>2020-05-31T14:10:18.000Z</time>
      </trkpt>
      <trkpt lat="43.54001" lon="1.47872">
        <ele>149.19999694824</ele>
        <time>2020-05-31T14:10:20.000Z</time>
      </trkpt>
      <trkpt lat="43.54013" lon="1.47888">
        <ele>149</ele>
        <time>2020-05-31T14:10:22.000Z</time>
      </trkpt>
      <trkpt lat="43.54025" lon="1.47901">
        <ele>148.80000305176</ele>
        <time>2020-05-31T14:10:24.000Z</time>
      </trkpt>
      <trkpt lat="43.54035" lon="1.47914">
        <ele>148.19999694824</ele>
        <time>2020-05-31T14:10:26.000Z</time>
      </trkpt>
      <trkpt lat="43.54044" lon="1.47928">
        <ele>147.39999389648</ele>
        <time>2020-05-31T14:10:28.000Z</time>
      </trkpt>
      <trkpt lat="43.54048" lon="1.47935">
        <ele>147.19999694824</ele>
        <time>2020-05-31T14:10:29.000Z</time>
      </trkpt>
      <trkpt lat="43.54052" lon="1.47943">
        <ele>147.19999694824</ele>
        <time>2020-05-31T14:10:30.000Z</time>
      </trkpt>
      <trkpt lat="43.54061" lon="1.47958">
        <ele>146.80000305176</ele>
        <time>2020-05-31T14:10:32.000Z</time>
      </trkpt>
      <trkpt lat="43.54068" lon="1.47974">
        <ele>146.39999389648</ele>
        <time>2020-05-31T14:10:34.000Z</time>
      </trkpt>
      <trkpt lat="43.54072" lon="1.47982">
        <ele>146.19999694824</ele>
        <time>2020-05-31T14:10:35.000Z</time>
      </trkpt>
      <trkpt lat="43.54076" lon="1.4799">
        <ele>146</ele>
        <time>2020-05-31T14:10:36.000Z</time>
      </trkpt>
      <trkpt lat="43.54083" lon="1.48006">
        <ele>145.39999389648</ele>
        <time>2020-05-31T14:10:38.000Z</time>
      </trkpt>
      <trkpt lat="43.54091" lon="1.48022">
        <ele>144.60000610352</ele>
        <time>2020-05-31T14:10:40.000Z</time>
      </trkpt>
      <trkpt lat="43.54098" lon="1.48039">
        <ele>144.39999389648</ele>
        <time>2020-05-31T14:10:42.000Z</time>
      </trkpt>
      <trkpt lat="43.54101" lon="1.48048">
        <ele>144</ele>
        <time>2020-05-31T14:10:43.000Z</time>
      </trkpt>
      <trkpt lat="43.54104" lon="1.48057">
        <ele>143.39999389648</ele>
        <time>2020-05-31T14:10:44.000Z</time>
      </trkpt>
      <trkpt lat="43.54107" lon="1.48066">
        <ele>142.60000610352</ele>
        <time>2020-05-31T14:10:45.000Z</time>
      </trkpt>
      <trkpt lat="43.5411" lon="1.48076">
        <ele>142.19999694824</ele>
        <time>2020-05-31T14:10:46.000Z</time>
      </trkpt>
      <trkpt lat="43.54116" lon="1.48096">
        <ele>141.80000305176</ele>
        <time>2020-05-31T14:10:48.000Z</time>
      </trkpt>
      <trkpt lat="43.54121" lon="1.48117">
        <ele>141.60000610352</ele>
        <time>2020-05-31T14:10:50.000Z</time>
      </trkpt>
      <trkpt lat="43.54124" lon="1.48138">
        <ele>140.80000305176</ele>
        <time>2020-05-31T14:10:52.000Z</time>
      </trkpt>
      <trkpt lat="43.54125" lon="1.48149">
        <ele>140.39999389648</ele>
        <time>2020-05-31T14:10:53.000Z</time>
      </trkpt>
      <trkpt lat="43.54126" lon="1.48159">
        <ele>140.19999694824</ele>
        <time>2020-05-31T14:10:54.000Z</time>
      </trkpt>
      <trkpt lat="43.54128" lon="1.48179">
        <ele>139.19999694824</ele>
        <time>2020-05-31T14:10:56.000Z</time>
      </trkpt>
      <trkpt lat="43.54129" lon="1.48199">
        <ele>138.39999389648</ele>
        <time>2020-05-31T14:10:58.000Z</time>
      </trkpt>
      <trkpt lat="43.5413" lon="1.48208">
        <ele>138.19999694824</ele>
        <time>2020-05-31T14:10:59.000Z</time>
      </trkpt>
      <trkpt lat="43.5413" lon="1.48217">
        <ele>138</ele>
        <time>2020-05-31T14:11:00.000Z</time>
      </trkpt>
      <trkpt lat="43.5413" lon="1.48234">
        <ele>137.60000610352</ele>
        <time>2020-05-31T14:11:02.000Z</time>
      </trkpt>
      <trkpt lat="43.54129" lon="1.48242">
        <ele>137.60000610352</ele>
        <time>2020-05-31T14:11:03.000Z</time>
      </trkpt>
      <trkpt lat="43.54127" lon="1.48249">
        <ele>137.60000610352</ele>
        <time>2020-05-31T14:11:04.000Z</time>
      </trkpt>
      <trkpt lat="43.54118" lon="1.48259">
        <ele>137.60000610352</ele>
        <time>2020-05-31T14:11:06.000Z</time>
      </trkpt>
      <trkpt lat="43.54108" lon="1.48264">
        <ele>137.60000610352</ele>
        <time>2020-05-31T14:11:08.000Z</time>
      </trkpt>
      <trkpt lat="43.54104" lon="1.48267">
        <ele>137.60000610352</ele>
        <time>2020-05-31T14:11:09.000Z</time>
      </trkpt>
      <trkpt lat="43.541" lon="1.48271">
        <ele>137.60000610352</ele>
        <time>2020-05-31T14:11:10.000Z</time>
      </trkpt>
      <trkpt lat="43.54093" lon="1.48281">
        <ele>137.80000305176</ele>
        <time>2020-05-31T14:11:12.000Z</time>
      </trkpt>
      <trkpt lat="43.5409" lon="1.48286">
        <ele>137.80000305176</ele>
        <time>2020-05-31T14:11:13.000Z</time>
      </trkpt>
      <trkpt lat="43.54088" lon="1.48292">
        <ele>137.80000305176</ele>
        <time>2020-05-31T14:11:14.000Z</time>
      </trkpt>
      <trkpt lat="43.54085" lon="1.48306">
        <ele>137.80000305176</ele>
        <time>2020-05-31T14:11:16.000Z</time>
      </trkpt>
      <trkpt lat="43.54086" lon="1.48321">
        <ele>138.19999694824</ele>
        <time>2020-05-31T14:11:18.000Z</time>
      </trkpt>
      <trkpt lat="43.54091" lon="1.48334">
        <ele>138.39999389648</ele>
        <time>2020-05-31T14:11:20.000Z</time>
      </trkpt>
      <trkpt lat="43.54098" lon="1.48344">
        <ele>138.60000610352</ele>
        <time>2020-05-31T14:11:22.000Z</time>
      </trkpt>
      <trkpt lat="43.54108" lon="1.48348">
        <ele>138.80000305176</ele>
        <time>2020-05-31T14:11:24.000Z</time>
      </trkpt>
      <trkpt lat="43.54117" lon="1.4835">
        <ele>138.80000305176</ele>
        <time>2020-05-31T14:11:26.000Z</time>
      </trkpt>
      <trkpt lat="43.54126" lon="1.48349">
        <ele>139.19999694824</ele>
        <time>2020-05-31T14:11:28.000Z</time>
      </trkpt>
      <trkpt lat="43.54135" lon="1.48346">
        <ele>139.19999694824</ele>
        <time>2020-05-31T14:11:30.000Z</time>
      </trkpt>
      <trkpt lat="43.54143" lon="1.48341">
        <ele>139.19999694824</ele>
        <time>2020-05-31T14:11:32.000Z</time>
      </trkpt>
      <trkpt lat="43.54151" lon="1.48333">
        <ele>139.19999694824</ele>
        <time>2020-05-31T14:11:34.000Z</time>
      </trkpt>
      <trkpt lat="43.54156" lon="1.48323">
        <ele>139.19999694824</ele>
        <time>2020-05-31T14:11:36.000Z</time>
      </trkpt>
      <trkpt lat="43.54159" lon="1.4831">
        <ele>139.19999694824</ele>
        <time>2020-05-31T14:11:38.000Z</time>
      </trkpt>
      <trkpt lat="43.54161" lon="1.48304">
        <ele>139.19999694824</ele>
        <time>2020-05-31T14:11:39.000Z</time>
      </trkpt>
      <trkpt lat="43.54162" lon="1.48298">
        <ele>139.39999389648</ele>
        <time>2020-05-31T14:11:40.000Z</time>
      </trkpt>
      <trkpt lat="43.54169" lon="1.4829">
        <ele>139.39999389648</ele>
        <time>2020-05-31T14:11:42.000Z</time>
      </trkpt>
      <trkpt lat="43.54178" lon="1.48287">
        <ele>139.19999694824</ele>
        <time>2020-05-31T14:11:44.000Z</time>
      </trkpt>
      <trkpt lat="43.54187" lon="1.4829">
        <ele>139.19999694824</ele>
        <time>2020-05-31T14:11:46.000Z</time>
      </trkpt>
      <trkpt lat="43.54194" lon="1.48299">
        <ele>139.19999694824</ele>
        <time>2020-05-31T14:11:48.000Z</time>
      </trkpt>
      <trkpt lat="43.54198" lon="1.4831">
        <ele>139.19999694824</ele>
        <time>2020-05-31T14:11:50.000Z</time>
      </trkpt>
      <trkpt lat="43.54202" lon="1.48321">
        <ele>138.80000305176</ele>
        <time>2020-05-31T14:11:52.000Z</time>
      </trkpt>
      <trkpt lat="43.54207" lon="1.48332">
        <ele>138.60000610352</ele>
        <time>2020-05-31T14:11:54.000Z</time>
      </trkpt>
      <trkpt lat="43.54212" lon="1.48343">
        <ele>138.39999389648</ele>
        <time>2020-05-31T14:11:56.000Z</time>
      </trkpt>
      <trkpt lat="43.54216" lon="1.48355">
        <ele>138.39999389648</ele>
        <time>2020-05-31T14:11:58.000Z</time>
      </trkpt>
      <trkpt lat="43.54221" lon="1.48367">
        <ele>138.19999694824</ele>
        <time>2020-05-31T14:12:00.000Z</time>
      </trkpt>
      <trkpt lat="43.54227" lon="1.48378">
        <ele>138</ele>
        <time>2020-05-31T14:12:02.000Z</time>
      </trkpt>
      <trkpt lat="43.54233" lon="1.4839">
        <ele>137.80000305176</ele>
        <time>2020-05-31T14:12:04.000Z</time>
      </trkpt>
      <trkpt lat="43.54239" lon="1.48401">
        <ele>137.60000610352</ele>
        <time>2020-05-31T14:12:06.000Z</time>
      </trkpt>
      <trkpt lat="43.54246" lon="1.48413">
        <ele>137.60000610352</ele>
        <time>2020-05-31T14:12:08.000Z</time>
      </trkpt>
      <trkpt lat="43.54252" lon="1.48424">
        <ele>137.19999694824</ele>
        <time>2020-05-31T14:12:10.000Z</time>
      </trkpt>
      <trkpt lat="43.54257" lon="1.48435">
        <ele>137</ele>
        <time>2020-05-31T14:12:12.000Z</time>
      </trkpt>
      <trkpt lat="43.54259" lon="1.48441">
        <ele>136.39999389648</ele>
        <time>2020-05-31T14:12:13.000Z</time>
      </trkpt>
      <trkpt lat="43.54261" lon="1.48447">
        <ele>136.19999694824</ele>
        <time>2020-05-31T14:12:14.000Z</time>
      </trkpt>
      <trkpt lat="43.54263" lon="1.48452">
        <ele>136</ele>
        <time>2020-05-31T14:12:15.000Z</time>
      </trkpt>
      <trkpt lat="43.54266" lon="1.48458">
        <ele>136</ele>
        <time>2020-05-31T14:12:16.000Z</time>
      </trkpt>
      <trkpt lat="43.54272" lon="1.4847">
        <ele>135.80000305176</ele>
        <time>2020-05-31T14:12:18.000Z</time>
      </trkpt>
      <trkpt lat="43.54276" lon="1.48476">
        <ele>135.60000610352</ele>
        <time>2020-05-31T14:12:19.000Z</time>
      </trkpt>
      <trkpt lat="43.54279" lon="1.48483">
        <ele>135.60000610352</ele>
        <time>2020-05-31T14:12:20.000Z</time>
      </trkpt>
      <trkpt lat="43.54286" lon="1.48495">
        <ele>135.39999389648</ele>
        <time>2020-05-31T14:12:22.000Z</time>
      </trkpt>
      <trkpt lat="43.54294" lon="1.48508">
        <ele>135.19999694824</ele>
        <time>2020-05-31T14:12:24.000Z</time>
      </trkpt>
      <trkpt lat="43.54301" lon="1.4852">
        <ele>134.60000610352</ele>
        <time>2020-05-31T14:12:26.000Z</time>
      </trkpt>
      <trkpt lat="43.54308" lon="1.48533">
        <ele>134.39999389648</ele>
        <time>2020-05-31T14:12:28.000Z</time>
      </trkpt>
      <trkpt lat="43.54315" lon="1.48545">
        <ele>133.80000305176</ele>
        <time>2020-05-31T14:12:30.000Z</time>
      </trkpt>
      <trkpt lat="43.54322" lon="1.48557">
        <ele>133.39999389648</ele>
        <time>2020-05-31T14:12:32.000Z</time>
      </trkpt>
      <trkpt lat="43.54328" lon="1.4857">
        <ele>133.19999694824</ele>
        <time>2020-05-31T14:12:34.000Z</time>
      </trkpt>
      <trkpt lat="43.54334" lon="1.48585">
        <ele>132.60000610352</ele>
        <time>2020-05-31T14:12:36.000Z</time>
      </trkpt>
      <trkpt lat="43.54338" lon="1.48599">
        <ele>132.60000610352</ele>
        <time>2020-05-31T14:12:38.000Z</time>
      </trkpt>
      <trkpt lat="43.5434" lon="1.48606">
        <ele>132.39999389648</ele>
        <time>2020-05-31T14:12:39.000Z</time>
      </trkpt>
      <trkpt lat="43.54342" lon="1.48613">
        <ele>132.39999389648</ele>
        <time>2020-05-31T14:12:40.000Z</time>
      </trkpt>
      <trkpt lat="43.54346" lon="1.48625">
        <ele>132.39999389648</ele>
        <time>2020-05-31T14:12:42.000Z</time>
      </trkpt>
      <trkpt lat="43.5435" lon="1.48638">
        <ele>132.39999389648</ele>
        <time>2020-05-31T14:12:44.000Z</time>
      </trkpt>
      <trkpt lat="43.54353" lon="1.48651">
        <ele>132.39999389648</ele>
        <time>2020-05-31T14:12:46.000Z</time>
      </trkpt>
      <trkpt lat="43.54356" lon="1.48664">
        <ele>132.39999389648</ele>
        <time>2020-05-31T14:12:48.000Z</time>
      </trkpt>
      <trkpt lat="43.54358" lon="1.4867">
        <ele>132.39999389648</ele>
        <time>2020-05-31T14:12:49.000Z</time>
      </trkpt>
      <trkpt lat="43.54359" lon="1.48677">
        <ele>132.39999389648</ele>
        <time>2020-05-31T14:12:50.000Z</time>
      </trkpt>
      <trkpt lat="43.54363" lon="1.4869">
        <ele>132.60000610352</ele>
        <time>2020-05-31T14:12:52.000Z</time>
      </trkpt>
      <trkpt lat="43.54365" lon="1.48704">
        <ele>132.80000305176</ele>
        <time>2020-05-31T14:12:54.000Z</time>
      </trkpt>
      <trkpt lat="43.54367" lon="1.48717">
        <ele>132.80000305176</ele>
        <time>2020-05-31T14:12:56.000Z</time>
      </trkpt>
      <trkpt lat="43.54369" lon="1.48731">
        <ele>132.80000305176</ele>
        <time>2020-05-31T14:12:58.000Z</time>
      </trkpt>
      <trkpt lat="43.54371" lon="1.48745">
        <ele>133</ele>
        <time>2020-05-31T14:13:00.000Z</time>
      </trkpt>
      <trkpt lat="43.54373" lon="1.48759">
        <ele>133.19999694824</ele>
        <time>2020-05-31T14:13:02.000Z</time>
      </trkpt>
      <trkpt lat="43.54376" lon="1.48774">
        <ele>133.19999694824</ele>
        <time>2020-05-31T14:13:04.000Z</time>
      </trkpt>
      <trkpt lat="43.54378" lon="1.48788">
        <ele>133.19999694824</ele>
        <time>2020-05-31T14:13:06.000Z</time>
      </trkpt>
      <trkpt lat="43.54381" lon="1.48802">
        <ele>133</ele>
        <time>2020-05-31T14:13:08.000Z</time>
      </trkpt>
      <trkpt lat="43.54384" lon="1.48817">
        <ele>133</ele>
        <time>2020-05-31T14:13:10.000Z</time>
      </trkpt>
      <trkpt lat="43.54388" lon="1.48832">
        <ele>132.80000305176</ele>
        <time>2020-05-31T14:13:12.000Z</time>
      </trkpt>
      <trkpt lat="43.5439" lon="1.48839">
        <ele>132.60000610352</ele>
        <time>2020-05-31T14:13:13.000Z</time>
      </trkpt>
      <trkpt lat="43.54393" lon="1.48845">
        <ele>132.60000610352</ele>
        <time>2020-05-31T14:13:14.000Z</time>
      </trkpt>
      <trkpt lat="43.54398" lon="1.48859">
        <ele>132.80000305176</ele>
        <time>2020-05-31T14:13:16.000Z</time>
      </trkpt>
      <trkpt lat="43.54404" lon="1.48872">
        <ele>132.80000305176</ele>
        <time>2020-05-31T14:13:18.000Z</time>
      </trkpt>
      <trkpt lat="43.5441" lon="1.48885">
        <ele>132.60000610352</ele>
        <time>2020-05-31T14:13:20.000Z</time>
      </trkpt>
      <trkpt lat="43.54416" lon="1.48897">
        <ele>132.39999389648</ele>
        <time>2020-05-31T14:13:22.000Z</time>
      </trkpt>
      <trkpt lat="43.54422" lon="1.48908">
        <ele>132.19999694824</ele>
        <time>2020-05-31T14:13:24.000Z</time>
      </trkpt>
      <trkpt lat="43.54426" lon="1.48919">
        <ele>132.39999389648</ele>
        <time>2020-05-31T14:13:26.000Z</time>
      </trkpt>
      <trkpt lat="43.54431" lon="1.4893">
        <ele>132.19999694824</ele>
        <time>2020-05-31T14:13:28.000Z</time>
      </trkpt>
      <trkpt lat="43.54436" lon="1.4894">
        <ele>132.19999694824</ele>
        <time>2020-05-31T14:13:30.000Z</time>
      </trkpt>
      <trkpt lat="43.5444" lon="1.48951">
        <ele>132.19999694824</ele>
        <time>2020-05-31T14:13:32.000Z</time>
      </trkpt>
      <trkpt lat="43.54444" lon="1.48961">
        <ele>132.19999694824</ele>
        <time>2020-05-31T14:13:34.000Z</time>
      </trkpt>
      <trkpt lat="43.54447" lon="1.4897">
        <ele>132.19999694824</ele>
        <time>2020-05-31T14:13:36.000Z</time>
      </trkpt>
      <trkpt lat="43.54451" lon="1.4898">
        <ele>132.39999389648</ele>
        <time>2020-05-31T14:13:38.000Z</time>
      </trkpt>
      <trkpt lat="43.54455" lon="1.48986">
        <ele>132.80000305176</ele>
        <time>2020-05-31T14:13:40.000Z</time>
      </trkpt>
      <trkpt lat="43.54458" lon="1.48992">
        <ele>133.19999694824</ele>
        <time>2020-05-31T14:13:42.000Z</time>
      </trkpt>
      <trkpt lat="43.5446" lon="1.48996">
        <ele>133.19999694824</ele>
        <time>2020-05-31T14:13:44.000Z</time>
      </trkpt>
      <trkpt lat="43.54462" lon="1.49002">
        <ele>133.39999389648</ele>
        <time>2020-05-31T14:13:46.000Z</time>
      </trkpt>
      <trkpt lat="43.54461" lon="1.49007">
        <ele>133.39999389648</ele>
        <time>2020-05-31T14:13:48.000Z</time>
      </trkpt>
      <trkpt lat="43.5446" lon="1.49008">
        <ele>133.39999389648</ele>
        <time>2020-05-31T14:13:49.000Z</time>
      </trkpt>
      <trkpt lat="43.54459" lon="1.4901">
        <ele>133.39999389648</ele>
        <time>2020-05-31T14:13:50.000Z</time>
      </trkpt>
      <trkpt lat="43.54455" lon="1.49011">
        <ele>133.19999694824</ele>
        <time>2020-05-31T14:13:52.000Z</time>
      </trkpt>
      <trkpt lat="43.5445" lon="1.49013">
        <ele>133</ele>
        <time>2020-05-31T14:13:54.000Z</time>
      </trkpt>
      <trkpt lat="43.54447" lon="1.49015">
        <ele>133</ele>
        <time>2020-05-31T14:13:55.000Z</time>
      </trkpt>
      <trkpt lat="43.54444" lon="1.49016">
        <ele>132.60000610352</ele>
        <time>2020-05-31T14:13:56.000Z</time>
      </trkpt>
      <trkpt lat="43.54437" lon="1.4902">
        <ele>132</ele>
        <time>2020-05-31T14:13:58.000Z</time>
      </trkpt>
      <trkpt lat="43.54434" lon="1.49022">
        <ele>131.80000305176</ele>
        <time>2020-05-31T14:13:59.000Z</time>
      </trkpt>
      <trkpt lat="43.5443" lon="1.49023">
        <ele>131.39999389648</ele>
        <time>2020-05-31T14:14:00.000Z</time>
      </trkpt>
      <trkpt lat="43.54421" lon="1.49026">
        <ele>131</ele>
        <time>2020-05-31T14:14:02.000Z</time>
      </trkpt>
      <trkpt lat="43.54413" lon="1.49029">
        <ele>130.80000305176</ele>
        <time>2020-05-31T14:14:04.000Z</time>
      </trkpt>
      <trkpt lat="43.54406" lon="1.49033">
        <ele>130.60000610352</ele>
        <time>2020-05-31T14:14:06.000Z</time>
      </trkpt>
      <trkpt lat="43.544" lon="1.49036">
        <ele>130.60000610352</ele>
        <time>2020-05-31T14:14:08.000Z</time>
      </trkpt>
      <trkpt lat="43.54397" lon="1.49038">
        <ele>130.39999389648</ele>
        <time>2020-05-31T14:14:09.000Z</time>
      </trkpt>
      <trkpt lat="43.54393" lon="1.49039">
        <ele>130.39999389648</ele>
        <time>2020-05-31T14:14:10.000Z</time>
      </trkpt>
      <trkpt lat="43.5439" lon="1.4904">
        <ele>130.39999389648</ele>
        <time>2020-05-31T14:14:11.000Z</time>
      </trkpt>
      <trkpt lat="43.54387" lon="1.49042">
        <ele>130.39999389648</ele>
        <time>2020-05-31T14:14:12.000Z</time>
      </trkpt>
      <trkpt lat="43.54379" lon="1.49044">
        <ele>130.19999694824</ele>
        <time>2020-05-31T14:14:14.000Z</time>
      </trkpt>
      <trkpt lat="43.54372" lon="1.49048">
        <ele>130.19999694824</ele>
        <time>2020-05-31T14:14:16.000Z</time>
      </trkpt>
      <trkpt lat="43.54366" lon="1.4905">
        <ele>130.19999694824</ele>
        <time>2020-05-31T14:14:18.000Z</time>
      </trkpt>
      <trkpt lat="43.54363" lon="1.49052">
        <ele>130.19999694824</ele>
        <time>2020-05-31T14:14:19.000Z</time>
      </trkpt>
      <trkpt lat="43.54359" lon="1.49053">
        <ele>130.39999389648</ele>
        <time>2020-05-31T14:14:20.000Z</time>
      </trkpt>
      <trkpt lat="43.5435" lon="1.49056">
        <ele>130.39999389648</ele>
        <time>2020-05-31T14:14:22.000Z</time>
      </trkpt>
      <trkpt lat="43.54343" lon="1.49058">
        <ele>130.39999389648</ele>
        <time>2020-05-31T14:14:24.000Z</time>
      </trkpt>
      <trkpt lat="43.54334" lon="1.49061">
        <ele>130.39999389648</ele>
        <time>2020-05-31T14:14:26.000Z</time>
      </trkpt>
      <trkpt lat="43.54326" lon="1.49065">
        <ele>130.39999389648</ele>
        <time>2020-05-31T14:14:28.000Z</time>
      </trkpt>
      <trkpt lat="43.54319" lon="1.49066">
        <ele>130.39999389648</ele>
        <time>2020-05-31T14:14:30.000Z</time>
      </trkpt>
      <trkpt lat="43.54312" lon="1.49067">
        <ele>130.39999389648</ele>
        <time>2020-05-31T14:14:32.000Z</time>
      </trkpt>
      <trkpt lat="43.54309" lon="1.49069">
        <ele>130.39999389648</ele>
        <time>2020-05-31T14:14:33.000Z</time>
      </trkpt>
      <trkpt lat="43.54304" lon="1.49071">
        <ele>130.39999389648</ele>
        <time>2020-05-31T14:14:34.000Z</time>
      </trkpt>
      <trkpt lat="43.54297" lon="1.49074">
        <ele>130.39999389648</ele>
        <time>2020-05-31T14:14:36.000Z</time>
      </trkpt>
      <trkpt lat="43.54289" lon="1.49075">
        <ele>130.39999389648</ele>
        <time>2020-05-31T14:14:38.000Z</time>
      </trkpt>
      <trkpt lat="43.54284" lon="1.49077">
        <ele>130.39999389648</ele>
        <time>2020-05-31T14:14:39.000Z</time>
      </trkpt>
      <trkpt lat="43.5428" lon="1.49077">
        <ele>130.39999389648</ele>
        <time>2020-05-31T14:14:40.000Z</time>
      </trkpt>
      <trkpt lat="43.54271" lon="1.49081">
        <ele>130.39999389648</ele>
        <time>2020-05-31T14:14:42.000Z</time>
      </trkpt>
      <trkpt lat="43.54263" lon="1.49084">
        <ele>130</ele>
        <time>2020-05-31T14:14:44.000Z</time>
      </trkpt>
      <trkpt lat="43.54254" lon="1.49087">
        <ele>130.19999694824</ele>
        <time>2020-05-31T14:14:46.000Z</time>
      </trkpt>
      <trkpt lat="43.54249" lon="1.49088">
        <ele>130.19999694824</ele>
        <time>2020-05-31T14:14:47.000Z</time>
      </trkpt>
      <trkpt lat="43.54243" lon="1.4909">
        <ele>130</ele>
        <time>2020-05-31T14:14:48.000Z</time>
      </trkpt>
      <trkpt lat="43.54234" lon="1.49093">
        <ele>130</ele>
        <time>2020-05-31T14:14:50.000Z</time>
      </trkpt>
      <trkpt lat="43.54225" lon="1.49098">
        <ele>130</ele>
        <time>2020-05-31T14:14:52.000Z</time>
      </trkpt>
      <trkpt lat="43.54217" lon="1.49103">
        <ele>130</ele>
        <time>2020-05-31T14:14:54.000Z</time>
      </trkpt>
      <trkpt lat="43.54209" lon="1.49108">
        <ele>130.19999694824</ele>
        <time>2020-05-31T14:14:56.000Z</time>
      </trkpt>
      <trkpt lat="43.542" lon="1.49117">
        <ele>130.19999694824</ele>
        <time>2020-05-31T14:14:58.000Z</time>
      </trkpt>
      <trkpt lat="43.54192" lon="1.49122">
        <ele>130.39999389648</ele>
        <time>2020-05-31T14:15:00.000Z</time>
      </trkpt>
      <trkpt lat="43.54188" lon="1.49126">
        <ele>130.39999389648</ele>
        <time>2020-05-31T14:15:01.000Z</time>
      </trkpt>
      <trkpt lat="43.54184" lon="1.49129">
        <ele>130.39999389648</ele>
        <time>2020-05-31T14:15:02.000Z</time>
      </trkpt>
      <trkpt lat="43.54175" lon="1.49136">
        <ele>130.39999389648</ele>
        <time>2020-05-31T14:15:04.000Z</time>
      </trkpt>
      <trkpt lat="43.54166" lon="1.49142">
        <ele>130.39999389648</ele>
        <time>2020-05-31T14:15:06.000Z</time>
      </trkpt>
      <trkpt lat="43.54157" lon="1.49149">
        <ele>130.39999389648</ele>
        <time>2020-05-31T14:15:08.000Z</time>
      </trkpt>
      <trkpt lat="43.54147" lon="1.49157">
        <ele>130.19999694824</ele>
        <time>2020-05-31T14:15:10.000Z</time>
      </trkpt>
      <trkpt lat="43.54138" lon="1.49164">
        <ele>130</ele>
        <time>2020-05-31T14:15:12.000Z</time>
      </trkpt>
      <trkpt lat="43.54134" lon="1.49167">
        <ele>130.19999694824</ele>
        <time>2020-05-31T14:15:13.000Z</time>
      </trkpt>
      <trkpt lat="43.5413" lon="1.49169">
        <ele>130</ele>
        <time>2020-05-31T14:15:14.000Z</time>
      </trkpt>
      <trkpt lat="43.54122" lon="1.49174">
        <ele>130</ele>
        <time>2020-05-31T14:15:16.000Z</time>
      </trkpt>
      <trkpt lat="43.54114" lon="1.49179">
        <ele>130</ele>
        <time>2020-05-31T14:15:18.000Z</time>
      </trkpt>
      <trkpt lat="43.54107" lon="1.49184">
        <ele>130.19999694824</ele>
        <time>2020-05-31T14:15:20.000Z</time>
      </trkpt>
      <trkpt lat="43.541" lon="1.4919">
        <ele>130.39999389648</ele>
        <time>2020-05-31T14:15:22.000Z</time>
      </trkpt>
      <trkpt lat="43.54094" lon="1.49193">
        <ele>130.19999694824</ele>
        <time>2020-05-31T14:15:24.000Z</time>
      </trkpt>
      <trkpt lat="43.54088" lon="1.49197">
        <ele>130</ele>
        <time>2020-05-31T14:15:26.000Z</time>
      </trkpt>
      <trkpt lat="43.5408" lon="1.49199">
        <ele>130</ele>
        <time>2020-05-31T14:15:28.000Z</time>
      </trkpt>
      <trkpt lat="43.54072" lon="1.49203">
        <ele>130</ele>
        <time>2020-05-31T14:15:30.000Z</time>
      </trkpt>
      <trkpt lat="43.54064" lon="1.49206">
        <ele>130</ele>
        <time>2020-05-31T14:15:32.000Z</time>
      </trkpt>
      <trkpt lat="43.5406" lon="1.49208">
        <ele>130</ele>
        <time>2020-05-31T14:15:33.000Z</time>
      </trkpt>
      <trkpt lat="43.54057" lon="1.4921">
        <ele>130.19999694824</ele>
        <time>2020-05-31T14:15:34.000Z</time>
      </trkpt>
      <trkpt lat="43.54049" lon="1.49212">
        <ele>130</ele>
        <time>2020-05-31T14:15:36.000Z</time>
      </trkpt>
      <trkpt lat="43.54045" lon="1.49214">
        <ele>130</ele>
        <time>2020-05-31T14:15:37.000Z</time>
      </trkpt>
      <trkpt lat="43.5404" lon="1.49216">
        <ele>129.80000305176</ele>
        <time>2020-05-31T14:15:38.000Z</time>
      </trkpt>
      <trkpt lat="43.5403" lon="1.49221">
        <ele>129.60000610352</ele>
        <time>2020-05-31T14:15:40.000Z</time>
      </trkpt>
      <trkpt lat="43.54019" lon="1.49227">
        <ele>129.60000610352</ele>
        <time>2020-05-31T14:15:42.000Z</time>
      </trkpt>
      <trkpt lat="43.54009" lon="1.49231">
        <ele>129.60000610352</ele>
        <time>2020-05-31T14:15:44.000Z</time>
      </trkpt>
      <trkpt lat="43.53998" lon="1.49235">
        <ele>129.60000610352</ele>
        <time>2020-05-31T14:15:46.000Z</time>
      </trkpt>
      <trkpt lat="43.53994" lon="1.49236">
        <ele>129.39999389648</ele>
        <time>2020-05-31T14:15:47.000Z</time>
      </trkpt>
      <trkpt lat="43.5399" lon="1.49237">
        <ele>129.39999389648</ele>
        <time>2020-05-31T14:15:48.000Z</time>
      </trkpt>
      <trkpt lat="43.53986" lon="1.49239">
        <ele>129.60000610352</ele>
        <time>2020-05-31T14:15:49.000Z</time>
      </trkpt>
      <trkpt lat="43.53982" lon="1.4924">
        <ele>129.60000610352</ele>
        <time>2020-05-31T14:15:50.000Z</time>
      </trkpt>
      <trkpt lat="43.53975" lon="1.49242">
        <ele>129.60000610352</ele>
        <time>2020-05-31T14:15:52.000Z</time>
      </trkpt>
      <trkpt lat="43.53972" lon="1.49243">
        <ele>129.60000610352</ele>
        <time>2020-05-31T14:15:53.000Z</time>
      </trkpt>
      <trkpt lat="43.53968" lon="1.49244">
        <ele>129.60000610352</ele>
        <time>2020-05-31T14:15:54.000Z</time>
      </trkpt>
      <trkpt lat="43.5396" lon="1.49245">
        <ele>130</ele>
        <time>2020-05-31T14:15:56.000Z</time>
      </trkpt>
      <trkpt lat="43.53951" lon="1.49247">
        <ele>130</ele>
        <time>2020-05-31T14:15:58.000Z</time>
      </trkpt>
      <trkpt lat="43.53946" lon="1.49248">
        <ele>130</ele>
        <time>2020-05-31T14:15:59.000Z</time>
      </trkpt>
      <trkpt lat="43.53941" lon="1.4925">
        <ele>130</ele>
        <time>2020-05-31T14:16:00.000Z</time>
      </trkpt>
      <trkpt lat="43.53937" lon="1.49252">
        <ele>130</ele>
        <time>2020-05-31T14:16:01.000Z</time>
      </trkpt>
      <trkpt lat="43.53932" lon="1.49255">
        <ele>129.80000305176</ele>
        <time>2020-05-31T14:16:02.000Z</time>
      </trkpt>
      <trkpt lat="43.53921" lon="1.4926">
        <ele>130</ele>
        <time>2020-05-31T14:16:04.000Z</time>
      </trkpt>
      <trkpt lat="43.53912" lon="1.49266">
        <ele>130</ele>
        <time>2020-05-31T14:16:06.000Z</time>
      </trkpt>
      <trkpt lat="43.53905" lon="1.49271">
        <ele>130.19999694824</ele>
        <time>2020-05-31T14:16:08.000Z</time>
      </trkpt>
      <trkpt lat="43.53898" lon="1.49276">
        <ele>130.19999694824</ele>
        <time>2020-05-31T14:16:10.000Z</time>
      </trkpt>
      <trkpt lat="43.53893" lon="1.49282">
        <ele>130</ele>
        <time>2020-05-31T14:16:12.000Z</time>
      </trkpt>
      <trkpt lat="43.53887" lon="1.49287">
        <ele>130</ele>
        <time>2020-05-31T14:16:14.000Z</time>
      </trkpt>
      <trkpt lat="43.53882" lon="1.49295">
        <ele>129.80000305176</ele>
        <time>2020-05-31T14:16:16.000Z</time>
      </trkpt>
      <trkpt lat="43.53878" lon="1.49303">
        <ele>129.60000610352</ele>
        <time>2020-05-31T14:16:18.000Z</time>
      </trkpt>
      <trkpt lat="43.53875" lon="1.49308">
        <ele>129.60000610352</ele>
        <time>2020-05-31T14:16:19.000Z</time>
      </trkpt>
      <trkpt lat="43.53874" lon="1.49313">
        <ele>129.60000610352</ele>
        <time>2020-05-31T14:16:20.000Z</time>
      </trkpt>
      <trkpt lat="43.53871" lon="1.49323">
        <ele>129.60000610352</ele>
        <time>2020-05-31T14:16:22.000Z</time>
      </trkpt>
      <trkpt lat="43.5387" lon="1.49332">
        <ele>129.60000610352</ele>
        <time>2020-05-31T14:16:24.000Z</time>
      </trkpt>
      <trkpt lat="43.53868" lon="1.49343">
        <ele>129.60000610352</ele>
        <time>2020-05-31T14:16:26.000Z</time>
      </trkpt>
      <trkpt lat="43.53867" lon="1.49353">
        <ele>129.60000610352</ele>
        <time>2020-05-31T14:16:28.000Z</time>
      </trkpt>
      <trkpt lat="43.53867" lon="1.49363">
        <ele>129.60000610352</ele>
        <time>2020-05-31T14:16:30.000Z</time>
      </trkpt>
      <trkpt lat="43.53866" lon="1.49375">
        <ele>129.60000610352</ele>
        <time>2020-05-31T14:16:32.000Z</time>
      </trkpt>
      <trkpt lat="43.53867" lon="1.49381">
        <ele>129.60000610352</ele>
        <time>2020-05-31T14:16:33.000Z</time>
      </trkpt>
      <trkpt lat="43.53867" lon="1.49387">
        <ele>129.80000305176</ele>
        <time>2020-05-31T14:16:34.000Z</time>
      </trkpt>
      <trkpt lat="43.53867" lon="1.49392">
        <ele>129.80000305176</ele>
        <time>2020-05-31T14:16:35.000Z</time>
      </trkpt>
      <trkpt lat="43.53867" lon="1.49398">
        <ele>129.80000305176</ele>
        <time>2020-05-31T14:16:36.000Z</time>
      </trkpt>
      <trkpt lat="43.53868" lon="1.49411">
        <ele>129.80000305176</ele>
        <time>2020-05-31T14:16:38.000Z</time>
      </trkpt>
      <trkpt lat="43.53868" lon="1.49423">
        <ele>130</ele>
        <time>2020-05-31T14:16:40.000Z</time>
      </trkpt>
      <trkpt lat="43.5387" lon="1.49436">
        <ele>130</ele>
        <time>2020-05-31T14:16:42.000Z</time>
      </trkpt>
      <trkpt lat="43.53871" lon="1.49451">
        <ele>130.19999694824</ele>
        <time>2020-05-31T14:16:44.000Z</time>
      </trkpt>
      <trkpt lat="43.53872" lon="1.49467">
        <ele>130.39999389648</ele>
        <time>2020-05-31T14:16:46.000Z</time>
      </trkpt>
      <trkpt lat="43.53874" lon="1.49483">
        <ele>130.39999389648</ele>
        <time>2020-05-31T14:16:48.000Z</time>
      </trkpt>
      <trkpt lat="43.53876" lon="1.49499">
        <ele>130.39999389648</ele>
        <time>2020-05-31T14:16:50.000Z</time>
      </trkpt>
      <trkpt lat="43.53878" lon="1.49516">
        <ele>130.39999389648</ele>
        <time>2020-05-31T14:16:52.000Z</time>
      </trkpt>
      <trkpt lat="43.5388" lon="1.49531">
        <ele>130.39999389648</ele>
        <time>2020-05-31T14:16:54.000Z</time>
      </trkpt>
      <trkpt lat="43.53883" lon="1.49545">
        <ele>130.60000610352</ele>
        <time>2020-05-31T14:16:56.000Z</time>
      </trkpt>
      <trkpt lat="43.53885" lon="1.49557">
        <ele>130.60000610352</ele>
        <time>2020-05-31T14:16:58.000Z</time>
      </trkpt>
      <trkpt lat="43.53887" lon="1.49569">
        <ele>130.60000610352</ele>
        <time>2020-05-31T14:17:00.000Z</time>
      </trkpt>
      <trkpt lat="43.53889" lon="1.49581">
        <ele>130.60000610352</ele>
        <time>2020-05-31T14:17:02.000Z</time>
      </trkpt>
      <trkpt lat="43.53891" lon="1.49592">
        <ele>130.60000610352</ele>
        <time>2020-05-31T14:17:04.000Z</time>
      </trkpt>
      <trkpt lat="43.53893" lon="1.49604">
        <ele>130.60000610352</ele>
        <time>2020-05-31T14:17:06.000Z</time>
      </trkpt>
      <trkpt lat="43.53895" lon="1.49617">
        <ele>130.60000610352</ele>
        <time>2020-05-31T14:17:08.000Z</time>
      </trkpt>
      <trkpt lat="43.53897" lon="1.49623">
        <ele>130.60000610352</ele>
        <time>2020-05-31T14:17:09.000Z</time>
      </trkpt>
      <trkpt lat="43.53898" lon="1.49629">
        <ele>130.60000610352</ele>
        <time>2020-05-31T14:17:10.000Z</time>
      </trkpt>
      <trkpt lat="43.53901" lon="1.49643">
        <ele>130.60000610352</ele>
        <time>2020-05-31T14:17:12.000Z</time>
      </trkpt>
      <trkpt lat="43.53904" lon="1.49656">
        <ele>130.60000610352</ele>
        <time>2020-05-31T14:17:14.000Z</time>
      </trkpt>
      <trkpt lat="43.53906" lon="1.49668">
        <ele>130.80000305176</ele>
        <time>2020-05-31T14:17:16.000Z</time>
      </trkpt>
      <trkpt lat="43.53907" lon="1.49673">
        <ele>130.80000305176</ele>
        <time>2020-05-31T14:17:17.000Z</time>
      </trkpt>
      <trkpt lat="43.53907" lon="1.49679">
        <ele>130.60000610352</ele>
        <time>2020-05-31T14:17:18.000Z</time>
      </trkpt>
      <trkpt lat="43.53909" lon="1.49691">
        <ele>130.60000610352</ele>
        <time>2020-05-31T14:17:20.000Z</time>
      </trkpt>
      <trkpt lat="43.5391" lon="1.49699">
        <ele>130.60000610352</ele>
        <time>2020-05-31T14:17:21.000Z</time>
      </trkpt>
      <trkpt lat="43.5391" lon="1.49707">
        <ele>130.60000610352</ele>
        <time>2020-05-31T14:17:22.000Z</time>
      </trkpt>
      <trkpt lat="43.53911" lon="1.4972">
        <ele>130.60000610352</ele>
        <time>2020-05-31T14:17:24.000Z</time>
      </trkpt>
      <trkpt lat="43.53912" lon="1.49733">
        <ele>130.60000610352</ele>
        <time>2020-05-31T14:17:26.000Z</time>
      </trkpt>
      <trkpt lat="43.53913" lon="1.49745">
        <ele>130.60000610352</ele>
        <time>2020-05-31T14:17:28.000Z</time>
      </trkpt>
      <trkpt lat="43.53912" lon="1.49759">
        <ele>130.60000610352</ele>
        <time>2020-05-31T14:17:30.000Z</time>
      </trkpt>
      <trkpt lat="43.53912" lon="1.49766">
        <ele>130.60000610352</ele>
        <time>2020-05-31T14:17:31.000Z</time>
      </trkpt>
      <trkpt lat="43.53912" lon="1.49773">
        <ele>130.39999389648</ele>
        <time>2020-05-31T14:17:32.000Z</time>
      </trkpt>
      <trkpt lat="43.53911" lon="1.49786">
        <ele>130.39999389648</ele>
        <time>2020-05-31T14:17:34.000Z</time>
      </trkpt>
      <trkpt lat="43.5391" lon="1.49797">
        <ele>130.39999389648</ele>
        <time>2020-05-31T14:17:36.000Z</time>
      </trkpt>
      <trkpt lat="43.53909" lon="1.49802">
        <ele>130.39999389648</ele>
        <time>2020-05-31T14:17:37.000Z</time>
      </trkpt>
      <trkpt lat="43.53908" lon="1.49808">
        <ele>130.60000610352</ele>
        <time>2020-05-31T14:17:38.000Z</time>
      </trkpt>
      <trkpt lat="43.53906" lon="1.49819">
        <ele>130.60000610352</ele>
        <time>2020-05-31T14:17:40.000Z</time>
      </trkpt>
      <trkpt lat="43.53904" lon="1.49832">
        <ele>130.19999694824</ele>
        <time>2020-05-31T14:17:42.000Z</time>
      </trkpt>
      <trkpt lat="43.53903" lon="1.49837">
        <ele>130.19999694824</ele>
        <time>2020-05-31T14:17:43.000Z</time>
      </trkpt>
      <trkpt lat="43.53902" lon="1.49844">
        <ele>130.19999694824</ele>
        <time>2020-05-31T14:17:44.000Z</time>
      </trkpt>
      <trkpt lat="43.53899" lon="1.49855">
        <ele>130</ele>
        <time>2020-05-31T14:17:46.000Z</time>
      </trkpt>
      <trkpt lat="43.53897" lon="1.49861">
        <ele>130</ele>
        <time>2020-05-31T14:17:47.000Z</time>
      </trkpt>
      <trkpt lat="43.53896" lon="1.49866">
        <ele>130</ele>
        <time>2020-05-31T14:17:48.000Z</time>
      </trkpt>
      <trkpt lat="43.53893" lon="1.49875">
        <ele>130</ele>
        <time>2020-05-31T14:17:50.000Z</time>
      </trkpt>
      <trkpt lat="43.5389" lon="1.49885">
        <ele>130.19999694824</ele>
        <time>2020-05-31T14:17:52.000Z</time>
      </trkpt>
      <trkpt lat="43.53886" lon="1.49897">
        <ele>130.39999389648</ele>
        <time>2020-05-31T14:17:54.000Z</time>
      </trkpt>
      <trkpt lat="43.53886" lon="1.49902">
        <ele>130.39999389648</ele>
        <time>2020-05-31T14:17:55.000Z</time>
      </trkpt>
      <trkpt lat="43.53884" lon="1.49907">
        <ele>130.39999389648</ele>
        <time>2020-05-31T14:17:56.000Z</time>
      </trkpt>
      <trkpt lat="43.5388" lon="1.49918">
        <ele>130.39999389648</ele>
        <time>2020-05-31T14:17:58.000Z</time>
      </trkpt>
      <trkpt lat="43.53878" lon="1.49923">
        <ele>130.39999389648</ele>
        <time>2020-05-31T14:17:59.000Z</time>
      </trkpt>
      <trkpt lat="43.53876" lon="1.49927">
        <ele>130.39999389648</ele>
        <time>2020-05-31T14:18:00.000Z</time>
      </trkpt>
      <trkpt lat="43.53874" lon="1.49933">
        <ele>130.39999389648</ele>
        <time>2020-05-31T14:18:01.000Z</time>
      </trkpt>
      <trkpt lat="43.53871" lon="1.49939">
        <ele>130.60000610352</ele>
        <time>2020-05-31T14:18:02.000Z</time>
      </trkpt>
      <trkpt lat="43.53865" lon="1.49951">
        <ele>130.60000610352</ele>
        <time>2020-05-31T14:18:04.000Z</time>
      </trkpt>
      <trkpt lat="43.53859" lon="1.49963">
        <ele>130.39999389648</ele>
        <time>2020-05-31T14:18:06.000Z</time>
      </trkpt>
      <trkpt lat="43.53852" lon="1.49974">
        <ele>130.39999389648</ele>
        <time>2020-05-31T14:18:08.000Z</time>
      </trkpt>
      <trkpt lat="43.53845" lon="1.49986">
        <ele>130.19999694824</ele>
        <time>2020-05-31T14:18:10.000Z</time>
      </trkpt>
      <trkpt lat="43.53839" lon="1.49995">
        <ele>130.19999694824</ele>
        <time>2020-05-31T14:18:12.000Z</time>
      </trkpt>
      <trkpt lat="43.53833" lon="1.50004">
        <ele>130.19999694824</ele>
        <time>2020-05-31T14:18:14.000Z</time>
      </trkpt>
      <trkpt lat="43.53827" lon="1.50014">
        <ele>130.19999694824</ele>
        <time>2020-05-31T14:18:16.000Z</time>
      </trkpt>
      <trkpt lat="43.53821" lon="1.50025">
        <ele>130</ele>
        <time>2020-05-31T14:18:18.000Z</time>
      </trkpt>
      <trkpt lat="43.53814" lon="1.50035">
        <ele>129.80000305176</ele>
        <time>2020-05-31T14:18:20.000Z</time>
      </trkpt>
      <trkpt lat="43.53807" lon="1.50044">
        <ele>129.60000610352</ele>
        <time>2020-05-31T14:18:22.000Z</time>
      </trkpt>
      <trkpt lat="43.53802" lon="1.50055">
        <ele>129.60000610352</ele>
        <time>2020-05-31T14:18:24.000Z</time>
      </trkpt>
      <trkpt lat="43.53795" lon="1.50067">
        <ele>129.60000610352</ele>
        <time>2020-05-31T14:18:26.000Z</time>
      </trkpt>
      <trkpt lat="43.53789" lon="1.50079">
        <ele>129.60000610352</ele>
        <time>2020-05-31T14:18:28.000Z</time>
      </trkpt>
      <trkpt lat="43.53783" lon="1.50089">
        <ele>129.60000610352</ele>
        <time>2020-05-31T14:18:30.000Z</time>
      </trkpt>
      <trkpt lat="43.53778" lon="1.501">
        <ele>129.39999389648</ele>
        <time>2020-05-31T14:18:32.000Z</time>
      </trkpt>
      <trkpt lat="43.53773" lon="1.50111">
        <ele>129.39999389648</ele>
        <time>2020-05-31T14:18:34.000Z</time>
      </trkpt>
      <trkpt lat="43.53769" lon="1.5012">
        <ele>129.39999389648</ele>
        <time>2020-05-31T14:18:36.000Z</time>
      </trkpt>
      <trkpt lat="43.53765" lon="1.5013">
        <ele>129.39999389648</ele>
        <time>2020-05-31T14:18:38.000Z</time>
      </trkpt>
      <trkpt lat="43.5376" lon="1.50142">
        <ele>129.39999389648</ele>
        <time>2020-05-31T14:18:40.000Z</time>
      </trkpt>
      <trkpt lat="43.53756" lon="1.50155">
        <ele>129.60000610352</ele>
        <time>2020-05-31T14:18:42.000Z</time>
      </trkpt>
      <trkpt lat="43.5375" lon="1.50167">
        <ele>129.60000610352</ele>
        <time>2020-05-31T14:18:44.000Z</time>
      </trkpt>
      <trkpt lat="43.53747" lon="1.50173">
        <ele>129.60000610352</ele>
        <time>2020-05-31T14:18:45.000Z</time>
      </trkpt>
      <trkpt lat="43.53744" lon="1.50179">
        <ele>129.80000305176</ele>
        <time>2020-05-31T14:18:46.000Z</time>
      </trkpt>
      <trkpt lat="43.53737" lon="1.50189">
        <ele>130</ele>
        <time>2020-05-31T14:18:48.000Z</time>
      </trkpt>
      <trkpt lat="43.53731" lon="1.50198">
        <ele>130</ele>
        <time>2020-05-31T14:18:50.000Z</time>
      </trkpt>
      <trkpt lat="43.53725" lon="1.50207">
        <ele>130</ele>
        <time>2020-05-31T14:18:52.000Z</time>
      </trkpt>
      <trkpt lat="43.5372" lon="1.50215">
        <ele>130</ele>
        <time>2020-05-31T14:18:54.000Z</time>
      </trkpt>
      <trkpt lat="43.53714" lon="1.50222">
        <ele>129.80000305176</ele>
        <time>2020-05-31T14:18:56.000Z</time>
      </trkpt>
      <trkpt lat="43.53708" lon="1.5023">
        <ele>129.80000305176</ele>
        <time>2020-05-31T14:18:58.000Z</time>
      </trkpt>
      <trkpt lat="43.53701" lon="1.50239">
        <ele>129.80000305176</ele>
        <time>2020-05-31T14:19:00.000Z</time>
      </trkpt>
      <trkpt lat="43.53695" lon="1.50247">
        <ele>129.60000610352</ele>
        <time>2020-05-31T14:19:02.000Z</time>
      </trkpt>
      <trkpt lat="43.53689" lon="1.50255">
        <ele>129.60000610352</ele>
        <time>2020-05-31T14:19:04.000Z</time>
      </trkpt>
      <trkpt lat="43.53685" lon="1.5026">
        <ele>129.39999389648</ele>
        <time>2020-05-31T14:19:05.000Z</time>
      </trkpt>
      <trkpt lat="43.53682" lon="1.50264">
        <ele>129.39999389648</ele>
        <time>2020-05-31T14:19:06.000Z</time>
      </trkpt>
      <trkpt lat="43.53675" lon="1.50274">
        <ele>129.39999389648</ele>
        <time>2020-05-31T14:19:08.000Z</time>
      </trkpt>
      <trkpt lat="43.53668" lon="1.50282">
        <ele>129.19999694824</ele>
        <time>2020-05-31T14:19:10.000Z</time>
      </trkpt>
      <trkpt lat="43.53662" lon="1.5029">
        <ele>129</ele>
        <time>2020-05-31T14:19:12.000Z</time>
      </trkpt>
      <trkpt lat="43.53659" lon="1.50293">
        <ele>128.80000305176</ele>
        <time>2020-05-31T14:19:13.000Z</time>
      </trkpt>
      <trkpt lat="43.53656" lon="1.50297">
        <ele>129</ele>
        <time>2020-05-31T14:19:14.000Z</time>
      </trkpt>
      <trkpt lat="43.53649" lon="1.50303">
        <ele>128.80000305176</ele>
        <time>2020-05-31T14:19:16.000Z</time>
      </trkpt>
      <trkpt lat="43.53643" lon="1.50311">
        <ele>128.80000305176</ele>
        <time>2020-05-31T14:19:18.000Z</time>
      </trkpt>
      <trkpt lat="43.53635" lon="1.5032">
        <ele>128.60000610352</ele>
        <time>2020-05-31T14:19:20.000Z</time>
      </trkpt>
      <trkpt lat="43.53628" lon="1.50329">
        <ele>128.60000610352</ele>
        <time>2020-05-31T14:19:22.000Z</time>
      </trkpt>
      <trkpt lat="43.5362" lon="1.50339">
        <ele>128.39999389648</ele>
        <time>2020-05-31T14:19:24.000Z</time>
      </trkpt>
      <trkpt lat="43.53612" lon="1.50347">
        <ele>128.39999389648</ele>
        <time>2020-05-31T14:19:26.000Z</time>
      </trkpt>
      <trkpt lat="43.53605" lon="1.50354">
        <ele>128.39999389648</ele>
        <time>2020-05-31T14:19:28.000Z</time>
      </trkpt>
      <trkpt lat="43.53597" lon="1.50363">
        <ele>128.39999389648</ele>
        <time>2020-05-31T14:19:30.000Z</time>
      </trkpt>
      <trkpt lat="43.53589" lon="1.50369">
        <ele>128.19999694824</ele>
        <time>2020-05-31T14:19:32.000Z</time>
      </trkpt>
      <trkpt lat="43.53581" lon="1.50376">
        <ele>128.19999694824</ele>
        <time>2020-05-31T14:19:34.000Z</time>
      </trkpt>
      <trkpt lat="43.53572" lon="1.50384">
        <ele>128</ele>
        <time>2020-05-31T14:19:36.000Z</time>
      </trkpt>
      <trkpt lat="43.53568" lon="1.50388">
        <ele>128</ele>
        <time>2020-05-31T14:19:37.000Z</time>
      </trkpt>
      <trkpt lat="43.53564" lon="1.50393">
        <ele>127.80000305176</ele>
        <time>2020-05-31T14:19:38.000Z</time>
      </trkpt>
      <trkpt lat="43.53555" lon="1.504">
        <ele>127.80000305176</ele>
        <time>2020-05-31T14:19:40.000Z</time>
      </trkpt>
      <trkpt lat="43.53546" lon="1.50409">
        <ele>127.40000152588</ele>
        <time>2020-05-31T14:19:42.000Z</time>
      </trkpt>
      <trkpt lat="43.53536" lon="1.50418">
        <ele>127.19999694824</ele>
        <time>2020-05-31T14:19:44.000Z</time>
      </trkpt>
      <trkpt lat="43.53526" lon="1.50427">
        <ele>127.19999694824</ele>
        <time>2020-05-31T14:19:46.000Z</time>
      </trkpt>
      <trkpt lat="43.53518" lon="1.50434">
        <ele>127.19999694824</ele>
        <time>2020-05-31T14:19:48.000Z</time>
      </trkpt>
      <trkpt lat="43.5351" lon="1.50441">
        <ele>127.19999694824</ele>
        <time>2020-05-31T14:19:50.000Z</time>
      </trkpt>
      <trkpt lat="43.53507" lon="1.50444">
        <ele>127.19999694824</ele>
        <time>2020-05-31T14:19:51.000Z</time>
      </trkpt>
      <trkpt lat="43.53503" lon="1.50447">
        <ele>127.19999694824</ele>
        <time>2020-05-31T14:19:52.000Z</time>
      </trkpt>
      <trkpt lat="43.53495" lon="1.50454">
        <ele>127.40000152588</ele>
        <time>2020-05-31T14:19:54.000Z</time>
      </trkpt>
      <trkpt lat="43.53486" lon="1.50462">
        <ele>127.59999847412</ele>
        <time>2020-05-31T14:19:56.000Z</time>
      </trkpt>
      <trkpt lat="43.53479" lon="1.5047">
        <ele>127.80000305176</ele>
        <time>2020-05-31T14:19:58.000Z</time>
      </trkpt>
      <trkpt lat="43.5347" lon="1.50478">
        <ele>128</ele>
        <time>2020-05-31T14:20:00.000Z</time>
      </trkpt>
      <trkpt lat="43.53461" lon="1.50486">
        <ele>128</ele>
        <time>2020-05-31T14:20:02.000Z</time>
      </trkpt>
      <trkpt lat="43.53457" lon="1.50489">
        <ele>128</ele>
        <time>2020-05-31T14:20:03.000Z</time>
      </trkpt>
      <trkpt lat="43.53453" lon="1.50493">
        <ele>128</ele>
        <time>2020-05-31T14:20:04.000Z</time>
      </trkpt>
      <trkpt lat="43.53445" lon="1.50499">
        <ele>128</ele>
        <time>2020-05-31T14:20:06.000Z</time>
      </trkpt>
      <trkpt lat="43.53441" lon="1.50501">
        <ele>128</ele>
        <time>2020-05-31T14:20:07.000Z</time>
      </trkpt>
      <trkpt lat="43.53437" lon="1.50504">
        <ele>128</ele>
        <time>2020-05-31T14:20:08.000Z</time>
      </trkpt>
      <trkpt lat="43.5343" lon="1.50508">
        <ele>128</ele>
        <time>2020-05-31T14:20:10.000Z</time>
      </trkpt>
      <trkpt lat="43.53422" lon="1.50513">
        <ele>128.19999694824</ele>
        <time>2020-05-31T14:20:12.000Z</time>
      </trkpt>
      <trkpt lat="43.53414" lon="1.50517">
        <ele>128.19999694824</ele>
        <time>2020-05-31T14:20:14.000Z</time>
      </trkpt>
      <trkpt lat="43.53407" lon="1.50522">
        <ele>128.19999694824</ele>
        <time>2020-05-31T14:20:16.000Z</time>
      </trkpt>
      <trkpt lat="43.53399" lon="1.50526">
        <ele>128.19999694824</ele>
        <time>2020-05-31T14:20:18.000Z</time>
      </trkpt>
      <trkpt lat="43.53394" lon="1.50528">
        <ele>128.19999694824</ele>
        <time>2020-05-31T14:20:19.000Z</time>
      </trkpt>
      <trkpt lat="43.5339" lon="1.5053">
        <ele>128.19999694824</ele>
        <time>2020-05-31T14:20:20.000Z</time>
      </trkpt>
      <trkpt lat="43.53385" lon="1.50531">
        <ele>128.19999694824</ele>
        <time>2020-05-31T14:20:21.000Z</time>
      </trkpt>
      <trkpt lat="43.53381" lon="1.50532">
        <ele>128.19999694824</ele>
        <time>2020-05-31T14:20:22.000Z</time>
      </trkpt>
      <trkpt lat="43.53372" lon="1.50533">
        <ele>128.19999694824</ele>
        <time>2020-05-31T14:20:24.000Z</time>
      </trkpt>
      <trkpt lat="43.53363" lon="1.50534">
        <ele>128.19999694824</ele>
        <time>2020-05-31T14:20:26.000Z</time>
      </trkpt>
      <trkpt lat="43.53353" lon="1.50534">
        <ele>128.39999389648</ele>
        <time>2020-05-31T14:20:28.000Z</time>
      </trkpt>
      <trkpt lat="43.53343" lon="1.50535">
        <ele>128.39999389648</ele>
        <time>2020-05-31T14:20:30.000Z</time>
      </trkpt>
      <trkpt lat="43.53333" lon="1.50537">
        <ele>128.39999389648</ele>
        <time>2020-05-31T14:20:32.000Z</time>
      </trkpt>
      <trkpt lat="43.53322" lon="1.50539">
        <ele>128.39999389648</ele>
        <time>2020-05-31T14:20:34.000Z</time>
      </trkpt>
      <trkpt lat="43.53311" lon="1.50541">
        <ele>128.60000610352</ele>
        <time>2020-05-31T14:20:36.000Z</time>
      </trkpt>
      <trkpt lat="43.53301" lon="1.50544">
        <ele>128.60000610352</ele>
        <time>2020-05-31T14:20:38.000Z</time>
      </trkpt>
      <trkpt lat="43.53289" lon="1.50546">
        <ele>128.60000610352</ele>
        <time>2020-05-31T14:20:40.000Z</time>
      </trkpt>
      <trkpt lat="43.53278" lon="1.50547">
        <ele>128.60000610352</ele>
        <time>2020-05-31T14:20:42.000Z</time>
      </trkpt>
      <trkpt lat="43.53267" lon="1.50548">
        <ele>128.60000610352</ele>
        <time>2020-05-31T14:20:44.000Z</time>
      </trkpt>
      <trkpt lat="43.53257" lon="1.5055">
        <ele>128.39999389648</ele>
        <time>2020-05-31T14:20:46.000Z</time>
      </trkpt>
      <trkpt lat="43.53246" lon="1.50551">
        <ele>128.19999694824</ele>
        <time>2020-05-31T14:20:48.000Z</time>
      </trkpt>
      <trkpt lat="43.53236" lon="1.50553">
        <ele>128.19999694824</ele>
        <time>2020-05-31T14:20:50.000Z</time>
      </trkpt>
      <trkpt lat="43.53226" lon="1.50555">
        <ele>128.19999694824</ele>
        <time>2020-05-31T14:20:52.000Z</time>
      </trkpt>
      <trkpt lat="43.53216" lon="1.50559">
        <ele>128.19999694824</ele>
        <time>2020-05-31T14:20:54.000Z</time>
      </trkpt>
      <trkpt lat="43.53205" lon="1.50562">
        <ele>128.19999694824</ele>
        <time>2020-05-31T14:20:56.000Z</time>
      </trkpt>
      <trkpt lat="43.53194" lon="1.50566">
        <ele>128.19999694824</ele>
        <time>2020-05-31T14:20:58.000Z</time>
      </trkpt>
      <trkpt lat="43.53183" lon="1.5057">
        <ele>128.19999694824</ele>
        <time>2020-05-31T14:21:00.000Z</time>
      </trkpt>
      <trkpt lat="43.53173" lon="1.50574">
        <ele>128.19999694824</ele>
        <time>2020-05-31T14:21:02.000Z</time>
      </trkpt>
      <trkpt lat="43.53164" lon="1.50578">
        <ele>128</ele>
        <time>2020-05-31T14:21:04.000Z</time>
      </trkpt>
      <trkpt lat="43.53155" lon="1.50581">
        <ele>127.80000305176</ele>
        <time>2020-05-31T14:21:06.000Z</time>
      </trkpt>
      <trkpt lat="43.53151" lon="1.50583">
        <ele>127.80000305176</ele>
        <time>2020-05-31T14:21:07.000Z</time>
      </trkpt>
      <trkpt lat="43.53147" lon="1.50585">
        <ele>127.80000305176</ele>
        <time>2020-05-31T14:21:08.000Z</time>
      </trkpt>
      <trkpt lat="43.53139" lon="1.5059">
        <ele>127.80000305176</ele>
        <time>2020-05-31T14:21:10.000Z</time>
      </trkpt>
      <trkpt lat="43.53132" lon="1.50596">
        <ele>127.59999847412</ele>
        <time>2020-05-31T14:21:12.000Z</time>
      </trkpt>
      <trkpt lat="43.53127" lon="1.50599">
        <ele>127.59999847412</ele>
        <time>2020-05-31T14:21:13.000Z</time>
      </trkpt>
      <trkpt lat="43.53122" lon="1.50601">
        <ele>127.40000152588</ele>
        <time>2020-05-31T14:21:14.000Z</time>
      </trkpt>
      <trkpt lat="43.53118" lon="1.50604">
        <ele>127.19999694824</ele>
        <time>2020-05-31T14:21:15.000Z</time>
      </trkpt>
      <trkpt lat="43.53113" lon="1.50606">
        <ele>127.19999694824</ele>
        <time>2020-05-31T14:21:16.000Z</time>
      </trkpt>
      <trkpt lat="43.53103" lon="1.50611">
        <ele>127.19999694824</ele>
        <time>2020-05-31T14:21:18.000Z</time>
      </trkpt>
      <trkpt lat="43.53093" lon="1.50616">
        <ele>127.19999694824</ele>
        <time>2020-05-31T14:21:20.000Z</time>
      </trkpt>
      <trkpt lat="43.53083" lon="1.50623">
        <ele>127</ele>
        <time>2020-05-31T14:21:22.000Z</time>
      </trkpt>
      <trkpt lat="43.53074" lon="1.50629">
        <ele>127.19999694824</ele>
        <time>2020-05-31T14:21:24.000Z</time>
      </trkpt>
      <trkpt lat="43.53064" lon="1.50635">
        <ele>127.19999694824</ele>
        <time>2020-05-31T14:21:26.000Z</time>
      </trkpt>
      <trkpt lat="43.53055" lon="1.50641">
        <ele>127.19999694824</ele>
        <time>2020-05-31T14:21:28.000Z</time>
      </trkpt>
      <trkpt lat="43.53046" lon="1.50648">
        <ele>127.19999694824</ele>
        <time>2020-05-31T14:21:30.000Z</time>
      </trkpt>
      <trkpt lat="43.53038" lon="1.50655">
        <ele>127.19999694824</ele>
        <time>2020-05-31T14:21:32.000Z</time>
      </trkpt>
      <trkpt lat="43.53029" lon="1.50662">
        <ele>127.80000305176</ele>
        <time>2020-05-31T14:21:34.000Z</time>
      </trkpt>
      <trkpt lat="43.53025" lon="1.50666">
        <ele>128.19999694824</ele>
        <time>2020-05-31T14:21:35.000Z</time>
      </trkpt>
      <trkpt lat="43.53021" lon="1.50669">
        <ele>128.60000610352</ele>
        <time>2020-05-31T14:21:36.000Z</time>
      </trkpt>
      <trkpt lat="43.53017" lon="1.50673">
        <ele>129.19999694824</ele>
        <time>2020-05-31T14:21:37.000Z</time>
      </trkpt>
      <trkpt lat="43.53013" lon="1.50677">
        <ele>129.60000610352</ele>
        <time>2020-05-31T14:21:38.000Z</time>
      </trkpt>
      <trkpt lat="43.53005" lon="1.50686">
        <ele>130</ele>
        <time>2020-05-31T14:21:40.000Z</time>
      </trkpt>
      <trkpt lat="43.52997" lon="1.50696">
        <ele>130.19999694824</ele>
        <time>2020-05-31T14:21:42.000Z</time>
      </trkpt>
      <trkpt lat="43.52989" lon="1.50705">
        <ele>130.19999694824</ele>
        <time>2020-05-31T14:21:44.000Z</time>
      </trkpt>
      <trkpt lat="43.5298" lon="1.50714">
        <ele>130.19999694824</ele>
        <time>2020-05-31T14:21:46.000Z</time>
      </trkpt>
      <trkpt lat="43.52971" lon="1.50725">
        <ele>129.80000305176</ele>
        <time>2020-05-31T14:21:48.000Z</time>
      </trkpt>
      <trkpt lat="43.52962" lon="1.50734">
        <ele>129.60000610352</ele>
        <time>2020-05-31T14:21:50.000Z</time>
      </trkpt>
      <trkpt lat="43.52954" lon="1.50743">
        <ele>129.39999389648</ele>
        <time>2020-05-31T14:21:52.000Z</time>
      </trkpt>
      <trkpt lat="43.52946" lon="1.5075">
        <ele>129.19999694824</ele>
        <time>2020-05-31T14:21:54.000Z</time>
      </trkpt>
      <trkpt lat="43.52938" lon="1.50761">
        <ele>129</ele>
        <time>2020-05-31T14:21:56.000Z</time>
      </trkpt>
      <trkpt lat="43.52929" lon="1.50771">
        <ele>129</ele>
        <time>2020-05-31T14:21:58.000Z</time>
      </trkpt>
      <trkpt lat="43.52921" lon="1.5078">
        <ele>129</ele>
        <time>2020-05-31T14:22:00.000Z</time>
      </trkpt>
      <trkpt lat="43.52912" lon="1.50789">
        <ele>129</ele>
        <time>2020-05-31T14:22:02.000Z</time>
      </trkpt>
      <trkpt lat="43.52902" lon="1.50797">
        <ele>129</ele>
        <time>2020-05-31T14:22:04.000Z</time>
      </trkpt>
      <trkpt lat="43.52893" lon="1.50806">
        <ele>129</ele>
        <time>2020-05-31T14:22:06.000Z</time>
      </trkpt>
      <trkpt lat="43.52882" lon="1.50814">
        <ele>129</ele>
        <time>2020-05-31T14:22:08.000Z</time>
      </trkpt>
      <trkpt lat="43.52872" lon="1.50821">
        <ele>129</ele>
        <time>2020-05-31T14:22:10.000Z</time>
      </trkpt>
      <trkpt lat="43.52862" lon="1.50828">
        <ele>128.80000305176</ele>
        <time>2020-05-31T14:22:12.000Z</time>
      </trkpt>
      <trkpt lat="43.52851" lon="1.50836">
        <ele>128.80000305176</ele>
        <time>2020-05-31T14:22:14.000Z</time>
      </trkpt>
      <trkpt lat="43.52841" lon="1.50842">
        <ele>128.60000610352</ele>
        <time>2020-05-31T14:22:16.000Z</time>
      </trkpt>
      <trkpt lat="43.52832" lon="1.50848">
        <ele>128.60000610352</ele>
        <time>2020-05-31T14:22:18.000Z</time>
      </trkpt>
      <trkpt lat="43.52827" lon="1.5085">
        <ele>128.60000610352</ele>
        <time>2020-05-31T14:22:19.000Z</time>
      </trkpt>
      <trkpt lat="43.52822" lon="1.50853">
        <ele>128.60000610352</ele>
        <time>2020-05-31T14:22:20.000Z</time>
      </trkpt>
      <trkpt lat="43.52811" lon="1.50859">
        <ele>128.60000610352</ele>
        <time>2020-05-31T14:22:22.000Z</time>
      </trkpt>
      <trkpt lat="43.528" lon="1.50865">
        <ele>128.39999389648</ele>
        <time>2020-05-31T14:22:24.000Z</time>
      </trkpt>
      <trkpt lat="43.52795" lon="1.50868">
        <ele>128.39999389648</ele>
        <time>2020-05-31T14:22:25.000Z</time>
      </trkpt>
      <trkpt lat="43.52791" lon="1.50872">
        <ele>128.39999389648</ele>
        <time>2020-05-31T14:22:26.000Z</time>
      </trkpt>
      <trkpt lat="43.52781" lon="1.5088">
        <ele>128.60000610352</ele>
        <time>2020-05-31T14:22:28.000Z</time>
      </trkpt>
      <trkpt lat="43.52772" lon="1.50888">
        <ele>128.60000610352</ele>
        <time>2020-05-31T14:22:30.000Z</time>
      </trkpt>
      <trkpt lat="43.52763" lon="1.50897">
        <ele>128.60000610352</ele>
        <time>2020-05-31T14:22:32.000Z</time>
      </trkpt>
      <trkpt lat="43.52754" lon="1.50907">
        <ele>128.60000610352</ele>
        <time>2020-05-31T14:22:34.000Z</time>
      </trkpt>
      <trkpt lat="43.52746" lon="1.50917">
        <ele>128.60000610352</ele>
        <time>2020-05-31T14:22:36.000Z</time>
      </trkpt>
      <trkpt lat="43.52738" lon="1.50929">
        <ele>128.60000610352</ele>
        <time>2020-05-31T14:22:38.000Z</time>
      </trkpt>
      <trkpt lat="43.52731" lon="1.50941">
        <ele>128.80000305176</ele>
        <time>2020-05-31T14:22:40.000Z</time>
      </trkpt>
      <trkpt lat="43.52725" lon="1.50953">
        <ele>128.80000305176</ele>
        <time>2020-05-31T14:22:42.000Z</time>
      </trkpt>
      <trkpt lat="43.52719" lon="1.50963">
        <ele>128.80000305176</ele>
        <time>2020-05-31T14:22:44.000Z</time>
      </trkpt>
      <trkpt lat="43.52712" lon="1.50974">
        <ele>129</ele>
        <time>2020-05-31T14:22:46.000Z</time>
      </trkpt>
      <trkpt lat="43.52709" lon="1.5098">
        <ele>129</ele>
        <time>2020-05-31T14:22:47.000Z</time>
      </trkpt>
      <trkpt lat="43.52707" lon="1.50986">
        <ele>129</ele>
        <time>2020-05-31T14:22:48.000Z</time>
      </trkpt>
      <trkpt lat="43.52705" lon="1.50991">
        <ele>129</ele>
        <time>2020-05-31T14:22:49.000Z</time>
      </trkpt>
      <trkpt lat="43.52702" lon="1.50998">
        <ele>129</ele>
        <time>2020-05-31T14:22:50.000Z</time>
      </trkpt>
      <trkpt lat="43.52697" lon="1.51011">
        <ele>129</ele>
        <time>2020-05-31T14:22:52.000Z</time>
      </trkpt>
      <trkpt lat="43.52695" lon="1.51018">
        <ele>129</ele>
        <time>2020-05-31T14:22:53.000Z</time>
      </trkpt>
      <trkpt lat="43.52693" lon="1.51024">
        <ele>129</ele>
        <time>2020-05-31T14:22:54.000Z</time>
      </trkpt>
      <trkpt lat="43.52689" lon="1.51036">
        <ele>129</ele>
        <time>2020-05-31T14:22:56.000Z</time>
      </trkpt>
      <trkpt lat="43.52686" lon="1.51047">
        <ele>128.80000305176</ele>
        <time>2020-05-31T14:22:58.000Z</time>
      </trkpt>
      <trkpt lat="43.52684" lon="1.51053">
        <ele>128.60000610352</ele>
        <time>2020-05-31T14:22:59.000Z</time>
      </trkpt>
      <trkpt lat="43.52682" lon="1.51059">
        <ele>128.60000610352</ele>
        <time>2020-05-31T14:23:00.000Z</time>
      </trkpt>
      <trkpt lat="43.5268" lon="1.51065">
        <ele>128.80000305176</ele>
        <time>2020-05-31T14:23:01.000Z</time>
      </trkpt>
      <trkpt lat="43.52679" lon="1.51072">
        <ele>128.60000610352</ele>
        <time>2020-05-31T14:23:02.000Z</time>
      </trkpt>
      <trkpt lat="43.52675" lon="1.51085">
        <ele>128.60000610352</ele>
        <time>2020-05-31T14:23:04.000Z</time>
      </trkpt>
      <trkpt lat="43.52672" lon="1.51099">
        <ele>128.39999389648</ele>
        <time>2020-05-31T14:23:06.000Z</time>
      </trkpt>
      <trkpt lat="43.52668" lon="1.51113">
        <ele>128.19999694824</ele>
        <time>2020-05-31T14:23:08.000Z</time>
      </trkpt>
      <trkpt lat="43.52665" lon="1.51127">
        <ele>128.19999694824</ele>
        <time>2020-05-31T14:23:10.000Z</time>
      </trkpt>
      <trkpt lat="43.52661" lon="1.51146">
        <ele>128.39999389648</ele>
        <time>2020-05-31T14:23:12.000Z</time>
      </trkpt>
      <trkpt lat="43.52659" lon="1.51163">
        <ele>128.19999694824</ele>
        <time>2020-05-31T14:23:14.000Z</time>
      </trkpt>
      <trkpt lat="43.52656" lon="1.51179">
        <ele>128.19999694824</ele>
        <time>2020-05-31T14:23:16.000Z</time>
      </trkpt>
      <trkpt lat="43.52654" lon="1.51195">
        <ele>128</ele>
        <time>2020-05-31T14:23:18.000Z</time>
      </trkpt>
      <trkpt lat="43.52653" lon="1.5121">
        <ele>128.19999694824</ele>
        <time>2020-05-31T14:23:20.000Z</time>
      </trkpt>
      <trkpt lat="43.52652" lon="1.51216">
        <ele>128.19999694824</ele>
        <time>2020-05-31T14:23:21.000Z</time>
      </trkpt>
      <trkpt lat="43.52651" lon="1.51223">
        <ele>128.19999694824</ele>
        <time>2020-05-31T14:23:22.000Z</time>
      </trkpt>
      <trkpt lat="43.5265" lon="1.51238">
        <ele>128.60000610352</ele>
        <time>2020-05-31T14:23:24.000Z</time>
      </trkpt>
      <trkpt lat="43.52649" lon="1.51251">
        <ele>129</ele>
        <time>2020-05-31T14:23:26.000Z</time>
      </trkpt>
      <trkpt lat="43.52649" lon="1.51265">
        <ele>129.19999694824</ele>
        <time>2020-05-31T14:23:28.000Z</time>
      </trkpt>
      <trkpt lat="43.52649" lon="1.51277">
        <ele>129.39999389648</ele>
        <time>2020-05-31T14:23:30.000Z</time>
      </trkpt>
      <trkpt lat="43.52649" lon="1.5129">
        <ele>129.39999389648</ele>
        <time>2020-05-31T14:23:32.000Z</time>
      </trkpt>
      <trkpt lat="43.52648" lon="1.51302">
        <ele>129.39999389648</ele>
        <time>2020-05-31T14:23:34.000Z</time>
      </trkpt>
      <trkpt lat="43.52648" lon="1.51313">
        <ele>129.80000305176</ele>
        <time>2020-05-31T14:23:36.000Z</time>
      </trkpt>
      <trkpt lat="43.52648" lon="1.51324">
        <ele>130.39999389648</ele>
        <time>2020-05-31T14:23:38.000Z</time>
      </trkpt>
      <trkpt lat="43.52648" lon="1.51334">
        <ele>130.60000610352</ele>
        <time>2020-05-31T14:23:40.000Z</time>
      </trkpt>
      <trkpt lat="43.52647" lon="1.51344">
        <ele>130.80000305176</ele>
        <time>2020-05-31T14:23:42.000Z</time>
      </trkpt>
      <trkpt lat="43.52647" lon="1.51355">
        <ele>130.80000305176</ele>
        <time>2020-05-31T14:23:44.000Z</time>
      </trkpt>
      <trkpt lat="43.52646" lon="1.51367">
        <ele>130.80000305176</ele>
        <time>2020-05-31T14:23:46.000Z</time>
      </trkpt>
      <trkpt lat="43.52644" lon="1.51379">
        <ele>130.60000610352</ele>
        <time>2020-05-31T14:23:48.000Z</time>
      </trkpt>
      <trkpt lat="43.52643" lon="1.51391">
        <ele>130.60000610352</ele>
        <time>2020-05-31T14:23:50.000Z</time>
      </trkpt>
      <trkpt lat="43.52642" lon="1.51404">
        <ele>130.39999389648</ele>
        <time>2020-05-31T14:23:52.000Z</time>
      </trkpt>
      <trkpt lat="43.52641" lon="1.51417">
        <ele>130</ele>
        <time>2020-05-31T14:23:54.000Z</time>
      </trkpt>
      <trkpt lat="43.5264" lon="1.5143">
        <ele>129.80000305176</ele>
        <time>2020-05-31T14:23:56.000Z</time>
      </trkpt>
      <trkpt lat="43.52639" lon="1.51442">
        <ele>129.60000610352</ele>
        <time>2020-05-31T14:23:58.000Z</time>
      </trkpt>
      <trkpt lat="43.52638" lon="1.51455">
        <ele>129.60000610352</ele>
        <time>2020-05-31T14:24:00.000Z</time>
      </trkpt>
      <trkpt lat="43.52636" lon="1.51468">
        <ele>129.39999389648</ele>
        <time>2020-05-31T14:24:02.000Z</time>
      </trkpt>
      <trkpt lat="43.52635" lon="1.5148">
        <ele>129.19999694824</ele>
        <time>2020-05-31T14:24:04.000Z</time>
      </trkpt>
      <trkpt lat="43.52633" lon="1.51492">
        <ele>129.19999694824</ele>
        <time>2020-05-31T14:24:06.000Z</time>
      </trkpt>
      <trkpt lat="43.52632" lon="1.51505">
        <ele>129.39999389648</ele>
        <time>2020-05-31T14:24:08.000Z</time>
      </trkpt>
      <trkpt lat="43.5263" lon="1.51518">
        <ele>129.60000610352</ele>
        <time>2020-05-31T14:24:10.000Z</time>
      </trkpt>
      <trkpt lat="43.52628" lon="1.5153">
        <ele>129.60000610352</ele>
        <time>2020-05-31T14:24:12.000Z</time>
      </trkpt>
      <trkpt lat="43.52627" lon="1.51542">
        <ele>129.60000610352</ele>
        <time>2020-05-31T14:24:14.000Z</time>
      </trkpt>
      <trkpt lat="43.52624" lon="1.51555">
        <ele>129.60000610352</ele>
        <time>2020-05-31T14:24:16.000Z</time>
      </trkpt>
      <trkpt lat="43.52619" lon="1.51565">
        <ele>129.39999389648</ele>
        <time>2020-05-31T14:24:18.000Z</time>
      </trkpt>
      <trkpt lat="43.52617" lon="1.5157">
        <ele>129.39999389648</ele>
        <time>2020-05-31T14:24:19.000Z</time>
      </trkpt>
      <trkpt lat="43.52615" lon="1.51576">
        <ele>129.39999389648</ele>
        <time>2020-05-31T14:24:20.000Z</time>
      </trkpt>
      <trkpt lat="43.52613" lon="1.51589">
        <ele>129.39999389648</ele>
        <time>2020-05-31T14:24:22.000Z</time>
      </trkpt>
      <trkpt lat="43.5261" lon="1.516">
        <ele>129.39999389648</ele>
        <time>2020-05-31T14:24:24.000Z</time>
      </trkpt>
      <trkpt lat="43.52607" lon="1.51613">
        <ele>129.60000610352</ele>
        <time>2020-05-31T14:24:26.000Z</time>
      </trkpt>
      <trkpt lat="43.52604" lon="1.51625">
        <ele>129.39999389648</ele>
        <time>2020-05-31T14:24:28.000Z</time>
      </trkpt>
      <trkpt lat="43.526" lon="1.51638">
        <ele>129.19999694824</ele>
        <time>2020-05-31T14:24:30.000Z</time>
      </trkpt>
      <trkpt lat="43.52596" lon="1.5165">
        <ele>129.19999694824</ele>
        <time>2020-05-31T14:24:32.000Z</time>
      </trkpt>
      <trkpt lat="43.52593" lon="1.51662">
        <ele>129</ele>
        <time>2020-05-31T14:24:34.000Z</time>
      </trkpt>
      <trkpt lat="43.52589" lon="1.51672">
        <ele>129.19999694824</ele>
        <time>2020-05-31T14:24:36.000Z</time>
      </trkpt>
      <trkpt lat="43.52585" lon="1.51681">
        <ele>129</ele>
        <time>2020-05-31T14:24:38.000Z</time>
      </trkpt>
      <trkpt lat="43.52581" lon="1.51688">
        <ele>129</ele>
        <time>2020-05-31T14:24:40.000Z</time>
      </trkpt>
      <trkpt lat="43.5258" lon="1.51692">
        <ele>129</ele>
        <time>2020-05-31T14:24:41.000Z</time>
      </trkpt>
      <trkpt lat="43.52578" lon="1.51695">
        <ele>129</ele>
        <time>2020-05-31T14:24:42.000Z</time>
      </trkpt>
      <trkpt lat="43.52575" lon="1.51702">
        <ele>129</ele>
        <time>2020-05-31T14:24:44.000Z</time>
      </trkpt>
      <trkpt lat="43.5257" lon="1.5171">
        <ele>128.80000305176</ele>
        <time>2020-05-31T14:24:46.000Z</time>
      </trkpt>
      <trkpt lat="43.52566" lon="1.51717">
        <ele>128.60000610352</ele>
        <time>2020-05-31T14:24:48.000Z</time>
      </trkpt>
      <trkpt lat="43.52564" lon="1.5172">
        <ele>128.60000610352</ele>
        <time>2020-05-31T14:24:49.000Z</time>
      </trkpt>
      <trkpt lat="43.52562" lon="1.51723">
        <ele>128.60000610352</ele>
        <time>2020-05-31T14:24:50.000Z</time>
      </trkpt>
      <trkpt lat="43.52557" lon="1.51731">
        <ele>128.60000610352</ele>
        <time>2020-05-31T14:24:52.000Z</time>
      </trkpt>
      <trkpt lat="43.52554" lon="1.51736">
        <ele>128.60000610352</ele>
        <time>2020-05-31T14:24:53.000Z</time>
      </trkpt>
      <trkpt lat="43.52551" lon="1.51741">
        <ele>128.39999389648</ele>
        <time>2020-05-31T14:24:54.000Z</time>
      </trkpt>
      <trkpt lat="43.52545" lon="1.51751">
        <ele>128.39999389648</ele>
        <time>2020-05-31T14:24:56.000Z</time>
      </trkpt>
      <trkpt lat="43.5254" lon="1.51759">
        <ele>128.19999694824</ele>
        <time>2020-05-31T14:24:58.000Z</time>
      </trkpt>
      <trkpt lat="43.52534" lon="1.51767">
        <ele>128.19999694824</ele>
        <time>2020-05-31T14:25:00.000Z</time>
      </trkpt>
      <trkpt lat="43.52527" lon="1.51775">
        <ele>128.19999694824</ele>
        <time>2020-05-31T14:25:02.000Z</time>
      </trkpt>
      <trkpt lat="43.52519" lon="1.51786">
        <ele>128.19999694824</ele>
        <time>2020-05-31T14:25:04.000Z</time>
      </trkpt>
      <trkpt lat="43.52512" lon="1.51795">
        <ele>128.39999389648</ele>
        <time>2020-05-31T14:25:06.000Z</time>
      </trkpt>
      <trkpt lat="43.52505" lon="1.51803">
        <ele>128.80000305176</ele>
        <time>2020-05-31T14:25:08.000Z</time>
      </trkpt>
      <trkpt lat="43.52498" lon="1.51811">
        <ele>129.39999389648</ele>
        <time>2020-05-31T14:25:10.000Z</time>
      </trkpt>
      <trkpt lat="43.52489" lon="1.51821">
        <ele>129.60000610352</ele>
        <time>2020-05-31T14:25:12.000Z</time>
      </trkpt>
      <trkpt lat="43.52481" lon="1.51829">
        <ele>129.80000305176</ele>
        <time>2020-05-31T14:25:14.000Z</time>
      </trkpt>
      <trkpt lat="43.52473" lon="1.51838">
        <ele>129.80000305176</ele>
        <time>2020-05-31T14:25:16.000Z</time>
      </trkpt>
      <trkpt lat="43.52465" lon="1.51844">
        <ele>130</ele>
        <time>2020-05-31T14:25:18.000Z</time>
      </trkpt>
      <trkpt lat="43.52458" lon="1.51849">
        <ele>130</ele>
        <time>2020-05-31T14:25:20.000Z</time>
      </trkpt>
      <trkpt lat="43.52451" lon="1.51854">
        <ele>130</ele>
        <time>2020-05-31T14:25:22.000Z</time>
      </trkpt>
      <trkpt lat="43.52444" lon="1.51858">
        <ele>130.19999694824</ele>
        <time>2020-05-31T14:25:24.000Z</time>
      </trkpt>
      <trkpt lat="43.5244" lon="1.5186">
        <ele>130.19999694824</ele>
        <time>2020-05-31T14:25:25.000Z</time>
      </trkpt>
      <trkpt lat="43.52437" lon="1.51863">
        <ele>130.19999694824</ele>
        <time>2020-05-31T14:25:26.000Z</time>
      </trkpt>
      <trkpt lat="43.52429" lon="1.51867">
        <ele>130.80000305176</ele>
        <time>2020-05-31T14:25:28.000Z</time>
      </trkpt>
      <trkpt lat="43.52421" lon="1.51869">
        <ele>130.80000305176</ele>
        <time>2020-05-31T14:25:30.000Z</time>
      </trkpt>
      <trkpt lat="43.52414" lon="1.51871">
        <ele>131.19999694824</ele>
        <time>2020-05-31T14:25:32.000Z</time>
      </trkpt>
      <trkpt lat="43.52411" lon="1.51871">
        <ele>131.39999389648</ele>
        <time>2020-05-31T14:25:33.000Z</time>
      </trkpt>
      <trkpt lat="43.52409" lon="1.51872">
        <ele>131.80000305176</ele>
        <time>2020-05-31T14:25:34.000Z</time>
      </trkpt>
      <trkpt lat="43.52403" lon="1.51874">
        <ele>132.19999694824</ele>
        <time>2020-05-31T14:25:36.000Z</time>
      </trkpt>
      <trkpt lat="43.52399" lon="1.51875">
        <ele>132.60000610352</ele>
        <time>2020-05-31T14:25:37.000Z</time>
      </trkpt>
      <trkpt lat="43.52395" lon="1.51876">
        <ele>132.80000305176</ele>
        <time>2020-05-31T14:25:38.000Z</time>
      </trkpt>
      <trkpt lat="43.52387" lon="1.51879">
        <ele>133.19999694824</ele>
        <time>2020-05-31T14:25:40.000Z</time>
      </trkpt>
      <trkpt lat="43.52378" lon="1.51882">
        <ele>133.19999694824</ele>
        <time>2020-05-31T14:25:42.000Z</time>
      </trkpt>
      <trkpt lat="43.52369" lon="1.51884">
        <ele>133.39999389648</ele>
        <time>2020-05-31T14:25:44.000Z</time>
      </trkpt>
      <trkpt lat="43.5236" lon="1.51885">
        <ele>133.60000610352</ele>
        <time>2020-05-31T14:25:46.000Z</time>
      </trkpt>
      <trkpt lat="43.52356" lon="1.51886">
        <ele>133.60000610352</ele>
        <time>2020-05-31T14:25:47.000Z</time>
      </trkpt>
      <trkpt lat="43.52352" lon="1.51886">
        <ele>133.60000610352</ele>
        <time>2020-05-31T14:25:48.000Z</time>
      </trkpt>
      <trkpt lat="43.52345" lon="1.51889">
        <ele>133.80000305176</ele>
        <time>2020-05-31T14:25:50.000Z</time>
      </trkpt>
      <trkpt lat="43.52338" lon="1.51893">
        <ele>133.80000305176</ele>
        <time>2020-05-31T14:25:52.000Z</time>
      </trkpt>
      <trkpt lat="43.5233" lon="1.51898">
        <ele>133.80000305176</ele>
        <time>2020-05-31T14:25:54.000Z</time>
      </trkpt>
      <trkpt lat="43.52321" lon="1.51903">
        <ele>133.80000305176</ele>
        <time>2020-05-31T14:25:56.000Z</time>
      </trkpt>
      <trkpt lat="43.52313" lon="1.51908">
        <ele>134</ele>
        <time>2020-05-31T14:25:58.000Z</time>
      </trkpt>
      <trkpt lat="43.52304" lon="1.51912">
        <ele>134</ele>
        <time>2020-05-31T14:26:00.000Z</time>
      </trkpt>
      <trkpt lat="43.52296" lon="1.51915">
        <ele>134</ele>
        <time>2020-05-31T14:26:02.000Z</time>
      </trkpt>
      <trkpt lat="43.52288" lon="1.51918">
        <ele>134.19999694824</ele>
        <time>2020-05-31T14:26:04.000Z</time>
      </trkpt>
      <trkpt lat="43.52281" lon="1.51921">
        <ele>134.19999694824</ele>
        <time>2020-05-31T14:26:06.000Z</time>
      </trkpt>
      <trkpt lat="43.52274" lon="1.51924">
        <ele>134.19999694824</ele>
        <time>2020-05-31T14:26:08.000Z</time>
      </trkpt>
      <trkpt lat="43.5227" lon="1.51926">
        <ele>134.60000610352</ele>
        <time>2020-05-31T14:26:09.000Z</time>
      </trkpt>
      <trkpt lat="43.52265" lon="1.51928">
        <ele>134.80000305176</ele>
        <time>2020-05-31T14:26:10.000Z</time>
      </trkpt>
      <trkpt lat="43.52256" lon="1.51931">
        <ele>135</ele>
        <time>2020-05-31T14:26:12.000Z</time>
      </trkpt>
      <trkpt lat="43.52251" lon="1.51933">
        <ele>135</ele>
        <time>2020-05-31T14:26:13.000Z</time>
      </trkpt>
      <trkpt lat="43.52247" lon="1.51935">
        <ele>135</ele>
        <time>2020-05-31T14:26:14.000Z</time>
      </trkpt>
      <trkpt lat="43.52238" lon="1.51938">
        <ele>135</ele>
        <time>2020-05-31T14:26:16.000Z</time>
      </trkpt>
      <trkpt lat="43.52229" lon="1.51941">
        <ele>135</ele>
        <time>2020-05-31T14:26:18.000Z</time>
      </trkpt>
      <trkpt lat="43.52219" lon="1.51944">
        <ele>135</ele>
        <time>2020-05-31T14:26:20.000Z</time>
      </trkpt>
      <trkpt lat="43.5221" lon="1.51946">
        <ele>135</ele>
        <time>2020-05-31T14:26:22.000Z</time>
      </trkpt>
      <trkpt lat="43.52203" lon="1.51947">
        <ele>134.80000305176</ele>
        <time>2020-05-31T14:26:24.000Z</time>
      </trkpt>
      <trkpt lat="43.522" lon="1.51947">
        <ele>134.80000305176</ele>
        <time>2020-05-31T14:26:25.000Z</time>
      </trkpt>
      <trkpt lat="43.52196" lon="1.51947">
        <ele>134.80000305176</ele>
        <time>2020-05-31T14:26:26.000Z</time>
      </trkpt>
      <trkpt lat="43.52189" lon="1.51945">
        <ele>134.80000305176</ele>
        <time>2020-05-31T14:26:28.000Z</time>
      </trkpt>
      <trkpt lat="43.52185" lon="1.51944">
        <ele>134.80000305176</ele>
        <time>2020-05-31T14:26:29.000Z</time>
      </trkpt>
      <trkpt lat="43.52181" lon="1.51944">
        <ele>134.80000305176</ele>
        <time>2020-05-31T14:26:30.000Z</time>
      </trkpt>
      <trkpt lat="43.52172" lon="1.51942">
        <ele>134.80000305176</ele>
        <time>2020-05-31T14:26:32.000Z</time>
      </trkpt>
      <trkpt lat="43.52162" lon="1.51941">
        <ele>134.80000305176</ele>
        <time>2020-05-31T14:26:34.000Z</time>
      </trkpt>
      <trkpt lat="43.52152" lon="1.5194">
        <ele>134.60000610352</ele>
        <time>2020-05-31T14:26:36.000Z</time>
      </trkpt>
      <trkpt lat="43.52143" lon="1.51938">
        <ele>134.19999694824</ele>
        <time>2020-05-31T14:26:38.000Z</time>
      </trkpt>
      <trkpt lat="43.52138" lon="1.51939">
        <ele>134.19999694824</ele>
        <time>2020-05-31T14:26:39.000Z</time>
      </trkpt>
      <trkpt lat="43.52134" lon="1.51939">
        <ele>134.19999694824</ele>
        <time>2020-05-31T14:26:40.000Z</time>
      </trkpt>
      <trkpt lat="43.52125" lon="1.5194">
        <ele>134</ele>
        <time>2020-05-31T14:26:42.000Z</time>
      </trkpt>
      <trkpt lat="43.52116" lon="1.51943">
        <ele>134</ele>
        <time>2020-05-31T14:26:44.000Z</time>
      </trkpt>
      <trkpt lat="43.52111" lon="1.51946">
        <ele>134</ele>
        <time>2020-05-31T14:26:45.000Z</time>
      </trkpt>
      <trkpt lat="43.52106" lon="1.51949">
        <ele>133.80000305176</ele>
        <time>2020-05-31T14:26:46.000Z</time>
      </trkpt>
      <trkpt lat="43.52096" lon="1.51956">
        <ele>133.80000305176</ele>
        <time>2020-05-31T14:26:48.000Z</time>
      </trkpt>
      <trkpt lat="43.52086" lon="1.51962">
        <ele>133.80000305176</ele>
        <time>2020-05-31T14:26:50.000Z</time>
      </trkpt>
      <trkpt lat="43.52077" lon="1.51969">
        <ele>133.80000305176</ele>
        <time>2020-05-31T14:26:52.000Z</time>
      </trkpt>
      <trkpt lat="43.52067" lon="1.51975">
        <ele>133.80000305176</ele>
        <time>2020-05-31T14:26:54.000Z</time>
      </trkpt>
      <trkpt lat="43.52059" lon="1.51981">
        <ele>133.80000305176</ele>
        <time>2020-05-31T14:26:56.000Z</time>
      </trkpt>
      <trkpt lat="43.52051" lon="1.51987">
        <ele>134</ele>
        <time>2020-05-31T14:26:58.000Z</time>
      </trkpt>
      <trkpt lat="43.52043" lon="1.5199">
        <ele>134</ele>
        <time>2020-05-31T14:27:00.000Z</time>
      </trkpt>
      <trkpt lat="43.52036" lon="1.51993">
        <ele>134.19999694824</ele>
        <time>2020-05-31T14:27:02.000Z</time>
      </trkpt>
      <trkpt lat="43.52027" lon="1.51997">
        <ele>134.60000610352</ele>
        <time>2020-05-31T14:27:04.000Z</time>
      </trkpt>
      <trkpt lat="43.52022" lon="1.51997">
        <ele>134.60000610352</ele>
        <time>2020-05-31T14:27:05.000Z</time>
      </trkpt>
      <trkpt lat="43.52017" lon="1.51999">
        <ele>134.60000610352</ele>
        <time>2020-05-31T14:27:06.000Z</time>
      </trkpt>
      <trkpt lat="43.52007" lon="1.52">
        <ele>134.60000610352</ele>
        <time>2020-05-31T14:27:08.000Z</time>
      </trkpt>
      <trkpt lat="43.51998" lon="1.52001">
        <ele>134.60000610352</ele>
        <time>2020-05-31T14:27:10.000Z</time>
      </trkpt>
      <trkpt lat="43.51988" lon="1.52002">
        <ele>134.60000610352</ele>
        <time>2020-05-31T14:27:12.000Z</time>
      </trkpt>
      <trkpt lat="43.51977" lon="1.52003">
        <ele>134.60000610352</ele>
        <time>2020-05-31T14:27:14.000Z</time>
      </trkpt>
      <trkpt lat="43.51968" lon="1.52003">
        <ele>134.39999389648</ele>
        <time>2020-05-31T14:27:16.000Z</time>
      </trkpt>
      <trkpt lat="43.51958" lon="1.52002">
        <ele>134.19999694824</ele>
        <time>2020-05-31T14:27:18.000Z</time>
      </trkpt>
      <trkpt lat="43.51947" lon="1.52003">
        <ele>133.80000305176</ele>
        <time>2020-05-31T14:27:20.000Z</time>
      </trkpt>
      <trkpt lat="43.51937" lon="1.52">
        <ele>133.80000305176</ele>
        <time>2020-05-31T14:27:22.000Z</time>
      </trkpt>
      <trkpt lat="43.51927" lon="1.51997">
        <ele>133.60000610352</ele>
        <time>2020-05-31T14:27:24.000Z</time>
      </trkpt>
      <trkpt lat="43.51917" lon="1.51994">
        <ele>133.60000610352</ele>
        <time>2020-05-31T14:27:26.000Z</time>
      </trkpt>
      <trkpt lat="43.51908" lon="1.5199">
        <ele>133.60000610352</ele>
        <time>2020-05-31T14:27:28.000Z</time>
      </trkpt>
      <trkpt lat="43.51898" lon="1.51987">
        <ele>133.60000610352</ele>
        <time>2020-05-31T14:27:30.000Z</time>
      </trkpt>
      <trkpt lat="43.5189" lon="1.51982">
        <ele>133.60000610352</ele>
        <time>2020-05-31T14:27:32.000Z</time>
      </trkpt>
      <trkpt lat="43.51882" lon="1.51979">
        <ele>133.60000610352</ele>
        <time>2020-05-31T14:27:34.000Z</time>
      </trkpt>
      <trkpt lat="43.51875" lon="1.51976">
        <ele>133.60000610352</ele>
        <time>2020-05-31T14:27:36.000Z</time>
      </trkpt>
      <trkpt lat="43.51871" lon="1.51976">
        <ele>133.60000610352</ele>
        <time>2020-05-31T14:27:37.000Z</time>
      </trkpt>
      <trkpt lat="43.51867" lon="1.51975">
        <ele>134</ele>
        <time>2020-05-31T14:27:38.000Z</time>
      </trkpt>
      <trkpt lat="43.5186" lon="1.51971">
        <ele>134.19999694824</ele>
        <time>2020-05-31T14:27:40.000Z</time>
      </trkpt>
      <trkpt lat="43.51852" lon="1.51967">
        <ele>134.39999389648</ele>
        <time>2020-05-31T14:27:42.000Z</time>
      </trkpt>
      <trkpt lat="43.51843" lon="1.51965">
        <ele>134.39999389648</ele>
        <time>2020-05-31T14:27:44.000Z</time>
      </trkpt>
      <trkpt lat="43.51838" lon="1.51965">
        <ele>134.39999389648</ele>
        <time>2020-05-31T14:27:45.000Z</time>
      </trkpt>
      <trkpt lat="43.51832" lon="1.51965">
        <ele>134.39999389648</ele>
        <time>2020-05-31T14:27:46.000Z</time>
      </trkpt>
      <trkpt lat="43.51821" lon="1.51965">
        <ele>134.39999389648</ele>
        <time>2020-05-31T14:27:48.000Z</time>
      </trkpt>
      <trkpt lat="43.5181" lon="1.51967">
        <ele>134.39999389648</ele>
        <time>2020-05-31T14:27:50.000Z</time>
      </trkpt>
      <trkpt lat="43.51799" lon="1.5197">
        <ele>134.19999694824</ele>
        <time>2020-05-31T14:27:52.000Z</time>
      </trkpt>
      <trkpt lat="43.51795" lon="1.51972">
        <ele>134.19999694824</ele>
        <time>2020-05-31T14:27:53.000Z</time>
      </trkpt>
      <trkpt lat="43.5179" lon="1.51975">
        <ele>134.19999694824</ele>
        <time>2020-05-31T14:27:54.000Z</time>
      </trkpt>
      <trkpt lat="43.5178" lon="1.51981">
        <ele>134</ele>
        <time>2020-05-31T14:27:56.000Z</time>
      </trkpt>
      <trkpt lat="43.51771" lon="1.51987">
        <ele>134</ele>
        <time>2020-05-31T14:27:58.000Z</time>
      </trkpt>
      <trkpt lat="43.51766" lon="1.5199">
        <ele>134</ele>
        <time>2020-05-31T14:27:59.000Z</time>
      </trkpt>
      <trkpt lat="43.51762" lon="1.51993">
        <ele>134</ele>
        <time>2020-05-31T14:28:00.000Z</time>
      </trkpt>
      <trkpt lat="43.51754" lon="1.51998">
        <ele>134</ele>
        <time>2020-05-31T14:28:02.000Z</time>
      </trkpt>
      <trkpt lat="43.51745" lon="1.52004">
        <ele>133.80000305176</ele>
        <time>2020-05-31T14:28:04.000Z</time>
      </trkpt>
      <trkpt lat="43.51737" lon="1.52009">
        <ele>133.80000305176</ele>
        <time>2020-05-31T14:28:06.000Z</time>
      </trkpt>
      <trkpt lat="43.51728" lon="1.52015">
        <ele>133.80000305176</ele>
        <time>2020-05-31T14:28:08.000Z</time>
      </trkpt>
      <trkpt lat="43.51724" lon="1.52018">
        <ele>133.80000305176</ele>
        <time>2020-05-31T14:28:09.000Z</time>
      </trkpt>
      <trkpt lat="43.51719" lon="1.5202">
        <ele>133.60000610352</ele>
        <time>2020-05-31T14:28:10.000Z</time>
      </trkpt>
      <trkpt lat="43.5171" lon="1.52024">
        <ele>133.60000610352</ele>
        <time>2020-05-31T14:28:12.000Z</time>
      </trkpt>
      <trkpt lat="43.51701" lon="1.52028">
        <ele>133.39999389648</ele>
        <time>2020-05-31T14:28:14.000Z</time>
      </trkpt>
      <trkpt lat="43.51696" lon="1.5203">
        <ele>133.39999389648</ele>
        <time>2020-05-31T14:28:15.000Z</time>
      </trkpt>
      <trkpt lat="43.51691" lon="1.52033">
        <ele>133.39999389648</ele>
        <time>2020-05-31T14:28:16.000Z</time>
      </trkpt>
      <trkpt lat="43.5168" lon="1.52039">
        <ele>133.39999389648</ele>
        <time>2020-05-31T14:28:18.000Z</time>
      </trkpt>
      <trkpt lat="43.51669" lon="1.52045">
        <ele>146.60000610352</ele>
        <time>2020-05-31T14:28:20.000Z</time>
      </trkpt>
      <trkpt lat="43.51664" lon="1.52047">
        <ele>133.19999694824</ele>
        <time>2020-05-31T14:28:21.000Z</time>
      </trkpt>
      <trkpt lat="43.51659" lon="1.52048">
        <ele>133.19999694824</ele>
        <time>2020-05-31T14:28:22.000Z</time>
      </trkpt>
      <trkpt lat="43.51649" lon="1.52051">
        <ele>133.19999694824</ele>
        <time>2020-05-31T14:28:24.000Z</time>
      </trkpt>
      <trkpt lat="43.51639" lon="1.52052">
        <ele>133.19999694824</ele>
        <time>2020-05-31T14:28:26.000Z</time>
      </trkpt>
      <trkpt lat="43.51629" lon="1.52053">
        <ele>133.19999694824</ele>
        <time>2020-05-31T14:28:28.000Z</time>
      </trkpt>
      <trkpt lat="43.51621" lon="1.52053">
        <ele>133.19999694824</ele>
        <time>2020-05-31T14:28:30.000Z</time>
      </trkpt>
      <trkpt lat="43.51612" lon="1.52052">
        <ele>133.19999694824</ele>
        <time>2020-05-31T14:28:32.000Z</time>
      </trkpt>
      <trkpt lat="43.51603" lon="1.5205">
        <ele>133.39999389648</ele>
        <time>2020-05-31T14:28:34.000Z</time>
      </trkpt>
      <trkpt lat="43.51596" lon="1.52046">
        <ele>133.39999389648</ele>
        <time>2020-05-31T14:28:36.000Z</time>
      </trkpt>
      <trkpt lat="43.5159" lon="1.52042">
        <ele>133.39999389648</ele>
        <time>2020-05-31T14:28:38.000Z</time>
      </trkpt>
      <trkpt lat="43.51584" lon="1.52039">
        <ele>133.60000610352</ele>
        <time>2020-05-31T14:28:40.000Z</time>
      </trkpt>
      <trkpt lat="43.51578" lon="1.52033">
        <ele>133.80000305176</ele>
        <time>2020-05-31T14:28:42.000Z</time>
      </trkpt>
      <trkpt lat="43.51572" lon="1.52024">
        <ele>133.80000305176</ele>
        <time>2020-05-31T14:28:44.000Z</time>
      </trkpt>
      <trkpt lat="43.51564" lon="1.52015">
        <ele>134</ele>
        <time>2020-05-31T14:28:46.000Z</time>
      </trkpt>
      <trkpt lat="43.51556" lon="1.52006">
        <ele>134</ele>
        <time>2020-05-31T14:28:48.000Z</time>
      </trkpt>
      <trkpt lat="43.51549" lon="1.51999">
        <ele>134.19999694824</ele>
        <time>2020-05-31T14:28:50.000Z</time>
      </trkpt>
      <trkpt lat="43.51542" lon="1.51991">
        <ele>134.19999694824</ele>
        <time>2020-05-31T14:28:52.000Z</time>
      </trkpt>
      <trkpt lat="43.51534" lon="1.51983">
        <ele>134.19999694824</ele>
        <time>2020-05-31T14:28:54.000Z</time>
      </trkpt>
      <trkpt lat="43.51524" lon="1.51974">
        <ele>134.19999694824</ele>
        <time>2020-05-31T14:28:56.000Z</time>
      </trkpt>
      <trkpt lat="43.51515" lon="1.51962">
        <ele>134.19999694824</ele>
        <time>2020-05-31T14:28:58.000Z</time>
      </trkpt>
      <trkpt lat="43.51507" lon="1.5195">
        <ele>134</ele>
        <time>2020-05-31T14:29:00.000Z</time>
      </trkpt>
      <trkpt lat="43.515" lon="1.51936">
        <ele>134.19999694824</ele>
        <time>2020-05-31T14:29:02.000Z</time>
      </trkpt>
      <trkpt lat="43.51494" lon="1.51923">
        <ele>134.19999694824</ele>
        <time>2020-05-31T14:29:04.000Z</time>
      </trkpt>
      <trkpt lat="43.51491" lon="1.5191">
        <ele>134.19999694824</ele>
        <time>2020-05-31T14:29:06.000Z</time>
      </trkpt>
      <trkpt lat="43.51488" lon="1.51899">
        <ele>134.19999694824</ele>
        <time>2020-05-31T14:29:08.000Z</time>
      </trkpt>
      <trkpt lat="43.51486" lon="1.51885">
        <ele>134.39999389648</ele>
        <time>2020-05-31T14:29:10.000Z</time>
      </trkpt>
      <trkpt lat="43.51484" lon="1.5187">
        <ele>134.39999389648</ele>
        <time>2020-05-31T14:29:12.000Z</time>
      </trkpt>
      <trkpt lat="43.51482" lon="1.51855">
        <ele>134.39999389648</ele>
        <time>2020-05-31T14:29:14.000Z</time>
      </trkpt>
      <trkpt lat="43.5148" lon="1.5184">
        <ele>134.60000610352</ele>
        <time>2020-05-31T14:29:16.000Z</time>
      </trkpt>
      <trkpt lat="43.5148" lon="1.51827">
        <ele>134.80000305176</ele>
        <time>2020-05-31T14:29:18.000Z</time>
      </trkpt>
      <trkpt lat="43.51481" lon="1.51815">
        <ele>134.80000305176</ele>
        <time>2020-05-31T14:29:20.000Z</time>
      </trkpt>
      <trkpt lat="43.51482" lon="1.51807">
        <ele>134.80000305176</ele>
        <time>2020-05-31T14:29:21.000Z</time>
      </trkpt>
      <trkpt lat="43.51483" lon="1.518">
        <ele>134.80000305176</ele>
        <time>2020-05-31T14:29:22.000Z</time>
      </trkpt>
      <trkpt lat="43.51484" lon="1.51793">
        <ele>134.80000305176</ele>
        <time>2020-05-31T14:29:23.000Z</time>
      </trkpt>
      <trkpt lat="43.51485" lon="1.51786">
        <ele>134.80000305176</ele>
        <time>2020-05-31T14:29:24.000Z</time>
      </trkpt>
      <trkpt lat="43.51487" lon="1.51772">
        <ele>135</ele>
        <time>2020-05-31T14:29:26.000Z</time>
      </trkpt>
      <trkpt lat="43.51489" lon="1.51759">
        <ele>135</ele>
        <time>2020-05-31T14:29:28.000Z</time>
      </trkpt>
      <trkpt lat="43.51488" lon="1.51745">
        <ele>135.39999389648</ele>
        <time>2020-05-31T14:29:30.000Z</time>
      </trkpt>
      <trkpt lat="43.51487" lon="1.51739">
        <ele>135.60000610352</ele>
        <time>2020-05-31T14:29:31.000Z</time>
      </trkpt>
      <trkpt lat="43.51486" lon="1.51732">
        <ele>135.60000610352</ele>
        <time>2020-05-31T14:29:32.000Z</time>
      </trkpt>
      <trkpt lat="43.51482" lon="1.51718">
        <ele>135.60000610352</ele>
        <time>2020-05-31T14:29:34.000Z</time>
      </trkpt>
      <trkpt lat="43.51475" lon="1.51704">
        <ele>135.60000610352</ele>
        <time>2020-05-31T14:29:36.000Z</time>
      </trkpt>
      <trkpt lat="43.51469" lon="1.51691">
        <ele>135.60000610352</ele>
        <time>2020-05-31T14:29:38.000Z</time>
      </trkpt>
      <trkpt lat="43.51462" lon="1.51681">
        <ele>135.60000610352</ele>
        <time>2020-05-31T14:29:40.000Z</time>
      </trkpt>
      <trkpt lat="43.51458" lon="1.51676">
        <ele>135.60000610352</ele>
        <time>2020-05-31T14:29:41.000Z</time>
      </trkpt>
      <trkpt lat="43.51454" lon="1.51672">
        <ele>135.60000610352</ele>
        <time>2020-05-31T14:29:42.000Z</time>
      </trkpt>
      <trkpt lat="43.51445" lon="1.51665">
        <ele>135.39999389648</ele>
        <time>2020-05-31T14:29:44.000Z</time>
      </trkpt>
      <trkpt lat="43.51435" lon="1.5166">
        <ele>135.19999694824</ele>
        <time>2020-05-31T14:29:46.000Z</time>
      </trkpt>
      <trkpt lat="43.51425" lon="1.51658">
        <ele>135.19999694824</ele>
        <time>2020-05-31T14:29:48.000Z</time>
      </trkpt>
      <trkpt lat="43.51414" lon="1.51658">
        <ele>135.19999694824</ele>
        <time>2020-05-31T14:29:50.000Z</time>
      </trkpt>
      <trkpt lat="43.51405" lon="1.5166">
        <ele>135.19999694824</ele>
        <time>2020-05-31T14:29:52.000Z</time>
      </trkpt>
      <trkpt lat="43.51395" lon="1.51662">
        <ele>135.19999694824</ele>
        <time>2020-05-31T14:29:54.000Z</time>
      </trkpt>
      <trkpt lat="43.51385" lon="1.51664">
        <ele>135</ele>
        <time>2020-05-31T14:29:56.000Z</time>
      </trkpt>
      <trkpt lat="43.51376" lon="1.51666">
        <ele>134.60000610352</ele>
        <time>2020-05-31T14:29:58.000Z</time>
      </trkpt>
      <trkpt lat="43.51367" lon="1.51668">
        <ele>134.39999389648</ele>
        <time>2020-05-31T14:30:00.000Z</time>
      </trkpt>
      <trkpt lat="43.51357" lon="1.5167">
        <ele>134.19999694824</ele>
        <time>2020-05-31T14:30:02.000Z</time>
      </trkpt>
      <trkpt lat="43.51347" lon="1.51672">
        <ele>134.19999694824</ele>
        <time>2020-05-31T14:30:04.000Z</time>
      </trkpt>
      <trkpt lat="43.51338" lon="1.51675">
        <ele>134.19999694824</ele>
        <time>2020-05-31T14:30:06.000Z</time>
      </trkpt>
      <trkpt lat="43.51328" lon="1.51678">
        <ele>134</ele>
        <time>2020-05-31T14:30:08.000Z</time>
      </trkpt>
      <trkpt lat="43.51323" lon="1.51678">
        <ele>134</ele>
        <time>2020-05-31T14:30:09.000Z</time>
      </trkpt>
      <trkpt lat="43.51318" lon="1.51679">
        <ele>134</ele>
        <time>2020-05-31T14:30:10.000Z</time>
      </trkpt>
      <trkpt lat="43.51308" lon="1.51681">
        <ele>134</ele>
        <time>2020-05-31T14:30:12.000Z</time>
      </trkpt>
      <trkpt lat="43.51299" lon="1.51682">
        <ele>134</ele>
        <time>2020-05-31T14:30:14.000Z</time>
      </trkpt>
      <trkpt lat="43.51289" lon="1.51684">
        <ele>134</ele>
        <time>2020-05-31T14:30:16.000Z</time>
      </trkpt>
      <trkpt lat="43.51279" lon="1.51687">
        <ele>133.80000305176</ele>
        <time>2020-05-31T14:30:18.000Z</time>
      </trkpt>
      <trkpt lat="43.51269" lon="1.5169">
        <ele>133.60000610352</ele>
        <time>2020-05-31T14:30:20.000Z</time>
      </trkpt>
      <trkpt lat="43.51261" lon="1.51692">
        <ele>133.60000610352</ele>
        <time>2020-05-31T14:30:22.000Z</time>
      </trkpt>
      <trkpt lat="43.51252" lon="1.51694">
        <ele>133.39999389648</ele>
        <time>2020-05-31T14:30:24.000Z</time>
      </trkpt>
      <trkpt lat="43.51242" lon="1.51697">
        <ele>133.39999389648</ele>
        <time>2020-05-31T14:30:26.000Z</time>
      </trkpt>
      <trkpt lat="43.51233" lon="1.51699">
        <ele>133.39999389648</ele>
        <time>2020-05-31T14:30:28.000Z</time>
      </trkpt>
      <trkpt lat="43.51229" lon="1.51699">
        <ele>133.39999389648</ele>
        <time>2020-05-31T14:30:29.000Z</time>
      </trkpt>
      <trkpt lat="43.51225" lon="1.517">
        <ele>133.60000610352</ele>
        <time>2020-05-31T14:30:30.000Z</time>
      </trkpt>
      <trkpt lat="43.51215" lon="1.51702">
        <ele>133.60000610352</ele>
        <time>2020-05-31T14:30:32.000Z</time>
      </trkpt>
      <trkpt lat="43.5121" lon="1.51704">
        <ele>133.60000610352</ele>
        <time>2020-05-31T14:30:33.000Z</time>
      </trkpt>
      <trkpt lat="43.51205" lon="1.51706">
        <ele>133.80000305176</ele>
        <time>2020-05-31T14:30:34.000Z</time>
      </trkpt>
      <trkpt lat="43.51196" lon="1.51709">
        <ele>134.39999389648</ele>
        <time>2020-05-31T14:30:36.000Z</time>
      </trkpt>
      <trkpt lat="43.51191" lon="1.51709">
        <ele>134.60000610352</ele>
        <time>2020-05-31T14:30:37.000Z</time>
      </trkpt>
      <trkpt lat="43.51187" lon="1.5171">
        <ele>134.60000610352</ele>
        <time>2020-05-31T14:30:38.000Z</time>
      </trkpt>
      <trkpt lat="43.51179" lon="1.51713">
        <ele>134.60000610352</ele>
        <time>2020-05-31T14:30:40.000Z</time>
      </trkpt>
      <trkpt lat="43.5117" lon="1.51716">
        <ele>134.80000305176</ele>
        <time>2020-05-31T14:30:42.000Z</time>
      </trkpt>
      <trkpt lat="43.51161" lon="1.5172">
        <ele>135</ele>
        <time>2020-05-31T14:30:44.000Z</time>
      </trkpt>
      <trkpt lat="43.51153" lon="1.51723">
        <ele>135</ele>
        <time>2020-05-31T14:30:46.000Z</time>
      </trkpt>
      <trkpt lat="43.51146" lon="1.51725">
        <ele>135.19999694824</ele>
        <time>2020-05-31T14:30:48.000Z</time>
      </trkpt>
      <trkpt lat="43.51143" lon="1.51727">
        <ele>135.39999389648</ele>
        <time>2020-05-31T14:30:49.000Z</time>
      </trkpt>
      <trkpt lat="43.5114" lon="1.51728">
        <ele>135.60000610352</ele>
        <time>2020-05-31T14:30:50.000Z</time>
      </trkpt>
      <trkpt lat="43.51136" lon="1.5173">
        <ele>136</ele>
        <time>2020-05-31T14:30:52.000Z</time>
      </trkpt>
      <trkpt lat="43.51134" lon="1.51731">
        <ele>136.19999694824</ele>
        <time>2020-05-31T14:30:53.000Z</time>
      </trkpt>
      <trkpt lat="43.5113" lon="1.51733">
        <ele>138.60000610352</ele>
        <time>2020-05-31T14:31:24.000Z</time>
      </trkpt>
      <trkpt lat="43.51127" lon="1.51736">
        <ele>138.39999389648</ele>
        <time>2020-05-31T14:31:26.000Z</time>
      </trkpt>
      <trkpt lat="43.51122" lon="1.5174">
        <ele>138.39999389648</ele>
        <time>2020-05-31T14:31:28.000Z</time>
      </trkpt>
      <trkpt lat="43.51115" lon="1.51743">
        <ele>138.39999389648</ele>
        <time>2020-05-31T14:31:30.000Z</time>
      </trkpt>
      <trkpt lat="43.51109" lon="1.51744">
        <ele>138.39999389648</ele>
        <time>2020-05-31T14:31:32.000Z</time>
      </trkpt>
      <trkpt lat="43.51103" lon="1.51747">
        <ele>138.19999694824</ele>
        <time>2020-05-31T14:31:34.000Z</time>
      </trkpt>
      <trkpt lat="43.511" lon="1.51747">
        <ele>137.39999389648</ele>
        <time>2020-05-31T14:31:35.000Z</time>
      </trkpt>
      <trkpt lat="43.51097" lon="1.51748">
        <ele>137</ele>
        <time>2020-05-31T14:31:36.000Z</time>
      </trkpt>
      <trkpt lat="43.51091" lon="1.51751">
        <ele>136.39999389648</ele>
        <time>2020-05-31T14:31:38.000Z</time>
      </trkpt>
      <trkpt lat="43.51088" lon="1.51752">
        <ele>136.19999694824</ele>
        <time>2020-05-31T14:31:39.000Z</time>
      </trkpt>
      <trkpt lat="43.51085" lon="1.51753">
        <ele>136.19999694824</ele>
        <time>2020-05-31T14:31:40.000Z</time>
      </trkpt>
      <trkpt lat="43.51079" lon="1.51754">
        <ele>136</ele>
        <time>2020-05-31T14:31:42.000Z</time>
      </trkpt>
      <trkpt lat="43.51072" lon="1.51756">
        <ele>136</ele>
        <time>2020-05-31T14:31:44.000Z</time>
      </trkpt>
      <trkpt lat="43.51066" lon="1.51757">
        <ele>136</ele>
        <time>2020-05-31T14:31:46.000Z</time>
      </trkpt>
      <trkpt lat="43.51061" lon="1.51758">
        <ele>136.19999694824</ele>
        <time>2020-05-31T14:31:48.000Z</time>
      </trkpt>
      <trkpt lat="43.51056" lon="1.51759">
        <ele>136.19999694824</ele>
        <time>2020-05-31T14:31:50.000Z</time>
      </trkpt>
      <trkpt lat="43.51051" lon="1.51762">
        <ele>136.39999389648</ele>
        <time>2020-05-31T14:31:52.000Z</time>
      </trkpt>
      <trkpt lat="43.51046" lon="1.51764">
        <ele>136.39999389648</ele>
        <time>2020-05-31T14:31:54.000Z</time>
      </trkpt>
      <trkpt lat="43.51041" lon="1.51765">
        <ele>136.60000610352</ele>
        <time>2020-05-31T14:31:56.000Z</time>
      </trkpt>
      <trkpt lat="43.51037" lon="1.51766">
        <ele>136.60000610352</ele>
        <time>2020-05-31T14:31:57.000Z</time>
      </trkpt>
      <trkpt lat="43.51033" lon="1.51767">
        <ele>136.60000610352</ele>
        <time>2020-05-31T14:31:58.000Z</time>
      </trkpt>
      <trkpt lat="43.51024" lon="1.51769">
        <ele>136.60000610352</ele>
        <time>2020-05-31T14:32:00.000Z</time>
      </trkpt>
      <trkpt lat="43.51015" lon="1.51773">
        <ele>136.60000610352</ele>
        <time>2020-05-31T14:32:02.000Z</time>
      </trkpt>
      <trkpt lat="43.51007" lon="1.51775">
        <ele>136.60000610352</ele>
        <time>2020-05-31T14:32:04.000Z</time>
      </trkpt>
      <trkpt lat="43.50999" lon="1.51778">
        <ele>136.39999389648</ele>
        <time>2020-05-31T14:32:06.000Z</time>
      </trkpt>
      <trkpt lat="43.50991" lon="1.51782">
        <ele>136</ele>
        <time>2020-05-31T14:32:08.000Z</time>
      </trkpt>
      <trkpt lat="43.50986" lon="1.51784">
        <ele>136</ele>
        <time>2020-05-31T14:32:09.000Z</time>
      </trkpt>
      <trkpt lat="43.50981" lon="1.51786">
        <ele>136</ele>
        <time>2020-05-31T14:32:10.000Z</time>
      </trkpt>
      <trkpt lat="43.5097" lon="1.51791">
        <ele>135.80000305176</ele>
        <time>2020-05-31T14:32:12.000Z</time>
      </trkpt>
      <trkpt lat="43.5096" lon="1.51796">
        <ele>135.60000610352</ele>
        <time>2020-05-31T14:32:14.000Z</time>
      </trkpt>
      <trkpt lat="43.50956" lon="1.51799">
        <ele>135.60000610352</ele>
        <time>2020-05-31T14:32:15.000Z</time>
      </trkpt>
      <trkpt lat="43.50951" lon="1.51803">
        <ele>135.60000610352</ele>
        <time>2020-05-31T14:32:16.000Z</time>
      </trkpt>
      <trkpt lat="43.50942" lon="1.51812">
        <ele>135.60000610352</ele>
        <time>2020-05-31T14:32:18.000Z</time>
      </trkpt>
      <trkpt lat="43.50933" lon="1.51819">
        <ele>135.60000610352</ele>
        <time>2020-05-31T14:32:20.000Z</time>
      </trkpt>
      <trkpt lat="43.50924" lon="1.51826">
        <ele>135.60000610352</ele>
        <time>2020-05-31T14:32:22.000Z</time>
      </trkpt>
      <trkpt lat="43.50915" lon="1.51833">
        <ele>135.60000610352</ele>
        <time>2020-05-31T14:32:24.000Z</time>
      </trkpt>
      <trkpt lat="43.50911" lon="1.51837">
        <ele>135.60000610352</ele>
        <time>2020-05-31T14:32:25.000Z</time>
      </trkpt>
      <trkpt lat="43.50907" lon="1.51841">
        <ele>135.60000610352</ele>
        <time>2020-05-31T14:32:26.000Z</time>
      </trkpt>
      <trkpt lat="43.50899" lon="1.51849">
        <ele>135.60000610352</ele>
        <time>2020-05-31T14:32:28.000Z</time>
      </trkpt>
      <trkpt lat="43.50895" lon="1.51853">
        <ele>135.60000610352</ele>
        <time>2020-05-31T14:32:29.000Z</time>
      </trkpt>
      <trkpt lat="43.50891" lon="1.51857">
        <ele>135.80000305176</ele>
        <time>2020-05-31T14:32:30.000Z</time>
      </trkpt>
      <trkpt lat="43.50882" lon="1.51864">
        <ele>136</ele>
        <time>2020-05-31T14:32:32.000Z</time>
      </trkpt>
      <trkpt lat="43.50874" lon="1.51873">
        <ele>136.39999389648</ele>
        <time>2020-05-31T14:32:34.000Z</time>
      </trkpt>
      <trkpt lat="43.50866" lon="1.51882">
        <ele>136.60000610352</ele>
        <time>2020-05-31T14:32:36.000Z</time>
      </trkpt>
      <trkpt lat="43.50858" lon="1.5189">
        <ele>136.60000610352</ele>
        <time>2020-05-31T14:32:38.000Z</time>
      </trkpt>
      <trkpt lat="43.50849" lon="1.519">
        <ele>136.60000610352</ele>
        <time>2020-05-31T14:32:40.000Z</time>
      </trkpt>
      <trkpt lat="43.50841" lon="1.5191">
        <ele>136.60000610352</ele>
        <time>2020-05-31T14:32:42.000Z</time>
      </trkpt>
      <trkpt lat="43.50833" lon="1.51919">
        <ele>136.60000610352</ele>
        <time>2020-05-31T14:32:44.000Z</time>
      </trkpt>
      <trkpt lat="43.50824" lon="1.51931">
        <ele>136.60000610352</ele>
        <time>2020-05-31T14:32:46.000Z</time>
      </trkpt>
      <trkpt lat="43.50815" lon="1.51942">
        <ele>136.60000610352</ele>
        <time>2020-05-31T14:32:48.000Z</time>
      </trkpt>
      <trkpt lat="43.50805" lon="1.51952">
        <ele>136.60000610352</ele>
        <time>2020-05-31T14:32:50.000Z</time>
      </trkpt>
      <trkpt lat="43.50797" lon="1.51962">
        <ele>136.60000610352</ele>
        <time>2020-05-31T14:32:52.000Z</time>
      </trkpt>
      <trkpt lat="43.50788" lon="1.51971">
        <ele>136.60000610352</ele>
        <time>2020-05-31T14:32:54.000Z</time>
      </trkpt>
      <trkpt lat="43.50779" lon="1.5198">
        <ele>136.19999694824</ele>
        <time>2020-05-31T14:32:56.000Z</time>
      </trkpt>
      <trkpt lat="43.5077" lon="1.5199">
        <ele>136</ele>
        <time>2020-05-31T14:32:58.000Z</time>
      </trkpt>
      <trkpt lat="43.50762" lon="1.51999">
        <ele>135.80000305176</ele>
        <time>2020-05-31T14:33:00.000Z</time>
      </trkpt>
      <trkpt lat="43.50752" lon="1.52007">
        <ele>135.60000610352</ele>
        <time>2020-05-31T14:33:02.000Z</time>
      </trkpt>
      <trkpt lat="43.50742" lon="1.52015">
        <ele>135.39999389648</ele>
        <time>2020-05-31T14:33:04.000Z</time>
      </trkpt>
      <trkpt lat="43.50732" lon="1.52024">
        <ele>135.19999694824</ele>
        <time>2020-05-31T14:33:06.000Z</time>
      </trkpt>
      <trkpt lat="43.50726" lon="1.52028">
        <ele>135.19999694824</ele>
        <time>2020-05-31T14:33:07.000Z</time>
      </trkpt>
      <trkpt lat="43.50721" lon="1.52033">
        <ele>135.19999694824</ele>
        <time>2020-05-31T14:33:08.000Z</time>
      </trkpt>
      <trkpt lat="43.50716" lon="1.52036">
        <ele>135</ele>
        <time>2020-05-31T14:33:09.000Z</time>
      </trkpt>
      <trkpt lat="43.50711" lon="1.52039">
        <ele>135</ele>
        <time>2020-05-31T14:33:10.000Z</time>
      </trkpt>
      <trkpt lat="43.50699" lon="1.52045">
        <ele>135</ele>
        <time>2020-05-31T14:33:12.000Z</time>
      </trkpt>
      <trkpt lat="43.50688" lon="1.52049">
        <ele>135</ele>
        <time>2020-05-31T14:33:14.000Z</time>
      </trkpt>
      <trkpt lat="43.50676" lon="1.52053">
        <ele>135.19999694824</ele>
        <time>2020-05-31T14:33:16.000Z</time>
      </trkpt>
      <trkpt lat="43.50665" lon="1.52056">
        <ele>135.19999694824</ele>
        <time>2020-05-31T14:33:18.000Z</time>
      </trkpt>
      <trkpt lat="43.50653" lon="1.52057">
        <ele>135</ele>
        <time>2020-05-31T14:33:20.000Z</time>
      </trkpt>
      <trkpt lat="43.50642" lon="1.52059">
        <ele>135.19999694824</ele>
        <time>2020-05-31T14:33:22.000Z</time>
      </trkpt>
      <trkpt lat="43.50631" lon="1.52059">
        <ele>135.39999389648</ele>
        <time>2020-05-31T14:33:24.000Z</time>
      </trkpt>
      <trkpt lat="43.5062" lon="1.52062">
        <ele>135.39999389648</ele>
        <time>2020-05-31T14:33:26.000Z</time>
      </trkpt>
      <trkpt lat="43.50609" lon="1.52065">
        <ele>135.60000610352</ele>
        <time>2020-05-31T14:33:28.000Z</time>
      </trkpt>
      <trkpt lat="43.50599" lon="1.52067">
        <ele>135.60000610352</ele>
        <time>2020-05-31T14:33:30.000Z</time>
      </trkpt>
      <trkpt lat="43.50595" lon="1.52067">
        <ele>135.60000610352</ele>
        <time>2020-05-31T14:33:31.000Z</time>
      </trkpt>
      <trkpt lat="43.50591" lon="1.52068">
        <ele>135.60000610352</ele>
        <time>2020-05-31T14:33:32.000Z</time>
      </trkpt>
      <trkpt lat="43.50581" lon="1.5207">
        <ele>135.60000610352</ele>
        <time>2020-05-31T14:33:34.000Z</time>
      </trkpt>
      <trkpt lat="43.50573" lon="1.52071">
        <ele>135.60000610352</ele>
        <time>2020-05-31T14:33:36.000Z</time>
      </trkpt>
      <trkpt lat="43.50565" lon="1.52074">
        <ele>135.60000610352</ele>
        <time>2020-05-31T14:33:38.000Z</time>
      </trkpt>
      <trkpt lat="43.50557" lon="1.52076">
        <ele>135.60000610352</ele>
        <time>2020-05-31T14:33:40.000Z</time>
      </trkpt>
      <trkpt lat="43.5055" lon="1.52077">
        <ele>135.60000610352</ele>
        <time>2020-05-31T14:33:42.000Z</time>
      </trkpt>
      <trkpt lat="43.50542" lon="1.52078">
        <ele>135.60000610352</ele>
        <time>2020-05-31T14:33:44.000Z</time>
      </trkpt>
      <trkpt lat="43.50533" lon="1.5208">
        <ele>135.60000610352</ele>
        <time>2020-05-31T14:33:46.000Z</time>
      </trkpt>
      <trkpt lat="43.50523" lon="1.52084">
        <ele>135.39999389648</ele>
        <time>2020-05-31T14:33:48.000Z</time>
      </trkpt>
      <trkpt lat="43.50514" lon="1.5209">
        <ele>135.19999694824</ele>
        <time>2020-05-31T14:33:50.000Z</time>
      </trkpt>
      <trkpt lat="43.50504" lon="1.52098">
        <ele>135</ele>
        <time>2020-05-31T14:33:52.000Z</time>
      </trkpt>
      <trkpt lat="43.50495" lon="1.52106">
        <ele>134.80000305176</ele>
        <time>2020-05-31T14:33:54.000Z</time>
      </trkpt>
      <trkpt lat="43.50486" lon="1.52115">
        <ele>134.80000305176</ele>
        <time>2020-05-31T14:33:56.000Z</time>
      </trkpt>
      <trkpt lat="43.50478" lon="1.52125">
        <ele>134.80000305176</ele>
        <time>2020-05-31T14:33:58.000Z</time>
      </trkpt>
      <trkpt lat="43.5047" lon="1.52137">
        <ele>134.80000305176</ele>
        <time>2020-05-31T14:34:00.000Z</time>
      </trkpt>
      <trkpt lat="43.50462" lon="1.52148">
        <ele>134.80000305176</ele>
        <time>2020-05-31T14:34:02.000Z</time>
      </trkpt>
      <trkpt lat="43.50454" lon="1.52159">
        <ele>135.80000305176</ele>
        <time>2020-05-31T14:34:04.000Z</time>
      </trkpt>
      <trkpt lat="43.50449" lon="1.52167">
        <ele>136.19999694824</ele>
        <time>2020-05-31T14:34:06.000Z</time>
      </trkpt>
      <trkpt lat="43.50446" lon="1.52175">
        <ele>136.39999389648</ele>
        <time>2020-05-31T14:34:08.000Z</time>
      </trkpt>
      <trkpt lat="43.50445" lon="1.52178">
        <ele>136.39999389648</ele>
        <time>2020-05-31T14:34:09.000Z</time>
      </trkpt>
      <trkpt lat="43.50444" lon="1.52181">
        <ele>136.39999389648</ele>
        <time>2020-05-31T14:34:10.000Z</time>
      </trkpt>
      <trkpt lat="43.50442" lon="1.52189">
        <ele>136.60000610352</ele>
        <time>2020-05-31T14:34:12.000Z</time>
      </trkpt>
      <trkpt lat="43.50438" lon="1.522">
        <ele>136.60000610352</ele>
        <time>2020-05-31T14:34:14.000Z</time>
      </trkpt>
      <trkpt lat="43.50437" lon="1.52206">
        <ele>136.60000610352</ele>
        <time>2020-05-31T14:34:15.000Z</time>
      </trkpt>
      <trkpt lat="43.50435" lon="1.52214">
        <ele>136.60000610352</ele>
        <time>2020-05-31T14:34:16.000Z</time>
      </trkpt>
      <trkpt lat="43.50434" lon="1.52222">
        <ele>136.80000305176</ele>
        <time>2020-05-31T14:34:17.000Z</time>
      </trkpt>
      <trkpt lat="43.50433" lon="1.5223">
        <ele>136.80000305176</ele>
        <time>2020-05-31T14:34:18.000Z</time>
      </trkpt>
      <trkpt lat="43.50432" lon="1.52245">
        <ele>136.80000305176</ele>
        <time>2020-05-31T14:34:20.000Z</time>
      </trkpt>
      <trkpt lat="43.50432" lon="1.5226">
        <ele>136.80000305176</ele>
        <time>2020-05-31T14:34:22.000Z</time>
      </trkpt>
      <trkpt lat="43.50433" lon="1.52275">
        <ele>136.60000610352</ele>
        <time>2020-05-31T14:34:24.000Z</time>
      </trkpt>
      <trkpt lat="43.50432" lon="1.5229">
        <ele>136.60000610352</ele>
        <time>2020-05-31T14:34:26.000Z</time>
      </trkpt>
      <trkpt lat="43.5043" lon="1.52305">
        <ele>136.39999389648</ele>
        <time>2020-05-31T14:34:28.000Z</time>
      </trkpt>
      <trkpt lat="43.50427" lon="1.52321">
        <ele>136.39999389648</ele>
        <time>2020-05-31T14:34:30.000Z</time>
      </trkpt>
      <trkpt lat="43.50426" lon="1.52336">
        <ele>136.19999694824</ele>
        <time>2020-05-31T14:34:32.000Z</time>
      </trkpt>
      <trkpt lat="43.50425" lon="1.52351">
        <ele>136.19999694824</ele>
        <time>2020-05-31T14:34:34.000Z</time>
      </trkpt>
      <trkpt lat="43.50425" lon="1.52366">
        <ele>136.19999694824</ele>
        <time>2020-05-31T14:34:36.000Z</time>
      </trkpt>
      <trkpt lat="43.50425" lon="1.5238">
        <ele>136.19999694824</ele>
        <time>2020-05-31T14:34:38.000Z</time>
      </trkpt>
      <trkpt lat="43.50426" lon="1.52387">
        <ele>136.19999694824</ele>
        <time>2020-05-31T14:34:39.000Z</time>
      </trkpt>
      <trkpt lat="43.50426" lon="1.52393">
        <ele>136.19999694824</ele>
        <time>2020-05-31T14:34:40.000Z</time>
      </trkpt>
      <trkpt lat="43.50427" lon="1.52399">
        <ele>136.19999694824</ele>
        <time>2020-05-31T14:34:41.000Z</time>
      </trkpt>
      <trkpt lat="43.50427" lon="1.52406">
        <ele>136.19999694824</ele>
        <time>2020-05-31T14:34:42.000Z</time>
      </trkpt>
      <trkpt lat="43.50424" lon="1.52419">
        <ele>136</ele>
        <time>2020-05-31T14:34:44.000Z</time>
      </trkpt>
      <trkpt lat="43.50421" lon="1.52434">
        <ele>136</ele>
        <time>2020-05-31T14:34:46.000Z</time>
      </trkpt>
      <trkpt lat="43.50418" lon="1.52448">
        <ele>136</ele>
        <time>2020-05-31T14:34:48.000Z</time>
      </trkpt>
      <trkpt lat="43.50414" lon="1.52463">
        <ele>136.19999694824</ele>
        <time>2020-05-31T14:34:50.000Z</time>
      </trkpt>
      <trkpt lat="43.50411" lon="1.52479">
        <ele>136.19999694824</ele>
        <time>2020-05-31T14:34:52.000Z</time>
      </trkpt>
      <trkpt lat="43.50408" lon="1.52495">
        <ele>135.80000305176</ele>
        <time>2020-05-31T14:34:54.000Z</time>
      </trkpt>
      <trkpt lat="43.50405" lon="1.52508">
        <ele>136</ele>
        <time>2020-05-31T14:34:56.000Z</time>
      </trkpt>
      <trkpt lat="43.50403" lon="1.5252">
        <ele>135.80000305176</ele>
        <time>2020-05-31T14:34:58.000Z</time>
      </trkpt>
      <trkpt lat="43.504" lon="1.52533">
        <ele>135.80000305176</ele>
        <time>2020-05-31T14:35:00.000Z</time>
      </trkpt>
      <trkpt lat="43.50398" lon="1.52545">
        <ele>135.80000305176</ele>
        <time>2020-05-31T14:35:02.000Z</time>
      </trkpt>
      <trkpt lat="43.50396" lon="1.52558">
        <ele>135.80000305176</ele>
        <time>2020-05-31T14:35:04.000Z</time>
      </trkpt>
      <trkpt lat="43.50396" lon="1.52565">
        <ele>135.60000610352</ele>
        <time>2020-05-31T14:35:05.000Z</time>
      </trkpt>
      <trkpt lat="43.50395" lon="1.52571">
        <ele>135.60000610352</ele>
        <time>2020-05-31T14:35:06.000Z</time>
      </trkpt>
      <trkpt lat="43.50393" lon="1.52582">
        <ele>135.60000610352</ele>
        <time>2020-05-31T14:35:08.000Z</time>
      </trkpt>
      <trkpt lat="43.50391" lon="1.52592">
        <ele>135.60000610352</ele>
        <time>2020-05-31T14:35:10.000Z</time>
      </trkpt>
      <trkpt lat="43.5039" lon="1.52598">
        <ele>135.60000610352</ele>
        <time>2020-05-31T14:35:11.000Z</time>
      </trkpt>
      <trkpt lat="43.50388" lon="1.52604">
        <ele>135.39999389648</ele>
        <time>2020-05-31T14:35:12.000Z</time>
      </trkpt>
      <trkpt lat="43.50385" lon="1.52616">
        <ele>135.39999389648</ele>
        <time>2020-05-31T14:35:14.000Z</time>
      </trkpt>
      <trkpt lat="43.50382" lon="1.52629">
        <ele>135.39999389648</ele>
        <time>2020-05-31T14:35:16.000Z</time>
      </trkpt>
      <trkpt lat="43.50379" lon="1.52644">
        <ele>135.39999389648</ele>
        <time>2020-05-31T14:35:18.000Z</time>
      </trkpt>
      <trkpt lat="43.50374" lon="1.5266">
        <ele>135.39999389648</ele>
        <time>2020-05-31T14:35:20.000Z</time>
      </trkpt>
      <trkpt lat="43.50368" lon="1.52675">
        <ele>135.39999389648</ele>
        <time>2020-05-31T14:35:22.000Z</time>
      </trkpt>
      <trkpt lat="43.50365" lon="1.52682">
        <ele>135.39999389648</ele>
        <time>2020-05-31T14:35:23.000Z</time>
      </trkpt>
      <trkpt lat="43.50362" lon="1.52687">
        <ele>135.39999389648</ele>
        <time>2020-05-31T14:35:24.000Z</time>
      </trkpt>
      <trkpt lat="43.50355" lon="1.52698">
        <ele>135.39999389648</ele>
        <time>2020-05-31T14:35:26.000Z</time>
      </trkpt>
      <trkpt lat="43.50351" lon="1.52702">
        <ele>135.39999389648</ele>
        <time>2020-05-31T14:35:27.000Z</time>
      </trkpt>
      <trkpt lat="43.50348" lon="1.52707">
        <ele>135.39999389648</ele>
        <time>2020-05-31T14:35:28.000Z</time>
      </trkpt>
      <trkpt lat="43.5034" lon="1.52716">
        <ele>135.39999389648</ele>
        <time>2020-05-31T14:35:30.000Z</time>
      </trkpt>
      <trkpt lat="43.50335" lon="1.52721">
        <ele>135.39999389648</ele>
        <time>2020-05-31T14:35:31.000Z</time>
      </trkpt>
      <trkpt lat="43.50331" lon="1.52727">
        <ele>135.39999389648</ele>
        <time>2020-05-31T14:35:32.000Z</time>
      </trkpt>
      <trkpt lat="43.50323" lon="1.52738">
        <ele>135.39999389648</ele>
        <time>2020-05-31T14:35:34.000Z</time>
      </trkpt>
      <trkpt lat="43.50317" lon="1.52748">
        <ele>135.19999694824</ele>
        <time>2020-05-31T14:35:36.000Z</time>
      </trkpt>
      <trkpt lat="43.50311" lon="1.52757">
        <ele>135</ele>
        <time>2020-05-31T14:35:38.000Z</time>
      </trkpt>
      <trkpt lat="43.50303" lon="1.52766">
        <ele>135</ele>
        <time>2020-05-31T14:35:40.000Z</time>
      </trkpt>
      <trkpt lat="43.50294" lon="1.52775">
        <ele>134.80000305176</ele>
        <time>2020-05-31T14:35:42.000Z</time>
      </trkpt>
      <trkpt lat="43.5029" lon="1.52779">
        <ele>134.60000610352</ele>
        <time>2020-05-31T14:35:43.000Z</time>
      </trkpt>
      <trkpt lat="43.50286" lon="1.52783">
        <ele>134.60000610352</ele>
        <time>2020-05-31T14:35:44.000Z</time>
      </trkpt>
      <trkpt lat="43.50278" lon="1.5279">
        <ele>134.60000610352</ele>
        <time>2020-05-31T14:35:46.000Z</time>
      </trkpt>
      <trkpt lat="43.50269" lon="1.52798">
        <ele>134.60000610352</ele>
        <time>2020-05-31T14:35:48.000Z</time>
      </trkpt>
      <trkpt lat="43.5026" lon="1.52806">
        <ele>134.60000610352</ele>
        <time>2020-05-31T14:35:50.000Z</time>
      </trkpt>
      <trkpt lat="43.50251" lon="1.52814">
        <ele>134.39999389648</ele>
        <time>2020-05-31T14:35:52.000Z</time>
      </trkpt>
      <trkpt lat="43.50242" lon="1.5282">
        <ele>134.19999694824</ele>
        <time>2020-05-31T14:35:54.000Z</time>
      </trkpt>
      <trkpt lat="43.50232" lon="1.52829">
        <ele>134</ele>
        <time>2020-05-31T14:35:56.000Z</time>
      </trkpt>
      <trkpt lat="43.50223" lon="1.52838">
        <ele>134.19999694824</ele>
        <time>2020-05-31T14:35:58.000Z</time>
      </trkpt>
      <trkpt lat="43.50214" lon="1.52845">
        <ele>134.39999389648</ele>
        <time>2020-05-31T14:36:00.000Z</time>
      </trkpt>
      <trkpt lat="43.50205" lon="1.52852">
        <ele>134.60000610352</ele>
        <time>2020-05-31T14:36:02.000Z</time>
      </trkpt>
      <trkpt lat="43.50197" lon="1.52859">
        <ele>134.60000610352</ele>
        <time>2020-05-31T14:36:04.000Z</time>
      </trkpt>
      <trkpt lat="43.50188" lon="1.52866">
        <ele>134.39999389648</ele>
        <time>2020-05-31T14:36:06.000Z</time>
      </trkpt>
      <trkpt lat="43.50179" lon="1.52874">
        <ele>134.19999694824</ele>
        <time>2020-05-31T14:36:08.000Z</time>
      </trkpt>
      <trkpt lat="43.50171" lon="1.52882">
        <ele>134.39999389648</ele>
        <time>2020-05-31T14:36:10.000Z</time>
      </trkpt>
      <trkpt lat="43.50162" lon="1.52889">
        <ele>134.39999389648</ele>
        <time>2020-05-31T14:36:12.000Z</time>
      </trkpt>
      <trkpt lat="43.50154" lon="1.52896">
        <ele>134.39999389648</ele>
        <time>2020-05-31T14:36:14.000Z</time>
      </trkpt>
      <trkpt lat="43.5015" lon="1.52899">
        <ele>134.39999389648</ele>
        <time>2020-05-31T14:36:15.000Z</time>
      </trkpt>
      <trkpt lat="43.50146" lon="1.52902">
        <ele>134.60000610352</ele>
        <time>2020-05-31T14:36:16.000Z</time>
      </trkpt>
      <trkpt lat="43.50136" lon="1.5291">
        <ele>134.60000610352</ele>
        <time>2020-05-31T14:36:18.000Z</time>
      </trkpt>
      <trkpt lat="43.50127" lon="1.5292">
        <ele>134.60000610352</ele>
        <time>2020-05-31T14:36:20.000Z</time>
      </trkpt>
      <trkpt lat="43.50119" lon="1.5293">
        <ele>134.39999389648</ele>
        <time>2020-05-31T14:36:22.000Z</time>
      </trkpt>
      <trkpt lat="43.5011" lon="1.5294">
        <ele>134.39999389648</ele>
        <time>2020-05-31T14:36:24.000Z</time>
      </trkpt>
      <trkpt lat="43.50101" lon="1.52949">
        <ele>134.39999389648</ele>
        <time>2020-05-31T14:36:26.000Z</time>
      </trkpt>
      <trkpt lat="43.50093" lon="1.52959">
        <ele>134.19999694824</ele>
        <time>2020-05-31T14:36:28.000Z</time>
      </trkpt>
      <trkpt lat="43.50085" lon="1.52971">
        <ele>134.19999694824</ele>
        <time>2020-05-31T14:36:30.000Z</time>
      </trkpt>
      <trkpt lat="43.50077" lon="1.52981">
        <ele>134</ele>
        <time>2020-05-31T14:36:32.000Z</time>
      </trkpt>
      <trkpt lat="43.50069" lon="1.52992">
        <ele>133.80000305176</ele>
        <time>2020-05-31T14:36:34.000Z</time>
      </trkpt>
      <trkpt lat="43.50061" lon="1.53002">
        <ele>133.80000305176</ele>
        <time>2020-05-31T14:36:36.000Z</time>
      </trkpt>
      <trkpt lat="43.50052" lon="1.53013">
        <ele>133.60000610352</ele>
        <time>2020-05-31T14:36:38.000Z</time>
      </trkpt>
      <trkpt lat="43.50045" lon="1.53023">
        <ele>133.39999389648</ele>
        <time>2020-05-31T14:36:40.000Z</time>
      </trkpt>
      <trkpt lat="43.50041" lon="1.53027">
        <ele>133.39999389648</ele>
        <time>2020-05-31T14:36:41.000Z</time>
      </trkpt>
      <trkpt lat="43.50037" lon="1.53031">
        <ele>133.39999389648</ele>
        <time>2020-05-31T14:36:42.000Z</time>
      </trkpt>
      <trkpt lat="43.5003" lon="1.53039">
        <ele>133.39999389648</ele>
        <time>2020-05-31T14:36:44.000Z</time>
      </trkpt>
      <trkpt lat="43.50022" lon="1.53048">
        <ele>133</ele>
        <time>2020-05-31T14:36:46.000Z</time>
      </trkpt>
      <trkpt lat="43.50014" lon="1.53056">
        <ele>133</ele>
        <time>2020-05-31T14:36:48.000Z</time>
      </trkpt>
      <trkpt lat="43.50005" lon="1.53064">
        <ele>133</ele>
        <time>2020-05-31T14:36:50.000Z</time>
      </trkpt>
      <trkpt lat="43.49997" lon="1.53071">
        <ele>133</ele>
        <time>2020-05-31T14:36:52.000Z</time>
      </trkpt>
      <trkpt lat="43.4999" lon="1.53077">
        <ele>133</ele>
        <time>2020-05-31T14:36:54.000Z</time>
      </trkpt>
      <trkpt lat="43.49982" lon="1.53085">
        <ele>133.19999694824</ele>
        <time>2020-05-31T14:36:56.000Z</time>
      </trkpt>
      <trkpt lat="43.49973" lon="1.53094">
        <ele>133.39999389648</ele>
        <time>2020-05-31T14:36:58.000Z</time>
      </trkpt>
      <trkpt lat="43.49966" lon="1.53102">
        <ele>133.39999389648</ele>
        <time>2020-05-31T14:37:00.000Z</time>
      </trkpt>
      <trkpt lat="43.49957" lon="1.5311">
        <ele>133.60000610352</ele>
        <time>2020-05-31T14:37:02.000Z</time>
      </trkpt>
      <trkpt lat="43.49949" lon="1.53117">
        <ele>133.80000305176</ele>
        <time>2020-05-31T14:37:04.000Z</time>
      </trkpt>
      <trkpt lat="43.4994" lon="1.53124">
        <ele>134</ele>
        <time>2020-05-31T14:37:06.000Z</time>
      </trkpt>
      <trkpt lat="43.49933" lon="1.53131">
        <ele>134</ele>
        <time>2020-05-31T14:37:08.000Z</time>
      </trkpt>
      <trkpt lat="43.49925" lon="1.53138">
        <ele>134</ele>
        <time>2020-05-31T14:37:10.000Z</time>
      </trkpt>
      <trkpt lat="43.49918" lon="1.53145">
        <ele>133.80000305176</ele>
        <time>2020-05-31T14:37:12.000Z</time>
      </trkpt>
      <trkpt lat="43.4991" lon="1.53152">
        <ele>133.60000610352</ele>
        <time>2020-05-31T14:37:14.000Z</time>
      </trkpt>
      <trkpt lat="43.49902" lon="1.53159">
        <ele>133.39999389648</ele>
        <time>2020-05-31T14:37:16.000Z</time>
      </trkpt>
      <trkpt lat="43.49893" lon="1.53167">
        <ele>133.60000610352</ele>
        <time>2020-05-31T14:37:18.000Z</time>
      </trkpt>
      <trkpt lat="43.49884" lon="1.53174">
        <ele>133.39999389648</ele>
        <time>2020-05-31T14:37:20.000Z</time>
      </trkpt>
      <trkpt lat="43.49874" lon="1.53183">
        <ele>133.39999389648</ele>
        <time>2020-05-31T14:37:22.000Z</time>
      </trkpt>
      <trkpt lat="43.49866" lon="1.53191">
        <ele>133.19999694824</ele>
        <time>2020-05-31T14:37:24.000Z</time>
      </trkpt>
      <trkpt lat="43.49857" lon="1.53201">
        <ele>133.19999694824</ele>
        <time>2020-05-31T14:37:26.000Z</time>
      </trkpt>
      <trkpt lat="43.49849" lon="1.53211">
        <ele>133.19999694824</ele>
        <time>2020-05-31T14:37:28.000Z</time>
      </trkpt>
      <trkpt lat="43.49841" lon="1.53221">
        <ele>133.39999389648</ele>
        <time>2020-05-31T14:37:30.000Z</time>
      </trkpt>
      <trkpt lat="43.49832" lon="1.5323">
        <ele>133.80000305176</ele>
        <time>2020-05-31T14:37:32.000Z</time>
      </trkpt>
      <trkpt lat="43.49825" lon="1.53239">
        <ele>134.19999694824</ele>
        <time>2020-05-31T14:37:34.000Z</time>
      </trkpt>
      <trkpt lat="43.49817" lon="1.53247">
        <ele>134.39999389648</ele>
        <time>2020-05-31T14:37:36.000Z</time>
      </trkpt>
      <trkpt lat="43.4981" lon="1.53258">
        <ele>134.39999389648</ele>
        <time>2020-05-31T14:37:38.000Z</time>
      </trkpt>
      <trkpt lat="43.49802" lon="1.53267">
        <ele>134.60000610352</ele>
        <time>2020-05-31T14:37:40.000Z</time>
      </trkpt>
      <trkpt lat="43.49794" lon="1.53278">
        <ele>134.60000610352</ele>
        <time>2020-05-31T14:37:42.000Z</time>
      </trkpt>
      <trkpt lat="43.49786" lon="1.53288">
        <ele>134.60000610352</ele>
        <time>2020-05-31T14:37:44.000Z</time>
      </trkpt>
      <trkpt lat="43.49782" lon="1.53294">
        <ele>134.60000610352</ele>
        <time>2020-05-31T14:37:45.000Z</time>
      </trkpt>
      <trkpt lat="43.49778" lon="1.533">
        <ele>134.60000610352</ele>
        <time>2020-05-31T14:37:46.000Z</time>
      </trkpt>
      <trkpt lat="43.49771" lon="1.53313">
        <ele>134.60000610352</ele>
        <time>2020-05-31T14:37:48.000Z</time>
      </trkpt>
      <trkpt lat="43.49764" lon="1.53325">
        <ele>134.60000610352</ele>
        <time>2020-05-31T14:37:50.000Z</time>
      </trkpt>
      <trkpt lat="43.49759" lon="1.53336">
        <ele>134.60000610352</ele>
        <time>2020-05-31T14:37:52.000Z</time>
      </trkpt>
      <trkpt lat="43.49753" lon="1.53348">
        <ele>134.60000610352</ele>
        <time>2020-05-31T14:37:54.000Z</time>
      </trkpt>
      <trkpt lat="43.49748" lon="1.53359">
        <ele>134.80000305176</ele>
        <time>2020-05-31T14:37:56.000Z</time>
      </trkpt>
      <trkpt lat="43.49742" lon="1.5337">
        <ele>134.80000305176</ele>
        <time>2020-05-31T14:37:58.000Z</time>
      </trkpt>
      <trkpt lat="43.49736" lon="1.53382">
        <ele>135.19999694824</ele>
        <time>2020-05-31T14:38:00.000Z</time>
      </trkpt>
      <trkpt lat="43.4973" lon="1.53395">
        <ele>135.39999389648</ele>
        <time>2020-05-31T14:38:02.000Z</time>
      </trkpt>
      <trkpt lat="43.49724" lon="1.53407">
        <ele>135.80000305176</ele>
        <time>2020-05-31T14:38:04.000Z</time>
      </trkpt>
      <trkpt lat="43.49718" lon="1.5342">
        <ele>136</ele>
        <time>2020-05-31T14:38:06.000Z</time>
      </trkpt>
      <trkpt lat="43.49711" lon="1.53432">
        <ele>136</ele>
        <time>2020-05-31T14:38:08.000Z</time>
      </trkpt>
      <trkpt lat="43.49704" lon="1.53442">
        <ele>136</ele>
        <time>2020-05-31T14:38:10.000Z</time>
      </trkpt>
      <trkpt lat="43.49697" lon="1.53453">
        <ele>136</ele>
        <time>2020-05-31T14:38:12.000Z</time>
      </trkpt>
      <trkpt lat="43.4969" lon="1.53463">
        <ele>136</ele>
        <time>2020-05-31T14:38:14.000Z</time>
      </trkpt>
      <trkpt lat="43.49683" lon="1.53473">
        <ele>135.60000610352</ele>
        <time>2020-05-31T14:38:16.000Z</time>
      </trkpt>
      <trkpt lat="43.49677" lon="1.53484">
        <ele>135.19999694824</ele>
        <time>2020-05-31T14:38:18.000Z</time>
      </trkpt>
      <trkpt lat="43.49671" lon="1.53494">
        <ele>134.80000305176</ele>
        <time>2020-05-31T14:38:20.000Z</time>
      </trkpt>
      <trkpt lat="43.49667" lon="1.53499">
        <ele>134.80000305176</ele>
        <time>2020-05-31T14:38:21.000Z</time>
      </trkpt>
      <trkpt lat="43.49664" lon="1.53504">
        <ele>134.60000610352</ele>
        <time>2020-05-31T14:38:22.000Z</time>
      </trkpt>
      <trkpt lat="43.49657" lon="1.53513">
        <ele>134.39999389648</ele>
        <time>2020-05-31T14:38:24.000Z</time>
      </trkpt>
      <trkpt lat="43.4965" lon="1.53521">
        <ele>134.39999389648</ele>
        <time>2020-05-31T14:38:26.000Z</time>
      </trkpt>
      <trkpt lat="43.49643" lon="1.53528">
        <ele>134.39999389648</ele>
        <time>2020-05-31T14:38:28.000Z</time>
      </trkpt>
      <trkpt lat="43.49637" lon="1.53535">
        <ele>134.19999694824</ele>
        <time>2020-05-31T14:38:30.000Z</time>
      </trkpt>
      <trkpt lat="43.4963" lon="1.53542">
        <ele>134.19999694824</ele>
        <time>2020-05-31T14:38:32.000Z</time>
      </trkpt>
      <trkpt lat="43.49624" lon="1.53549">
        <ele>134.19999694824</ele>
        <time>2020-05-31T14:38:34.000Z</time>
      </trkpt>
      <trkpt lat="43.49618" lon="1.53554">
        <ele>134.19999694824</ele>
        <time>2020-05-31T14:38:36.000Z</time>
      </trkpt>
      <trkpt lat="43.49614" lon="1.53559">
        <ele>134.19999694824</ele>
        <time>2020-05-31T14:38:38.000Z</time>
      </trkpt>
      <trkpt lat="43.49611" lon="1.53564">
        <ele>134.39999389648</ele>
        <time>2020-05-31T14:38:40.000Z</time>
      </trkpt>
      <trkpt lat="43.49606" lon="1.53569">
        <ele>134.60000610352</ele>
        <time>2020-05-31T14:38:42.000Z</time>
      </trkpt>
      <trkpt lat="43.496" lon="1.53572">
        <ele>135.39999389648</ele>
        <time>2020-05-31T14:38:44.000Z</time>
      </trkpt>
      <trkpt lat="43.49593" lon="1.53576">
        <ele>135.80000305176</ele>
        <time>2020-05-31T14:38:46.000Z</time>
      </trkpt>
      <trkpt lat="43.49585" lon="1.53581">
        <ele>136</ele>
        <time>2020-05-31T14:38:48.000Z</time>
      </trkpt>
      <trkpt lat="43.49575" lon="1.53586">
        <ele>136</ele>
        <time>2020-05-31T14:38:50.000Z</time>
      </trkpt>
      <trkpt lat="43.49565" lon="1.5359">
        <ele>136</ele>
        <time>2020-05-31T14:38:52.000Z</time>
      </trkpt>
      <trkpt lat="43.49555" lon="1.53596">
        <ele>135.80000305176</ele>
        <time>2020-05-31T14:38:54.000Z</time>
      </trkpt>
      <trkpt lat="43.49545" lon="1.536">
        <ele>135.39999389648</ele>
        <time>2020-05-31T14:38:56.000Z</time>
      </trkpt>
      <trkpt lat="43.49535" lon="1.53604">
        <ele>134.39999389648</ele>
        <time>2020-05-31T14:38:58.000Z</time>
      </trkpt>
      <trkpt lat="43.49525" lon="1.53608">
        <ele>134.19999694824</ele>
        <time>2020-05-31T14:39:00.000Z</time>
      </trkpt>
      <trkpt lat="43.49515" lon="1.53611">
        <ele>134</ele>
        <time>2020-05-31T14:39:02.000Z</time>
      </trkpt>
      <trkpt lat="43.49505" lon="1.53614">
        <ele>134</ele>
        <time>2020-05-31T14:39:04.000Z</time>
      </trkpt>
      <trkpt lat="43.49496" lon="1.53618">
        <ele>133.80000305176</ele>
        <time>2020-05-31T14:39:06.000Z</time>
      </trkpt>
      <trkpt lat="43.49486" lon="1.53621">
        <ele>133.80000305176</ele>
        <time>2020-05-31T14:39:08.000Z</time>
      </trkpt>
      <trkpt lat="43.49477" lon="1.53623">
        <ele>133.80000305176</ele>
        <time>2020-05-31T14:39:10.000Z</time>
      </trkpt>
      <trkpt lat="43.49468" lon="1.53626">
        <ele>134</ele>
        <time>2020-05-31T14:39:12.000Z</time>
      </trkpt>
      <trkpt lat="43.4946" lon="1.53629">
        <ele>134</ele>
        <time>2020-05-31T14:39:14.000Z</time>
      </trkpt>
      <trkpt lat="43.49451" lon="1.53631">
        <ele>134.19999694824</ele>
        <time>2020-05-31T14:39:16.000Z</time>
      </trkpt>
      <trkpt lat="43.49442" lon="1.53632">
        <ele>134.19999694824</ele>
        <time>2020-05-31T14:39:18.000Z</time>
      </trkpt>
      <trkpt lat="43.49433" lon="1.53634">
        <ele>134.39999389648</ele>
        <time>2020-05-31T14:39:20.000Z</time>
      </trkpt>
      <trkpt lat="43.49424" lon="1.53636">
        <ele>134.80000305176</ele>
        <time>2020-05-31T14:39:22.000Z</time>
      </trkpt>
      <trkpt lat="43.49415" lon="1.53638">
        <ele>135.60000610352</ele>
        <time>2020-05-31T14:39:24.000Z</time>
      </trkpt>
      <trkpt lat="43.49406" lon="1.53639">
        <ele>136.39999389648</ele>
        <time>2020-05-31T14:39:26.000Z</time>
      </trkpt>
      <trkpt lat="43.49397" lon="1.53641">
        <ele>136.60000610352</ele>
        <time>2020-05-31T14:39:28.000Z</time>
      </trkpt>
      <trkpt lat="43.49392" lon="1.53642">
        <ele>136.80000305176</ele>
        <time>2020-05-31T14:39:29.000Z</time>
      </trkpt>
      <trkpt lat="43.49388" lon="1.53644">
        <ele>136.80000305176</ele>
        <time>2020-05-31T14:39:30.000Z</time>
      </trkpt>
      <trkpt lat="43.49379" lon="1.53645">
        <ele>136.80000305176</ele>
        <time>2020-05-31T14:39:32.000Z</time>
      </trkpt>
      <trkpt lat="43.49369" lon="1.53647">
        <ele>136.80000305176</ele>
        <time>2020-05-31T14:39:34.000Z</time>
      </trkpt>
      <trkpt lat="43.49357" lon="1.5365">
        <ele>136.80000305176</ele>
        <time>2020-05-31T14:39:36.000Z</time>
      </trkpt>
      <trkpt lat="43.49346" lon="1.53652">
        <ele>137</ele>
        <time>2020-05-31T14:39:38.000Z</time>
      </trkpt>
      <trkpt lat="43.49338" lon="1.53653">
        <ele>137</ele>
        <time>2020-05-31T14:39:40.000Z</time>
      </trkpt>
      <trkpt lat="43.49331" lon="1.53653">
        <ele>137</ele>
        <time>2020-05-31T14:39:42.000Z</time>
      </trkpt>
      <trkpt lat="43.49324" lon="1.53653">
        <ele>137.19999694824</ele>
        <time>2020-05-31T14:39:44.000Z</time>
      </trkpt>
      <trkpt lat="43.4932" lon="1.53653">
        <ele>137.39999389648</ele>
        <time>2020-05-31T14:39:45.000Z</time>
      </trkpt>
      <trkpt lat="43.49316" lon="1.53653">
        <ele>137.39999389648</ele>
        <time>2020-05-31T14:39:46.000Z</time>
      </trkpt>
      <trkpt lat="43.49307" lon="1.53654">
        <ele>137.60000610352</ele>
        <time>2020-05-31T14:39:48.000Z</time>
      </trkpt>
      <trkpt lat="43.49296" lon="1.53655">
        <ele>137.80000305176</ele>
        <time>2020-05-31T14:39:50.000Z</time>
      </trkpt>
      <trkpt lat="43.49285" lon="1.53656">
        <ele>137.80000305176</ele>
        <time>2020-05-31T14:39:52.000Z</time>
      </trkpt>
      <trkpt lat="43.49275" lon="1.53657">
        <ele>137.80000305176</ele>
        <time>2020-05-31T14:39:54.000Z</time>
      </trkpt>
      <trkpt lat="43.49264" lon="1.53658">
        <ele>137.80000305176</ele>
        <time>2020-05-31T14:39:56.000Z</time>
      </trkpt>
      <trkpt lat="43.49254" lon="1.53659">
        <ele>137.39999389648</ele>
        <time>2020-05-31T14:39:58.000Z</time>
      </trkpt>
      <trkpt lat="43.49244" lon="1.53658">
        <ele>137</ele>
        <time>2020-05-31T14:40:00.000Z</time>
      </trkpt>
      <trkpt lat="43.49234" lon="1.53658">
        <ele>137</ele>
        <time>2020-05-31T14:40:02.000Z</time>
      </trkpt>
      <trkpt lat="43.49224" lon="1.53657">
        <ele>137</ele>
        <time>2020-05-31T14:40:04.000Z</time>
      </trkpt>
      <trkpt lat="43.49219" lon="1.53656">
        <ele>137</ele>
        <time>2020-05-31T14:40:05.000Z</time>
      </trkpt>
      <trkpt lat="43.49214" lon="1.53656">
        <ele>137</ele>
        <time>2020-05-31T14:40:06.000Z</time>
      </trkpt>
      <trkpt lat="43.49204" lon="1.53655">
        <ele>137</ele>
        <time>2020-05-31T14:40:08.000Z</time>
      </trkpt>
      <trkpt lat="43.49199" lon="1.53655">
        <ele>137.19999694824</ele>
        <time>2020-05-31T14:40:09.000Z</time>
      </trkpt>
      <trkpt lat="43.49195" lon="1.53655">
        <ele>137.60000610352</ele>
        <time>2020-05-31T14:40:10.000Z</time>
      </trkpt>
      <trkpt lat="43.49185" lon="1.53654">
        <ele>137.80000305176</ele>
        <time>2020-05-31T14:40:12.000Z</time>
      </trkpt>
      <trkpt lat="43.49176" lon="1.53653">
        <ele>137.80000305176</ele>
        <time>2020-05-31T14:40:14.000Z</time>
      </trkpt>
      <trkpt lat="43.49166" lon="1.53652">
        <ele>137.80000305176</ele>
        <time>2020-05-31T14:40:16.000Z</time>
      </trkpt>
      <trkpt lat="43.49156" lon="1.5365">
        <ele>137.80000305176</ele>
        <time>2020-05-31T14:40:18.000Z</time>
      </trkpt>
      <trkpt lat="43.49147" lon="1.53648">
        <ele>137.80000305176</ele>
        <time>2020-05-31T14:40:20.000Z</time>
      </trkpt>
      <trkpt lat="43.49136" lon="1.53646">
        <ele>137.39999389648</ele>
        <time>2020-05-31T14:40:22.000Z</time>
      </trkpt>
      <trkpt lat="43.49125" lon="1.53644">
        <ele>137.39999389648</ele>
        <time>2020-05-31T14:40:24.000Z</time>
      </trkpt>
      <trkpt lat="43.49113" lon="1.53639">
        <ele>137.19999694824</ele>
        <time>2020-05-31T14:40:26.000Z</time>
      </trkpt>
      <trkpt lat="43.49101" lon="1.53635">
        <ele>137.19999694824</ele>
        <time>2020-05-31T14:40:28.000Z</time>
      </trkpt>
      <trkpt lat="43.49088" lon="1.53631">
        <ele>137.19999694824</ele>
        <time>2020-05-31T14:40:30.000Z</time>
      </trkpt>
      <trkpt lat="43.49077" lon="1.53626">
        <ele>136.80000305176</ele>
        <time>2020-05-31T14:40:32.000Z</time>
      </trkpt>
      <trkpt lat="43.49065" lon="1.53623">
        <ele>136.60000610352</ele>
        <time>2020-05-31T14:40:34.000Z</time>
      </trkpt>
      <trkpt lat="43.49054" lon="1.53621">
        <ele>136.19999694824</ele>
        <time>2020-05-31T14:40:36.000Z</time>
      </trkpt>
      <trkpt lat="43.49043" lon="1.53619">
        <ele>136.19999694824</ele>
        <time>2020-05-31T14:40:38.000Z</time>
      </trkpt>
      <trkpt lat="43.49037" lon="1.53619">
        <ele>136.19999694824</ele>
        <time>2020-05-31T14:40:39.000Z</time>
      </trkpt>
      <trkpt lat="43.49032" lon="1.5362">
        <ele>136.39999389648</ele>
        <time>2020-05-31T14:40:40.000Z</time>
      </trkpt>
      <trkpt lat="43.49021" lon="1.53623">
        <ele>136.19999694824</ele>
        <time>2020-05-31T14:40:42.000Z</time>
      </trkpt>
      <trkpt lat="43.4901" lon="1.53627">
        <ele>136.19999694824</ele>
        <time>2020-05-31T14:40:44.000Z</time>
      </trkpt>
      <trkpt lat="43.49002" lon="1.53633">
        <ele>136.19999694824</ele>
        <time>2020-05-31T14:40:46.000Z</time>
      </trkpt>
      <trkpt lat="43.48994" lon="1.5364">
        <ele>136.39999389648</ele>
        <time>2020-05-31T14:40:48.000Z</time>
      </trkpt>
      <trkpt lat="43.48988" lon="1.53647">
        <ele>136.60000610352</ele>
        <time>2020-05-31T14:40:50.000Z</time>
      </trkpt>
      <trkpt lat="43.48982" lon="1.53656">
        <ele>136.80000305176</ele>
        <time>2020-05-31T14:40:52.000Z</time>
      </trkpt>
      <trkpt lat="43.48979" lon="1.53661">
        <ele>136.80000305176</ele>
        <time>2020-05-31T14:40:53.000Z</time>
      </trkpt>
      <trkpt lat="43.48976" lon="1.53667">
        <ele>137</ele>
        <time>2020-05-31T14:40:54.000Z</time>
      </trkpt>
      <trkpt lat="43.48972" lon="1.53679">
        <ele>137.19999694824</ele>
        <time>2020-05-31T14:40:56.000Z</time>
      </trkpt>
      <trkpt lat="43.48969" lon="1.53693">
        <ele>137.39999389648</ele>
        <time>2020-05-31T14:40:58.000Z</time>
      </trkpt>
      <trkpt lat="43.48966" lon="1.53707">
        <ele>137.60000610352</ele>
        <time>2020-05-31T14:41:00.000Z</time>
      </trkpt>
      <trkpt lat="43.48964" lon="1.53721">
        <ele>137.60000610352</ele>
        <time>2020-05-31T14:41:02.000Z</time>
      </trkpt>
      <trkpt lat="43.48963" lon="1.53736">
        <ele>137.80000305176</ele>
        <time>2020-05-31T14:41:04.000Z</time>
      </trkpt>
      <trkpt lat="43.48963" lon="1.5375">
        <ele>137.60000610352</ele>
        <time>2020-05-31T14:41:06.000Z</time>
      </trkpt>
      <trkpt lat="43.48963" lon="1.53766">
        <ele>137.60000610352</ele>
        <time>2020-05-31T14:41:08.000Z</time>
      </trkpt>
      <trkpt lat="43.48963" lon="1.53781">
        <ele>137.60000610352</ele>
        <time>2020-05-31T14:41:10.000Z</time>
      </trkpt>
      <trkpt lat="43.48963" lon="1.53795">
        <ele>137.60000610352</ele>
        <time>2020-05-31T14:41:12.000Z</time>
      </trkpt>
      <trkpt lat="43.48964" lon="1.53802">
        <ele>137.60000610352</ele>
        <time>2020-05-31T14:41:13.000Z</time>
      </trkpt>
      <trkpt lat="43.48965" lon="1.5381">
        <ele>137.60000610352</ele>
        <time>2020-05-31T14:41:14.000Z</time>
      </trkpt>
      <trkpt lat="43.48967" lon="1.53824">
        <ele>137.80000305176</ele>
        <time>2020-05-31T14:41:16.000Z</time>
      </trkpt>
      <trkpt lat="43.48969" lon="1.53839">
        <ele>137.80000305176</ele>
        <time>2020-05-31T14:41:18.000Z</time>
      </trkpt>
      <trkpt lat="43.48971" lon="1.53854">
        <ele>137.80000305176</ele>
        <time>2020-05-31T14:41:20.000Z</time>
      </trkpt>
      <trkpt lat="43.48972" lon="1.53862">
        <ele>137.80000305176</ele>
        <time>2020-05-31T14:41:21.000Z</time>
      </trkpt>
      <trkpt lat="43.48973" lon="1.5387">
        <ele>137.80000305176</ele>
        <time>2020-05-31T14:41:22.000Z</time>
      </trkpt>
      <trkpt lat="43.48974" lon="1.53887">
        <ele>137.80000305176</ele>
        <time>2020-05-31T14:41:24.000Z</time>
      </trkpt>
      <trkpt lat="43.48976" lon="1.53903">
        <ele>138</ele>
        <time>2020-05-31T14:41:26.000Z</time>
      </trkpt>
      <trkpt lat="43.48977" lon="1.5392">
        <ele>138</ele>
        <time>2020-05-31T14:41:28.000Z</time>
      </trkpt>
      <trkpt lat="43.48979" lon="1.53935">
        <ele>138</ele>
        <time>2020-05-31T14:41:30.000Z</time>
      </trkpt>
      <trkpt lat="43.48979" lon="1.5395">
        <ele>138</ele>
        <time>2020-05-31T14:41:32.000Z</time>
      </trkpt>
      <trkpt lat="43.4898" lon="1.53965">
        <ele>138</ele>
        <time>2020-05-31T14:41:34.000Z</time>
      </trkpt>
      <trkpt lat="43.4898" lon="1.5398">
        <ele>137.60000610352</ele>
        <time>2020-05-31T14:41:36.000Z</time>
      </trkpt>
      <trkpt lat="43.48979" lon="1.53995">
        <ele>137.19999694824</ele>
        <time>2020-05-31T14:41:38.000Z</time>
      </trkpt>
      <trkpt lat="43.48978" lon="1.54009">
        <ele>137.19999694824</ele>
        <time>2020-05-31T14:41:40.000Z</time>
      </trkpt>
      <trkpt lat="43.48977" lon="1.54024">
        <ele>137</ele>
        <time>2020-05-31T14:41:42.000Z</time>
      </trkpt>
      <trkpt lat="43.48977" lon="1.54037">
        <ele>137</ele>
        <time>2020-05-31T14:41:44.000Z</time>
      </trkpt>
      <trkpt lat="43.48977" lon="1.54051">
        <ele>137</ele>
        <time>2020-05-31T14:41:46.000Z</time>
      </trkpt>
      <trkpt lat="43.48976" lon="1.54064">
        <ele>137</ele>
        <time>2020-05-31T14:41:48.000Z</time>
      </trkpt>
      <trkpt lat="43.48976" lon="1.54078">
        <ele>137</ele>
        <time>2020-05-31T14:41:50.000Z</time>
      </trkpt>
      <trkpt lat="43.48975" lon="1.54092">
        <ele>137</ele>
        <time>2020-05-31T14:41:52.000Z</time>
      </trkpt>
      <trkpt lat="43.48974" lon="1.54106">
        <ele>137.19999694824</ele>
        <time>2020-05-31T14:41:54.000Z</time>
      </trkpt>
      <trkpt lat="43.48973" lon="1.5412">
        <ele>137.19999694824</ele>
        <time>2020-05-31T14:41:56.000Z</time>
      </trkpt>
      <trkpt lat="43.48971" lon="1.54133">
        <ele>137.39999389648</ele>
        <time>2020-05-31T14:41:58.000Z</time>
      </trkpt>
      <trkpt lat="43.48969" lon="1.54146">
        <ele>137.39999389648</ele>
        <time>2020-05-31T14:42:00.000Z</time>
      </trkpt>
      <trkpt lat="43.48967" lon="1.54159">
        <ele>137.39999389648</ele>
        <time>2020-05-31T14:42:02.000Z</time>
      </trkpt>
      <trkpt lat="43.48964" lon="1.54172">
        <ele>137.39999389648</ele>
        <time>2020-05-31T14:42:04.000Z</time>
      </trkpt>
      <trkpt lat="43.48961" lon="1.54184">
        <ele>137.39999389648</ele>
        <time>2020-05-31T14:42:06.000Z</time>
      </trkpt>
      <trkpt lat="43.48958" lon="1.54197">
        <ele>137.39999389648</ele>
        <time>2020-05-31T14:42:08.000Z</time>
      </trkpt>
      <trkpt lat="43.48954" lon="1.5421">
        <ele>137.39999389648</ele>
        <time>2020-05-31T14:42:10.000Z</time>
      </trkpt>
      <trkpt lat="43.4895" lon="1.54224">
        <ele>137.39999389648</ele>
        <time>2020-05-31T14:42:12.000Z</time>
      </trkpt>
      <trkpt lat="43.48946" lon="1.54235">
        <ele>137.19999694824</ele>
        <time>2020-05-31T14:42:14.000Z</time>
      </trkpt>
      <trkpt lat="43.48944" lon="1.5424">
        <ele>137.19999694824</ele>
        <time>2020-05-31T14:42:15.000Z</time>
      </trkpt>
      <trkpt lat="43.48941" lon="1.54246">
        <ele>137.19999694824</ele>
        <time>2020-05-31T14:42:16.000Z</time>
      </trkpt>
      <trkpt lat="43.48937" lon="1.54256">
        <ele>137.19999694824</ele>
        <time>2020-05-31T14:42:18.000Z</time>
      </trkpt>
      <trkpt lat="43.48932" lon="1.54264">
        <ele>137</ele>
        <time>2020-05-31T14:42:20.000Z</time>
      </trkpt>
      <trkpt lat="43.48927" lon="1.54272">
        <ele>136.80000305176</ele>
        <time>2020-05-31T14:42:22.000Z</time>
      </trkpt>
      <trkpt lat="43.48921" lon="1.54281">
        <ele>136.60000610352</ele>
        <time>2020-05-31T14:42:24.000Z</time>
      </trkpt>
      <trkpt lat="43.48914" lon="1.5429">
        <ele>136.60000610352</ele>
        <time>2020-05-31T14:42:26.000Z</time>
      </trkpt>
      <trkpt lat="43.48907" lon="1.543">
        <ele>136.60000610352</ele>
        <time>2020-05-31T14:42:28.000Z</time>
      </trkpt>
      <trkpt lat="43.489" lon="1.5431">
        <ele>136.60000610352</ele>
        <time>2020-05-31T14:42:30.000Z</time>
      </trkpt>
      <trkpt lat="43.48894" lon="1.54319">
        <ele>136.60000610352</ele>
        <time>2020-05-31T14:42:32.000Z</time>
      </trkpt>
      <trkpt lat="43.48887" lon="1.54327">
        <ele>136.60000610352</ele>
        <time>2020-05-31T14:42:34.000Z</time>
      </trkpt>
      <trkpt lat="43.4888" lon="1.54336">
        <ele>136.60000610352</ele>
        <time>2020-05-31T14:42:36.000Z</time>
      </trkpt>
      <trkpt lat="43.48873" lon="1.54346">
        <ele>136.60000610352</ele>
        <time>2020-05-31T14:42:38.000Z</time>
      </trkpt>
      <trkpt lat="43.48865" lon="1.54357">
        <ele>136.39999389648</ele>
        <time>2020-05-31T14:42:40.000Z</time>
      </trkpt>
      <trkpt lat="43.48857" lon="1.54367">
        <ele>136.39999389648</ele>
        <time>2020-05-31T14:42:42.000Z</time>
      </trkpt>
      <trkpt lat="43.48854" lon="1.54373">
        <ele>136.39999389648</ele>
        <time>2020-05-31T14:42:43.000Z</time>
      </trkpt>
      <trkpt lat="43.4885" lon="1.54377">
        <ele>136.19999694824</ele>
        <time>2020-05-31T14:42:44.000Z</time>
      </trkpt>
      <trkpt lat="43.48844" lon="1.54388">
        <ele>136.19999694824</ele>
        <time>2020-05-31T14:42:46.000Z</time>
      </trkpt>
      <trkpt lat="43.48837" lon="1.54398">
        <ele>136.19999694824</ele>
        <time>2020-05-31T14:42:48.000Z</time>
      </trkpt>
      <trkpt lat="43.4883" lon="1.54407">
        <ele>136.19999694824</ele>
        <time>2020-05-31T14:42:50.000Z</time>
      </trkpt>
      <trkpt lat="43.48824" lon="1.54417">
        <ele>136</ele>
        <time>2020-05-31T14:42:52.000Z</time>
      </trkpt>
      <trkpt lat="43.48818" lon="1.54426">
        <ele>135.80000305176</ele>
        <time>2020-05-31T14:42:54.000Z</time>
      </trkpt>
      <trkpt lat="43.48811" lon="1.54435">
        <ele>136</ele>
        <time>2020-05-31T14:42:56.000Z</time>
      </trkpt>
      <trkpt lat="43.48805" lon="1.54445">
        <ele>136.19999694824</ele>
        <time>2020-05-31T14:42:58.000Z</time>
      </trkpt>
      <trkpt lat="43.48799" lon="1.54456">
        <ele>136.39999389648</ele>
        <time>2020-05-31T14:43:00.000Z</time>
      </trkpt>
      <trkpt lat="43.48793" lon="1.54465">
        <ele>136.39999389648</ele>
        <time>2020-05-31T14:43:02.000Z</time>
      </trkpt>
      <trkpt lat="43.48787" lon="1.54474">
        <ele>136.39999389648</ele>
        <time>2020-05-31T14:43:04.000Z</time>
      </trkpt>
      <trkpt lat="43.4878" lon="1.54485">
        <ele>136.60000610352</ele>
        <time>2020-05-31T14:43:06.000Z</time>
      </trkpt>
      <trkpt lat="43.48772" lon="1.54498">
        <ele>136.60000610352</ele>
        <time>2020-05-31T14:43:08.000Z</time>
      </trkpt>
      <trkpt lat="43.48763" lon="1.5451">
        <ele>136.60000610352</ele>
        <time>2020-05-31T14:43:10.000Z</time>
      </trkpt>
      <trkpt lat="43.48755" lon="1.5452">
        <ele>136.60000610352</ele>
        <time>2020-05-31T14:43:12.000Z</time>
      </trkpt>
      <trkpt lat="43.48746" lon="1.54529">
        <ele>136.39999389648</ele>
        <time>2020-05-31T14:43:14.000Z</time>
      </trkpt>
      <trkpt lat="43.48737" lon="1.54539">
        <ele>135.60000610352</ele>
        <time>2020-05-31T14:43:16.000Z</time>
      </trkpt>
      <trkpt lat="43.48733" lon="1.54544">
        <ele>135.19999694824</ele>
        <time>2020-05-31T14:43:17.000Z</time>
      </trkpt>
      <trkpt lat="43.48728" lon="1.54547">
        <ele>135</ele>
        <time>2020-05-31T14:43:18.000Z</time>
      </trkpt>
      <trkpt lat="43.48719" lon="1.54557">
        <ele>134.80000305176</ele>
        <time>2020-05-31T14:43:20.000Z</time>
      </trkpt>
      <trkpt lat="43.4871" lon="1.54565">
        <ele>134.60000610352</ele>
        <time>2020-05-31T14:43:22.000Z</time>
      </trkpt>
      <trkpt lat="43.487" lon="1.54574">
        <ele>134.60000610352</ele>
        <time>2020-05-31T14:43:24.000Z</time>
      </trkpt>
      <trkpt lat="43.48689" lon="1.54581">
        <ele>134.39999389648</ele>
        <time>2020-05-31T14:43:26.000Z</time>
      </trkpt>
      <trkpt lat="43.48679" lon="1.54588">
        <ele>134.19999694824</ele>
        <time>2020-05-31T14:43:28.000Z</time>
      </trkpt>
      <trkpt lat="43.48668" lon="1.54596">
        <ele>134.19999694824</ele>
        <time>2020-05-31T14:43:30.000Z</time>
      </trkpt>
      <trkpt lat="43.48657" lon="1.54601">
        <ele>134.19999694824</ele>
        <time>2020-05-31T14:43:32.000Z</time>
      </trkpt>
      <trkpt lat="43.48648" lon="1.54605">
        <ele>134.19999694824</ele>
        <time>2020-05-31T14:43:34.000Z</time>
      </trkpt>
      <trkpt lat="43.48637" lon="1.54611">
        <ele>134.39999389648</ele>
        <time>2020-05-31T14:43:36.000Z</time>
      </trkpt>
      <trkpt lat="43.48627" lon="1.54615">
        <ele>134.19999694824</ele>
        <time>2020-05-31T14:43:38.000Z</time>
      </trkpt>
      <trkpt lat="43.48621" lon="1.54616">
        <ele>134.19999694824</ele>
        <time>2020-05-31T14:43:39.000Z</time>
      </trkpt>
      <trkpt lat="43.48616" lon="1.54618">
        <ele>134.19999694824</ele>
        <time>2020-05-31T14:43:40.000Z</time>
      </trkpt>
      <trkpt lat="43.48605" lon="1.54621">
        <ele>134.39999389648</ele>
        <time>2020-05-31T14:43:42.000Z</time>
      </trkpt>
      <trkpt lat="43.486" lon="1.54623">
        <ele>134.60000610352</ele>
        <time>2020-05-31T14:43:43.000Z</time>
      </trkpt>
      <trkpt lat="43.48595" lon="1.54625">
        <ele>134.60000610352</ele>
        <time>2020-05-31T14:43:44.000Z</time>
      </trkpt>
      <trkpt lat="43.48586" lon="1.54627">
        <ele>134.60000610352</ele>
        <time>2020-05-31T14:43:46.000Z</time>
      </trkpt>
      <trkpt lat="43.48581" lon="1.54628">
        <ele>134.80000305176</ele>
        <time>2020-05-31T14:43:47.000Z</time>
      </trkpt>
      <trkpt lat="43.48576" lon="1.54628">
        <ele>135</ele>
        <time>2020-05-31T14:43:48.000Z</time>
      </trkpt>
      <trkpt lat="43.48566" lon="1.54628">
        <ele>135</ele>
        <time>2020-05-31T14:43:50.000Z</time>
      </trkpt>
      <trkpt lat="43.48556" lon="1.5463">
        <ele>135</ele>
        <time>2020-05-31T14:43:52.000Z</time>
      </trkpt>
      <trkpt lat="43.48551" lon="1.54631">
        <ele>135.19999694824</ele>
        <time>2020-05-31T14:43:53.000Z</time>
      </trkpt>
      <trkpt lat="43.48546" lon="1.54631">
        <ele>135.19999694824</ele>
        <time>2020-05-31T14:43:54.000Z</time>
      </trkpt>
      <trkpt lat="43.48542" lon="1.54631">
        <ele>135.39999389648</ele>
        <time>2020-05-31T14:43:55.000Z</time>
      </trkpt>
      <trkpt lat="43.48536" lon="1.54633">
        <ele>135.60000610352</ele>
        <time>2020-05-31T14:43:56.000Z</time>
      </trkpt>
      <trkpt lat="43.48527" lon="1.54636">
        <ele>135.80000305176</ele>
        <time>2020-05-31T14:43:58.000Z</time>
      </trkpt>
      <trkpt lat="43.48518" lon="1.54638">
        <ele>135.80000305176</ele>
        <time>2020-05-31T14:44:00.000Z</time>
      </trkpt>
      <trkpt lat="43.48514" lon="1.54638">
        <ele>135.80000305176</ele>
        <time>2020-05-31T14:44:01.000Z</time>
      </trkpt>
      <trkpt lat="43.4851" lon="1.54638">
        <ele>136</ele>
        <time>2020-05-31T14:44:02.000Z</time>
      </trkpt>
      <trkpt lat="43.48502" lon="1.5464">
        <ele>136</ele>
        <time>2020-05-31T14:44:04.000Z</time>
      </trkpt>
      <trkpt lat="43.48493" lon="1.54644">
        <ele>136</ele>
        <time>2020-05-31T14:44:06.000Z</time>
      </trkpt>
      <trkpt lat="43.48485" lon="1.54648">
        <ele>136</ele>
        <time>2020-05-31T14:44:08.000Z</time>
      </trkpt>
      <trkpt lat="43.48477" lon="1.54653">
        <ele>136.19999694824</ele>
        <time>2020-05-31T14:44:10.000Z</time>
      </trkpt>
      <trkpt lat="43.48473" lon="1.54655">
        <ele>136.60000610352</ele>
        <time>2020-05-31T14:44:11.000Z</time>
      </trkpt>
      <trkpt lat="43.4847" lon="1.54657">
        <ele>136.80000305176</ele>
        <time>2020-05-31T14:44:12.000Z</time>
      </trkpt>
      <trkpt lat="43.48464" lon="1.5466">
        <ele>137.19999694824</ele>
        <time>2020-05-31T14:44:14.000Z</time>
      </trkpt>
      <trkpt lat="43.48458" lon="1.54664">
        <ele>137.39999389648</ele>
        <time>2020-05-31T14:44:16.000Z</time>
      </trkpt>
      <trkpt lat="43.48452" lon="1.54667">
        <ele>137.39999389648</ele>
        <time>2020-05-31T14:44:18.000Z</time>
      </trkpt>
      <trkpt lat="43.48448" lon="1.5467">
        <ele>137.60000610352</ele>
        <time>2020-05-31T14:44:20.000Z</time>
      </trkpt>
      <trkpt lat="43.48446" lon="1.54675">
        <ele>138.60000610352</ele>
        <time>2020-05-31T14:51:57.000Z</time>
      </trkpt>
      <trkpt lat="43.48448" lon="1.54673">
        <ele>138.60000610352</ele>
        <time>2020-05-31T14:52:00.000Z</time>
      </trkpt>
      <trkpt lat="43.4849" lon="1.54655">
        <ele>138</ele>
        <time>2020-05-31T14:52:13.000Z</time>
      </trkpt>
      <trkpt lat="43.48504" lon="1.54651">
        <ele>138</ele>
        <time>2020-05-31T14:52:16.000Z</time>
      </trkpt>
      <trkpt lat="43.48556" lon="1.54642">
        <ele>136.80000305176</ele>
        <time>2020-05-31T14:52:25.000Z</time>
      </trkpt>
      <trkpt lat="43.48611" lon="1.54631">
        <ele>136.60000610352</ele>
        <time>2020-05-31T14:52:34.000Z</time>
      </trkpt>
      <trkpt lat="43.48659" lon="1.54612">
        <ele>137</ele>
        <time>2020-05-31T14:52:44.000Z</time>
      </trkpt>
      <trkpt lat="43.48707" lon="1.54578">
        <ele>137.19999694824</ele>
        <time>2020-05-31T14:52:53.000Z</time>
      </trkpt>
      <trkpt lat="43.48754" lon="1.54528">
        <ele>136.80000305176</ele>
        <time>2020-05-31T14:53:02.000Z</time>
      </trkpt>
      <trkpt lat="43.48774" lon="1.54501">
        <ele>137</ele>
        <time>2020-05-31T14:53:07.000Z</time>
      </trkpt>
      <trkpt lat="43.48812" lon="1.54444">
        <ele>137.39999389648</ele>
        <time>2020-05-31T14:53:16.000Z</time>
      </trkpt>
      <trkpt lat="43.48851" lon="1.54386">
        <ele>137.19999694824</ele>
        <time>2020-05-31T14:53:24.000Z</time>
      </trkpt>
      <trkpt lat="43.48892" lon="1.54333">
        <ele>136.60000610352</ele>
        <time>2020-05-31T14:53:33.000Z</time>
      </trkpt>
      <trkpt lat="43.48931" lon="1.54276">
        <ele>136.60000610352</ele>
        <time>2020-05-31T14:53:42.000Z</time>
      </trkpt>
      <trkpt lat="43.48963" lon="1.54213">
        <ele>136.19999694824</ele>
        <time>2020-05-31T14:53:51.000Z</time>
      </trkpt>
      <trkpt lat="43.48975" lon="1.5417">
        <ele>136.60000610352</ele>
        <time>2020-05-31T14:53:57.000Z</time>
      </trkpt>
      <trkpt lat="43.48978" lon="1.54144">
        <ele>137.19999694824</ele>
        <time>2020-05-31T14:54:00.000Z</time>
      </trkpt>
      <trkpt lat="43.48982" lon="1.54057">
        <ele>137.39999389648</ele>
        <time>2020-05-31T14:54:09.000Z</time>
      </trkpt>
      <trkpt lat="43.48984" lon="1.53976">
        <ele>137</ele>
        <time>2020-05-31T14:54:17.000Z</time>
      </trkpt>
      <trkpt lat="43.48977" lon="1.53894">
        <ele>136.80000305176</ele>
        <time>2020-05-31T14:54:26.000Z</time>
      </trkpt>
      <trkpt lat="43.48969" lon="1.53813">
        <ele>137.19999694824</ele>
        <time>2020-05-31T14:54:36.000Z</time>
      </trkpt>
      <trkpt lat="43.48965" lon="1.53753">
        <ele>137.60000610352</ele>
        <time>2020-05-31T14:54:43.000Z</time>
      </trkpt>
      <trkpt lat="43.48971" lon="1.53697">
        <ele>137.60000610352</ele>
        <time>2020-05-31T14:54:49.000Z</time>
      </trkpt>
      <trkpt lat="43.48989" lon="1.53656">
        <ele>137.60000610352</ele>
        <time>2020-05-31T14:54:54.000Z</time>
      </trkpt>
      <trkpt lat="43.4902" lon="1.5363">
        <ele>137</ele>
        <time>2020-05-31T14:54:59.000Z</time>
      </trkpt>
      <trkpt lat="43.49027" lon="1.53627">
        <ele>136.80000305176</ele>
        <time>2020-05-31T14:55:00.000Z</time>
      </trkpt>
      <trkpt lat="43.49034" lon="1.53625">
        <ele>136.60000610352</ele>
        <time>2020-05-31T14:55:01.000Z</time>
      </trkpt>
      <trkpt lat="43.49063" lon="1.53628">
        <ele>135.80000305176</ele>
        <time>2020-05-31T14:55:05.000Z</time>
      </trkpt>
      <trkpt lat="43.4912" lon="1.53646">
        <ele>134.80000305176</ele>
        <time>2020-05-31T14:55:13.000Z</time>
      </trkpt>
      <trkpt lat="43.49179" lon="1.53658">
        <ele>135.39999389648</ele>
        <time>2020-05-31T14:55:22.000Z</time>
      </trkpt>
      <trkpt lat="43.49237" lon="1.53663">
        <ele>136.60000610352</ele>
        <time>2020-05-31T14:55:31.000Z</time>
      </trkpt>
      <trkpt lat="43.49258" lon="1.53664">
        <ele>136.80000305176</ele>
        <time>2020-05-31T14:55:34.000Z</time>
      </trkpt>
      <trkpt lat="43.49315" lon="1.5366">
        <ele>137.19999694824</ele>
        <time>2020-05-31T14:55:43.000Z</time>
      </trkpt>
      <trkpt lat="43.49371" lon="1.53655">
        <ele>136.60000610352</ele>
        <time>2020-05-31T14:55:51.000Z</time>
      </trkpt>
      <trkpt lat="43.4943" lon="1.53639">
        <ele>136.19999694824</ele>
        <time>2020-05-31T14:56:00.000Z</time>
      </trkpt>
      <trkpt lat="43.49488" lon="1.53623">
        <ele>136.80000305176</ele>
        <time>2020-05-31T14:56:08.000Z</time>
      </trkpt>
      <trkpt lat="43.49546" lon="1.53602">
        <ele>136.60000610352</ele>
        <time>2020-05-31T14:56:16.000Z</time>
      </trkpt>
      <trkpt lat="43.49604" lon="1.53574">
        <ele>136.60000610352</ele>
        <time>2020-05-31T14:56:29.000Z</time>
      </trkpt>
      <trkpt lat="43.49607" lon="1.53571">
        <ele>136.60000610352</ele>
        <time>2020-05-31T14:56:30.000Z</time>
      </trkpt>
      <trkpt lat="43.4962" lon="1.53557">
        <ele>137.39999389648</ele>
        <time>2020-05-31T14:56:34.000Z</time>
      </trkpt>
      <trkpt lat="43.49666" lon="1.53508">
        <ele>137.39999389648</ele>
        <time>2020-05-31T14:56:43.000Z</time>
      </trkpt>
      <trkpt lat="43.49703" lon="1.53453">
        <ele>137.19999694824</ele>
        <time>2020-05-31T14:56:51.000Z</time>
      </trkpt>
      <trkpt lat="43.49716" lon="1.53432">
        <ele>137</ele>
        <time>2020-05-31T14:56:54.000Z</time>
      </trkpt>
      <trkpt lat="43.49751" lon="1.53371">
        <ele>136.60000610352</ele>
        <time>2020-05-31T14:57:02.000Z</time>
      </trkpt>
      <trkpt lat="43.49785" lon="1.53313">
        <ele>136.39999389648</ele>
        <time>2020-05-31T14:57:10.000Z</time>
      </trkpt>
      <trkpt lat="43.49821" lon="1.53261">
        <ele>136.60000610352</ele>
        <time>2020-05-31T14:57:18.000Z</time>
      </trkpt>
      <trkpt lat="43.49833" lon="1.53244">
        <ele>136.60000610352</ele>
        <time>2020-05-31T14:57:21.000Z</time>
      </trkpt>
      <trkpt lat="43.49877" lon="1.53192">
        <ele>136.60000610352</ele>
        <time>2020-05-31T14:57:30.000Z</time>
      </trkpt>
      <trkpt lat="43.49908" lon="1.53162">
        <ele>136.39999389648</ele>
        <time>2020-05-31T14:57:36.000Z</time>
      </trkpt>
      <trkpt lat="43.4995" lon="1.53123">
        <ele>137.19999694824</ele>
        <time>2020-05-31T14:57:44.000Z</time>
      </trkpt>
      <trkpt lat="43.49999" lon="1.53079">
        <ele>137.60000610352</ele>
        <time>2020-05-31T14:57:52.000Z</time>
      </trkpt>
      <trkpt lat="43.5004" lon="1.5303">
        <ele>137.39999389648</ele>
        <time>2020-05-31T14:58:00.000Z</time>
      </trkpt>
      <trkpt lat="43.50087" lon="1.52971">
        <ele>136.60000610352</ele>
        <time>2020-05-31T14:58:09.000Z</time>
      </trkpt>
      <trkpt lat="43.5013" lon="1.52922">
        <ele>136.39999389648</ele>
        <time>2020-05-31T14:58:18.000Z</time>
      </trkpt>
      <trkpt lat="43.50143" lon="1.5291">
        <ele>136.39999389648</ele>
        <time>2020-05-31T14:58:21.000Z</time>
      </trkpt>
      <trkpt lat="43.50189" lon="1.52874">
        <ele>136.60000610352</ele>
        <time>2020-05-31T14:58:30.000Z</time>
      </trkpt>
      <trkpt lat="43.50232" lon="1.52835">
        <ele>136.60000610352</ele>
        <time>2020-05-31T14:58:39.000Z</time>
      </trkpt>
      <trkpt lat="43.50242" lon="1.52826">
        <ele>136.60000610352</ele>
        <time>2020-05-31T14:58:41.000Z</time>
      </trkpt>
      <trkpt lat="43.50254" lon="1.52815">
        <ele>136.60000610352</ele>
        <time>2020-05-31T14:58:44.000Z</time>
      </trkpt>
      <trkpt lat="43.50285" lon="1.52783">
        <ele>137</ele>
        <time>2020-05-31T14:58:50.000Z</time>
      </trkpt>
      <trkpt lat="43.50327" lon="1.52733">
        <ele>136.80000305176</ele>
        <time>2020-05-31T14:58:59.000Z</time>
      </trkpt>
      <trkpt lat="43.50369" lon="1.52668">
        <ele>136.60000610352</ele>
        <time>2020-05-31T14:59:08.000Z</time>
      </trkpt>
      <trkpt lat="43.50382" lon="1.52633">
        <ele>136.19999694824</ele>
        <time>2020-05-31T14:59:13.000Z</time>
      </trkpt>
      <trkpt lat="43.50384" lon="1.52625">
        <ele>136.19999694824</ele>
        <time>2020-05-31T14:59:14.000Z</time>
      </trkpt>
      <trkpt lat="43.50389" lon="1.52602">
        <ele>136.19999694824</ele>
        <time>2020-05-31T14:59:17.000Z</time>
      </trkpt>
      <trkpt lat="43.50409" lon="1.5252">
        <ele>136</ele>
        <time>2020-05-31T14:59:26.000Z</time>
      </trkpt>
      <trkpt lat="43.50413" lon="1.52501">
        <ele>136</ele>
        <time>2020-05-31T14:59:28.000Z</time>
      </trkpt>
      <trkpt lat="43.50418" lon="1.52485">
        <ele>136</ele>
        <time>2020-05-31T14:59:30.000Z</time>
      </trkpt>
      <trkpt lat="43.50428" lon="1.52414">
        <ele>136</ele>
        <time>2020-05-31T14:59:38.000Z</time>
      </trkpt>
      <trkpt lat="43.50427" lon="1.52354">
        <ele>136.19999694824</ele>
        <time>2020-05-31T14:59:44.000Z</time>
      </trkpt>
      <trkpt lat="43.50431" lon="1.52307">
        <ele>136</ele>
        <time>2020-05-31T14:59:49.000Z</time>
      </trkpt>
      <trkpt lat="43.50433" lon="1.52229">
        <ele>136</ele>
        <time>2020-05-31T14:59:58.000Z</time>
      </trkpt>
      <trkpt lat="43.50437" lon="1.52213">
        <ele>136</ele>
        <time>2020-05-31T15:00:00.000Z</time>
      </trkpt>
      <trkpt lat="43.50449" lon="1.52184">
        <ele>136.19999694824</ele>
        <time>2020-05-31T15:00:04.000Z</time>
      </trkpt>
      <trkpt lat="43.50488" lon="1.52129">
        <ele>136.19999694824</ele>
        <time>2020-05-31T15:00:13.000Z</time>
      </trkpt>
      <trkpt lat="43.50527" lon="1.52096">
        <ele>135.80000305176</ele>
        <time>2020-05-31T15:00:21.000Z</time>
      </trkpt>
      <trkpt lat="43.50577" lon="1.52083">
        <ele>135.39999389648</ele>
        <time>2020-05-31T15:00:29.000Z</time>
      </trkpt>
      <trkpt lat="43.50635" lon="1.52073">
        <ele>135</ele>
        <time>2020-05-31T15:00:38.000Z</time>
      </trkpt>
      <trkpt lat="43.50686" lon="1.52063">
        <ele>135.39999389648</ele>
        <time>2020-05-31T15:00:46.000Z</time>
      </trkpt>
      <trkpt lat="43.50732" lon="1.52034">
        <ele>135.60000610352</ele>
        <time>2020-05-31T15:00:55.000Z</time>
      </trkpt>
      <trkpt lat="43.50777" lon="1.51991">
        <ele>135.60000610352</ele>
        <time>2020-05-31T15:01:05.000Z</time>
      </trkpt>
      <trkpt lat="43.5079" lon="1.51976">
        <ele>135.60000610352</ele>
        <time>2020-05-31T15:01:08.000Z</time>
      </trkpt>
      <trkpt lat="43.50838" lon="1.51923">
        <ele>135.80000305176</ele>
        <time>2020-05-31T15:01:19.000Z</time>
      </trkpt>
      <trkpt lat="43.50856" lon="1.51902">
        <ele>136.39999389648</ele>
        <time>2020-05-31T15:01:24.000Z</time>
      </trkpt>
      <trkpt lat="43.50866" lon="1.5189">
        <ele>136.60000610352</ele>
        <time>2020-05-31T15:01:27.000Z</time>
      </trkpt>
      <trkpt lat="43.50891" lon="1.51866">
        <ele>136.80000305176</ele>
        <time>2020-05-31T15:01:34.000Z</time>
      </trkpt>
      <trkpt lat="43.50924" lon="1.51832">
        <ele>137</ele>
        <time>2020-05-31T15:01:42.000Z</time>
      </trkpt>
      <trkpt lat="43.50939" lon="1.51817">
        <ele>137</ele>
        <time>2020-05-31T15:01:45.000Z</time>
      </trkpt>
      <trkpt lat="43.50986" lon="1.51791">
        <ele>136.80000305176</ele>
        <time>2020-05-31T15:01:53.000Z</time>
      </trkpt>
      <trkpt lat="43.51046" lon="1.51768">
        <ele>137.19999694824</ele>
        <time>2020-05-31T15:02:04.000Z</time>
      </trkpt>
      <trkpt lat="43.51107" lon="1.5175">
        <ele>137.19999694824</ele>
        <time>2020-05-31T15:02:16.000Z</time>
      </trkpt>
      <trkpt lat="43.51119" lon="1.51744">
        <ele>137.19999694824</ele>
        <time>2020-05-31T15:02:21.000Z</time>
      </trkpt>
      <trkpt lat="43.51121" lon="1.51743">
        <ele>137.60000610352</ele>
        <time>2020-05-31T15:02:24.000Z</time>
      </trkpt>
      <trkpt lat="43.51122" lon="1.51742">
        <ele>138</ele>
        <time>2020-05-31T15:02:25.000Z</time>
      </trkpt>
      <trkpt lat="43.51133" lon="1.51736">
        <ele>138.39999389648</ele>
        <time>2020-05-31T15:02:30.000Z</time>
      </trkpt>
      <trkpt lat="43.51188" lon="1.51725">
        <ele>137</ele>
        <time>2020-05-31T15:02:40.000Z</time>
      </trkpt>
      <trkpt lat="43.51193" lon="1.51723">
        <ele>136.60000610352</ele>
        <time>2020-05-31T15:02:41.000Z</time>
      </trkpt>
      <trkpt lat="43.51208" lon="1.5172">
        <ele>135.39999389648</ele>
        <time>2020-05-31T15:02:44.000Z</time>
      </trkpt>
      <trkpt lat="43.51261" lon="1.51706">
        <ele>134.80000305176</ele>
        <time>2020-05-31T15:02:54.000Z</time>
      </trkpt>
      <trkpt lat="43.51319" lon="1.51688">
        <ele>134.80000305176</ele>
        <time>2020-05-31T15:03:04.000Z</time>
      </trkpt>
      <trkpt lat="43.51378" lon="1.5167">
        <ele>135.19999694824</ele>
        <time>2020-05-31T15:03:13.000Z</time>
      </trkpt>
      <trkpt lat="43.51417" lon="1.51658">
        <ele>135.19999694824</ele>
        <time>2020-05-31T15:03:19.000Z</time>
      </trkpt>
      <trkpt lat="43.51466" lon="1.51691">
        <ele>135.19999694824</ele>
        <time>2020-05-31T15:03:28.000Z</time>
      </trkpt>
      <trkpt lat="43.5147" lon="1.51698">
        <ele>135.19999694824</ele>
        <time>2020-05-31T15:03:29.000Z</time>
      </trkpt>
      <trkpt lat="43.51481" lon="1.51728">
        <ele>134.60000610352</ele>
        <time>2020-05-31T15:03:33.000Z</time>
      </trkpt>
      <trkpt lat="43.51482" lon="1.51735">
        <ele>134.39999389648</ele>
        <time>2020-05-31T15:03:34.000Z</time>
      </trkpt>
      <trkpt lat="43.51479" lon="1.51774">
        <ele>133.39999389648</ele>
        <time>2020-05-31T15:03:39.000Z</time>
      </trkpt>
      <trkpt lat="43.51476" lon="1.51796">
        <ele>133.19999694824</ele>
        <time>2020-05-31T15:03:42.000Z</time>
      </trkpt>
      <trkpt lat="43.51477" lon="1.51816">
        <ele>133.19999694824</ele>
        <time>2020-05-31T15:03:46.000Z</time>
      </trkpt>
      <trkpt lat="43.51478" lon="1.51831">
        <ele>133.39999389648</ele>
        <time>2020-05-31T15:03:49.000Z</time>
      </trkpt>
      <trkpt lat="43.51481" lon="1.5187">
        <ele>134</ele>
        <time>2020-05-31T15:03:55.000Z</time>
      </trkpt>
      <trkpt lat="43.51492" lon="1.51922">
        <ele>134</ele>
        <time>2020-05-31T15:04:02.000Z</time>
      </trkpt>
      <trkpt lat="43.51501" lon="1.51944">
        <ele>134</ele>
        <time>2020-05-31T15:04:05.000Z</time>
      </trkpt>
      <trkpt lat="43.51513" lon="1.5196">
        <ele>134</ele>
        <time>2020-05-31T15:04:08.000Z</time>
      </trkpt>
      <trkpt lat="43.51555" lon="1.52013">
        <ele>134</ele>
        <time>2020-05-31T15:04:18.000Z</time>
      </trkpt>
      <trkpt lat="43.51575" lon="1.52042">
        <ele>134.19999694824</ele>
        <time>2020-05-31T15:04:24.000Z</time>
      </trkpt>
      <trkpt lat="43.51584" lon="1.5205">
        <ele>134.39999389648</ele>
        <time>2020-05-31T15:04:26.000Z</time>
      </trkpt>
      <trkpt lat="43.51595" lon="1.52055">
        <ele>134.60000610352</ele>
        <time>2020-05-31T15:04:28.000Z</time>
      </trkpt>
      <trkpt lat="43.51606" lon="1.52058">
        <ele>134.60000610352</ele>
        <time>2020-05-31T15:04:30.000Z</time>
      </trkpt>
      <trkpt lat="43.51661" lon="1.52053">
        <ele>134.39999389648</ele>
        <time>2020-05-31T15:04:39.000Z</time>
      </trkpt>
      <trkpt lat="43.51689" lon="1.52041">
        <ele>134.39999389648</ele>
        <time>2020-05-31T15:04:44.000Z</time>
      </trkpt>
      <trkpt lat="43.51699" lon="1.52038">
        <ele>134.39999389648</ele>
        <time>2020-05-31T15:04:46.000Z</time>
      </trkpt>
      <trkpt lat="43.51723" lon="1.52022">
        <ele>134.39999389648</ele>
        <time>2020-05-31T15:04:51.000Z</time>
      </trkpt>
      <trkpt lat="43.51744" lon="1.52008">
        <ele>134.19999694824</ele>
        <time>2020-05-31T15:04:55.000Z</time>
      </trkpt>
      <trkpt lat="43.51771" lon="1.51991">
        <ele>133.80000305176</ele>
        <time>2020-05-31T15:05:00.000Z</time>
      </trkpt>
      <trkpt lat="43.51778" lon="1.51987">
        <ele>134</ele>
        <time>2020-05-31T15:05:01.000Z</time>
      </trkpt>
      <trkpt lat="43.51797" lon="1.51981">
        <ele>133.80000305176</ele>
        <time>2020-05-31T15:05:04.000Z</time>
      </trkpt>
      <trkpt lat="43.51817" lon="1.5198">
        <ele>133.80000305176</ele>
        <time>2020-05-31T15:05:07.000Z</time>
      </trkpt>
      <trkpt lat="43.51846" lon="1.5199">
        <ele>133.39999389648</ele>
        <time>2020-05-31T15:05:12.000Z</time>
      </trkpt>
      <trkpt lat="43.5188" lon="1.52006">
        <ele>133.19999694824</ele>
        <time>2020-05-31T15:05:18.000Z</time>
      </trkpt>
      <trkpt lat="43.51945" lon="1.52023">
        <ele>133.39999389648</ele>
        <time>2020-05-31T15:05:27.000Z</time>
      </trkpt>
      <trkpt lat="43.51953" lon="1.52023">
        <ele>133.39999389648</ele>
        <time>2020-05-31T15:05:28.000Z</time>
      </trkpt>
      <trkpt lat="43.52" lon="1.52019">
        <ele>134.60000610352</ele>
        <time>2020-05-31T15:05:35.000Z</time>
      </trkpt>
      <trkpt lat="43.52017" lon="1.52014">
        <ele>134.80000305176</ele>
        <time>2020-05-31T15:05:38.000Z</time>
      </trkpt>
      <trkpt lat="43.52031" lon="1.52008">
        <ele>135.19999694824</ele>
        <time>2020-05-31T15:05:41.000Z</time>
      </trkpt>
      <trkpt lat="43.52071" lon="1.51978">
        <ele>135</ele>
        <time>2020-05-31T15:05:49.000Z</time>
      </trkpt>
      <trkpt lat="43.52127" lon="1.51958">
        <ele>133.80000305176</ele>
        <time>2020-05-31T15:05:58.000Z</time>
      </trkpt>
      <trkpt lat="43.5219" lon="1.51951">
        <ele>133.60000610352</ele>
        <time>2020-05-31T15:06:07.000Z</time>
      </trkpt>
      <trkpt lat="43.52253" lon="1.51929">
        <ele>134.39999389648</ele>
        <time>2020-05-31T15:06:18.000Z</time>
      </trkpt>
      <trkpt lat="43.52287" lon="1.51917">
        <ele>135</ele>
        <time>2020-05-31T15:06:25.000Z</time>
      </trkpt>
      <trkpt lat="43.52345" lon="1.5189">
        <ele>135.39999389648</ele>
        <time>2020-05-31T15:06:39.000Z</time>
      </trkpt>
      <trkpt lat="43.52398" lon="1.51878">
        <ele>135</ele>
        <time>2020-05-31T15:06:55.000Z</time>
      </trkpt>
      <trkpt lat="43.52445" lon="1.51861">
        <ele>134.80000305176</ele>
        <time>2020-05-31T15:07:05.000Z</time>
      </trkpt>
      <trkpt lat="43.52473" lon="1.51844">
        <ele>133.60000610352</ele>
        <time>2020-05-31T15:07:09.000Z</time>
      </trkpt>
      <trkpt lat="43.52485" lon="1.51834">
        <ele>131.80000305176</ele>
        <time>2020-05-31T15:07:11.000Z</time>
      </trkpt>
      <trkpt lat="43.52496" lon="1.51824">
        <ele>130.39999389648</ele>
        <time>2020-05-31T15:07:13.000Z</time>
      </trkpt>
      <trkpt lat="43.52542" lon="1.51778">
        <ele>129.39999389648</ele>
        <time>2020-05-31T15:07:22.000Z</time>
      </trkpt>
      <trkpt lat="43.52571" lon="1.51741">
        <ele>129.60000610352</ele>
        <time>2020-05-31T15:07:29.000Z</time>
      </trkpt>
      <trkpt lat="43.52601" lon="1.51686">
        <ele>130</ele>
        <time>2020-05-31T15:07:37.000Z</time>
      </trkpt>
      <trkpt lat="43.52609" lon="1.5165">
        <ele>130.19999694824</ele>
        <time>2020-05-31T15:07:41.000Z</time>
      </trkpt>
      <trkpt lat="43.52621" lon="1.51583">
        <ele>130.39999389648</ele>
        <time>2020-05-31T15:07:48.000Z</time>
      </trkpt>
      <trkpt lat="43.52632" lon="1.51532">
        <ele>130.60000610352</ele>
        <time>2020-05-31T15:07:54.000Z</time>
      </trkpt>
      <trkpt lat="43.52639" lon="1.51453">
        <ele>130.39999389648</ele>
        <time>2020-05-31T15:08:04.000Z</time>
      </trkpt>
      <trkpt lat="43.52642" lon="1.51422">
        <ele>130.39999389648</ele>
        <time>2020-05-31T15:08:08.000Z</time>
      </trkpt>
      <trkpt lat="43.52647" lon="1.51342">
        <ele>130.60000610352</ele>
        <time>2020-05-31T15:08:19.000Z</time>
      </trkpt>
      <trkpt lat="43.5265" lon="1.51261">
        <ele>131</ele>
        <time>2020-05-31T15:08:29.000Z</time>
      </trkpt>
      <trkpt lat="43.52653" lon="1.51201">
        <ele>131</ele>
        <time>2020-05-31T15:08:36.000Z</time>
      </trkpt>
      <trkpt lat="43.52661" lon="1.51148">
        <ele>130.60000610352</ele>
        <time>2020-05-31T15:08:42.000Z</time>
      </trkpt>
      <trkpt lat="43.52679" lon="1.51081">
        <ele>130.19999694824</ele>
        <time>2020-05-31T15:08:52.000Z</time>
      </trkpt>
      <trkpt lat="43.52681" lon="1.51075">
        <ele>130.19999694824</ele>
        <time>2020-05-31T15:08:53.000Z</time>
      </trkpt>
      <trkpt lat="43.52692" lon="1.51049">
        <ele>130.19999694824</ele>
        <time>2020-05-31T15:08:57.000Z</time>
      </trkpt>
      <trkpt lat="43.52705" lon="1.51022">
        <ele>130.60000610352</ele>
        <time>2020-05-31T15:09:01.000Z</time>
      </trkpt>
      <trkpt lat="43.52719" lon="1.50993">
        <ele>131</ele>
        <time>2020-05-31T15:09:05.000Z</time>
      </trkpt>
      <trkpt lat="43.52758" lon="1.5093">
        <ele>131</ele>
        <time>2020-05-31T15:09:14.000Z</time>
      </trkpt>
      <trkpt lat="43.52785" lon="1.50897">
        <ele>130.60000610352</ele>
        <time>2020-05-31T15:09:20.000Z</time>
      </trkpt>
      <trkpt lat="43.52829" lon="1.50867">
        <ele>130.39999389648</ele>
        <time>2020-05-31T15:09:28.000Z</time>
      </trkpt>
      <trkpt lat="43.52835" lon="1.50862">
        <ele>130.39999389648</ele>
        <time>2020-05-31T15:09:29.000Z</time>
      </trkpt>
      <trkpt lat="43.52852" lon="1.5085">
        <ele>130.60000610352</ele>
        <time>2020-05-31T15:09:32.000Z</time>
      </trkpt>
      <trkpt lat="43.52901" lon="1.50804">
        <ele>131.39999389648</ele>
        <time>2020-05-31T15:09:41.000Z</time>
      </trkpt>
      <trkpt lat="43.52941" lon="1.50761">
        <ele>132</ele>
        <time>2020-05-31T15:09:49.000Z</time>
      </trkpt>
      <trkpt lat="43.52991" lon="1.50707">
        <ele>131.80000305176</ele>
        <time>2020-05-31T15:09:58.000Z</time>
      </trkpt>
      <trkpt lat="43.53037" lon="1.5066">
        <ele>131.39999389648</ele>
        <time>2020-05-31T15:10:06.000Z</time>
      </trkpt>
      <trkpt lat="43.53089" lon="1.50624">
        <ele>131.19999694824</ele>
        <time>2020-05-31T15:10:14.000Z</time>
      </trkpt>
      <trkpt lat="43.53113" lon="1.50609">
        <ele>131</ele>
        <time>2020-05-31T15:10:18.000Z</time>
      </trkpt>
      <trkpt lat="43.53131" lon="1.50595">
        <ele>131</ele>
        <time>2020-05-31T15:10:21.000Z</time>
      </trkpt>
      <trkpt lat="43.53187" lon="1.5057">
        <ele>131</ele>
        <time>2020-05-31T15:10:30.000Z</time>
      </trkpt>
      <trkpt lat="43.53248" lon="1.50555">
        <ele>131</ele>
        <time>2020-05-31T15:10:40.000Z</time>
      </trkpt>
      <trkpt lat="43.53304" lon="1.50547">
        <ele>131.19999694824</ele>
        <time>2020-05-31T15:10:49.000Z</time>
      </trkpt>
      <trkpt lat="43.53363" lon="1.50538">
        <ele>131.19999694824</ele>
        <time>2020-05-31T15:10:58.000Z</time>
      </trkpt>
      <trkpt lat="43.53418" lon="1.5052">
        <ele>131.39999389648</ele>
        <time>2020-05-31T15:11:08.000Z</time>
      </trkpt>
      <trkpt lat="43.53471" lon="1.50486">
        <ele>131.19999694824</ele>
        <time>2020-05-31T15:11:18.000Z</time>
      </trkpt>
      <trkpt lat="43.53485" lon="1.50476">
        <ele>131.19999694824</ele>
        <time>2020-05-31T15:11:21.000Z</time>
      </trkpt>
      <trkpt lat="43.53532" lon="1.50436">
        <ele>130.80000305176</ele>
        <time>2020-05-31T15:11:30.000Z</time>
      </trkpt>
      <trkpt lat="43.53579" lon="1.50395">
        <ele>130.60000610352</ele>
        <time>2020-05-31T15:11:38.000Z</time>
      </trkpt>
      <trkpt lat="43.53624" lon="1.50347">
        <ele>130.39999389648</ele>
        <time>2020-05-31T15:11:47.000Z</time>
      </trkpt>
      <trkpt lat="43.53667" lon="1.50294">
        <ele>130.19999694824</ele>
        <time>2020-05-31T15:11:56.000Z</time>
      </trkpt>
      <trkpt lat="43.5371" lon="1.50245">
        <ele>130</ele>
        <time>2020-05-31T15:12:04.000Z</time>
      </trkpt>
      <trkpt lat="43.53731" lon="1.50219">
        <ele>130</ele>
        <time>2020-05-31T15:12:08.000Z</time>
      </trkpt>
      <trkpt lat="43.53748" lon="1.50191">
        <ele>129.80000305176</ele>
        <time>2020-05-31T15:12:12.000Z</time>
      </trkpt>
      <trkpt lat="43.53781" lon="1.5012">
        <ele>129.60000610352</ele>
        <time>2020-05-31T15:12:21.000Z</time>
      </trkpt>
      <trkpt lat="43.53811" lon="1.50068">
        <ele>129.60000610352</ele>
        <time>2020-05-31T15:12:28.000Z</time>
      </trkpt>
      <trkpt lat="43.53849" lon="1.50005">
        <ele>129.80000305176</ele>
        <time>2020-05-31T15:12:37.000Z</time>
      </trkpt>
      <trkpt lat="43.53883" lon="1.49945">
        <ele>130.39999389648</ele>
        <time>2020-05-31T15:12:46.000Z</time>
      </trkpt>
      <trkpt lat="43.53887" lon="1.49932">
        <ele>130.60000610352</ele>
        <time>2020-05-31T15:12:48.000Z</time>
      </trkpt>
      <trkpt lat="43.53896" lon="1.49895">
        <ele>130.80000305176</ele>
        <time>2020-05-31T15:12:54.000Z</time>
      </trkpt>
      <trkpt lat="43.53909" lon="1.49815">
        <ele>130.80000305176</ele>
        <time>2020-05-31T15:13:03.000Z</time>
      </trkpt>
      <trkpt lat="43.53913" lon="1.49731">
        <ele>130.19999694824</ele>
        <time>2020-05-31T15:13:13.000Z</time>
      </trkpt>
      <trkpt lat="43.53911" lon="1.49707">
        <ele>130</ele>
        <time>2020-05-31T15:13:16.000Z</time>
      </trkpt>
      <trkpt lat="43.53907" lon="1.49679">
        <ele>130</ele>
        <time>2020-05-31T15:13:20.000Z</time>
      </trkpt>
      <trkpt lat="43.53904" lon="1.49653">
        <ele>130</ele>
        <time>2020-05-31T15:13:24.000Z</time>
      </trkpt>
      <trkpt lat="43.539" lon="1.4963">
        <ele>130</ele>
        <time>2020-05-31T15:13:27.000Z</time>
      </trkpt>
      <trkpt lat="43.5389" lon="1.49562">
        <ele>131</ele>
        <time>2020-05-31T15:13:36.000Z</time>
      </trkpt>
      <trkpt lat="43.53879" lon="1.49483">
        <ele>131.39999389648</ele>
        <time>2020-05-31T15:13:46.000Z</time>
      </trkpt>
      <trkpt lat="43.5387" lon="1.49404">
        <ele>131.19999694824</ele>
        <time>2020-05-31T15:13:56.000Z</time>
      </trkpt>
      <trkpt lat="43.53869" lon="1.49371">
        <ele>130.80000305176</ele>
        <time>2020-05-31T15:14:00.000Z</time>
      </trkpt>
      <trkpt lat="43.53876" lon="1.49342">
        <ele>130.80000305176</ele>
        <time>2020-05-31T15:14:04.000Z</time>
      </trkpt>
      <trkpt lat="43.53879" lon="1.49334">
        <ele>130.80000305176</ele>
        <time>2020-05-31T15:14:05.000Z</time>
      </trkpt>
      <trkpt lat="43.53893" lon="1.49307">
        <ele>130.80000305176</ele>
        <time>2020-05-31T15:14:09.000Z</time>
      </trkpt>
      <trkpt lat="43.53938" lon="1.49267">
        <ele>131.19999694824</ele>
        <time>2020-05-31T15:14:19.000Z</time>
      </trkpt>
      <trkpt lat="43.53949" lon="1.49263">
        <ele>131</ele>
        <time>2020-05-31T15:14:21.000Z</time>
      </trkpt>
      <trkpt lat="43.54004" lon="1.49244">
        <ele>130.80000305176</ele>
        <time>2020-05-31T15:14:32.000Z</time>
      </trkpt>
      <trkpt lat="43.54054" lon="1.4922">
        <ele>130.39999389648</ele>
        <time>2020-05-31T15:14:43.000Z</time>
      </trkpt>
      <trkpt lat="43.54059" lon="1.49218">
        <ele>130.39999389648</ele>
        <time>2020-05-31T15:14:44.000Z</time>
      </trkpt>
      <trkpt lat="43.5411" lon="1.49185">
        <ele>130.39999389648</ele>
        <time>2020-05-31T15:14:54.000Z</time>
      </trkpt>
      <trkpt lat="43.54125" lon="1.49175">
        <ele>130.39999389648</ele>
        <time>2020-05-31T15:14:57.000Z</time>
      </trkpt>
      <trkpt lat="43.54181" lon="1.4914">
        <ele>130.39999389648</ele>
        <time>2020-05-31T15:15:07.000Z</time>
      </trkpt>
      <trkpt lat="43.54232" lon="1.49111">
        <ele>130.60000610352</ele>
        <time>2020-05-31T15:15:18.000Z</time>
      </trkpt>
      <trkpt lat="43.54256" lon="1.491">
        <ele>130.80000305176</ele>
        <time>2020-05-31T15:15:23.000Z</time>
      </trkpt>
      <trkpt lat="43.54276" lon="1.4909">
        <ele>131</ele>
        <time>2020-05-31T15:15:28.000Z</time>
      </trkpt>
      <trkpt lat="43.54329" lon="1.49066">
        <ele>131</ele>
        <time>2020-05-31T15:15:38.000Z</time>
      </trkpt>
      <trkpt lat="43.54388" lon="1.49039">
        <ele>131.60000610352</ele>
        <time>2020-05-31T15:15:56.000Z</time>
      </trkpt>
      <trkpt lat="43.54423" lon="1.49024">
        <ele>131.80000305176</ele>
        <time>2020-05-31T15:16:05.000Z</time>
      </trkpt>
      <trkpt lat="43.54456" lon="1.49002">
        <ele>132</ele>
        <time>2020-05-31T15:16:17.000Z</time>
      </trkpt>
      <trkpt lat="43.54456" lon="1.49">
        <ele>132</ele>
        <time>2020-05-31T15:16:18.000Z</time>
      </trkpt>
      <trkpt lat="43.54454" lon="1.48989">
        <ele>133</ele>
        <time>2020-05-31T15:16:23.000Z</time>
      </trkpt>
      <trkpt lat="43.54452" lon="1.48984">
        <ele>133.19999694824</ele>
        <time>2020-05-31T15:16:25.000Z</time>
      </trkpt>
      <trkpt lat="43.54447" lon="1.48977">
        <ele>134</ele>
        <time>2020-05-31T15:16:29.000Z</time>
      </trkpt>
      <trkpt lat="43.54446" lon="1.48975">
        <ele>134.39999389648</ele>
        <time>2020-05-31T15:16:30.000Z</time>
      </trkpt>
      <trkpt lat="43.5444" lon="1.48954">
        <ele>134.60000610352</ele>
        <time>2020-05-31T15:16:34.000Z</time>
      </trkpt>
      <trkpt lat="43.54411" lon="1.48886">
        <ele>133.60000610352</ele>
        <time>2020-05-31T15:16:45.000Z</time>
      </trkpt>
      <trkpt lat="43.54383" lon="1.48817">
        <ele>133</ele>
        <time>2020-05-31T15:16:56.000Z</time>
      </trkpt>
      <trkpt lat="43.54382" lon="1.48811">
        <ele>133</ele>
        <time>2020-05-31T15:16:57.000Z</time>
      </trkpt>
      <trkpt lat="43.5437" lon="1.48735">
        <ele>133</ele>
        <time>2020-05-31T15:17:08.000Z</time>
      </trkpt>
      <trkpt lat="43.54355" lon="1.48659">
        <ele>133.80000305176</ele>
        <time>2020-05-31T15:17:19.000Z</time>
      </trkpt>
      <trkpt lat="43.54335" lon="1.48585">
        <ele>133.80000305176</ele>
        <time>2020-05-31T15:17:30.000Z</time>
      </trkpt>
      <trkpt lat="43.54306" lon="1.48522">
        <ele>134.19999694824</ele>
        <time>2020-05-31T15:17:41.000Z</time>
      </trkpt>
      <trkpt lat="43.5428" lon="1.48479">
        <ele>134.60000610352</ele>
        <time>2020-05-31T15:17:49.000Z</time>
      </trkpt>
      <trkpt lat="43.54255" lon="1.4843">
        <ele>135.80000305176</ele>
        <time>2020-05-31T15:17:58.000Z</time>
      </trkpt>
      <trkpt lat="43.54243" lon="1.48405">
        <ele>136.80000305176</ele>
        <time>2020-05-31T15:18:03.000Z</time>
      </trkpt>
      <trkpt lat="43.5422" lon="1.48358">
        <ele>137.80000305176</ele>
        <time>2020-05-31T15:18:12.000Z</time>
      </trkpt>
      <trkpt lat="43.54199" lon="1.48308">
        <ele>138.80000305176</ele>
        <time>2020-05-31T15:18:22.000Z</time>
      </trkpt>
      <trkpt lat="43.54187" lon="1.48285">
        <ele>139.80000305176</ele>
        <time>2020-05-31T15:18:27.000Z</time>
      </trkpt>
      <trkpt lat="43.54162" lon="1.48281">
        <ele>140</ele>
        <time>2020-05-31T15:18:34.000Z</time>
      </trkpt>
      <trkpt lat="43.54149" lon="1.48268">
        <ele>140.19999694824</ele>
        <time>2020-05-31T15:18:38.000Z</time>
      </trkpt>
      <trkpt lat="43.54138" lon="1.48251">
        <ele>140.39999389648</ele>
        <time>2020-05-31T15:18:42.000Z</time>
      </trkpt>
      <trkpt lat="43.54133" lon="1.48222">
        <ele>140.60000610352</ele>
        <time>2020-05-31T15:18:47.000Z</time>
      </trkpt>
      <trkpt lat="43.54132" lon="1.48209">
        <ele>140.80000305176</ele>
        <time>2020-05-31T15:18:49.000Z</time>
      </trkpt>
      <trkpt lat="43.54128" lon="1.48153">
        <ele>141.39999389648</ele>
        <time>2020-05-31T15:18:58.000Z</time>
      </trkpt>
      <trkpt lat="43.54122" lon="1.48106">
        <ele>141.80000305176</ele>
        <time>2020-05-31T15:19:07.000Z</time>
      </trkpt>
      <trkpt lat="43.54113" lon="1.4807">
        <ele>143</ele>
        <time>2020-05-31T15:19:15.000Z</time>
      </trkpt>
      <trkpt lat="43.54098" lon="1.4803">
        <ele>144</ele>
        <time>2020-05-31T15:19:24.000Z</time>
      </trkpt>
      <trkpt lat="43.54089" lon="1.48013">
        <ele>145.19999694824</ele>
        <time>2020-05-31T15:19:28.000Z</time>
      </trkpt>
      <trkpt lat="43.54079" lon="1.4799">
        <ele>146.39999389648</ele>
        <time>2020-05-31T15:19:33.000Z</time>
      </trkpt>
      <trkpt lat="43.54054" lon="1.47933">
        <ele>147.39999389648</ele>
        <time>2020-05-31T15:19:45.000Z</time>
      </trkpt>
      <trkpt lat="43.54037" lon="1.479">
        <ele>147.60000610352</ele>
        <time>2020-05-31T15:19:52.000Z</time>
      </trkpt>
      <trkpt lat="43.54019" lon="1.4788">
        <ele>148.39999389648</ele>
        <time>2020-05-31T15:19:58.000Z</time>
      </trkpt>
      <trkpt lat="43.53985" lon="1.47838">
        <ele>149.39999389648</ele>
        <time>2020-05-31T15:20:12.000Z</time>
      </trkpt>
      <trkpt lat="43.53962" lon="1.47808">
        <ele>150.60000610352</ele>
        <time>2020-05-31T15:20:24.000Z</time>
      </trkpt>
      <trkpt lat="43.5394" lon="1.47783">
        <ele>151.80000305176</ele>
        <time>2020-05-31T15:20:34.000Z</time>
      </trkpt>
      <trkpt lat="43.53923" lon="1.47756">
        <ele>152.80000305176</ele>
        <time>2020-05-31T15:20:43.000Z</time>
      </trkpt>
      <trkpt lat="43.53914" lon="1.47742">
        <ele>153.19999694824</ele>
        <time>2020-05-31T15:20:49.000Z</time>
      </trkpt>
      <trkpt lat="43.53908" lon="1.47731">
        <ele>154</ele>
        <time>2020-05-31T15:20:54.000Z</time>
      </trkpt>
      <trkpt lat="43.53893" lon="1.47706">
        <ele>155</ele>
        <time>2020-05-31T15:21:02.000Z</time>
      </trkpt>
      <trkpt lat="43.53888" lon="1.47697">
        <ele>155.39999389648</ele>
        <time>2020-05-31T15:21:04.000Z</time>
      </trkpt>
      <trkpt lat="43.53863" lon="1.47637">
        <ele>156.39999389648</ele>
        <time>2020-05-31T15:21:19.000Z</time>
      </trkpt>
      <trkpt lat="43.53856" lon="1.4762">
        <ele>156.60000610352</ele>
        <time>2020-05-31T15:21:24.000Z</time>
      </trkpt>
      <trkpt lat="43.53852" lon="1.47603">
        <ele>158</ele>
        <time>2020-05-31T15:21:29.000Z</time>
      </trkpt>
      <trkpt lat="43.53844" lon="1.47578">
        <ele>159.19999694824</ele>
        <time>2020-05-31T15:21:36.000Z</time>
      </trkpt>
      <trkpt lat="43.53834" lon="1.47545">
        <ele>160.39999389648</ele>
        <time>2020-05-31T15:21:45.000Z</time>
      </trkpt>
      <trkpt lat="43.53821" lon="1.47502">
        <ele>162</ele>
        <time>2020-05-31T15:21:58.000Z</time>
      </trkpt>
      <trkpt lat="43.53812" lon="1.47462">
        <ele>163.39999389648</ele>
        <time>2020-05-31T15:22:09.000Z</time>
      </trkpt>
      <trkpt lat="43.53808" lon="1.47441">
        <ele>164.39999389648</ele>
        <time>2020-05-31T15:22:15.000Z</time>
      </trkpt>
      <trkpt lat="43.53804" lon="1.47415">
        <ele>166</ele>
        <time>2020-05-31T15:22:23.000Z</time>
      </trkpt>
      <trkpt lat="43.53796" lon="1.47357">
        <ele>167.60000610352</ele>
        <time>2020-05-31T15:22:40.000Z</time>
      </trkpt>
      <trkpt lat="43.53789" lon="1.47333">
        <ele>169</ele>
        <time>2020-05-31T15:22:47.000Z</time>
      </trkpt>
      <trkpt lat="43.53786" lon="1.47328">
        <ele>169.19999694824</ele>
        <time>2020-05-31T15:22:49.000Z</time>
      </trkpt>
      <trkpt lat="43.53769" lon="1.47304">
        <ele>170.39999389648</ele>
        <time>2020-05-31T15:22:56.000Z</time>
      </trkpt>
      <trkpt lat="43.53749" lon="1.47234">
        <ele>172.19999694824</ele>
        <time>2020-05-31T15:23:16.000Z</time>
      </trkpt>
      <trkpt lat="43.53739" lon="1.4715">
        <ele>174.19999694824</ele>
        <time>2020-05-31T15:23:37.000Z</time>
      </trkpt>
      <trkpt lat="43.53736" lon="1.47125">
        <ele>175.39999389648</ele>
        <time>2020-05-31T15:23:44.000Z</time>
      </trkpt>
      <trkpt lat="43.53733" lon="1.47101">
        <ele>176.60000610352</ele>
        <time>2020-05-31T15:23:51.000Z</time>
      </trkpt>
      <trkpt lat="43.53735" lon="1.47069">
        <ele>178.19999694824</ele>
        <time>2020-05-31T15:24:01.000Z</time>
      </trkpt>
      <trkpt lat="43.53739" lon="1.47041">
        <ele>179.19999694824</ele>
        <time>2020-05-31T15:24:10.000Z</time>
      </trkpt>
      <trkpt lat="43.53737" lon="1.4702">
        <ele>180.80000305176</ele>
        <time>2020-05-31T15:24:15.000Z</time>
      </trkpt>
      <trkpt lat="43.53731" lon="1.47004">
        <ele>182</ele>
        <time>2020-05-31T15:24:20.000Z</time>
      </trkpt>
      <trkpt lat="43.53716" lon="1.46982">
        <ele>183.19999694824</ele>
        <time>2020-05-31T15:24:29.000Z</time>
      </trkpt>
      <trkpt lat="43.53709" lon="1.46975">
        <ele>183.39999389648</ele>
        <time>2020-05-31T15:24:31.000Z</time>
      </trkpt>
      <trkpt lat="43.53655" lon="1.46949">
        <ele>183.80000305176</ele>
        <time>2020-05-31T15:24:46.000Z</time>
      </trkpt>
      <trkpt lat="43.53645" lon="1.4692">
        <ele>184.39999389648</ele>
        <time>2020-05-31T15:24:53.000Z</time>
      </trkpt>
      <trkpt lat="43.5365" lon="1.46903">
        <ele>184.80000305176</ele>
        <time>2020-05-31T15:24:57.000Z</time>
      </trkpt>
      <trkpt lat="43.53657" lon="1.46888">
        <ele>185</ele>
        <time>2020-05-31T15:25:00.000Z</time>
      </trkpt>
      <trkpt lat="43.53664" lon="1.46875">
        <ele>185.19999694824</ele>
        <time>2020-05-31T15:25:03.000Z</time>
      </trkpt>
      <trkpt lat="43.53668" lon="1.46865">
        <ele>185.60000610352</ele>
        <time>2020-05-31T15:25:05.000Z</time>
      </trkpt>
      <trkpt lat="43.53679" lon="1.46848">
        <ele>186.60000610352</ele>
        <time>2020-05-31T15:25:09.000Z</time>
      </trkpt>
      <trkpt lat="43.53688" lon="1.46831">
        <ele>187.19999694824</ele>
        <time>2020-05-31T15:25:13.000Z</time>
      </trkpt>
      <trkpt lat="43.53695" lon="1.46815">
        <ele>187.39999389648</ele>
        <time>2020-05-31T15:25:18.000Z</time>
      </trkpt>
      <trkpt lat="43.537" lon="1.46806">
        <ele>187.60000610352</ele>
        <time>2020-05-31T15:25:22.000Z</time>
      </trkpt>
      <trkpt lat="43.53718" lon="1.46769">
        <ele>188.39999389648</ele>
        <time>2020-05-31T15:25:38.000Z</time>
      </trkpt>
      <trkpt lat="43.53753" lon="1.4671">
        <ele>189.39999389648</ele>
        <time>2020-05-31T15:25:55.000Z</time>
      </trkpt>
      <trkpt lat="43.53755" lon="1.46707">
        <ele>189.60000610352</ele>
        <time>2020-05-31T15:25:56.000Z</time>
      </trkpt>
      <trkpt lat="43.53775" lon="1.46682">
        <ele>190.60000610352</ele>
        <time>2020-05-31T15:26:04.000Z</time>
      </trkpt>
      <trkpt lat="43.53805" lon="1.46639">
        <ele>191.60000610352</ele>
        <time>2020-05-31T15:26:17.000Z</time>
      </trkpt>
      <trkpt lat="43.53819" lon="1.46618">
        <ele>192.60000610352</ele>
        <time>2020-05-31T15:26:23.000Z</time>
      </trkpt>
      <trkpt lat="43.53841" lon="1.46586">
        <ele>193.80000305176</ele>
        <time>2020-05-31T15:26:33.000Z</time>
      </trkpt>
      <trkpt lat="43.53856" lon="1.46563">
        <ele>194.60000610352</ele>
        <time>2020-05-31T15:26:40.000Z</time>
      </trkpt>
      <trkpt lat="43.53874" lon="1.46528">
        <ele>195.60000610352</ele>
        <time>2020-05-31T15:26:51.000Z</time>
      </trkpt>
      <trkpt lat="43.53882" lon="1.46513">
        <ele>196.60000610352</ele>
        <time>2020-05-31T15:26:55.000Z</time>
      </trkpt>
      <trkpt lat="43.53886" lon="1.46505">
        <ele>197</ele>
        <time>2020-05-31T15:26:57.000Z</time>
      </trkpt>
      <trkpt lat="43.53911" lon="1.46464">
        <ele>197.60000610352</ele>
        <time>2020-05-31T15:27:09.000Z</time>
      </trkpt>
      <trkpt lat="43.53928" lon="1.4643">
        <ele>198.60000610352</ele>
        <time>2020-05-31T15:27:18.000Z</time>
      </trkpt>
      <trkpt lat="43.53951" lon="1.46395">
        <ele>199.80000305176</ele>
        <time>2020-05-31T15:27:28.000Z</time>
      </trkpt>
      <trkpt lat="43.53969" lon="1.46374">
        <ele>200.60000610352</ele>
        <time>2020-05-31T15:27:36.000Z</time>
      </trkpt>
      <trkpt lat="43.53989" lon="1.46348">
        <ele>201.60000610352</ele>
        <time>2020-05-31T15:27:44.000Z</time>
      </trkpt>
      <trkpt lat="43.54024" lon="1.46303">
        <ele>202.80000305176</ele>
        <time>2020-05-31T15:28:00.000Z</time>
      </trkpt>
      <trkpt lat="43.5405" lon="1.46282">
        <ele>203.80000305176</ele>
        <time>2020-05-31T15:28:11.000Z</time>
      </trkpt>
      <trkpt lat="43.54063" lon="1.46261">
        <ele>204.80000305176</ele>
        <time>2020-05-31T15:28:20.000Z</time>
      </trkpt>
      <trkpt lat="43.54098" lon="1.46203">
        <ele>205.60000610352</ele>
        <time>2020-05-31T15:28:36.000Z</time>
      </trkpt>
      <trkpt lat="43.541" lon="1.462">
        <ele>205.80000305176</ele>
        <time>2020-05-31T15:28:37.000Z</time>
      </trkpt>
      <trkpt lat="43.54117" lon="1.46169">
        <ele>206.80000305176</ele>
        <time>2020-05-31T15:28:47.000Z</time>
      </trkpt>
      <trkpt lat="43.54145" lon="1.46113">
        <ele>208</ele>
        <time>2020-05-31T15:29:03.000Z</time>
      </trkpt>
      <trkpt lat="43.54161" lon="1.46084">
        <ele>208.80000305176</ele>
        <time>2020-05-31T15:29:11.000Z</time>
      </trkpt>
      <trkpt lat="43.54174" lon="1.46054">
        <ele>209.80000305176</ele>
        <time>2020-05-31T15:29:19.000Z</time>
      </trkpt>
      <trkpt lat="43.54189" lon="1.4602">
        <ele>210.80000305176</ele>
        <time>2020-05-31T15:29:28.000Z</time>
      </trkpt>
      <trkpt lat="43.54217" lon="1.45954">
        <ele>211.39999389648</ele>
        <time>2020-05-31T15:29:42.000Z</time>
      </trkpt>
      <trkpt lat="43.54244" lon="1.45893">
        <ele>210.19999694824</ele>
        <time>2020-05-31T15:29:50.000Z</time>
      </trkpt>
      <trkpt lat="43.5426" lon="1.45863">
        <ele>209.80000305176</ele>
        <time>2020-05-31T15:29:53.000Z</time>
      </trkpt>
      <trkpt lat="43.54297" lon="1.45801">
        <ele>208.60000610352</ele>
        <time>2020-05-31T15:29:59.000Z</time>
      </trkpt>
      <trkpt lat="43.54309" lon="1.45781">
        <ele>207.39999389648</ele>
        <time>2020-05-31T15:30:01.000Z</time>
      </trkpt>
      <trkpt lat="43.54323" lon="1.4576">
        <ele>206.19999694824</ele>
        <time>2020-05-31T15:30:03.000Z</time>
      </trkpt>
      <trkpt lat="43.54341" lon="1.45729">
        <ele>205.19999694824</ele>
        <time>2020-05-31T15:30:06.000Z</time>
      </trkpt>
      <trkpt lat="43.54382" lon="1.45661">
        <ele>205.39999389648</ele>
        <time>2020-05-31T15:30:14.000Z</time>
      </trkpt>
      <trkpt lat="43.54394" lon="1.45643">
        <ele>206.60000610352</ele>
        <time>2020-05-31T15:30:17.000Z</time>
      </trkpt>
      <trkpt lat="43.54405" lon="1.45628">
        <ele>208.60000610352</ele>
        <time>2020-05-31T15:30:20.000Z</time>
      </trkpt>
      <trkpt lat="43.54414" lon="1.45617">
        <ele>209.60000610352</ele>
        <time>2020-05-31T15:30:23.000Z</time>
      </trkpt>
      <trkpt lat="43.54433" lon="1.45606">
        <ele>210.60000610352</ele>
        <time>2020-05-31T15:30:30.000Z</time>
      </trkpt>
      <trkpt lat="43.54435" lon="1.45608">
        <ele>210.80000305176</ele>
        <time>2020-05-31T15:30:31.000Z</time>
      </trkpt>
      <trkpt lat="43.54435" lon="1.45629">
        <ele>211</ele>
        <time>2020-05-31T15:30:35.000Z</time>
      </trkpt>
      <trkpt lat="43.5443" lon="1.45668">
        <ele>211</ele>
        <time>2020-05-31T15:30:41.000Z</time>
      </trkpt>
      <trkpt lat="43.54418" lon="1.45689">
        <ele>210.60000610352</ele>
        <time>2020-05-31T15:30:45.000Z</time>
      </trkpt>
      <trkpt lat="43.54415" lon="1.45695">
        <ele>210.60000610352</ele>
        <time>2020-05-31T15:30:46.000Z</time>
      </trkpt>
      <trkpt lat="43.54399" lon="1.45729">
        <ele>210</ele>
        <time>2020-05-31T15:30:51.000Z</time>
      </trkpt>
      <trkpt lat="43.54388" lon="1.45734">
        <ele>209.19999694824</ele>
        <time>2020-05-31T15:30:53.000Z</time>
      </trkpt>
      <trkpt lat="43.54377" lon="1.45736">
        <ele>208.19999694824</ele>
        <time>2020-05-31T15:30:55.000Z</time>
      </trkpt>
      <trkpt lat="43.54368" lon="1.45746">
        <ele>207</ele>
        <time>2020-05-31T15:30:57.000Z</time>
      </trkpt>
      <trkpt lat="43.54364" lon="1.45753">
        <ele>206.60000610352</ele>
        <time>2020-05-31T15:30:58.000Z</time>
      </trkpt>
      <trkpt lat="43.54343" lon="1.45786">
        <ele>206</ele>
        <time>2020-05-31T15:31:03.000Z</time>
      </trkpt>
      <trkpt lat="43.54333" lon="1.45805">
        <ele>205.39999389648</ele>
        <time>2020-05-31T15:31:07.000Z</time>
      </trkpt>
      <trkpt lat="43.54331" lon="1.45809">
        <ele>205.19999694824</ele>
        <time>2020-05-31T15:31:16.000Z</time>
      </trkpt>
      <trkpt lat="43.54331" lon="1.45809">
        <ele>205.19999694824</ele>
        <time>2020-05-31T15:31:17.000Z</time>
      </trkpt>
      <trkpt lat="43.54329" lon="1.45809">
        <ele>205.60000610352</ele>
        <time>2020-05-31T15:31:26.000Z</time>
      </trkpt>
      <trkpt lat="43.54327" lon="1.4581">
        <ele>205.60000610352</ele>
        <time>2020-05-31T15:31:28.000Z</time>
      </trkpt>
      <trkpt lat="43.54322" lon="1.45808">
        <ele>205.60000610352</ele>
        <time>2020-05-31T15:31:32.000Z</time>
      </trkpt>
    </trkseg>
  </trk>
  <trk>
    <name><![CDATA[Toulouse Cyclisme sur route]]></name>
    <extensions>
      <line xmlns="http://www.topografix.com/GPX/gpx_style/0/2">
        <color>ff8000</color>
        <width>4</width>
      </line>
    </extensions>
    <trkseg>
      <trkpt lat="43.54337" lon="1.45824">
        <ele>227.19999694824</ele>
        <time>2020-06-03T06:49:00.000Z</time>
      </trkpt>
      <trkpt lat="43.54337" lon="1.45824">
        <ele>227.19999694824</ele>
        <time>2020-06-03T06:49:00.000Z</time>
      </trkpt>
      <trkpt lat="43.54343" lon="1.45847">
        <ele>226.19999694824</ele>
        <time>2020-06-03T06:49:07.000Z</time>
      </trkpt>
      <trkpt lat="43.54348" lon="1.45861">
        <ele>225.39999389648</ele>
        <time>2020-06-03T06:49:10.000Z</time>
      </trkpt>
      <trkpt lat="43.54349" lon="1.45867">
        <ele>225</ele>
        <time>2020-06-03T06:49:11.000Z</time>
      </trkpt>
      <trkpt lat="43.54349" lon="1.45888">
        <ele>224</ele>
        <time>2020-06-03T06:49:14.000Z</time>
      </trkpt>
      <trkpt lat="43.54349" lon="1.45895">
        <ele>223.80000305176</ele>
        <time>2020-06-03T06:49:15.000Z</time>
      </trkpt>
      <trkpt lat="43.54357" lon="1.45922">
        <ele>224.80000305176</ele>
        <time>2020-06-03T06:49:19.000Z</time>
      </trkpt>
      <trkpt lat="43.54368" lon="1.45952">
        <ele>223.80000305176</ele>
        <time>2020-06-03T06:49:24.000Z</time>
      </trkpt>
      <trkpt lat="43.54385" lon="1.45971">
        <ele>223.60000610352</ele>
        <time>2020-06-03T06:49:30.000Z</time>
      </trkpt>
      <trkpt lat="43.54406" lon="1.45937">
        <ele>225.19999694824</ele>
        <time>2020-06-03T06:49:43.000Z</time>
      </trkpt>
      <trkpt lat="43.54409" lon="1.4592">
        <ele>226.39999389648</ele>
        <time>2020-06-03T06:49:48.000Z</time>
      </trkpt>
      <trkpt lat="43.54408" lon="1.45897">
        <ele>227.39999389648</ele>
        <time>2020-06-03T06:49:54.000Z</time>
      </trkpt>
      <trkpt lat="43.54401" lon="1.45836">
        <ele>228.39999389648</ele>
        <time>2020-06-03T06:50:09.000Z</time>
      </trkpt>
      <trkpt lat="43.54396" lon="1.45779">
        <ele>228.80000305176</ele>
        <time>2020-06-03T06:50:22.000Z</time>
      </trkpt>
      <trkpt lat="43.54404" lon="1.45723">
        <ele>229.60000610352</ele>
        <time>2020-06-03T06:50:36.000Z</time>
      </trkpt>
      <trkpt lat="43.54415" lon="1.457">
        <ele>231</ele>
        <time>2020-06-03T06:50:44.000Z</time>
      </trkpt>
      <trkpt lat="43.54423" lon="1.4569">
        <ele>232</ele>
        <time>2020-06-03T06:50:49.000Z</time>
      </trkpt>
      <trkpt lat="43.54438" lon="1.45675">
        <ele>233.19999694824</ele>
        <time>2020-06-03T06:50:57.000Z</time>
      </trkpt>
      <trkpt lat="43.54447" lon="1.45604">
        <ele>234</ele>
        <time>2020-06-03T06:51:16.000Z</time>
      </trkpt>
      <trkpt lat="43.54445" lon="1.45583">
        <ele>234</ele>
        <time>2020-06-03T06:51:21.000Z</time>
      </trkpt>
      <trkpt lat="43.54422" lon="1.45592">
        <ele>233.80000305176</ele>
        <time>2020-06-03T06:51:28.000Z</time>
      </trkpt>
      <trkpt lat="43.54416" lon="1.45603">
        <ele>233.80000305176</ele>
        <time>2020-06-03T06:51:30.000Z</time>
      </trkpt>
      <trkpt lat="43.54384" lon="1.45649">
        <ele>232.60000610352</ele>
        <time>2020-06-03T06:51:38.000Z</time>
      </trkpt>
      <trkpt lat="43.5438" lon="1.45656">
        <ele>232</ele>
        <time>2020-06-03T06:51:39.000Z</time>
      </trkpt>
      <trkpt lat="43.54364" lon="1.4568">
        <ele>231</ele>
        <time>2020-06-03T06:51:43.000Z</time>
      </trkpt>
      <trkpt lat="43.5434" lon="1.45718">
        <ele>230</ele>
        <time>2020-06-03T06:51:49.000Z</time>
      </trkpt>
      <trkpt lat="43.54301" lon="1.45779">
        <ele>229</ele>
        <time>2020-06-03T06:51:59.000Z</time>
      </trkpt>
      <trkpt lat="43.54263" lon="1.45838">
        <ele>228.60000610352</ele>
        <time>2020-06-03T06:52:10.000Z</time>
      </trkpt>
      <trkpt lat="43.54229" lon="1.45897">
        <ele>229.39999389648</ele>
        <time>2020-06-03T06:52:22.000Z</time>
      </trkpt>
      <trkpt lat="43.5422" lon="1.45918">
        <ele>230.60000610352</ele>
        <time>2020-06-03T06:52:26.000Z</time>
      </trkpt>
      <trkpt lat="43.54211" lon="1.4594">
        <ele>231</ele>
        <time>2020-06-03T06:52:30.000Z</time>
      </trkpt>
      <trkpt lat="43.54204" lon="1.45964">
        <ele>231.60000610352</ele>
        <time>2020-06-03T06:52:34.000Z</time>
      </trkpt>
      <trkpt lat="43.54199" lon="1.45981">
        <ele>231.80000305176</ele>
        <time>2020-06-03T06:52:37.000Z</time>
      </trkpt>
      <trkpt lat="43.54191" lon="1.45996">
        <ele>231.80000305176</ele>
        <time>2020-06-03T06:52:40.000Z</time>
      </trkpt>
      <trkpt lat="43.54184" lon="1.46011">
        <ele>232</ele>
        <time>2020-06-03T06:52:43.000Z</time>
      </trkpt>
      <trkpt lat="43.54174" lon="1.46031">
        <ele>232</ele>
        <time>2020-06-03T06:52:47.000Z</time>
      </trkpt>
      <trkpt lat="43.54161" lon="1.46066">
        <ele>232</ele>
        <time>2020-06-03T06:52:53.000Z</time>
      </trkpt>
      <trkpt lat="43.5413" lon="1.46127">
        <ele>231</ele>
        <time>2020-06-03T06:53:03.000Z</time>
      </trkpt>
      <trkpt lat="43.54127" lon="1.46134">
        <ele>230.60000610352</ele>
        <time>2020-06-03T06:53:04.000Z</time>
      </trkpt>
      <trkpt lat="43.54109" lon="1.4617">
        <ele>229.39999389648</ele>
        <time>2020-06-03T06:53:09.000Z</time>
      </trkpt>
      <trkpt lat="43.54093" lon="1.46199">
        <ele>228.60000610352</ele>
        <time>2020-06-03T06:53:13.000Z</time>
      </trkpt>
      <trkpt lat="43.54085" lon="1.46214">
        <ele>228</ele>
        <time>2020-06-03T06:53:15.000Z</time>
      </trkpt>
      <trkpt lat="43.54077" lon="1.46228">
        <ele>227.39999389648</ele>
        <time>2020-06-03T06:53:17.000Z</time>
      </trkpt>
      <trkpt lat="43.54052" lon="1.46268">
        <ele>226.39999389648</ele>
        <time>2020-06-03T06:53:23.000Z</time>
      </trkpt>
      <trkpt lat="43.54048" lon="1.46275">
        <ele>226.19999694824</ele>
        <time>2020-06-03T06:53:24.000Z</time>
      </trkpt>
      <trkpt lat="43.54026" lon="1.46294">
        <ele>225.60000610352</ele>
        <time>2020-06-03T06:53:28.000Z</time>
      </trkpt>
      <trkpt lat="43.54021" lon="1.46299">
        <ele>225.39999389648</ele>
        <time>2020-06-03T06:53:29.000Z</time>
      </trkpt>
      <trkpt lat="43.54002" lon="1.46325">
        <ele>224.19999694824</ele>
        <time>2020-06-03T06:53:33.000Z</time>
      </trkpt>
      <trkpt lat="43.53997" lon="1.46331">
        <ele>223.19999694824</ele>
        <time>2020-06-03T06:53:34.000Z</time>
      </trkpt>
      <trkpt lat="43.53979" lon="1.46357">
        <ele>222</ele>
        <time>2020-06-03T06:53:38.000Z</time>
      </trkpt>
      <trkpt lat="43.53971" lon="1.46369">
        <ele>222</ele>
        <time>2020-06-03T06:53:40.000Z</time>
      </trkpt>
      <trkpt lat="43.53962" lon="1.4638">
        <ele>221.39999389648</ele>
        <time>2020-06-03T06:53:42.000Z</time>
      </trkpt>
      <trkpt lat="43.53935" lon="1.4642">
        <ele>221.19999694824</ele>
        <time>2020-06-03T06:53:48.000Z</time>
      </trkpt>
      <trkpt lat="43.53909" lon="1.46468">
        <ele>220.19999694824</ele>
        <time>2020-06-03T06:53:54.000Z</time>
      </trkpt>
      <trkpt lat="43.53877" lon="1.46524">
        <ele>219</ele>
        <time>2020-06-03T06:54:01.000Z</time>
      </trkpt>
      <trkpt lat="43.53869" lon="1.46541">
        <ele>218.39999389648</ele>
        <time>2020-06-03T06:54:03.000Z</time>
      </trkpt>
      <trkpt lat="43.53861" lon="1.46554">
        <ele>217.60000610352</ele>
        <time>2020-06-03T06:54:05.000Z</time>
      </trkpt>
      <trkpt lat="43.5384" lon="1.46589">
        <ele>216.39999389648</ele>
        <time>2020-06-03T06:54:10.000Z</time>
      </trkpt>
      <trkpt lat="43.53821" lon="1.46617">
        <ele>215.19999694824</ele>
        <time>2020-06-03T06:54:14.000Z</time>
      </trkpt>
      <trkpt lat="43.53806" lon="1.46639">
        <ele>214.19999694824</ele>
        <time>2020-06-03T06:54:17.000Z</time>
      </trkpt>
      <trkpt lat="43.5379" lon="1.46661">
        <ele>213.19999694824</ele>
        <time>2020-06-03T06:54:20.000Z</time>
      </trkpt>
      <trkpt lat="43.53785" lon="1.46668">
        <ele>213</ele>
        <time>2020-06-03T06:54:21.000Z</time>
      </trkpt>
      <trkpt lat="43.53752" lon="1.46713">
        <ele>212</ele>
        <time>2020-06-03T06:54:27.000Z</time>
      </trkpt>
      <trkpt lat="43.53722" lon="1.46757">
        <ele>210.80000305176</ele>
        <time>2020-06-03T06:54:33.000Z</time>
      </trkpt>
      <trkpt lat="43.53705" lon="1.4679">
        <ele>209.60000610352</ele>
        <time>2020-06-03T06:54:37.000Z</time>
      </trkpt>
      <trkpt lat="43.53678" lon="1.46834">
        <ele>208.80000305176</ele>
        <time>2020-06-03T06:54:43.000Z</time>
      </trkpt>
      <trkpt lat="43.5366" lon="1.4684">
        <ele>208.60000610352</ele>
        <time>2020-06-03T06:54:46.000Z</time>
      </trkpt>
      <trkpt lat="43.53655" lon="1.4684">
        <ele>208.60000610352</ele>
        <time>2020-06-03T06:54:47.000Z</time>
      </trkpt>
      <trkpt lat="43.53624" lon="1.46835">
        <ele>209</ele>
        <time>2020-06-03T06:54:54.000Z</time>
      </trkpt>
      <trkpt lat="43.53614" lon="1.4683">
        <ele>209.80000305176</ele>
        <time>2020-06-03T06:54:57.000Z</time>
      </trkpt>
      <trkpt lat="43.53604" lon="1.46826">
        <ele>210.60000610352</ele>
        <time>2020-06-03T06:55:00.000Z</time>
      </trkpt>
      <trkpt lat="43.53602" lon="1.46822">
        <ele>211</ele>
        <time>2020-06-03T06:55:01.000Z</time>
      </trkpt>
      <trkpt lat="43.53596" lon="1.46813">
        <ele>212.19999694824</ele>
        <time>2020-06-03T06:55:04.000Z</time>
      </trkpt>
      <trkpt lat="43.53594" lon="1.46811">
        <ele>212.60000610352</ele>
        <time>2020-06-03T06:55:05.000Z</time>
      </trkpt>
      <trkpt lat="43.53589" lon="1.46811">
        <ele>213.19999694824</ele>
        <time>2020-06-03T06:55:07.000Z</time>
      </trkpt>
      <trkpt lat="43.53581" lon="1.46817">
        <ele>214.39999389648</ele>
        <time>2020-06-03T06:55:10.000Z</time>
      </trkpt>
      <trkpt lat="43.53578" lon="1.46829">
        <ele>215</ele>
        <time>2020-06-03T06:55:13.000Z</time>
      </trkpt>
      <trkpt lat="43.53545" lon="1.46888">
        <ele>215</ele>
        <time>2020-06-03T06:55:28.000Z</time>
      </trkpt>
      <trkpt lat="43.5351" lon="1.46947">
        <ele>213.80000305176</ele>
        <time>2020-06-03T06:55:41.000Z</time>
      </trkpt>
      <trkpt lat="43.53498" lon="1.46965">
        <ele>213.60000610352</ele>
        <time>2020-06-03T06:55:45.000Z</time>
      </trkpt>
      <trkpt lat="43.53476" lon="1.46999">
        <ele>213.39999389648</ele>
        <time>2020-06-03T06:55:52.000Z</time>
      </trkpt>
      <trkpt lat="43.53453" lon="1.47007">
        <ele>213.39999389648</ele>
        <time>2020-06-03T06:55:59.000Z</time>
      </trkpt>
      <trkpt lat="43.53449" lon="1.47007">
        <ele>213.39999389648</ele>
        <time>2020-06-03T06:56:01.000Z</time>
      </trkpt>
      <trkpt lat="43.53447" lon="1.47008">
        <ele>213.80000305176</ele>
        <time>2020-06-03T06:56:06.000Z</time>
      </trkpt>
      <trkpt lat="43.5344" lon="1.47022">
        <ele>214.39999389648</ele>
        <time>2020-06-03T06:56:13.000Z</time>
      </trkpt>
      <trkpt lat="43.53445" lon="1.47051">
        <ele>214.60000610352</ele>
        <time>2020-06-03T06:56:20.000Z</time>
      </trkpt>
      <trkpt lat="43.53435" lon="1.47071">
        <ele>214.19999694824</ele>
        <time>2020-06-03T06:56:24.000Z</time>
      </trkpt>
      <trkpt lat="43.53433" lon="1.47076">
        <ele>214</ele>
        <time>2020-06-03T06:56:25.000Z</time>
      </trkpt>
      <trkpt lat="43.53441" lon="1.471">
        <ele>212.80000305176</ele>
        <time>2020-06-03T06:56:30.000Z</time>
      </trkpt>
      <trkpt lat="43.53445" lon="1.47105">
        <ele>212.39999389648</ele>
        <time>2020-06-03T06:56:31.000Z</time>
      </trkpt>
      <trkpt lat="43.53473" lon="1.47141">
        <ele>211.19999694824</ele>
        <time>2020-06-03T06:56:38.000Z</time>
      </trkpt>
      <trkpt lat="43.53477" lon="1.47163">
        <ele>210</ele>
        <time>2020-06-03T06:56:41.000Z</time>
      </trkpt>
      <trkpt lat="43.53474" lon="1.4718">
        <ele>209.19999694824</ele>
        <time>2020-06-03T06:56:43.000Z</time>
      </trkpt>
      <trkpt lat="43.5347" lon="1.47197">
        <ele>209</ele>
        <time>2020-06-03T06:56:45.000Z</time>
      </trkpt>
      <trkpt lat="43.53462" lon="1.47231">
        <ele>207.60000610352</ele>
        <time>2020-06-03T06:56:49.000Z</time>
      </trkpt>
      <trkpt lat="43.53455" lon="1.4726">
        <ele>206.60000610352</ele>
        <time>2020-06-03T06:56:54.000Z</time>
      </trkpt>
      <trkpt lat="43.53464" lon="1.47278">
        <ele>206.39999389648</ele>
        <time>2020-06-03T06:56:58.000Z</time>
      </trkpt>
      <trkpt lat="43.53494" lon="1.47314">
        <ele>205.60000610352</ele>
        <time>2020-06-03T06:57:06.000Z</time>
      </trkpt>
      <trkpt lat="43.53509" lon="1.47334">
        <ele>204.39999389648</ele>
        <time>2020-06-03T06:57:10.000Z</time>
      </trkpt>
      <trkpt lat="43.53516" lon="1.4735">
        <ele>204.39999389648</ele>
        <time>2020-06-03T06:57:14.000Z</time>
      </trkpt>
      <trkpt lat="43.53503" lon="1.47371">
        <ele>204.39999389648</ele>
        <time>2020-06-03T06:57:20.000Z</time>
      </trkpt>
      <trkpt lat="43.53453" lon="1.47404">
        <ele>204.19999694824</ele>
        <time>2020-06-03T06:57:33.000Z</time>
      </trkpt>
      <trkpt lat="43.53402" lon="1.47434">
        <ele>204</ele>
        <time>2020-06-03T06:57:46.000Z</time>
      </trkpt>
      <trkpt lat="43.53355" lon="1.47479">
        <ele>204</ele>
        <time>2020-06-03T06:57:59.000Z</time>
      </trkpt>
      <trkpt lat="43.53311" lon="1.4753">
        <ele>204.19999694824</ele>
        <time>2020-06-03T06:58:11.000Z</time>
      </trkpt>
      <trkpt lat="43.53288" lon="1.4756">
        <ele>203.80000305176</ele>
        <time>2020-06-03T06:58:17.000Z</time>
      </trkpt>
      <trkpt lat="43.5325" lon="1.47614">
        <ele>203</ele>
        <time>2020-06-03T06:58:27.000Z</time>
      </trkpt>
      <trkpt lat="43.53242" lon="1.47625">
        <ele>202.80000305176</ele>
        <time>2020-06-03T06:58:29.000Z</time>
      </trkpt>
      <trkpt lat="43.53201" lon="1.47683">
        <ele>202</ele>
        <time>2020-06-03T06:58:40.000Z</time>
      </trkpt>
      <trkpt lat="43.53191" lon="1.47696">
        <ele>202</ele>
        <time>2020-06-03T06:58:43.000Z</time>
      </trkpt>
      <trkpt lat="43.53183" lon="1.47702">
        <ele>202</ele>
        <time>2020-06-03T06:58:45.000Z</time>
      </trkpt>
      <trkpt lat="43.53168" lon="1.47705">
        <ele>201.60000610352</ele>
        <time>2020-06-03T06:58:48.000Z</time>
      </trkpt>
      <trkpt lat="43.53113" lon="1.47701">
        <ele>200.80000305176</ele>
        <time>2020-06-03T06:59:00.000Z</time>
      </trkpt>
      <trkpt lat="43.53057" lon="1.47696">
        <ele>201.19999694824</ele>
        <time>2020-06-03T06:59:12.000Z</time>
      </trkpt>
      <trkpt lat="43.53005" lon="1.47668">
        <ele>202</ele>
        <time>2020-06-03T06:59:26.000Z</time>
      </trkpt>
      <trkpt lat="43.52993" lon="1.47658">
        <ele>203</ele>
        <time>2020-06-03T06:59:30.000Z</time>
      </trkpt>
      <trkpt lat="43.52976" lon="1.47643">
        <ele>204.19999694824</ele>
        <time>2020-06-03T06:59:36.000Z</time>
      </trkpt>
      <trkpt lat="43.52966" lon="1.47634">
        <ele>205.60000610352</ele>
        <time>2020-06-03T06:59:40.000Z</time>
      </trkpt>
      <trkpt lat="43.52954" lon="1.47623">
        <ele>206.80000305176</ele>
        <time>2020-06-03T06:59:45.000Z</time>
      </trkpt>
      <trkpt lat="43.52945" lon="1.47613">
        <ele>208</ele>
        <time>2020-06-03T06:59:49.000Z</time>
      </trkpt>
      <trkpt lat="43.52937" lon="1.47603">
        <ele>209</ele>
        <time>2020-06-03T06:59:53.000Z</time>
      </trkpt>
      <trkpt lat="43.5293" lon="1.47592">
        <ele>210.19999694824</ele>
        <time>2020-06-03T06:59:57.000Z</time>
      </trkpt>
      <trkpt lat="43.52924" lon="1.47584">
        <ele>211.19999694824</ele>
        <time>2020-06-03T07:00:00.000Z</time>
      </trkpt>
      <trkpt lat="43.52914" lon="1.47577">
        <ele>212.19999694824</ele>
        <time>2020-06-03T07:00:04.000Z</time>
      </trkpt>
      <trkpt lat="43.52904" lon="1.47572">
        <ele>213.60000610352</ele>
        <time>2020-06-03T07:00:08.000Z</time>
      </trkpt>
      <trkpt lat="43.52895" lon="1.47569">
        <ele>214.80000305176</ele>
        <time>2020-06-03T07:00:11.000Z</time>
      </trkpt>
      <trkpt lat="43.52888" lon="1.4757">
        <ele>215.80000305176</ele>
        <time>2020-06-03T07:00:13.000Z</time>
      </trkpt>
      <trkpt lat="43.52867" lon="1.47589">
        <ele>216.80000305176</ele>
        <time>2020-06-03T07:00:20.000Z</time>
      </trkpt>
      <trkpt lat="43.52827" lon="1.47648">
        <ele>216.60000610352</ele>
        <time>2020-06-03T07:00:34.000Z</time>
      </trkpt>
      <trkpt lat="43.52804" lon="1.47687">
        <ele>216</ele>
        <time>2020-06-03T07:00:42.000Z</time>
      </trkpt>
      <trkpt lat="43.52783" lon="1.47719">
        <ele>215.80000305176</ele>
        <time>2020-06-03T07:00:48.000Z</time>
      </trkpt>
      <trkpt lat="43.5277" lon="1.47724">
        <ele>215.19999694824</ele>
        <time>2020-06-03T07:00:51.000Z</time>
      </trkpt>
      <trkpt lat="43.52716" lon="1.4771">
        <ele>214.80000305176</ele>
        <time>2020-06-03T07:01:05.000Z</time>
      </trkpt>
      <trkpt lat="43.52668" lon="1.4767">
        <ele>216.19999694824</ele>
        <time>2020-06-03T07:01:20.000Z</time>
      </trkpt>
      <trkpt lat="43.52654" lon="1.47654">
        <ele>216.39999389648</ele>
        <time>2020-06-03T07:01:25.000Z</time>
      </trkpt>
      <trkpt lat="43.5261" lon="1.47618">
        <ele>217.39999389648</ele>
        <time>2020-06-03T07:01:41.000Z</time>
      </trkpt>
      <trkpt lat="43.52606" lon="1.47618">
        <ele>217.60000610352</ele>
        <time>2020-06-03T07:01:42.000Z</time>
      </trkpt>
      <trkpt lat="43.52557" lon="1.47645">
        <ele>218.80000305176</ele>
        <time>2020-06-03T07:01:58.000Z</time>
      </trkpt>
      <trkpt lat="43.52536" lon="1.4766">
        <ele>220</ele>
        <time>2020-06-03T07:02:05.000Z</time>
      </trkpt>
      <trkpt lat="43.52516" lon="1.47677">
        <ele>221.19999694824</ele>
        <time>2020-06-03T07:02:12.000Z</time>
      </trkpt>
      <trkpt lat="43.52502" lon="1.47692">
        <ele>222.39999389648</ele>
        <time>2020-06-03T07:02:17.000Z</time>
      </trkpt>
      <trkpt lat="43.52482" lon="1.47715">
        <ele>223.60000610352</ele>
        <time>2020-06-03T07:02:26.000Z</time>
      </trkpt>
      <trkpt lat="43.52473" lon="1.47726">
        <ele>224.60000610352</ele>
        <time>2020-06-03T07:02:30.000Z</time>
      </trkpt>
      <trkpt lat="43.52447" lon="1.47756">
        <ele>225.60000610352</ele>
        <time>2020-06-03T07:02:41.000Z</time>
      </trkpt>
      <trkpt lat="43.52424" lon="1.47777">
        <ele>227</ele>
        <time>2020-06-03T07:02:51.000Z</time>
      </trkpt>
      <trkpt lat="43.52366" lon="1.4779">
        <ele>227.80000305176</ele>
        <time>2020-06-03T07:03:08.000Z</time>
      </trkpt>
      <trkpt lat="43.52359" lon="1.47788">
        <ele>228</ele>
        <time>2020-06-03T07:03:10.000Z</time>
      </trkpt>
      <trkpt lat="43.52311" lon="1.47792">
        <ele>229.19999694824</ele>
        <time>2020-06-03T07:03:26.000Z</time>
      </trkpt>
      <trkpt lat="43.52283" lon="1.47803">
        <ele>230.39999389648</ele>
        <time>2020-06-03T07:03:36.000Z</time>
      </trkpt>
      <trkpt lat="43.52272" lon="1.47809">
        <ele>231.39999389648</ele>
        <time>2020-06-03T07:03:41.000Z</time>
      </trkpt>
      <trkpt lat="43.52261" lon="1.47813">
        <ele>232.60000610352</ele>
        <time>2020-06-03T07:03:46.000Z</time>
      </trkpt>
      <trkpt lat="43.5224" lon="1.47821">
        <ele>233.60000610352</ele>
        <time>2020-06-03T07:03:55.000Z</time>
      </trkpt>
      <trkpt lat="43.52217" lon="1.47831">
        <ele>234.80000305176</ele>
        <time>2020-06-03T07:04:04.000Z</time>
      </trkpt>
      <trkpt lat="43.52204" lon="1.47835">
        <ele>235.80000305176</ele>
        <time>2020-06-03T07:04:09.000Z</time>
      </trkpt>
      <trkpt lat="43.5215" lon="1.47845">
        <ele>236.39999389648</ele>
        <time>2020-06-03T07:04:24.000Z</time>
      </trkpt>
      <trkpt lat="43.52096" lon="1.47852">
        <ele>236.80000305176</ele>
        <time>2020-06-03T07:04:41.000Z</time>
      </trkpt>
      <trkpt lat="43.52087" lon="1.47854">
        <ele>237.19999694824</ele>
        <time>2020-06-03T07:04:44.000Z</time>
      </trkpt>
      <trkpt lat="43.52055" lon="1.47859">
        <ele>238.19999694824</ele>
        <time>2020-06-03T07:04:57.000Z</time>
      </trkpt>
      <trkpt lat="43.52024" lon="1.47864">
        <ele>239.39999389648</ele>
        <time>2020-06-03T07:05:08.000Z</time>
      </trkpt>
      <trkpt lat="43.52004" lon="1.4787">
        <ele>240.60000610352</ele>
        <time>2020-06-03T07:05:16.000Z</time>
      </trkpt>
      <trkpt lat="43.5199" lon="1.47875">
        <ele>241.80000305176</ele>
        <time>2020-06-03T07:05:23.000Z</time>
      </trkpt>
      <trkpt lat="43.51979" lon="1.4788">
        <ele>243</ele>
        <time>2020-06-03T07:05:29.000Z</time>
      </trkpt>
      <trkpt lat="43.51971" lon="1.47884">
        <ele>244.19999694824</ele>
        <time>2020-06-03T07:05:34.000Z</time>
      </trkpt>
      <trkpt lat="43.5196" lon="1.47887">
        <ele>245.39999389648</ele>
        <time>2020-06-03T07:05:40.000Z</time>
      </trkpt>
      <trkpt lat="43.51942" lon="1.47889">
        <ele>246.39999389648</ele>
        <time>2020-06-03T07:05:47.000Z</time>
      </trkpt>
      <trkpt lat="43.51931" lon="1.47894">
        <ele>247.60000610352</ele>
        <time>2020-06-03T07:05:52.000Z</time>
      </trkpt>
      <trkpt lat="43.51922" lon="1.47892">
        <ele>248.80000305176</ele>
        <time>2020-06-03T07:05:56.000Z</time>
      </trkpt>
      <trkpt lat="43.51908" lon="1.47888">
        <ele>250.39999389648</ele>
        <time>2020-06-03T07:06:02.000Z</time>
      </trkpt>
      <trkpt lat="43.51901" lon="1.47885">
        <ele>251.39999389648</ele>
        <time>2020-06-03T07:06:06.000Z</time>
      </trkpt>
      <trkpt lat="43.51893" lon="1.47879">
        <ele>252.39999389648</ele>
        <time>2020-06-03T07:06:11.000Z</time>
      </trkpt>
      <trkpt lat="43.5188" lon="1.47866">
        <ele>253.39999389648</ele>
        <time>2020-06-03T07:06:18.000Z</time>
      </trkpt>
      <trkpt lat="43.5186" lon="1.47846">
        <ele>254.80000305176</ele>
        <time>2020-06-03T07:06:29.000Z</time>
      </trkpt>
      <trkpt lat="43.51844" lon="1.47826">
        <ele>255.80000305176</ele>
        <time>2020-06-03T07:06:38.000Z</time>
      </trkpt>
      <trkpt lat="43.51822" lon="1.47795">
        <ele>257</ele>
        <time>2020-06-03T07:06:54.000Z</time>
      </trkpt>
      <trkpt lat="43.51811" lon="1.4778">
        <ele>258.20001220703</ele>
        <time>2020-06-03T07:07:02.000Z</time>
      </trkpt>
      <trkpt lat="43.51801" lon="1.47766">
        <ele>259.20001220703</ele>
        <time>2020-06-03T07:07:09.000Z</time>
      </trkpt>
      <trkpt lat="43.5179" lon="1.47747">
        <ele>260.20001220703</ele>
        <time>2020-06-03T07:07:18.000Z</time>
      </trkpt>
      <trkpt lat="43.51776" lon="1.47724">
        <ele>261.39999389648</ele>
        <time>2020-06-03T07:07:30.000Z</time>
      </trkpt>
      <trkpt lat="43.51767" lon="1.47708">
        <ele>262.39999389648</ele>
        <time>2020-06-03T07:07:37.000Z</time>
      </trkpt>
      <trkpt lat="43.51762" lon="1.47699">
        <ele>263.39999389648</ele>
        <time>2020-06-03T07:07:42.000Z</time>
      </trkpt>
      <trkpt lat="43.51749" lon="1.47679">
        <ele>264.39999389648</ele>
        <time>2020-06-03T07:07:52.000Z</time>
      </trkpt>
      <trkpt lat="43.51746" lon="1.47675">
        <ele>264.60000610352</ele>
        <time>2020-06-03T07:07:54.000Z</time>
      </trkpt>
      <trkpt lat="43.5174" lon="1.47666">
        <ele>265.60000610352</ele>
        <time>2020-06-03T07:08:00.000Z</time>
      </trkpt>
      <trkpt lat="43.51738" lon="1.47663">
        <ele>266</ele>
        <time>2020-06-03T07:08:02.000Z</time>
      </trkpt>
      <trkpt lat="43.51729" lon="1.47658">
        <ele>266.60000610352</ele>
        <time>2020-06-03T07:08:07.000Z</time>
      </trkpt>
      <trkpt lat="43.51719" lon="1.47651">
        <ele>268</ele>
        <time>2020-06-03T07:08:12.000Z</time>
      </trkpt>
      <trkpt lat="43.51708" lon="1.47646">
        <ele>269</ele>
        <time>2020-06-03T07:08:16.000Z</time>
      </trkpt>
      <trkpt lat="43.51691" lon="1.47637">
        <ele>270</ele>
        <time>2020-06-03T07:08:22.000Z</time>
      </trkpt>
      <trkpt lat="43.51676" lon="1.47632">
        <ele>271.39999389648</ele>
        <time>2020-06-03T07:08:28.000Z</time>
      </trkpt>
      <trkpt lat="43.51659" lon="1.47625">
        <ele>272.20001220703</ele>
        <time>2020-06-03T07:08:35.000Z</time>
      </trkpt>
      <trkpt lat="43.5161" lon="1.47605">
        <ele>271.20001220703</ele>
        <time>2020-06-03T07:08:44.000Z</time>
      </trkpt>
      <trkpt lat="43.51594" lon="1.47598">
        <ele>270.20001220703</ele>
        <time>2020-06-03T07:08:46.000Z</time>
      </trkpt>
      <trkpt lat="43.51579" lon="1.47592">
        <ele>267.79998779297</ele>
        <time>2020-06-03T07:08:48.000Z</time>
      </trkpt>
      <trkpt lat="43.51563" lon="1.47587">
        <ele>266.79998779297</ele>
        <time>2020-06-03T07:08:50.000Z</time>
      </trkpt>
      <trkpt lat="43.51546" lon="1.47581">
        <ele>265.20001220703</ele>
        <time>2020-06-03T07:08:52.000Z</time>
      </trkpt>
      <trkpt lat="43.51529" lon="1.47577">
        <ele>263.79998779297</ele>
        <time>2020-06-03T07:08:54.000Z</time>
      </trkpt>
      <trkpt lat="43.51498" lon="1.47569">
        <ele>262.60000610352</ele>
        <time>2020-06-03T07:08:58.000Z</time>
      </trkpt>
      <trkpt lat="43.51479" lon="1.47566">
        <ele>261.39999389648</ele>
        <time>2020-06-03T07:09:01.000Z</time>
      </trkpt>
      <trkpt lat="43.51427" lon="1.47533">
        <ele>262.39999389648</ele>
        <time>2020-06-03T07:09:19.000Z</time>
      </trkpt>
      <trkpt lat="43.51401" lon="1.47519">
        <ele>263.79998779297</ele>
        <time>2020-06-03T07:09:27.000Z</time>
      </trkpt>
      <trkpt lat="43.51347" lon="1.47488">
        <ele>264.79998779297</ele>
        <time>2020-06-03T07:09:43.000Z</time>
      </trkpt>
      <trkpt lat="43.51321" lon="1.47473">
        <ele>265</ele>
        <time>2020-06-03T07:09:50.000Z</time>
      </trkpt>
      <trkpt lat="43.51264" lon="1.47452">
        <ele>265.20001220703</ele>
        <time>2020-06-03T07:10:04.000Z</time>
      </trkpt>
      <trkpt lat="43.5121" lon="1.47444">
        <ele>266</ele>
        <time>2020-06-03T07:10:17.000Z</time>
      </trkpt>
      <trkpt lat="43.51198" lon="1.47445">
        <ele>266.20001220703</ele>
        <time>2020-06-03T07:10:20.000Z</time>
      </trkpt>
      <trkpt lat="43.51141" lon="1.47462">
        <ele>267</ele>
        <time>2020-06-03T07:10:35.000Z</time>
      </trkpt>
      <trkpt lat="43.5113" lon="1.47462">
        <ele>267.20001220703</ele>
        <time>2020-06-03T07:10:38.000Z</time>
      </trkpt>
      <trkpt lat="43.51104" lon="1.47458">
        <ele>268.20001220703</ele>
        <time>2020-06-03T07:10:46.000Z</time>
      </trkpt>
      <trkpt lat="43.51076" lon="1.47449">
        <ele>269.20001220703</ele>
        <time>2020-06-03T07:10:56.000Z</time>
      </trkpt>
      <trkpt lat="43.51063" lon="1.47444">
        <ele>270.39999389648</ele>
        <time>2020-06-03T07:11:02.000Z</time>
      </trkpt>
      <trkpt lat="43.51044" lon="1.47439">
        <ele>271.60000610352</ele>
        <time>2020-06-03T07:11:09.000Z</time>
      </trkpt>
      <trkpt lat="43.51027" lon="1.47435">
        <ele>272.60000610352</ele>
        <time>2020-06-03T07:11:16.000Z</time>
      </trkpt>
      <trkpt lat="43.51011" lon="1.47428">
        <ele>273.79998779297</ele>
        <time>2020-06-03T07:11:23.000Z</time>
      </trkpt>
      <trkpt lat="43.51" lon="1.47422">
        <ele>275</ele>
        <time>2020-06-03T07:11:28.000Z</time>
      </trkpt>
      <trkpt lat="43.50989" lon="1.47414">
        <ele>276.20001220703</ele>
        <time>2020-06-03T07:11:33.000Z</time>
      </trkpt>
      <trkpt lat="43.5098" lon="1.47406">
        <ele>277.39999389648</ele>
        <time>2020-06-03T07:11:38.000Z</time>
      </trkpt>
      <trkpt lat="43.50976" lon="1.47403">
        <ele>277.79998779297</ele>
        <time>2020-06-03T07:11:40.000Z</time>
      </trkpt>
      <trkpt lat="43.50967" lon="1.47407">
        <ele>278.39999389648</ele>
        <time>2020-06-03T07:11:43.000Z</time>
      </trkpt>
      <trkpt lat="43.50962" lon="1.47413">
        <ele>278.39999389648</ele>
        <time>2020-06-03T07:11:45.000Z</time>
      </trkpt>
      <trkpt lat="43.50916" lon="1.47469">
        <ele>278.79998779297</ele>
        <time>2020-06-03T07:12:03.000Z</time>
      </trkpt>
      <trkpt lat="43.50904" lon="1.47486">
        <ele>279.79998779297</ele>
        <time>2020-06-03T07:12:08.000Z</time>
      </trkpt>
      <trkpt lat="43.50882" lon="1.47522">
        <ele>280.79998779297</ele>
        <time>2020-06-03T07:12:18.000Z</time>
      </trkpt>
      <trkpt lat="43.50861" lon="1.4756">
        <ele>281.79998779297</ele>
        <time>2020-06-03T07:12:28.000Z</time>
      </trkpt>
      <trkpt lat="43.50825" lon="1.47621">
        <ele>282.79998779297</ele>
        <time>2020-06-03T07:12:43.000Z</time>
      </trkpt>
      <trkpt lat="43.50785" lon="1.47667">
        <ele>282.60000610352</ele>
        <time>2020-06-03T07:12:54.000Z</time>
      </trkpt>
      <trkpt lat="43.50738" lon="1.4772">
        <ele>281.39999389648</ele>
        <time>2020-06-03T07:13:04.000Z</time>
      </trkpt>
      <trkpt lat="43.50728" lon="1.47731">
        <ele>280.79998779297</ele>
        <time>2020-06-03T07:13:06.000Z</time>
      </trkpt>
      <trkpt lat="43.50688" lon="1.47776">
        <ele>279.60000610352</ele>
        <time>2020-06-03T07:13:14.000Z</time>
      </trkpt>
      <trkpt lat="43.50668" lon="1.47799">
        <ele>278.39999389648</ele>
        <time>2020-06-03T07:13:18.000Z</time>
      </trkpt>
      <trkpt lat="43.50643" lon="1.47826">
        <ele>277.39999389648</ele>
        <time>2020-06-03T07:13:23.000Z</time>
      </trkpt>
      <trkpt lat="43.50608" lon="1.47863">
        <ele>276.39999389648</ele>
        <time>2020-06-03T07:13:30.000Z</time>
      </trkpt>
      <trkpt lat="43.50562" lon="1.47908">
        <ele>276.39999389648</ele>
        <time>2020-06-03T07:13:40.000Z</time>
      </trkpt>
      <trkpt lat="43.50518" lon="1.47957">
        <ele>277.20001220703</ele>
        <time>2020-06-03T07:13:51.000Z</time>
      </trkpt>
      <trkpt lat="43.50509" lon="1.47965">
        <ele>277.39999389648</ele>
        <time>2020-06-03T07:13:53.000Z</time>
      </trkpt>
      <trkpt lat="43.50469" lon="1.48021">
        <ele>278.20001220703</ele>
        <time>2020-06-03T07:14:04.000Z</time>
      </trkpt>
      <trkpt lat="43.50454" lon="1.48045">
        <ele>278.60000610352</ele>
        <time>2020-06-03T07:14:09.000Z</time>
      </trkpt>
      <trkpt lat="43.50429" lon="1.48077">
        <ele>279.79998779297</ele>
        <time>2020-06-03T07:14:17.000Z</time>
      </trkpt>
      <trkpt lat="43.50404" lon="1.48104">
        <ele>281</ele>
        <time>2020-06-03T07:14:26.000Z</time>
      </trkpt>
      <trkpt lat="43.5036" lon="1.48148">
        <ele>280.79998779297</ele>
        <time>2020-06-03T07:14:35.000Z</time>
      </trkpt>
      <trkpt lat="43.5034" lon="1.48167">
        <ele>280</ele>
        <time>2020-06-03T07:14:38.000Z</time>
      </trkpt>
      <trkpt lat="43.50319" lon="1.48189">
        <ele>278.20001220703</ele>
        <time>2020-06-03T07:14:41.000Z</time>
      </trkpt>
      <trkpt lat="43.50304" lon="1.48205">
        <ele>276.79998779297</ele>
        <time>2020-06-03T07:14:43.000Z</time>
      </trkpt>
      <trkpt lat="43.50288" lon="1.48221">
        <ele>275.20001220703</ele>
        <time>2020-06-03T07:14:45.000Z</time>
      </trkpt>
      <trkpt lat="43.50264" lon="1.48247">
        <ele>273.39999389648</ele>
        <time>2020-06-03T07:14:48.000Z</time>
      </trkpt>
      <trkpt lat="43.50257" lon="1.48257">
        <ele>272.39999389648</ele>
        <time>2020-06-03T07:14:49.000Z</time>
      </trkpt>
      <trkpt lat="43.50249" lon="1.48266">
        <ele>271.39999389648</ele>
        <time>2020-06-03T07:14:50.000Z</time>
      </trkpt>
      <trkpt lat="43.50233" lon="1.48286">
        <ele>269.60000610352</ele>
        <time>2020-06-03T07:14:52.000Z</time>
      </trkpt>
      <trkpt lat="43.50216" lon="1.48305">
        <ele>268</ele>
        <time>2020-06-03T07:14:54.000Z</time>
      </trkpt>
      <trkpt lat="43.50199" lon="1.48325">
        <ele>266.60000610352</ele>
        <time>2020-06-03T07:14:56.000Z</time>
      </trkpt>
      <trkpt lat="43.50183" lon="1.48346">
        <ele>265</ele>
        <time>2020-06-03T07:14:58.000Z</time>
      </trkpt>
      <trkpt lat="43.50166" lon="1.48365">
        <ele>263.20001220703</ele>
        <time>2020-06-03T07:15:00.000Z</time>
      </trkpt>
      <trkpt lat="43.50158" lon="1.48375">
        <ele>262.20001220703</ele>
        <time>2020-06-03T07:15:01.000Z</time>
      </trkpt>
      <trkpt lat="43.50142" lon="1.48394">
        <ele>260.39999389648</ele>
        <time>2020-06-03T07:15:03.000Z</time>
      </trkpt>
      <trkpt lat="43.50134" lon="1.48403">
        <ele>259</ele>
        <time>2020-06-03T07:15:04.000Z</time>
      </trkpt>
      <trkpt lat="43.50111" lon="1.4843">
        <ele>257.79998779297</ele>
        <time>2020-06-03T07:15:07.000Z</time>
      </trkpt>
      <trkpt lat="43.50065" lon="1.48484">
        <ele>257</ele>
        <time>2020-06-03T07:15:14.000Z</time>
      </trkpt>
      <trkpt lat="43.50022" lon="1.48514">
        <ele>259.20001220703</ele>
        <time>2020-06-03T07:15:22.000Z</time>
      </trkpt>
      <trkpt lat="43.50003" lon="1.48521">
        <ele>260.20001220703</ele>
        <time>2020-06-03T07:15:26.000Z</time>
      </trkpt>
      <trkpt lat="43.49983" lon="1.48528">
        <ele>261.20001220703</ele>
        <time>2020-06-03T07:15:31.000Z</time>
      </trkpt>
      <trkpt lat="43.49967" lon="1.48534">
        <ele>262.60000610352</ele>
        <time>2020-06-03T07:15:36.000Z</time>
      </trkpt>
      <trkpt lat="43.49962" lon="1.48535">
        <ele>263.60000610352</ele>
        <time>2020-06-03T07:15:38.000Z</time>
      </trkpt>
      <trkpt lat="43.49951" lon="1.48539">
        <ele>264.60000610352</ele>
        <time>2020-06-03T07:15:42.000Z</time>
      </trkpt>
      <trkpt lat="43.49941" lon="1.48543">
        <ele>265.79998779297</ele>
        <time>2020-06-03T07:15:46.000Z</time>
      </trkpt>
      <trkpt lat="43.49931" lon="1.48547">
        <ele>267</ele>
        <time>2020-06-03T07:15:50.000Z</time>
      </trkpt>
      <trkpt lat="43.4992" lon="1.48552">
        <ele>268</ele>
        <time>2020-06-03T07:15:54.000Z</time>
      </trkpt>
      <trkpt lat="43.4991" lon="1.48556">
        <ele>269.20001220703</ele>
        <time>2020-06-03T07:15:58.000Z</time>
      </trkpt>
      <trkpt lat="43.49905" lon="1.48557">
        <ele>269.39999389648</ele>
        <time>2020-06-03T07:16:00.000Z</time>
      </trkpt>
      <trkpt lat="43.49898" lon="1.48559">
        <ele>270.20001220703</ele>
        <time>2020-06-03T07:16:03.000Z</time>
      </trkpt>
      <trkpt lat="43.49886" lon="1.48561">
        <ele>271.39999389648</ele>
        <time>2020-06-03T07:16:08.000Z</time>
      </trkpt>
      <trkpt lat="43.49876" lon="1.4856">
        <ele>272.60000610352</ele>
        <time>2020-06-03T07:16:12.000Z</time>
      </trkpt>
      <trkpt lat="43.49862" lon="1.48558">
        <ele>273.79998779297</ele>
        <time>2020-06-03T07:16:17.000Z</time>
      </trkpt>
      <trkpt lat="43.49847" lon="1.48555">
        <ele>275</ele>
        <time>2020-06-03T07:16:22.000Z</time>
      </trkpt>
      <trkpt lat="43.49837" lon="1.48555">
        <ele>275.20001220703</ele>
        <time>2020-06-03T07:16:25.000Z</time>
      </trkpt>
      <trkpt lat="43.49814" lon="1.48567">
        <ele>275.20001220703</ele>
        <time>2020-06-03T07:16:30.000Z</time>
      </trkpt>
      <trkpt lat="43.49785" lon="1.486">
        <ele>274</ele>
        <time>2020-06-03T07:16:36.000Z</time>
      </trkpt>
      <trkpt lat="43.4977" lon="1.48623">
        <ele>272.79998779297</ele>
        <time>2020-06-03T07:16:39.000Z</time>
      </trkpt>
      <trkpt lat="43.49753" lon="1.48648">
        <ele>271.39999389648</ele>
        <time>2020-06-03T07:16:42.000Z</time>
      </trkpt>
      <trkpt lat="43.49728" lon="1.48685">
        <ele>270.20001220703</ele>
        <time>2020-06-03T07:16:46.000Z</time>
      </trkpt>
      <trkpt lat="43.49714" lon="1.48705">
        <ele>268.60000610352</ele>
        <time>2020-06-03T07:16:48.000Z</time>
      </trkpt>
      <trkpt lat="43.497" lon="1.48724">
        <ele>267</ele>
        <time>2020-06-03T07:16:50.000Z</time>
      </trkpt>
      <trkpt lat="43.49686" lon="1.48743">
        <ele>265.60000610352</ele>
        <time>2020-06-03T07:16:52.000Z</time>
      </trkpt>
      <trkpt lat="43.49665" lon="1.48772">
        <ele>263.79998779297</ele>
        <time>2020-06-03T07:16:55.000Z</time>
      </trkpt>
      <trkpt lat="43.49651" lon="1.4879">
        <ele>262</ele>
        <time>2020-06-03T07:16:57.000Z</time>
      </trkpt>
      <trkpt lat="43.49637" lon="1.48808">
        <ele>260.79998779297</ele>
        <time>2020-06-03T07:16:59.000Z</time>
      </trkpt>
      <trkpt lat="43.49591" lon="1.48871">
        <ele>259.79998779297</ele>
        <time>2020-06-03T07:17:07.000Z</time>
      </trkpt>
      <trkpt lat="43.4955" lon="1.48931">
        <ele>261.60000610352</ele>
        <time>2020-06-03T07:17:16.000Z</time>
      </trkpt>
      <trkpt lat="43.49546" lon="1.48937">
        <ele>262</ele>
        <time>2020-06-03T07:17:17.000Z</time>
      </trkpt>
      <trkpt lat="43.49518" lon="1.48971">
        <ele>263.20001220703</ele>
        <time>2020-06-03T07:17:23.000Z</time>
      </trkpt>
      <trkpt lat="43.49478" lon="1.4901">
        <ele>264.39999389648</ele>
        <time>2020-06-03T07:17:32.000Z</time>
      </trkpt>
      <trkpt lat="43.49462" lon="1.49026">
        <ele>265.39999389648</ele>
        <time>2020-06-03T07:17:36.000Z</time>
      </trkpt>
      <trkpt lat="43.49434" lon="1.49058">
        <ele>266.39999389648</ele>
        <time>2020-06-03T07:17:44.000Z</time>
      </trkpt>
      <trkpt lat="43.49418" lon="1.49076">
        <ele>267.60000610352</ele>
        <time>2020-06-03T07:17:49.000Z</time>
      </trkpt>
      <trkpt lat="43.49394" lon="1.49105">
        <ele>268.60000610352</ele>
        <time>2020-06-03T07:17:58.000Z</time>
      </trkpt>
      <trkpt lat="43.49382" lon="1.49118">
        <ele>269.60000610352</ele>
        <time>2020-06-03T07:18:03.000Z</time>
      </trkpt>
      <trkpt lat="43.4937" lon="1.49133">
        <ele>270.79998779297</ele>
        <time>2020-06-03T07:18:10.000Z</time>
      </trkpt>
      <trkpt lat="43.49356" lon="1.49148">
        <ele>272</ele>
        <time>2020-06-03T07:18:18.000Z</time>
      </trkpt>
      <trkpt lat="43.49341" lon="1.49164">
        <ele>273</ele>
        <time>2020-06-03T07:18:27.000Z</time>
      </trkpt>
      <trkpt lat="43.49332" lon="1.49175">
        <ele>274.20001220703</ele>
        <time>2020-06-03T07:18:33.000Z</time>
      </trkpt>
      <trkpt lat="43.49317" lon="1.49192">
        <ele>275.39999389648</ele>
        <time>2020-06-03T07:18:43.000Z</time>
      </trkpt>
      <trkpt lat="43.49301" lon="1.49214">
        <ele>276.60000610352</ele>
        <time>2020-06-03T07:18:53.000Z</time>
      </trkpt>
      <trkpt lat="43.4929" lon="1.49233">
        <ele>270</ele>
        <time>2020-06-03T07:19:02.000Z</time>
      </trkpt>
      <trkpt lat="43.49279" lon="1.49248">
        <ele>278.60000610352</ele>
        <time>2020-06-03T07:19:10.000Z</time>
      </trkpt>
      <trkpt lat="43.49262" lon="1.49272">
        <ele>279.60000610352</ele>
        <time>2020-06-03T07:19:21.000Z</time>
      </trkpt>
      <trkpt lat="43.49241" lon="1.49302">
        <ele>280.60000610352</ele>
        <time>2020-06-03T07:19:34.000Z</time>
      </trkpt>
      <trkpt lat="43.49226" lon="1.4932">
        <ele>281.60000610352</ele>
        <time>2020-06-03T07:19:42.000Z</time>
      </trkpt>
      <trkpt lat="43.49211" lon="1.4934">
        <ele>282.79998779297</ele>
        <time>2020-06-03T07:19:50.000Z</time>
      </trkpt>
      <trkpt lat="43.49169" lon="1.49385">
        <ele>283.79998779297</ele>
        <time>2020-06-03T07:20:06.000Z</time>
      </trkpt>
      <trkpt lat="43.49133" lon="1.4944">
        <ele>283.79998779297</ele>
        <time>2020-06-03T07:20:19.000Z</time>
      </trkpt>
      <trkpt lat="43.49112" lon="1.49493">
        <ele>284</ele>
        <time>2020-06-03T07:20:29.000Z</time>
      </trkpt>
      <trkpt lat="43.4909" lon="1.49567">
        <ele>285</ele>
        <time>2020-06-03T07:20:43.000Z</time>
      </trkpt>
      <trkpt lat="43.49067" lon="1.49639">
        <ele>285.79998779297</ele>
        <time>2020-06-03T07:20:56.000Z</time>
      </trkpt>
      <trkpt lat="43.49043" lon="1.49706">
        <ele>285.79998779297</ele>
        <time>2020-06-03T07:21:08.000Z</time>
      </trkpt>
      <trkpt lat="43.49017" lon="1.49777">
        <ele>285</ele>
        <time>2020-06-03T07:21:20.000Z</time>
      </trkpt>
      <trkpt lat="43.49009" lon="1.49805">
        <ele>284.39999389648</ele>
        <time>2020-06-03T07:21:28.000Z</time>
      </trkpt>
      <trkpt lat="43.49008" lon="1.49806">
        <ele>283.79998779297</ele>
        <time>2020-06-03T07:23:48.000Z</time>
      </trkpt>
      <trkpt lat="43.49007" lon="1.49806">
        <ele>283.79998779297</ele>
        <time>2020-06-03T07:23:49.000Z</time>
      </trkpt>
      <trkpt lat="43.48997" lon="1.49818">
        <ele>283.60000610352</ele>
        <time>2020-06-03T07:23:53.000Z</time>
      </trkpt>
      <trkpt lat="43.48966" lon="1.49878">
        <ele>282.60000610352</ele>
        <time>2020-06-03T07:24:02.000Z</time>
      </trkpt>
      <trkpt lat="43.48947" lon="1.49913">
        <ele>280.79998779297</ele>
        <time>2020-06-03T07:24:06.000Z</time>
      </trkpt>
      <trkpt lat="43.48937" lon="1.4993">
        <ele>279.60000610352</ele>
        <time>2020-06-03T07:24:08.000Z</time>
      </trkpt>
      <trkpt lat="43.48919" lon="1.49953">
        <ele>278.39999389648</ele>
        <time>2020-06-03T07:24:11.000Z</time>
      </trkpt>
      <trkpt lat="43.48913" lon="1.4996">
        <ele>277.60000610352</ele>
        <time>2020-06-03T07:24:12.000Z</time>
      </trkpt>
      <trkpt lat="43.48905" lon="1.49966">
        <ele>277</ele>
        <time>2020-06-03T07:24:13.000Z</time>
      </trkpt>
      <trkpt lat="43.48879" lon="1.49977">
        <ele>276</ele>
        <time>2020-06-03T07:24:17.000Z</time>
      </trkpt>
      <trkpt lat="43.48857" lon="1.49987">
        <ele>274.79998779297</ele>
        <time>2020-06-03T07:24:21.000Z</time>
      </trkpt>
      <trkpt lat="43.48804" lon="1.50011">
        <ele>274</ele>
        <time>2020-06-03T07:24:33.000Z</time>
      </trkpt>
      <trkpt lat="43.4879" lon="1.5002">
        <ele>273.79998779297</ele>
        <time>2020-06-03T07:24:36.000Z</time>
      </trkpt>
      <trkpt lat="43.48746" lon="1.50052">
        <ele>272.60000610352</ele>
        <time>2020-06-03T07:24:46.000Z</time>
      </trkpt>
      <trkpt lat="43.48695" lon="1.50089">
        <ele>271.79998779297</ele>
        <time>2020-06-03T07:24:57.000Z</time>
      </trkpt>
      <trkpt lat="43.48686" lon="1.50097">
        <ele>271.60000610352</ele>
        <time>2020-06-03T07:24:59.000Z</time>
      </trkpt>
      <trkpt lat="43.48637" lon="1.50131">
        <ele>271.20001220703</ele>
        <time>2020-06-03T07:25:09.000Z</time>
      </trkpt>
      <trkpt lat="43.4859" lon="1.50166">
        <ele>271.20001220703</ele>
        <time>2020-06-03T07:25:19.000Z</time>
      </trkpt>
      <trkpt lat="43.48543" lon="1.50198">
        <ele>271.39999389648</ele>
        <time>2020-06-03T07:25:29.000Z</time>
      </trkpt>
      <trkpt lat="43.4849" lon="1.50225">
        <ele>270.79998779297</ele>
        <time>2020-06-03T07:25:37.000Z</time>
      </trkpt>
      <trkpt lat="43.48482" lon="1.50228">
        <ele>270.39999389648</ele>
        <time>2020-06-03T07:25:38.000Z</time>
      </trkpt>
      <trkpt lat="43.48459" lon="1.5024">
        <ele>269.20001220703</ele>
        <time>2020-06-03T07:25:41.000Z</time>
      </trkpt>
      <trkpt lat="43.48444" lon="1.50249">
        <ele>268.20001220703</ele>
        <time>2020-06-03T07:25:43.000Z</time>
      </trkpt>
      <trkpt lat="43.48429" lon="1.50258">
        <ele>266.79998779297</ele>
        <time>2020-06-03T07:25:45.000Z</time>
      </trkpt>
      <trkpt lat="43.48415" lon="1.50268">
        <ele>265.79998779297</ele>
        <time>2020-06-03T07:25:47.000Z</time>
      </trkpt>
      <trkpt lat="43.484" lon="1.50278">
        <ele>264.60000610352</ele>
        <time>2020-06-03T07:25:49.000Z</time>
      </trkpt>
      <trkpt lat="43.4836" lon="1.50308">
        <ele>263.39999389648</ele>
        <time>2020-06-03T07:25:55.000Z</time>
      </trkpt>
      <trkpt lat="43.48342" lon="1.50323">
        <ele>262.39999389648</ele>
        <time>2020-06-03T07:25:58.000Z</time>
      </trkpt>
      <trkpt lat="43.48293" lon="1.50362">
        <ele>262</ele>
        <time>2020-06-03T07:26:07.000Z</time>
      </trkpt>
      <trkpt lat="43.48262" lon="1.50384">
        <ele>262</ele>
        <time>2020-06-03T07:26:17.000Z</time>
      </trkpt>
      <trkpt lat="43.48261" lon="1.50387">
        <ele>262.20001220703</ele>
        <time>2020-06-03T07:26:44.000Z</time>
      </trkpt>
      <trkpt lat="43.48261" lon="1.50388">
        <ele>262.39999389648</ele>
        <time>2020-06-03T07:26:45.000Z</time>
      </trkpt>
      <trkpt lat="43.48261" lon="1.50393">
        <ele>262.60000610352</ele>
        <time>2020-06-03T07:27:08.000Z</time>
      </trkpt>
      <trkpt lat="43.48259" lon="1.50397">
        <ele>262.60000610352</ele>
        <time>2020-06-03T07:27:11.000Z</time>
      </trkpt>
      <trkpt lat="43.48261" lon="1.50395">
        <ele>262.60000610352</ele>
        <time>2020-06-03T07:27:44.000Z</time>
      </trkpt>
      <trkpt lat="43.48266" lon="1.50395">
        <ele>262.60000610352</ele>
        <time>2020-06-03T07:27:48.000Z</time>
      </trkpt>
      <trkpt lat="43.48269" lon="1.50395">
        <ele>262.60000610352</ele>
        <time>2020-06-03T07:27:51.000Z</time>
      </trkpt>
      <trkpt lat="43.48271" lon="1.50396">
        <ele>262.60000610352</ele>
        <time>2020-06-03T07:28:17.000Z</time>
      </trkpt>
      <trkpt lat="43.48272" lon="1.50397">
        <ele>262.60000610352</ele>
        <time>2020-06-03T07:28:19.000Z</time>
      </trkpt>
      <trkpt lat="43.48273" lon="1.50399">
        <ele>262.39999389648</ele>
        <time>2020-06-03T07:32:29.000Z</time>
      </trkpt>
      <trkpt lat="43.48303" lon="1.50451">
        <ele>262</ele>
        <time>2020-06-03T07:32:42.000Z</time>
      </trkpt>
      <trkpt lat="43.48325" lon="1.50502">
        <ele>260.79998779297</ele>
        <time>2020-06-03T07:32:50.000Z</time>
      </trkpt>
      <trkpt lat="43.4835" lon="1.5057">
        <ele>260</ele>
        <time>2020-06-03T07:33:00.000Z</time>
      </trkpt>
      <trkpt lat="43.48373" lon="1.50637">
        <ele>260.20001220703</ele>
        <time>2020-06-03T07:33:10.000Z</time>
      </trkpt>
      <trkpt lat="43.48399" lon="1.50709">
        <ele>260.20001220703</ele>
        <time>2020-06-03T07:33:21.000Z</time>
      </trkpt>
      <trkpt lat="43.48409" lon="1.5075">
        <ele>260</ele>
        <time>2020-06-03T07:33:27.000Z</time>
      </trkpt>
      <trkpt lat="43.48415" lon="1.50787">
        <ele>259.79998779297</ele>
        <time>2020-06-03T07:33:32.000Z</time>
      </trkpt>
      <trkpt lat="43.48429" lon="1.50863">
        <ele>259.20001220703</ele>
        <time>2020-06-03T07:33:41.000Z</time>
      </trkpt>
      <trkpt lat="43.4843" lon="1.50872">
        <ele>259</ele>
        <time>2020-06-03T07:33:42.000Z</time>
      </trkpt>
      <trkpt lat="43.48436" lon="1.50915">
        <ele>257.60000610352</ele>
        <time>2020-06-03T07:33:46.000Z</time>
      </trkpt>
      <trkpt lat="43.48441" lon="1.5096">
        <ele>256.20001220703</ele>
        <time>2020-06-03T07:33:50.000Z</time>
      </trkpt>
      <trkpt lat="43.48443" lon="1.50982">
        <ele>254.60000610352</ele>
        <time>2020-06-03T07:33:52.000Z</time>
      </trkpt>
      <trkpt lat="43.48446" lon="1.51006">
        <ele>253.39999389648</ele>
        <time>2020-06-03T07:33:54.000Z</time>
      </trkpt>
      <trkpt lat="43.48448" lon="1.5103">
        <ele>252</ele>
        <time>2020-06-03T07:33:56.000Z</time>
      </trkpt>
      <trkpt lat="43.48451" lon="1.51054">
        <ele>251</ele>
        <time>2020-06-03T07:33:58.000Z</time>
      </trkpt>
      <trkpt lat="43.48455" lon="1.51076">
        <ele>249.80000305176</ele>
        <time>2020-06-03T07:34:00.000Z</time>
      </trkpt>
      <trkpt lat="43.48458" lon="1.51086">
        <ele>249.39999389648</ele>
        <time>2020-06-03T07:34:01.000Z</time>
      </trkpt>
      <trkpt lat="43.48462" lon="1.51096">
        <ele>248.60000610352</ele>
        <time>2020-06-03T07:34:02.000Z</time>
      </trkpt>
      <trkpt lat="43.48475" lon="1.51115">
        <ele>247.19999694824</ele>
        <time>2020-06-03T07:34:04.000Z</time>
      </trkpt>
      <trkpt lat="43.48492" lon="1.5113">
        <ele>246</ele>
        <time>2020-06-03T07:34:06.000Z</time>
      </trkpt>
      <trkpt lat="43.48511" lon="1.51144">
        <ele>244.60000610352</ele>
        <time>2020-06-03T07:34:08.000Z</time>
      </trkpt>
      <trkpt lat="43.48531" lon="1.51158">
        <ele>243</ele>
        <time>2020-06-03T07:34:10.000Z</time>
      </trkpt>
      <trkpt lat="43.48551" lon="1.51172">
        <ele>241</ele>
        <time>2020-06-03T07:34:12.000Z</time>
      </trkpt>
      <trkpt lat="43.48561" lon="1.51179">
        <ele>239.80000305176</ele>
        <time>2020-06-03T07:34:13.000Z</time>
      </trkpt>
      <trkpt lat="43.48571" lon="1.51185">
        <ele>238.60000610352</ele>
        <time>2020-06-03T07:34:14.000Z</time>
      </trkpt>
      <trkpt lat="43.48581" lon="1.51192">
        <ele>237.60000610352</ele>
        <time>2020-06-03T07:34:15.000Z</time>
      </trkpt>
      <trkpt lat="43.48591" lon="1.51199">
        <ele>236.39999389648</ele>
        <time>2020-06-03T07:34:16.000Z</time>
      </trkpt>
      <trkpt lat="43.48601" lon="1.51206">
        <ele>235.39999389648</ele>
        <time>2020-06-03T07:34:17.000Z</time>
      </trkpt>
      <trkpt lat="43.48611" lon="1.51212">
        <ele>234</ele>
        <time>2020-06-03T07:34:18.000Z</time>
      </trkpt>
      <trkpt lat="43.48621" lon="1.51219">
        <ele>231.60000610352</ele>
        <time>2020-06-03T07:34:19.000Z</time>
      </trkpt>
      <trkpt lat="43.48641" lon="1.51232">
        <ele>230.19999694824</ele>
        <time>2020-06-03T07:34:21.000Z</time>
      </trkpt>
      <trkpt lat="43.4866" lon="1.51245">
        <ele>229</ele>
        <time>2020-06-03T07:34:23.000Z</time>
      </trkpt>
      <trkpt lat="43.48688" lon="1.51264">
        <ele>227.80000305176</ele>
        <time>2020-06-03T07:34:26.000Z</time>
      </trkpt>
      <trkpt lat="43.48723" lon="1.51289">
        <ele>226.80000305176</ele>
        <time>2020-06-03T07:34:30.000Z</time>
      </trkpt>
      <trkpt lat="43.48752" lon="1.51304">
        <ele>226.19999694824</ele>
        <time>2020-06-03T07:34:34.000Z</time>
      </trkpt>
      <trkpt lat="43.48777" lon="1.51298">
        <ele>226</ele>
        <time>2020-06-03T07:34:39.000Z</time>
      </trkpt>
      <trkpt lat="43.48793" lon="1.5129">
        <ele>225.80000305176</ele>
        <time>2020-06-03T07:34:43.000Z</time>
      </trkpt>
      <trkpt lat="43.48802" lon="1.5129">
        <ele>225.80000305176</ele>
        <time>2020-06-03T07:34:45.000Z</time>
      </trkpt>
      <trkpt lat="43.48822" lon="1.51303">
        <ele>225.19999694824</ele>
        <time>2020-06-03T07:34:49.000Z</time>
      </trkpt>
      <trkpt lat="43.48832" lon="1.51316">
        <ele>224.19999694824</ele>
        <time>2020-06-03T07:34:51.000Z</time>
      </trkpt>
      <trkpt lat="43.48843" lon="1.51331">
        <ele>223</ele>
        <time>2020-06-03T07:34:53.000Z</time>
      </trkpt>
      <trkpt lat="43.48861" lon="1.51356">
        <ele>221.80000305176</ele>
        <time>2020-06-03T07:34:56.000Z</time>
      </trkpt>
      <trkpt lat="43.48875" lon="1.51375">
        <ele>220.60000610352</ele>
        <time>2020-06-03T07:34:58.000Z</time>
      </trkpt>
      <trkpt lat="43.48888" lon="1.51393">
        <ele>218.60000610352</ele>
        <time>2020-06-03T07:35:00.000Z</time>
      </trkpt>
      <trkpt lat="43.48893" lon="1.514">
        <ele>217.60000610352</ele>
        <time>2020-06-03T07:35:01.000Z</time>
      </trkpt>
      <trkpt lat="43.48899" lon="1.51408">
        <ele>216.39999389648</ele>
        <time>2020-06-03T07:35:02.000Z</time>
      </trkpt>
      <trkpt lat="43.48903" lon="1.51414">
        <ele>215.39999389648</ele>
        <time>2020-06-03T07:35:03.000Z</time>
      </trkpt>
      <trkpt lat="43.48908" lon="1.51421">
        <ele>214</ele>
        <time>2020-06-03T07:35:04.000Z</time>
      </trkpt>
      <trkpt lat="43.48916" lon="1.51432">
        <ele>212.19999694824</ele>
        <time>2020-06-03T07:35:06.000Z</time>
      </trkpt>
      <trkpt lat="43.48929" lon="1.51446">
        <ele>211.19999694824</ele>
        <time>2020-06-03T07:35:09.000Z</time>
      </trkpt>
      <trkpt lat="43.48933" lon="1.51451">
        <ele>211</ele>
        <time>2020-06-03T07:35:10.000Z</time>
      </trkpt>
      <trkpt lat="43.48947" lon="1.51474">
        <ele>210</ele>
        <time>2020-06-03T07:35:14.000Z</time>
      </trkpt>
      <trkpt lat="43.48959" lon="1.51497">
        <ele>209</ele>
        <time>2020-06-03T07:35:18.000Z</time>
      </trkpt>
      <trkpt lat="43.48989" lon="1.51542">
        <ele>207.80000305176</ele>
        <time>2020-06-03T07:35:25.000Z</time>
      </trkpt>
      <trkpt lat="43.49003" lon="1.51561">
        <ele>206.60000610352</ele>
        <time>2020-06-03T07:35:28.000Z</time>
      </trkpt>
      <trkpt lat="43.49014" lon="1.51576">
        <ele>205.39999389648</ele>
        <time>2020-06-03T07:35:31.000Z</time>
      </trkpt>
      <trkpt lat="43.49017" lon="1.5158">
        <ele>205.19999694824</ele>
        <time>2020-06-03T07:35:32.000Z</time>
      </trkpt>
      <trkpt lat="43.49022" lon="1.51588">
        <ele>204.19999694824</ele>
        <time>2020-06-03T07:35:34.000Z</time>
      </trkpt>
      <trkpt lat="43.4906" lon="1.51644">
        <ele>203</ele>
        <time>2020-06-03T07:35:44.000Z</time>
      </trkpt>
      <trkpt lat="43.49075" lon="1.51662">
        <ele>201.80000305176</ele>
        <time>2020-06-03T07:35:47.000Z</time>
      </trkpt>
      <trkpt lat="43.49086" lon="1.51675">
        <ele>200.80000305176</ele>
        <time>2020-06-03T07:35:49.000Z</time>
      </trkpt>
      <trkpt lat="43.4909" lon="1.51681">
        <ele>200</ele>
        <time>2020-06-03T07:35:50.000Z</time>
      </trkpt>
      <trkpt lat="43.49095" lon="1.51688">
        <ele>199.60000610352</ele>
        <time>2020-06-03T07:35:51.000Z</time>
      </trkpt>
      <trkpt lat="43.4911" lon="1.51708">
        <ele>198.60000610352</ele>
        <time>2020-06-03T07:35:54.000Z</time>
      </trkpt>
      <trkpt lat="43.49131" lon="1.51738">
        <ele>197.60000610352</ele>
        <time>2020-06-03T07:35:59.000Z</time>
      </trkpt>
      <trkpt lat="43.49165" lon="1.51792">
        <ele>197.19999694824</ele>
        <time>2020-06-03T07:36:14.000Z</time>
      </trkpt>
      <trkpt lat="43.49168" lon="1.51795">
        <ele>197.19999694824</ele>
        <time>2020-06-03T07:36:15.000Z</time>
      </trkpt>
      <trkpt lat="43.49178" lon="1.51806">
        <ele>196.39999389648</ele>
        <time>2020-06-03T07:36:18.000Z</time>
      </trkpt>
      <trkpt lat="43.49192" lon="1.51818">
        <ele>195.19999694824</ele>
        <time>2020-06-03T07:36:21.000Z</time>
      </trkpt>
      <trkpt lat="43.49209" lon="1.51833">
        <ele>194</ele>
        <time>2020-06-03T07:36:24.000Z</time>
      </trkpt>
      <trkpt lat="43.49228" lon="1.51849">
        <ele>192.80000305176</ele>
        <time>2020-06-03T07:36:27.000Z</time>
      </trkpt>
      <trkpt lat="43.49238" lon="1.51862">
        <ele>191.80000305176</ele>
        <time>2020-06-03T07:36:29.000Z</time>
      </trkpt>
      <trkpt lat="43.49253" lon="1.51888">
        <ele>190.39999389648</ele>
        <time>2020-06-03T07:36:32.000Z</time>
      </trkpt>
      <trkpt lat="43.49257" lon="1.51896">
        <ele>189.80000305176</ele>
        <time>2020-06-03T07:36:33.000Z</time>
      </trkpt>
      <trkpt lat="43.49266" lon="1.51911">
        <ele>189</ele>
        <time>2020-06-03T07:36:35.000Z</time>
      </trkpt>
      <trkpt lat="43.49276" lon="1.51925">
        <ele>186.39999389648</ele>
        <time>2020-06-03T07:36:37.000Z</time>
      </trkpt>
      <trkpt lat="43.49282" lon="1.51932">
        <ele>185.39999389648</ele>
        <time>2020-06-03T07:36:38.000Z</time>
      </trkpt>
      <trkpt lat="43.49294" lon="1.51945">
        <ele>183.80000305176</ele>
        <time>2020-06-03T07:36:40.000Z</time>
      </trkpt>
      <trkpt lat="43.49301" lon="1.5195">
        <ele>183.39999389648</ele>
        <time>2020-06-03T07:36:41.000Z</time>
      </trkpt>
      <trkpt lat="43.49315" lon="1.5196">
        <ele>182.39999389648</ele>
        <time>2020-06-03T07:36:43.000Z</time>
      </trkpt>
      <trkpt lat="43.49329" lon="1.51969">
        <ele>180.60000610352</ele>
        <time>2020-06-03T07:36:45.000Z</time>
      </trkpt>
      <trkpt lat="43.49342" lon="1.51978">
        <ele>179</ele>
        <time>2020-06-03T07:36:47.000Z</time>
      </trkpt>
      <trkpt lat="43.49354" lon="1.51989">
        <ele>177.60000610352</ele>
        <time>2020-06-03T07:36:49.000Z</time>
      </trkpt>
      <trkpt lat="43.49367" lon="1.52002">
        <ele>176.19999694824</ele>
        <time>2020-06-03T07:36:51.000Z</time>
      </trkpt>
      <trkpt lat="43.49379" lon="1.52017">
        <ele>175</ele>
        <time>2020-06-03T07:36:53.000Z</time>
      </trkpt>
      <trkpt lat="43.4939" lon="1.52034">
        <ele>173.60000610352</ele>
        <time>2020-06-03T07:36:55.000Z</time>
      </trkpt>
      <trkpt lat="43.49401" lon="1.52049">
        <ele>172.19999694824</ele>
        <time>2020-06-03T07:36:57.000Z</time>
      </trkpt>
      <trkpt lat="43.49411" lon="1.52063">
        <ele>170.80000305176</ele>
        <time>2020-06-03T07:36:59.000Z</time>
      </trkpt>
      <trkpt lat="43.49419" lon="1.52076">
        <ele>169.60000610352</ele>
        <time>2020-06-03T07:37:01.000Z</time>
      </trkpt>
      <trkpt lat="43.49432" lon="1.52096">
        <ele>168.60000610352</ele>
        <time>2020-06-03T07:37:05.000Z</time>
      </trkpt>
      <trkpt lat="43.49446" lon="1.52107">
        <ele>169.39999389648</ele>
        <time>2020-06-03T07:37:14.000Z</time>
      </trkpt>
      <trkpt lat="43.49448" lon="1.52109">
        <ele>170.19999694824</ele>
        <time>2020-06-03T07:37:53.000Z</time>
      </trkpt>
      <trkpt lat="43.49442" lon="1.5212">
        <ele>170.19999694824</ele>
        <time>2020-06-03T07:37:58.000Z</time>
      </trkpt>
      <trkpt lat="43.49417" lon="1.52154">
        <ele>169.80000305176</ele>
        <time>2020-06-03T07:38:16.000Z</time>
      </trkpt>
      <trkpt lat="43.49416" lon="1.52156">
        <ele>169.60000610352</ele>
        <time>2020-06-03T07:38:42.000Z</time>
      </trkpt>
      <trkpt lat="43.4942" lon="1.52178">
        <ele>169.60000610352</ele>
        <time>2020-06-03T07:38:48.000Z</time>
      </trkpt>
      <trkpt lat="43.49421" lon="1.52184">
        <ele>169.60000610352</ele>
        <time>2020-06-03T07:38:49.000Z</time>
      </trkpt>
      <trkpt lat="43.49424" lon="1.52202">
        <ele>169.19999694824</ele>
        <time>2020-06-03T07:38:52.000Z</time>
      </trkpt>
      <trkpt lat="43.49427" lon="1.5224">
        <ele>168</ele>
        <time>2020-06-03T07:38:58.000Z</time>
      </trkpt>
      <trkpt lat="43.49427" lon="1.52259">
        <ele>167.39999389648</ele>
        <time>2020-06-03T07:39:01.000Z</time>
      </trkpt>
      <trkpt lat="43.49423" lon="1.52291">
        <ele>167</ele>
        <time>2020-06-03T07:39:06.000Z</time>
      </trkpt>
      <trkpt lat="43.49412" lon="1.52365">
        <ele>166.60000610352</ele>
        <time>2020-06-03T07:39:18.000Z</time>
      </trkpt>
      <trkpt lat="43.49401" lon="1.52441">
        <ele>166.39999389648</ele>
        <time>2020-06-03T07:39:31.000Z</time>
      </trkpt>
      <trkpt lat="43.49384" lon="1.52506">
        <ele>166</ele>
        <time>2020-06-03T07:39:41.000Z</time>
      </trkpt>
      <trkpt lat="43.49375" lon="1.52539">
        <ele>165.60000610352</ele>
        <time>2020-06-03T07:39:46.000Z</time>
      </trkpt>
      <trkpt lat="43.49364" lon="1.52599">
        <ele>165</ele>
        <time>2020-06-03T07:39:55.000Z</time>
      </trkpt>
      <trkpt lat="43.49362" lon="1.52672">
        <ele>164.80000305176</ele>
        <time>2020-06-03T07:40:05.000Z</time>
      </trkpt>
      <trkpt lat="43.49366" lon="1.52712">
        <ele>164.39999389648</ele>
        <time>2020-06-03T07:40:11.000Z</time>
      </trkpt>
      <trkpt lat="43.49388" lon="1.52787">
        <ele>164</ele>
        <time>2020-06-03T07:40:23.000Z</time>
      </trkpt>
      <trkpt lat="43.49398" lon="1.52816">
        <ele>164</ele>
        <time>2020-06-03T07:40:28.000Z</time>
      </trkpt>
      <trkpt lat="43.49415" lon="1.52868">
        <ele>163.80000305176</ele>
        <time>2020-06-03T07:40:37.000Z</time>
      </trkpt>
      <trkpt lat="43.49426" lon="1.5294">
        <ele>163.80000305176</ele>
        <time>2020-06-03T07:40:49.000Z</time>
      </trkpt>
      <trkpt lat="43.49421" lon="1.52963">
        <ele>163.80000305176</ele>
        <time>2020-06-03T07:40:54.000Z</time>
      </trkpt>
      <trkpt lat="43.494" lon="1.53033">
        <ele>163.80000305176</ele>
        <time>2020-06-03T07:41:07.000Z</time>
      </trkpt>
      <trkpt lat="43.49384" lon="1.53107">
        <ele>163.80000305176</ele>
        <time>2020-06-03T07:41:23.000Z</time>
      </trkpt>
      <trkpt lat="43.4939" lon="1.53179">
        <ele>163.60000610352</ele>
        <time>2020-06-03T07:41:38.000Z</time>
      </trkpt>
      <trkpt lat="43.49423" lon="1.53238">
        <ele>163.39999389648</ele>
        <time>2020-06-03T07:41:54.000Z</time>
      </trkpt>
      <trkpt lat="43.49427" lon="1.53246">
        <ele>163.19999694824</ele>
        <time>2020-06-03T07:41:56.000Z</time>
      </trkpt>
      <trkpt lat="43.49469" lon="1.53299">
        <ele>163</ele>
        <time>2020-06-03T07:42:11.000Z</time>
      </trkpt>
      <trkpt lat="43.49505" lon="1.53353">
        <ele>162.60000610352</ele>
        <time>2020-06-03T07:42:26.000Z</time>
      </trkpt>
      <trkpt lat="43.49533" lon="1.53419">
        <ele>162.39999389648</ele>
        <time>2020-06-03T07:42:42.000Z</time>
      </trkpt>
      <trkpt lat="43.49552" lon="1.53472">
        <ele>162.19999694824</ele>
        <time>2020-06-03T07:42:53.000Z</time>
      </trkpt>
      <trkpt lat="43.49581" lon="1.53534">
        <ele>162.39999389648</ele>
        <time>2020-06-03T07:43:08.000Z</time>
      </trkpt>
      <trkpt lat="43.49604" lon="1.53573">
        <ele>163.39999389648</ele>
        <time>2020-06-03T07:43:20.000Z</time>
      </trkpt>
      <trkpt lat="43.49625" lon="1.53555">
        <ele>163.19999694824</ele>
        <time>2020-06-03T07:43:29.000Z</time>
      </trkpt>
      <trkpt lat="43.49666" lon="1.53506">
        <ele>161.39999389648</ele>
        <time>2020-06-03T07:43:41.000Z</time>
      </trkpt>
      <trkpt lat="43.49669" lon="1.53502">
        <ele>161.39999389648</ele>
        <time>2020-06-03T07:43:42.000Z</time>
      </trkpt>
      <trkpt lat="43.497" lon="1.53457">
        <ele>161</ele>
        <time>2020-06-03T07:43:52.000Z</time>
      </trkpt>
      <trkpt lat="43.49708" lon="1.53444">
        <ele>161</ele>
        <time>2020-06-03T07:43:55.000Z</time>
      </trkpt>
      <trkpt lat="43.49737" lon="1.53386">
        <ele>161</ele>
        <time>2020-06-03T07:44:07.000Z</time>
      </trkpt>
      <trkpt lat="43.49744" lon="1.53371">
        <ele>161.19999694824</ele>
        <time>2020-06-03T07:44:10.000Z</time>
      </trkpt>
      <trkpt lat="43.4978" lon="1.53311">
        <ele>161</ele>
        <time>2020-06-03T07:44:22.000Z</time>
      </trkpt>
      <trkpt lat="43.4981" lon="1.53271">
        <ele>160.80000305176</ele>
        <time>2020-06-03T07:44:30.000Z</time>
      </trkpt>
      <trkpt lat="43.49835" lon="1.53237">
        <ele>160.39999389648</ele>
        <time>2020-06-03T07:44:37.000Z</time>
      </trkpt>
      <trkpt lat="43.49883" lon="1.53187">
        <ele>160</ele>
        <time>2020-06-03T07:44:48.000Z</time>
      </trkpt>
      <trkpt lat="43.49929" lon="1.53148">
        <ele>161</ele>
        <time>2020-06-03T07:45:00.000Z</time>
      </trkpt>
      <trkpt lat="43.49933" lon="1.53144">
        <ele>161.19999694824</ele>
        <time>2020-06-03T07:45:01.000Z</time>
      </trkpt>
      <trkpt lat="43.49941" lon="1.53137">
        <ele>161.39999389648</ele>
        <time>2020-06-03T07:45:03.000Z</time>
      </trkpt>
      <trkpt lat="43.49946" lon="1.53133">
        <ele>161.39999389648</ele>
        <time>2020-06-03T07:45:04.000Z</time>
      </trkpt>
      <trkpt lat="43.49991" lon="1.53091">
        <ele>161.39999389648</ele>
        <time>2020-06-03T07:45:15.000Z</time>
      </trkpt>
      <trkpt lat="43.5" lon="1.53083">
        <ele>161.19999694824</ele>
        <time>2020-06-03T07:45:17.000Z</time>
      </trkpt>
      <trkpt lat="43.50029" lon="1.5305">
        <ele>161</ele>
        <time>2020-06-03T07:45:25.000Z</time>
      </trkpt>
      <trkpt lat="43.50066" lon="1.53002">
        <ele>161</ele>
        <time>2020-06-03T07:45:38.000Z</time>
      </trkpt>
      <trkpt lat="43.50099" lon="1.52962">
        <ele>160.60000610352</ele>
        <time>2020-06-03T07:45:48.000Z</time>
      </trkpt>
      <trkpt lat="43.50125" lon="1.52933">
        <ele>160.80000305176</ele>
        <time>2020-06-03T07:45:57.000Z</time>
      </trkpt>
      <trkpt lat="43.50143" lon="1.52917">
        <ele>161</ele>
        <time>2020-06-03T07:46:02.000Z</time>
      </trkpt>
      <trkpt lat="43.50192" lon="1.5288">
        <ele>161.39999389648</ele>
        <time>2020-06-03T07:46:14.000Z</time>
      </trkpt>
      <trkpt lat="43.50207" lon="1.52867">
        <ele>161.39999389648</ele>
        <time>2020-06-03T07:46:18.000Z</time>
      </trkpt>
      <trkpt lat="43.50214" lon="1.5286">
        <ele>161.39999389648</ele>
        <time>2020-06-03T07:46:20.000Z</time>
      </trkpt>
      <trkpt lat="43.50237" lon="1.5284">
        <ele>161</ele>
        <time>2020-06-03T07:46:26.000Z</time>
      </trkpt>
      <trkpt lat="43.50255" lon="1.52823">
        <ele>161</ele>
        <time>2020-06-03T07:46:31.000Z</time>
      </trkpt>
      <trkpt lat="43.50274" lon="1.52805">
        <ele>160.80000305176</ele>
        <time>2020-06-03T07:46:36.000Z</time>
      </trkpt>
      <trkpt lat="43.50285" lon="1.52794">
        <ele>160.80000305176</ele>
        <time>2020-06-03T07:46:39.000Z</time>
      </trkpt>
      <trkpt lat="43.503" lon="1.52778">
        <ele>160.80000305176</ele>
        <time>2020-06-03T07:46:43.000Z</time>
      </trkpt>
      <trkpt lat="43.50306" lon="1.52769">
        <ele>160.80000305176</ele>
        <time>2020-06-03T07:46:45.000Z</time>
      </trkpt>
      <trkpt lat="43.50326" lon="1.52747">
        <ele>160.80000305176</ele>
        <time>2020-06-03T07:46:50.000Z</time>
      </trkpt>
      <trkpt lat="43.5035" lon="1.52714">
        <ele>161</ele>
        <time>2020-06-03T07:46:57.000Z</time>
      </trkpt>
      <trkpt lat="43.50363" lon="1.52693">
        <ele>161</ele>
        <time>2020-06-03T07:47:01.000Z</time>
      </trkpt>
      <trkpt lat="43.50372" lon="1.52662">
        <ele>160.80000305176</ele>
        <time>2020-06-03T07:47:06.000Z</time>
      </trkpt>
      <trkpt lat="43.50373" lon="1.52658">
        <ele>160.80000305176</ele>
        <time>2020-06-03T07:47:07.000Z</time>
      </trkpt>
      <trkpt lat="43.50385" lon="1.5262">
        <ele>161.19999694824</ele>
        <time>2020-06-03T07:47:14.000Z</time>
      </trkpt>
      <trkpt lat="43.50388" lon="1.52609">
        <ele>161.39999389648</ele>
        <time>2020-06-03T07:47:16.000Z</time>
      </trkpt>
      <trkpt lat="43.504" lon="1.52556">
        <ele>161.39999389648</ele>
        <time>2020-06-03T07:47:25.000Z</time>
      </trkpt>
      <trkpt lat="43.50407" lon="1.52524">
        <ele>161.39999389648</ele>
        <time>2020-06-03T07:47:30.000Z</time>
      </trkpt>
      <trkpt lat="43.5041" lon="1.52512">
        <ele>161.39999389648</ele>
        <time>2020-06-03T07:47:32.000Z</time>
      </trkpt>
      <trkpt lat="43.50414" lon="1.52502">
        <ele>161.19999694824</ele>
        <time>2020-06-03T07:47:34.000Z</time>
      </trkpt>
      <trkpt lat="43.50419" lon="1.5248">
        <ele>160.80000305176</ele>
        <time>2020-06-03T07:47:38.000Z</time>
      </trkpt>
      <trkpt lat="43.50426" lon="1.52446">
        <ele>160.80000305176</ele>
        <time>2020-06-03T07:47:44.000Z</time>
      </trkpt>
      <trkpt lat="43.50428" lon="1.52433">
        <ele>160.60000610352</ele>
        <time>2020-06-03T07:47:46.000Z</time>
      </trkpt>
      <trkpt lat="43.50428" lon="1.52398">
        <ele>160.80000305176</ele>
        <time>2020-06-03T07:47:50.000Z</time>
      </trkpt>
      <trkpt lat="43.50427" lon="1.52371">
        <ele>160.60000610352</ele>
        <time>2020-06-03T07:47:53.000Z</time>
      </trkpt>
      <trkpt lat="43.50431" lon="1.52308">
        <ele>160.80000305176</ele>
        <time>2020-06-03T07:48:02.000Z</time>
      </trkpt>
      <trkpt lat="43.50428" lon="1.5225">
        <ele>160.80000305176</ele>
        <time>2020-06-03T07:48:11.000Z</time>
      </trkpt>
      <trkpt lat="43.50431" lon="1.52225">
        <ele>161</ele>
        <time>2020-06-03T07:48:15.000Z</time>
      </trkpt>
      <trkpt lat="43.50435" lon="1.52209">
        <ele>161</ele>
        <time>2020-06-03T07:48:18.000Z</time>
      </trkpt>
      <trkpt lat="43.50438" lon="1.52197">
        <ele>161</ele>
        <time>2020-06-03T07:48:20.000Z</time>
      </trkpt>
      <trkpt lat="43.5045" lon="1.52176">
        <ele>161</ele>
        <time>2020-06-03T07:48:24.000Z</time>
      </trkpt>
      <trkpt lat="43.50472" lon="1.52144">
        <ele>160.80000305176</ele>
        <time>2020-06-03T07:48:30.000Z</time>
      </trkpt>
      <trkpt lat="43.50504" lon="1.52109">
        <ele>160.39999389648</ele>
        <time>2020-06-03T07:48:38.000Z</time>
      </trkpt>
      <trkpt lat="43.50512" lon="1.52103">
        <ele>160.19999694824</ele>
        <time>2020-06-03T07:48:40.000Z</time>
      </trkpt>
      <trkpt lat="43.50567" lon="1.52085">
        <ele>160.19999694824</ele>
        <time>2020-06-03T07:48:52.000Z</time>
      </trkpt>
      <trkpt lat="43.50625" lon="1.52076">
        <ele>160.39999389648</ele>
        <time>2020-06-03T07:49:04.000Z</time>
      </trkpt>
      <trkpt lat="43.50655" lon="1.52071">
        <ele>160.60000610352</ele>
        <time>2020-06-03T07:49:11.000Z</time>
      </trkpt>
      <trkpt lat="43.5071" lon="1.52052">
        <ele>160.60000610352</ele>
        <time>2020-06-03T07:49:23.000Z</time>
      </trkpt>
      <trkpt lat="43.50735" lon="1.52036">
        <ele>160.60000610352</ele>
        <time>2020-06-03T07:49:29.000Z</time>
      </trkpt>
      <trkpt lat="43.50747" lon="1.52026">
        <ele>160.60000610352</ele>
        <time>2020-06-03T07:49:32.000Z</time>
      </trkpt>
      <trkpt lat="43.50781" lon="1.51995">
        <ele>160.80000305176</ele>
        <time>2020-06-03T07:49:40.000Z</time>
      </trkpt>
      <trkpt lat="43.50795" lon="1.51979">
        <ele>160.80000305176</ele>
        <time>2020-06-03T07:49:44.000Z</time>
      </trkpt>
      <trkpt lat="43.50809" lon="1.51962">
        <ele>161</ele>
        <time>2020-06-03T07:49:48.000Z</time>
      </trkpt>
      <trkpt lat="43.50828" lon="1.51939">
        <ele>161.19999694824</ele>
        <time>2020-06-03T07:49:54.000Z</time>
      </trkpt>
      <trkpt lat="43.50858" lon="1.51902">
        <ele>161.80000305176</ele>
        <time>2020-06-03T07:50:03.000Z</time>
      </trkpt>
      <trkpt lat="43.50876" lon="1.51881">
        <ele>162</ele>
        <time>2020-06-03T07:50:09.000Z</time>
      </trkpt>
      <trkpt lat="43.50917" lon="1.51843">
        <ele>162.19999694824</ele>
        <time>2020-06-03T07:50:20.000Z</time>
      </trkpt>
      <trkpt lat="43.50964" lon="1.51801">
        <ele>161.19999694824</ele>
        <time>2020-06-03T07:50:32.000Z</time>
      </trkpt>
      <trkpt lat="43.51013" lon="1.5178">
        <ele>161.60000610352</ele>
        <time>2020-06-03T07:50:45.000Z</time>
      </trkpt>
      <trkpt lat="43.51028" lon="1.51775">
        <ele>161.60000610352</ele>
        <time>2020-06-03T07:50:49.000Z</time>
      </trkpt>
      <trkpt lat="43.51053" lon="1.51766">
        <ele>161.60000610352</ele>
        <time>2020-06-03T07:50:55.000Z</time>
      </trkpt>
      <trkpt lat="43.51088" lon="1.51754">
        <ele>161</ele>
        <time>2020-06-03T07:51:04.000Z</time>
      </trkpt>
      <trkpt lat="43.511" lon="1.51753">
        <ele>161</ele>
        <time>2020-06-03T07:51:08.000Z</time>
      </trkpt>
      <trkpt lat="43.51112" lon="1.51747">
        <ele>161</ele>
        <time>2020-06-03T07:51:13.000Z</time>
      </trkpt>
      <trkpt lat="43.51129" lon="1.51739">
        <ele>162.19999694824</ele>
        <time>2020-06-03T07:51:20.000Z</time>
      </trkpt>
      <trkpt lat="43.51141" lon="1.51735">
        <ele>162.39999389648</ele>
        <time>2020-06-03T07:51:25.000Z</time>
      </trkpt>
      <trkpt lat="43.51159" lon="1.51733">
        <ele>162.39999389648</ele>
        <time>2020-06-03T07:51:30.000Z</time>
      </trkpt>
      <trkpt lat="43.51163" lon="1.51732">
        <ele>162.19999694824</ele>
        <time>2020-06-03T07:51:31.000Z</time>
      </trkpt>
      <trkpt lat="43.5117" lon="1.51731">
        <ele>161.19999694824</ele>
        <time>2020-06-03T07:51:33.000Z</time>
      </trkpt>
      <trkpt lat="43.51174" lon="1.5173">
        <ele>160.80000305176</ele>
        <time>2020-06-03T07:51:34.000Z</time>
      </trkpt>
      <trkpt lat="43.51192" lon="1.51725">
        <ele>159.80000305176</ele>
        <time>2020-06-03T07:51:39.000Z</time>
      </trkpt>
      <trkpt lat="43.512" lon="1.51723">
        <ele>159.80000305176</ele>
        <time>2020-06-03T07:51:41.000Z</time>
      </trkpt>
      <trkpt lat="43.51215" lon="1.51718">
        <ele>159.60000610352</ele>
        <time>2020-06-03T07:51:44.000Z</time>
      </trkpt>
      <trkpt lat="43.51275" lon="1.517">
        <ele>159.60000610352</ele>
        <time>2020-06-03T07:51:55.000Z</time>
      </trkpt>
      <trkpt lat="43.5128" lon="1.51699">
        <ele>159.60000610352</ele>
        <time>2020-06-03T07:51:56.000Z</time>
      </trkpt>
      <trkpt lat="43.51342" lon="1.51682">
        <ele>159.80000305176</ele>
        <time>2020-06-03T07:52:08.000Z</time>
      </trkpt>
      <trkpt lat="43.51398" lon="1.51665">
        <ele>159.80000305176</ele>
        <time>2020-06-03T07:52:20.000Z</time>
      </trkpt>
      <trkpt lat="43.51419" lon="1.5166">
        <ele>159.80000305176</ele>
        <time>2020-06-03T07:52:25.000Z</time>
      </trkpt>
      <trkpt lat="43.51437" lon="1.51664">
        <ele>159.80000305176</ele>
        <time>2020-06-03T07:52:29.000Z</time>
      </trkpt>
      <trkpt lat="43.51463" lon="1.5169">
        <ele>159.60000610352</ele>
        <time>2020-06-03T07:52:36.000Z</time>
      </trkpt>
      <trkpt lat="43.5147" lon="1.51705">
        <ele>159.39999389648</ele>
        <time>2020-06-03T07:52:39.000Z</time>
      </trkpt>
      <trkpt lat="43.5148" lon="1.51733">
        <ele>159.19999694824</ele>
        <time>2020-06-03T07:52:44.000Z</time>
      </trkpt>
      <trkpt lat="43.51481" lon="1.51743">
        <ele>159.19999694824</ele>
        <time>2020-06-03T07:52:46.000Z</time>
      </trkpt>
      <trkpt lat="43.5148" lon="1.51754">
        <ele>159.19999694824</ele>
        <time>2020-06-03T07:52:48.000Z</time>
      </trkpt>
      <trkpt lat="43.51479" lon="1.51763">
        <ele>159.19999694824</ele>
        <time>2020-06-03T07:52:50.000Z</time>
      </trkpt>
      <trkpt lat="43.51474" lon="1.51783">
        <ele>159.19999694824</ele>
        <time>2020-06-03T07:52:54.000Z</time>
      </trkpt>
      <trkpt lat="43.51474" lon="1.51788">
        <ele>159.19999694824</ele>
        <time>2020-06-03T07:52:55.000Z</time>
      </trkpt>
      <trkpt lat="43.51472" lon="1.51802">
        <ele>159.19999694824</ele>
        <time>2020-06-03T07:52:58.000Z</time>
      </trkpt>
      <trkpt lat="43.51474" lon="1.51819">
        <ele>159</ele>
        <time>2020-06-03T07:53:01.000Z</time>
      </trkpt>
      <trkpt lat="43.51475" lon="1.51842">
        <ele>159</ele>
        <time>2020-06-03T07:53:04.000Z</time>
      </trkpt>
      <trkpt lat="43.51476" lon="1.51866">
        <ele>159</ele>
        <time>2020-06-03T07:53:07.000Z</time>
      </trkpt>
      <trkpt lat="43.5148" lon="1.51901">
        <ele>158.80000305176</ele>
        <time>2020-06-03T07:53:12.000Z</time>
      </trkpt>
      <trkpt lat="43.5149" lon="1.51924">
        <ele>158.60000610352</ele>
        <time>2020-06-03T07:53:16.000Z</time>
      </trkpt>
      <trkpt lat="43.51509" lon="1.51958">
        <ele>158.60000610352</ele>
        <time>2020-06-03T07:53:23.000Z</time>
      </trkpt>
      <trkpt lat="43.51537" lon="1.51992">
        <ele>158.60000610352</ele>
        <time>2020-06-03T07:53:31.000Z</time>
      </trkpt>
      <trkpt lat="43.51578" lon="1.52046">
        <ele>158.60000610352</ele>
        <time>2020-06-03T07:53:43.000Z</time>
      </trkpt>
      <trkpt lat="43.51595" lon="1.52058">
        <ele>158.60000610352</ele>
        <time>2020-06-03T07:53:47.000Z</time>
      </trkpt>
      <trkpt lat="43.51627" lon="1.52063">
        <ele>158.80000305176</ele>
        <time>2020-06-03T07:53:54.000Z</time>
      </trkpt>
      <trkpt lat="43.51685" lon="1.52046">
        <ele>159</ele>
        <time>2020-06-03T07:54:06.000Z</time>
      </trkpt>
      <trkpt lat="43.51704" lon="1.5204">
        <ele>159</ele>
        <time>2020-06-03T07:54:10.000Z</time>
      </trkpt>
      <trkpt lat="43.51731" lon="1.52022">
        <ele>158.80000305176</ele>
        <time>2020-06-03T07:54:16.000Z</time>
      </trkpt>
      <trkpt lat="43.51753" lon="1.52007">
        <ele>158.60000610352</ele>
        <time>2020-06-03T07:54:21.000Z</time>
      </trkpt>
      <trkpt lat="43.51766" lon="1.51998">
        <ele>158.39999389648</ele>
        <time>2020-06-03T07:54:24.000Z</time>
      </trkpt>
      <trkpt lat="43.51787" lon="1.51987">
        <ele>158.19999694824</ele>
        <time>2020-06-03T07:54:28.000Z</time>
      </trkpt>
      <trkpt lat="43.51803" lon="1.51981">
        <ele>158.19999694824</ele>
        <time>2020-06-03T07:54:31.000Z</time>
      </trkpt>
      <trkpt lat="43.51813" lon="1.5198">
        <ele>158.19999694824</ele>
        <time>2020-06-03T07:54:33.000Z</time>
      </trkpt>
      <trkpt lat="43.51866" lon="1.51997">
        <ele>158.19999694824</ele>
        <time>2020-06-03T07:54:43.000Z</time>
      </trkpt>
      <trkpt lat="43.51914" lon="1.52016">
        <ele>158.19999694824</ele>
        <time>2020-06-03T07:54:51.000Z</time>
      </trkpt>
      <trkpt lat="43.51962" lon="1.52025">
        <ele>158.19999694824</ele>
        <time>2020-06-03T07:55:00.000Z</time>
      </trkpt>
      <trkpt lat="43.51982" lon="1.52023">
        <ele>158.19999694824</ele>
        <time>2020-06-03T07:55:04.000Z</time>
      </trkpt>
      <trkpt lat="43.52001" lon="1.52021">
        <ele>158.60000610352</ele>
        <time>2020-06-03T07:55:08.000Z</time>
      </trkpt>
      <trkpt lat="43.5202" lon="1.52015">
        <ele>158.60000610352</ele>
        <time>2020-06-03T07:55:12.000Z</time>
      </trkpt>
      <trkpt lat="43.52039" lon="1.52004">
        <ele>158.60000610352</ele>
        <time>2020-06-03T07:55:16.000Z</time>
      </trkpt>
      <trkpt lat="43.52079" lon="1.5198">
        <ele>158.39999389648</ele>
        <time>2020-06-03T07:55:23.000Z</time>
      </trkpt>
      <trkpt lat="43.52124" lon="1.51963">
        <ele>158.19999694824</ele>
        <time>2020-06-03T07:55:32.000Z</time>
      </trkpt>
      <trkpt lat="43.52147" lon="1.51962">
        <ele>158.19999694824</ele>
        <time>2020-06-03T07:55:37.000Z</time>
      </trkpt>
      <trkpt lat="43.52203" lon="1.51951">
        <ele>158.60000610352</ele>
        <time>2020-06-03T07:55:48.000Z</time>
      </trkpt>
      <trkpt lat="43.52267" lon="1.51928">
        <ele>159</ele>
        <time>2020-06-03T07:56:00.000Z</time>
      </trkpt>
      <trkpt lat="43.52325" lon="1.51903">
        <ele>158.39999389648</ele>
        <time>2020-06-03T07:56:13.000Z</time>
      </trkpt>
      <trkpt lat="43.52366" lon="1.51886">
        <ele>158.39999389648</ele>
        <time>2020-06-03T07:56:26.000Z</time>
      </trkpt>
      <trkpt lat="43.52372" lon="1.51885">
        <ele>158.60000610352</ele>
        <time>2020-06-03T07:59:47.000Z</time>
      </trkpt>
      <trkpt lat="43.52388" lon="1.51881">
        <ele>158.80000305176</ele>
        <time>2020-06-03T07:59:56.000Z</time>
      </trkpt>
      <trkpt lat="43.52393" lon="1.5188">
        <ele>159.39999389648</ele>
        <time>2020-06-03T08:00:15.000Z</time>
      </trkpt>
      <trkpt lat="43.52404" lon="1.5187">
        <ele>159.39999389648</ele>
        <time>2020-06-03T08:00:22.000Z</time>
      </trkpt>
      <trkpt lat="43.52398" lon="1.51836">
        <ele>159.60000610352</ele>
        <time>2020-06-03T08:00:35.000Z</time>
      </trkpt>
      <trkpt lat="43.52397" lon="1.51835">
        <ele>159.60000610352</ele>
        <time>2020-06-03T08:00:37.000Z</time>
      </trkpt>
      <trkpt lat="43.52395" lon="1.51835">
        <ele>159.60000610352</ele>
        <time>2020-06-03T08:00:39.000Z</time>
      </trkpt>
      <trkpt lat="43.52366" lon="1.51824">
        <ele>159</ele>
        <time>2020-06-03T08:00:48.000Z</time>
      </trkpt>
      <trkpt lat="43.52358" lon="1.51823">
        <ele>158.19999694824</ele>
        <time>2020-06-03T08:00:50.000Z</time>
      </trkpt>
      <trkpt lat="43.5235" lon="1.51811">
        <ele>157.80000305176</ele>
        <time>2020-06-03T08:00:53.000Z</time>
      </trkpt>
      <trkpt lat="43.52345" lon="1.51803">
        <ele>157.19999694824</ele>
        <time>2020-06-03T08:00:55.000Z</time>
      </trkpt>
      <trkpt lat="43.52303" lon="1.51757">
        <ele>157</ele>
        <time>2020-06-03T08:01:11.000Z</time>
      </trkpt>
      <trkpt lat="43.52278" lon="1.51762">
        <ele>157.80000305176</ele>
        <time>2020-06-03T08:01:18.000Z</time>
      </trkpt>
      <trkpt lat="43.52222" lon="1.51742">
        <ele>157.39999389648</ele>
        <time>2020-06-03T08:01:32.000Z</time>
      </trkpt>
      <trkpt lat="43.52208" lon="1.51734">
        <ele>157.19999694824</ele>
        <time>2020-06-03T08:01:36.000Z</time>
      </trkpt>
      <trkpt lat="43.52196" lon="1.51719">
        <ele>157.19999694824</ele>
        <time>2020-06-03T08:01:40.000Z</time>
      </trkpt>
      <trkpt lat="43.52193" lon="1.51714">
        <ele>157.19999694824</ele>
        <time>2020-06-03T08:01:41.000Z</time>
      </trkpt>
      <trkpt lat="43.52179" lon="1.51705">
        <ele>157</ele>
        <time>2020-06-03T08:01:45.000Z</time>
      </trkpt>
      <trkpt lat="43.52171" lon="1.51701">
        <ele>157</ele>
        <time>2020-06-03T08:01:47.000Z</time>
      </trkpt>
      <trkpt lat="43.5213" lon="1.51658">
        <ele>157</ele>
        <time>2020-06-03T08:02:00.000Z</time>
      </trkpt>
      <trkpt lat="43.52091" lon="1.51606">
        <ele>157.39999389648</ele>
        <time>2020-06-03T08:02:13.000Z</time>
      </trkpt>
      <trkpt lat="43.52042" lon="1.51567">
        <ele>158.19999694824</ele>
        <time>2020-06-03T08:02:25.000Z</time>
      </trkpt>
      <trkpt lat="43.51998" lon="1.51551">
        <ele>158.19999694824</ele>
        <time>2020-06-03T08:02:34.000Z</time>
      </trkpt>
      <trkpt lat="43.51975" lon="1.51518">
        <ele>158</ele>
        <time>2020-06-03T08:02:41.000Z</time>
      </trkpt>
      <trkpt lat="43.51952" lon="1.51447">
        <ele>157.60000610352</ele>
        <time>2020-06-03T08:02:52.000Z</time>
      </trkpt>
      <trkpt lat="43.5195" lon="1.51372">
        <ele>157.39999389648</ele>
        <time>2020-06-03T08:03:03.000Z</time>
      </trkpt>
      <trkpt lat="43.51974" lon="1.51315">
        <ele>157.60000610352</ele>
        <time>2020-06-03T08:03:15.000Z</time>
      </trkpt>
      <trkpt lat="43.51989" lon="1.51324">
        <ele>157.80000305176</ele>
        <time>2020-06-03T08:03:19.000Z</time>
      </trkpt>
      <trkpt lat="43.52039" lon="1.51352">
        <ele>158.19999694824</ele>
        <time>2020-06-03T08:03:32.000Z</time>
      </trkpt>
      <trkpt lat="43.52086" lon="1.51355">
        <ele>158.60000610352</ele>
        <time>2020-06-03T08:03:43.000Z</time>
      </trkpt>
      <trkpt lat="43.5209" lon="1.51356">
        <ele>158.80000305176</ele>
        <time>2020-06-03T08:03:44.000Z</time>
      </trkpt>
      <trkpt lat="43.52137" lon="1.51385">
        <ele>159.19999694824</ele>
        <time>2020-06-03T08:03:57.000Z</time>
      </trkpt>
      <trkpt lat="43.52137" lon="1.51335">
        <ele>158.80000305176</ele>
        <time>2020-06-03T08:04:06.000Z</time>
      </trkpt>
      <trkpt lat="43.52131" lon="1.51324">
        <ele>158.80000305176</ele>
        <time>2020-06-03T08:04:08.000Z</time>
      </trkpt>
      <trkpt lat="43.52129" lon="1.51297">
        <ele>158.60000610352</ele>
        <time>2020-06-03T08:04:12.000Z</time>
      </trkpt>
      <trkpt lat="43.52129" lon="1.51216">
        <ele>158</ele>
        <time>2020-06-03T08:04:24.000Z</time>
      </trkpt>
      <trkpt lat="43.52127" lon="1.51177">
        <ele>157.60000610352</ele>
        <time>2020-06-03T08:04:30.000Z</time>
      </trkpt>
      <trkpt lat="43.52127" lon="1.5117">
        <ele>157.60000610352</ele>
        <time>2020-06-03T08:04:31.000Z</time>
      </trkpt>
      <trkpt lat="43.52163" lon="1.51129">
        <ele>157.80000305176</ele>
        <time>2020-06-03T08:04:43.000Z</time>
      </trkpt>
      <trkpt lat="43.52219" lon="1.51128">
        <ele>157.80000305176</ele>
        <time>2020-06-03T08:04:55.000Z</time>
      </trkpt>
      <trkpt lat="43.52274" lon="1.51128">
        <ele>158.39999389648</ele>
        <time>2020-06-03T08:05:08.000Z</time>
      </trkpt>
      <trkpt lat="43.52296" lon="1.51119">
        <ele>158.39999389648</ele>
        <time>2020-06-03T08:05:13.000Z</time>
      </trkpt>
      <trkpt lat="43.52344" lon="1.51078">
        <ele>157.80000305176</ele>
        <time>2020-06-03T08:05:24.000Z</time>
      </trkpt>
      <trkpt lat="43.52395" lon="1.51041">
        <ele>158</ele>
        <time>2020-06-03T08:05:39.000Z</time>
      </trkpt>
      <trkpt lat="43.52405" lon="1.51047">
        <ele>158.60000610352</ele>
        <time>2020-06-03T08:05:45.000Z</time>
      </trkpt>
      <trkpt lat="43.52411" lon="1.51047">
        <ele>159</ele>
        <time>2020-06-03T08:05:50.000Z</time>
      </trkpt>
      <trkpt lat="43.52412" lon="1.51047">
        <ele>159.19999694824</ele>
        <time>2020-06-03T08:05:54.000Z</time>
      </trkpt>
      <trkpt lat="43.52412" lon="1.51046">
        <ele>159.19999694824</ele>
        <time>2020-06-03T08:05:56.000Z</time>
      </trkpt>
      <trkpt lat="43.52412" lon="1.51046">
        <ele>159.19999694824</ele>
        <time>2020-06-03T08:05:59.000Z</time>
      </trkpt>
      <trkpt lat="43.52412" lon="1.51045">
        <ele>159.19999694824</ele>
        <time>2020-06-03T08:06:00.000Z</time>
      </trkpt>
      <trkpt lat="43.52407" lon="1.51034">
        <ele>159.39999389648</ele>
        <time>2020-06-03T08:10:38.000Z</time>
      </trkpt>
      <trkpt lat="43.52419" lon="1.50963">
        <ele>159.19999694824</ele>
        <time>2020-06-03T08:10:56.000Z</time>
      </trkpt>
      <trkpt lat="43.52434" lon="1.50888">
        <ele>159.19999694824</ele>
        <time>2020-06-03T08:11:10.000Z</time>
      </trkpt>
      <trkpt lat="43.52451" lon="1.50814">
        <ele>158.39999389648</ele>
        <time>2020-06-03T08:11:23.000Z</time>
      </trkpt>
      <trkpt lat="43.52458" lon="1.50786">
        <ele>158</ele>
        <time>2020-06-03T08:11:28.000Z</time>
      </trkpt>
      <trkpt lat="43.52463" lon="1.50762">
        <ele>157.80000305176</ele>
        <time>2020-06-03T08:11:32.000Z</time>
      </trkpt>
      <trkpt lat="43.52473" lon="1.50706">
        <ele>156.80000305176</ele>
        <time>2020-06-03T08:11:41.000Z</time>
      </trkpt>
      <trkpt lat="43.52476" lon="1.50689">
        <ele>156.60000610352</ele>
        <time>2020-06-03T08:11:44.000Z</time>
      </trkpt>
      <trkpt lat="43.52469" lon="1.50652">
        <ele>156.39999389648</ele>
        <time>2020-06-03T08:11:50.000Z</time>
      </trkpt>
      <trkpt lat="43.52443" lon="1.50583">
        <ele>156.60000610352</ele>
        <time>2020-06-03T08:12:02.000Z</time>
      </trkpt>
      <trkpt lat="43.52417" lon="1.50516">
        <ele>156.80000305176</ele>
        <time>2020-06-03T08:12:14.000Z</time>
      </trkpt>
      <trkpt lat="43.52415" lon="1.5051">
        <ele>156.80000305176</ele>
        <time>2020-06-03T08:12:15.000Z</time>
      </trkpt>
      <trkpt lat="43.52417" lon="1.50475">
        <ele>157</ele>
        <time>2020-06-03T08:12:21.000Z</time>
      </trkpt>
      <trkpt lat="43.5243" lon="1.50418">
        <ele>156.39999389648</ele>
        <time>2020-06-03T08:12:30.000Z</time>
      </trkpt>
      <trkpt lat="43.52426" lon="1.50384">
        <ele>156.19999694824</ele>
        <time>2020-06-03T08:12:35.000Z</time>
      </trkpt>
      <trkpt lat="43.52405" lon="1.50328">
        <ele>156.19999694824</ele>
        <time>2020-06-03T08:12:46.000Z</time>
      </trkpt>
      <trkpt lat="43.52406" lon="1.50297">
        <ele>156.60000610352</ele>
        <time>2020-06-03T08:12:51.000Z</time>
      </trkpt>
      <trkpt lat="43.52366" lon="1.50276">
        <ele>157</ele>
        <time>2020-06-03T08:13:04.000Z</time>
      </trkpt>
      <trkpt lat="43.52361" lon="1.50292">
        <ele>157.39999389648</ele>
        <time>2020-06-03T08:13:07.000Z</time>
      </trkpt>
      <trkpt lat="43.52356" lon="1.50309">
        <ele>157.60000610352</ele>
        <time>2020-06-03T08:13:10.000Z</time>
      </trkpt>
      <trkpt lat="43.52338" lon="1.50327">
        <ele>157.60000610352</ele>
        <time>2020-06-03T08:13:15.000Z</time>
      </trkpt>
      <trkpt lat="43.5232" lon="1.50339">
        <ele>157.60000610352</ele>
        <time>2020-06-03T08:13:20.000Z</time>
      </trkpt>
      <trkpt lat="43.52309" lon="1.50348">
        <ele>157.60000610352</ele>
        <time>2020-06-03T08:13:23.000Z</time>
      </trkpt>
      <trkpt lat="43.52294" lon="1.50357">
        <ele>157.80000305176</ele>
        <time>2020-06-03T08:13:27.000Z</time>
      </trkpt>
      <trkpt lat="43.52246" lon="1.50394">
        <ele>157.80000305176</ele>
        <time>2020-06-03T08:13:39.000Z</time>
      </trkpt>
      <trkpt lat="43.52234" lon="1.50402">
        <ele>157.80000305176</ele>
        <time>2020-06-03T08:13:42.000Z</time>
      </trkpt>
      <trkpt lat="43.5223" lon="1.50406">
        <ele>157.80000305176</ele>
        <time>2020-06-03T08:13:43.000Z</time>
      </trkpt>
      <trkpt lat="43.52204" lon="1.50423">
        <ele>158</ele>
        <time>2020-06-03T08:13:50.000Z</time>
      </trkpt>
      <trkpt lat="43.52199" lon="1.50424">
        <ele>158</ele>
        <time>2020-06-03T08:13:51.000Z</time>
      </trkpt>
      <trkpt lat="43.52158" lon="1.50388">
        <ele>158.80000305176</ele>
        <time>2020-06-03T08:14:06.000Z</time>
      </trkpt>
      <trkpt lat="43.52141" lon="1.50354">
        <ele>159</ele>
        <time>2020-06-03T08:14:14.000Z</time>
      </trkpt>
      <trkpt lat="43.52111" lon="1.50287">
        <ele>159.80000305176</ele>
        <time>2020-06-03T08:14:28.000Z</time>
      </trkpt>
      <trkpt lat="43.52086" lon="1.50226">
        <ele>160.39999389648</ele>
        <time>2020-06-03T08:14:41.000Z</time>
      </trkpt>
      <trkpt lat="43.52061" lon="1.50158">
        <ele>161.19999694824</ele>
        <time>2020-06-03T08:14:56.000Z</time>
      </trkpt>
      <trkpt lat="43.52051" lon="1.50124">
        <ele>161.39999389648</ele>
        <time>2020-06-03T08:15:03.000Z</time>
      </trkpt>
      <trkpt lat="43.52044" lon="1.50098">
        <ele>161.60000610352</ele>
        <time>2020-06-03T08:15:08.000Z</time>
      </trkpt>
      <trkpt lat="43.52024" lon="1.50028">
        <ele>162</ele>
        <time>2020-06-03T08:15:22.000Z</time>
      </trkpt>
      <trkpt lat="43.52017" lon="1.50007">
        <ele>162.60000610352</ele>
        <time>2020-06-03T08:15:26.000Z</time>
      </trkpt>
      <trkpt lat="43.51993" lon="1.49936">
        <ele>163.39999389648</ele>
        <time>2020-06-03T08:15:40.000Z</time>
      </trkpt>
      <trkpt lat="43.51989" lon="1.49922">
        <ele>163.80000305176</ele>
        <time>2020-06-03T08:15:43.000Z</time>
      </trkpt>
      <trkpt lat="43.51976" lon="1.49882">
        <ele>165</ele>
        <time>2020-06-03T08:15:52.000Z</time>
      </trkpt>
      <trkpt lat="43.5197" lon="1.49871">
        <ele>165.60000610352</ele>
        <time>2020-06-03T08:15:56.000Z</time>
      </trkpt>
      <trkpt lat="43.51963" lon="1.49871">
        <ele>166</ele>
        <time>2020-06-03T08:15:59.000Z</time>
      </trkpt>
      <trkpt lat="43.51947" lon="1.49908">
        <ele>166.60000610352</ele>
        <time>2020-06-03T08:16:08.000Z</time>
      </trkpt>
      <trkpt lat="43.51944" lon="1.49984">
        <ele>165.60000610352</ele>
        <time>2020-06-03T08:16:20.000Z</time>
      </trkpt>
      <trkpt lat="43.51941" lon="1.50033">
        <ele>165.19999694824</ele>
        <time>2020-06-03T08:16:27.000Z</time>
      </trkpt>
      <trkpt lat="43.51916" lon="1.50075">
        <ele>165.19999694824</ele>
        <time>2020-06-03T08:16:35.000Z</time>
      </trkpt>
      <trkpt lat="43.51866" lon="1.5011">
        <ele>165</ele>
        <time>2020-06-03T08:16:46.000Z</time>
      </trkpt>
      <trkpt lat="43.51862" lon="1.50113">
        <ele>165</ele>
        <time>2020-06-03T08:16:47.000Z</time>
      </trkpt>
      <trkpt lat="43.51812" lon="1.50144">
        <ele>165.19999694824</ele>
        <time>2020-06-03T08:16:59.000Z</time>
      </trkpt>
      <trkpt lat="43.51764" lon="1.50181">
        <ele>165.80000305176</ele>
        <time>2020-06-03T08:17:11.000Z</time>
      </trkpt>
      <trkpt lat="43.51757" lon="1.50188">
        <ele>166</ele>
        <time>2020-06-03T08:17:13.000Z</time>
      </trkpt>
      <trkpt lat="43.51737" lon="1.50185">
        <ele>166</ele>
        <time>2020-06-03T08:17:18.000Z</time>
      </trkpt>
      <trkpt lat="43.51731" lon="1.50171">
        <ele>166</ele>
        <time>2020-06-03T08:17:21.000Z</time>
      </trkpt>
      <trkpt lat="43.51712" lon="1.50111">
        <ele>166</ele>
        <time>2020-06-03T08:17:33.000Z</time>
      </trkpt>
      <trkpt lat="43.51688" lon="1.50038">
        <ele>166.80000305176</ele>
        <time>2020-06-03T08:17:49.000Z</time>
      </trkpt>
      <trkpt lat="43.51685" lon="1.5003">
        <ele>167.19999694824</ele>
        <time>2020-06-03T08:17:51.000Z</time>
      </trkpt>
      <trkpt lat="43.51666" lon="1.4998">
        <ele>168.19999694824</ele>
        <time>2020-06-03T08:18:05.000Z</time>
      </trkpt>
      <trkpt lat="43.51668" lon="1.49953">
        <ele>169.19999694824</ele>
        <time>2020-06-03T08:18:14.000Z</time>
      </trkpt>
      <trkpt lat="43.51668" lon="1.49946">
        <ele>169.39999389648</ele>
        <time>2020-06-03T08:18:16.000Z</time>
      </trkpt>
      <trkpt lat="43.51667" lon="1.49939">
        <ele>169.60000610352</ele>
        <time>2020-06-03T08:18:18.000Z</time>
      </trkpt>
      <trkpt lat="43.51654" lon="1.4987">
        <ele>171</ele>
        <time>2020-06-03T08:18:35.000Z</time>
      </trkpt>
      <trkpt lat="43.51643" lon="1.49842">
        <ele>171.60000610352</ele>
        <time>2020-06-03T08:18:43.000Z</time>
      </trkpt>
      <trkpt lat="43.51643" lon="1.49836">
        <ele>172.39999389648</ele>
        <time>2020-06-03T08:18:49.000Z</time>
      </trkpt>
      <trkpt lat="43.51646" lon="1.49833">
        <ele>173</ele>
        <time>2020-06-03T08:18:53.000Z</time>
      </trkpt>
      <trkpt lat="43.51684" lon="1.49806">
        <ele>172.60000610352</ele>
        <time>2020-06-03T08:19:07.000Z</time>
      </trkpt>
      <trkpt lat="43.51682" lon="1.49792">
        <ele>172.60000610352</ele>
        <time>2020-06-03T08:19:11.000Z</time>
      </trkpt>
      <trkpt lat="43.51688" lon="1.49759">
        <ele>173.80000305176</ele>
        <time>2020-06-03T08:19:21.000Z</time>
      </trkpt>
      <trkpt lat="43.51702" lon="1.49721">
        <ele>174.80000305176</ele>
        <time>2020-06-03T08:19:34.000Z</time>
      </trkpt>
      <trkpt lat="43.51711" lon="1.49686">
        <ele>176</ele>
        <time>2020-06-03T08:19:48.000Z</time>
      </trkpt>
      <trkpt lat="43.51724" lon="1.49642">
        <ele>177.19999694824</ele>
        <time>2020-06-03T08:20:04.000Z</time>
      </trkpt>
      <trkpt lat="43.51724" lon="1.49639">
        <ele>177.39999389648</ele>
        <time>2020-06-03T08:20:07.000Z</time>
      </trkpt>
      <trkpt lat="43.51724" lon="1.49639">
        <ele>177.39999389648</ele>
        <time>2020-06-03T08:20:08.000Z</time>
      </trkpt>
      <trkpt lat="43.51725" lon="1.49637">
        <ele>177.80000305176</ele>
        <time>2020-06-03T08:20:10.000Z</time>
      </trkpt>
      <trkpt lat="43.51727" lon="1.49631">
        <ele>178.39999389648</ele>
        <time>2020-06-03T08:20:15.000Z</time>
      </trkpt>
      <trkpt lat="43.51731" lon="1.49622">
        <ele>178.60000610352</ele>
        <time>2020-06-03T08:20:22.000Z</time>
      </trkpt>
      <trkpt lat="43.51731" lon="1.49619">
        <ele>178.60000610352</ele>
        <time>2020-06-03T08:20:24.000Z</time>
      </trkpt>
      <trkpt lat="43.51733" lon="1.496">
        <ele>179.39999389648</ele>
        <time>2020-06-03T08:20:35.000Z</time>
      </trkpt>
      <trkpt lat="43.51741" lon="1.49585">
        <ele>180</ele>
        <time>2020-06-03T08:20:47.000Z</time>
      </trkpt>
      <trkpt lat="43.51741" lon="1.49584">
        <ele>180.80000305176</ele>
        <time>2020-06-03T08:20:54.000Z</time>
      </trkpt>
      <trkpt lat="43.51771" lon="1.49593">
        <ele>180.60000610352</ele>
        <time>2020-06-03T08:21:05.000Z</time>
      </trkpt>
      <trkpt lat="43.51786" lon="1.49585">
        <ele>180.19999694824</ele>
        <time>2020-06-03T08:21:10.000Z</time>
      </trkpt>
      <trkpt lat="43.51818" lon="1.49547">
        <ele>182</ele>
        <time>2020-06-03T08:21:24.000Z</time>
      </trkpt>
      <trkpt lat="43.51829" lon="1.49532">
        <ele>183</ele>
        <time>2020-06-03T08:21:28.000Z</time>
      </trkpt>
      <trkpt lat="43.51875" lon="1.49491">
        <ele>183.60000610352</ele>
        <time>2020-06-03T08:21:39.000Z</time>
      </trkpt>
      <trkpt lat="43.51926" lon="1.49464">
        <ele>183</ele>
        <time>2020-06-03T08:21:50.000Z</time>
      </trkpt>
      <trkpt lat="43.51977" lon="1.4943">
        <ele>182.80000305176</ele>
        <time>2020-06-03T08:22:02.000Z</time>
      </trkpt>
      <trkpt lat="43.52019" lon="1.49383">
        <ele>183.80000305176</ele>
        <time>2020-06-03T08:22:15.000Z</time>
      </trkpt>
      <trkpt lat="43.52028" lon="1.49373">
        <ele>183.80000305176</ele>
        <time>2020-06-03T08:22:18.000Z</time>
      </trkpt>
      <trkpt lat="43.52065" lon="1.49326">
        <ele>185</ele>
        <time>2020-06-03T08:22:32.000Z</time>
      </trkpt>
      <trkpt lat="43.52081" lon="1.49293">
        <ele>186</ele>
        <time>2020-06-03T08:22:40.000Z</time>
      </trkpt>
      <trkpt lat="43.52092" lon="1.49262">
        <ele>187.19999694824</ele>
        <time>2020-06-03T08:22:47.000Z</time>
      </trkpt>
      <trkpt lat="43.52104" lon="1.49233">
        <ele>188.19999694824</ele>
        <time>2020-06-03T08:22:54.000Z</time>
      </trkpt>
      <trkpt lat="43.52117" lon="1.49204">
        <ele>189.19999694824</ele>
        <time>2020-06-03T08:23:01.000Z</time>
      </trkpt>
      <trkpt lat="43.52136" lon="1.49173">
        <ele>190.39999389648</ele>
        <time>2020-06-03T08:23:09.000Z</time>
      </trkpt>
      <trkpt lat="43.52168" lon="1.49123">
        <ele>191.39999389648</ele>
        <time>2020-06-03T08:23:23.000Z</time>
      </trkpt>
      <trkpt lat="43.52196" lon="1.49085">
        <ele>192.39999389648</ele>
        <time>2020-06-03T08:23:35.000Z</time>
      </trkpt>
      <trkpt lat="43.52218" lon="1.49053">
        <ele>193.39999389648</ele>
        <time>2020-06-03T08:23:43.000Z</time>
      </trkpt>
      <trkpt lat="43.52255" lon="1.49021">
        <ele>194.60000610352</ele>
        <time>2020-06-03T08:23:55.000Z</time>
      </trkpt>
      <trkpt lat="43.52295" lon="1.4898">
        <ele>195.60000610352</ele>
        <time>2020-06-03T08:24:08.000Z</time>
      </trkpt>
      <trkpt lat="43.52324" lon="1.4894">
        <ele>196.80000305176</ele>
        <time>2020-06-03T08:24:19.000Z</time>
      </trkpt>
      <trkpt lat="43.52362" lon="1.48886">
        <ele>197.39999389648</ele>
        <time>2020-06-03T08:24:33.000Z</time>
      </trkpt>
      <trkpt lat="43.52375" lon="1.48868">
        <ele>198</ele>
        <time>2020-06-03T08:24:38.000Z</time>
      </trkpt>
      <trkpt lat="43.52401" lon="1.48826">
        <ele>199.19999694824</ele>
        <time>2020-06-03T08:24:50.000Z</time>
      </trkpt>
      <trkpt lat="43.52428" lon="1.48765">
        <ele>199.80000305176</ele>
        <time>2020-06-03T08:25:04.000Z</time>
      </trkpt>
      <trkpt lat="43.52443" lon="1.48729">
        <ele>200.19999694824</ele>
        <time>2020-06-03T08:25:11.000Z</time>
      </trkpt>
      <trkpt lat="43.52467" lon="1.48672">
        <ele>201</ele>
        <time>2020-06-03T08:25:23.000Z</time>
      </trkpt>
      <trkpt lat="43.52473" lon="1.48665">
        <ele>201.39999389648</ele>
        <time>2020-06-03T08:25:25.000Z</time>
      </trkpt>
      <trkpt lat="43.5251" lon="1.4866">
        <ele>201.39999389648</ele>
        <time>2020-06-03T08:25:33.000Z</time>
      </trkpt>
      <trkpt lat="43.5255" lon="1.48673">
        <ele>200.39999389648</ele>
        <time>2020-06-03T08:25:41.000Z</time>
      </trkpt>
      <trkpt lat="43.52554" lon="1.48673">
        <ele>200.19999694824</ele>
        <time>2020-06-03T08:25:42.000Z</time>
      </trkpt>
      <trkpt lat="43.52567" lon="1.48657">
        <ele>199.60000610352</ele>
        <time>2020-06-03T08:25:46.000Z</time>
      </trkpt>
      <trkpt lat="43.52579" lon="1.48631">
        <ele>199.19999694824</ele>
        <time>2020-06-03T08:25:51.000Z</time>
      </trkpt>
      <trkpt lat="43.52585" lon="1.48592">
        <ele>198.39999389648</ele>
        <time>2020-06-03T08:25:57.000Z</time>
      </trkpt>
      <trkpt lat="43.52586" lon="1.48585">
        <ele>198.19999694824</ele>
        <time>2020-06-03T08:25:58.000Z</time>
      </trkpt>
      <trkpt lat="43.52591" lon="1.48566">
        <ele>198</ele>
        <time>2020-06-03T08:26:01.000Z</time>
      </trkpt>
      <trkpt lat="43.52602" lon="1.48535">
        <ele>197.80000305176</ele>
        <time>2020-06-03T08:26:06.000Z</time>
      </trkpt>
      <trkpt lat="43.52627" lon="1.48463">
        <ele>197.80000305176</ele>
        <time>2020-06-03T08:26:18.000Z</time>
      </trkpt>
      <trkpt lat="43.52634" lon="1.48435">
        <ele>198</ele>
        <time>2020-06-03T08:26:23.000Z</time>
      </trkpt>
      <trkpt lat="43.52641" lon="1.48395">
        <ele>199.19999694824</ele>
        <time>2020-06-03T08:26:30.000Z</time>
      </trkpt>
      <trkpt lat="43.52672" lon="1.48333">
        <ele>200</ele>
        <time>2020-06-03T08:26:43.000Z</time>
      </trkpt>
      <trkpt lat="43.52712" lon="1.4828">
        <ele>199.60000610352</ele>
        <time>2020-06-03T08:26:54.000Z</time>
      </trkpt>
      <trkpt lat="43.52745" lon="1.48243">
        <ele>198.19999694824</ele>
        <time>2020-06-03T08:27:01.000Z</time>
      </trkpt>
      <trkpt lat="43.52788" lon="1.48194">
        <ele>197.39999389648</ele>
        <time>2020-06-03T08:27:11.000Z</time>
      </trkpt>
      <trkpt lat="43.52804" lon="1.48178">
        <ele>197.19999694824</ele>
        <time>2020-06-03T08:27:15.000Z</time>
      </trkpt>
      <trkpt lat="43.5284" lon="1.48129">
        <ele>197.19999694824</ele>
        <time>2020-06-03T08:27:26.000Z</time>
      </trkpt>
      <trkpt lat="43.52869" lon="1.48069">
        <ele>198</ele>
        <time>2020-06-03T08:27:38.000Z</time>
      </trkpt>
      <trkpt lat="43.52871" lon="1.48063">
        <ele>198.19999694824</ele>
        <time>2020-06-03T08:27:39.000Z</time>
      </trkpt>
      <trkpt lat="43.52891" lon="1.4799">
        <ele>199.19999694824</ele>
        <time>2020-06-03T08:27:51.000Z</time>
      </trkpt>
      <trkpt lat="43.52893" lon="1.47984">
        <ele>199.19999694824</ele>
        <time>2020-06-03T08:27:52.000Z</time>
      </trkpt>
      <trkpt lat="43.52924" lon="1.47924">
        <ele>200</ele>
        <time>2020-06-03T08:28:04.000Z</time>
      </trkpt>
      <trkpt lat="43.52931" lon="1.47916">
        <ele>200.39999389648</ele>
        <time>2020-06-03T08:28:06.000Z</time>
      </trkpt>
      <trkpt lat="43.52958" lon="1.47927">
        <ele>201.39999389648</ele>
        <time>2020-06-03T08:28:15.000Z</time>
      </trkpt>
      <trkpt lat="43.52961" lon="1.47932">
        <ele>201.80000305176</ele>
        <time>2020-06-03T08:28:16.000Z</time>
      </trkpt>
      <trkpt lat="43.52984" lon="1.47968">
        <ele>202</ele>
        <time>2020-06-03T08:28:28.000Z</time>
      </trkpt>
      <trkpt lat="43.53" lon="1.47949">
        <ele>202</ele>
        <time>2020-06-03T08:28:37.000Z</time>
      </trkpt>
      <trkpt lat="43.53036" lon="1.47888">
        <ele>202</ele>
        <time>2020-06-03T08:28:51.000Z</time>
      </trkpt>
      <trkpt lat="43.53082" lon="1.47847">
        <ele>202.39999389648</ele>
        <time>2020-06-03T08:29:04.000Z</time>
      </trkpt>
      <trkpt lat="43.53123" lon="1.47791">
        <ele>202.80000305176</ele>
        <time>2020-06-03T08:29:17.000Z</time>
      </trkpt>
      <trkpt lat="43.5316" lon="1.47737">
        <ele>203.39999389648</ele>
        <time>2020-06-03T08:29:31.000Z</time>
      </trkpt>
      <trkpt lat="43.53187" lon="1.47712">
        <ele>204.60000610352</ele>
        <time>2020-06-03T08:29:41.000Z</time>
      </trkpt>
      <trkpt lat="43.532" lon="1.4769">
        <ele>204.80000305176</ele>
        <time>2020-06-03T08:29:47.000Z</time>
      </trkpt>
      <trkpt lat="43.53235" lon="1.47639">
        <ele>205.60000610352</ele>
        <time>2020-06-03T08:29:59.000Z</time>
      </trkpt>
      <trkpt lat="43.53274" lon="1.47588">
        <ele>206</ele>
        <time>2020-06-03T08:30:11.000Z</time>
      </trkpt>
      <trkpt lat="43.53307" lon="1.47541">
        <ele>206.60000610352</ele>
        <time>2020-06-03T08:30:22.000Z</time>
      </trkpt>
      <trkpt lat="43.53343" lon="1.47497">
        <ele>207.60000610352</ele>
        <time>2020-06-03T08:30:33.000Z</time>
      </trkpt>
      <trkpt lat="43.53388" lon="1.47451">
        <ele>207.80000305176</ele>
        <time>2020-06-03T08:30:46.000Z</time>
      </trkpt>
      <trkpt lat="43.53437" lon="1.4742">
        <ele>208.39999389648</ele>
        <time>2020-06-03T08:31:02.000Z</time>
      </trkpt>
      <trkpt lat="43.53487" lon="1.47389">
        <ele>208.39999389648</ele>
        <time>2020-06-03T08:31:15.000Z</time>
      </trkpt>
      <trkpt lat="43.53522" lon="1.47353">
        <ele>208.60000610352</ele>
        <time>2020-06-03T08:31:26.000Z</time>
      </trkpt>
      <trkpt lat="43.53559" lon="1.47297">
        <ele>208.19999694824</ele>
        <time>2020-06-03T08:31:38.000Z</time>
      </trkpt>
      <trkpt lat="43.53588" lon="1.47253">
        <ele>206.60000610352</ele>
        <time>2020-06-03T08:31:46.000Z</time>
      </trkpt>
      <trkpt lat="43.53601" lon="1.47222">
        <ele>205.80000305176</ele>
        <time>2020-06-03T08:31:57.000Z</time>
      </trkpt>
      <trkpt lat="43.53591" lon="1.47203">
        <ele>206.19999694824</ele>
        <time>2020-06-03T08:32:03.000Z</time>
      </trkpt>
      <trkpt lat="43.53563" lon="1.47165">
        <ele>207.80000305176</ele>
        <time>2020-06-03T08:32:17.000Z</time>
      </trkpt>
      <trkpt lat="43.53554" lon="1.47151">
        <ele>209</ele>
        <time>2020-06-03T08:32:21.000Z</time>
      </trkpt>
      <trkpt lat="43.53538" lon="1.47134">
        <ele>210.19999694824</ele>
        <time>2020-06-03T08:32:27.000Z</time>
      </trkpt>
      <trkpt lat="43.53521" lon="1.47113">
        <ele>211.19999694824</ele>
        <time>2020-06-03T08:32:33.000Z</time>
      </trkpt>
      <trkpt lat="43.53511" lon="1.47099">
        <ele>212.39999389648</ele>
        <time>2020-06-03T08:32:37.000Z</time>
      </trkpt>
      <trkpt lat="43.53496" lon="1.47078">
        <ele>213.39999389648</ele>
        <time>2020-06-03T08:32:44.000Z</time>
      </trkpt>
      <trkpt lat="43.53482" lon="1.47056">
        <ele>214.80000305176</ele>
        <time>2020-06-03T08:32:52.000Z</time>
      </trkpt>
      <trkpt lat="43.53479" lon="1.47029">
        <ele>215.80000305176</ele>
        <time>2020-06-03T08:32:58.000Z</time>
      </trkpt>
      <trkpt lat="43.53483" lon="1.46992">
        <ele>216.80000305176</ele>
        <time>2020-06-03T08:33:07.000Z</time>
      </trkpt>
      <trkpt lat="43.53489" lon="1.4698">
        <ele>217.19999694824</ele>
        <time>2020-06-03T08:33:12.000Z</time>
      </trkpt>
      <trkpt lat="43.5349" lon="1.46978">
        <ele>218.39999389648</ele>
        <time>2020-06-03T08:33:39.000Z</time>
      </trkpt>
      <trkpt lat="43.53517" lon="1.46937">
        <ele>218.19999694824</ele>
        <time>2020-06-03T08:33:54.000Z</time>
      </trkpt>
      <trkpt lat="43.5355" lon="1.4688">
        <ele>218.39999389648</ele>
        <time>2020-06-03T08:34:08.000Z</time>
      </trkpt>
      <trkpt lat="43.53582" lon="1.46819">
        <ele>218.60000610352</ele>
        <time>2020-06-03T08:34:23.000Z</time>
      </trkpt>
      <trkpt lat="43.53588" lon="1.4681">
        <ele>218.80000305176</ele>
        <time>2020-06-03T08:34:26.000Z</time>
      </trkpt>
      <trkpt lat="43.53601" lon="1.46817">
        <ele>219</ele>
        <time>2020-06-03T08:34:31.000Z</time>
      </trkpt>
      <trkpt lat="43.53603" lon="1.46821">
        <ele>219</ele>
        <time>2020-06-03T08:34:32.000Z</time>
      </trkpt>
      <trkpt lat="43.53621" lon="1.46833">
        <ele>219</ele>
        <time>2020-06-03T08:34:36.000Z</time>
      </trkpt>
      <trkpt lat="43.53636" lon="1.46841">
        <ele>219</ele>
        <time>2020-06-03T08:34:39.000Z</time>
      </trkpt>
      <trkpt lat="43.53661" lon="1.46839">
        <ele>216.80000305176</ele>
        <time>2020-06-03T08:34:43.000Z</time>
      </trkpt>
      <trkpt lat="43.53672" lon="1.46839">
        <ele>215.80000305176</ele>
        <time>2020-06-03T08:34:45.000Z</time>
      </trkpt>
      <trkpt lat="43.53677" lon="1.46836">
        <ele>215.19999694824</ele>
        <time>2020-06-03T08:34:46.000Z</time>
      </trkpt>
      <trkpt lat="43.53685" lon="1.46827">
        <ele>214</ele>
        <time>2020-06-03T08:34:48.000Z</time>
      </trkpt>
      <trkpt lat="43.53691" lon="1.46816">
        <ele>213.60000610352</ele>
        <time>2020-06-03T08:34:50.000Z</time>
      </trkpt>
      <trkpt lat="43.53724" lon="1.46753">
        <ele>213.80000305176</ele>
        <time>2020-06-03T08:35:04.000Z</time>
      </trkpt>
      <trkpt lat="43.5375" lon="1.46715">
        <ele>215.19999694824</ele>
        <time>2020-06-03T08:35:15.000Z</time>
      </trkpt>
      <trkpt lat="43.53752" lon="1.46708">
        <ele>215.80000305176</ele>
        <time>2020-06-03T08:35:19.000Z</time>
      </trkpt>
      <trkpt lat="43.53759" lon="1.46698">
        <ele>216.19999694824</ele>
        <time>2020-06-03T08:35:23.000Z</time>
      </trkpt>
      <trkpt lat="43.53768" lon="1.4669">
        <ele>216.19999694824</ele>
        <time>2020-06-03T08:35:26.000Z</time>
      </trkpt>
      <trkpt lat="43.53807" lon="1.46637">
        <ele>217</ele>
        <time>2020-06-03T08:35:41.000Z</time>
      </trkpt>
      <trkpt lat="43.53817" lon="1.46622">
        <ele>217.39999389648</ele>
        <time>2020-06-03T08:35:45.000Z</time>
      </trkpt>
      <trkpt lat="43.5383" lon="1.46603">
        <ele>218.60000610352</ele>
        <time>2020-06-03T08:35:50.000Z</time>
      </trkpt>
      <trkpt lat="43.5385" lon="1.46574">
        <ele>219.60000610352</ele>
        <time>2020-06-03T08:35:58.000Z</time>
      </trkpt>
      <trkpt lat="43.53862" lon="1.46554">
        <ele>220.60000610352</ele>
        <time>2020-06-03T08:36:03.000Z</time>
      </trkpt>
      <trkpt lat="43.53883" lon="1.4651">
        <ele>221.80000305176</ele>
        <time>2020-06-03T08:36:13.000Z</time>
      </trkpt>
      <trkpt lat="43.53892" lon="1.46493">
        <ele>223</ele>
        <time>2020-06-03T08:36:17.000Z</time>
      </trkpt>
      <trkpt lat="43.53897" lon="1.46484">
        <ele>223</ele>
        <time>2020-06-03T08:36:19.000Z</time>
      </trkpt>
      <trkpt lat="43.53925" lon="1.46435">
        <ele>223.80000305176</ele>
        <time>2020-06-03T08:36:30.000Z</time>
      </trkpt>
      <trkpt lat="43.53927" lon="1.46431">
        <ele>224</ele>
        <time>2020-06-03T08:36:31.000Z</time>
      </trkpt>
      <trkpt lat="43.53945" lon="1.46405">
        <ele>225.19999694824</ele>
        <time>2020-06-03T08:36:37.000Z</time>
      </trkpt>
      <trkpt lat="43.53958" lon="1.46384">
        <ele>225.39999389648</ele>
        <time>2020-06-03T08:36:42.000Z</time>
      </trkpt>
      <trkpt lat="43.53979" lon="1.46358">
        <ele>226.39999389648</ele>
        <time>2020-06-03T08:36:49.000Z</time>
      </trkpt>
      <trkpt lat="43.5401" lon="1.46317">
        <ele>227.60000610352</ele>
        <time>2020-06-03T08:37:00.000Z</time>
      </trkpt>
      <trkpt lat="43.54039" lon="1.46295">
        <ele>228.60000610352</ele>
        <time>2020-06-03T08:37:10.000Z</time>
      </trkpt>
      <trkpt lat="43.5406" lon="1.46264">
        <ele>229.60000610352</ele>
        <time>2020-06-03T08:37:19.000Z</time>
      </trkpt>
      <trkpt lat="43.54077" lon="1.46239">
        <ele>230</ele>
        <time>2020-06-03T08:37:26.000Z</time>
      </trkpt>
      <trkpt lat="43.5409" lon="1.46215">
        <ele>230.19999694824</ele>
        <time>2020-06-03T08:37:31.000Z</time>
      </trkpt>
      <trkpt lat="43.54098" lon="1.46201">
        <ele>230.60000610352</ele>
        <time>2020-06-03T08:37:34.000Z</time>
      </trkpt>
      <trkpt lat="43.54105" lon="1.46187">
        <ele>231</ele>
        <time>2020-06-03T08:37:37.000Z</time>
      </trkpt>
      <trkpt lat="43.54123" lon="1.46155">
        <ele>231.60000610352</ele>
        <time>2020-06-03T08:37:44.000Z</time>
      </trkpt>
      <trkpt lat="43.54145" lon="1.46111">
        <ele>232.60000610352</ele>
        <time>2020-06-03T08:37:54.000Z</time>
      </trkpt>
      <trkpt lat="43.54157" lon="1.46087">
        <ele>233.60000610352</ele>
        <time>2020-06-03T08:37:59.000Z</time>
      </trkpt>
      <trkpt lat="43.54185" lon="1.46024">
        <ele>234.80000305176</ele>
        <time>2020-06-03T08:38:12.000Z</time>
      </trkpt>
      <trkpt lat="43.54202" lon="1.4598">
        <ele>235.80000305176</ele>
        <time>2020-06-03T08:38:20.000Z</time>
      </trkpt>
      <trkpt lat="43.54221" lon="1.45931">
        <ele>236.19999694824</ele>
        <time>2020-06-03T08:38:29.000Z</time>
      </trkpt>
      <trkpt lat="43.5423" lon="1.4591">
        <ele>236.19999694824</ele>
        <time>2020-06-03T08:38:32.000Z</time>
      </trkpt>
      <trkpt lat="43.54258" lon="1.45853">
        <ele>235.19999694824</ele>
        <time>2020-06-03T08:38:38.000Z</time>
      </trkpt>
      <trkpt lat="43.54277" lon="1.45823">
        <ele>234.19999694824</ele>
        <time>2020-06-03T08:38:41.000Z</time>
      </trkpt>
      <trkpt lat="43.5429" lon="1.45804">
        <ele>232.60000610352</ele>
        <time>2020-06-03T08:38:43.000Z</time>
      </trkpt>
      <trkpt lat="43.54302" lon="1.45786">
        <ele>231.39999389648</ele>
        <time>2020-06-03T08:38:45.000Z</time>
      </trkpt>
      <trkpt lat="43.54342" lon="1.45726">
        <ele>231</ele>
        <time>2020-06-03T08:38:52.000Z</time>
      </trkpt>
      <trkpt lat="43.54378" lon="1.45665">
        <ele>231.60000610352</ele>
        <time>2020-06-03T08:38:59.000Z</time>
      </trkpt>
      <trkpt lat="43.54405" lon="1.45628">
        <ele>232.39999389648</ele>
        <time>2020-06-03T08:39:05.000Z</time>
      </trkpt>
      <trkpt lat="43.54422" lon="1.45611">
        <ele>233.60000610352</ele>
        <time>2020-06-03T08:39:10.000Z</time>
      </trkpt>
      <trkpt lat="43.54425" lon="1.4561">
        <ele>233.80000305176</ele>
        <time>2020-06-03T08:39:11.000Z</time>
      </trkpt>
      <trkpt lat="43.54431" lon="1.45613">
        <ele>234.60000610352</ele>
        <time>2020-06-03T08:39:13.000Z</time>
      </trkpt>
      <trkpt lat="43.54433" lon="1.45622">
        <ele>235.80000305176</ele>
        <time>2020-06-03T08:39:15.000Z</time>
      </trkpt>
      <trkpt lat="43.54433" lon="1.45628">
        <ele>236.19999694824</ele>
        <time>2020-06-03T08:39:16.000Z</time>
      </trkpt>
      <trkpt lat="43.54433" lon="1.45633">
        <ele>236.60000610352</ele>
        <time>2020-06-03T08:39:17.000Z</time>
      </trkpt>
      <trkpt lat="43.54432" lon="1.45644">
        <ele>237</ele>
        <time>2020-06-03T08:39:19.000Z</time>
      </trkpt>
      <trkpt lat="43.54426" lon="1.45677">
        <ele>237.60000610352</ele>
        <time>2020-06-03T08:39:25.000Z</time>
      </trkpt>
      <trkpt lat="43.54406" lon="1.45715">
        <ele>237.60000610352</ele>
        <time>2020-06-03T08:39:31.000Z</time>
      </trkpt>
      <trkpt lat="43.54378" lon="1.45743">
        <ele>235.60000610352</ele>
        <time>2020-06-03T08:39:38.000Z</time>
      </trkpt>
      <trkpt lat="43.54366" lon="1.45754">
        <ele>234.60000610352</ele>
        <time>2020-06-03T08:39:41.000Z</time>
      </trkpt>
      <trkpt lat="43.54363" lon="1.45759">
        <ele>234.39999389648</ele>
        <time>2020-06-03T08:39:42.000Z</time>
      </trkpt>
      <trkpt lat="43.54356" lon="1.4577">
        <ele>233.19999694824</ele>
        <time>2020-06-03T08:39:44.000Z</time>
      </trkpt>
      <trkpt lat="43.54331" lon="1.45811">
        <ele>232</ele>
        <time>2020-06-03T08:39:54.000Z</time>
      </trkpt>
      <trkpt lat="43.5433" lon="1.45812">
        <ele>232</ele>
        <time>2020-06-03T08:39:55.000Z</time>
      </trkpt>
      <trkpt lat="43.54328" lon="1.45814">
        <ele>231.80000305176</ele>
        <time>2020-06-03T08:40:38.000Z</time>
      </trkpt>
      <trkpt lat="43.54325" lon="1.45814">
        <ele>231.80000305176</ele>
        <time>2020-06-03T08:40:41.000Z</time>
      </trkpt>
      <trkpt lat="43.54322" lon="1.45813">
        <ele>231.80000305176</ele>
        <time>2020-06-03T08:40:44.000Z</time>
      </trkpt>
      <trkpt lat="43.54318" lon="1.45814">
        <ele>230.80000305176</ele>
        <time>2020-06-03T08:40:54.000Z</time>
      </trkpt>
      <trkpt lat="43.54314" lon="1.4582">
        <ele>230.80000305176</ele>
        <time>2020-06-03T08:41:00.000Z</time>
      </trkpt>
    </trkseg>
  </trk>
  <trk>
    <name><![CDATA[Toulouse Cyclisme sur route]]></name>
    <extensions>
      <line xmlns="http://www.topografix.com/GPX/gpx_style/0/2">
        <color>00ff00</color>
        <width>4</width>
      </line>
    </extensions>
    <trkseg>
      <trkpt lat="43.54333" lon="1.45823">
        <ele>164</ele>
        <time>2020-06-10T13:19:52.000Z</time>
        <extensions>
          <gpxtpx:TrackPointExtension xmlns:gpxtpx="http://www.garmin.com/xmlschemas/TrackPointExtension/v1">
            <gpxtpx:hr>82</gpxtpx:hr>
          </gpxtpx:TrackPointExtension>
        </extensions>
      </trkpt>
      <trkpt lat="43.54333" lon="1.45823">
        <ele>164</ele>
        <time>2020-06-10T13:19:52.000Z</time>
        <extensions>
          <gpxtpx:TrackPointExtension xmlns:gpxtpx="http://www.garmin.com/xmlschemas/TrackPointExtension/v1">
            <gpxtpx:hr>82</gpxtpx:hr>
          </gpxtpx:TrackPointExtension>
        </extensions>
      </trkpt>
      <trkpt lat="43.54334" lon="1.45826">
        <ele>164</ele>
        <time>2020-06-10T13:19:53.000Z</time>
        <extensions>
          <gpxtpx:TrackPointExtension xmlns:gpxtpx="http://www.garmin.com/xmlschemas/TrackPointExtension/v1">
            <gpxtpx:hr>81</gpxtpx:hr>
          </gpxtpx:TrackPointExtension>
        </extensions>
      </trkpt>
      <trkpt lat="43.54334" lon="1.45826">
        <ele>163.80000305176</ele>
        <time>2020-06-10T13:19:54.000Z</time>
        <extensions>
          <gpxtpx:TrackPointExtension xmlns:gpxtpx="http://www.garmin.com/xmlschemas/TrackPointExtension/v1">
            <gpxtpx:hr>80</gpxtpx:hr>
          </gpxtpx:TrackPointExtension>
        </extensions>
      </trkpt>
      <trkpt lat="43.54335" lon="1.45829">
        <ele>163.39999389648</ele>
        <time>2020-06-10T13:19:55.000Z</time>
        <extensions>
          <gpxtpx:TrackPointExtension xmlns:gpxtpx="http://www.garmin.com/xmlschemas/TrackPointExtension/v1">
            <gpxtpx:hr>79</gpxtpx:hr>
          </gpxtpx:TrackPointExtension>
        </extensions>
      </trkpt>
      <trkpt lat="43.54337" lon="1.45836">
        <ele>163</ele>
        <time>2020-06-10T13:19:56.000Z</time>
        <extensions>
          <gpxtpx:TrackPointExtension xmlns:gpxtpx="http://www.garmin.com/xmlschemas/TrackPointExtension/v1">
            <gpxtpx:hr>79</gpxtpx:hr>
          </gpxtpx:TrackPointExtension>
        </extensions>
      </trkpt>
      <trkpt lat="43.54337" lon="1.45836">
        <ele>162.39999389648</ele>
        <time>2020-06-10T13:19:57.000Z</time>
        <extensions>
          <gpxtpx:TrackPointExtension xmlns:gpxtpx="http://www.garmin.com/xmlschemas/TrackPointExtension/v1">
            <gpxtpx:hr>78</gpxtpx:hr>
          </gpxtpx:TrackPointExtension>
        </extensions>
      </trkpt>
      <trkpt lat="43.54338" lon="1.4584">
        <ele>161.80000305176</ele>
        <time>2020-06-10T13:19:58.000Z</time>
        <extensions>
          <gpxtpx:TrackPointExtension xmlns:gpxtpx="http://www.garmin.com/xmlschemas/TrackPointExtension/v1">
            <gpxtpx:hr>78</gpxtpx:hr>
          </gpxtpx:TrackPointExtension>
        </extensions>
      </trkpt>
      <trkpt lat="43.54342" lon="1.45848">
        <ele>161.60000610352</ele>
        <time>2020-06-10T13:20:00.000Z</time>
        <extensions>
          <gpxtpx:TrackPointExtension xmlns:gpxtpx="http://www.garmin.com/xmlschemas/TrackPointExtension/v1">
            <gpxtpx:hr>78</gpxtpx:hr>
          </gpxtpx:TrackPointExtension>
        </extensions>
      </trkpt>
      <trkpt lat="43.54345" lon="1.45858">
        <ele>161.39999389648</ele>
        <time>2020-06-10T13:20:02.000Z</time>
        <extensions>
          <gpxtpx:TrackPointExtension xmlns:gpxtpx="http://www.garmin.com/xmlschemas/TrackPointExtension/v1">
            <gpxtpx:hr>78</gpxtpx:hr>
          </gpxtpx:TrackPointExtension>
        </extensions>
      </trkpt>
      <trkpt lat="43.54349" lon="1.45869">
        <ele>161.19999694824</ele>
        <time>2020-06-10T13:20:04.000Z</time>
        <extensions>
          <gpxtpx:TrackPointExtension xmlns:gpxtpx="http://www.garmin.com/xmlschemas/TrackPointExtension/v1">
            <gpxtpx:hr>77</gpxtpx:hr>
          </gpxtpx:TrackPointExtension>
        </extensions>
      </trkpt>
      <trkpt lat="43.54349" lon="1.45883">
        <ele>160.80000305176</ele>
        <time>2020-06-10T13:20:06.000Z</time>
        <extensions>
          <gpxtpx:TrackPointExtension xmlns:gpxtpx="http://www.garmin.com/xmlschemas/TrackPointExtension/v1">
            <gpxtpx:hr>75</gpxtpx:hr>
          </gpxtpx:TrackPointExtension>
        </extensions>
      </trkpt>
      <trkpt lat="43.54349" lon="1.45898">
        <ele>160.19999694824</ele>
        <time>2020-06-10T13:20:07.000Z</time>
        <extensions>
          <gpxtpx:TrackPointExtension xmlns:gpxtpx="http://www.garmin.com/xmlschemas/TrackPointExtension/v1">
            <gpxtpx:hr>75</gpxtpx:hr>
          </gpxtpx:TrackPointExtension>
        </extensions>
      </trkpt>
      <trkpt lat="43.54349" lon="1.45898">
        <ele>159.80000305176</ele>
        <time>2020-06-10T13:20:08.000Z</time>
        <extensions>
          <gpxtpx:TrackPointExtension xmlns:gpxtpx="http://www.garmin.com/xmlschemas/TrackPointExtension/v1">
            <gpxtpx:hr>74</gpxtpx:hr>
          </gpxtpx:TrackPointExtension>
        </extensions>
      </trkpt>
      <trkpt lat="43.5435" lon="1.45905">
        <ele>159.80000305176</ele>
        <time>2020-06-10T13:20:09.000Z</time>
        <extensions>
          <gpxtpx:TrackPointExtension xmlns:gpxtpx="http://www.garmin.com/xmlschemas/TrackPointExtension/v1">
            <gpxtpx:hr>74</gpxtpx:hr>
          </gpxtpx:TrackPointExtension>
        </extensions>
      </trkpt>
      <trkpt lat="43.54353" lon="1.45912">
        <ele>160.60000610352</ele>
        <time>2020-06-10T13:20:10.000Z</time>
        <extensions>
          <gpxtpx:TrackPointExtension xmlns:gpxtpx="http://www.garmin.com/xmlschemas/TrackPointExtension/v1">
            <gpxtpx:hr>72</gpxtpx:hr>
          </gpxtpx:TrackPointExtension>
        </extensions>
      </trkpt>
      <trkpt lat="43.54358" lon="1.45925">
        <ele>161.19999694824</ele>
        <time>2020-06-10T13:20:12.000Z</time>
        <extensions>
          <gpxtpx:TrackPointExtension xmlns:gpxtpx="http://www.garmin.com/xmlschemas/TrackPointExtension/v1">
            <gpxtpx:hr>71</gpxtpx:hr>
          </gpxtpx:TrackPointExtension>
        </extensions>
      </trkpt>
      <trkpt lat="43.54362" lon="1.45938">
        <ele>161.19999694824</ele>
        <time>2020-06-10T13:20:14.000Z</time>
        <extensions>
          <gpxtpx:TrackPointExtension xmlns:gpxtpx="http://www.garmin.com/xmlschemas/TrackPointExtension/v1">
            <gpxtpx:hr>70</gpxtpx:hr>
          </gpxtpx:TrackPointExtension>
        </extensions>
      </trkpt>
      <trkpt lat="43.54367" lon="1.45951">
        <ele>160.19999694824</ele>
        <time>2020-06-10T13:20:16.000Z</time>
        <extensions>
          <gpxtpx:TrackPointExtension xmlns:gpxtpx="http://www.garmin.com/xmlschemas/TrackPointExtension/v1">
            <gpxtpx:hr>69</gpxtpx:hr>
          </gpxtpx:TrackPointExtension>
        </extensions>
      </trkpt>
      <trkpt lat="43.54369" lon="1.45957">
        <ele>160</ele>
        <time>2020-06-10T13:20:17.000Z</time>
        <extensions>
          <gpxtpx:TrackPointExtension xmlns:gpxtpx="http://www.garmin.com/xmlschemas/TrackPointExtension/v1">
            <gpxtpx:hr>68</gpxtpx:hr>
          </gpxtpx:TrackPointExtension>
        </extensions>
      </trkpt>
      <trkpt lat="43.54372" lon="1.45962">
        <ele>159.80000305176</ele>
        <time>2020-06-10T13:20:18.000Z</time>
        <extensions>
          <gpxtpx:TrackPointExtension xmlns:gpxtpx="http://www.garmin.com/xmlschemas/TrackPointExtension/v1">
            <gpxtpx:hr>68</gpxtpx:hr>
          </gpxtpx:TrackPointExtension>
        </extensions>
      </trkpt>
      <trkpt lat="43.54378" lon="1.4597">
        <ele>159.60000610352</ele>
        <time>2020-06-10T13:20:20.000Z</time>
        <extensions>
          <gpxtpx:TrackPointExtension xmlns:gpxtpx="http://www.garmin.com/xmlschemas/TrackPointExtension/v1">
            <gpxtpx:hr>67</gpxtpx:hr>
          </gpxtpx:TrackPointExtension>
        </extensions>
      </trkpt>
      <trkpt lat="43.54385" lon="1.45974">
        <ele>159.60000610352</ele>
        <time>2020-06-10T13:20:22.000Z</time>
        <extensions>
          <gpxtpx:TrackPointExtension xmlns:gpxtpx="http://www.garmin.com/xmlschemas/TrackPointExtension/v1">
            <gpxtpx:hr>67</gpxtpx:hr>
          </gpxtpx:TrackPointExtension>
        </extensions>
      </trkpt>
      <trkpt lat="43.54392" lon="1.45976">
        <ele>159.60000610352</ele>
        <time>2020-06-10T13:20:24.000Z</time>
        <extensions>
          <gpxtpx:TrackPointExtension xmlns:gpxtpx="http://www.garmin.com/xmlschemas/TrackPointExtension/v1">
            <gpxtpx:hr>68</gpxtpx:hr>
          </gpxtpx:TrackPointExtension>
        </extensions>
      </trkpt>
      <trkpt lat="43.54398" lon="1.45973">
        <ele>159.60000610352</ele>
        <time>2020-06-10T13:20:26.000Z</time>
        <extensions>
          <gpxtpx:TrackPointExtension xmlns:gpxtpx="http://www.garmin.com/xmlschemas/TrackPointExtension/v1">
            <gpxtpx:hr>69</gpxtpx:hr>
          </gpxtpx:TrackPointExtension>
        </extensions>
      </trkpt>
      <trkpt lat="43.54402" lon="1.45967">
        <ele>160.19999694824</ele>
        <time>2020-06-10T13:20:28.000Z</time>
        <extensions>
          <gpxtpx:TrackPointExtension xmlns:gpxtpx="http://www.garmin.com/xmlschemas/TrackPointExtension/v1">
            <gpxtpx:hr>71</gpxtpx:hr>
          </gpxtpx:TrackPointExtension>
        </extensions>
      </trkpt>
      <trkpt lat="43.54404" lon="1.45963">
        <ele>160.39999389648</ele>
        <time>2020-06-10T13:20:29.000Z</time>
        <extensions>
          <gpxtpx:TrackPointExtension xmlns:gpxtpx="http://www.garmin.com/xmlschemas/TrackPointExtension/v1">
            <gpxtpx:hr>71</gpxtpx:hr>
          </gpxtpx:TrackPointExtension>
        </extensions>
      </trkpt>
      <trkpt lat="43.54405" lon="1.45959">
        <ele>160.60000610352</ele>
        <time>2020-06-10T13:20:30.000Z</time>
        <extensions>
          <gpxtpx:TrackPointExtension xmlns:gpxtpx="http://www.garmin.com/xmlschemas/TrackPointExtension/v1">
            <gpxtpx:hr>72</gpxtpx:hr>
          </gpxtpx:TrackPointExtension>
        </extensions>
      </trkpt>
      <trkpt lat="43.54407" lon="1.45952">
        <ele>161</ele>
        <time>2020-06-10T13:20:32.000Z</time>
        <extensions>
          <gpxtpx:TrackPointExtension xmlns:gpxtpx="http://www.garmin.com/xmlschemas/TrackPointExtension/v1">
            <gpxtpx:hr>74</gpxtpx:hr>
          </gpxtpx:TrackPointExtension>
        </extensions>
      </trkpt>
      <trkpt lat="43.54408" lon="1.45945">
        <ele>161.60000610352</ele>
        <time>2020-06-10T13:20:34.000Z</time>
        <extensions>
          <gpxtpx:TrackPointExtension xmlns:gpxtpx="http://www.garmin.com/xmlschemas/TrackPointExtension/v1">
            <gpxtpx:hr>76</gpxtpx:hr>
          </gpxtpx:TrackPointExtension>
        </extensions>
      </trkpt>
      <trkpt lat="43.5441" lon="1.45937">
        <ele>162</ele>
        <time>2020-06-10T13:20:36.000Z</time>
        <extensions>
          <gpxtpx:TrackPointExtension xmlns:gpxtpx="http://www.garmin.com/xmlschemas/TrackPointExtension/v1">
            <gpxtpx:hr>79</gpxtpx:hr>
          </gpxtpx:TrackPointExtension>
        </extensions>
      </trkpt>
      <trkpt lat="43.54411" lon="1.4593">
        <ele>162.60000610352</ele>
        <time>2020-06-10T13:20:38.000Z</time>
        <extensions>
          <gpxtpx:TrackPointExtension xmlns:gpxtpx="http://www.garmin.com/xmlschemas/TrackPointExtension/v1">
            <gpxtpx:hr>81</gpxtpx:hr>
          </gpxtpx:TrackPointExtension>
        </extensions>
      </trkpt>
      <trkpt lat="43.54412" lon="1.45921">
        <ele>162.80000305176</ele>
        <time>2020-06-10T13:20:40.000Z</time>
        <extensions>
          <gpxtpx:TrackPointExtension xmlns:gpxtpx="http://www.garmin.com/xmlschemas/TrackPointExtension/v1">
            <gpxtpx:hr>82</gpxtpx:hr>
          </gpxtpx:TrackPointExtension>
        </extensions>
      </trkpt>
      <trkpt lat="43.54412" lon="1.45913">
        <ele>163.19999694824</ele>
        <time>2020-06-10T13:20:42.000Z</time>
        <extensions>
          <gpxtpx:TrackPointExtension xmlns:gpxtpx="http://www.garmin.com/xmlschemas/TrackPointExtension/v1">
            <gpxtpx:hr>82</gpxtpx:hr>
          </gpxtpx:TrackPointExtension>
        </extensions>
      </trkpt>
      <trkpt lat="43.54412" lon="1.45905">
        <ele>163.60000610352</ele>
        <time>2020-06-10T13:20:44.000Z</time>
        <extensions>
          <gpxtpx:TrackPointExtension xmlns:gpxtpx="http://www.garmin.com/xmlschemas/TrackPointExtension/v1">
            <gpxtpx:hr>84</gpxtpx:hr>
          </gpxtpx:TrackPointExtension>
        </extensions>
      </trkpt>
      <trkpt lat="43.54411" lon="1.45897">
        <ele>164.19999694824</ele>
        <time>2020-06-10T13:20:46.000Z</time>
        <extensions>
          <gpxtpx:TrackPointExtension xmlns:gpxtpx="http://www.garmin.com/xmlschemas/TrackPointExtension/v1">
            <gpxtpx:hr>84</gpxtpx:hr>
          </gpxtpx:TrackPointExtension>
        </extensions>
      </trkpt>
      <trkpt lat="43.5441" lon="1.45893">
        <ele>164.60000610352</ele>
        <time>2020-06-10T13:20:47.000Z</time>
        <extensions>
          <gpxtpx:TrackPointExtension xmlns:gpxtpx="http://www.garmin.com/xmlschemas/TrackPointExtension/v1">
            <gpxtpx:hr>84</gpxtpx:hr>
          </gpxtpx:TrackPointExtension>
        </extensions>
      </trkpt>
      <trkpt lat="43.5441" lon="1.45889">
        <ele>164.80000305176</ele>
        <time>2020-06-10T13:20:48.000Z</time>
        <extensions>
          <gpxtpx:TrackPointExtension xmlns:gpxtpx="http://www.garmin.com/xmlschemas/TrackPointExtension/v1">
            <gpxtpx:hr>85</gpxtpx:hr>
          </gpxtpx:TrackPointExtension>
        </extensions>
      </trkpt>
      <trkpt lat="43.54409" lon="1.4588">
        <ele>165.19999694824</ele>
        <time>2020-06-10T13:20:50.000Z</time>
        <extensions>
          <gpxtpx:TrackPointExtension xmlns:gpxtpx="http://www.garmin.com/xmlschemas/TrackPointExtension/v1">
            <gpxtpx:hr>85</gpxtpx:hr>
          </gpxtpx:TrackPointExtension>
        </extensions>
      </trkpt>
      <trkpt lat="43.54408" lon="1.45871">
        <ele>165.60000610352</ele>
        <time>2020-06-10T13:20:52.000Z</time>
        <extensions>
          <gpxtpx:TrackPointExtension xmlns:gpxtpx="http://www.garmin.com/xmlschemas/TrackPointExtension/v1">
            <gpxtpx:hr>85</gpxtpx:hr>
          </gpxtpx:TrackPointExtension>
        </extensions>
      </trkpt>
      <trkpt lat="43.54407" lon="1.45862">
        <ele>165.80000305176</ele>
        <time>2020-06-10T13:20:54.000Z</time>
        <extensions>
          <gpxtpx:TrackPointExtension xmlns:gpxtpx="http://www.garmin.com/xmlschemas/TrackPointExtension/v1">
            <gpxtpx:hr>86</gpxtpx:hr>
          </gpxtpx:TrackPointExtension>
        </extensions>
      </trkpt>
      <trkpt lat="43.54406" lon="1.45853">
        <ele>165.80000305176</ele>
        <time>2020-06-10T13:20:56.000Z</time>
        <extensions>
          <gpxtpx:TrackPointExtension xmlns:gpxtpx="http://www.garmin.com/xmlschemas/TrackPointExtension/v1">
            <gpxtpx:hr>86</gpxtpx:hr>
          </gpxtpx:TrackPointExtension>
        </extensions>
      </trkpt>
      <trkpt lat="43.54405" lon="1.45844">
        <ele>165.80000305176</ele>
        <time>2020-06-10T13:20:58.000Z</time>
        <extensions>
          <gpxtpx:TrackPointExtension xmlns:gpxtpx="http://www.garmin.com/xmlschemas/TrackPointExtension/v1">
            <gpxtpx:hr>87</gpxtpx:hr>
          </gpxtpx:TrackPointExtension>
        </extensions>
      </trkpt>
      <trkpt lat="43.54403" lon="1.45835">
        <ele>165.80000305176</ele>
        <time>2020-06-10T13:21:00.000Z</time>
        <extensions>
          <gpxtpx:TrackPointExtension xmlns:gpxtpx="http://www.garmin.com/xmlschemas/TrackPointExtension/v1">
            <gpxtpx:hr>87</gpxtpx:hr>
          </gpxtpx:TrackPointExtension>
        </extensions>
      </trkpt>
      <trkpt lat="43.54402" lon="1.45825">
        <ele>166</ele>
        <time>2020-06-10T13:21:02.000Z</time>
        <extensions>
          <gpxtpx:TrackPointExtension xmlns:gpxtpx="http://www.garmin.com/xmlschemas/TrackPointExtension/v1">
            <gpxtpx:hr>87</gpxtpx:hr>
          </gpxtpx:TrackPointExtension>
        </extensions>
      </trkpt>
      <trkpt lat="43.54401" lon="1.45816">
        <ele>166</ele>
        <time>2020-06-10T13:21:04.000Z</time>
        <extensions>
          <gpxtpx:TrackPointExtension xmlns:gpxtpx="http://www.garmin.com/xmlschemas/TrackPointExtension/v1">
            <gpxtpx:hr>87</gpxtpx:hr>
          </gpxtpx:TrackPointExtension>
        </extensions>
      </trkpt>
      <trkpt lat="43.544" lon="1.45806">
        <ele>166</ele>
        <time>2020-06-10T13:21:06.000Z</time>
        <extensions>
          <gpxtpx:TrackPointExtension xmlns:gpxtpx="http://www.garmin.com/xmlschemas/TrackPointExtension/v1">
            <gpxtpx:hr>87</gpxtpx:hr>
          </gpxtpx:TrackPointExtension>
        </extensions>
      </trkpt>
      <trkpt lat="43.54398" lon="1.45797">
        <ele>166</ele>
        <time>2020-06-10T13:21:08.000Z</time>
        <extensions>
          <gpxtpx:TrackPointExtension xmlns:gpxtpx="http://www.garmin.com/xmlschemas/TrackPointExtension/v1">
            <gpxtpx:hr>87</gpxtpx:hr>
          </gpxtpx:TrackPointExtension>
        </extensions>
      </trkpt>
      <trkpt lat="43.54397" lon="1.45787">
        <ele>166</ele>
        <time>2020-06-10T13:21:10.000Z</time>
        <extensions>
          <gpxtpx:TrackPointExtension xmlns:gpxtpx="http://www.garmin.com/xmlschemas/TrackPointExtension/v1">
            <gpxtpx:hr>87</gpxtpx:hr>
          </gpxtpx:TrackPointExtension>
        </extensions>
      </trkpt>
      <trkpt lat="43.54396" lon="1.45778">
        <ele>166</ele>
        <time>2020-06-10T13:21:12.000Z</time>
        <extensions>
          <gpxtpx:TrackPointExtension xmlns:gpxtpx="http://www.garmin.com/xmlschemas/TrackPointExtension/v1">
            <gpxtpx:hr>87</gpxtpx:hr>
          </gpxtpx:TrackPointExtension>
        </extensions>
      </trkpt>
      <trkpt lat="43.54397" lon="1.45769">
        <ele>166</ele>
        <time>2020-06-10T13:21:14.000Z</time>
        <extensions>
          <gpxtpx:TrackPointExtension xmlns:gpxtpx="http://www.garmin.com/xmlschemas/TrackPointExtension/v1">
            <gpxtpx:hr>86</gpxtpx:hr>
          </gpxtpx:TrackPointExtension>
        </extensions>
      </trkpt>
      <trkpt lat="43.54398" lon="1.4576">
        <ele>166</ele>
        <time>2020-06-10T13:21:16.000Z</time>
        <extensions>
          <gpxtpx:TrackPointExtension xmlns:gpxtpx="http://www.garmin.com/xmlschemas/TrackPointExtension/v1">
            <gpxtpx:hr>86</gpxtpx:hr>
          </gpxtpx:TrackPointExtension>
        </extensions>
      </trkpt>
      <trkpt lat="43.54399" lon="1.45751">
        <ele>166.19999694824</ele>
        <time>2020-06-10T13:21:18.000Z</time>
        <extensions>
          <gpxtpx:TrackPointExtension xmlns:gpxtpx="http://www.garmin.com/xmlschemas/TrackPointExtension/v1">
            <gpxtpx:hr>86</gpxtpx:hr>
          </gpxtpx:TrackPointExtension>
        </extensions>
      </trkpt>
      <trkpt lat="43.544" lon="1.45743">
        <ele>166.19999694824</ele>
        <time>2020-06-10T13:21:20.000Z</time>
        <extensions>
          <gpxtpx:TrackPointExtension xmlns:gpxtpx="http://www.garmin.com/xmlschemas/TrackPointExtension/v1">
            <gpxtpx:hr>86</gpxtpx:hr>
          </gpxtpx:TrackPointExtension>
        </extensions>
      </trkpt>
      <trkpt lat="43.54402" lon="1.45735">
        <ele>166.19999694824</ele>
        <time>2020-06-10T13:21:22.000Z</time>
        <extensions>
          <gpxtpx:TrackPointExtension xmlns:gpxtpx="http://www.garmin.com/xmlschemas/TrackPointExtension/v1">
            <gpxtpx:hr>86</gpxtpx:hr>
          </gpxtpx:TrackPointExtension>
        </extensions>
      </trkpt>
      <trkpt lat="43.54404" lon="1.45728">
        <ele>166.39999389648</ele>
        <time>2020-06-10T13:21:24.000Z</time>
        <extensions>
          <gpxtpx:TrackPointExtension xmlns:gpxtpx="http://www.garmin.com/xmlschemas/TrackPointExtension/v1">
            <gpxtpx:hr>87</gpxtpx:hr>
          </gpxtpx:TrackPointExtension>
        </extensions>
      </trkpt>
      <trkpt lat="43.54407" lon="1.4572">
        <ele>166.39999389648</ele>
        <time>2020-06-10T13:21:26.000Z</time>
        <extensions>
          <gpxtpx:TrackPointExtension xmlns:gpxtpx="http://www.garmin.com/xmlschemas/TrackPointExtension/v1">
            <gpxtpx:hr>88</gpxtpx:hr>
          </gpxtpx:TrackPointExtension>
        </extensions>
      </trkpt>
      <trkpt lat="43.54409" lon="1.45714">
        <ele>166.60000610352</ele>
        <time>2020-06-10T13:21:28.000Z</time>
        <extensions>
          <gpxtpx:TrackPointExtension xmlns:gpxtpx="http://www.garmin.com/xmlschemas/TrackPointExtension/v1">
            <gpxtpx:hr>88</gpxtpx:hr>
          </gpxtpx:TrackPointExtension>
        </extensions>
      </trkpt>
      <trkpt lat="43.54411" lon="1.45711">
        <ele>166.60000610352</ele>
        <time>2020-06-10T13:21:29.000Z</time>
        <extensions>
          <gpxtpx:TrackPointExtension xmlns:gpxtpx="http://www.garmin.com/xmlschemas/TrackPointExtension/v1">
            <gpxtpx:hr>89</gpxtpx:hr>
          </gpxtpx:TrackPointExtension>
        </extensions>
      </trkpt>
      <trkpt lat="43.54412" lon="1.45708">
        <ele>166.80000305176</ele>
        <time>2020-06-10T13:21:30.000Z</time>
        <extensions>
          <gpxtpx:TrackPointExtension xmlns:gpxtpx="http://www.garmin.com/xmlschemas/TrackPointExtension/v1">
            <gpxtpx:hr>89</gpxtpx:hr>
          </gpxtpx:TrackPointExtension>
        </extensions>
      </trkpt>
      <trkpt lat="43.54415" lon="1.45703">
        <ele>167.19999694824</ele>
        <time>2020-06-10T13:21:32.000Z</time>
        <extensions>
          <gpxtpx:TrackPointExtension xmlns:gpxtpx="http://www.garmin.com/xmlschemas/TrackPointExtension/v1">
            <gpxtpx:hr>89</gpxtpx:hr>
          </gpxtpx:TrackPointExtension>
        </extensions>
      </trkpt>
      <trkpt lat="43.54418" lon="1.45697">
        <ele>167.60000610352</ele>
        <time>2020-06-10T13:21:34.000Z</time>
        <extensions>
          <gpxtpx:TrackPointExtension xmlns:gpxtpx="http://www.garmin.com/xmlschemas/TrackPointExtension/v1">
            <gpxtpx:hr>90</gpxtpx:hr>
          </gpxtpx:TrackPointExtension>
        </extensions>
      </trkpt>
      <trkpt lat="43.54419" lon="1.45695">
        <ele>167.80000305176</ele>
        <time>2020-06-10T13:21:35.000Z</time>
        <extensions>
          <gpxtpx:TrackPointExtension xmlns:gpxtpx="http://www.garmin.com/xmlschemas/TrackPointExtension/v1">
            <gpxtpx:hr>90</gpxtpx:hr>
          </gpxtpx:TrackPointExtension>
        </extensions>
      </trkpt>
      <trkpt lat="43.54421" lon="1.45693">
        <ele>168.19999694824</ele>
        <time>2020-06-10T13:21:36.000Z</time>
        <extensions>
          <gpxtpx:TrackPointExtension xmlns:gpxtpx="http://www.garmin.com/xmlschemas/TrackPointExtension/v1">
            <gpxtpx:hr>90</gpxtpx:hr>
          </gpxtpx:TrackPointExtension>
        </extensions>
      </trkpt>
      <trkpt lat="43.54425" lon="1.4569">
        <ele>168.39999389648</ele>
        <time>2020-06-10T13:21:38.000Z</time>
        <extensions>
          <gpxtpx:TrackPointExtension xmlns:gpxtpx="http://www.garmin.com/xmlschemas/TrackPointExtension/v1">
            <gpxtpx:hr>90</gpxtpx:hr>
          </gpxtpx:TrackPointExtension>
        </extensions>
      </trkpt>
      <trkpt lat="43.54429" lon="1.45686">
        <ele>168.80000305176</ele>
        <time>2020-06-10T13:21:40.000Z</time>
        <extensions>
          <gpxtpx:TrackPointExtension xmlns:gpxtpx="http://www.garmin.com/xmlschemas/TrackPointExtension/v1">
            <gpxtpx:hr>90</gpxtpx:hr>
          </gpxtpx:TrackPointExtension>
        </extensions>
      </trkpt>
      <trkpt lat="43.54431" lon="1.45684">
        <ele>169</ele>
        <time>2020-06-10T13:21:41.000Z</time>
        <extensions>
          <gpxtpx:TrackPointExtension xmlns:gpxtpx="http://www.garmin.com/xmlschemas/TrackPointExtension/v1">
            <gpxtpx:hr>91</gpxtpx:hr>
          </gpxtpx:TrackPointExtension>
        </extensions>
      </trkpt>
      <trkpt lat="43.54433" lon="1.45682">
        <ele>169.39999389648</ele>
        <time>2020-06-10T13:21:42.000Z</time>
        <extensions>
          <gpxtpx:TrackPointExtension xmlns:gpxtpx="http://www.garmin.com/xmlschemas/TrackPointExtension/v1">
            <gpxtpx:hr>91</gpxtpx:hr>
          </gpxtpx:TrackPointExtension>
        </extensions>
      </trkpt>
      <trkpt lat="43.54436" lon="1.45677">
        <ele>169.60000610352</ele>
        <time>2020-06-10T13:21:44.000Z</time>
        <extensions>
          <gpxtpx:TrackPointExtension xmlns:gpxtpx="http://www.garmin.com/xmlschemas/TrackPointExtension/v1">
            <gpxtpx:hr>91</gpxtpx:hr>
          </gpxtpx:TrackPointExtension>
        </extensions>
      </trkpt>
      <trkpt lat="43.54438" lon="1.45672">
        <ele>170</ele>
        <time>2020-06-10T13:21:46.000Z</time>
        <extensions>
          <gpxtpx:TrackPointExtension xmlns:gpxtpx="http://www.garmin.com/xmlschemas/TrackPointExtension/v1">
            <gpxtpx:hr>91</gpxtpx:hr>
          </gpxtpx:TrackPointExtension>
        </extensions>
      </trkpt>
      <trkpt lat="43.54439" lon="1.45666">
        <ele>170.19999694824</ele>
        <time>2020-06-10T13:21:48.000Z</time>
        <extensions>
          <gpxtpx:TrackPointExtension xmlns:gpxtpx="http://www.garmin.com/xmlschemas/TrackPointExtension/v1">
            <gpxtpx:hr>91</gpxtpx:hr>
          </gpxtpx:TrackPointExtension>
        </extensions>
      </trkpt>
      <trkpt lat="43.54438" lon="1.4566">
        <ele>170.39999389648</ele>
        <time>2020-06-10T13:21:50.000Z</time>
        <extensions>
          <gpxtpx:TrackPointExtension xmlns:gpxtpx="http://www.garmin.com/xmlschemas/TrackPointExtension/v1">
            <gpxtpx:hr>91</gpxtpx:hr>
          </gpxtpx:TrackPointExtension>
        </extensions>
      </trkpt>
      <trkpt lat="43.54437" lon="1.45654">
        <ele>170.60000610352</ele>
        <time>2020-06-10T13:21:52.000Z</time>
        <extensions>
          <gpxtpx:TrackPointExtension xmlns:gpxtpx="http://www.garmin.com/xmlschemas/TrackPointExtension/v1">
            <gpxtpx:hr>90</gpxtpx:hr>
          </gpxtpx:TrackPointExtension>
        </extensions>
      </trkpt>
      <trkpt lat="43.54438" lon="1.45646">
        <ele>170.60000610352</ele>
        <time>2020-06-10T13:21:54.000Z</time>
        <extensions>
          <gpxtpx:TrackPointExtension xmlns:gpxtpx="http://www.garmin.com/xmlschemas/TrackPointExtension/v1">
            <gpxtpx:hr>90</gpxtpx:hr>
          </gpxtpx:TrackPointExtension>
        </extensions>
      </trkpt>
      <trkpt lat="43.54439" lon="1.45638">
        <ele>170.60000610352</ele>
        <time>2020-06-10T13:21:56.000Z</time>
        <extensions>
          <gpxtpx:TrackPointExtension xmlns:gpxtpx="http://www.garmin.com/xmlschemas/TrackPointExtension/v1">
            <gpxtpx:hr>92</gpxtpx:hr>
          </gpxtpx:TrackPointExtension>
        </extensions>
      </trkpt>
      <trkpt lat="43.5444" lon="1.45629">
        <ele>170.80000305176</ele>
        <time>2020-06-10T13:21:58.000Z</time>
        <extensions>
          <gpxtpx:TrackPointExtension xmlns:gpxtpx="http://www.garmin.com/xmlschemas/TrackPointExtension/v1">
            <gpxtpx:hr>93</gpxtpx:hr>
          </gpxtpx:TrackPointExtension>
        </extensions>
      </trkpt>
      <trkpt lat="43.54441" lon="1.45622">
        <ele>170.80000305176</ele>
        <time>2020-06-10T13:22:00.000Z</time>
        <extensions>
          <gpxtpx:TrackPointExtension xmlns:gpxtpx="http://www.garmin.com/xmlschemas/TrackPointExtension/v1">
            <gpxtpx:hr>93</gpxtpx:hr>
          </gpxtpx:TrackPointExtension>
        </extensions>
      </trkpt>
      <trkpt lat="43.54442" lon="1.45618">
        <ele>170.80000305176</ele>
        <time>2020-06-10T13:22:02.000Z</time>
        <extensions>
          <gpxtpx:TrackPointExtension xmlns:gpxtpx="http://www.garmin.com/xmlschemas/TrackPointExtension/v1">
            <gpxtpx:hr>93</gpxtpx:hr>
          </gpxtpx:TrackPointExtension>
        </extensions>
      </trkpt>
      <trkpt lat="43.54445" lon="1.45613">
        <ele>170.80000305176</ele>
        <time>2020-06-10T13:22:04.000Z</time>
        <extensions>
          <gpxtpx:TrackPointExtension xmlns:gpxtpx="http://www.garmin.com/xmlschemas/TrackPointExtension/v1">
            <gpxtpx:hr>92</gpxtpx:hr>
          </gpxtpx:TrackPointExtension>
        </extensions>
      </trkpt>
      <trkpt lat="43.54448" lon="1.45606">
        <ele>170.80000305176</ele>
        <time>2020-06-10T13:22:06.000Z</time>
        <extensions>
          <gpxtpx:TrackPointExtension xmlns:gpxtpx="http://www.garmin.com/xmlschemas/TrackPointExtension/v1">
            <gpxtpx:hr>90</gpxtpx:hr>
          </gpxtpx:TrackPointExtension>
        </extensions>
      </trkpt>
      <trkpt lat="43.5445" lon="1.45599">
        <ele>171</ele>
        <time>2020-06-10T13:22:08.000Z</time>
        <extensions>
          <gpxtpx:TrackPointExtension xmlns:gpxtpx="http://www.garmin.com/xmlschemas/TrackPointExtension/v1">
            <gpxtpx:hr>90</gpxtpx:hr>
          </gpxtpx:TrackPointExtension>
        </extensions>
      </trkpt>
      <trkpt lat="43.5445" lon="1.4559">
        <ele>171</ele>
        <time>2020-06-10T13:22:10.000Z</time>
        <extensions>
          <gpxtpx:TrackPointExtension xmlns:gpxtpx="http://www.garmin.com/xmlschemas/TrackPointExtension/v1">
            <gpxtpx:hr>89</gpxtpx:hr>
          </gpxtpx:TrackPointExtension>
        </extensions>
      </trkpt>
      <trkpt lat="43.54448" lon="1.45583">
        <ele>171</ele>
        <time>2020-06-10T13:22:12.000Z</time>
        <extensions>
          <gpxtpx:TrackPointExtension xmlns:gpxtpx="http://www.garmin.com/xmlschemas/TrackPointExtension/v1">
            <gpxtpx:hr>88</gpxtpx:hr>
          </gpxtpx:TrackPointExtension>
        </extensions>
      </trkpt>
      <trkpt lat="43.54445" lon="1.45575">
        <ele>171</ele>
        <time>2020-06-10T13:22:14.000Z</time>
        <extensions>
          <gpxtpx:TrackPointExtension xmlns:gpxtpx="http://www.garmin.com/xmlschemas/TrackPointExtension/v1">
            <gpxtpx:hr>87</gpxtpx:hr>
          </gpxtpx:TrackPointExtension>
        </extensions>
      </trkpt>
      <trkpt lat="43.54444" lon="1.45566">
        <ele>171</ele>
        <time>2020-06-10T13:22:16.000Z</time>
        <extensions>
          <gpxtpx:TrackPointExtension xmlns:gpxtpx="http://www.garmin.com/xmlschemas/TrackPointExtension/v1">
            <gpxtpx:hr>85</gpxtpx:hr>
          </gpxtpx:TrackPointExtension>
        </extensions>
      </trkpt>
      <trkpt lat="43.54446" lon="1.45558">
        <ele>171</ele>
        <time>2020-06-10T13:22:18.000Z</time>
        <extensions>
          <gpxtpx:TrackPointExtension xmlns:gpxtpx="http://www.garmin.com/xmlschemas/TrackPointExtension/v1">
            <gpxtpx:hr>84</gpxtpx:hr>
          </gpxtpx:TrackPointExtension>
        </extensions>
      </trkpt>
      <trkpt lat="43.5445" lon="1.4555">
        <ele>170.80000305176</ele>
        <time>2020-06-10T13:22:20.000Z</time>
        <extensions>
          <gpxtpx:TrackPointExtension xmlns:gpxtpx="http://www.garmin.com/xmlschemas/TrackPointExtension/v1">
            <gpxtpx:hr>84</gpxtpx:hr>
          </gpxtpx:TrackPointExtension>
        </extensions>
      </trkpt>
      <trkpt lat="43.54454" lon="1.45543">
        <ele>170.80000305176</ele>
        <time>2020-06-10T13:22:22.000Z</time>
        <extensions>
          <gpxtpx:TrackPointExtension xmlns:gpxtpx="http://www.garmin.com/xmlschemas/TrackPointExtension/v1">
            <gpxtpx:hr>84</gpxtpx:hr>
          </gpxtpx:TrackPointExtension>
        </extensions>
      </trkpt>
      <trkpt lat="43.54459" lon="1.45536">
        <ele>170.80000305176</ele>
        <time>2020-06-10T13:22:24.000Z</time>
        <extensions>
          <gpxtpx:TrackPointExtension xmlns:gpxtpx="http://www.garmin.com/xmlschemas/TrackPointExtension/v1">
            <gpxtpx:hr>84</gpxtpx:hr>
          </gpxtpx:TrackPointExtension>
        </extensions>
      </trkpt>
      <trkpt lat="43.54464" lon="1.4553">
        <ele>170.80000305176</ele>
        <time>2020-06-10T13:22:26.000Z</time>
        <extensions>
          <gpxtpx:TrackPointExtension xmlns:gpxtpx="http://www.garmin.com/xmlschemas/TrackPointExtension/v1">
            <gpxtpx:hr>84</gpxtpx:hr>
          </gpxtpx:TrackPointExtension>
        </extensions>
      </trkpt>
      <trkpt lat="43.54469" lon="1.45523">
        <ele>170.80000305176</ele>
        <time>2020-06-10T13:22:28.000Z</time>
        <extensions>
          <gpxtpx:TrackPointExtension xmlns:gpxtpx="http://www.garmin.com/xmlschemas/TrackPointExtension/v1">
            <gpxtpx:hr>84</gpxtpx:hr>
          </gpxtpx:TrackPointExtension>
        </extensions>
      </trkpt>
      <trkpt lat="43.54474" lon="1.45516">
        <ele>170.80000305176</ele>
        <time>2020-06-10T13:22:30.000Z</time>
        <extensions>
          <gpxtpx:TrackPointExtension xmlns:gpxtpx="http://www.garmin.com/xmlschemas/TrackPointExtension/v1">
            <gpxtpx:hr>83</gpxtpx:hr>
          </gpxtpx:TrackPointExtension>
        </extensions>
      </trkpt>
      <trkpt lat="43.54478" lon="1.4551">
        <ele>170.80000305176</ele>
        <time>2020-06-10T13:22:32.000Z</time>
        <extensions>
          <gpxtpx:TrackPointExtension xmlns:gpxtpx="http://www.garmin.com/xmlschemas/TrackPointExtension/v1">
            <gpxtpx:hr>83</gpxtpx:hr>
          </gpxtpx:TrackPointExtension>
        </extensions>
      </trkpt>
      <trkpt lat="43.54483" lon="1.45503">
        <ele>171</ele>
        <time>2020-06-10T13:22:34.000Z</time>
        <extensions>
          <gpxtpx:TrackPointExtension xmlns:gpxtpx="http://www.garmin.com/xmlschemas/TrackPointExtension/v1">
            <gpxtpx:hr>83</gpxtpx:hr>
          </gpxtpx:TrackPointExtension>
        </extensions>
      </trkpt>
      <trkpt lat="43.54488" lon="1.45496">
        <ele>171.19999694824</ele>
        <time>2020-06-10T13:22:36.000Z</time>
        <extensions>
          <gpxtpx:TrackPointExtension xmlns:gpxtpx="http://www.garmin.com/xmlschemas/TrackPointExtension/v1">
            <gpxtpx:hr>83</gpxtpx:hr>
          </gpxtpx:TrackPointExtension>
        </extensions>
      </trkpt>
      <trkpt lat="43.54493" lon="1.45487">
        <ele>171.39999389648</ele>
        <time>2020-06-10T13:22:38.000Z</time>
        <extensions>
          <gpxtpx:TrackPointExtension xmlns:gpxtpx="http://www.garmin.com/xmlschemas/TrackPointExtension/v1">
            <gpxtpx:hr>83</gpxtpx:hr>
          </gpxtpx:TrackPointExtension>
        </extensions>
      </trkpt>
      <trkpt lat="43.54498" lon="1.45479">
        <ele>171.60000610352</ele>
        <time>2020-06-10T13:22:40.000Z</time>
        <extensions>
          <gpxtpx:TrackPointExtension xmlns:gpxtpx="http://www.garmin.com/xmlschemas/TrackPointExtension/v1">
            <gpxtpx:hr>83</gpxtpx:hr>
          </gpxtpx:TrackPointExtension>
        </extensions>
      </trkpt>
      <trkpt lat="43.54503" lon="1.4547">
        <ele>171.80000305176</ele>
        <time>2020-06-10T13:22:42.000Z</time>
        <extensions>
          <gpxtpx:TrackPointExtension xmlns:gpxtpx="http://www.garmin.com/xmlschemas/TrackPointExtension/v1">
            <gpxtpx:hr>83</gpxtpx:hr>
          </gpxtpx:TrackPointExtension>
        </extensions>
      </trkpt>
      <trkpt lat="43.54509" lon="1.45462">
        <ele>171.80000305176</ele>
        <time>2020-06-10T13:22:44.000Z</time>
        <extensions>
          <gpxtpx:TrackPointExtension xmlns:gpxtpx="http://www.garmin.com/xmlschemas/TrackPointExtension/v1">
            <gpxtpx:hr>83</gpxtpx:hr>
          </gpxtpx:TrackPointExtension>
        </extensions>
      </trkpt>
      <trkpt lat="43.54515" lon="1.45453">
        <ele>171.80000305176</ele>
        <time>2020-06-10T13:22:46.000Z</time>
        <extensions>
          <gpxtpx:TrackPointExtension xmlns:gpxtpx="http://www.garmin.com/xmlschemas/TrackPointExtension/v1">
            <gpxtpx:hr>82</gpxtpx:hr>
          </gpxtpx:TrackPointExtension>
        </extensions>
      </trkpt>
      <trkpt lat="43.5452" lon="1.45445">
        <ele>171.80000305176</ele>
        <time>2020-06-10T13:22:48.000Z</time>
        <extensions>
          <gpxtpx:TrackPointExtension xmlns:gpxtpx="http://www.garmin.com/xmlschemas/TrackPointExtension/v1">
            <gpxtpx:hr>80</gpxtpx:hr>
          </gpxtpx:TrackPointExtension>
        </extensions>
      </trkpt>
      <trkpt lat="43.54526" lon="1.45436">
        <ele>171.60000610352</ele>
        <time>2020-06-10T13:22:50.000Z</time>
        <extensions>
          <gpxtpx:TrackPointExtension xmlns:gpxtpx="http://www.garmin.com/xmlschemas/TrackPointExtension/v1">
            <gpxtpx:hr>79</gpxtpx:hr>
          </gpxtpx:TrackPointExtension>
        </extensions>
      </trkpt>
      <trkpt lat="43.54529" lon="1.45431">
        <ele>171.60000610352</ele>
        <time>2020-06-10T13:22:51.000Z</time>
        <extensions>
          <gpxtpx:TrackPointExtension xmlns:gpxtpx="http://www.garmin.com/xmlschemas/TrackPointExtension/v1">
            <gpxtpx:hr>78</gpxtpx:hr>
          </gpxtpx:TrackPointExtension>
        </extensions>
      </trkpt>
      <trkpt lat="43.54531" lon="1.45426">
        <ele>171.39999389648</ele>
        <time>2020-06-10T13:22:52.000Z</time>
        <extensions>
          <gpxtpx:TrackPointExtension xmlns:gpxtpx="http://www.garmin.com/xmlschemas/TrackPointExtension/v1">
            <gpxtpx:hr>77</gpxtpx:hr>
          </gpxtpx:TrackPointExtension>
        </extensions>
      </trkpt>
      <trkpt lat="43.54537" lon="1.45416">
        <ele>171.39999389648</ele>
        <time>2020-06-10T13:22:54.000Z</time>
        <extensions>
          <gpxtpx:TrackPointExtension xmlns:gpxtpx="http://www.garmin.com/xmlschemas/TrackPointExtension/v1">
            <gpxtpx:hr>77</gpxtpx:hr>
          </gpxtpx:TrackPointExtension>
        </extensions>
      </trkpt>
      <trkpt lat="43.54539" lon="1.45411">
        <ele>171.39999389648</ele>
        <time>2020-06-10T13:22:55.000Z</time>
        <extensions>
          <gpxtpx:TrackPointExtension xmlns:gpxtpx="http://www.garmin.com/xmlschemas/TrackPointExtension/v1">
            <gpxtpx:hr>76</gpxtpx:hr>
          </gpxtpx:TrackPointExtension>
        </extensions>
      </trkpt>
      <trkpt lat="43.5454" lon="1.45405">
        <ele>171.19999694824</ele>
        <time>2020-06-10T13:22:56.000Z</time>
        <extensions>
          <gpxtpx:TrackPointExtension xmlns:gpxtpx="http://www.garmin.com/xmlschemas/TrackPointExtension/v1">
            <gpxtpx:hr>75</gpxtpx:hr>
          </gpxtpx:TrackPointExtension>
        </extensions>
      </trkpt>
      <trkpt lat="43.54542" lon="1.45391">
        <ele>171</ele>
        <time>2020-06-10T13:22:58.000Z</time>
        <extensions>
          <gpxtpx:TrackPointExtension xmlns:gpxtpx="http://www.garmin.com/xmlschemas/TrackPointExtension/v1">
            <gpxtpx:hr>74</gpxtpx:hr>
          </gpxtpx:TrackPointExtension>
        </extensions>
      </trkpt>
      <trkpt lat="43.54545" lon="1.45378">
        <ele>170.60000610352</ele>
        <time>2020-06-10T13:23:00.000Z</time>
        <extensions>
          <gpxtpx:TrackPointExtension xmlns:gpxtpx="http://www.garmin.com/xmlschemas/TrackPointExtension/v1">
            <gpxtpx:hr>73</gpxtpx:hr>
          </gpxtpx:TrackPointExtension>
        </extensions>
      </trkpt>
      <trkpt lat="43.5455" lon="1.45367">
        <ele>170.39999389648</ele>
        <time>2020-06-10T13:23:02.000Z</time>
        <extensions>
          <gpxtpx:TrackPointExtension xmlns:gpxtpx="http://www.garmin.com/xmlschemas/TrackPointExtension/v1">
            <gpxtpx:hr>71</gpxtpx:hr>
          </gpxtpx:TrackPointExtension>
        </extensions>
      </trkpt>
      <trkpt lat="43.54556" lon="1.45357">
        <ele>170.19999694824</ele>
        <time>2020-06-10T13:23:04.000Z</time>
        <extensions>
          <gpxtpx:TrackPointExtension xmlns:gpxtpx="http://www.garmin.com/xmlschemas/TrackPointExtension/v1">
            <gpxtpx:hr>70</gpxtpx:hr>
          </gpxtpx:TrackPointExtension>
        </extensions>
      </trkpt>
      <trkpt lat="43.5456" lon="1.45353">
        <ele>170</ele>
        <time>2020-06-10T13:23:05.000Z</time>
        <extensions>
          <gpxtpx:TrackPointExtension xmlns:gpxtpx="http://www.garmin.com/xmlschemas/TrackPointExtension/v1">
            <gpxtpx:hr>69</gpxtpx:hr>
          </gpxtpx:TrackPointExtension>
        </extensions>
      </trkpt>
      <trkpt lat="43.54563" lon="1.45349">
        <ele>169.80000305176</ele>
        <time>2020-06-10T13:23:06.000Z</time>
        <extensions>
          <gpxtpx:TrackPointExtension xmlns:gpxtpx="http://www.garmin.com/xmlschemas/TrackPointExtension/v1">
            <gpxtpx:hr>69</gpxtpx:hr>
          </gpxtpx:TrackPointExtension>
        </extensions>
      </trkpt>
      <trkpt lat="43.54567" lon="1.45344">
        <ele>169.80000305176</ele>
        <time>2020-06-10T13:23:07.000Z</time>
        <extensions>
          <gpxtpx:TrackPointExtension xmlns:gpxtpx="http://www.garmin.com/xmlschemas/TrackPointExtension/v1">
            <gpxtpx:hr>69</gpxtpx:hr>
          </gpxtpx:TrackPointExtension>
        </extensions>
      </trkpt>
      <trkpt lat="43.5457" lon="1.4534">
        <ele>169.60000610352</ele>
        <time>2020-06-10T13:23:08.000Z</time>
        <extensions>
          <gpxtpx:TrackPointExtension xmlns:gpxtpx="http://www.garmin.com/xmlschemas/TrackPointExtension/v1">
            <gpxtpx:hr>69</gpxtpx:hr>
          </gpxtpx:TrackPointExtension>
        </extensions>
      </trkpt>
      <trkpt lat="43.54578" lon="1.45332">
        <ele>169.39999389648</ele>
        <time>2020-06-10T13:23:10.000Z</time>
        <extensions>
          <gpxtpx:TrackPointExtension xmlns:gpxtpx="http://www.garmin.com/xmlschemas/TrackPointExtension/v1">
            <gpxtpx:hr>69</gpxtpx:hr>
          </gpxtpx:TrackPointExtension>
        </extensions>
      </trkpt>
      <trkpt lat="43.54586" lon="1.45324">
        <ele>169</ele>
        <time>2020-06-10T13:23:12.000Z</time>
        <extensions>
          <gpxtpx:TrackPointExtension xmlns:gpxtpx="http://www.garmin.com/xmlschemas/TrackPointExtension/v1">
            <gpxtpx:hr>69</gpxtpx:hr>
          </gpxtpx:TrackPointExtension>
        </extensions>
      </trkpt>
      <trkpt lat="43.5459" lon="1.4532">
        <ele>168.80000305176</ele>
        <time>2020-06-10T13:23:13.000Z</time>
        <extensions>
          <gpxtpx:TrackPointExtension xmlns:gpxtpx="http://www.garmin.com/xmlschemas/TrackPointExtension/v1">
            <gpxtpx:hr>69</gpxtpx:hr>
          </gpxtpx:TrackPointExtension>
        </extensions>
      </trkpt>
      <trkpt lat="43.54594" lon="1.45318">
        <ele>168.60000610352</ele>
        <time>2020-06-10T13:23:14.000Z</time>
        <extensions>
          <gpxtpx:TrackPointExtension xmlns:gpxtpx="http://www.garmin.com/xmlschemas/TrackPointExtension/v1">
            <gpxtpx:hr>69</gpxtpx:hr>
          </gpxtpx:TrackPointExtension>
        </extensions>
      </trkpt>
      <trkpt lat="43.54602" lon="1.45313">
        <ele>168.19999694824</ele>
        <time>2020-06-10T13:23:16.000Z</time>
        <extensions>
          <gpxtpx:TrackPointExtension xmlns:gpxtpx="http://www.garmin.com/xmlschemas/TrackPointExtension/v1">
            <gpxtpx:hr>68</gpxtpx:hr>
          </gpxtpx:TrackPointExtension>
        </extensions>
      </trkpt>
      <trkpt lat="43.5461" lon="1.45311">
        <ele>168</ele>
        <time>2020-06-10T13:23:18.000Z</time>
        <extensions>
          <gpxtpx:TrackPointExtension xmlns:gpxtpx="http://www.garmin.com/xmlschemas/TrackPointExtension/v1">
            <gpxtpx:hr>66</gpxtpx:hr>
          </gpxtpx:TrackPointExtension>
        </extensions>
      </trkpt>
      <trkpt lat="43.54614" lon="1.45311">
        <ele>168</ele>
        <time>2020-06-10T13:23:19.000Z</time>
        <extensions>
          <gpxtpx:TrackPointExtension xmlns:gpxtpx="http://www.garmin.com/xmlschemas/TrackPointExtension/v1">
            <gpxtpx:hr>66</gpxtpx:hr>
          </gpxtpx:TrackPointExtension>
        </extensions>
      </trkpt>
      <trkpt lat="43.54618" lon="1.45311">
        <ele>167.80000305176</ele>
        <time>2020-06-10T13:23:20.000Z</time>
        <extensions>
          <gpxtpx:TrackPointExtension xmlns:gpxtpx="http://www.garmin.com/xmlschemas/TrackPointExtension/v1">
            <gpxtpx:hr>66</gpxtpx:hr>
          </gpxtpx:TrackPointExtension>
        </extensions>
      </trkpt>
      <trkpt lat="43.54626" lon="1.45313">
        <ele>167.80000305176</ele>
        <time>2020-06-10T13:23:22.000Z</time>
        <extensions>
          <gpxtpx:TrackPointExtension xmlns:gpxtpx="http://www.garmin.com/xmlschemas/TrackPointExtension/v1">
            <gpxtpx:hr>66</gpxtpx:hr>
          </gpxtpx:TrackPointExtension>
        </extensions>
      </trkpt>
      <trkpt lat="43.54631" lon="1.45313">
        <ele>167.60000610352</ele>
        <time>2020-06-10T13:23:23.000Z</time>
        <extensions>
          <gpxtpx:TrackPointExtension xmlns:gpxtpx="http://www.garmin.com/xmlschemas/TrackPointExtension/v1">
            <gpxtpx:hr>66</gpxtpx:hr>
          </gpxtpx:TrackPointExtension>
        </extensions>
      </trkpt>
      <trkpt lat="43.54635" lon="1.45312">
        <ele>167.60000610352</ele>
        <time>2020-06-10T13:23:24.000Z</time>
        <extensions>
          <gpxtpx:TrackPointExtension xmlns:gpxtpx="http://www.garmin.com/xmlschemas/TrackPointExtension/v1">
            <gpxtpx:hr>66</gpxtpx:hr>
          </gpxtpx:TrackPointExtension>
        </extensions>
      </trkpt>
      <trkpt lat="43.54643" lon="1.45305">
        <ele>167.60000610352</ele>
        <time>2020-06-10T13:23:26.000Z</time>
        <extensions>
          <gpxtpx:TrackPointExtension xmlns:gpxtpx="http://www.garmin.com/xmlschemas/TrackPointExtension/v1">
            <gpxtpx:hr>67</gpxtpx:hr>
          </gpxtpx:TrackPointExtension>
        </extensions>
      </trkpt>
      <trkpt lat="43.54646" lon="1.45294">
        <ele>167.60000610352</ele>
        <time>2020-06-10T13:23:28.000Z</time>
        <extensions>
          <gpxtpx:TrackPointExtension xmlns:gpxtpx="http://www.garmin.com/xmlschemas/TrackPointExtension/v1">
            <gpxtpx:hr>66</gpxtpx:hr>
          </gpxtpx:TrackPointExtension>
        </extensions>
      </trkpt>
      <trkpt lat="43.54646" lon="1.45287">
        <ele>167.60000610352</ele>
        <time>2020-06-10T13:23:29.000Z</time>
        <extensions>
          <gpxtpx:TrackPointExtension xmlns:gpxtpx="http://www.garmin.com/xmlschemas/TrackPointExtension/v1">
            <gpxtpx:hr>67</gpxtpx:hr>
          </gpxtpx:TrackPointExtension>
        </extensions>
      </trkpt>
      <trkpt lat="43.54647" lon="1.45281">
        <ele>167.19999694824</ele>
        <time>2020-06-10T13:23:30.000Z</time>
        <extensions>
          <gpxtpx:TrackPointExtension xmlns:gpxtpx="http://www.garmin.com/xmlschemas/TrackPointExtension/v1">
            <gpxtpx:hr>66</gpxtpx:hr>
          </gpxtpx:TrackPointExtension>
        </extensions>
      </trkpt>
      <trkpt lat="43.54648" lon="1.45274">
        <ele>166.80000305176</ele>
        <time>2020-06-10T13:23:31.000Z</time>
        <extensions>
          <gpxtpx:TrackPointExtension xmlns:gpxtpx="http://www.garmin.com/xmlschemas/TrackPointExtension/v1">
            <gpxtpx:hr>66</gpxtpx:hr>
          </gpxtpx:TrackPointExtension>
        </extensions>
      </trkpt>
      <trkpt lat="43.54649" lon="1.45268">
        <ele>166.80000305176</ele>
        <time>2020-06-10T13:23:32.000Z</time>
        <extensions>
          <gpxtpx:TrackPointExtension xmlns:gpxtpx="http://www.garmin.com/xmlschemas/TrackPointExtension/v1">
            <gpxtpx:hr>66</gpxtpx:hr>
          </gpxtpx:TrackPointExtension>
        </extensions>
      </trkpt>
      <trkpt lat="43.54655" lon="1.45259">
        <ele>166.39999389648</ele>
        <time>2020-06-10T13:23:34.000Z</time>
        <extensions>
          <gpxtpx:TrackPointExtension xmlns:gpxtpx="http://www.garmin.com/xmlschemas/TrackPointExtension/v1">
            <gpxtpx:hr>66</gpxtpx:hr>
          </gpxtpx:TrackPointExtension>
        </extensions>
      </trkpt>
      <trkpt lat="43.54661" lon="1.45252">
        <ele>166.19999694824</ele>
        <time>2020-06-10T13:23:36.000Z</time>
        <extensions>
          <gpxtpx:TrackPointExtension xmlns:gpxtpx="http://www.garmin.com/xmlschemas/TrackPointExtension/v1">
            <gpxtpx:hr>66</gpxtpx:hr>
          </gpxtpx:TrackPointExtension>
        </extensions>
      </trkpt>
      <trkpt lat="43.54667" lon="1.45244">
        <ele>166.19999694824</ele>
        <time>2020-06-10T13:23:38.000Z</time>
        <extensions>
          <gpxtpx:TrackPointExtension xmlns:gpxtpx="http://www.garmin.com/xmlschemas/TrackPointExtension/v1">
            <gpxtpx:hr>67</gpxtpx:hr>
          </gpxtpx:TrackPointExtension>
        </extensions>
      </trkpt>
      <trkpt lat="43.5467" lon="1.4524">
        <ele>165.80000305176</ele>
        <time>2020-06-10T13:23:39.000Z</time>
        <extensions>
          <gpxtpx:TrackPointExtension xmlns:gpxtpx="http://www.garmin.com/xmlschemas/TrackPointExtension/v1">
            <gpxtpx:hr>67</gpxtpx:hr>
          </gpxtpx:TrackPointExtension>
        </extensions>
      </trkpt>
      <trkpt lat="43.54673" lon="1.45236">
        <ele>165.60000610352</ele>
        <time>2020-06-10T13:23:40.000Z</time>
        <extensions>
          <gpxtpx:TrackPointExtension xmlns:gpxtpx="http://www.garmin.com/xmlschemas/TrackPointExtension/v1">
            <gpxtpx:hr>66</gpxtpx:hr>
          </gpxtpx:TrackPointExtension>
        </extensions>
      </trkpt>
      <trkpt lat="43.54679" lon="1.45228">
        <ele>165.19999694824</ele>
        <time>2020-06-10T13:23:42.000Z</time>
        <extensions>
          <gpxtpx:TrackPointExtension xmlns:gpxtpx="http://www.garmin.com/xmlschemas/TrackPointExtension/v1">
            <gpxtpx:hr>66</gpxtpx:hr>
          </gpxtpx:TrackPointExtension>
        </extensions>
      </trkpt>
      <trkpt lat="43.54685" lon="1.4522">
        <ele>165</ele>
        <time>2020-06-10T13:23:44.000Z</time>
        <extensions>
          <gpxtpx:TrackPointExtension xmlns:gpxtpx="http://www.garmin.com/xmlschemas/TrackPointExtension/v1">
            <gpxtpx:hr>66</gpxtpx:hr>
          </gpxtpx:TrackPointExtension>
        </extensions>
      </trkpt>
      <trkpt lat="43.54691" lon="1.45212">
        <ele>164.80000305176</ele>
        <time>2020-06-10T13:23:46.000Z</time>
        <extensions>
          <gpxtpx:TrackPointExtension xmlns:gpxtpx="http://www.garmin.com/xmlschemas/TrackPointExtension/v1">
            <gpxtpx:hr>65</gpxtpx:hr>
          </gpxtpx:TrackPointExtension>
        </extensions>
      </trkpt>
      <trkpt lat="43.54699" lon="1.45203">
        <ele>164.60000610352</ele>
        <time>2020-06-10T13:23:48.000Z</time>
        <extensions>
          <gpxtpx:TrackPointExtension xmlns:gpxtpx="http://www.garmin.com/xmlschemas/TrackPointExtension/v1">
            <gpxtpx:hr>67</gpxtpx:hr>
          </gpxtpx:TrackPointExtension>
        </extensions>
      </trkpt>
      <trkpt lat="43.54708" lon="1.45193">
        <ele>164.39999389648</ele>
        <time>2020-06-10T13:23:50.000Z</time>
        <extensions>
          <gpxtpx:TrackPointExtension xmlns:gpxtpx="http://www.garmin.com/xmlschemas/TrackPointExtension/v1">
            <gpxtpx:hr>68</gpxtpx:hr>
          </gpxtpx:TrackPointExtension>
        </extensions>
      </trkpt>
      <trkpt lat="43.54718" lon="1.4518">
        <ele>164</ele>
        <time>2020-06-10T13:23:52.000Z</time>
        <extensions>
          <gpxtpx:TrackPointExtension xmlns:gpxtpx="http://www.garmin.com/xmlschemas/TrackPointExtension/v1">
            <gpxtpx:hr>69</gpxtpx:hr>
          </gpxtpx:TrackPointExtension>
        </extensions>
      </trkpt>
      <trkpt lat="43.54724" lon="1.45173">
        <ele>163.60000610352</ele>
        <time>2020-06-10T13:23:53.000Z</time>
        <extensions>
          <gpxtpx:TrackPointExtension xmlns:gpxtpx="http://www.garmin.com/xmlschemas/TrackPointExtension/v1">
            <gpxtpx:hr>69</gpxtpx:hr>
          </gpxtpx:TrackPointExtension>
        </extensions>
      </trkpt>
      <trkpt lat="43.5473" lon="1.45165">
        <ele>163</ele>
        <time>2020-06-10T13:23:54.000Z</time>
        <extensions>
          <gpxtpx:TrackPointExtension xmlns:gpxtpx="http://www.garmin.com/xmlschemas/TrackPointExtension/v1">
            <gpxtpx:hr>69</gpxtpx:hr>
          </gpxtpx:TrackPointExtension>
        </extensions>
      </trkpt>
      <trkpt lat="43.54736" lon="1.45158">
        <ele>162.39999389648</ele>
        <time>2020-06-10T13:23:55.000Z</time>
        <extensions>
          <gpxtpx:TrackPointExtension xmlns:gpxtpx="http://www.garmin.com/xmlschemas/TrackPointExtension/v1">
            <gpxtpx:hr>69</gpxtpx:hr>
          </gpxtpx:TrackPointExtension>
        </extensions>
      </trkpt>
      <trkpt lat="43.54742" lon="1.4515">
        <ele>161.19999694824</ele>
        <time>2020-06-10T13:23:56.000Z</time>
        <extensions>
          <gpxtpx:TrackPointExtension xmlns:gpxtpx="http://www.garmin.com/xmlschemas/TrackPointExtension/v1">
            <gpxtpx:hr>69</gpxtpx:hr>
          </gpxtpx:TrackPointExtension>
        </extensions>
      </trkpt>
      <trkpt lat="43.54754" lon="1.45133">
        <ele>160.19999694824</ele>
        <time>2020-06-10T13:23:58.000Z</time>
        <extensions>
          <gpxtpx:TrackPointExtension xmlns:gpxtpx="http://www.garmin.com/xmlschemas/TrackPointExtension/v1">
            <gpxtpx:hr>68</gpxtpx:hr>
          </gpxtpx:TrackPointExtension>
        </extensions>
      </trkpt>
      <trkpt lat="43.54765" lon="1.45115">
        <ele>158.60000610352</ele>
        <time>2020-06-10T13:24:00.000Z</time>
        <extensions>
          <gpxtpx:TrackPointExtension xmlns:gpxtpx="http://www.garmin.com/xmlschemas/TrackPointExtension/v1">
            <gpxtpx:hr>67</gpxtpx:hr>
          </gpxtpx:TrackPointExtension>
        </extensions>
      </trkpt>
      <trkpt lat="43.54776" lon="1.45098">
        <ele>157</ele>
        <time>2020-06-10T13:24:02.000Z</time>
        <extensions>
          <gpxtpx:TrackPointExtension xmlns:gpxtpx="http://www.garmin.com/xmlschemas/TrackPointExtension/v1">
            <gpxtpx:hr>66</gpxtpx:hr>
          </gpxtpx:TrackPointExtension>
        </extensions>
      </trkpt>
      <trkpt lat="43.54787" lon="1.45084">
        <ele>156</ele>
        <time>2020-06-10T13:24:04.000Z</time>
        <extensions>
          <gpxtpx:TrackPointExtension xmlns:gpxtpx="http://www.garmin.com/xmlschemas/TrackPointExtension/v1">
            <gpxtpx:hr>66</gpxtpx:hr>
          </gpxtpx:TrackPointExtension>
        </extensions>
      </trkpt>
      <trkpt lat="43.54798" lon="1.45068">
        <ele>155.19999694824</ele>
        <time>2020-06-10T13:24:06.000Z</time>
        <extensions>
          <gpxtpx:TrackPointExtension xmlns:gpxtpx="http://www.garmin.com/xmlschemas/TrackPointExtension/v1">
            <gpxtpx:hr>65</gpxtpx:hr>
          </gpxtpx:TrackPointExtension>
        </extensions>
      </trkpt>
      <trkpt lat="43.54803" lon="1.45061">
        <ele>154.80000305176</ele>
        <time>2020-06-10T13:24:07.000Z</time>
        <extensions>
          <gpxtpx:TrackPointExtension xmlns:gpxtpx="http://www.garmin.com/xmlschemas/TrackPointExtension/v1">
            <gpxtpx:hr>64</gpxtpx:hr>
          </gpxtpx:TrackPointExtension>
        </extensions>
      </trkpt>
      <trkpt lat="43.54808" lon="1.45053">
        <ele>154.60000610352</ele>
        <time>2020-06-10T13:24:08.000Z</time>
        <extensions>
          <gpxtpx:TrackPointExtension xmlns:gpxtpx="http://www.garmin.com/xmlschemas/TrackPointExtension/v1">
            <gpxtpx:hr>65</gpxtpx:hr>
          </gpxtpx:TrackPointExtension>
        </extensions>
      </trkpt>
      <trkpt lat="43.54819" lon="1.45039">
        <ele>154.19999694824</ele>
        <time>2020-06-10T13:24:10.000Z</time>
        <extensions>
          <gpxtpx:TrackPointExtension xmlns:gpxtpx="http://www.garmin.com/xmlschemas/TrackPointExtension/v1">
            <gpxtpx:hr>64</gpxtpx:hr>
          </gpxtpx:TrackPointExtension>
        </extensions>
      </trkpt>
      <trkpt lat="43.54824" lon="1.45031">
        <ele>153.60000610352</ele>
        <time>2020-06-10T13:24:11.000Z</time>
        <extensions>
          <gpxtpx:TrackPointExtension xmlns:gpxtpx="http://www.garmin.com/xmlschemas/TrackPointExtension/v1">
            <gpxtpx:hr>64</gpxtpx:hr>
          </gpxtpx:TrackPointExtension>
        </extensions>
      </trkpt>
      <trkpt lat="43.54829" lon="1.45022">
        <ele>152.60000610352</ele>
        <time>2020-06-10T13:24:12.000Z</time>
        <extensions>
          <gpxtpx:TrackPointExtension xmlns:gpxtpx="http://www.garmin.com/xmlschemas/TrackPointExtension/v1">
            <gpxtpx:hr>64</gpxtpx:hr>
          </gpxtpx:TrackPointExtension>
        </extensions>
      </trkpt>
      <trkpt lat="43.54833" lon="1.45013">
        <ele>152</ele>
        <time>2020-06-10T13:24:13.000Z</time>
        <extensions>
          <gpxtpx:TrackPointExtension xmlns:gpxtpx="http://www.garmin.com/xmlschemas/TrackPointExtension/v1">
            <gpxtpx:hr>64</gpxtpx:hr>
          </gpxtpx:TrackPointExtension>
        </extensions>
      </trkpt>
      <trkpt lat="43.54837" lon="1.45003">
        <ele>151.39999389648</ele>
        <time>2020-06-10T13:24:14.000Z</time>
        <extensions>
          <gpxtpx:TrackPointExtension xmlns:gpxtpx="http://www.garmin.com/xmlschemas/TrackPointExtension/v1">
            <gpxtpx:hr>64</gpxtpx:hr>
          </gpxtpx:TrackPointExtension>
        </extensions>
      </trkpt>
      <trkpt lat="43.54843" lon="1.44983">
        <ele>150.60000610352</ele>
        <time>2020-06-10T13:24:16.000Z</time>
        <extensions>
          <gpxtpx:TrackPointExtension xmlns:gpxtpx="http://www.garmin.com/xmlschemas/TrackPointExtension/v1">
            <gpxtpx:hr>64</gpxtpx:hr>
          </gpxtpx:TrackPointExtension>
        </extensions>
      </trkpt>
      <trkpt lat="43.5485" lon="1.4496">
        <ele>148.80000305176</ele>
        <time>2020-06-10T13:24:18.000Z</time>
        <extensions>
          <gpxtpx:TrackPointExtension xmlns:gpxtpx="http://www.garmin.com/xmlschemas/TrackPointExtension/v1">
            <gpxtpx:hr>63</gpxtpx:hr>
          </gpxtpx:TrackPointExtension>
        </extensions>
      </trkpt>
      <trkpt lat="43.54856" lon="1.44935">
        <ele>147.19999694824</ele>
        <time>2020-06-10T13:24:20.000Z</time>
        <extensions>
          <gpxtpx:TrackPointExtension xmlns:gpxtpx="http://www.garmin.com/xmlschemas/TrackPointExtension/v1">
            <gpxtpx:hr>63</gpxtpx:hr>
          </gpxtpx:TrackPointExtension>
        </extensions>
      </trkpt>
      <trkpt lat="43.54859" lon="1.44909">
        <ele>145.80000305176</ele>
        <time>2020-06-10T13:24:22.000Z</time>
        <extensions>
          <gpxtpx:TrackPointExtension xmlns:gpxtpx="http://www.garmin.com/xmlschemas/TrackPointExtension/v1">
            <gpxtpx:hr>62</gpxtpx:hr>
          </gpxtpx:TrackPointExtension>
        </extensions>
      </trkpt>
      <trkpt lat="43.54864" lon="1.44882">
        <ele>144.19999694824</ele>
        <time>2020-06-10T13:24:24.000Z</time>
        <extensions>
          <gpxtpx:TrackPointExtension xmlns:gpxtpx="http://www.garmin.com/xmlschemas/TrackPointExtension/v1">
            <gpxtpx:hr>62</gpxtpx:hr>
          </gpxtpx:TrackPointExtension>
        </extensions>
      </trkpt>
      <trkpt lat="43.54871" lon="1.44856">
        <ele>142.60000610352</ele>
        <time>2020-06-10T13:24:26.000Z</time>
        <extensions>
          <gpxtpx:TrackPointExtension xmlns:gpxtpx="http://www.garmin.com/xmlschemas/TrackPointExtension/v1">
            <gpxtpx:hr>61</gpxtpx:hr>
          </gpxtpx:TrackPointExtension>
        </extensions>
      </trkpt>
      <trkpt lat="43.5488" lon="1.4483">
        <ele>140.80000305176</ele>
        <time>2020-06-10T13:24:28.000Z</time>
        <extensions>
          <gpxtpx:TrackPointExtension xmlns:gpxtpx="http://www.garmin.com/xmlschemas/TrackPointExtension/v1">
            <gpxtpx:hr>62</gpxtpx:hr>
          </gpxtpx:TrackPointExtension>
        </extensions>
      </trkpt>
      <trkpt lat="43.54885" lon="1.44817">
        <ele>139.60000610352</ele>
        <time>2020-06-10T13:24:29.000Z</time>
        <extensions>
          <gpxtpx:TrackPointExtension xmlns:gpxtpx="http://www.garmin.com/xmlschemas/TrackPointExtension/v1">
            <gpxtpx:hr>62</gpxtpx:hr>
          </gpxtpx:TrackPointExtension>
        </extensions>
      </trkpt>
      <trkpt lat="43.54889" lon="1.44804">
        <ele>139</ele>
        <time>2020-06-10T13:24:30.000Z</time>
        <extensions>
          <gpxtpx:TrackPointExtension xmlns:gpxtpx="http://www.garmin.com/xmlschemas/TrackPointExtension/v1">
            <gpxtpx:hr>62</gpxtpx:hr>
          </gpxtpx:TrackPointExtension>
        </extensions>
      </trkpt>
      <trkpt lat="43.54894" lon="1.44791">
        <ele>138</ele>
        <time>2020-06-10T13:24:31.000Z</time>
        <extensions>
          <gpxtpx:TrackPointExtension xmlns:gpxtpx="http://www.garmin.com/xmlschemas/TrackPointExtension/v1">
            <gpxtpx:hr>62</gpxtpx:hr>
          </gpxtpx:TrackPointExtension>
        </extensions>
      </trkpt>
      <trkpt lat="43.54899" lon="1.44779">
        <ele>137.60000610352</ele>
        <time>2020-06-10T13:24:32.000Z</time>
        <extensions>
          <gpxtpx:TrackPointExtension xmlns:gpxtpx="http://www.garmin.com/xmlschemas/TrackPointExtension/v1">
            <gpxtpx:hr>62</gpxtpx:hr>
          </gpxtpx:TrackPointExtension>
        </extensions>
      </trkpt>
      <trkpt lat="43.54905" lon="1.44769">
        <ele>137</ele>
        <time>2020-06-10T13:24:33.000Z</time>
        <extensions>
          <gpxtpx:TrackPointExtension xmlns:gpxtpx="http://www.garmin.com/xmlschemas/TrackPointExtension/v1">
            <gpxtpx:hr>62</gpxtpx:hr>
          </gpxtpx:TrackPointExtension>
        </extensions>
      </trkpt>
      <trkpt lat="43.54911" lon="1.44758">
        <ele>136.39999389648</ele>
        <time>2020-06-10T13:24:34.000Z</time>
        <extensions>
          <gpxtpx:TrackPointExtension xmlns:gpxtpx="http://www.garmin.com/xmlschemas/TrackPointExtension/v1">
            <gpxtpx:hr>62</gpxtpx:hr>
          </gpxtpx:TrackPointExtension>
        </extensions>
      </trkpt>
      <trkpt lat="43.54917" lon="1.44747">
        <ele>135.80000305176</ele>
        <time>2020-06-10T13:24:35.000Z</time>
        <extensions>
          <gpxtpx:TrackPointExtension xmlns:gpxtpx="http://www.garmin.com/xmlschemas/TrackPointExtension/v1">
            <gpxtpx:hr>62</gpxtpx:hr>
          </gpxtpx:TrackPointExtension>
        </extensions>
      </trkpt>
      <trkpt lat="43.54922" lon="1.44736">
        <ele>135.39999389648</ele>
        <time>2020-06-10T13:24:36.000Z</time>
        <extensions>
          <gpxtpx:TrackPointExtension xmlns:gpxtpx="http://www.garmin.com/xmlschemas/TrackPointExtension/v1">
            <gpxtpx:hr>62</gpxtpx:hr>
          </gpxtpx:TrackPointExtension>
        </extensions>
      </trkpt>
      <trkpt lat="43.54932" lon="1.44711">
        <ele>134.39999389648</ele>
        <time>2020-06-10T13:24:38.000Z</time>
        <extensions>
          <gpxtpx:TrackPointExtension xmlns:gpxtpx="http://www.garmin.com/xmlschemas/TrackPointExtension/v1">
            <gpxtpx:hr>62</gpxtpx:hr>
          </gpxtpx:TrackPointExtension>
        </extensions>
      </trkpt>
      <trkpt lat="43.54942" lon="1.44685">
        <ele>133.60000610352</ele>
        <time>2020-06-10T13:24:40.000Z</time>
        <extensions>
          <gpxtpx:TrackPointExtension xmlns:gpxtpx="http://www.garmin.com/xmlschemas/TrackPointExtension/v1">
            <gpxtpx:hr>62</gpxtpx:hr>
          </gpxtpx:TrackPointExtension>
        </extensions>
      </trkpt>
      <trkpt lat="43.54946" lon="1.44672">
        <ele>133</ele>
        <time>2020-06-10T13:24:41.000Z</time>
        <extensions>
          <gpxtpx:TrackPointExtension xmlns:gpxtpx="http://www.garmin.com/xmlschemas/TrackPointExtension/v1">
            <gpxtpx:hr>62</gpxtpx:hr>
          </gpxtpx:TrackPointExtension>
        </extensions>
      </trkpt>
      <trkpt lat="43.54951" lon="1.44659">
        <ele>132.19999694824</ele>
        <time>2020-06-10T13:24:42.000Z</time>
        <extensions>
          <gpxtpx:TrackPointExtension xmlns:gpxtpx="http://www.garmin.com/xmlschemas/TrackPointExtension/v1">
            <gpxtpx:hr>62</gpxtpx:hr>
          </gpxtpx:TrackPointExtension>
        </extensions>
      </trkpt>
      <trkpt lat="43.54955" lon="1.44646">
        <ele>131.60000610352</ele>
        <time>2020-06-10T13:24:43.000Z</time>
        <extensions>
          <gpxtpx:TrackPointExtension xmlns:gpxtpx="http://www.garmin.com/xmlschemas/TrackPointExtension/v1">
            <gpxtpx:hr>63</gpxtpx:hr>
          </gpxtpx:TrackPointExtension>
        </extensions>
      </trkpt>
      <trkpt lat="43.54959" lon="1.44633">
        <ele>131</ele>
        <time>2020-06-10T13:24:44.000Z</time>
        <extensions>
          <gpxtpx:TrackPointExtension xmlns:gpxtpx="http://www.garmin.com/xmlschemas/TrackPointExtension/v1">
            <gpxtpx:hr>63</gpxtpx:hr>
          </gpxtpx:TrackPointExtension>
        </extensions>
      </trkpt>
      <trkpt lat="43.54963" lon="1.4462">
        <ele>130.39999389648</ele>
        <time>2020-06-10T13:24:45.000Z</time>
        <extensions>
          <gpxtpx:TrackPointExtension xmlns:gpxtpx="http://www.garmin.com/xmlschemas/TrackPointExtension/v1">
            <gpxtpx:hr>62</gpxtpx:hr>
          </gpxtpx:TrackPointExtension>
        </extensions>
      </trkpt>
      <trkpt lat="43.54967" lon="1.44606">
        <ele>129.80000305176</ele>
        <time>2020-06-10T13:24:46.000Z</time>
        <extensions>
          <gpxtpx:TrackPointExtension xmlns:gpxtpx="http://www.garmin.com/xmlschemas/TrackPointExtension/v1">
            <gpxtpx:hr>62</gpxtpx:hr>
          </gpxtpx:TrackPointExtension>
        </extensions>
      </trkpt>
      <trkpt lat="43.5497" lon="1.44592">
        <ele>129.19999694824</ele>
        <time>2020-06-10T13:24:47.000Z</time>
        <extensions>
          <gpxtpx:TrackPointExtension xmlns:gpxtpx="http://www.garmin.com/xmlschemas/TrackPointExtension/v1">
            <gpxtpx:hr>62</gpxtpx:hr>
          </gpxtpx:TrackPointExtension>
        </extensions>
      </trkpt>
      <trkpt lat="43.54974" lon="1.44578">
        <ele>128.19999694824</ele>
        <time>2020-06-10T13:24:48.000Z</time>
        <extensions>
          <gpxtpx:TrackPointExtension xmlns:gpxtpx="http://www.garmin.com/xmlschemas/TrackPointExtension/v1">
            <gpxtpx:hr>61</gpxtpx:hr>
          </gpxtpx:TrackPointExtension>
        </extensions>
      </trkpt>
      <trkpt lat="43.54978" lon="1.44565">
        <ele>127.40000152588</ele>
        <time>2020-06-10T13:24:49.000Z</time>
        <extensions>
          <gpxtpx:TrackPointExtension xmlns:gpxtpx="http://www.garmin.com/xmlschemas/TrackPointExtension/v1">
            <gpxtpx:hr>61</gpxtpx:hr>
          </gpxtpx:TrackPointExtension>
        </extensions>
      </trkpt>
      <trkpt lat="43.54981" lon="1.44552">
        <ele>126.59999847412</ele>
        <time>2020-06-10T13:24:50.000Z</time>
        <extensions>
          <gpxtpx:TrackPointExtension xmlns:gpxtpx="http://www.garmin.com/xmlschemas/TrackPointExtension/v1">
            <gpxtpx:hr>61</gpxtpx:hr>
          </gpxtpx:TrackPointExtension>
        </extensions>
      </trkpt>
      <trkpt lat="43.54985" lon="1.44539">
        <ele>125.59999847412</ele>
        <time>2020-06-10T13:24:51.000Z</time>
        <extensions>
          <gpxtpx:TrackPointExtension xmlns:gpxtpx="http://www.garmin.com/xmlschemas/TrackPointExtension/v1">
            <gpxtpx:hr>62</gpxtpx:hr>
          </gpxtpx:TrackPointExtension>
        </extensions>
      </trkpt>
      <trkpt lat="43.54989" lon="1.44526">
        <ele>124.80000305176</ele>
        <time>2020-06-10T13:24:52.000Z</time>
        <extensions>
          <gpxtpx:TrackPointExtension xmlns:gpxtpx="http://www.garmin.com/xmlschemas/TrackPointExtension/v1">
            <gpxtpx:hr>62</gpxtpx:hr>
          </gpxtpx:TrackPointExtension>
        </extensions>
      </trkpt>
      <trkpt lat="43.54992" lon="1.44512">
        <ele>124.19999694824</ele>
        <time>2020-06-10T13:24:53.000Z</time>
        <extensions>
          <gpxtpx:TrackPointExtension xmlns:gpxtpx="http://www.garmin.com/xmlschemas/TrackPointExtension/v1">
            <gpxtpx:hr>63</gpxtpx:hr>
          </gpxtpx:TrackPointExtension>
        </extensions>
      </trkpt>
      <trkpt lat="43.54994" lon="1.44497">
        <ele>123.80000305176</ele>
        <time>2020-06-10T13:24:54.000Z</time>
        <extensions>
          <gpxtpx:TrackPointExtension xmlns:gpxtpx="http://www.garmin.com/xmlschemas/TrackPointExtension/v1">
            <gpxtpx:hr>63</gpxtpx:hr>
          </gpxtpx:TrackPointExtension>
        </extensions>
      </trkpt>
      <trkpt lat="43.54996" lon="1.44468">
        <ele>123</ele>
        <time>2020-06-10T13:24:56.000Z</time>
        <extensions>
          <gpxtpx:TrackPointExtension xmlns:gpxtpx="http://www.garmin.com/xmlschemas/TrackPointExtension/v1">
            <gpxtpx:hr>64</gpxtpx:hr>
          </gpxtpx:TrackPointExtension>
        </extensions>
      </trkpt>
      <trkpt lat="43.54997" lon="1.44441">
        <ele>121.59999847412</ele>
        <time>2020-06-10T13:24:58.000Z</time>
        <extensions>
          <gpxtpx:TrackPointExtension xmlns:gpxtpx="http://www.garmin.com/xmlschemas/TrackPointExtension/v1">
            <gpxtpx:hr>64</gpxtpx:hr>
          </gpxtpx:TrackPointExtension>
        </extensions>
      </trkpt>
      <trkpt lat="43.54998" lon="1.44416">
        <ele>120.40000152588</ele>
        <time>2020-06-10T13:25:00.000Z</time>
        <extensions>
          <gpxtpx:TrackPointExtension xmlns:gpxtpx="http://www.garmin.com/xmlschemas/TrackPointExtension/v1">
            <gpxtpx:hr>63</gpxtpx:hr>
          </gpxtpx:TrackPointExtension>
        </extensions>
      </trkpt>
      <trkpt lat="43.54997" lon="1.44393">
        <ele>118.80000305176</ele>
        <time>2020-06-10T13:25:02.000Z</time>
        <extensions>
          <gpxtpx:TrackPointExtension xmlns:gpxtpx="http://www.garmin.com/xmlschemas/TrackPointExtension/v1">
            <gpxtpx:hr>63</gpxtpx:hr>
          </gpxtpx:TrackPointExtension>
        </extensions>
      </trkpt>
      <trkpt lat="43.54995" lon="1.44382">
        <ele>117.59999847412</ele>
        <time>2020-06-10T13:25:03.000Z</time>
        <extensions>
          <gpxtpx:TrackPointExtension xmlns:gpxtpx="http://www.garmin.com/xmlschemas/TrackPointExtension/v1">
            <gpxtpx:hr>63</gpxtpx:hr>
          </gpxtpx:TrackPointExtension>
        </extensions>
      </trkpt>
      <trkpt lat="43.54994" lon="1.44371">
        <ele>116.59999847412</ele>
        <time>2020-06-10T13:25:04.000Z</time>
        <extensions>
          <gpxtpx:TrackPointExtension xmlns:gpxtpx="http://www.garmin.com/xmlschemas/TrackPointExtension/v1">
            <gpxtpx:hr>62</gpxtpx:hr>
          </gpxtpx:TrackPointExtension>
        </extensions>
      </trkpt>
      <trkpt lat="43.54991" lon="1.44359">
        <ele>115.59999847412</ele>
        <time>2020-06-10T13:25:05.000Z</time>
        <extensions>
          <gpxtpx:TrackPointExtension xmlns:gpxtpx="http://www.garmin.com/xmlschemas/TrackPointExtension/v1">
            <gpxtpx:hr>62</gpxtpx:hr>
          </gpxtpx:TrackPointExtension>
        </extensions>
      </trkpt>
      <trkpt lat="43.54988" lon="1.44348">
        <ele>115.19999694824</ele>
        <time>2020-06-10T13:25:06.000Z</time>
        <extensions>
          <gpxtpx:TrackPointExtension xmlns:gpxtpx="http://www.garmin.com/xmlschemas/TrackPointExtension/v1">
            <gpxtpx:hr>62</gpxtpx:hr>
          </gpxtpx:TrackPointExtension>
        </extensions>
      </trkpt>
      <trkpt lat="43.54982" lon="1.44326">
        <ele>115</ele>
        <time>2020-06-10T13:25:08.000Z</time>
        <extensions>
          <gpxtpx:TrackPointExtension xmlns:gpxtpx="http://www.garmin.com/xmlschemas/TrackPointExtension/v1">
            <gpxtpx:hr>62</gpxtpx:hr>
          </gpxtpx:TrackPointExtension>
        </extensions>
      </trkpt>
      <trkpt lat="43.54973" lon="1.44303">
        <ele>114</ele>
        <time>2020-06-10T13:25:10.000Z</time>
        <extensions>
          <gpxtpx:TrackPointExtension xmlns:gpxtpx="http://www.garmin.com/xmlschemas/TrackPointExtension/v1">
            <gpxtpx:hr>62</gpxtpx:hr>
          </gpxtpx:TrackPointExtension>
        </extensions>
      </trkpt>
      <trkpt lat="43.54962" lon="1.44279">
        <ele>112</ele>
        <time>2020-06-10T13:25:12.000Z</time>
        <extensions>
          <gpxtpx:TrackPointExtension xmlns:gpxtpx="http://www.garmin.com/xmlschemas/TrackPointExtension/v1">
            <gpxtpx:hr>62</gpxtpx:hr>
          </gpxtpx:TrackPointExtension>
        </extensions>
      </trkpt>
      <trkpt lat="43.54956" lon="1.44267">
        <ele>110.80000305176</ele>
        <time>2020-06-10T13:25:13.000Z</time>
        <extensions>
          <gpxtpx:TrackPointExtension xmlns:gpxtpx="http://www.garmin.com/xmlschemas/TrackPointExtension/v1">
            <gpxtpx:hr>63</gpxtpx:hr>
          </gpxtpx:TrackPointExtension>
        </extensions>
      </trkpt>
      <trkpt lat="43.5495" lon="1.44255">
        <ele>109.40000152588</ele>
        <time>2020-06-10T13:25:14.000Z</time>
        <extensions>
          <gpxtpx:TrackPointExtension xmlns:gpxtpx="http://www.garmin.com/xmlschemas/TrackPointExtension/v1">
            <gpxtpx:hr>63</gpxtpx:hr>
          </gpxtpx:TrackPointExtension>
        </extensions>
      </trkpt>
      <trkpt lat="43.54945" lon="1.44243">
        <ele>108.19999694824</ele>
        <time>2020-06-10T13:25:15.000Z</time>
        <extensions>
          <gpxtpx:TrackPointExtension xmlns:gpxtpx="http://www.garmin.com/xmlschemas/TrackPointExtension/v1">
            <gpxtpx:hr>63</gpxtpx:hr>
          </gpxtpx:TrackPointExtension>
        </extensions>
      </trkpt>
      <trkpt lat="43.5494" lon="1.44231">
        <ele>107.19999694824</ele>
        <time>2020-06-10T13:25:16.000Z</time>
        <extensions>
          <gpxtpx:TrackPointExtension xmlns:gpxtpx="http://www.garmin.com/xmlschemas/TrackPointExtension/v1">
            <gpxtpx:hr>63</gpxtpx:hr>
          </gpxtpx:TrackPointExtension>
        </extensions>
      </trkpt>
      <trkpt lat="43.54936" lon="1.44218">
        <ele>106.19999694824</ele>
        <time>2020-06-10T13:25:17.000Z</time>
        <extensions>
          <gpxtpx:TrackPointExtension xmlns:gpxtpx="http://www.garmin.com/xmlschemas/TrackPointExtension/v1">
            <gpxtpx:hr>64</gpxtpx:hr>
          </gpxtpx:TrackPointExtension>
        </extensions>
      </trkpt>
      <trkpt lat="43.54933" lon="1.44205">
        <ele>105</ele>
        <time>2020-06-10T13:25:18.000Z</time>
        <extensions>
          <gpxtpx:TrackPointExtension xmlns:gpxtpx="http://www.garmin.com/xmlschemas/TrackPointExtension/v1">
            <gpxtpx:hr>63</gpxtpx:hr>
          </gpxtpx:TrackPointExtension>
        </extensions>
      </trkpt>
      <trkpt lat="43.5493" lon="1.44192">
        <ele>103.80000305176</ele>
        <time>2020-06-10T13:25:19.000Z</time>
        <extensions>
          <gpxtpx:TrackPointExtension xmlns:gpxtpx="http://www.garmin.com/xmlschemas/TrackPointExtension/v1">
            <gpxtpx:hr>63</gpxtpx:hr>
          </gpxtpx:TrackPointExtension>
        </extensions>
      </trkpt>
      <trkpt lat="43.54927" lon="1.4418">
        <ele>102.59999847412</ele>
        <time>2020-06-10T13:25:20.000Z</time>
        <extensions>
          <gpxtpx:TrackPointExtension xmlns:gpxtpx="http://www.garmin.com/xmlschemas/TrackPointExtension/v1">
            <gpxtpx:hr>63</gpxtpx:hr>
          </gpxtpx:TrackPointExtension>
        </extensions>
      </trkpt>
      <trkpt lat="43.54924" lon="1.44157">
        <ele>101.19999694824</ele>
        <time>2020-06-10T13:25:22.000Z</time>
        <extensions>
          <gpxtpx:TrackPointExtension xmlns:gpxtpx="http://www.garmin.com/xmlschemas/TrackPointExtension/v1">
            <gpxtpx:hr>62</gpxtpx:hr>
          </gpxtpx:TrackPointExtension>
        </extensions>
      </trkpt>
      <trkpt lat="43.54922" lon="1.44147">
        <ele>100.80000305176</ele>
        <time>2020-06-10T13:25:23.000Z</time>
        <extensions>
          <gpxtpx:TrackPointExtension xmlns:gpxtpx="http://www.garmin.com/xmlschemas/TrackPointExtension/v1">
            <gpxtpx:hr>62</gpxtpx:hr>
          </gpxtpx:TrackPointExtension>
        </extensions>
      </trkpt>
      <trkpt lat="43.5492" lon="1.44138">
        <ele>100.59999847412</ele>
        <time>2020-06-10T13:25:24.000Z</time>
        <extensions>
          <gpxtpx:TrackPointExtension xmlns:gpxtpx="http://www.garmin.com/xmlschemas/TrackPointExtension/v1">
            <gpxtpx:hr>61</gpxtpx:hr>
          </gpxtpx:TrackPointExtension>
        </extensions>
      </trkpt>
      <trkpt lat="43.54919" lon="1.44129">
        <ele>100.40000152588</ele>
        <time>2020-06-10T13:25:25.000Z</time>
        <extensions>
          <gpxtpx:TrackPointExtension xmlns:gpxtpx="http://www.garmin.com/xmlschemas/TrackPointExtension/v1">
            <gpxtpx:hr>61</gpxtpx:hr>
          </gpxtpx:TrackPointExtension>
        </extensions>
      </trkpt>
      <trkpt lat="43.54919" lon="1.44121">
        <ele>100.19999694824</ele>
        <time>2020-06-10T13:25:26.000Z</time>
        <extensions>
          <gpxtpx:TrackPointExtension xmlns:gpxtpx="http://www.garmin.com/xmlschemas/TrackPointExtension/v1">
            <gpxtpx:hr>61</gpxtpx:hr>
          </gpxtpx:TrackPointExtension>
        </extensions>
      </trkpt>
      <trkpt lat="43.54919" lon="1.44112">
        <ele>100</ele>
        <time>2020-06-10T13:25:27.000Z</time>
        <extensions>
          <gpxtpx:TrackPointExtension xmlns:gpxtpx="http://www.garmin.com/xmlschemas/TrackPointExtension/v1">
            <gpxtpx:hr>61</gpxtpx:hr>
          </gpxtpx:TrackPointExtension>
        </extensions>
      </trkpt>
      <trkpt lat="43.5492" lon="1.44102">
        <ele>99.800003051758</ele>
        <time>2020-06-10T13:25:28.000Z</time>
        <extensions>
          <gpxtpx:TrackPointExtension xmlns:gpxtpx="http://www.garmin.com/xmlschemas/TrackPointExtension/v1">
            <gpxtpx:hr>61</gpxtpx:hr>
          </gpxtpx:TrackPointExtension>
        </extensions>
      </trkpt>
      <trkpt lat="43.54923" lon="1.44086">
        <ele>99.199996948242</ele>
        <time>2020-06-10T13:25:30.000Z</time>
        <extensions>
          <gpxtpx:TrackPointExtension xmlns:gpxtpx="http://www.garmin.com/xmlschemas/TrackPointExtension/v1">
            <gpxtpx:hr>61</gpxtpx:hr>
          </gpxtpx:TrackPointExtension>
        </extensions>
      </trkpt>
      <trkpt lat="43.54927" lon="1.44069">
        <ele>99</ele>
        <time>2020-06-10T13:25:32.000Z</time>
        <extensions>
          <gpxtpx:TrackPointExtension xmlns:gpxtpx="http://www.garmin.com/xmlschemas/TrackPointExtension/v1">
            <gpxtpx:hr>62</gpxtpx:hr>
          </gpxtpx:TrackPointExtension>
        </extensions>
      </trkpt>
      <trkpt lat="43.54928" lon="1.4406">
        <ele>98.599998474121</ele>
        <time>2020-06-10T13:25:33.000Z</time>
        <extensions>
          <gpxtpx:TrackPointExtension xmlns:gpxtpx="http://www.garmin.com/xmlschemas/TrackPointExtension/v1">
            <gpxtpx:hr>62</gpxtpx:hr>
          </gpxtpx:TrackPointExtension>
        </extensions>
      </trkpt>
      <trkpt lat="43.5493" lon="1.44051">
        <ele>98</ele>
        <time>2020-06-10T13:25:34.000Z</time>
        <extensions>
          <gpxtpx:TrackPointExtension xmlns:gpxtpx="http://www.garmin.com/xmlschemas/TrackPointExtension/v1">
            <gpxtpx:hr>61</gpxtpx:hr>
          </gpxtpx:TrackPointExtension>
        </extensions>
      </trkpt>
      <trkpt lat="43.54931" lon="1.44043">
        <ele>97.599998474121</ele>
        <time>2020-06-10T13:25:35.000Z</time>
        <extensions>
          <gpxtpx:TrackPointExtension xmlns:gpxtpx="http://www.garmin.com/xmlschemas/TrackPointExtension/v1">
            <gpxtpx:hr>62</gpxtpx:hr>
          </gpxtpx:TrackPointExtension>
        </extensions>
      </trkpt>
      <trkpt lat="43.54932" lon="1.44035">
        <ele>97</ele>
        <time>2020-06-10T13:25:36.000Z</time>
        <extensions>
          <gpxtpx:TrackPointExtension xmlns:gpxtpx="http://www.garmin.com/xmlschemas/TrackPointExtension/v1">
            <gpxtpx:hr>61</gpxtpx:hr>
          </gpxtpx:TrackPointExtension>
        </extensions>
      </trkpt>
      <trkpt lat="43.54934" lon="1.44027">
        <ele>96.400001525879</ele>
        <time>2020-06-10T13:25:37.000Z</time>
        <extensions>
          <gpxtpx:TrackPointExtension xmlns:gpxtpx="http://www.garmin.com/xmlschemas/TrackPointExtension/v1">
            <gpxtpx:hr>61</gpxtpx:hr>
          </gpxtpx:TrackPointExtension>
        </extensions>
      </trkpt>
      <trkpt lat="43.54935" lon="1.44019">
        <ele>95.800003051758</ele>
        <time>2020-06-10T13:25:38.000Z</time>
        <extensions>
          <gpxtpx:TrackPointExtension xmlns:gpxtpx="http://www.garmin.com/xmlschemas/TrackPointExtension/v1">
            <gpxtpx:hr>61</gpxtpx:hr>
          </gpxtpx:TrackPointExtension>
        </extensions>
      </trkpt>
      <trkpt lat="43.54936" lon="1.44012">
        <ele>95.199996948242</ele>
        <time>2020-06-10T13:25:39.000Z</time>
        <extensions>
          <gpxtpx:TrackPointExtension xmlns:gpxtpx="http://www.garmin.com/xmlschemas/TrackPointExtension/v1">
            <gpxtpx:hr>61</gpxtpx:hr>
          </gpxtpx:TrackPointExtension>
        </extensions>
      </trkpt>
      <trkpt lat="43.54937" lon="1.44006">
        <ele>93.599998474121</ele>
        <time>2020-06-10T13:25:40.000Z</time>
        <extensions>
          <gpxtpx:TrackPointExtension xmlns:gpxtpx="http://www.garmin.com/xmlschemas/TrackPointExtension/v1">
            <gpxtpx:hr>61</gpxtpx:hr>
          </gpxtpx:TrackPointExtension>
        </extensions>
      </trkpt>
      <trkpt lat="43.54939" lon="1.43997">
        <ele>92.599998474121</ele>
        <time>2020-06-10T13:25:42.000Z</time>
        <extensions>
          <gpxtpx:TrackPointExtension xmlns:gpxtpx="http://www.garmin.com/xmlschemas/TrackPointExtension/v1">
            <gpxtpx:hr>61</gpxtpx:hr>
          </gpxtpx:TrackPointExtension>
        </extensions>
      </trkpt>
      <trkpt lat="43.54939" lon="1.43994">
        <ele>92.400001525879</ele>
        <time>2020-06-10T13:25:43.000Z</time>
        <extensions>
          <gpxtpx:TrackPointExtension xmlns:gpxtpx="http://www.garmin.com/xmlschemas/TrackPointExtension/v1">
            <gpxtpx:hr>61</gpxtpx:hr>
          </gpxtpx:TrackPointExtension>
        </extensions>
      </trkpt>
      <trkpt lat="43.5494" lon="1.43991">
        <ele>92.199996948242</ele>
        <time>2020-06-10T13:25:44.000Z</time>
        <extensions>
          <gpxtpx:TrackPointExtension xmlns:gpxtpx="http://www.garmin.com/xmlschemas/TrackPointExtension/v1">
            <gpxtpx:hr>62</gpxtpx:hr>
          </gpxtpx:TrackPointExtension>
        </extensions>
      </trkpt>
      <trkpt lat="43.54941" lon="1.43986">
        <ele>92</ele>
        <time>2020-06-10T13:25:46.000Z</time>
        <extensions>
          <gpxtpx:TrackPointExtension xmlns:gpxtpx="http://www.garmin.com/xmlschemas/TrackPointExtension/v1">
            <gpxtpx:hr>61</gpxtpx:hr>
          </gpxtpx:TrackPointExtension>
        </extensions>
      </trkpt>
      <trkpt lat="43.54942" lon="1.43983">
        <ele>91.599998474121</ele>
        <time>2020-06-10T13:25:48.000Z</time>
        <extensions>
          <gpxtpx:TrackPointExtension xmlns:gpxtpx="http://www.garmin.com/xmlschemas/TrackPointExtension/v1">
            <gpxtpx:hr>61</gpxtpx:hr>
          </gpxtpx:TrackPointExtension>
        </extensions>
      </trkpt>
      <trkpt lat="43.54942" lon="1.43981">
        <ele>91.599998474121</ele>
        <time>2020-06-10T13:25:50.000Z</time>
        <extensions>
          <gpxtpx:TrackPointExtension xmlns:gpxtpx="http://www.garmin.com/xmlschemas/TrackPointExtension/v1">
            <gpxtpx:hr>61</gpxtpx:hr>
          </gpxtpx:TrackPointExtension>
        </extensions>
      </trkpt>
      <trkpt lat="43.54944" lon="1.43978">
        <ele>91.400001525879</ele>
        <time>2020-06-10T13:25:52.000Z</time>
        <extensions>
          <gpxtpx:TrackPointExtension xmlns:gpxtpx="http://www.garmin.com/xmlschemas/TrackPointExtension/v1">
            <gpxtpx:hr>62</gpxtpx:hr>
          </gpxtpx:TrackPointExtension>
        </extensions>
      </trkpt>
      <trkpt lat="43.54944" lon="1.43975">
        <ele>91.400001525879</ele>
        <time>2020-06-10T13:25:54.000Z</time>
        <extensions>
          <gpxtpx:TrackPointExtension xmlns:gpxtpx="http://www.garmin.com/xmlschemas/TrackPointExtension/v1">
            <gpxtpx:hr>63</gpxtpx:hr>
          </gpxtpx:TrackPointExtension>
        </extensions>
      </trkpt>
      <trkpt lat="43.54944" lon="1.43974">
        <ele>91.400001525879</ele>
        <time>2020-06-10T13:25:55.000Z</time>
        <extensions>
          <gpxtpx:TrackPointExtension xmlns:gpxtpx="http://www.garmin.com/xmlschemas/TrackPointExtension/v1">
            <gpxtpx:hr>63</gpxtpx:hr>
          </gpxtpx:TrackPointExtension>
        </extensions>
      </trkpt>
      <trkpt lat="43.54944" lon="1.43974">
        <ele>91.400001525879</ele>
        <time>2020-06-10T13:25:56.000Z</time>
        <extensions>
          <gpxtpx:TrackPointExtension xmlns:gpxtpx="http://www.garmin.com/xmlschemas/TrackPointExtension/v1">
            <gpxtpx:hr>64</gpxtpx:hr>
          </gpxtpx:TrackPointExtension>
        </extensions>
      </trkpt>
      <trkpt lat="43.54944" lon="1.43973">
        <ele>91</ele>
        <time>2020-06-10T13:26:00.000Z</time>
        <extensions>
          <gpxtpx:TrackPointExtension xmlns:gpxtpx="http://www.garmin.com/xmlschemas/TrackPointExtension/v1">
            <gpxtpx:hr>64</gpxtpx:hr>
          </gpxtpx:TrackPointExtension>
        </extensions>
      </trkpt>
      <trkpt lat="43.54945" lon="1.43971">
        <ele>90.800003051758</ele>
        <time>2020-06-10T13:26:02.000Z</time>
        <extensions>
          <gpxtpx:TrackPointExtension xmlns:gpxtpx="http://www.garmin.com/xmlschemas/TrackPointExtension/v1">
            <gpxtpx:hr>65</gpxtpx:hr>
          </gpxtpx:TrackPointExtension>
        </extensions>
      </trkpt>
      <trkpt lat="43.54945" lon="1.43971">
        <ele>90.599998474121</ele>
        <time>2020-06-10T13:26:03.000Z</time>
        <extensions>
          <gpxtpx:TrackPointExtension xmlns:gpxtpx="http://www.garmin.com/xmlschemas/TrackPointExtension/v1">
            <gpxtpx:hr>65</gpxtpx:hr>
          </gpxtpx:TrackPointExtension>
        </extensions>
      </trkpt>
      <trkpt lat="43.54945" lon="1.43969">
        <ele>90.599998474121</ele>
        <time>2020-06-10T13:26:05.000Z</time>
        <extensions>
          <gpxtpx:TrackPointExtension xmlns:gpxtpx="http://www.garmin.com/xmlschemas/TrackPointExtension/v1">
            <gpxtpx:hr>65</gpxtpx:hr>
          </gpxtpx:TrackPointExtension>
        </extensions>
      </trkpt>
      <trkpt lat="43.54945" lon="1.43969">
        <ele>90.400001525879</ele>
        <time>2020-06-10T13:26:06.000Z</time>
        <extensions>
          <gpxtpx:TrackPointExtension xmlns:gpxtpx="http://www.garmin.com/xmlschemas/TrackPointExtension/v1">
            <gpxtpx:hr>65</gpxtpx:hr>
          </gpxtpx:TrackPointExtension>
        </extensions>
      </trkpt>
      <trkpt lat="43.54945" lon="1.43966">
        <ele>90.400001525879</ele>
        <time>2020-06-10T13:26:08.000Z</time>
        <extensions>
          <gpxtpx:TrackPointExtension xmlns:gpxtpx="http://www.garmin.com/xmlschemas/TrackPointExtension/v1">
            <gpxtpx:hr>65</gpxtpx:hr>
          </gpxtpx:TrackPointExtension>
        </extensions>
      </trkpt>
      <trkpt lat="43.54945" lon="1.43964">
        <ele>90.400001525879</ele>
        <time>2020-06-10T13:26:09.000Z</time>
        <extensions>
          <gpxtpx:TrackPointExtension xmlns:gpxtpx="http://www.garmin.com/xmlschemas/TrackPointExtension/v1">
            <gpxtpx:hr>66</gpxtpx:hr>
          </gpxtpx:TrackPointExtension>
        </extensions>
      </trkpt>
      <trkpt lat="43.54943" lon="1.43961">
        <ele>90.400001525879</ele>
        <time>2020-06-10T13:26:10.000Z</time>
        <extensions>
          <gpxtpx:TrackPointExtension xmlns:gpxtpx="http://www.garmin.com/xmlschemas/TrackPointExtension/v1">
            <gpxtpx:hr>68</gpxtpx:hr>
          </gpxtpx:TrackPointExtension>
        </extensions>
      </trkpt>
      <trkpt lat="43.54938" lon="1.43957">
        <ele>90.400001525879</ele>
        <time>2020-06-10T13:26:12.000Z</time>
        <extensions>
          <gpxtpx:TrackPointExtension xmlns:gpxtpx="http://www.garmin.com/xmlschemas/TrackPointExtension/v1">
            <gpxtpx:hr>69</gpxtpx:hr>
          </gpxtpx:TrackPointExtension>
        </extensions>
      </trkpt>
      <trkpt lat="43.54935" lon="1.43955">
        <ele>90.599998474121</ele>
        <time>2020-06-10T13:26:13.000Z</time>
        <extensions>
          <gpxtpx:TrackPointExtension xmlns:gpxtpx="http://www.garmin.com/xmlschemas/TrackPointExtension/v1">
            <gpxtpx:hr>70</gpxtpx:hr>
          </gpxtpx:TrackPointExtension>
        </extensions>
      </trkpt>
      <trkpt lat="43.54931" lon="1.43953">
        <ele>90.599998474121</ele>
        <time>2020-06-10T13:26:14.000Z</time>
        <extensions>
          <gpxtpx:TrackPointExtension xmlns:gpxtpx="http://www.garmin.com/xmlschemas/TrackPointExtension/v1">
            <gpxtpx:hr>70</gpxtpx:hr>
          </gpxtpx:TrackPointExtension>
        </extensions>
      </trkpt>
      <trkpt lat="43.54924" lon="1.43948">
        <ele>90.199996948242</ele>
        <time>2020-06-10T13:26:16.000Z</time>
        <extensions>
          <gpxtpx:TrackPointExtension xmlns:gpxtpx="http://www.garmin.com/xmlschemas/TrackPointExtension/v1">
            <gpxtpx:hr>72</gpxtpx:hr>
          </gpxtpx:TrackPointExtension>
        </extensions>
      </trkpt>
      <trkpt lat="43.54921" lon="1.43946">
        <ele>90</ele>
        <time>2020-06-10T13:26:17.000Z</time>
        <extensions>
          <gpxtpx:TrackPointExtension xmlns:gpxtpx="http://www.garmin.com/xmlschemas/TrackPointExtension/v1">
            <gpxtpx:hr>73</gpxtpx:hr>
          </gpxtpx:TrackPointExtension>
        </extensions>
      </trkpt>
      <trkpt lat="43.54917" lon="1.43944">
        <ele>89.800003051758</ele>
        <time>2020-06-10T13:26:18.000Z</time>
        <extensions>
          <gpxtpx:TrackPointExtension xmlns:gpxtpx="http://www.garmin.com/xmlschemas/TrackPointExtension/v1">
            <gpxtpx:hr>74</gpxtpx:hr>
          </gpxtpx:TrackPointExtension>
        </extensions>
      </trkpt>
      <trkpt lat="43.54909" lon="1.4394">
        <ele>89</ele>
        <time>2020-06-10T13:26:20.000Z</time>
        <extensions>
          <gpxtpx:TrackPointExtension xmlns:gpxtpx="http://www.garmin.com/xmlschemas/TrackPointExtension/v1">
            <gpxtpx:hr>74</gpxtpx:hr>
          </gpxtpx:TrackPointExtension>
        </extensions>
      </trkpt>
      <trkpt lat="43.54905" lon="1.43938">
        <ele>88.800003051758</ele>
        <time>2020-06-10T13:26:21.000Z</time>
        <extensions>
          <gpxtpx:TrackPointExtension xmlns:gpxtpx="http://www.garmin.com/xmlschemas/TrackPointExtension/v1">
            <gpxtpx:hr>74</gpxtpx:hr>
          </gpxtpx:TrackPointExtension>
        </extensions>
      </trkpt>
      <trkpt lat="43.54901" lon="1.43936">
        <ele>88.800003051758</ele>
        <time>2020-06-10T13:26:22.000Z</time>
        <extensions>
          <gpxtpx:TrackPointExtension xmlns:gpxtpx="http://www.garmin.com/xmlschemas/TrackPointExtension/v1">
            <gpxtpx:hr>74</gpxtpx:hr>
          </gpxtpx:TrackPointExtension>
        </extensions>
      </trkpt>
      <trkpt lat="43.54892" lon="1.43932">
        <ele>88.599998474121</ele>
        <time>2020-06-10T13:26:24.000Z</time>
        <extensions>
          <gpxtpx:TrackPointExtension xmlns:gpxtpx="http://www.garmin.com/xmlschemas/TrackPointExtension/v1">
            <gpxtpx:hr>73</gpxtpx:hr>
          </gpxtpx:TrackPointExtension>
        </extensions>
      </trkpt>
      <trkpt lat="43.54883" lon="1.4393">
        <ele>88.599998474121</ele>
        <time>2020-06-10T13:26:26.000Z</time>
        <extensions>
          <gpxtpx:TrackPointExtension xmlns:gpxtpx="http://www.garmin.com/xmlschemas/TrackPointExtension/v1">
            <gpxtpx:hr>73</gpxtpx:hr>
          </gpxtpx:TrackPointExtension>
        </extensions>
      </trkpt>
      <trkpt lat="43.54873" lon="1.43928">
        <ele>88.400001525879</ele>
        <time>2020-06-10T13:26:28.000Z</time>
        <extensions>
          <gpxtpx:TrackPointExtension xmlns:gpxtpx="http://www.garmin.com/xmlschemas/TrackPointExtension/v1">
            <gpxtpx:hr>72</gpxtpx:hr>
          </gpxtpx:TrackPointExtension>
        </extensions>
      </trkpt>
      <trkpt lat="43.54863" lon="1.43927">
        <ele>88.400001525879</ele>
        <time>2020-06-10T13:26:30.000Z</time>
        <extensions>
          <gpxtpx:TrackPointExtension xmlns:gpxtpx="http://www.garmin.com/xmlschemas/TrackPointExtension/v1">
            <gpxtpx:hr>71</gpxtpx:hr>
          </gpxtpx:TrackPointExtension>
        </extensions>
      </trkpt>
      <trkpt lat="43.54852" lon="1.43926">
        <ele>88.400001525879</ele>
        <time>2020-06-10T13:26:32.000Z</time>
        <extensions>
          <gpxtpx:TrackPointExtension xmlns:gpxtpx="http://www.garmin.com/xmlschemas/TrackPointExtension/v1">
            <gpxtpx:hr>71</gpxtpx:hr>
          </gpxtpx:TrackPointExtension>
        </extensions>
      </trkpt>
      <trkpt lat="43.54841" lon="1.43924">
        <ele>88.400001525879</ele>
        <time>2020-06-10T13:26:34.000Z</time>
        <extensions>
          <gpxtpx:TrackPointExtension xmlns:gpxtpx="http://www.garmin.com/xmlschemas/TrackPointExtension/v1">
            <gpxtpx:hr>70</gpxtpx:hr>
          </gpxtpx:TrackPointExtension>
        </extensions>
      </trkpt>
      <trkpt lat="43.5483" lon="1.43922">
        <ele>88.400001525879</ele>
        <time>2020-06-10T13:26:36.000Z</time>
        <extensions>
          <gpxtpx:TrackPointExtension xmlns:gpxtpx="http://www.garmin.com/xmlschemas/TrackPointExtension/v1">
            <gpxtpx:hr>70</gpxtpx:hr>
          </gpxtpx:TrackPointExtension>
        </extensions>
      </trkpt>
      <trkpt lat="43.54819" lon="1.43921">
        <ele>88.199996948242</ele>
        <time>2020-06-10T13:26:38.000Z</time>
        <extensions>
          <gpxtpx:TrackPointExtension xmlns:gpxtpx="http://www.garmin.com/xmlschemas/TrackPointExtension/v1">
            <gpxtpx:hr>70</gpxtpx:hr>
          </gpxtpx:TrackPointExtension>
        </extensions>
      </trkpt>
      <trkpt lat="43.54808" lon="1.43921">
        <ele>87.800003051758</ele>
        <time>2020-06-10T13:26:40.000Z</time>
        <extensions>
          <gpxtpx:TrackPointExtension xmlns:gpxtpx="http://www.garmin.com/xmlschemas/TrackPointExtension/v1">
            <gpxtpx:hr>71</gpxtpx:hr>
          </gpxtpx:TrackPointExtension>
        </extensions>
      </trkpt>
      <trkpt lat="43.54799" lon="1.43921">
        <ele>87.599998474121</ele>
        <time>2020-06-10T13:26:42.000Z</time>
        <extensions>
          <gpxtpx:TrackPointExtension xmlns:gpxtpx="http://www.garmin.com/xmlschemas/TrackPointExtension/v1">
            <gpxtpx:hr>72</gpxtpx:hr>
          </gpxtpx:TrackPointExtension>
        </extensions>
      </trkpt>
      <trkpt lat="43.5479" lon="1.43921">
        <ele>87.599998474121</ele>
        <time>2020-06-10T13:26:44.000Z</time>
        <extensions>
          <gpxtpx:TrackPointExtension xmlns:gpxtpx="http://www.garmin.com/xmlschemas/TrackPointExtension/v1">
            <gpxtpx:hr>73</gpxtpx:hr>
          </gpxtpx:TrackPointExtension>
        </extensions>
      </trkpt>
      <trkpt lat="43.54782" lon="1.43922">
        <ele>87.599998474121</ele>
        <time>2020-06-10T13:26:46.000Z</time>
        <extensions>
          <gpxtpx:TrackPointExtension xmlns:gpxtpx="http://www.garmin.com/xmlschemas/TrackPointExtension/v1">
            <gpxtpx:hr>72</gpxtpx:hr>
          </gpxtpx:TrackPointExtension>
        </extensions>
      </trkpt>
      <trkpt lat="43.54774" lon="1.43923">
        <ele>87.599998474121</ele>
        <time>2020-06-10T13:26:48.000Z</time>
        <extensions>
          <gpxtpx:TrackPointExtension xmlns:gpxtpx="http://www.garmin.com/xmlschemas/TrackPointExtension/v1">
            <gpxtpx:hr>73</gpxtpx:hr>
          </gpxtpx:TrackPointExtension>
        </extensions>
      </trkpt>
      <trkpt lat="43.54766" lon="1.43923">
        <ele>87.599998474121</ele>
        <time>2020-06-10T13:26:50.000Z</time>
        <extensions>
          <gpxtpx:TrackPointExtension xmlns:gpxtpx="http://www.garmin.com/xmlschemas/TrackPointExtension/v1">
            <gpxtpx:hr>74</gpxtpx:hr>
          </gpxtpx:TrackPointExtension>
        </extensions>
      </trkpt>
      <trkpt lat="43.54758" lon="1.43924">
        <ele>87.599998474121</ele>
        <time>2020-06-10T13:26:52.000Z</time>
        <extensions>
          <gpxtpx:TrackPointExtension xmlns:gpxtpx="http://www.garmin.com/xmlschemas/TrackPointExtension/v1">
            <gpxtpx:hr>74</gpxtpx:hr>
          </gpxtpx:TrackPointExtension>
        </extensions>
      </trkpt>
      <trkpt lat="43.5475" lon="1.43924">
        <ele>88</ele>
        <time>2020-06-10T13:26:54.000Z</time>
        <extensions>
          <gpxtpx:TrackPointExtension xmlns:gpxtpx="http://www.garmin.com/xmlschemas/TrackPointExtension/v1">
            <gpxtpx:hr>75</gpxtpx:hr>
          </gpxtpx:TrackPointExtension>
        </extensions>
      </trkpt>
      <trkpt lat="43.54742" lon="1.43924">
        <ele>88</ele>
        <time>2020-06-10T13:26:56.000Z</time>
        <extensions>
          <gpxtpx:TrackPointExtension xmlns:gpxtpx="http://www.garmin.com/xmlschemas/TrackPointExtension/v1">
            <gpxtpx:hr>75</gpxtpx:hr>
          </gpxtpx:TrackPointExtension>
        </extensions>
      </trkpt>
      <trkpt lat="43.54734" lon="1.43925">
        <ele>88.400001525879</ele>
        <time>2020-06-10T13:26:58.000Z</time>
        <extensions>
          <gpxtpx:TrackPointExtension xmlns:gpxtpx="http://www.garmin.com/xmlschemas/TrackPointExtension/v1">
            <gpxtpx:hr>74</gpxtpx:hr>
          </gpxtpx:TrackPointExtension>
        </extensions>
      </trkpt>
      <trkpt lat="43.54726" lon="1.43925">
        <ele>88.400001525879</ele>
        <time>2020-06-10T13:27:00.000Z</time>
        <extensions>
          <gpxtpx:TrackPointExtension xmlns:gpxtpx="http://www.garmin.com/xmlschemas/TrackPointExtension/v1">
            <gpxtpx:hr>74</gpxtpx:hr>
          </gpxtpx:TrackPointExtension>
        </extensions>
      </trkpt>
      <trkpt lat="43.54718" lon="1.43926">
        <ele>88.599998474121</ele>
        <time>2020-06-10T13:27:02.000Z</time>
        <extensions>
          <gpxtpx:TrackPointExtension xmlns:gpxtpx="http://www.garmin.com/xmlschemas/TrackPointExtension/v1">
            <gpxtpx:hr>74</gpxtpx:hr>
          </gpxtpx:TrackPointExtension>
        </extensions>
      </trkpt>
      <trkpt lat="43.54711" lon="1.43926">
        <ele>88.599998474121</ele>
        <time>2020-06-10T13:27:04.000Z</time>
        <extensions>
          <gpxtpx:TrackPointExtension xmlns:gpxtpx="http://www.garmin.com/xmlschemas/TrackPointExtension/v1">
            <gpxtpx:hr>74</gpxtpx:hr>
          </gpxtpx:TrackPointExtension>
        </extensions>
      </trkpt>
      <trkpt lat="43.54703" lon="1.43927">
        <ele>88.599998474121</ele>
        <time>2020-06-10T13:27:06.000Z</time>
        <extensions>
          <gpxtpx:TrackPointExtension xmlns:gpxtpx="http://www.garmin.com/xmlschemas/TrackPointExtension/v1">
            <gpxtpx:hr>74</gpxtpx:hr>
          </gpxtpx:TrackPointExtension>
        </extensions>
      </trkpt>
      <trkpt lat="43.54696" lon="1.43928">
        <ele>88.800003051758</ele>
        <time>2020-06-10T13:27:08.000Z</time>
        <extensions>
          <gpxtpx:TrackPointExtension xmlns:gpxtpx="http://www.garmin.com/xmlschemas/TrackPointExtension/v1">
            <gpxtpx:hr>72</gpxtpx:hr>
          </gpxtpx:TrackPointExtension>
        </extensions>
      </trkpt>
      <trkpt lat="43.5469" lon="1.43928">
        <ele>89</ele>
        <time>2020-06-10T13:27:10.000Z</time>
        <extensions>
          <gpxtpx:TrackPointExtension xmlns:gpxtpx="http://www.garmin.com/xmlschemas/TrackPointExtension/v1">
            <gpxtpx:hr>70</gpxtpx:hr>
          </gpxtpx:TrackPointExtension>
        </extensions>
      </trkpt>
      <trkpt lat="43.54682" lon="1.43928">
        <ele>89.199996948242</ele>
        <time>2020-06-10T13:27:12.000Z</time>
        <extensions>
          <gpxtpx:TrackPointExtension xmlns:gpxtpx="http://www.garmin.com/xmlschemas/TrackPointExtension/v1">
            <gpxtpx:hr>69</gpxtpx:hr>
          </gpxtpx:TrackPointExtension>
        </extensions>
      </trkpt>
      <trkpt lat="43.54674" lon="1.43928">
        <ele>89.199996948242</ele>
        <time>2020-06-10T13:27:14.000Z</time>
        <extensions>
          <gpxtpx:TrackPointExtension xmlns:gpxtpx="http://www.garmin.com/xmlschemas/TrackPointExtension/v1">
            <gpxtpx:hr>68</gpxtpx:hr>
          </gpxtpx:TrackPointExtension>
        </extensions>
      </trkpt>
      <trkpt lat="43.54666" lon="1.43927">
        <ele>89.199996948242</ele>
        <time>2020-06-10T13:27:16.000Z</time>
        <extensions>
          <gpxtpx:TrackPointExtension xmlns:gpxtpx="http://www.garmin.com/xmlschemas/TrackPointExtension/v1">
            <gpxtpx:hr>68</gpxtpx:hr>
          </gpxtpx:TrackPointExtension>
        </extensions>
      </trkpt>
      <trkpt lat="43.54656" lon="1.43927">
        <ele>89.199996948242</ele>
        <time>2020-06-10T13:27:18.000Z</time>
        <extensions>
          <gpxtpx:TrackPointExtension xmlns:gpxtpx="http://www.garmin.com/xmlschemas/TrackPointExtension/v1">
            <gpxtpx:hr>67</gpxtpx:hr>
          </gpxtpx:TrackPointExtension>
        </extensions>
      </trkpt>
      <trkpt lat="43.54645" lon="1.43924">
        <ele>89.199996948242</ele>
        <time>2020-06-10T13:27:20.000Z</time>
        <extensions>
          <gpxtpx:TrackPointExtension xmlns:gpxtpx="http://www.garmin.com/xmlschemas/TrackPointExtension/v1">
            <gpxtpx:hr>67</gpxtpx:hr>
          </gpxtpx:TrackPointExtension>
        </extensions>
      </trkpt>
      <trkpt lat="43.54634" lon="1.43921">
        <ele>88.800003051758</ele>
        <time>2020-06-10T13:27:22.000Z</time>
        <extensions>
          <gpxtpx:TrackPointExtension xmlns:gpxtpx="http://www.garmin.com/xmlschemas/TrackPointExtension/v1">
            <gpxtpx:hr>66</gpxtpx:hr>
          </gpxtpx:TrackPointExtension>
        </extensions>
      </trkpt>
      <trkpt lat="43.54624" lon="1.43918">
        <ele>88</ele>
        <time>2020-06-10T13:27:24.000Z</time>
        <extensions>
          <gpxtpx:TrackPointExtension xmlns:gpxtpx="http://www.garmin.com/xmlschemas/TrackPointExtension/v1">
            <gpxtpx:hr>65</gpxtpx:hr>
          </gpxtpx:TrackPointExtension>
        </extensions>
      </trkpt>
      <trkpt lat="43.54619" lon="1.43917">
        <ele>87.800003051758</ele>
        <time>2020-06-10T13:27:25.000Z</time>
        <extensions>
          <gpxtpx:TrackPointExtension xmlns:gpxtpx="http://www.garmin.com/xmlschemas/TrackPointExtension/v1">
            <gpxtpx:hr>65</gpxtpx:hr>
          </gpxtpx:TrackPointExtension>
        </extensions>
      </trkpt>
      <trkpt lat="43.54614" lon="1.43916">
        <ele>87.599998474121</ele>
        <time>2020-06-10T13:27:26.000Z</time>
        <extensions>
          <gpxtpx:TrackPointExtension xmlns:gpxtpx="http://www.garmin.com/xmlschemas/TrackPointExtension/v1">
            <gpxtpx:hr>65</gpxtpx:hr>
          </gpxtpx:TrackPointExtension>
        </extensions>
      </trkpt>
      <trkpt lat="43.54609" lon="1.43914">
        <ele>87.400001525879</ele>
        <time>2020-06-10T13:27:27.000Z</time>
        <extensions>
          <gpxtpx:TrackPointExtension xmlns:gpxtpx="http://www.garmin.com/xmlschemas/TrackPointExtension/v1">
            <gpxtpx:hr>68</gpxtpx:hr>
          </gpxtpx:TrackPointExtension>
        </extensions>
      </trkpt>
      <trkpt lat="43.54604" lon="1.43913">
        <ele>87.400001525879</ele>
        <time>2020-06-10T13:27:28.000Z</time>
        <extensions>
          <gpxtpx:TrackPointExtension xmlns:gpxtpx="http://www.garmin.com/xmlschemas/TrackPointExtension/v1">
            <gpxtpx:hr>69</gpxtpx:hr>
          </gpxtpx:TrackPointExtension>
        </extensions>
      </trkpt>
      <trkpt lat="43.54599" lon="1.43912">
        <ele>87.400001525879</ele>
        <time>2020-06-10T13:27:29.000Z</time>
        <extensions>
          <gpxtpx:TrackPointExtension xmlns:gpxtpx="http://www.garmin.com/xmlschemas/TrackPointExtension/v1">
            <gpxtpx:hr>73</gpxtpx:hr>
          </gpxtpx:TrackPointExtension>
        </extensions>
      </trkpt>
      <trkpt lat="43.54595" lon="1.43911">
        <ele>87.400001525879</ele>
        <time>2020-06-10T13:27:30.000Z</time>
        <extensions>
          <gpxtpx:TrackPointExtension xmlns:gpxtpx="http://www.garmin.com/xmlschemas/TrackPointExtension/v1">
            <gpxtpx:hr>75</gpxtpx:hr>
          </gpxtpx:TrackPointExtension>
        </extensions>
      </trkpt>
      <trkpt lat="43.54586" lon="1.43909">
        <ele>87.400001525879</ele>
        <time>2020-06-10T13:27:32.000Z</time>
        <extensions>
          <gpxtpx:TrackPointExtension xmlns:gpxtpx="http://www.garmin.com/xmlschemas/TrackPointExtension/v1">
            <gpxtpx:hr>77</gpxtpx:hr>
          </gpxtpx:TrackPointExtension>
        </extensions>
      </trkpt>
      <trkpt lat="43.54576" lon="1.43908">
        <ele>87.400001525879</ele>
        <time>2020-06-10T13:27:34.000Z</time>
        <extensions>
          <gpxtpx:TrackPointExtension xmlns:gpxtpx="http://www.garmin.com/xmlschemas/TrackPointExtension/v1">
            <gpxtpx:hr>77</gpxtpx:hr>
          </gpxtpx:TrackPointExtension>
        </extensions>
      </trkpt>
      <trkpt lat="43.54567" lon="1.43907">
        <ele>87.400001525879</ele>
        <time>2020-06-10T13:27:36.000Z</time>
        <extensions>
          <gpxtpx:TrackPointExtension xmlns:gpxtpx="http://www.garmin.com/xmlschemas/TrackPointExtension/v1">
            <gpxtpx:hr>77</gpxtpx:hr>
          </gpxtpx:TrackPointExtension>
        </extensions>
      </trkpt>
      <trkpt lat="43.54557" lon="1.43907">
        <ele>87.400001525879</ele>
        <time>2020-06-10T13:27:38.000Z</time>
      </trkpt>
      <trkpt lat="43.54548" lon="1.43908">
        <ele>87.400001525879</ele>
        <time>2020-06-10T13:27:40.000Z</time>
      </trkpt>
      <trkpt lat="43.54538" lon="1.4391">
        <ele>87.400001525879</ele>
        <time>2020-06-10T13:27:42.000Z</time>
      </trkpt>
      <trkpt lat="43.54529" lon="1.43911">
        <ele>87.400001525879</ele>
        <time>2020-06-10T13:27:44.000Z</time>
        <extensions>
          <gpxtpx:TrackPointExtension xmlns:gpxtpx="http://www.garmin.com/xmlschemas/TrackPointExtension/v1">
            <gpxtpx:hr>76</gpxtpx:hr>
          </gpxtpx:TrackPointExtension>
        </extensions>
      </trkpt>
      <trkpt lat="43.5452" lon="1.43913">
        <ele>87.599998474121</ele>
        <time>2020-06-10T13:27:46.000Z</time>
        <extensions>
          <gpxtpx:TrackPointExtension xmlns:gpxtpx="http://www.garmin.com/xmlschemas/TrackPointExtension/v1">
            <gpxtpx:hr>75</gpxtpx:hr>
          </gpxtpx:TrackPointExtension>
        </extensions>
      </trkpt>
      <trkpt lat="43.5451" lon="1.43913">
        <ele>87.400001525879</ele>
        <time>2020-06-10T13:27:48.000Z</time>
        <extensions>
          <gpxtpx:TrackPointExtension xmlns:gpxtpx="http://www.garmin.com/xmlschemas/TrackPointExtension/v1">
            <gpxtpx:hr>73</gpxtpx:hr>
          </gpxtpx:TrackPointExtension>
        </extensions>
      </trkpt>
      <trkpt lat="43.54501" lon="1.43913">
        <ele>87.400001525879</ele>
        <time>2020-06-10T13:27:50.000Z</time>
        <extensions>
          <gpxtpx:TrackPointExtension xmlns:gpxtpx="http://www.garmin.com/xmlschemas/TrackPointExtension/v1">
            <gpxtpx:hr>71</gpxtpx:hr>
          </gpxtpx:TrackPointExtension>
        </extensions>
      </trkpt>
      <trkpt lat="43.54496" lon="1.43913">
        <ele>87.400001525879</ele>
        <time>2020-06-10T13:27:51.000Z</time>
        <extensions>
          <gpxtpx:TrackPointExtension xmlns:gpxtpx="http://www.garmin.com/xmlschemas/TrackPointExtension/v1">
            <gpxtpx:hr>70</gpxtpx:hr>
          </gpxtpx:TrackPointExtension>
        </extensions>
      </trkpt>
      <trkpt lat="43.54492" lon="1.43912">
        <ele>87.400001525879</ele>
        <time>2020-06-10T13:27:52.000Z</time>
        <extensions>
          <gpxtpx:TrackPointExtension xmlns:gpxtpx="http://www.garmin.com/xmlschemas/TrackPointExtension/v1">
            <gpxtpx:hr>69</gpxtpx:hr>
          </gpxtpx:TrackPointExtension>
        </extensions>
      </trkpt>
      <trkpt lat="43.54488" lon="1.4391">
        <ele>87.400001525879</ele>
        <time>2020-06-10T13:27:53.000Z</time>
        <extensions>
          <gpxtpx:TrackPointExtension xmlns:gpxtpx="http://www.garmin.com/xmlschemas/TrackPointExtension/v1">
            <gpxtpx:hr>68</gpxtpx:hr>
          </gpxtpx:TrackPointExtension>
        </extensions>
      </trkpt>
      <trkpt lat="43.54484" lon="1.43908">
        <ele>87.400001525879</ele>
        <time>2020-06-10T13:27:54.000Z</time>
        <extensions>
          <gpxtpx:TrackPointExtension xmlns:gpxtpx="http://www.garmin.com/xmlschemas/TrackPointExtension/v1">
            <gpxtpx:hr>67</gpxtpx:hr>
          </gpxtpx:TrackPointExtension>
        </extensions>
      </trkpt>
      <trkpt lat="43.54481" lon="1.43905">
        <ele>87.400001525879</ele>
        <time>2020-06-10T13:27:55.000Z</time>
        <extensions>
          <gpxtpx:TrackPointExtension xmlns:gpxtpx="http://www.garmin.com/xmlschemas/TrackPointExtension/v1">
            <gpxtpx:hr>67</gpxtpx:hr>
          </gpxtpx:TrackPointExtension>
        </extensions>
      </trkpt>
      <trkpt lat="43.54477" lon="1.43903">
        <ele>87.400001525879</ele>
        <time>2020-06-10T13:27:56.000Z</time>
        <extensions>
          <gpxtpx:TrackPointExtension xmlns:gpxtpx="http://www.garmin.com/xmlschemas/TrackPointExtension/v1">
            <gpxtpx:hr>67</gpxtpx:hr>
          </gpxtpx:TrackPointExtension>
        </extensions>
      </trkpt>
      <trkpt lat="43.54471" lon="1.43897">
        <ele>87.400001525879</ele>
        <time>2020-06-10T13:27:58.000Z</time>
        <extensions>
          <gpxtpx:TrackPointExtension xmlns:gpxtpx="http://www.garmin.com/xmlschemas/TrackPointExtension/v1">
            <gpxtpx:hr>67</gpxtpx:hr>
          </gpxtpx:TrackPointExtension>
        </extensions>
      </trkpt>
      <trkpt lat="43.54464" lon="1.43892">
        <ele>87.400001525879</ele>
        <time>2020-06-10T13:28:00.000Z</time>
        <extensions>
          <gpxtpx:TrackPointExtension xmlns:gpxtpx="http://www.garmin.com/xmlschemas/TrackPointExtension/v1">
            <gpxtpx:hr>68</gpxtpx:hr>
          </gpxtpx:TrackPointExtension>
        </extensions>
      </trkpt>
      <trkpt lat="43.54458" lon="1.43887">
        <ele>87.599998474121</ele>
        <time>2020-06-10T13:28:02.000Z</time>
        <extensions>
          <gpxtpx:TrackPointExtension xmlns:gpxtpx="http://www.garmin.com/xmlschemas/TrackPointExtension/v1">
            <gpxtpx:hr>67</gpxtpx:hr>
          </gpxtpx:TrackPointExtension>
        </extensions>
      </trkpt>
      <trkpt lat="43.5445" lon="1.43883">
        <ele>87.599998474121</ele>
        <time>2020-06-10T13:28:04.000Z</time>
        <extensions>
          <gpxtpx:TrackPointExtension xmlns:gpxtpx="http://www.garmin.com/xmlschemas/TrackPointExtension/v1">
            <gpxtpx:hr>66</gpxtpx:hr>
          </gpxtpx:TrackPointExtension>
        </extensions>
      </trkpt>
      <trkpt lat="43.54443" lon="1.43879">
        <ele>87.599998474121</ele>
        <time>2020-06-10T13:28:06.000Z</time>
        <extensions>
          <gpxtpx:TrackPointExtension xmlns:gpxtpx="http://www.garmin.com/xmlschemas/TrackPointExtension/v1">
            <gpxtpx:hr>66</gpxtpx:hr>
          </gpxtpx:TrackPointExtension>
        </extensions>
      </trkpt>
      <trkpt lat="43.54435" lon="1.43875">
        <ele>87.800003051758</ele>
        <time>2020-06-10T13:28:08.000Z</time>
        <extensions>
          <gpxtpx:TrackPointExtension xmlns:gpxtpx="http://www.garmin.com/xmlschemas/TrackPointExtension/v1">
            <gpxtpx:hr>66</gpxtpx:hr>
          </gpxtpx:TrackPointExtension>
        </extensions>
      </trkpt>
      <trkpt lat="43.54427" lon="1.43872">
        <ele>87.800003051758</ele>
        <time>2020-06-10T13:28:10.000Z</time>
        <extensions>
          <gpxtpx:TrackPointExtension xmlns:gpxtpx="http://www.garmin.com/xmlschemas/TrackPointExtension/v1">
            <gpxtpx:hr>66</gpxtpx:hr>
          </gpxtpx:TrackPointExtension>
        </extensions>
      </trkpt>
      <trkpt lat="43.54419" lon="1.43868">
        <ele>87.800003051758</ele>
        <time>2020-06-10T13:28:12.000Z</time>
        <extensions>
          <gpxtpx:TrackPointExtension xmlns:gpxtpx="http://www.garmin.com/xmlschemas/TrackPointExtension/v1">
            <gpxtpx:hr>67</gpxtpx:hr>
          </gpxtpx:TrackPointExtension>
        </extensions>
      </trkpt>
      <trkpt lat="43.54411" lon="1.43864">
        <ele>88</ele>
        <time>2020-06-10T13:28:14.000Z</time>
        <extensions>
          <gpxtpx:TrackPointExtension xmlns:gpxtpx="http://www.garmin.com/xmlschemas/TrackPointExtension/v1">
            <gpxtpx:hr>67</gpxtpx:hr>
          </gpxtpx:TrackPointExtension>
        </extensions>
      </trkpt>
      <trkpt lat="43.54404" lon="1.4386">
        <ele>88</ele>
        <time>2020-06-10T13:28:16.000Z</time>
        <extensions>
          <gpxtpx:TrackPointExtension xmlns:gpxtpx="http://www.garmin.com/xmlschemas/TrackPointExtension/v1">
            <gpxtpx:hr>67</gpxtpx:hr>
          </gpxtpx:TrackPointExtension>
        </extensions>
      </trkpt>
      <trkpt lat="43.54396" lon="1.43857">
        <ele>88</ele>
        <time>2020-06-10T13:28:18.000Z</time>
        <extensions>
          <gpxtpx:TrackPointExtension xmlns:gpxtpx="http://www.garmin.com/xmlschemas/TrackPointExtension/v1">
            <gpxtpx:hr>67</gpxtpx:hr>
          </gpxtpx:TrackPointExtension>
        </extensions>
      </trkpt>
      <trkpt lat="43.54388" lon="1.43853">
        <ele>88</ele>
        <time>2020-06-10T13:28:20.000Z</time>
        <extensions>
          <gpxtpx:TrackPointExtension xmlns:gpxtpx="http://www.garmin.com/xmlschemas/TrackPointExtension/v1">
            <gpxtpx:hr>68</gpxtpx:hr>
          </gpxtpx:TrackPointExtension>
        </extensions>
      </trkpt>
      <trkpt lat="43.5438" lon="1.43849">
        <ele>88</ele>
        <time>2020-06-10T13:28:22.000Z</time>
        <extensions>
          <gpxtpx:TrackPointExtension xmlns:gpxtpx="http://www.garmin.com/xmlschemas/TrackPointExtension/v1">
            <gpxtpx:hr>68</gpxtpx:hr>
          </gpxtpx:TrackPointExtension>
        </extensions>
      </trkpt>
      <trkpt lat="43.54373" lon="1.43845">
        <ele>88</ele>
        <time>2020-06-10T13:28:24.000Z</time>
        <extensions>
          <gpxtpx:TrackPointExtension xmlns:gpxtpx="http://www.garmin.com/xmlschemas/TrackPointExtension/v1">
            <gpxtpx:hr>68</gpxtpx:hr>
          </gpxtpx:TrackPointExtension>
        </extensions>
      </trkpt>
      <trkpt lat="43.54366" lon="1.43839">
        <ele>88</ele>
        <time>2020-06-10T13:28:26.000Z</time>
        <extensions>
          <gpxtpx:TrackPointExtension xmlns:gpxtpx="http://www.garmin.com/xmlschemas/TrackPointExtension/v1">
            <gpxtpx:hr>68</gpxtpx:hr>
          </gpxtpx:TrackPointExtension>
        </extensions>
      </trkpt>
      <trkpt lat="43.5436" lon="1.43833">
        <ele>88.199996948242</ele>
        <time>2020-06-10T13:28:28.000Z</time>
        <extensions>
          <gpxtpx:TrackPointExtension xmlns:gpxtpx="http://www.garmin.com/xmlschemas/TrackPointExtension/v1">
            <gpxtpx:hr>69</gpxtpx:hr>
          </gpxtpx:TrackPointExtension>
        </extensions>
      </trkpt>
      <trkpt lat="43.54355" lon="1.43826">
        <ele>88.199996948242</ele>
        <time>2020-06-10T13:28:30.000Z</time>
        <extensions>
          <gpxtpx:TrackPointExtension xmlns:gpxtpx="http://www.garmin.com/xmlschemas/TrackPointExtension/v1">
            <gpxtpx:hr>70</gpxtpx:hr>
          </gpxtpx:TrackPointExtension>
        </extensions>
      </trkpt>
      <trkpt lat="43.54351" lon="1.43817">
        <ele>88.199996948242</ele>
        <time>2020-06-10T13:28:32.000Z</time>
        <extensions>
          <gpxtpx:TrackPointExtension xmlns:gpxtpx="http://www.garmin.com/xmlschemas/TrackPointExtension/v1">
            <gpxtpx:hr>70</gpxtpx:hr>
          </gpxtpx:TrackPointExtension>
        </extensions>
      </trkpt>
      <trkpt lat="43.54348" lon="1.43808">
        <ele>88.199996948242</ele>
        <time>2020-06-10T13:28:34.000Z</time>
        <extensions>
          <gpxtpx:TrackPointExtension xmlns:gpxtpx="http://www.garmin.com/xmlschemas/TrackPointExtension/v1">
            <gpxtpx:hr>70</gpxtpx:hr>
          </gpxtpx:TrackPointExtension>
        </extensions>
      </trkpt>
      <trkpt lat="43.54345" lon="1.438">
        <ele>88.199996948242</ele>
        <time>2020-06-10T13:28:36.000Z</time>
        <extensions>
          <gpxtpx:TrackPointExtension xmlns:gpxtpx="http://www.garmin.com/xmlschemas/TrackPointExtension/v1">
            <gpxtpx:hr>69</gpxtpx:hr>
          </gpxtpx:TrackPointExtension>
        </extensions>
      </trkpt>
      <trkpt lat="43.54342" lon="1.43792">
        <ele>88.199996948242</ele>
        <time>2020-06-10T13:28:38.000Z</time>
        <extensions>
          <gpxtpx:TrackPointExtension xmlns:gpxtpx="http://www.garmin.com/xmlschemas/TrackPointExtension/v1">
            <gpxtpx:hr>69</gpxtpx:hr>
          </gpxtpx:TrackPointExtension>
        </extensions>
      </trkpt>
      <trkpt lat="43.5434" lon="1.43788">
        <ele>88.199996948242</ele>
        <time>2020-06-10T13:28:39.000Z</time>
        <extensions>
          <gpxtpx:TrackPointExtension xmlns:gpxtpx="http://www.garmin.com/xmlschemas/TrackPointExtension/v1">
            <gpxtpx:hr>70</gpxtpx:hr>
          </gpxtpx:TrackPointExtension>
        </extensions>
      </trkpt>
      <trkpt lat="43.54338" lon="1.43784">
        <ele>88.400001525879</ele>
        <time>2020-06-10T13:28:40.000Z</time>
        <extensions>
          <gpxtpx:TrackPointExtension xmlns:gpxtpx="http://www.garmin.com/xmlschemas/TrackPointExtension/v1">
            <gpxtpx:hr>70</gpxtpx:hr>
          </gpxtpx:TrackPointExtension>
        </extensions>
      </trkpt>
      <trkpt lat="43.54333" lon="1.43775">
        <ele>88.400001525879</ele>
        <time>2020-06-10T13:28:42.000Z</time>
        <extensions>
          <gpxtpx:TrackPointExtension xmlns:gpxtpx="http://www.garmin.com/xmlschemas/TrackPointExtension/v1">
            <gpxtpx:hr>70</gpxtpx:hr>
          </gpxtpx:TrackPointExtension>
        </extensions>
      </trkpt>
      <trkpt lat="43.5433" lon="1.43771">
        <ele>88.400001525879</ele>
        <time>2020-06-10T13:28:43.000Z</time>
        <extensions>
          <gpxtpx:TrackPointExtension xmlns:gpxtpx="http://www.garmin.com/xmlschemas/TrackPointExtension/v1">
            <gpxtpx:hr>71</gpxtpx:hr>
          </gpxtpx:TrackPointExtension>
        </extensions>
      </trkpt>
      <trkpt lat="43.54328" lon="1.43766">
        <ele>88.400001525879</ele>
        <time>2020-06-10T13:28:44.000Z</time>
        <extensions>
          <gpxtpx:TrackPointExtension xmlns:gpxtpx="http://www.garmin.com/xmlschemas/TrackPointExtension/v1">
            <gpxtpx:hr>71</gpxtpx:hr>
          </gpxtpx:TrackPointExtension>
        </extensions>
      </trkpt>
      <trkpt lat="43.54322" lon="1.43757">
        <ele>88.400001525879</ele>
        <time>2020-06-10T13:28:46.000Z</time>
        <extensions>
          <gpxtpx:TrackPointExtension xmlns:gpxtpx="http://www.garmin.com/xmlschemas/TrackPointExtension/v1">
            <gpxtpx:hr>71</gpxtpx:hr>
          </gpxtpx:TrackPointExtension>
        </extensions>
      </trkpt>
      <trkpt lat="43.54317" lon="1.43748">
        <ele>88.400001525879</ele>
        <time>2020-06-10T13:28:48.000Z</time>
        <extensions>
          <gpxtpx:TrackPointExtension xmlns:gpxtpx="http://www.garmin.com/xmlschemas/TrackPointExtension/v1">
            <gpxtpx:hr>70</gpxtpx:hr>
          </gpxtpx:TrackPointExtension>
        </extensions>
      </trkpt>
      <trkpt lat="43.54311" lon="1.43739">
        <ele>88.400001525879</ele>
        <time>2020-06-10T13:28:50.000Z</time>
        <extensions>
          <gpxtpx:TrackPointExtension xmlns:gpxtpx="http://www.garmin.com/xmlschemas/TrackPointExtension/v1">
            <gpxtpx:hr>69</gpxtpx:hr>
          </gpxtpx:TrackPointExtension>
        </extensions>
      </trkpt>
      <trkpt lat="43.54306" lon="1.43731">
        <ele>88.199996948242</ele>
        <time>2020-06-10T13:28:52.000Z</time>
        <extensions>
          <gpxtpx:TrackPointExtension xmlns:gpxtpx="http://www.garmin.com/xmlschemas/TrackPointExtension/v1">
            <gpxtpx:hr>70</gpxtpx:hr>
          </gpxtpx:TrackPointExtension>
        </extensions>
      </trkpt>
      <trkpt lat="43.54301" lon="1.43723">
        <ele>88.199996948242</ele>
        <time>2020-06-10T13:28:54.000Z</time>
        <extensions>
          <gpxtpx:TrackPointExtension xmlns:gpxtpx="http://www.garmin.com/xmlschemas/TrackPointExtension/v1">
            <gpxtpx:hr>70</gpxtpx:hr>
          </gpxtpx:TrackPointExtension>
        </extensions>
      </trkpt>
      <trkpt lat="43.54296" lon="1.43714">
        <ele>88</ele>
        <time>2020-06-10T13:28:56.000Z</time>
        <extensions>
          <gpxtpx:TrackPointExtension xmlns:gpxtpx="http://www.garmin.com/xmlschemas/TrackPointExtension/v1">
            <gpxtpx:hr>71</gpxtpx:hr>
          </gpxtpx:TrackPointExtension>
        </extensions>
      </trkpt>
      <trkpt lat="43.5429" lon="1.43705">
        <ele>87.800003051758</ele>
        <time>2020-06-10T13:28:58.000Z</time>
        <extensions>
          <gpxtpx:TrackPointExtension xmlns:gpxtpx="http://www.garmin.com/xmlschemas/TrackPointExtension/v1">
            <gpxtpx:hr>71</gpxtpx:hr>
          </gpxtpx:TrackPointExtension>
        </extensions>
      </trkpt>
      <trkpt lat="43.54284" lon="1.43696">
        <ele>87.800003051758</ele>
        <time>2020-06-10T13:29:00.000Z</time>
        <extensions>
          <gpxtpx:TrackPointExtension xmlns:gpxtpx="http://www.garmin.com/xmlschemas/TrackPointExtension/v1">
            <gpxtpx:hr>71</gpxtpx:hr>
          </gpxtpx:TrackPointExtension>
        </extensions>
      </trkpt>
      <trkpt lat="43.54278" lon="1.43687">
        <ele>87.800003051758</ele>
        <time>2020-06-10T13:29:02.000Z</time>
        <extensions>
          <gpxtpx:TrackPointExtension xmlns:gpxtpx="http://www.garmin.com/xmlschemas/TrackPointExtension/v1">
            <gpxtpx:hr>70</gpxtpx:hr>
          </gpxtpx:TrackPointExtension>
        </extensions>
      </trkpt>
      <trkpt lat="43.54272" lon="1.43678">
        <ele>87.800003051758</ele>
        <time>2020-06-10T13:29:04.000Z</time>
        <extensions>
          <gpxtpx:TrackPointExtension xmlns:gpxtpx="http://www.garmin.com/xmlschemas/TrackPointExtension/v1">
            <gpxtpx:hr>70</gpxtpx:hr>
          </gpxtpx:TrackPointExtension>
        </extensions>
      </trkpt>
      <trkpt lat="43.54265" lon="1.4367">
        <ele>87.800003051758</ele>
        <time>2020-06-10T13:29:06.000Z</time>
        <extensions>
          <gpxtpx:TrackPointExtension xmlns:gpxtpx="http://www.garmin.com/xmlschemas/TrackPointExtension/v1">
            <gpxtpx:hr>70</gpxtpx:hr>
          </gpxtpx:TrackPointExtension>
        </extensions>
      </trkpt>
      <trkpt lat="43.54258" lon="1.43663">
        <ele>87.800003051758</ele>
        <time>2020-06-10T13:29:08.000Z</time>
        <extensions>
          <gpxtpx:TrackPointExtension xmlns:gpxtpx="http://www.garmin.com/xmlschemas/TrackPointExtension/v1">
            <gpxtpx:hr>69</gpxtpx:hr>
          </gpxtpx:TrackPointExtension>
        </extensions>
      </trkpt>
      <trkpt lat="43.54252" lon="1.43656">
        <ele>87.599998474121</ele>
        <time>2020-06-10T13:29:10.000Z</time>
        <extensions>
          <gpxtpx:TrackPointExtension xmlns:gpxtpx="http://www.garmin.com/xmlschemas/TrackPointExtension/v1">
            <gpxtpx:hr>69</gpxtpx:hr>
          </gpxtpx:TrackPointExtension>
        </extensions>
      </trkpt>
      <trkpt lat="43.54245" lon="1.4365">
        <ele>87.199996948242</ele>
        <time>2020-06-10T13:29:12.000Z</time>
        <extensions>
          <gpxtpx:TrackPointExtension xmlns:gpxtpx="http://www.garmin.com/xmlschemas/TrackPointExtension/v1">
            <gpxtpx:hr>69</gpxtpx:hr>
          </gpxtpx:TrackPointExtension>
        </extensions>
      </trkpt>
      <trkpt lat="43.54239" lon="1.43644">
        <ele>86.800003051758</ele>
        <time>2020-06-10T13:29:14.000Z</time>
        <extensions>
          <gpxtpx:TrackPointExtension xmlns:gpxtpx="http://www.garmin.com/xmlschemas/TrackPointExtension/v1">
            <gpxtpx:hr>69</gpxtpx:hr>
          </gpxtpx:TrackPointExtension>
        </extensions>
      </trkpt>
      <trkpt lat="43.54232" lon="1.43639">
        <ele>86.800003051758</ele>
        <time>2020-06-10T13:29:16.000Z</time>
        <extensions>
          <gpxtpx:TrackPointExtension xmlns:gpxtpx="http://www.garmin.com/xmlschemas/TrackPointExtension/v1">
            <gpxtpx:hr>69</gpxtpx:hr>
          </gpxtpx:TrackPointExtension>
        </extensions>
      </trkpt>
      <trkpt lat="43.54225" lon="1.43633">
        <ele>86.800003051758</ele>
        <time>2020-06-10T13:29:18.000Z</time>
        <extensions>
          <gpxtpx:TrackPointExtension xmlns:gpxtpx="http://www.garmin.com/xmlschemas/TrackPointExtension/v1">
            <gpxtpx:hr>68</gpxtpx:hr>
          </gpxtpx:TrackPointExtension>
        </extensions>
      </trkpt>
      <trkpt lat="43.54221" lon="1.4363">
        <ele>86.800003051758</ele>
        <time>2020-06-10T13:29:19.000Z</time>
        <extensions>
          <gpxtpx:TrackPointExtension xmlns:gpxtpx="http://www.garmin.com/xmlschemas/TrackPointExtension/v1">
            <gpxtpx:hr>68</gpxtpx:hr>
          </gpxtpx:TrackPointExtension>
        </extensions>
      </trkpt>
      <trkpt lat="43.54218" lon="1.43627">
        <ele>86.599998474121</ele>
        <time>2020-06-10T13:29:20.000Z</time>
        <extensions>
          <gpxtpx:TrackPointExtension xmlns:gpxtpx="http://www.garmin.com/xmlschemas/TrackPointExtension/v1">
            <gpxtpx:hr>68</gpxtpx:hr>
          </gpxtpx:TrackPointExtension>
        </extensions>
      </trkpt>
      <trkpt lat="43.5421" lon="1.43621">
        <ele>86.599998474121</ele>
        <time>2020-06-10T13:29:22.000Z</time>
        <extensions>
          <gpxtpx:TrackPointExtension xmlns:gpxtpx="http://www.garmin.com/xmlschemas/TrackPointExtension/v1">
            <gpxtpx:hr>67</gpxtpx:hr>
          </gpxtpx:TrackPointExtension>
        </extensions>
      </trkpt>
      <trkpt lat="43.54203" lon="1.43613">
        <ele>86.599998474121</ele>
        <time>2020-06-10T13:29:24.000Z</time>
        <extensions>
          <gpxtpx:TrackPointExtension xmlns:gpxtpx="http://www.garmin.com/xmlschemas/TrackPointExtension/v1">
            <gpxtpx:hr>67</gpxtpx:hr>
          </gpxtpx:TrackPointExtension>
        </extensions>
      </trkpt>
      <trkpt lat="43.54195" lon="1.43605">
        <ele>86.599998474121</ele>
        <time>2020-06-10T13:29:26.000Z</time>
        <extensions>
          <gpxtpx:TrackPointExtension xmlns:gpxtpx="http://www.garmin.com/xmlschemas/TrackPointExtension/v1">
            <gpxtpx:hr>66</gpxtpx:hr>
          </gpxtpx:TrackPointExtension>
        </extensions>
      </trkpt>
      <trkpt lat="43.54188" lon="1.43598">
        <ele>86.599998474121</ele>
        <time>2020-06-10T13:29:28.000Z</time>
        <extensions>
          <gpxtpx:TrackPointExtension xmlns:gpxtpx="http://www.garmin.com/xmlschemas/TrackPointExtension/v1">
            <gpxtpx:hr>66</gpxtpx:hr>
          </gpxtpx:TrackPointExtension>
        </extensions>
      </trkpt>
      <trkpt lat="43.54181" lon="1.43592">
        <ele>86.599998474121</ele>
        <time>2020-06-10T13:29:30.000Z</time>
        <extensions>
          <gpxtpx:TrackPointExtension xmlns:gpxtpx="http://www.garmin.com/xmlschemas/TrackPointExtension/v1">
            <gpxtpx:hr>67</gpxtpx:hr>
          </gpxtpx:TrackPointExtension>
        </extensions>
      </trkpt>
      <trkpt lat="43.54175" lon="1.43585">
        <ele>86.599998474121</ele>
        <time>2020-06-10T13:29:32.000Z</time>
        <extensions>
          <gpxtpx:TrackPointExtension xmlns:gpxtpx="http://www.garmin.com/xmlschemas/TrackPointExtension/v1">
            <gpxtpx:hr>67</gpxtpx:hr>
          </gpxtpx:TrackPointExtension>
        </extensions>
      </trkpt>
      <trkpt lat="43.54168" lon="1.43579">
        <ele>86.599998474121</ele>
        <time>2020-06-10T13:29:34.000Z</time>
        <extensions>
          <gpxtpx:TrackPointExtension xmlns:gpxtpx="http://www.garmin.com/xmlschemas/TrackPointExtension/v1">
            <gpxtpx:hr>66</gpxtpx:hr>
          </gpxtpx:TrackPointExtension>
        </extensions>
      </trkpt>
      <trkpt lat="43.54164" lon="1.43576">
        <ele>86.400001525879</ele>
        <time>2020-06-10T13:29:35.000Z</time>
        <extensions>
          <gpxtpx:TrackPointExtension xmlns:gpxtpx="http://www.garmin.com/xmlschemas/TrackPointExtension/v1">
            <gpxtpx:hr>66</gpxtpx:hr>
          </gpxtpx:TrackPointExtension>
        </extensions>
      </trkpt>
      <trkpt lat="43.5416" lon="1.43574">
        <ele>86.599998474121</ele>
        <time>2020-06-10T13:29:36.000Z</time>
        <extensions>
          <gpxtpx:TrackPointExtension xmlns:gpxtpx="http://www.garmin.com/xmlschemas/TrackPointExtension/v1">
            <gpxtpx:hr>66</gpxtpx:hr>
          </gpxtpx:TrackPointExtension>
        </extensions>
      </trkpt>
      <trkpt lat="43.54153" lon="1.43568">
        <ele>86.400001525879</ele>
        <time>2020-06-10T13:29:38.000Z</time>
        <extensions>
          <gpxtpx:TrackPointExtension xmlns:gpxtpx="http://www.garmin.com/xmlschemas/TrackPointExtension/v1">
            <gpxtpx:hr>66</gpxtpx:hr>
          </gpxtpx:TrackPointExtension>
        </extensions>
      </trkpt>
      <trkpt lat="43.54145" lon="1.43562">
        <ele>86.400001525879</ele>
        <time>2020-06-10T13:29:40.000Z</time>
        <extensions>
          <gpxtpx:TrackPointExtension xmlns:gpxtpx="http://www.garmin.com/xmlschemas/TrackPointExtension/v1">
            <gpxtpx:hr>66</gpxtpx:hr>
          </gpxtpx:TrackPointExtension>
        </extensions>
      </trkpt>
      <trkpt lat="43.54139" lon="1.43557">
        <ele>86.400001525879</ele>
        <time>2020-06-10T13:29:42.000Z</time>
        <extensions>
          <gpxtpx:TrackPointExtension xmlns:gpxtpx="http://www.garmin.com/xmlschemas/TrackPointExtension/v1">
            <gpxtpx:hr>67</gpxtpx:hr>
          </gpxtpx:TrackPointExtension>
        </extensions>
      </trkpt>
      <trkpt lat="43.54135" lon="1.43554">
        <ele>86.400001525879</ele>
        <time>2020-06-10T13:29:43.000Z</time>
        <extensions>
          <gpxtpx:TrackPointExtension xmlns:gpxtpx="http://www.garmin.com/xmlschemas/TrackPointExtension/v1">
            <gpxtpx:hr>67</gpxtpx:hr>
          </gpxtpx:TrackPointExtension>
        </extensions>
      </trkpt>
      <trkpt lat="43.54132" lon="1.4355">
        <ele>86.400001525879</ele>
        <time>2020-06-10T13:29:44.000Z</time>
        <extensions>
          <gpxtpx:TrackPointExtension xmlns:gpxtpx="http://www.garmin.com/xmlschemas/TrackPointExtension/v1">
            <gpxtpx:hr>67</gpxtpx:hr>
          </gpxtpx:TrackPointExtension>
        </extensions>
      </trkpt>
      <trkpt lat="43.54125" lon="1.43546">
        <ele>86.400001525879</ele>
        <time>2020-06-10T13:29:46.000Z</time>
        <extensions>
          <gpxtpx:TrackPointExtension xmlns:gpxtpx="http://www.garmin.com/xmlschemas/TrackPointExtension/v1">
            <gpxtpx:hr>67</gpxtpx:hr>
          </gpxtpx:TrackPointExtension>
        </extensions>
      </trkpt>
      <trkpt lat="43.54118" lon="1.43542">
        <ele>86.400001525879</ele>
        <time>2020-06-10T13:29:48.000Z</time>
        <extensions>
          <gpxtpx:TrackPointExtension xmlns:gpxtpx="http://www.garmin.com/xmlschemas/TrackPointExtension/v1">
            <gpxtpx:hr>67</gpxtpx:hr>
          </gpxtpx:TrackPointExtension>
        </extensions>
      </trkpt>
      <trkpt lat="43.5411" lon="1.43537">
        <ele>86.400001525879</ele>
        <time>2020-06-10T13:29:50.000Z</time>
        <extensions>
          <gpxtpx:TrackPointExtension xmlns:gpxtpx="http://www.garmin.com/xmlschemas/TrackPointExtension/v1">
            <gpxtpx:hr>67</gpxtpx:hr>
          </gpxtpx:TrackPointExtension>
        </extensions>
      </trkpt>
      <trkpt lat="43.54103" lon="1.43531">
        <ele>86.400001525879</ele>
        <time>2020-06-10T13:29:52.000Z</time>
        <extensions>
          <gpxtpx:TrackPointExtension xmlns:gpxtpx="http://www.garmin.com/xmlschemas/TrackPointExtension/v1">
            <gpxtpx:hr>67</gpxtpx:hr>
          </gpxtpx:TrackPointExtension>
        </extensions>
      </trkpt>
      <trkpt lat="43.54095" lon="1.43526">
        <ele>86.400001525879</ele>
        <time>2020-06-10T13:29:54.000Z</time>
        <extensions>
          <gpxtpx:TrackPointExtension xmlns:gpxtpx="http://www.garmin.com/xmlschemas/TrackPointExtension/v1">
            <gpxtpx:hr>67</gpxtpx:hr>
          </gpxtpx:TrackPointExtension>
        </extensions>
      </trkpt>
      <trkpt lat="43.54088" lon="1.43521">
        <ele>86.599998474121</ele>
        <time>2020-06-10T13:29:56.000Z</time>
        <extensions>
          <gpxtpx:TrackPointExtension xmlns:gpxtpx="http://www.garmin.com/xmlschemas/TrackPointExtension/v1">
            <gpxtpx:hr>68</gpxtpx:hr>
          </gpxtpx:TrackPointExtension>
        </extensions>
      </trkpt>
      <trkpt lat="43.5408" lon="1.43517">
        <ele>86.599998474121</ele>
        <time>2020-06-10T13:29:58.000Z</time>
        <extensions>
          <gpxtpx:TrackPointExtension xmlns:gpxtpx="http://www.garmin.com/xmlschemas/TrackPointExtension/v1">
            <gpxtpx:hr>68</gpxtpx:hr>
          </gpxtpx:TrackPointExtension>
        </extensions>
      </trkpt>
      <trkpt lat="43.54073" lon="1.43513">
        <ele>86.800003051758</ele>
        <time>2020-06-10T13:30:00.000Z</time>
        <extensions>
          <gpxtpx:TrackPointExtension xmlns:gpxtpx="http://www.garmin.com/xmlschemas/TrackPointExtension/v1">
            <gpxtpx:hr>70</gpxtpx:hr>
          </gpxtpx:TrackPointExtension>
        </extensions>
      </trkpt>
      <trkpt lat="43.54066" lon="1.43509">
        <ele>86.800003051758</ele>
        <time>2020-06-10T13:30:02.000Z</time>
        <extensions>
          <gpxtpx:TrackPointExtension xmlns:gpxtpx="http://www.garmin.com/xmlschemas/TrackPointExtension/v1">
            <gpxtpx:hr>70</gpxtpx:hr>
          </gpxtpx:TrackPointExtension>
        </extensions>
      </trkpt>
      <trkpt lat="43.54059" lon="1.43505">
        <ele>86.800003051758</ele>
        <time>2020-06-10T13:30:04.000Z</time>
        <extensions>
          <gpxtpx:TrackPointExtension xmlns:gpxtpx="http://www.garmin.com/xmlschemas/TrackPointExtension/v1">
            <gpxtpx:hr>71</gpxtpx:hr>
          </gpxtpx:TrackPointExtension>
        </extensions>
      </trkpt>
      <trkpt lat="43.54052" lon="1.435">
        <ele>86.800003051758</ele>
        <time>2020-06-10T13:30:06.000Z</time>
        <extensions>
          <gpxtpx:TrackPointExtension xmlns:gpxtpx="http://www.garmin.com/xmlschemas/TrackPointExtension/v1">
            <gpxtpx:hr>72</gpxtpx:hr>
          </gpxtpx:TrackPointExtension>
        </extensions>
      </trkpt>
      <trkpt lat="43.54046" lon="1.43495">
        <ele>86.800003051758</ele>
        <time>2020-06-10T13:30:08.000Z</time>
        <extensions>
          <gpxtpx:TrackPointExtension xmlns:gpxtpx="http://www.garmin.com/xmlschemas/TrackPointExtension/v1">
            <gpxtpx:hr>73</gpxtpx:hr>
          </gpxtpx:TrackPointExtension>
        </extensions>
      </trkpt>
      <trkpt lat="43.54039" lon="1.43489">
        <ele>86.800003051758</ele>
        <time>2020-06-10T13:30:10.000Z</time>
        <extensions>
          <gpxtpx:TrackPointExtension xmlns:gpxtpx="http://www.garmin.com/xmlschemas/TrackPointExtension/v1">
            <gpxtpx:hr>75</gpxtpx:hr>
          </gpxtpx:TrackPointExtension>
        </extensions>
      </trkpt>
      <trkpt lat="43.54033" lon="1.43484">
        <ele>86.800003051758</ele>
        <time>2020-06-10T13:30:12.000Z</time>
        <extensions>
          <gpxtpx:TrackPointExtension xmlns:gpxtpx="http://www.garmin.com/xmlschemas/TrackPointExtension/v1">
            <gpxtpx:hr>77</gpxtpx:hr>
          </gpxtpx:TrackPointExtension>
        </extensions>
      </trkpt>
      <trkpt lat="43.54026" lon="1.43477">
        <ele>87</ele>
        <time>2020-06-10T13:30:14.000Z</time>
        <extensions>
          <gpxtpx:TrackPointExtension xmlns:gpxtpx="http://www.garmin.com/xmlschemas/TrackPointExtension/v1">
            <gpxtpx:hr>78</gpxtpx:hr>
          </gpxtpx:TrackPointExtension>
        </extensions>
      </trkpt>
      <trkpt lat="43.5402" lon="1.43471">
        <ele>87</ele>
        <time>2020-06-10T13:30:16.000Z</time>
        <extensions>
          <gpxtpx:TrackPointExtension xmlns:gpxtpx="http://www.garmin.com/xmlschemas/TrackPointExtension/v1">
            <gpxtpx:hr>79</gpxtpx:hr>
          </gpxtpx:TrackPointExtension>
        </extensions>
      </trkpt>
      <trkpt lat="43.54015" lon="1.43465">
        <ele>87.199996948242</ele>
        <time>2020-06-10T13:30:18.000Z</time>
        <extensions>
          <gpxtpx:TrackPointExtension xmlns:gpxtpx="http://www.garmin.com/xmlschemas/TrackPointExtension/v1">
            <gpxtpx:hr>81</gpxtpx:hr>
          </gpxtpx:TrackPointExtension>
        </extensions>
      </trkpt>
      <trkpt lat="43.5401" lon="1.4346">
        <ele>87.199996948242</ele>
        <time>2020-06-10T13:30:20.000Z</time>
        <extensions>
          <gpxtpx:TrackPointExtension xmlns:gpxtpx="http://www.garmin.com/xmlschemas/TrackPointExtension/v1">
            <gpxtpx:hr>82</gpxtpx:hr>
          </gpxtpx:TrackPointExtension>
        </extensions>
      </trkpt>
      <trkpt lat="43.54005" lon="1.43455">
        <ele>87.199996948242</ele>
        <time>2020-06-10T13:30:22.000Z</time>
        <extensions>
          <gpxtpx:TrackPointExtension xmlns:gpxtpx="http://www.garmin.com/xmlschemas/TrackPointExtension/v1">
            <gpxtpx:hr>82</gpxtpx:hr>
          </gpxtpx:TrackPointExtension>
        </extensions>
      </trkpt>
      <trkpt lat="43.54" lon="1.4345">
        <ele>87.400001525879</ele>
        <time>2020-06-10T13:30:24.000Z</time>
        <extensions>
          <gpxtpx:TrackPointExtension xmlns:gpxtpx="http://www.garmin.com/xmlschemas/TrackPointExtension/v1">
            <gpxtpx:hr>82</gpxtpx:hr>
          </gpxtpx:TrackPointExtension>
        </extensions>
      </trkpt>
      <trkpt lat="43.53998" lon="1.43448">
        <ele>87.599998474121</ele>
        <time>2020-06-10T13:30:25.000Z</time>
        <extensions>
          <gpxtpx:TrackPointExtension xmlns:gpxtpx="http://www.garmin.com/xmlschemas/TrackPointExtension/v1">
            <gpxtpx:hr>83</gpxtpx:hr>
          </gpxtpx:TrackPointExtension>
        </extensions>
      </trkpt>
      <trkpt lat="43.53995" lon="1.43446">
        <ele>88</ele>
        <time>2020-06-10T13:30:26.000Z</time>
        <extensions>
          <gpxtpx:TrackPointExtension xmlns:gpxtpx="http://www.garmin.com/xmlschemas/TrackPointExtension/v1">
            <gpxtpx:hr>83</gpxtpx:hr>
          </gpxtpx:TrackPointExtension>
        </extensions>
      </trkpt>
      <trkpt lat="43.5399" lon="1.43442">
        <ele>88.400001525879</ele>
        <time>2020-06-10T13:30:28.000Z</time>
        <extensions>
          <gpxtpx:TrackPointExtension xmlns:gpxtpx="http://www.garmin.com/xmlschemas/TrackPointExtension/v1">
            <gpxtpx:hr>85</gpxtpx:hr>
          </gpxtpx:TrackPointExtension>
        </extensions>
      </trkpt>
      <trkpt lat="43.53985" lon="1.43437">
        <ele>88.599998474121</ele>
        <time>2020-06-10T13:30:30.000Z</time>
        <extensions>
          <gpxtpx:TrackPointExtension xmlns:gpxtpx="http://www.garmin.com/xmlschemas/TrackPointExtension/v1">
            <gpxtpx:hr>87</gpxtpx:hr>
          </gpxtpx:TrackPointExtension>
        </extensions>
      </trkpt>
      <trkpt lat="43.53982" lon="1.43435">
        <ele>88.599998474121</ele>
        <time>2020-06-10T13:30:31.000Z</time>
        <extensions>
          <gpxtpx:TrackPointExtension xmlns:gpxtpx="http://www.garmin.com/xmlschemas/TrackPointExtension/v1">
            <gpxtpx:hr>89</gpxtpx:hr>
          </gpxtpx:TrackPointExtension>
        </extensions>
      </trkpt>
      <trkpt lat="43.5398" lon="1.43433">
        <ele>88.599998474121</ele>
        <time>2020-06-10T13:30:32.000Z</time>
        <extensions>
          <gpxtpx:TrackPointExtension xmlns:gpxtpx="http://www.garmin.com/xmlschemas/TrackPointExtension/v1">
            <gpxtpx:hr>91</gpxtpx:hr>
          </gpxtpx:TrackPointExtension>
        </extensions>
      </trkpt>
      <trkpt lat="43.53975" lon="1.4343">
        <ele>88.800003051758</ele>
        <time>2020-06-10T13:30:34.000Z</time>
        <extensions>
          <gpxtpx:TrackPointExtension xmlns:gpxtpx="http://www.garmin.com/xmlschemas/TrackPointExtension/v1">
            <gpxtpx:hr>93</gpxtpx:hr>
          </gpxtpx:TrackPointExtension>
        </extensions>
      </trkpt>
      <trkpt lat="43.5397" lon="1.43427">
        <ele>89.199996948242</ele>
        <time>2020-06-10T13:30:36.000Z</time>
        <extensions>
          <gpxtpx:TrackPointExtension xmlns:gpxtpx="http://www.garmin.com/xmlschemas/TrackPointExtension/v1">
            <gpxtpx:hr>93</gpxtpx:hr>
          </gpxtpx:TrackPointExtension>
        </extensions>
      </trkpt>
      <trkpt lat="43.53965" lon="1.43424">
        <ele>89.599998474121</ele>
        <time>2020-06-10T13:30:38.000Z</time>
        <extensions>
          <gpxtpx:TrackPointExtension xmlns:gpxtpx="http://www.garmin.com/xmlschemas/TrackPointExtension/v1">
            <gpxtpx:hr>93</gpxtpx:hr>
          </gpxtpx:TrackPointExtension>
        </extensions>
      </trkpt>
      <trkpt lat="43.5396" lon="1.43421">
        <ele>89.800003051758</ele>
        <time>2020-06-10T13:30:40.000Z</time>
      </trkpt>
      <trkpt lat="43.53955" lon="1.43418">
        <ele>90</ele>
        <time>2020-06-10T13:30:42.000Z</time>
      </trkpt>
      <trkpt lat="43.5395" lon="1.43415">
        <ele>90</ele>
        <time>2020-06-10T13:30:44.000Z</time>
        <extensions>
          <gpxtpx:TrackPointExtension xmlns:gpxtpx="http://www.garmin.com/xmlschemas/TrackPointExtension/v1">
            <gpxtpx:hr>92</gpxtpx:hr>
          </gpxtpx:TrackPointExtension>
        </extensions>
      </trkpt>
      <trkpt lat="43.53944" lon="1.43411">
        <ele>90.199996948242</ele>
        <time>2020-06-10T13:30:46.000Z</time>
        <extensions>
          <gpxtpx:TrackPointExtension xmlns:gpxtpx="http://www.garmin.com/xmlschemas/TrackPointExtension/v1">
            <gpxtpx:hr>92</gpxtpx:hr>
          </gpxtpx:TrackPointExtension>
        </extensions>
      </trkpt>
      <trkpt lat="43.53938" lon="1.43407">
        <ele>90.599998474121</ele>
        <time>2020-06-10T13:30:48.000Z</time>
        <extensions>
          <gpxtpx:TrackPointExtension xmlns:gpxtpx="http://www.garmin.com/xmlschemas/TrackPointExtension/v1">
            <gpxtpx:hr>90</gpxtpx:hr>
          </gpxtpx:TrackPointExtension>
        </extensions>
      </trkpt>
      <trkpt lat="43.53935" lon="1.43405">
        <ele>90.800003051758</ele>
        <time>2020-06-10T13:30:49.000Z</time>
        <extensions>
          <gpxtpx:TrackPointExtension xmlns:gpxtpx="http://www.garmin.com/xmlschemas/TrackPointExtension/v1">
            <gpxtpx:hr>90</gpxtpx:hr>
          </gpxtpx:TrackPointExtension>
        </extensions>
      </trkpt>
      <trkpt lat="43.53932" lon="1.43403">
        <ele>90.800003051758</ele>
        <time>2020-06-10T13:30:50.000Z</time>
        <extensions>
          <gpxtpx:TrackPointExtension xmlns:gpxtpx="http://www.garmin.com/xmlschemas/TrackPointExtension/v1">
            <gpxtpx:hr>90</gpxtpx:hr>
          </gpxtpx:TrackPointExtension>
        </extensions>
      </trkpt>
      <trkpt lat="43.53926" lon="1.43399">
        <ele>91</ele>
        <time>2020-06-10T13:30:52.000Z</time>
        <extensions>
          <gpxtpx:TrackPointExtension xmlns:gpxtpx="http://www.garmin.com/xmlschemas/TrackPointExtension/v1">
            <gpxtpx:hr>91</gpxtpx:hr>
          </gpxtpx:TrackPointExtension>
        </extensions>
      </trkpt>
      <trkpt lat="43.5392" lon="1.43395">
        <ele>91</ele>
        <time>2020-06-10T13:30:54.000Z</time>
        <extensions>
          <gpxtpx:TrackPointExtension xmlns:gpxtpx="http://www.garmin.com/xmlschemas/TrackPointExtension/v1">
            <gpxtpx:hr>95</gpxtpx:hr>
          </gpxtpx:TrackPointExtension>
        </extensions>
      </trkpt>
      <trkpt lat="43.53914" lon="1.43392">
        <ele>91.199996948242</ele>
        <time>2020-06-10T13:30:56.000Z</time>
        <extensions>
          <gpxtpx:TrackPointExtension xmlns:gpxtpx="http://www.garmin.com/xmlschemas/TrackPointExtension/v1">
            <gpxtpx:hr>95</gpxtpx:hr>
          </gpxtpx:TrackPointExtension>
        </extensions>
      </trkpt>
      <trkpt lat="43.53908" lon="1.43389">
        <ele>91.400001525879</ele>
        <time>2020-06-10T13:30:58.000Z</time>
        <extensions>
          <gpxtpx:TrackPointExtension xmlns:gpxtpx="http://www.garmin.com/xmlschemas/TrackPointExtension/v1">
            <gpxtpx:hr>95</gpxtpx:hr>
          </gpxtpx:TrackPointExtension>
        </extensions>
      </trkpt>
      <trkpt lat="43.53903" lon="1.43386">
        <ele>91.800003051758</ele>
        <time>2020-06-10T13:31:00.000Z</time>
      </trkpt>
      <trkpt lat="43.53901" lon="1.43384">
        <ele>92</ele>
        <time>2020-06-10T13:31:01.000Z</time>
      </trkpt>
      <trkpt lat="43.53898" lon="1.43383">
        <ele>92.199996948242</ele>
        <time>2020-06-10T13:31:02.000Z</time>
      </trkpt>
      <trkpt lat="43.53893" lon="1.43379">
        <ele>92.400001525879</ele>
        <time>2020-06-10T13:31:04.000Z</time>
        <extensions>
          <gpxtpx:TrackPointExtension xmlns:gpxtpx="http://www.garmin.com/xmlschemas/TrackPointExtension/v1">
            <gpxtpx:hr>94</gpxtpx:hr>
          </gpxtpx:TrackPointExtension>
        </extensions>
      </trkpt>
      <trkpt lat="43.53888" lon="1.43375">
        <ele>92.599998474121</ele>
        <time>2020-06-10T13:31:06.000Z</time>
        <extensions>
          <gpxtpx:TrackPointExtension xmlns:gpxtpx="http://www.garmin.com/xmlschemas/TrackPointExtension/v1">
            <gpxtpx:hr>94</gpxtpx:hr>
          </gpxtpx:TrackPointExtension>
        </extensions>
      </trkpt>
      <trkpt lat="43.53883" lon="1.43372">
        <ele>92.800003051758</ele>
        <time>2020-06-10T13:31:08.000Z</time>
        <extensions>
          <gpxtpx:TrackPointExtension xmlns:gpxtpx="http://www.garmin.com/xmlschemas/TrackPointExtension/v1">
            <gpxtpx:hr>91</gpxtpx:hr>
          </gpxtpx:TrackPointExtension>
        </extensions>
      </trkpt>
      <trkpt lat="43.53878" lon="1.4337">
        <ele>93.199996948242</ele>
        <time>2020-06-10T13:31:10.000Z</time>
        <extensions>
          <gpxtpx:TrackPointExtension xmlns:gpxtpx="http://www.garmin.com/xmlschemas/TrackPointExtension/v1">
            <gpxtpx:hr>89</gpxtpx:hr>
          </gpxtpx:TrackPointExtension>
        </extensions>
      </trkpt>
      <trkpt lat="43.53873" lon="1.43366">
        <ele>93.400001525879</ele>
        <time>2020-06-10T13:31:12.000Z</time>
        <extensions>
          <gpxtpx:TrackPointExtension xmlns:gpxtpx="http://www.garmin.com/xmlschemas/TrackPointExtension/v1">
            <gpxtpx:hr>87</gpxtpx:hr>
          </gpxtpx:TrackPointExtension>
        </extensions>
      </trkpt>
      <trkpt lat="43.53868" lon="1.43363">
        <ele>93.599998474121</ele>
        <time>2020-06-10T13:31:14.000Z</time>
        <extensions>
          <gpxtpx:TrackPointExtension xmlns:gpxtpx="http://www.garmin.com/xmlschemas/TrackPointExtension/v1">
            <gpxtpx:hr>87</gpxtpx:hr>
          </gpxtpx:TrackPointExtension>
        </extensions>
      </trkpt>
      <trkpt lat="43.53863" lon="1.4336">
        <ele>94</ele>
        <time>2020-06-10T13:31:16.000Z</time>
        <extensions>
          <gpxtpx:TrackPointExtension xmlns:gpxtpx="http://www.garmin.com/xmlschemas/TrackPointExtension/v1">
            <gpxtpx:hr>86</gpxtpx:hr>
          </gpxtpx:TrackPointExtension>
        </extensions>
      </trkpt>
      <trkpt lat="43.5386" lon="1.43358">
        <ele>94.199996948242</ele>
        <time>2020-06-10T13:31:17.000Z</time>
        <extensions>
          <gpxtpx:TrackPointExtension xmlns:gpxtpx="http://www.garmin.com/xmlschemas/TrackPointExtension/v1">
            <gpxtpx:hr>87</gpxtpx:hr>
          </gpxtpx:TrackPointExtension>
        </extensions>
      </trkpt>
      <trkpt lat="43.53857" lon="1.43356">
        <ele>94.199996948242</ele>
        <time>2020-06-10T13:31:18.000Z</time>
        <extensions>
          <gpxtpx:TrackPointExtension xmlns:gpxtpx="http://www.garmin.com/xmlschemas/TrackPointExtension/v1">
            <gpxtpx:hr>87</gpxtpx:hr>
          </gpxtpx:TrackPointExtension>
        </extensions>
      </trkpt>
      <trkpt lat="43.53852" lon="1.43352">
        <ele>94.400001525879</ele>
        <time>2020-06-10T13:31:20.000Z</time>
        <extensions>
          <gpxtpx:TrackPointExtension xmlns:gpxtpx="http://www.garmin.com/xmlschemas/TrackPointExtension/v1">
            <gpxtpx:hr>87</gpxtpx:hr>
          </gpxtpx:TrackPointExtension>
        </extensions>
      </trkpt>
      <trkpt lat="43.53847" lon="1.43349">
        <ele>94.599998474121</ele>
        <time>2020-06-10T13:31:22.000Z</time>
        <extensions>
          <gpxtpx:TrackPointExtension xmlns:gpxtpx="http://www.garmin.com/xmlschemas/TrackPointExtension/v1">
            <gpxtpx:hr>87</gpxtpx:hr>
          </gpxtpx:TrackPointExtension>
        </extensions>
      </trkpt>
      <trkpt lat="43.53841" lon="1.43345">
        <ele>94.800003051758</ele>
        <time>2020-06-10T13:31:24.000Z</time>
        <extensions>
          <gpxtpx:TrackPointExtension xmlns:gpxtpx="http://www.garmin.com/xmlschemas/TrackPointExtension/v1">
            <gpxtpx:hr>87</gpxtpx:hr>
          </gpxtpx:TrackPointExtension>
        </extensions>
      </trkpt>
      <trkpt lat="43.53836" lon="1.43342">
        <ele>95</ele>
        <time>2020-06-10T13:31:26.000Z</time>
        <extensions>
          <gpxtpx:TrackPointExtension xmlns:gpxtpx="http://www.garmin.com/xmlschemas/TrackPointExtension/v1">
            <gpxtpx:hr>87</gpxtpx:hr>
          </gpxtpx:TrackPointExtension>
        </extensions>
      </trkpt>
      <trkpt lat="43.53831" lon="1.43339">
        <ele>95.199996948242</ele>
        <time>2020-06-10T13:31:28.000Z</time>
        <extensions>
          <gpxtpx:TrackPointExtension xmlns:gpxtpx="http://www.garmin.com/xmlschemas/TrackPointExtension/v1">
            <gpxtpx:hr>88</gpxtpx:hr>
          </gpxtpx:TrackPointExtension>
        </extensions>
      </trkpt>
      <trkpt lat="43.53826" lon="1.43336">
        <ele>95.199996948242</ele>
        <time>2020-06-10T13:31:30.000Z</time>
        <extensions>
          <gpxtpx:TrackPointExtension xmlns:gpxtpx="http://www.garmin.com/xmlschemas/TrackPointExtension/v1">
            <gpxtpx:hr>88</gpxtpx:hr>
          </gpxtpx:TrackPointExtension>
        </extensions>
      </trkpt>
      <trkpt lat="43.5382" lon="1.43333">
        <ele>95.400001525879</ele>
        <time>2020-06-10T13:31:32.000Z</time>
        <extensions>
          <gpxtpx:TrackPointExtension xmlns:gpxtpx="http://www.garmin.com/xmlschemas/TrackPointExtension/v1">
            <gpxtpx:hr>87</gpxtpx:hr>
          </gpxtpx:TrackPointExtension>
        </extensions>
      </trkpt>
      <trkpt lat="43.53815" lon="1.4333">
        <ele>95.400001525879</ele>
        <time>2020-06-10T13:31:34.000Z</time>
        <extensions>
          <gpxtpx:TrackPointExtension xmlns:gpxtpx="http://www.garmin.com/xmlschemas/TrackPointExtension/v1">
            <gpxtpx:hr>88</gpxtpx:hr>
          </gpxtpx:TrackPointExtension>
        </extensions>
      </trkpt>
      <trkpt lat="43.5381" lon="1.43327">
        <ele>95.599998474121</ele>
        <time>2020-06-10T13:31:36.000Z</time>
        <extensions>
          <gpxtpx:TrackPointExtension xmlns:gpxtpx="http://www.garmin.com/xmlschemas/TrackPointExtension/v1">
            <gpxtpx:hr>87</gpxtpx:hr>
          </gpxtpx:TrackPointExtension>
        </extensions>
      </trkpt>
      <trkpt lat="43.53805" lon="1.43324">
        <ele>95.800003051758</ele>
        <time>2020-06-10T13:31:38.000Z</time>
        <extensions>
          <gpxtpx:TrackPointExtension xmlns:gpxtpx="http://www.garmin.com/xmlschemas/TrackPointExtension/v1">
            <gpxtpx:hr>85</gpxtpx:hr>
          </gpxtpx:TrackPointExtension>
        </extensions>
      </trkpt>
      <trkpt lat="43.538" lon="1.43321">
        <ele>95.800003051758</ele>
        <time>2020-06-10T13:31:40.000Z</time>
        <extensions>
          <gpxtpx:TrackPointExtension xmlns:gpxtpx="http://www.garmin.com/xmlschemas/TrackPointExtension/v1">
            <gpxtpx:hr>84</gpxtpx:hr>
          </gpxtpx:TrackPointExtension>
        </extensions>
      </trkpt>
      <trkpt lat="43.53795" lon="1.43317">
        <ele>96</ele>
        <time>2020-06-10T13:31:42.000Z</time>
        <extensions>
          <gpxtpx:TrackPointExtension xmlns:gpxtpx="http://www.garmin.com/xmlschemas/TrackPointExtension/v1">
            <gpxtpx:hr>83</gpxtpx:hr>
          </gpxtpx:TrackPointExtension>
        </extensions>
      </trkpt>
      <trkpt lat="43.5379" lon="1.43315">
        <ele>96.199996948242</ele>
        <time>2020-06-10T13:31:44.000Z</time>
        <extensions>
          <gpxtpx:TrackPointExtension xmlns:gpxtpx="http://www.garmin.com/xmlschemas/TrackPointExtension/v1">
            <gpxtpx:hr>83</gpxtpx:hr>
          </gpxtpx:TrackPointExtension>
        </extensions>
      </trkpt>
      <trkpt lat="43.53787" lon="1.43313">
        <ele>96.199996948242</ele>
        <time>2020-06-10T13:31:45.000Z</time>
        <extensions>
          <gpxtpx:TrackPointExtension xmlns:gpxtpx="http://www.garmin.com/xmlschemas/TrackPointExtension/v1">
            <gpxtpx:hr>83</gpxtpx:hr>
          </gpxtpx:TrackPointExtension>
        </extensions>
      </trkpt>
      <trkpt lat="43.53785" lon="1.43312">
        <ele>96.400001525879</ele>
        <time>2020-06-10T13:31:46.000Z</time>
        <extensions>
          <gpxtpx:TrackPointExtension xmlns:gpxtpx="http://www.garmin.com/xmlschemas/TrackPointExtension/v1">
            <gpxtpx:hr>83</gpxtpx:hr>
          </gpxtpx:TrackPointExtension>
        </extensions>
      </trkpt>
      <trkpt lat="43.53779" lon="1.4331">
        <ele>96.599998474121</ele>
        <time>2020-06-10T13:31:48.000Z</time>
        <extensions>
          <gpxtpx:TrackPointExtension xmlns:gpxtpx="http://www.garmin.com/xmlschemas/TrackPointExtension/v1">
            <gpxtpx:hr>84</gpxtpx:hr>
          </gpxtpx:TrackPointExtension>
        </extensions>
      </trkpt>
      <trkpt lat="43.53774" lon="1.43308">
        <ele>96.599998474121</ele>
        <time>2020-06-10T13:31:50.000Z</time>
        <extensions>
          <gpxtpx:TrackPointExtension xmlns:gpxtpx="http://www.garmin.com/xmlschemas/TrackPointExtension/v1">
            <gpxtpx:hr>85</gpxtpx:hr>
          </gpxtpx:TrackPointExtension>
        </extensions>
      </trkpt>
      <trkpt lat="43.53768" lon="1.43306">
        <ele>96.800003051758</ele>
        <time>2020-06-10T13:31:52.000Z</time>
        <extensions>
          <gpxtpx:TrackPointExtension xmlns:gpxtpx="http://www.garmin.com/xmlschemas/TrackPointExtension/v1">
            <gpxtpx:hr>85</gpxtpx:hr>
          </gpxtpx:TrackPointExtension>
        </extensions>
      </trkpt>
      <trkpt lat="43.53763" lon="1.43304">
        <ele>96.800003051758</ele>
        <time>2020-06-10T13:31:54.000Z</time>
        <extensions>
          <gpxtpx:TrackPointExtension xmlns:gpxtpx="http://www.garmin.com/xmlschemas/TrackPointExtension/v1">
            <gpxtpx:hr>84</gpxtpx:hr>
          </gpxtpx:TrackPointExtension>
        </extensions>
      </trkpt>
      <trkpt lat="43.53757" lon="1.43301">
        <ele>97</ele>
        <time>2020-06-10T13:31:56.000Z</time>
        <extensions>
          <gpxtpx:TrackPointExtension xmlns:gpxtpx="http://www.garmin.com/xmlschemas/TrackPointExtension/v1">
            <gpxtpx:hr>84</gpxtpx:hr>
          </gpxtpx:TrackPointExtension>
        </extensions>
      </trkpt>
      <trkpt lat="43.53752" lon="1.43299">
        <ele>97</ele>
        <time>2020-06-10T13:31:58.000Z</time>
        <extensions>
          <gpxtpx:TrackPointExtension xmlns:gpxtpx="http://www.garmin.com/xmlschemas/TrackPointExtension/v1">
            <gpxtpx:hr>83</gpxtpx:hr>
          </gpxtpx:TrackPointExtension>
        </extensions>
      </trkpt>
      <trkpt lat="43.53746" lon="1.43297">
        <ele>97</ele>
        <time>2020-06-10T13:32:00.000Z</time>
        <extensions>
          <gpxtpx:TrackPointExtension xmlns:gpxtpx="http://www.garmin.com/xmlschemas/TrackPointExtension/v1">
            <gpxtpx:hr>83</gpxtpx:hr>
          </gpxtpx:TrackPointExtension>
        </extensions>
      </trkpt>
      <trkpt lat="43.5374" lon="1.43296">
        <ele>97.199996948242</ele>
        <time>2020-06-10T13:32:02.000Z</time>
        <extensions>
          <gpxtpx:TrackPointExtension xmlns:gpxtpx="http://www.garmin.com/xmlschemas/TrackPointExtension/v1">
            <gpxtpx:hr>83</gpxtpx:hr>
          </gpxtpx:TrackPointExtension>
        </extensions>
      </trkpt>
      <trkpt lat="43.53735" lon="1.43294">
        <ele>97.400001525879</ele>
        <time>2020-06-10T13:32:04.000Z</time>
        <extensions>
          <gpxtpx:TrackPointExtension xmlns:gpxtpx="http://www.garmin.com/xmlschemas/TrackPointExtension/v1">
            <gpxtpx:hr>83</gpxtpx:hr>
          </gpxtpx:TrackPointExtension>
        </extensions>
      </trkpt>
      <trkpt lat="43.53732" lon="1.43293">
        <ele>97.599998474121</ele>
        <time>2020-06-10T13:32:05.000Z</time>
        <extensions>
          <gpxtpx:TrackPointExtension xmlns:gpxtpx="http://www.garmin.com/xmlschemas/TrackPointExtension/v1">
            <gpxtpx:hr>83</gpxtpx:hr>
          </gpxtpx:TrackPointExtension>
        </extensions>
      </trkpt>
      <trkpt lat="43.53729" lon="1.43292">
        <ele>97.599998474121</ele>
        <time>2020-06-10T13:32:06.000Z</time>
        <extensions>
          <gpxtpx:TrackPointExtension xmlns:gpxtpx="http://www.garmin.com/xmlschemas/TrackPointExtension/v1">
            <gpxtpx:hr>83</gpxtpx:hr>
          </gpxtpx:TrackPointExtension>
        </extensions>
      </trkpt>
      <trkpt lat="43.53722" lon="1.4329">
        <ele>97.599998474121</ele>
        <time>2020-06-10T13:32:08.000Z</time>
        <extensions>
          <gpxtpx:TrackPointExtension xmlns:gpxtpx="http://www.garmin.com/xmlschemas/TrackPointExtension/v1">
            <gpxtpx:hr>83</gpxtpx:hr>
          </gpxtpx:TrackPointExtension>
        </extensions>
      </trkpt>
      <trkpt lat="43.53715" lon="1.4329">
        <ele>97.599998474121</ele>
        <time>2020-06-10T13:32:10.000Z</time>
        <extensions>
          <gpxtpx:TrackPointExtension xmlns:gpxtpx="http://www.garmin.com/xmlschemas/TrackPointExtension/v1">
            <gpxtpx:hr>84</gpxtpx:hr>
          </gpxtpx:TrackPointExtension>
        </extensions>
      </trkpt>
      <trkpt lat="43.53708" lon="1.43288">
        <ele>97.599998474121</ele>
        <time>2020-06-10T13:32:12.000Z</time>
        <extensions>
          <gpxtpx:TrackPointExtension xmlns:gpxtpx="http://www.garmin.com/xmlschemas/TrackPointExtension/v1">
            <gpxtpx:hr>85</gpxtpx:hr>
          </gpxtpx:TrackPointExtension>
        </extensions>
      </trkpt>
      <trkpt lat="43.53701" lon="1.43288">
        <ele>97.599998474121</ele>
        <time>2020-06-10T13:32:14.000Z</time>
        <extensions>
          <gpxtpx:TrackPointExtension xmlns:gpxtpx="http://www.garmin.com/xmlschemas/TrackPointExtension/v1">
            <gpxtpx:hr>84</gpxtpx:hr>
          </gpxtpx:TrackPointExtension>
        </extensions>
      </trkpt>
      <trkpt lat="43.53694" lon="1.43287">
        <ele>97.599998474121</ele>
        <time>2020-06-10T13:32:16.000Z</time>
        <extensions>
          <gpxtpx:TrackPointExtension xmlns:gpxtpx="http://www.garmin.com/xmlschemas/TrackPointExtension/v1">
            <gpxtpx:hr>83</gpxtpx:hr>
          </gpxtpx:TrackPointExtension>
        </extensions>
      </trkpt>
      <trkpt lat="43.53687" lon="1.43287">
        <ele>97.599998474121</ele>
        <time>2020-06-10T13:32:18.000Z</time>
        <extensions>
          <gpxtpx:TrackPointExtension xmlns:gpxtpx="http://www.garmin.com/xmlschemas/TrackPointExtension/v1">
            <gpxtpx:hr>82</gpxtpx:hr>
          </gpxtpx:TrackPointExtension>
        </extensions>
      </trkpt>
      <trkpt lat="43.53679" lon="1.43286">
        <ele>97.599998474121</ele>
        <time>2020-06-10T13:32:20.000Z</time>
        <extensions>
          <gpxtpx:TrackPointExtension xmlns:gpxtpx="http://www.garmin.com/xmlschemas/TrackPointExtension/v1">
            <gpxtpx:hr>81</gpxtpx:hr>
          </gpxtpx:TrackPointExtension>
        </extensions>
      </trkpt>
      <trkpt lat="43.53672" lon="1.43285">
        <ele>97.800003051758</ele>
        <time>2020-06-10T13:32:22.000Z</time>
        <extensions>
          <gpxtpx:TrackPointExtension xmlns:gpxtpx="http://www.garmin.com/xmlschemas/TrackPointExtension/v1">
            <gpxtpx:hr>81</gpxtpx:hr>
          </gpxtpx:TrackPointExtension>
        </extensions>
      </trkpt>
      <trkpt lat="43.53664" lon="1.43284">
        <ele>97.800003051758</ele>
        <time>2020-06-10T13:32:24.000Z</time>
        <extensions>
          <gpxtpx:TrackPointExtension xmlns:gpxtpx="http://www.garmin.com/xmlschemas/TrackPointExtension/v1">
            <gpxtpx:hr>81</gpxtpx:hr>
          </gpxtpx:TrackPointExtension>
        </extensions>
      </trkpt>
      <trkpt lat="43.53656" lon="1.43283">
        <ele>98</ele>
        <time>2020-06-10T13:32:26.000Z</time>
        <extensions>
          <gpxtpx:TrackPointExtension xmlns:gpxtpx="http://www.garmin.com/xmlschemas/TrackPointExtension/v1">
            <gpxtpx:hr>80</gpxtpx:hr>
          </gpxtpx:TrackPointExtension>
        </extensions>
      </trkpt>
      <trkpt lat="43.53649" lon="1.43282">
        <ele>98</ele>
        <time>2020-06-10T13:32:28.000Z</time>
        <extensions>
          <gpxtpx:TrackPointExtension xmlns:gpxtpx="http://www.garmin.com/xmlschemas/TrackPointExtension/v1">
            <gpxtpx:hr>79</gpxtpx:hr>
          </gpxtpx:TrackPointExtension>
        </extensions>
      </trkpt>
      <trkpt lat="43.53641" lon="1.4328">
        <ele>98</ele>
        <time>2020-06-10T13:32:30.000Z</time>
        <extensions>
          <gpxtpx:TrackPointExtension xmlns:gpxtpx="http://www.garmin.com/xmlschemas/TrackPointExtension/v1">
            <gpxtpx:hr>79</gpxtpx:hr>
          </gpxtpx:TrackPointExtension>
        </extensions>
      </trkpt>
      <trkpt lat="43.53633" lon="1.43277">
        <ele>98.400001525879</ele>
        <time>2020-06-10T13:32:32.000Z</time>
        <extensions>
          <gpxtpx:TrackPointExtension xmlns:gpxtpx="http://www.garmin.com/xmlschemas/TrackPointExtension/v1">
            <gpxtpx:hr>78</gpxtpx:hr>
          </gpxtpx:TrackPointExtension>
        </extensions>
      </trkpt>
      <trkpt lat="43.53626" lon="1.43274">
        <ele>98.400001525879</ele>
        <time>2020-06-10T13:32:34.000Z</time>
        <extensions>
          <gpxtpx:TrackPointExtension xmlns:gpxtpx="http://www.garmin.com/xmlschemas/TrackPointExtension/v1">
            <gpxtpx:hr>77</gpxtpx:hr>
          </gpxtpx:TrackPointExtension>
        </extensions>
      </trkpt>
      <trkpt lat="43.53622" lon="1.43272">
        <ele>98.599998474121</ele>
        <time>2020-06-10T13:32:35.000Z</time>
        <extensions>
          <gpxtpx:TrackPointExtension xmlns:gpxtpx="http://www.garmin.com/xmlschemas/TrackPointExtension/v1">
            <gpxtpx:hr>77</gpxtpx:hr>
          </gpxtpx:TrackPointExtension>
        </extensions>
      </trkpt>
      <trkpt lat="43.53619" lon="1.43271">
        <ele>98.599998474121</ele>
        <time>2020-06-10T13:32:36.000Z</time>
        <extensions>
          <gpxtpx:TrackPointExtension xmlns:gpxtpx="http://www.garmin.com/xmlschemas/TrackPointExtension/v1">
            <gpxtpx:hr>77</gpxtpx:hr>
          </gpxtpx:TrackPointExtension>
        </extensions>
      </trkpt>
      <trkpt lat="43.53612" lon="1.43267">
        <ele>98.800003051758</ele>
        <time>2020-06-10T13:32:38.000Z</time>
        <extensions>
          <gpxtpx:TrackPointExtension xmlns:gpxtpx="http://www.garmin.com/xmlschemas/TrackPointExtension/v1">
            <gpxtpx:hr>76</gpxtpx:hr>
          </gpxtpx:TrackPointExtension>
        </extensions>
      </trkpt>
      <trkpt lat="43.53605" lon="1.43263">
        <ele>98.800003051758</ele>
        <time>2020-06-10T13:32:40.000Z</time>
        <extensions>
          <gpxtpx:TrackPointExtension xmlns:gpxtpx="http://www.garmin.com/xmlschemas/TrackPointExtension/v1">
            <gpxtpx:hr>76</gpxtpx:hr>
          </gpxtpx:TrackPointExtension>
        </extensions>
      </trkpt>
      <trkpt lat="43.53598" lon="1.43259">
        <ele>98.800003051758</ele>
        <time>2020-06-10T13:32:42.000Z</time>
        <extensions>
          <gpxtpx:TrackPointExtension xmlns:gpxtpx="http://www.garmin.com/xmlschemas/TrackPointExtension/v1">
            <gpxtpx:hr>77</gpxtpx:hr>
          </gpxtpx:TrackPointExtension>
        </extensions>
      </trkpt>
      <trkpt lat="43.53592" lon="1.43254">
        <ele>99</ele>
        <time>2020-06-10T13:32:44.000Z</time>
        <extensions>
          <gpxtpx:TrackPointExtension xmlns:gpxtpx="http://www.garmin.com/xmlschemas/TrackPointExtension/v1">
            <gpxtpx:hr>77</gpxtpx:hr>
          </gpxtpx:TrackPointExtension>
        </extensions>
      </trkpt>
      <trkpt lat="43.53586" lon="1.4325">
        <ele>99</ele>
        <time>2020-06-10T13:32:46.000Z</time>
        <extensions>
          <gpxtpx:TrackPointExtension xmlns:gpxtpx="http://www.garmin.com/xmlschemas/TrackPointExtension/v1">
            <gpxtpx:hr>78</gpxtpx:hr>
          </gpxtpx:TrackPointExtension>
        </extensions>
      </trkpt>
      <trkpt lat="43.53579" lon="1.43245">
        <ele>99</ele>
        <time>2020-06-10T13:32:48.000Z</time>
        <extensions>
          <gpxtpx:TrackPointExtension xmlns:gpxtpx="http://www.garmin.com/xmlschemas/TrackPointExtension/v1">
            <gpxtpx:hr>79</gpxtpx:hr>
          </gpxtpx:TrackPointExtension>
        </extensions>
      </trkpt>
      <trkpt lat="43.53573" lon="1.4324">
        <ele>99</ele>
        <time>2020-06-10T13:32:50.000Z</time>
        <extensions>
          <gpxtpx:TrackPointExtension xmlns:gpxtpx="http://www.garmin.com/xmlschemas/TrackPointExtension/v1">
            <gpxtpx:hr>81</gpxtpx:hr>
          </gpxtpx:TrackPointExtension>
        </extensions>
      </trkpt>
      <trkpt lat="43.53566" lon="1.43236">
        <ele>99</ele>
        <time>2020-06-10T13:32:52.000Z</time>
        <extensions>
          <gpxtpx:TrackPointExtension xmlns:gpxtpx="http://www.garmin.com/xmlschemas/TrackPointExtension/v1">
            <gpxtpx:hr>82</gpxtpx:hr>
          </gpxtpx:TrackPointExtension>
        </extensions>
      </trkpt>
      <trkpt lat="43.5356" lon="1.43231">
        <ele>99.199996948242</ele>
        <time>2020-06-10T13:32:54.000Z</time>
        <extensions>
          <gpxtpx:TrackPointExtension xmlns:gpxtpx="http://www.garmin.com/xmlschemas/TrackPointExtension/v1">
            <gpxtpx:hr>84</gpxtpx:hr>
          </gpxtpx:TrackPointExtension>
        </extensions>
      </trkpt>
      <trkpt lat="43.53554" lon="1.43228">
        <ele>99.199996948242</ele>
        <time>2020-06-10T13:32:56.000Z</time>
        <extensions>
          <gpxtpx:TrackPointExtension xmlns:gpxtpx="http://www.garmin.com/xmlschemas/TrackPointExtension/v1">
            <gpxtpx:hr>89</gpxtpx:hr>
          </gpxtpx:TrackPointExtension>
        </extensions>
      </trkpt>
      <trkpt lat="43.53551" lon="1.43226">
        <ele>99.199996948242</ele>
        <time>2020-06-10T13:32:57.000Z</time>
        <extensions>
          <gpxtpx:TrackPointExtension xmlns:gpxtpx="http://www.garmin.com/xmlschemas/TrackPointExtension/v1">
            <gpxtpx:hr>94</gpxtpx:hr>
          </gpxtpx:TrackPointExtension>
        </extensions>
      </trkpt>
      <trkpt lat="43.53547" lon="1.43224">
        <ele>99.400001525879</ele>
        <time>2020-06-10T13:32:58.000Z</time>
        <extensions>
          <gpxtpx:TrackPointExtension xmlns:gpxtpx="http://www.garmin.com/xmlschemas/TrackPointExtension/v1">
            <gpxtpx:hr>94</gpxtpx:hr>
          </gpxtpx:TrackPointExtension>
        </extensions>
      </trkpt>
      <trkpt lat="43.53544" lon="1.43223">
        <ele>99.599998474121</ele>
        <time>2020-06-10T13:32:59.000Z</time>
        <extensions>
          <gpxtpx:TrackPointExtension xmlns:gpxtpx="http://www.garmin.com/xmlschemas/TrackPointExtension/v1">
            <gpxtpx:hr>94</gpxtpx:hr>
          </gpxtpx:TrackPointExtension>
        </extensions>
      </trkpt>
      <trkpt lat="43.53541" lon="1.43222">
        <ele>99.800003051758</ele>
        <time>2020-06-10T13:33:00.000Z</time>
        <extensions>
          <gpxtpx:TrackPointExtension xmlns:gpxtpx="http://www.garmin.com/xmlschemas/TrackPointExtension/v1">
            <gpxtpx:hr>94</gpxtpx:hr>
          </gpxtpx:TrackPointExtension>
        </extensions>
      </trkpt>
      <trkpt lat="43.53534" lon="1.4322">
        <ele>100.40000152588</ele>
        <time>2020-06-10T13:33:02.000Z</time>
      </trkpt>
      <trkpt lat="43.5353" lon="1.43219">
        <ele>100.59999847412</ele>
        <time>2020-06-10T13:33:03.000Z</time>
      </trkpt>
      <trkpt lat="43.53527" lon="1.43218">
        <ele>100.59999847412</ele>
        <time>2020-06-10T13:33:04.000Z</time>
      </trkpt>
      <trkpt lat="43.5352" lon="1.43216">
        <ele>100.80000305176</ele>
        <time>2020-06-10T13:33:06.000Z</time>
        <extensions>
          <gpxtpx:TrackPointExtension xmlns:gpxtpx="http://www.garmin.com/xmlschemas/TrackPointExtension/v1">
            <gpxtpx:hr>94</gpxtpx:hr>
          </gpxtpx:TrackPointExtension>
        </extensions>
      </trkpt>
      <trkpt lat="43.53512" lon="1.43215">
        <ele>101</ele>
        <time>2020-06-10T13:33:08.000Z</time>
        <extensions>
          <gpxtpx:TrackPointExtension xmlns:gpxtpx="http://www.garmin.com/xmlschemas/TrackPointExtension/v1">
            <gpxtpx:hr>93</gpxtpx:hr>
          </gpxtpx:TrackPointExtension>
        </extensions>
      </trkpt>
      <trkpt lat="43.53506" lon="1.43214">
        <ele>101.19999694824</ele>
        <time>2020-06-10T13:33:10.000Z</time>
        <extensions>
          <gpxtpx:TrackPointExtension xmlns:gpxtpx="http://www.garmin.com/xmlschemas/TrackPointExtension/v1">
            <gpxtpx:hr>92</gpxtpx:hr>
          </gpxtpx:TrackPointExtension>
        </extensions>
      </trkpt>
      <trkpt lat="43.53498" lon="1.43213">
        <ele>101.19999694824</ele>
        <time>2020-06-10T13:33:12.000Z</time>
        <extensions>
          <gpxtpx:TrackPointExtension xmlns:gpxtpx="http://www.garmin.com/xmlschemas/TrackPointExtension/v1">
            <gpxtpx:hr>89</gpxtpx:hr>
          </gpxtpx:TrackPointExtension>
        </extensions>
      </trkpt>
      <trkpt lat="43.53491" lon="1.43211">
        <ele>101.19999694824</ele>
        <time>2020-06-10T13:33:14.000Z</time>
        <extensions>
          <gpxtpx:TrackPointExtension xmlns:gpxtpx="http://www.garmin.com/xmlschemas/TrackPointExtension/v1">
            <gpxtpx:hr>87</gpxtpx:hr>
          </gpxtpx:TrackPointExtension>
        </extensions>
      </trkpt>
      <trkpt lat="43.53485" lon="1.43209">
        <ele>101.19999694824</ele>
        <time>2020-06-10T13:33:16.000Z</time>
        <extensions>
          <gpxtpx:TrackPointExtension xmlns:gpxtpx="http://www.garmin.com/xmlschemas/TrackPointExtension/v1">
            <gpxtpx:hr>88</gpxtpx:hr>
          </gpxtpx:TrackPointExtension>
        </extensions>
      </trkpt>
      <trkpt lat="43.53482" lon="1.43208">
        <ele>101.40000152588</ele>
        <time>2020-06-10T13:33:17.000Z</time>
        <extensions>
          <gpxtpx:TrackPointExtension xmlns:gpxtpx="http://www.garmin.com/xmlschemas/TrackPointExtension/v1">
            <gpxtpx:hr>91</gpxtpx:hr>
          </gpxtpx:TrackPointExtension>
        </extensions>
      </trkpt>
      <trkpt lat="43.53478" lon="1.43207">
        <ele>101.40000152588</ele>
        <time>2020-06-10T13:33:18.000Z</time>
        <extensions>
          <gpxtpx:TrackPointExtension xmlns:gpxtpx="http://www.garmin.com/xmlschemas/TrackPointExtension/v1">
            <gpxtpx:hr>92</gpxtpx:hr>
          </gpxtpx:TrackPointExtension>
        </extensions>
      </trkpt>
      <trkpt lat="43.53472" lon="1.43204">
        <ele>101.40000152588</ele>
        <time>2020-06-10T13:33:20.000Z</time>
        <extensions>
          <gpxtpx:TrackPointExtension xmlns:gpxtpx="http://www.garmin.com/xmlschemas/TrackPointExtension/v1">
            <gpxtpx:hr>94</gpxtpx:hr>
          </gpxtpx:TrackPointExtension>
        </extensions>
      </trkpt>
      <trkpt lat="43.53465" lon="1.43201">
        <ele>101.59999847412</ele>
        <time>2020-06-10T13:33:22.000Z</time>
        <extensions>
          <gpxtpx:TrackPointExtension xmlns:gpxtpx="http://www.garmin.com/xmlschemas/TrackPointExtension/v1">
            <gpxtpx:hr>95</gpxtpx:hr>
          </gpxtpx:TrackPointExtension>
        </extensions>
      </trkpt>
      <trkpt lat="43.53462" lon="1.43199">
        <ele>101.59999847412</ele>
        <time>2020-06-10T13:33:23.000Z</time>
        <extensions>
          <gpxtpx:TrackPointExtension xmlns:gpxtpx="http://www.garmin.com/xmlschemas/TrackPointExtension/v1">
            <gpxtpx:hr>95</gpxtpx:hr>
          </gpxtpx:TrackPointExtension>
        </extensions>
      </trkpt>
      <trkpt lat="43.53459" lon="1.43197">
        <ele>101.59999847412</ele>
        <time>2020-06-10T13:33:24.000Z</time>
        <extensions>
          <gpxtpx:TrackPointExtension xmlns:gpxtpx="http://www.garmin.com/xmlschemas/TrackPointExtension/v1">
            <gpxtpx:hr>95</gpxtpx:hr>
          </gpxtpx:TrackPointExtension>
        </extensions>
      </trkpt>
      <trkpt lat="43.53455" lon="1.43195">
        <ele>101.80000305176</ele>
        <time>2020-06-10T13:33:25.000Z</time>
        <extensions>
          <gpxtpx:TrackPointExtension xmlns:gpxtpx="http://www.garmin.com/xmlschemas/TrackPointExtension/v1">
            <gpxtpx:hr>95</gpxtpx:hr>
          </gpxtpx:TrackPointExtension>
        </extensions>
      </trkpt>
      <trkpt lat="43.53449" lon="1.43191">
        <ele>101.80000305176</ele>
        <time>2020-06-10T13:33:27.000Z</time>
      </trkpt>
      <trkpt lat="43.53426" lon="1.43176">
        <ele>102.59999847412</ele>
        <time>2020-06-10T13:33:34.000Z</time>
        <extensions>
          <gpxtpx:TrackPointExtension xmlns:gpxtpx="http://www.garmin.com/xmlschemas/TrackPointExtension/v1">
            <gpxtpx:hr>91</gpxtpx:hr>
          </gpxtpx:TrackPointExtension>
        </extensions>
      </trkpt>
      <trkpt lat="43.5342" lon="1.43172">
        <ele>102.80000305176</ele>
        <time>2020-06-10T13:33:36.000Z</time>
        <extensions>
          <gpxtpx:TrackPointExtension xmlns:gpxtpx="http://www.garmin.com/xmlschemas/TrackPointExtension/v1">
            <gpxtpx:hr>89</gpxtpx:hr>
          </gpxtpx:TrackPointExtension>
        </extensions>
      </trkpt>
      <trkpt lat="43.53411" lon="1.43164">
        <ele>102.80000305176</ele>
        <time>2020-06-10T13:33:39.000Z</time>
        <extensions>
          <gpxtpx:TrackPointExtension xmlns:gpxtpx="http://www.garmin.com/xmlschemas/TrackPointExtension/v1">
            <gpxtpx:hr>86</gpxtpx:hr>
          </gpxtpx:TrackPointExtension>
        </extensions>
      </trkpt>
      <trkpt lat="43.53389" lon="1.43147">
        <ele>102.80000305176</ele>
        <time>2020-06-10T13:33:45.000Z</time>
        <extensions>
          <gpxtpx:TrackPointExtension xmlns:gpxtpx="http://www.garmin.com/xmlschemas/TrackPointExtension/v1">
            <gpxtpx:hr>83</gpxtpx:hr>
          </gpxtpx:TrackPointExtension>
        </extensions>
      </trkpt>
      <trkpt lat="43.53379" lon="1.43138">
        <ele>102.80000305176</ele>
        <time>2020-06-10T13:33:48.000Z</time>
        <extensions>
          <gpxtpx:TrackPointExtension xmlns:gpxtpx="http://www.garmin.com/xmlschemas/TrackPointExtension/v1">
            <gpxtpx:hr>79</gpxtpx:hr>
          </gpxtpx:TrackPointExtension>
        </extensions>
      </trkpt>
      <trkpt lat="43.53367" lon="1.43128">
        <ele>102.59999847412</ele>
        <time>2020-06-10T13:33:51.000Z</time>
        <extensions>
          <gpxtpx:TrackPointExtension xmlns:gpxtpx="http://www.garmin.com/xmlschemas/TrackPointExtension/v1">
            <gpxtpx:hr>76</gpxtpx:hr>
          </gpxtpx:TrackPointExtension>
        </extensions>
      </trkpt>
      <trkpt lat="43.53364" lon="1.43125">
        <ele>102.59999847412</ele>
        <time>2020-06-10T13:33:52.000Z</time>
        <extensions>
          <gpxtpx:TrackPointExtension xmlns:gpxtpx="http://www.garmin.com/xmlschemas/TrackPointExtension/v1">
            <gpxtpx:hr>75</gpxtpx:hr>
          </gpxtpx:TrackPointExtension>
        </extensions>
      </trkpt>
      <trkpt lat="43.53338" lon="1.43106">
        <ele>102</ele>
        <time>2020-06-10T13:33:59.000Z</time>
        <extensions>
          <gpxtpx:TrackPointExtension xmlns:gpxtpx="http://www.garmin.com/xmlschemas/TrackPointExtension/v1">
            <gpxtpx:hr>72</gpxtpx:hr>
          </gpxtpx:TrackPointExtension>
        </extensions>
      </trkpt>
      <trkpt lat="43.53329" lon="1.43099">
        <ele>101.80000305176</ele>
        <time>2020-06-10T13:34:02.000Z</time>
        <extensions>
          <gpxtpx:TrackPointExtension xmlns:gpxtpx="http://www.garmin.com/xmlschemas/TrackPointExtension/v1">
            <gpxtpx:hr>72</gpxtpx:hr>
          </gpxtpx:TrackPointExtension>
        </extensions>
      </trkpt>
      <trkpt lat="43.53322" lon="1.43095">
        <ele>101.80000305176</ele>
        <time>2020-06-10T13:34:04.000Z</time>
        <extensions>
          <gpxtpx:TrackPointExtension xmlns:gpxtpx="http://www.garmin.com/xmlschemas/TrackPointExtension/v1">
            <gpxtpx:hr>73</gpxtpx:hr>
          </gpxtpx:TrackPointExtension>
        </extensions>
      </trkpt>
      <trkpt lat="43.53315" lon="1.4309">
        <ele>101.80000305176</ele>
        <time>2020-06-10T13:34:06.000Z</time>
        <extensions>
          <gpxtpx:TrackPointExtension xmlns:gpxtpx="http://www.garmin.com/xmlschemas/TrackPointExtension/v1">
            <gpxtpx:hr>73</gpxtpx:hr>
          </gpxtpx:TrackPointExtension>
        </extensions>
      </trkpt>
      <trkpt lat="43.53295" lon="1.43077">
        <ele>101.80000305176</ele>
        <time>2020-06-10T13:34:11.000Z</time>
        <extensions>
          <gpxtpx:TrackPointExtension xmlns:gpxtpx="http://www.garmin.com/xmlschemas/TrackPointExtension/v1">
            <gpxtpx:hr>74</gpxtpx:hr>
          </gpxtpx:TrackPointExtension>
        </extensions>
      </trkpt>
      <trkpt lat="43.5327" lon="1.43065">
        <ele>101.80000305176</ele>
        <time>2020-06-10T13:34:17.000Z</time>
        <extensions>
          <gpxtpx:TrackPointExtension xmlns:gpxtpx="http://www.garmin.com/xmlschemas/TrackPointExtension/v1">
            <gpxtpx:hr>73</gpxtpx:hr>
          </gpxtpx:TrackPointExtension>
        </extensions>
      </trkpt>
      <trkpt lat="43.53223" lon="1.43041">
        <ele>101.80000305176</ele>
        <time>2020-06-10T13:34:29.000Z</time>
        <extensions>
          <gpxtpx:TrackPointExtension xmlns:gpxtpx="http://www.garmin.com/xmlschemas/TrackPointExtension/v1">
            <gpxtpx:hr>72</gpxtpx:hr>
          </gpxtpx:TrackPointExtension>
        </extensions>
      </trkpt>
      <trkpt lat="43.53201" lon="1.43032">
        <ele>102</ele>
        <time>2020-06-10T13:34:34.000Z</time>
        <extensions>
          <gpxtpx:TrackPointExtension xmlns:gpxtpx="http://www.garmin.com/xmlschemas/TrackPointExtension/v1">
            <gpxtpx:hr>69</gpxtpx:hr>
          </gpxtpx:TrackPointExtension>
        </extensions>
      </trkpt>
      <trkpt lat="43.5318" lon="1.43023">
        <ele>101.80000305176</ele>
        <time>2020-06-10T13:34:38.000Z</time>
        <extensions>
          <gpxtpx:TrackPointExtension xmlns:gpxtpx="http://www.garmin.com/xmlschemas/TrackPointExtension/v1">
            <gpxtpx:hr>66</gpxtpx:hr>
          </gpxtpx:TrackPointExtension>
        </extensions>
      </trkpt>
      <trkpt lat="43.53133" lon="1.43004">
        <ele>101</ele>
        <time>2020-06-10T13:34:45.000Z</time>
        <extensions>
          <gpxtpx:TrackPointExtension xmlns:gpxtpx="http://www.garmin.com/xmlschemas/TrackPointExtension/v1">
            <gpxtpx:hr>65</gpxtpx:hr>
          </gpxtpx:TrackPointExtension>
        </extensions>
      </trkpt>
      <trkpt lat="43.53125" lon="1.43">
        <ele>100.59999847412</ele>
        <time>2020-06-10T13:34:46.000Z</time>
        <extensions>
          <gpxtpx:TrackPointExtension xmlns:gpxtpx="http://www.garmin.com/xmlschemas/TrackPointExtension/v1">
            <gpxtpx:hr>65</gpxtpx:hr>
          </gpxtpx:TrackPointExtension>
        </extensions>
      </trkpt>
      <trkpt lat="43.53109" lon="1.42991">
        <ele>99.199996948242</ele>
        <time>2020-06-10T13:34:48.000Z</time>
        <extensions>
          <gpxtpx:TrackPointExtension xmlns:gpxtpx="http://www.garmin.com/xmlschemas/TrackPointExtension/v1">
            <gpxtpx:hr>65</gpxtpx:hr>
          </gpxtpx:TrackPointExtension>
        </extensions>
      </trkpt>
      <trkpt lat="43.53092" lon="1.42979">
        <ele>97.800003051758</ele>
        <time>2020-06-10T13:34:50.000Z</time>
        <extensions>
          <gpxtpx:TrackPointExtension xmlns:gpxtpx="http://www.garmin.com/xmlschemas/TrackPointExtension/v1">
            <gpxtpx:hr>65</gpxtpx:hr>
          </gpxtpx:TrackPointExtension>
        </extensions>
      </trkpt>
      <trkpt lat="43.53075" lon="1.42968">
        <ele>96.400001525879</ele>
        <time>2020-06-10T13:34:52.000Z</time>
        <extensions>
          <gpxtpx:TrackPointExtension xmlns:gpxtpx="http://www.garmin.com/xmlschemas/TrackPointExtension/v1">
            <gpxtpx:hr>64</gpxtpx:hr>
          </gpxtpx:TrackPointExtension>
        </extensions>
      </trkpt>
      <trkpt lat="43.53058" lon="1.42955">
        <ele>94.800003051758</ele>
        <time>2020-06-10T13:34:54.000Z</time>
        <extensions>
          <gpxtpx:TrackPointExtension xmlns:gpxtpx="http://www.garmin.com/xmlschemas/TrackPointExtension/v1">
            <gpxtpx:hr>64</gpxtpx:hr>
          </gpxtpx:TrackPointExtension>
        </extensions>
      </trkpt>
      <trkpt lat="43.5304" lon="1.42943">
        <ele>93.199996948242</ele>
        <time>2020-06-10T13:34:56.000Z</time>
        <extensions>
          <gpxtpx:TrackPointExtension xmlns:gpxtpx="http://www.garmin.com/xmlschemas/TrackPointExtension/v1">
            <gpxtpx:hr>63</gpxtpx:hr>
          </gpxtpx:TrackPointExtension>
        </extensions>
      </trkpt>
      <trkpt lat="43.53024" lon="1.42932">
        <ele>91.800003051758</ele>
        <time>2020-06-10T13:34:58.000Z</time>
        <extensions>
          <gpxtpx:TrackPointExtension xmlns:gpxtpx="http://www.garmin.com/xmlschemas/TrackPointExtension/v1">
            <gpxtpx:hr>63</gpxtpx:hr>
          </gpxtpx:TrackPointExtension>
        </extensions>
      </trkpt>
      <trkpt lat="43.53008" lon="1.42923">
        <ele>90.199996948242</ele>
        <time>2020-06-10T13:35:00.000Z</time>
        <extensions>
          <gpxtpx:TrackPointExtension xmlns:gpxtpx="http://www.garmin.com/xmlschemas/TrackPointExtension/v1">
            <gpxtpx:hr>63</gpxtpx:hr>
          </gpxtpx:TrackPointExtension>
        </extensions>
      </trkpt>
      <trkpt lat="43.53" lon="1.4292">
        <ele>89.800003051758</ele>
        <time>2020-06-10T13:35:01.000Z</time>
        <extensions>
          <gpxtpx:TrackPointExtension xmlns:gpxtpx="http://www.garmin.com/xmlschemas/TrackPointExtension/v1">
            <gpxtpx:hr>63</gpxtpx:hr>
          </gpxtpx:TrackPointExtension>
        </extensions>
      </trkpt>
      <trkpt lat="43.52984" lon="1.42916">
        <ele>89.199996948242</ele>
        <time>2020-06-10T13:35:03.000Z</time>
        <extensions>
          <gpxtpx:TrackPointExtension xmlns:gpxtpx="http://www.garmin.com/xmlschemas/TrackPointExtension/v1">
            <gpxtpx:hr>63</gpxtpx:hr>
          </gpxtpx:TrackPointExtension>
        </extensions>
      </trkpt>
      <trkpt lat="43.52921" lon="1.42904">
        <ele>88.800003051758</ele>
        <time>2020-06-10T13:35:12.000Z</time>
        <extensions>
          <gpxtpx:TrackPointExtension xmlns:gpxtpx="http://www.garmin.com/xmlschemas/TrackPointExtension/v1">
            <gpxtpx:hr>61</gpxtpx:hr>
          </gpxtpx:TrackPointExtension>
        </extensions>
      </trkpt>
      <trkpt lat="43.52882" lon="1.42894">
        <ele>89.400001525879</ele>
        <time>2020-06-10T13:35:19.000Z</time>
        <extensions>
          <gpxtpx:TrackPointExtension xmlns:gpxtpx="http://www.garmin.com/xmlschemas/TrackPointExtension/v1">
            <gpxtpx:hr>64</gpxtpx:hr>
          </gpxtpx:TrackPointExtension>
        </extensions>
      </trkpt>
      <trkpt lat="43.52861" lon="1.4289">
        <ele>90.199996948242</ele>
        <time>2020-06-10T13:35:23.000Z</time>
        <extensions>
          <gpxtpx:TrackPointExtension xmlns:gpxtpx="http://www.garmin.com/xmlschemas/TrackPointExtension/v1">
            <gpxtpx:hr>66</gpxtpx:hr>
          </gpxtpx:TrackPointExtension>
        </extensions>
      </trkpt>
      <trkpt lat="43.52856" lon="1.42889">
        <ele>90.400001525879</ele>
        <time>2020-06-10T13:35:24.000Z</time>
        <extensions>
          <gpxtpx:TrackPointExtension xmlns:gpxtpx="http://www.garmin.com/xmlschemas/TrackPointExtension/v1">
            <gpxtpx:hr>66</gpxtpx:hr>
          </gpxtpx:TrackPointExtension>
        </extensions>
      </trkpt>
      <trkpt lat="43.52833" lon="1.42883">
        <ele>90.599998474121</ele>
        <time>2020-06-10T13:35:29.000Z</time>
        <extensions>
          <gpxtpx:TrackPointExtension xmlns:gpxtpx="http://www.garmin.com/xmlschemas/TrackPointExtension/v1">
            <gpxtpx:hr>68</gpxtpx:hr>
          </gpxtpx:TrackPointExtension>
        </extensions>
      </trkpt>
      <trkpt lat="43.52788" lon="1.42871">
        <ele>90.800003051758</ele>
        <time>2020-06-10T13:35:38.000Z</time>
        <extensions>
          <gpxtpx:TrackPointExtension xmlns:gpxtpx="http://www.garmin.com/xmlschemas/TrackPointExtension/v1">
            <gpxtpx:hr>71</gpxtpx:hr>
          </gpxtpx:TrackPointExtension>
        </extensions>
      </trkpt>
      <trkpt lat="43.52762" lon="1.42863">
        <ele>90.800003051758</ele>
        <time>2020-06-10T13:35:43.000Z</time>
        <extensions>
          <gpxtpx:TrackPointExtension xmlns:gpxtpx="http://www.garmin.com/xmlschemas/TrackPointExtension/v1">
            <gpxtpx:hr>74</gpxtpx:hr>
          </gpxtpx:TrackPointExtension>
        </extensions>
      </trkpt>
      <trkpt lat="43.52742" lon="1.42857">
        <ele>91</ele>
        <time>2020-06-10T13:35:47.000Z</time>
        <extensions>
          <gpxtpx:TrackPointExtension xmlns:gpxtpx="http://www.garmin.com/xmlschemas/TrackPointExtension/v1">
            <gpxtpx:hr>77</gpxtpx:hr>
          </gpxtpx:TrackPointExtension>
        </extensions>
      </trkpt>
      <trkpt lat="43.52716" lon="1.42849">
        <ele>91.400001525879</ele>
        <time>2020-06-10T13:35:53.000Z</time>
        <extensions>
          <gpxtpx:TrackPointExtension xmlns:gpxtpx="http://www.garmin.com/xmlschemas/TrackPointExtension/v1">
            <gpxtpx:hr>78</gpxtpx:hr>
          </gpxtpx:TrackPointExtension>
        </extensions>
      </trkpt>
      <trkpt lat="43.52701" lon="1.42844">
        <ele>92</ele>
        <time>2020-06-10T13:35:57.000Z</time>
        <extensions>
          <gpxtpx:TrackPointExtension xmlns:gpxtpx="http://www.garmin.com/xmlschemas/TrackPointExtension/v1">
            <gpxtpx:hr>81</gpxtpx:hr>
          </gpxtpx:TrackPointExtension>
        </extensions>
      </trkpt>
      <trkpt lat="43.52694" lon="1.42841">
        <ele>92.599998474121</ele>
        <time>2020-06-10T13:35:59.000Z</time>
        <extensions>
          <gpxtpx:TrackPointExtension xmlns:gpxtpx="http://www.garmin.com/xmlschemas/TrackPointExtension/v1">
            <gpxtpx:hr>85</gpxtpx:hr>
          </gpxtpx:TrackPointExtension>
        </extensions>
      </trkpt>
      <trkpt lat="43.5267" lon="1.42834">
        <ele>93.599998474121</ele>
        <time>2020-06-10T13:36:05.000Z</time>
        <extensions>
          <gpxtpx:TrackPointExtension xmlns:gpxtpx="http://www.garmin.com/xmlschemas/TrackPointExtension/v1">
            <gpxtpx:hr>86</gpxtpx:hr>
          </gpxtpx:TrackPointExtension>
        </extensions>
      </trkpt>
      <trkpt lat="43.52636" lon="1.42818">
        <ele>94.199996948242</ele>
        <time>2020-06-10T13:36:14.000Z</time>
        <extensions>
          <gpxtpx:TrackPointExtension xmlns:gpxtpx="http://www.garmin.com/xmlschemas/TrackPointExtension/v1">
            <gpxtpx:hr>84</gpxtpx:hr>
          </gpxtpx:TrackPointExtension>
        </extensions>
      </trkpt>
      <trkpt lat="43.5262" lon="1.42799">
        <ele>94.400001525879</ele>
        <time>2020-06-10T13:36:19.000Z</time>
        <extensions>
          <gpxtpx:TrackPointExtension xmlns:gpxtpx="http://www.garmin.com/xmlschemas/TrackPointExtension/v1">
            <gpxtpx:hr>81</gpxtpx:hr>
          </gpxtpx:TrackPointExtension>
        </extensions>
      </trkpt>
      <trkpt lat="43.52584" lon="1.42752">
        <ele>93</ele>
        <time>2020-06-10T13:36:29.000Z</time>
        <extensions>
          <gpxtpx:TrackPointExtension xmlns:gpxtpx="http://www.garmin.com/xmlschemas/TrackPointExtension/v1">
            <gpxtpx:hr>78</gpxtpx:hr>
          </gpxtpx:TrackPointExtension>
        </extensions>
      </trkpt>
      <trkpt lat="43.52576" lon="1.42741">
        <ele>92.199996948242</ele>
        <time>2020-06-10T13:36:31.000Z</time>
        <extensions>
          <gpxtpx:TrackPointExtension xmlns:gpxtpx="http://www.garmin.com/xmlschemas/TrackPointExtension/v1">
            <gpxtpx:hr>77</gpxtpx:hr>
          </gpxtpx:TrackPointExtension>
        </extensions>
      </trkpt>
      <trkpt lat="43.52563" lon="1.42724">
        <ele>91.599998474121</ele>
        <time>2020-06-10T13:36:34.000Z</time>
        <extensions>
          <gpxtpx:TrackPointExtension xmlns:gpxtpx="http://www.garmin.com/xmlschemas/TrackPointExtension/v1">
            <gpxtpx:hr>74</gpxtpx:hr>
          </gpxtpx:TrackPointExtension>
        </extensions>
      </trkpt>
      <trkpt lat="43.52554" lon="1.42712">
        <ele>91.199996948242</ele>
        <time>2020-06-10T13:36:36.000Z</time>
        <extensions>
          <gpxtpx:TrackPointExtension xmlns:gpxtpx="http://www.garmin.com/xmlschemas/TrackPointExtension/v1">
            <gpxtpx:hr>73</gpxtpx:hr>
          </gpxtpx:TrackPointExtension>
        </extensions>
      </trkpt>
      <trkpt lat="43.52519" lon="1.42666">
        <ele>90.199996948242</ele>
        <time>2020-06-10T13:36:43.000Z</time>
        <extensions>
          <gpxtpx:TrackPointExtension xmlns:gpxtpx="http://www.garmin.com/xmlschemas/TrackPointExtension/v1">
            <gpxtpx:hr>73</gpxtpx:hr>
          </gpxtpx:TrackPointExtension>
        </extensions>
      </trkpt>
      <trkpt lat="43.52505" lon="1.42646">
        <ele>89</ele>
        <time>2020-06-10T13:36:46.000Z</time>
        <extensions>
          <gpxtpx:TrackPointExtension xmlns:gpxtpx="http://www.garmin.com/xmlschemas/TrackPointExtension/v1">
            <gpxtpx:hr>72</gpxtpx:hr>
          </gpxtpx:TrackPointExtension>
        </extensions>
      </trkpt>
      <trkpt lat="43.52482" lon="1.42615">
        <ele>88</ele>
        <time>2020-06-10T13:36:51.000Z</time>
        <extensions>
          <gpxtpx:TrackPointExtension xmlns:gpxtpx="http://www.garmin.com/xmlschemas/TrackPointExtension/v1">
            <gpxtpx:hr>70</gpxtpx:hr>
          </gpxtpx:TrackPointExtension>
        </extensions>
      </trkpt>
      <trkpt lat="43.52441" lon="1.4256">
        <ele>87.400001525879</ele>
        <time>2020-06-10T13:37:00.000Z</time>
        <extensions>
          <gpxtpx:TrackPointExtension xmlns:gpxtpx="http://www.garmin.com/xmlschemas/TrackPointExtension/v1">
            <gpxtpx:hr>73</gpxtpx:hr>
          </gpxtpx:TrackPointExtension>
        </extensions>
      </trkpt>
      <trkpt lat="43.52428" lon="1.42541">
        <ele>87.400001525879</ele>
        <time>2020-06-10T13:37:03.000Z</time>
        <extensions>
          <gpxtpx:TrackPointExtension xmlns:gpxtpx="http://www.garmin.com/xmlschemas/TrackPointExtension/v1">
            <gpxtpx:hr>76</gpxtpx:hr>
          </gpxtpx:TrackPointExtension>
        </extensions>
      </trkpt>
      <trkpt lat="43.52388" lon="1.42486">
        <ele>87.800003051758</ele>
        <time>2020-06-10T13:37:12.000Z</time>
        <extensions>
          <gpxtpx:TrackPointExtension xmlns:gpxtpx="http://www.garmin.com/xmlschemas/TrackPointExtension/v1">
            <gpxtpx:hr>79</gpxtpx:hr>
          </gpxtpx:TrackPointExtension>
        </extensions>
      </trkpt>
      <trkpt lat="43.52346" lon="1.42428">
        <ele>88.599998474121</ele>
        <time>2020-06-10T13:37:22.000Z</time>
        <extensions>
          <gpxtpx:TrackPointExtension xmlns:gpxtpx="http://www.garmin.com/xmlschemas/TrackPointExtension/v1">
            <gpxtpx:hr>78</gpxtpx:hr>
          </gpxtpx:TrackPointExtension>
        </extensions>
      </trkpt>
      <trkpt lat="43.52313" lon="1.42382">
        <ele>88.599998474121</ele>
        <time>2020-06-10T13:37:30.000Z</time>
        <extensions>
          <gpxtpx:TrackPointExtension xmlns:gpxtpx="http://www.garmin.com/xmlschemas/TrackPointExtension/v1">
            <gpxtpx:hr>81</gpxtpx:hr>
          </gpxtpx:TrackPointExtension>
        </extensions>
      </trkpt>
      <trkpt lat="43.52305" lon="1.4237">
        <ele>88.800003051758</ele>
        <time>2020-06-10T13:37:32.000Z</time>
        <extensions>
          <gpxtpx:TrackPointExtension xmlns:gpxtpx="http://www.garmin.com/xmlschemas/TrackPointExtension/v1">
            <gpxtpx:hr>84</gpxtpx:hr>
          </gpxtpx:TrackPointExtension>
        </extensions>
      </trkpt>
      <trkpt lat="43.52266" lon="1.42316">
        <ele>89</ele>
        <time>2020-06-10T13:37:42.000Z</time>
      </trkpt>
      <trkpt lat="43.52247" lon="1.42289">
        <ele>89.199996948242</ele>
        <time>2020-06-10T13:37:47.000Z</time>
        <extensions>
          <gpxtpx:TrackPointExtension xmlns:gpxtpx="http://www.garmin.com/xmlschemas/TrackPointExtension/v1">
            <gpxtpx:hr>83</gpxtpx:hr>
          </gpxtpx:TrackPointExtension>
        </extensions>
      </trkpt>
      <trkpt lat="43.52236" lon="1.42274">
        <ele>89.199996948242</ele>
        <time>2020-06-10T13:37:50.000Z</time>
        <extensions>
          <gpxtpx:TrackPointExtension xmlns:gpxtpx="http://www.garmin.com/xmlschemas/TrackPointExtension/v1">
            <gpxtpx:hr>80</gpxtpx:hr>
          </gpxtpx:TrackPointExtension>
        </extensions>
      </trkpt>
      <trkpt lat="43.52232" lon="1.42269">
        <ele>89.199996948242</ele>
        <time>2020-06-10T13:37:51.000Z</time>
        <extensions>
          <gpxtpx:TrackPointExtension xmlns:gpxtpx="http://www.garmin.com/xmlschemas/TrackPointExtension/v1">
            <gpxtpx:hr>79</gpxtpx:hr>
          </gpxtpx:TrackPointExtension>
        </extensions>
      </trkpt>
      <trkpt lat="43.52206" lon="1.42234">
        <ele>89.199996948242</ele>
        <time>2020-06-10T13:37:58.000Z</time>
        <extensions>
          <gpxtpx:TrackPointExtension xmlns:gpxtpx="http://www.garmin.com/xmlschemas/TrackPointExtension/v1">
            <gpxtpx:hr>76</gpxtpx:hr>
          </gpxtpx:TrackPointExtension>
        </extensions>
      </trkpt>
      <trkpt lat="43.52165" lon="1.42181">
        <ele>89.400001525879</ele>
        <time>2020-06-10T13:38:09.000Z</time>
        <extensions>
          <gpxtpx:TrackPointExtension xmlns:gpxtpx="http://www.garmin.com/xmlschemas/TrackPointExtension/v1">
            <gpxtpx:hr>75</gpxtpx:hr>
          </gpxtpx:TrackPointExtension>
        </extensions>
      </trkpt>
      <trkpt lat="43.52141" lon="1.42148">
        <ele>89.599998474121</ele>
        <time>2020-06-10T13:38:16.000Z</time>
        <extensions>
          <gpxtpx:TrackPointExtension xmlns:gpxtpx="http://www.garmin.com/xmlschemas/TrackPointExtension/v1">
            <gpxtpx:hr>78</gpxtpx:hr>
          </gpxtpx:TrackPointExtension>
        </extensions>
      </trkpt>
      <trkpt lat="43.5213" lon="1.42135">
        <ele>89.800003051758</ele>
        <time>2020-06-10T13:38:19.000Z</time>
        <extensions>
          <gpxtpx:TrackPointExtension xmlns:gpxtpx="http://www.garmin.com/xmlschemas/TrackPointExtension/v1">
            <gpxtpx:hr>81</gpxtpx:hr>
          </gpxtpx:TrackPointExtension>
        </extensions>
      </trkpt>
      <trkpt lat="43.52124" lon="1.42126">
        <ele>89.800003051758</ele>
        <time>2020-06-10T13:38:21.000Z</time>
        <extensions>
          <gpxtpx:TrackPointExtension xmlns:gpxtpx="http://www.garmin.com/xmlschemas/TrackPointExtension/v1">
            <gpxtpx:hr>85</gpxtpx:hr>
          </gpxtpx:TrackPointExtension>
        </extensions>
      </trkpt>
      <trkpt lat="43.521" lon="1.421">
        <ele>90.199996948242</ele>
        <time>2020-06-10T13:38:28.000Z</time>
        <extensions>
          <gpxtpx:TrackPointExtension xmlns:gpxtpx="http://www.garmin.com/xmlschemas/TrackPointExtension/v1">
            <gpxtpx:hr>85</gpxtpx:hr>
          </gpxtpx:TrackPointExtension>
        </extensions>
      </trkpt>
      <trkpt lat="43.52077" lon="1.42075">
        <ele>90.599998474121</ele>
        <time>2020-06-10T13:38:34.000Z</time>
        <extensions>
          <gpxtpx:TrackPointExtension xmlns:gpxtpx="http://www.garmin.com/xmlschemas/TrackPointExtension/v1">
            <gpxtpx:hr>82</gpxtpx:hr>
          </gpxtpx:TrackPointExtension>
        </extensions>
      </trkpt>
      <trkpt lat="43.52062" lon="1.42059">
        <ele>90.800003051758</ele>
        <time>2020-06-10T13:38:38.000Z</time>
        <extensions>
          <gpxtpx:TrackPointExtension xmlns:gpxtpx="http://www.garmin.com/xmlschemas/TrackPointExtension/v1">
            <gpxtpx:hr>79</gpxtpx:hr>
          </gpxtpx:TrackPointExtension>
        </extensions>
      </trkpt>
      <trkpt lat="43.52017" lon="1.42009">
        <ele>91.199996948242</ele>
        <time>2020-06-10T13:38:50.000Z</time>
        <extensions>
          <gpxtpx:TrackPointExtension xmlns:gpxtpx="http://www.garmin.com/xmlschemas/TrackPointExtension/v1">
            <gpxtpx:hr>80</gpxtpx:hr>
          </gpxtpx:TrackPointExtension>
        </extensions>
      </trkpt>
      <trkpt lat="43.52005" lon="1.41997">
        <ele>91.199996948242</ele>
        <time>2020-06-10T13:38:53.000Z</time>
        <extensions>
          <gpxtpx:TrackPointExtension xmlns:gpxtpx="http://www.garmin.com/xmlschemas/TrackPointExtension/v1">
            <gpxtpx:hr>81</gpxtpx:hr>
          </gpxtpx:TrackPointExtension>
        </extensions>
      </trkpt>
      <trkpt lat="43.51976" lon="1.41966">
        <ele>91.599998474121</ele>
        <time>2020-06-10T13:39:01.000Z</time>
        <extensions>
          <gpxtpx:TrackPointExtension xmlns:gpxtpx="http://www.garmin.com/xmlschemas/TrackPointExtension/v1">
            <gpxtpx:hr>84</gpxtpx:hr>
          </gpxtpx:TrackPointExtension>
        </extensions>
      </trkpt>
      <trkpt lat="43.51933" lon="1.41918">
        <ele>91.800003051758</ele>
        <time>2020-06-10T13:39:12.000Z</time>
        <extensions>
          <gpxtpx:TrackPointExtension xmlns:gpxtpx="http://www.garmin.com/xmlschemas/TrackPointExtension/v1">
            <gpxtpx:hr>82</gpxtpx:hr>
          </gpxtpx:TrackPointExtension>
        </extensions>
      </trkpt>
      <trkpt lat="43.51885" lon="1.4187">
        <ele>91.800003051758</ele>
        <time>2020-06-10T13:39:24.000Z</time>
        <extensions>
          <gpxtpx:TrackPointExtension xmlns:gpxtpx="http://www.garmin.com/xmlschemas/TrackPointExtension/v1">
            <gpxtpx:hr>81</gpxtpx:hr>
          </gpxtpx:TrackPointExtension>
        </extensions>
      </trkpt>
      <trkpt lat="43.51877" lon="1.41863">
        <ele>91.800003051758</ele>
        <time>2020-06-10T13:39:26.000Z</time>
        <extensions>
          <gpxtpx:TrackPointExtension xmlns:gpxtpx="http://www.garmin.com/xmlschemas/TrackPointExtension/v1">
            <gpxtpx:hr>80</gpxtpx:hr>
          </gpxtpx:TrackPointExtension>
        </extensions>
      </trkpt>
      <trkpt lat="43.5185" lon="1.41843">
        <ele>91.800003051758</ele>
        <time>2020-06-10T13:39:32.000Z</time>
        <extensions>
          <gpxtpx:TrackPointExtension xmlns:gpxtpx="http://www.garmin.com/xmlschemas/TrackPointExtension/v1">
            <gpxtpx:hr>77</gpxtpx:hr>
          </gpxtpx:TrackPointExtension>
        </extensions>
      </trkpt>
      <trkpt lat="43.51796" lon="1.41812">
        <ele>91.199996948242</ele>
        <time>2020-06-10T13:39:43.000Z</time>
        <extensions>
          <gpxtpx:TrackPointExtension xmlns:gpxtpx="http://www.garmin.com/xmlschemas/TrackPointExtension/v1">
            <gpxtpx:hr>75</gpxtpx:hr>
          </gpxtpx:TrackPointExtension>
        </extensions>
      </trkpt>
      <trkpt lat="43.51745" lon="1.41786">
        <ele>91.199996948242</ele>
        <time>2020-06-10T13:39:54.000Z</time>
        <extensions>
          <gpxtpx:TrackPointExtension xmlns:gpxtpx="http://www.garmin.com/xmlschemas/TrackPointExtension/v1">
            <gpxtpx:hr>73</gpxtpx:hr>
          </gpxtpx:TrackPointExtension>
        </extensions>
      </trkpt>
      <trkpt lat="43.51717" lon="1.41772">
        <ele>91.400001525879</ele>
        <time>2020-06-10T13:40:00.000Z</time>
        <extensions>
          <gpxtpx:TrackPointExtension xmlns:gpxtpx="http://www.garmin.com/xmlschemas/TrackPointExtension/v1">
            <gpxtpx:hr>76</gpxtpx:hr>
          </gpxtpx:TrackPointExtension>
        </extensions>
      </trkpt>
      <trkpt lat="43.51666" lon="1.41745">
        <ele>91.800003051758</ele>
        <time>2020-06-10T13:40:11.000Z</time>
        <extensions>
          <gpxtpx:TrackPointExtension xmlns:gpxtpx="http://www.garmin.com/xmlschemas/TrackPointExtension/v1">
            <gpxtpx:hr>77</gpxtpx:hr>
          </gpxtpx:TrackPointExtension>
        </extensions>
      </trkpt>
      <trkpt lat="43.51611" lon="1.41717">
        <ele>92.199996948242</ele>
        <time>2020-06-10T13:40:23.000Z</time>
        <extensions>
          <gpxtpx:TrackPointExtension xmlns:gpxtpx="http://www.garmin.com/xmlschemas/TrackPointExtension/v1">
            <gpxtpx:hr>77</gpxtpx:hr>
          </gpxtpx:TrackPointExtension>
        </extensions>
      </trkpt>
      <trkpt lat="43.5157" lon="1.41702">
        <ele>92.599998474121</ele>
        <time>2020-06-10T13:40:32.000Z</time>
        <extensions>
          <gpxtpx:TrackPointExtension xmlns:gpxtpx="http://www.garmin.com/xmlschemas/TrackPointExtension/v1">
            <gpxtpx:hr>76</gpxtpx:hr>
          </gpxtpx:TrackPointExtension>
        </extensions>
      </trkpt>
      <trkpt lat="43.51517" lon="1.41687">
        <ele>92.599998474121</ele>
        <time>2020-06-10T13:40:43.000Z</time>
        <extensions>
          <gpxtpx:TrackPointExtension xmlns:gpxtpx="http://www.garmin.com/xmlschemas/TrackPointExtension/v1">
            <gpxtpx:hr>74</gpxtpx:hr>
          </gpxtpx:TrackPointExtension>
        </extensions>
      </trkpt>
      <trkpt lat="43.51492" lon="1.41679">
        <ele>92.400001525879</ele>
        <time>2020-06-10T13:40:48.000Z</time>
        <extensions>
          <gpxtpx:TrackPointExtension xmlns:gpxtpx="http://www.garmin.com/xmlschemas/TrackPointExtension/v1">
            <gpxtpx:hr>71</gpxtpx:hr>
          </gpxtpx:TrackPointExtension>
        </extensions>
      </trkpt>
      <trkpt lat="43.51483" lon="1.41676">
        <ele>92.400001525879</ele>
        <time>2020-06-10T13:40:50.000Z</time>
        <extensions>
          <gpxtpx:TrackPointExtension xmlns:gpxtpx="http://www.garmin.com/xmlschemas/TrackPointExtension/v1">
            <gpxtpx:hr>71</gpxtpx:hr>
          </gpxtpx:TrackPointExtension>
        </extensions>
      </trkpt>
      <trkpt lat="43.51427" lon="1.41659">
        <ele>92.199996948242</ele>
        <time>2020-06-10T13:41:02.000Z</time>
        <extensions>
          <gpxtpx:TrackPointExtension xmlns:gpxtpx="http://www.garmin.com/xmlschemas/TrackPointExtension/v1">
            <gpxtpx:hr>72</gpxtpx:hr>
          </gpxtpx:TrackPointExtension>
        </extensions>
      </trkpt>
      <trkpt lat="43.5137" lon="1.41642">
        <ele>92.400001525879</ele>
        <time>2020-06-10T13:41:14.000Z</time>
        <extensions>
          <gpxtpx:TrackPointExtension xmlns:gpxtpx="http://www.garmin.com/xmlschemas/TrackPointExtension/v1">
            <gpxtpx:hr>74</gpxtpx:hr>
          </gpxtpx:TrackPointExtension>
        </extensions>
      </trkpt>
      <trkpt lat="43.51314" lon="1.41626">
        <ele>92.599998474121</ele>
        <time>2020-06-10T13:41:26.000Z</time>
        <extensions>
          <gpxtpx:TrackPointExtension xmlns:gpxtpx="http://www.garmin.com/xmlschemas/TrackPointExtension/v1">
            <gpxtpx:hr>74</gpxtpx:hr>
          </gpxtpx:TrackPointExtension>
        </extensions>
      </trkpt>
      <trkpt lat="43.51258" lon="1.41609">
        <ele>93.400001525879</ele>
        <time>2020-06-10T13:41:38.000Z</time>
        <extensions>
          <gpxtpx:TrackPointExtension xmlns:gpxtpx="http://www.garmin.com/xmlschemas/TrackPointExtension/v1">
            <gpxtpx:hr>74</gpxtpx:hr>
          </gpxtpx:TrackPointExtension>
        </extensions>
      </trkpt>
      <trkpt lat="43.51226" lon="1.41599">
        <ele>93.599998474121</ele>
        <time>2020-06-10T13:41:45.000Z</time>
        <extensions>
          <gpxtpx:TrackPointExtension xmlns:gpxtpx="http://www.garmin.com/xmlschemas/TrackPointExtension/v1">
            <gpxtpx:hr>73</gpxtpx:hr>
          </gpxtpx:TrackPointExtension>
        </extensions>
      </trkpt>
      <trkpt lat="43.51172" lon="1.41583">
        <ele>94</ele>
        <time>2020-06-10T13:41:57.000Z</time>
        <extensions>
          <gpxtpx:TrackPointExtension xmlns:gpxtpx="http://www.garmin.com/xmlschemas/TrackPointExtension/v1">
            <gpxtpx:hr>73</gpxtpx:hr>
          </gpxtpx:TrackPointExtension>
        </extensions>
      </trkpt>
      <trkpt lat="43.51116" lon="1.41566">
        <ele>94.199996948242</ele>
        <time>2020-06-10T13:42:10.000Z</time>
        <extensions>
          <gpxtpx:TrackPointExtension xmlns:gpxtpx="http://www.garmin.com/xmlschemas/TrackPointExtension/v1">
            <gpxtpx:hr>73</gpxtpx:hr>
          </gpxtpx:TrackPointExtension>
        </extensions>
      </trkpt>
      <trkpt lat="43.51077" lon="1.41554">
        <ele>94.599998474121</ele>
        <time>2020-06-10T13:42:19.000Z</time>
        <extensions>
          <gpxtpx:TrackPointExtension xmlns:gpxtpx="http://www.garmin.com/xmlschemas/TrackPointExtension/v1">
            <gpxtpx:hr>73</gpxtpx:hr>
          </gpxtpx:TrackPointExtension>
        </extensions>
      </trkpt>
      <trkpt lat="43.51023" lon="1.41538">
        <ele>95</ele>
        <time>2020-06-10T13:42:32.000Z</time>
        <extensions>
          <gpxtpx:TrackPointExtension xmlns:gpxtpx="http://www.garmin.com/xmlschemas/TrackPointExtension/v1">
            <gpxtpx:hr>72</gpxtpx:hr>
          </gpxtpx:TrackPointExtension>
        </extensions>
      </trkpt>
      <trkpt lat="43.5097" lon="1.41522">
        <ele>95.199996948242</ele>
        <time>2020-06-10T13:42:44.000Z</time>
        <extensions>
          <gpxtpx:TrackPointExtension xmlns:gpxtpx="http://www.garmin.com/xmlschemas/TrackPointExtension/v1">
            <gpxtpx:hr>71</gpxtpx:hr>
          </gpxtpx:TrackPointExtension>
        </extensions>
      </trkpt>
      <trkpt lat="43.50929" lon="1.41508">
        <ele>95.400001525879</ele>
        <time>2020-06-10T13:42:54.000Z</time>
        <extensions>
          <gpxtpx:TrackPointExtension xmlns:gpxtpx="http://www.garmin.com/xmlschemas/TrackPointExtension/v1">
            <gpxtpx:hr>68</gpxtpx:hr>
          </gpxtpx:TrackPointExtension>
        </extensions>
      </trkpt>
      <trkpt lat="43.50901" lon="1.415">
        <ele>95.800003051758</ele>
        <time>2020-06-10T13:43:01.000Z</time>
        <extensions>
          <gpxtpx:TrackPointExtension xmlns:gpxtpx="http://www.garmin.com/xmlschemas/TrackPointExtension/v1">
            <gpxtpx:hr>71</gpxtpx:hr>
          </gpxtpx:TrackPointExtension>
        </extensions>
      </trkpt>
      <trkpt lat="43.50846" lon="1.41483">
        <ele>95.800003051758</ele>
        <time>2020-06-10T13:43:14.000Z</time>
        <extensions>
          <gpxtpx:TrackPointExtension xmlns:gpxtpx="http://www.garmin.com/xmlschemas/TrackPointExtension/v1">
            <gpxtpx:hr>75</gpxtpx:hr>
          </gpxtpx:TrackPointExtension>
        </extensions>
      </trkpt>
      <trkpt lat="43.5081" lon="1.41472">
        <ele>95.800003051758</ele>
        <time>2020-06-10T13:43:22.000Z</time>
        <extensions>
          <gpxtpx:TrackPointExtension xmlns:gpxtpx="http://www.garmin.com/xmlschemas/TrackPointExtension/v1">
            <gpxtpx:hr>74</gpxtpx:hr>
          </gpxtpx:TrackPointExtension>
        </extensions>
      </trkpt>
      <trkpt lat="43.50775" lon="1.41461">
        <ele>96</ele>
        <time>2020-06-10T13:43:30.000Z</time>
        <extensions>
          <gpxtpx:TrackPointExtension xmlns:gpxtpx="http://www.garmin.com/xmlschemas/TrackPointExtension/v1">
            <gpxtpx:hr>71</gpxtpx:hr>
          </gpxtpx:TrackPointExtension>
        </extensions>
      </trkpt>
      <trkpt lat="43.50728" lon="1.41423">
        <ele>96</ele>
        <time>2020-06-10T13:43:42.000Z</time>
        <extensions>
          <gpxtpx:TrackPointExtension xmlns:gpxtpx="http://www.garmin.com/xmlschemas/TrackPointExtension/v1">
            <gpxtpx:hr>71</gpxtpx:hr>
          </gpxtpx:TrackPointExtension>
        </extensions>
      </trkpt>
      <trkpt lat="43.50699" lon="1.4136">
        <ele>96.199996948242</ele>
        <time>2020-06-10T13:43:55.000Z</time>
        <extensions>
          <gpxtpx:TrackPointExtension xmlns:gpxtpx="http://www.garmin.com/xmlschemas/TrackPointExtension/v1">
            <gpxtpx:hr>72</gpxtpx:hr>
          </gpxtpx:TrackPointExtension>
        </extensions>
      </trkpt>
      <trkpt lat="43.50659" lon="1.41315">
        <ele>95.800003051758</ele>
        <time>2020-06-10T13:44:06.000Z</time>
        <extensions>
          <gpxtpx:TrackPointExtension xmlns:gpxtpx="http://www.garmin.com/xmlschemas/TrackPointExtension/v1">
            <gpxtpx:hr>69</gpxtpx:hr>
          </gpxtpx:TrackPointExtension>
        </extensions>
      </trkpt>
      <trkpt lat="43.50621" lon="1.41295">
        <ele>95.400001525879</ele>
        <time>2020-06-10T13:44:14.000Z</time>
        <extensions>
          <gpxtpx:TrackPointExtension xmlns:gpxtpx="http://www.garmin.com/xmlschemas/TrackPointExtension/v1">
            <gpxtpx:hr>66</gpxtpx:hr>
          </gpxtpx:TrackPointExtension>
        </extensions>
      </trkpt>
      <trkpt lat="43.50604" lon="1.41286">
        <ele>95.400001525879</ele>
        <time>2020-06-10T13:44:18.000Z</time>
        <extensions>
          <gpxtpx:TrackPointExtension xmlns:gpxtpx="http://www.garmin.com/xmlschemas/TrackPointExtension/v1">
            <gpxtpx:hr>63</gpxtpx:hr>
          </gpxtpx:TrackPointExtension>
        </extensions>
      </trkpt>
      <trkpt lat="43.50551" lon="1.41256">
        <ele>95.400001525879</ele>
        <time>2020-06-10T13:44:32.000Z</time>
        <extensions>
          <gpxtpx:TrackPointExtension xmlns:gpxtpx="http://www.garmin.com/xmlschemas/TrackPointExtension/v1">
            <gpxtpx:hr>62</gpxtpx:hr>
          </gpxtpx:TrackPointExtension>
        </extensions>
      </trkpt>
      <trkpt lat="43.5054" lon="1.4125">
        <ele>95.199996948242</ele>
        <time>2020-06-10T13:44:36.000Z</time>
        <extensions>
          <gpxtpx:TrackPointExtension xmlns:gpxtpx="http://www.garmin.com/xmlschemas/TrackPointExtension/v1">
            <gpxtpx:hr>61</gpxtpx:hr>
          </gpxtpx:TrackPointExtension>
        </extensions>
      </trkpt>
      <trkpt lat="43.50533" lon="1.41258">
        <ele>95.199996948242</ele>
        <time>2020-06-10T13:44:40.000Z</time>
        <extensions>
          <gpxtpx:TrackPointExtension xmlns:gpxtpx="http://www.garmin.com/xmlschemas/TrackPointExtension/v1">
            <gpxtpx:hr>64</gpxtpx:hr>
          </gpxtpx:TrackPointExtension>
        </extensions>
      </trkpt>
      <trkpt lat="43.50532" lon="1.41274">
        <ele>95.400001525879</ele>
        <time>2020-06-10T13:44:44.000Z</time>
        <extensions>
          <gpxtpx:TrackPointExtension xmlns:gpxtpx="http://www.garmin.com/xmlschemas/TrackPointExtension/v1">
            <gpxtpx:hr>67</gpxtpx:hr>
          </gpxtpx:TrackPointExtension>
        </extensions>
      </trkpt>
      <trkpt lat="43.50535" lon="1.41353">
        <ele>95.800003051758</ele>
        <time>2020-06-10T13:44:58.000Z</time>
        <extensions>
          <gpxtpx:TrackPointExtension xmlns:gpxtpx="http://www.garmin.com/xmlschemas/TrackPointExtension/v1">
            <gpxtpx:hr>69</gpxtpx:hr>
          </gpxtpx:TrackPointExtension>
        </extensions>
      </trkpt>
      <trkpt lat="43.50529" lon="1.41386">
        <ele>95.800003051758</ele>
        <time>2020-06-10T13:45:04.000Z</time>
        <extensions>
          <gpxtpx:TrackPointExtension xmlns:gpxtpx="http://www.garmin.com/xmlschemas/TrackPointExtension/v1">
            <gpxtpx:hr>73</gpxtpx:hr>
          </gpxtpx:TrackPointExtension>
        </extensions>
      </trkpt>
      <trkpt lat="43.50514" lon="1.41416">
        <ele>96</ele>
        <time>2020-06-10T13:45:10.000Z</time>
        <extensions>
          <gpxtpx:TrackPointExtension xmlns:gpxtpx="http://www.garmin.com/xmlschemas/TrackPointExtension/v1">
            <gpxtpx:hr>76</gpxtpx:hr>
          </gpxtpx:TrackPointExtension>
        </extensions>
      </trkpt>
      <trkpt lat="43.50481" lon="1.41479">
        <ele>96.800003051758</ele>
        <time>2020-06-10T13:45:24.000Z</time>
        <extensions>
          <gpxtpx:TrackPointExtension xmlns:gpxtpx="http://www.garmin.com/xmlschemas/TrackPointExtension/v1">
            <gpxtpx:hr>76</gpxtpx:hr>
          </gpxtpx:TrackPointExtension>
        </extensions>
      </trkpt>
      <trkpt lat="43.5047" lon="1.41501">
        <ele>97</ele>
        <time>2020-06-10T13:45:29.000Z</time>
        <extensions>
          <gpxtpx:TrackPointExtension xmlns:gpxtpx="http://www.garmin.com/xmlschemas/TrackPointExtension/v1">
            <gpxtpx:hr>78</gpxtpx:hr>
          </gpxtpx:TrackPointExtension>
        </extensions>
      </trkpt>
      <trkpt lat="43.5044" lon="1.41546">
        <ele>98</ele>
        <time>2020-06-10T13:45:41.000Z</time>
        <extensions>
          <gpxtpx:TrackPointExtension xmlns:gpxtpx="http://www.garmin.com/xmlschemas/TrackPointExtension/v1">
            <gpxtpx:hr>81</gpxtpx:hr>
          </gpxtpx:TrackPointExtension>
        </extensions>
      </trkpt>
      <trkpt lat="43.50437" lon="1.41549">
        <ele>98.199996948242</ele>
        <time>2020-06-10T13:45:42.000Z</time>
        <extensions>
          <gpxtpx:TrackPointExtension xmlns:gpxtpx="http://www.garmin.com/xmlschemas/TrackPointExtension/v1">
            <gpxtpx:hr>81</gpxtpx:hr>
          </gpxtpx:TrackPointExtension>
        </extensions>
      </trkpt>
      <trkpt lat="43.50419" lon="1.41572">
        <ele>98.800003051758</ele>
        <time>2020-06-10T13:45:48.000Z</time>
        <extensions>
          <gpxtpx:TrackPointExtension xmlns:gpxtpx="http://www.garmin.com/xmlschemas/TrackPointExtension/v1">
            <gpxtpx:hr>84</gpxtpx:hr>
          </gpxtpx:TrackPointExtension>
        </extensions>
      </trkpt>
      <trkpt lat="43.50401" lon="1.41596">
        <ele>99</ele>
        <time>2020-06-10T13:45:53.000Z</time>
        <extensions>
          <gpxtpx:TrackPointExtension xmlns:gpxtpx="http://www.garmin.com/xmlschemas/TrackPointExtension/v1">
            <gpxtpx:hr>88</gpxtpx:hr>
          </gpxtpx:TrackPointExtension>
        </extensions>
      </trkpt>
      <trkpt lat="43.50387" lon="1.41618">
        <ele>99.199996948242</ele>
        <time>2020-06-10T13:45:57.000Z</time>
        <extensions>
          <gpxtpx:TrackPointExtension xmlns:gpxtpx="http://www.garmin.com/xmlschemas/TrackPointExtension/v1">
            <gpxtpx:hr>91</gpxtpx:hr>
          </gpxtpx:TrackPointExtension>
        </extensions>
      </trkpt>
      <trkpt lat="43.50376" lon="1.41633">
        <ele>99.599998474121</ele>
        <time>2020-06-10T13:46:00.000Z</time>
        <extensions>
          <gpxtpx:TrackPointExtension xmlns:gpxtpx="http://www.garmin.com/xmlschemas/TrackPointExtension/v1">
            <gpxtpx:hr>93</gpxtpx:hr>
          </gpxtpx:TrackPointExtension>
        </extensions>
      </trkpt>
      <trkpt lat="43.50369" lon="1.41645">
        <ele>100</ele>
        <time>2020-06-10T13:46:02.000Z</time>
        <extensions>
          <gpxtpx:TrackPointExtension xmlns:gpxtpx="http://www.garmin.com/xmlschemas/TrackPointExtension/v1">
            <gpxtpx:hr>96</gpxtpx:hr>
          </gpxtpx:TrackPointExtension>
        </extensions>
      </trkpt>
      <trkpt lat="43.50363" lon="1.41656">
        <ele>100.59999847412</ele>
        <time>2020-06-10T13:46:04.000Z</time>
        <extensions>
          <gpxtpx:TrackPointExtension xmlns:gpxtpx="http://www.garmin.com/xmlschemas/TrackPointExtension/v1">
            <gpxtpx:hr>98</gpxtpx:hr>
          </gpxtpx:TrackPointExtension>
        </extensions>
      </trkpt>
      <trkpt lat="43.50356" lon="1.41668">
        <ele>100.80000305176</ele>
        <time>2020-06-10T13:46:06.000Z</time>
        <extensions>
          <gpxtpx:TrackPointExtension xmlns:gpxtpx="http://www.garmin.com/xmlschemas/TrackPointExtension/v1">
            <gpxtpx:hr>101</gpxtpx:hr>
          </gpxtpx:TrackPointExtension>
        </extensions>
      </trkpt>
      <trkpt lat="43.50351" lon="1.41679">
        <ele>101</ele>
        <time>2020-06-10T13:46:08.000Z</time>
        <extensions>
          <gpxtpx:TrackPointExtension xmlns:gpxtpx="http://www.garmin.com/xmlschemas/TrackPointExtension/v1">
            <gpxtpx:hr>104</gpxtpx:hr>
          </gpxtpx:TrackPointExtension>
        </extensions>
      </trkpt>
      <trkpt lat="43.50341" lon="1.41699">
        <ele>101.59999847412</ele>
        <time>2020-06-10T13:46:12.000Z</time>
        <extensions>
          <gpxtpx:TrackPointExtension xmlns:gpxtpx="http://www.garmin.com/xmlschemas/TrackPointExtension/v1">
            <gpxtpx:hr>104</gpxtpx:hr>
          </gpxtpx:TrackPointExtension>
        </extensions>
      </trkpt>
      <trkpt lat="43.50333" lon="1.41717">
        <ele>102.80000305176</ele>
        <time>2020-06-10T13:46:16.000Z</time>
        <extensions>
          <gpxtpx:TrackPointExtension xmlns:gpxtpx="http://www.garmin.com/xmlschemas/TrackPointExtension/v1">
            <gpxtpx:hr>101</gpxtpx:hr>
          </gpxtpx:TrackPointExtension>
        </extensions>
      </trkpt>
      <trkpt lat="43.50328" lon="1.41725">
        <ele>103.19999694824</ele>
        <time>2020-06-10T13:46:18.000Z</time>
        <extensions>
          <gpxtpx:TrackPointExtension xmlns:gpxtpx="http://www.garmin.com/xmlschemas/TrackPointExtension/v1">
            <gpxtpx:hr>98</gpxtpx:hr>
          </gpxtpx:TrackPointExtension>
        </extensions>
      </trkpt>
      <trkpt lat="43.50316" lon="1.41745">
        <ele>103.40000152588</ele>
        <time>2020-06-10T13:46:23.000Z</time>
        <extensions>
          <gpxtpx:TrackPointExtension xmlns:gpxtpx="http://www.garmin.com/xmlschemas/TrackPointExtension/v1">
            <gpxtpx:hr>96</gpxtpx:hr>
          </gpxtpx:TrackPointExtension>
        </extensions>
      </trkpt>
      <trkpt lat="43.50309" lon="1.41752">
        <ele>103.40000152588</ele>
        <time>2020-06-10T13:46:25.000Z</time>
        <extensions>
          <gpxtpx:TrackPointExtension xmlns:gpxtpx="http://www.garmin.com/xmlschemas/TrackPointExtension/v1">
            <gpxtpx:hr>96</gpxtpx:hr>
          </gpxtpx:TrackPointExtension>
        </extensions>
      </trkpt>
      <trkpt lat="43.50301" lon="1.41773">
        <ele>103.40000152588</ele>
        <time>2020-06-10T13:46:29.000Z</time>
        <extensions>
          <gpxtpx:TrackPointExtension xmlns:gpxtpx="http://www.garmin.com/xmlschemas/TrackPointExtension/v1">
            <gpxtpx:hr>97</gpxtpx:hr>
          </gpxtpx:TrackPointExtension>
        </extensions>
      </trkpt>
      <trkpt lat="43.50299" lon="1.4178">
        <ele>103.40000152588</ele>
        <time>2020-06-10T13:46:30.000Z</time>
        <extensions>
          <gpxtpx:TrackPointExtension xmlns:gpxtpx="http://www.garmin.com/xmlschemas/TrackPointExtension/v1">
            <gpxtpx:hr>97</gpxtpx:hr>
          </gpxtpx:TrackPointExtension>
        </extensions>
      </trkpt>
      <trkpt lat="43.50287" lon="1.41811">
        <ele>103.59999847412</ele>
        <time>2020-06-10T13:46:35.000Z</time>
        <extensions>
          <gpxtpx:TrackPointExtension xmlns:gpxtpx="http://www.garmin.com/xmlschemas/TrackPointExtension/v1">
            <gpxtpx:hr>100</gpxtpx:hr>
          </gpxtpx:TrackPointExtension>
        </extensions>
      </trkpt>
      <trkpt lat="43.50269" lon="1.41841">
        <ele>104</ele>
        <time>2020-06-10T13:46:41.000Z</time>
        <extensions>
          <gpxtpx:TrackPointExtension xmlns:gpxtpx="http://www.garmin.com/xmlschemas/TrackPointExtension/v1">
            <gpxtpx:hr>100</gpxtpx:hr>
          </gpxtpx:TrackPointExtension>
        </extensions>
      </trkpt>
      <trkpt lat="43.50229" lon="1.41893">
        <ele>104.80000305176</ele>
        <time>2020-06-10T13:46:52.000Z</time>
        <extensions>
          <gpxtpx:TrackPointExtension xmlns:gpxtpx="http://www.garmin.com/xmlschemas/TrackPointExtension/v1">
            <gpxtpx:hr>99</gpxtpx:hr>
          </gpxtpx:TrackPointExtension>
        </extensions>
      </trkpt>
      <trkpt lat="43.50214" lon="1.41913">
        <ele>105</ele>
        <time>2020-06-10T13:46:56.000Z</time>
        <extensions>
          <gpxtpx:TrackPointExtension xmlns:gpxtpx="http://www.garmin.com/xmlschemas/TrackPointExtension/v1">
            <gpxtpx:hr>98</gpxtpx:hr>
          </gpxtpx:TrackPointExtension>
        </extensions>
      </trkpt>
      <trkpt lat="43.50198" lon="1.4194">
        <ele>105</ele>
        <time>2020-06-10T13:47:01.000Z</time>
        <extensions>
          <gpxtpx:TrackPointExtension xmlns:gpxtpx="http://www.garmin.com/xmlschemas/TrackPointExtension/v1">
            <gpxtpx:hr>95</gpxtpx:hr>
          </gpxtpx:TrackPointExtension>
        </extensions>
      </trkpt>
      <trkpt lat="43.50178" lon="1.41975">
        <ele>105</ele>
        <time>2020-06-10T13:47:07.000Z</time>
        <extensions>
          <gpxtpx:TrackPointExtension xmlns:gpxtpx="http://www.garmin.com/xmlschemas/TrackPointExtension/v1">
            <gpxtpx:hr>92</gpxtpx:hr>
          </gpxtpx:TrackPointExtension>
        </extensions>
      </trkpt>
      <trkpt lat="43.50153" lon="1.4202">
        <ele>105.19999694824</ele>
        <time>2020-06-10T13:47:15.000Z</time>
        <extensions>
          <gpxtpx:TrackPointExtension xmlns:gpxtpx="http://www.garmin.com/xmlschemas/TrackPointExtension/v1">
            <gpxtpx:hr>89</gpxtpx:hr>
          </gpxtpx:TrackPointExtension>
        </extensions>
      </trkpt>
      <trkpt lat="43.50139" lon="1.42047">
        <ele>105.19999694824</ele>
        <time>2020-06-10T13:47:20.000Z</time>
        <extensions>
          <gpxtpx:TrackPointExtension xmlns:gpxtpx="http://www.garmin.com/xmlschemas/TrackPointExtension/v1">
            <gpxtpx:hr>86</gpxtpx:hr>
          </gpxtpx:TrackPointExtension>
        </extensions>
      </trkpt>
      <trkpt lat="43.5012" lon="1.42088">
        <ele>105.59999847412</ele>
        <time>2020-06-10T13:47:27.000Z</time>
        <extensions>
          <gpxtpx:TrackPointExtension xmlns:gpxtpx="http://www.garmin.com/xmlschemas/TrackPointExtension/v1">
            <gpxtpx:hr>83</gpxtpx:hr>
          </gpxtpx:TrackPointExtension>
        </extensions>
      </trkpt>
      <trkpt lat="43.5011" lon="1.42111">
        <ele>105.80000305176</ele>
        <time>2020-06-10T13:47:31.000Z</time>
        <extensions>
          <gpxtpx:TrackPointExtension xmlns:gpxtpx="http://www.garmin.com/xmlschemas/TrackPointExtension/v1">
            <gpxtpx:hr>80</gpxtpx:hr>
          </gpxtpx:TrackPointExtension>
        </extensions>
      </trkpt>
      <trkpt lat="43.50099" lon="1.42132">
        <ele>105.80000305176</ele>
        <time>2020-06-10T13:47:35.000Z</time>
        <extensions>
          <gpxtpx:TrackPointExtension xmlns:gpxtpx="http://www.garmin.com/xmlschemas/TrackPointExtension/v1">
            <gpxtpx:hr>77</gpxtpx:hr>
          </gpxtpx:TrackPointExtension>
        </extensions>
      </trkpt>
      <trkpt lat="43.50087" lon="1.42152">
        <ele>105.59999847412</ele>
        <time>2020-06-10T13:47:39.000Z</time>
        <extensions>
          <gpxtpx:TrackPointExtension xmlns:gpxtpx="http://www.garmin.com/xmlschemas/TrackPointExtension/v1">
            <gpxtpx:hr>74</gpxtpx:hr>
          </gpxtpx:TrackPointExtension>
        </extensions>
      </trkpt>
      <trkpt lat="43.50051" lon="1.42212">
        <ele>105.19999694824</ele>
        <time>2020-06-10T13:47:50.000Z</time>
        <extensions>
          <gpxtpx:TrackPointExtension xmlns:gpxtpx="http://www.garmin.com/xmlschemas/TrackPointExtension/v1">
            <gpxtpx:hr>72</gpxtpx:hr>
          </gpxtpx:TrackPointExtension>
        </extensions>
      </trkpt>
      <trkpt lat="43.50025" lon="1.42242">
        <ele>104.80000305176</ele>
        <time>2020-06-10T13:47:56.000Z</time>
        <extensions>
          <gpxtpx:TrackPointExtension xmlns:gpxtpx="http://www.garmin.com/xmlschemas/TrackPointExtension/v1">
            <gpxtpx:hr>69</gpxtpx:hr>
          </gpxtpx:TrackPointExtension>
        </extensions>
      </trkpt>
      <trkpt lat="43.50005" lon="1.42268">
        <ele>104.19999694824</ele>
        <time>2020-06-10T13:48:01.000Z</time>
        <extensions>
          <gpxtpx:TrackPointExtension xmlns:gpxtpx="http://www.garmin.com/xmlschemas/TrackPointExtension/v1">
            <gpxtpx:hr>66</gpxtpx:hr>
          </gpxtpx:TrackPointExtension>
        </extensions>
      </trkpt>
      <trkpt lat="43.49985" lon="1.42303">
        <ele>104.19999694824</ele>
        <time>2020-06-10T13:48:08.000Z</time>
        <extensions>
          <gpxtpx:TrackPointExtension xmlns:gpxtpx="http://www.garmin.com/xmlschemas/TrackPointExtension/v1">
            <gpxtpx:hr>67</gpxtpx:hr>
          </gpxtpx:TrackPointExtension>
        </extensions>
      </trkpt>
      <trkpt lat="43.49973" lon="1.42328">
        <ele>104.40000152588</ele>
        <time>2020-06-10T13:48:13.000Z</time>
        <extensions>
          <gpxtpx:TrackPointExtension xmlns:gpxtpx="http://www.garmin.com/xmlschemas/TrackPointExtension/v1">
            <gpxtpx:hr>70</gpxtpx:hr>
          </gpxtpx:TrackPointExtension>
        </extensions>
      </trkpt>
      <trkpt lat="43.49938" lon="1.42385">
        <ele>105</ele>
        <time>2020-06-10T13:48:25.000Z</time>
        <extensions>
          <gpxtpx:TrackPointExtension xmlns:gpxtpx="http://www.garmin.com/xmlschemas/TrackPointExtension/v1">
            <gpxtpx:hr>73</gpxtpx:hr>
          </gpxtpx:TrackPointExtension>
        </extensions>
      </trkpt>
      <trkpt lat="43.499" lon="1.42438">
        <ele>104.80000305176</ele>
        <time>2020-06-10T13:48:36.000Z</time>
        <extensions>
          <gpxtpx:TrackPointExtension xmlns:gpxtpx="http://www.garmin.com/xmlschemas/TrackPointExtension/v1">
            <gpxtpx:hr>75</gpxtpx:hr>
          </gpxtpx:TrackPointExtension>
        </extensions>
      </trkpt>
      <trkpt lat="43.49879" lon="1.42497">
        <ele>105.19999694824</ele>
        <time>2020-06-10T13:48:46.000Z</time>
        <extensions>
          <gpxtpx:TrackPointExtension xmlns:gpxtpx="http://www.garmin.com/xmlschemas/TrackPointExtension/v1">
            <gpxtpx:hr>75</gpxtpx:hr>
          </gpxtpx:TrackPointExtension>
        </extensions>
      </trkpt>
      <trkpt lat="43.49869" lon="1.42574">
        <ele>104.80000305176</ele>
        <time>2020-06-10T13:48:58.000Z</time>
        <extensions>
          <gpxtpx:TrackPointExtension xmlns:gpxtpx="http://www.garmin.com/xmlschemas/TrackPointExtension/v1">
            <gpxtpx:hr>73</gpxtpx:hr>
          </gpxtpx:TrackPointExtension>
        </extensions>
      </trkpt>
      <trkpt lat="43.4987" lon="1.42581">
        <ele>104.59999847412</ele>
        <time>2020-06-10T13:48:59.000Z</time>
        <extensions>
          <gpxtpx:TrackPointExtension xmlns:gpxtpx="http://www.garmin.com/xmlschemas/TrackPointExtension/v1">
            <gpxtpx:hr>72</gpxtpx:hr>
          </gpxtpx:TrackPointExtension>
        </extensions>
      </trkpt>
      <trkpt lat="43.49871" lon="1.42593">
        <ele>104.40000152588</ele>
        <time>2020-06-10T13:49:01.000Z</time>
        <extensions>
          <gpxtpx:TrackPointExtension xmlns:gpxtpx="http://www.garmin.com/xmlschemas/TrackPointExtension/v1">
            <gpxtpx:hr>71</gpxtpx:hr>
          </gpxtpx:TrackPointExtension>
        </extensions>
      </trkpt>
      <trkpt lat="43.49876" lon="1.42612">
        <ele>104.19999694824</ele>
        <time>2020-06-10T13:49:04.000Z</time>
        <extensions>
          <gpxtpx:TrackPointExtension xmlns:gpxtpx="http://www.garmin.com/xmlschemas/TrackPointExtension/v1">
            <gpxtpx:hr>71</gpxtpx:hr>
          </gpxtpx:TrackPointExtension>
        </extensions>
      </trkpt>
      <trkpt lat="43.49913" lon="1.42668">
        <ele>104.19999694824</ele>
        <time>2020-06-10T13:49:17.000Z</time>
        <extensions>
          <gpxtpx:TrackPointExtension xmlns:gpxtpx="http://www.garmin.com/xmlschemas/TrackPointExtension/v1">
            <gpxtpx:hr>71</gpxtpx:hr>
          </gpxtpx:TrackPointExtension>
        </extensions>
      </trkpt>
      <trkpt lat="43.49923" lon="1.42679">
        <ele>104.19999694824</ele>
        <time>2020-06-10T13:49:20.000Z</time>
        <extensions>
          <gpxtpx:TrackPointExtension xmlns:gpxtpx="http://www.garmin.com/xmlschemas/TrackPointExtension/v1">
            <gpxtpx:hr>70</gpxtpx:hr>
          </gpxtpx:TrackPointExtension>
        </extensions>
      </trkpt>
      <trkpt lat="43.49931" lon="1.42709">
        <ele>104.40000152588</ele>
        <time>2020-06-10T13:49:26.000Z</time>
        <extensions>
          <gpxtpx:TrackPointExtension xmlns:gpxtpx="http://www.garmin.com/xmlschemas/TrackPointExtension/v1">
            <gpxtpx:hr>71</gpxtpx:hr>
          </gpxtpx:TrackPointExtension>
        </extensions>
      </trkpt>
      <trkpt lat="43.49931" lon="1.42714">
        <ele>104.40000152588</ele>
        <time>2020-06-10T13:49:27.000Z</time>
        <extensions>
          <gpxtpx:TrackPointExtension xmlns:gpxtpx="http://www.garmin.com/xmlschemas/TrackPointExtension/v1">
            <gpxtpx:hr>71</gpxtpx:hr>
          </gpxtpx:TrackPointExtension>
        </extensions>
      </trkpt>
      <trkpt lat="43.4993" lon="1.42731">
        <ele>104.59999847412</ele>
        <time>2020-06-10T13:49:30.000Z</time>
        <extensions>
          <gpxtpx:TrackPointExtension xmlns:gpxtpx="http://www.garmin.com/xmlschemas/TrackPointExtension/v1">
            <gpxtpx:hr>72</gpxtpx:hr>
          </gpxtpx:TrackPointExtension>
        </extensions>
      </trkpt>
      <trkpt lat="43.49921" lon="1.42769">
        <ele>105.40000152588</ele>
        <time>2020-06-10T13:49:38.000Z</time>
        <extensions>
          <gpxtpx:TrackPointExtension xmlns:gpxtpx="http://www.garmin.com/xmlschemas/TrackPointExtension/v1">
            <gpxtpx:hr>74</gpxtpx:hr>
          </gpxtpx:TrackPointExtension>
        </extensions>
      </trkpt>
      <trkpt lat="43.49923" lon="1.42773">
        <ele>105.59999847412</ele>
        <time>2020-06-10T13:49:39.000Z</time>
        <extensions>
          <gpxtpx:TrackPointExtension xmlns:gpxtpx="http://www.garmin.com/xmlschemas/TrackPointExtension/v1">
            <gpxtpx:hr>74</gpxtpx:hr>
          </gpxtpx:TrackPointExtension>
        </extensions>
      </trkpt>
      <trkpt lat="43.49945" lon="1.42786">
        <ele>106.40000152588</ele>
        <time>2020-06-10T13:49:48.000Z</time>
        <extensions>
          <gpxtpx:TrackPointExtension xmlns:gpxtpx="http://www.garmin.com/xmlschemas/TrackPointExtension/v1">
            <gpxtpx:hr>76</gpxtpx:hr>
          </gpxtpx:TrackPointExtension>
        </extensions>
      </trkpt>
      <trkpt lat="43.49956" lon="1.42793">
        <ele>106.80000305176</ele>
        <time>2020-06-10T13:49:52.000Z</time>
        <extensions>
          <gpxtpx:TrackPointExtension xmlns:gpxtpx="http://www.garmin.com/xmlschemas/TrackPointExtension/v1">
            <gpxtpx:hr>79</gpxtpx:hr>
          </gpxtpx:TrackPointExtension>
        </extensions>
      </trkpt>
      <trkpt lat="43.49967" lon="1.42799">
        <ele>107.19999694824</ele>
        <time>2020-06-10T13:49:56.000Z</time>
        <extensions>
          <gpxtpx:TrackPointExtension xmlns:gpxtpx="http://www.garmin.com/xmlschemas/TrackPointExtension/v1">
            <gpxtpx:hr>82</gpxtpx:hr>
          </gpxtpx:TrackPointExtension>
        </extensions>
      </trkpt>
      <trkpt lat="43.4997" lon="1.42801">
        <ele>107.40000152588</ele>
        <time>2020-06-10T13:49:57.000Z</time>
        <extensions>
          <gpxtpx:TrackPointExtension xmlns:gpxtpx="http://www.garmin.com/xmlschemas/TrackPointExtension/v1">
            <gpxtpx:hr>82</gpxtpx:hr>
          </gpxtpx:TrackPointExtension>
        </extensions>
      </trkpt>
      <trkpt lat="43.49978" lon="1.42806">
        <ele>108.40000152588</ele>
        <time>2020-06-10T13:50:00.000Z</time>
        <extensions>
          <gpxtpx:TrackPointExtension xmlns:gpxtpx="http://www.garmin.com/xmlschemas/TrackPointExtension/v1">
            <gpxtpx:hr>85</gpxtpx:hr>
          </gpxtpx:TrackPointExtension>
        </extensions>
      </trkpt>
      <trkpt lat="43.49981" lon="1.42807">
        <ele>108.59999847412</ele>
        <time>2020-06-10T13:50:01.000Z</time>
        <extensions>
          <gpxtpx:TrackPointExtension xmlns:gpxtpx="http://www.garmin.com/xmlschemas/TrackPointExtension/v1">
            <gpxtpx:hr>86</gpxtpx:hr>
          </gpxtpx:TrackPointExtension>
        </extensions>
      </trkpt>
      <trkpt lat="43.49995" lon="1.42824">
        <ele>109.59999847412</ele>
        <time>2020-06-10T13:50:09.000Z</time>
        <extensions>
          <gpxtpx:TrackPointExtension xmlns:gpxtpx="http://www.garmin.com/xmlschemas/TrackPointExtension/v1">
            <gpxtpx:hr>87</gpxtpx:hr>
          </gpxtpx:TrackPointExtension>
        </extensions>
      </trkpt>
      <trkpt lat="43.49998" lon="1.42838">
        <ele>110.59999847412</ele>
        <time>2020-06-10T13:50:13.000Z</time>
        <extensions>
          <gpxtpx:TrackPointExtension xmlns:gpxtpx="http://www.garmin.com/xmlschemas/TrackPointExtension/v1">
            <gpxtpx:hr>91</gpxtpx:hr>
          </gpxtpx:TrackPointExtension>
        </extensions>
      </trkpt>
      <trkpt lat="43.49998" lon="1.42842">
        <ele>110.80000305176</ele>
        <time>2020-06-10T13:50:14.000Z</time>
        <extensions>
          <gpxtpx:TrackPointExtension xmlns:gpxtpx="http://www.garmin.com/xmlschemas/TrackPointExtension/v1">
            <gpxtpx:hr>97</gpxtpx:hr>
          </gpxtpx:TrackPointExtension>
        </extensions>
      </trkpt>
      <trkpt lat="43.49998" lon="1.42846">
        <ele>111.19999694824</ele>
        <time>2020-06-10T13:50:15.000Z</time>
        <extensions>
          <gpxtpx:TrackPointExtension xmlns:gpxtpx="http://www.garmin.com/xmlschemas/TrackPointExtension/v1">
            <gpxtpx:hr>102</gpxtpx:hr>
          </gpxtpx:TrackPointExtension>
        </extensions>
      </trkpt>
      <trkpt lat="43.49998" lon="1.42849">
        <ele>111.59999847412</ele>
        <time>2020-06-10T13:50:16.000Z</time>
        <extensions>
          <gpxtpx:TrackPointExtension xmlns:gpxtpx="http://www.garmin.com/xmlschemas/TrackPointExtension/v1">
            <gpxtpx:hr>106</gpxtpx:hr>
          </gpxtpx:TrackPointExtension>
        </extensions>
      </trkpt>
      <trkpt lat="43.49997" lon="1.42853">
        <ele>112</ele>
        <time>2020-06-10T13:50:17.000Z</time>
        <extensions>
          <gpxtpx:TrackPointExtension xmlns:gpxtpx="http://www.garmin.com/xmlschemas/TrackPointExtension/v1">
            <gpxtpx:hr>108</gpxtpx:hr>
          </gpxtpx:TrackPointExtension>
        </extensions>
      </trkpt>
      <trkpt lat="43.49997" lon="1.42856">
        <ele>112.19999694824</ele>
        <time>2020-06-10T13:50:18.000Z</time>
        <extensions>
          <gpxtpx:TrackPointExtension xmlns:gpxtpx="http://www.garmin.com/xmlschemas/TrackPointExtension/v1">
            <gpxtpx:hr>111</gpxtpx:hr>
          </gpxtpx:TrackPointExtension>
        </extensions>
      </trkpt>
      <trkpt lat="43.49994" lon="1.42867">
        <ele>112.80000305176</ele>
        <time>2020-06-10T13:50:21.000Z</time>
        <extensions>
          <gpxtpx:TrackPointExtension xmlns:gpxtpx="http://www.garmin.com/xmlschemas/TrackPointExtension/v1">
            <gpxtpx:hr>114</gpxtpx:hr>
          </gpxtpx:TrackPointExtension>
        </extensions>
      </trkpt>
      <trkpt lat="43.49993" lon="1.42871">
        <ele>113</ele>
        <time>2020-06-10T13:50:22.000Z</time>
        <extensions>
          <gpxtpx:TrackPointExtension xmlns:gpxtpx="http://www.garmin.com/xmlschemas/TrackPointExtension/v1">
            <gpxtpx:hr>115</gpxtpx:hr>
          </gpxtpx:TrackPointExtension>
        </extensions>
      </trkpt>
      <trkpt lat="43.49987" lon="1.42895">
        <ele>114</ele>
        <time>2020-06-10T13:50:29.000Z</time>
        <extensions>
          <gpxtpx:TrackPointExtension xmlns:gpxtpx="http://www.garmin.com/xmlschemas/TrackPointExtension/v1">
            <gpxtpx:hr>116</gpxtpx:hr>
          </gpxtpx:TrackPointExtension>
        </extensions>
      </trkpt>
      <trkpt lat="43.49981" lon="1.42915">
        <ele>115.40000152588</ele>
        <time>2020-06-10T13:50:35.000Z</time>
        <extensions>
          <gpxtpx:TrackPointExtension xmlns:gpxtpx="http://www.garmin.com/xmlschemas/TrackPointExtension/v1">
            <gpxtpx:hr>116</gpxtpx:hr>
          </gpxtpx:TrackPointExtension>
        </extensions>
      </trkpt>
      <trkpt lat="43.49977" lon="1.42932">
        <ele>116.40000152588</ele>
        <time>2020-06-10T13:50:40.000Z</time>
        <extensions>
          <gpxtpx:TrackPointExtension xmlns:gpxtpx="http://www.garmin.com/xmlschemas/TrackPointExtension/v1">
            <gpxtpx:hr>115</gpxtpx:hr>
          </gpxtpx:TrackPointExtension>
        </extensions>
      </trkpt>
      <trkpt lat="43.49972" lon="1.42952">
        <ele>117.40000152588</ele>
        <time>2020-06-10T13:50:46.000Z</time>
        <extensions>
          <gpxtpx:TrackPointExtension xmlns:gpxtpx="http://www.garmin.com/xmlschemas/TrackPointExtension/v1">
            <gpxtpx:hr>114</gpxtpx:hr>
          </gpxtpx:TrackPointExtension>
        </extensions>
      </trkpt>
      <trkpt lat="43.49967" lon="1.42967">
        <ele>118.59999847412</ele>
        <time>2020-06-10T13:50:51.000Z</time>
        <extensions>
          <gpxtpx:TrackPointExtension xmlns:gpxtpx="http://www.garmin.com/xmlschemas/TrackPointExtension/v1">
            <gpxtpx:hr>112</gpxtpx:hr>
          </gpxtpx:TrackPointExtension>
        </extensions>
      </trkpt>
      <trkpt lat="43.49962" lon="1.42987">
        <ele>119.80000305176</ele>
        <time>2020-06-10T13:50:58.000Z</time>
        <extensions>
          <gpxtpx:TrackPointExtension xmlns:gpxtpx="http://www.garmin.com/xmlschemas/TrackPointExtension/v1">
            <gpxtpx:hr>111</gpxtpx:hr>
          </gpxtpx:TrackPointExtension>
        </extensions>
      </trkpt>
      <trkpt lat="43.49953" lon="1.43021">
        <ele>120.80000305176</ele>
        <time>2020-06-10T13:51:09.000Z</time>
        <extensions>
          <gpxtpx:TrackPointExtension xmlns:gpxtpx="http://www.garmin.com/xmlschemas/TrackPointExtension/v1">
            <gpxtpx:hr>112</gpxtpx:hr>
          </gpxtpx:TrackPointExtension>
        </extensions>
      </trkpt>
      <trkpt lat="43.49946" lon="1.43044">
        <ele>121.40000152588</ele>
        <time>2020-06-10T13:51:16.000Z</time>
        <extensions>
          <gpxtpx:TrackPointExtension xmlns:gpxtpx="http://www.garmin.com/xmlschemas/TrackPointExtension/v1">
            <gpxtpx:hr>109</gpxtpx:hr>
          </gpxtpx:TrackPointExtension>
        </extensions>
      </trkpt>
      <trkpt lat="43.49943" lon="1.43054">
        <ele>121.80000305176</ele>
        <time>2020-06-10T13:51:19.000Z</time>
        <extensions>
          <gpxtpx:TrackPointExtension xmlns:gpxtpx="http://www.garmin.com/xmlschemas/TrackPointExtension/v1">
            <gpxtpx:hr>109</gpxtpx:hr>
          </gpxtpx:TrackPointExtension>
        </extensions>
      </trkpt>
      <trkpt lat="43.49937" lon="1.43074">
        <ele>123</ele>
        <time>2020-06-10T13:51:25.000Z</time>
        <extensions>
          <gpxtpx:TrackPointExtension xmlns:gpxtpx="http://www.garmin.com/xmlschemas/TrackPointExtension/v1">
            <gpxtpx:hr>107</gpxtpx:hr>
          </gpxtpx:TrackPointExtension>
        </extensions>
      </trkpt>
      <trkpt lat="43.49932" lon="1.43093">
        <ele>123.40000152588</ele>
        <time>2020-06-10T13:51:31.000Z</time>
        <extensions>
          <gpxtpx:TrackPointExtension xmlns:gpxtpx="http://www.garmin.com/xmlschemas/TrackPointExtension/v1">
            <gpxtpx:hr>104</gpxtpx:hr>
          </gpxtpx:TrackPointExtension>
        </extensions>
      </trkpt>
      <trkpt lat="43.49927" lon="1.4311">
        <ele>124.19999694824</ele>
        <time>2020-06-10T13:51:36.000Z</time>
        <extensions>
          <gpxtpx:TrackPointExtension xmlns:gpxtpx="http://www.garmin.com/xmlschemas/TrackPointExtension/v1">
            <gpxtpx:hr>105</gpxtpx:hr>
          </gpxtpx:TrackPointExtension>
        </extensions>
      </trkpt>
      <trkpt lat="43.49919" lon="1.4314">
        <ele>125.40000152588</ele>
        <time>2020-06-10T13:51:45.000Z</time>
        <extensions>
          <gpxtpx:TrackPointExtension xmlns:gpxtpx="http://www.garmin.com/xmlschemas/TrackPointExtension/v1">
            <gpxtpx:hr>103</gpxtpx:hr>
          </gpxtpx:TrackPointExtension>
        </extensions>
      </trkpt>
      <trkpt lat="43.49918" lon="1.43143">
        <ele>125.40000152588</ele>
        <time>2020-06-10T13:51:46.000Z</time>
        <extensions>
          <gpxtpx:TrackPointExtension xmlns:gpxtpx="http://www.garmin.com/xmlschemas/TrackPointExtension/v1">
            <gpxtpx:hr>100</gpxtpx:hr>
          </gpxtpx:TrackPointExtension>
        </extensions>
      </trkpt>
      <trkpt lat="43.49915" lon="1.43153">
        <ele>125.80000305176</ele>
        <time>2020-06-10T13:51:49.000Z</time>
        <extensions>
          <gpxtpx:TrackPointExtension xmlns:gpxtpx="http://www.garmin.com/xmlschemas/TrackPointExtension/v1">
            <gpxtpx:hr>97</gpxtpx:hr>
          </gpxtpx:TrackPointExtension>
        </extensions>
      </trkpt>
      <trkpt lat="43.49912" lon="1.43166">
        <ele>126</ele>
        <time>2020-06-10T13:51:53.000Z</time>
        <extensions>
          <gpxtpx:TrackPointExtension xmlns:gpxtpx="http://www.garmin.com/xmlschemas/TrackPointExtension/v1">
            <gpxtpx:hr>94</gpxtpx:hr>
          </gpxtpx:TrackPointExtension>
        </extensions>
      </trkpt>
      <trkpt lat="43.4991" lon="1.43173">
        <ele>126.40000152588</ele>
        <time>2020-06-10T13:51:55.000Z</time>
        <extensions>
          <gpxtpx:TrackPointExtension xmlns:gpxtpx="http://www.garmin.com/xmlschemas/TrackPointExtension/v1">
            <gpxtpx:hr>94</gpxtpx:hr>
          </gpxtpx:TrackPointExtension>
        </extensions>
      </trkpt>
      <trkpt lat="43.49904" lon="1.4319">
        <ele>127.40000152588</ele>
        <time>2020-06-10T13:52:01.000Z</time>
        <extensions>
          <gpxtpx:TrackPointExtension xmlns:gpxtpx="http://www.garmin.com/xmlschemas/TrackPointExtension/v1">
            <gpxtpx:hr>93</gpxtpx:hr>
          </gpxtpx:TrackPointExtension>
        </extensions>
      </trkpt>
      <trkpt lat="43.49895" lon="1.43213">
        <ele>128.39999389648</ele>
        <time>2020-06-10T13:52:10.000Z</time>
        <extensions>
          <gpxtpx:TrackPointExtension xmlns:gpxtpx="http://www.garmin.com/xmlschemas/TrackPointExtension/v1">
            <gpxtpx:hr>92</gpxtpx:hr>
          </gpxtpx:TrackPointExtension>
        </extensions>
      </trkpt>
      <trkpt lat="43.49886" lon="1.43239">
        <ele>129.60000610352</ele>
        <time>2020-06-10T13:52:20.000Z</time>
        <extensions>
          <gpxtpx:TrackPointExtension xmlns:gpxtpx="http://www.garmin.com/xmlschemas/TrackPointExtension/v1">
            <gpxtpx:hr>95</gpxtpx:hr>
          </gpxtpx:TrackPointExtension>
        </extensions>
      </trkpt>
      <trkpt lat="43.49881" lon="1.43253">
        <ele>130.60000610352</ele>
        <time>2020-06-10T13:52:25.000Z</time>
        <extensions>
          <gpxtpx:TrackPointExtension xmlns:gpxtpx="http://www.garmin.com/xmlschemas/TrackPointExtension/v1">
            <gpxtpx:hr>98</gpxtpx:hr>
          </gpxtpx:TrackPointExtension>
        </extensions>
      </trkpt>
      <trkpt lat="43.4988" lon="1.43256">
        <ele>130.60000610352</ele>
        <time>2020-06-10T13:52:26.000Z</time>
        <extensions>
          <gpxtpx:TrackPointExtension xmlns:gpxtpx="http://www.garmin.com/xmlschemas/TrackPointExtension/v1">
            <gpxtpx:hr>98</gpxtpx:hr>
          </gpxtpx:TrackPointExtension>
        </extensions>
      </trkpt>
      <trkpt lat="43.49876" lon="1.43266">
        <ele>131.19999694824</ele>
        <time>2020-06-10T13:52:30.000Z</time>
        <extensions>
          <gpxtpx:TrackPointExtension xmlns:gpxtpx="http://www.garmin.com/xmlschemas/TrackPointExtension/v1">
            <gpxtpx:hr>101</gpxtpx:hr>
          </gpxtpx:TrackPointExtension>
        </extensions>
      </trkpt>
      <trkpt lat="43.49874" lon="1.43273">
        <ele>131.60000610352</ele>
        <time>2020-06-10T13:52:32.000Z</time>
        <extensions>
          <gpxtpx:TrackPointExtension xmlns:gpxtpx="http://www.garmin.com/xmlschemas/TrackPointExtension/v1">
            <gpxtpx:hr>102</gpxtpx:hr>
          </gpxtpx:TrackPointExtension>
        </extensions>
      </trkpt>
      <trkpt lat="43.49872" lon="1.43282">
        <ele>132.19999694824</ele>
        <time>2020-06-10T13:52:34.000Z</time>
        <extensions>
          <gpxtpx:TrackPointExtension xmlns:gpxtpx="http://www.garmin.com/xmlschemas/TrackPointExtension/v1">
            <gpxtpx:hr>105</gpxtpx:hr>
          </gpxtpx:TrackPointExtension>
        </extensions>
      </trkpt>
      <trkpt lat="43.4987" lon="1.43287">
        <ele>132.39999389648</ele>
        <time>2020-06-10T13:52:35.000Z</time>
        <extensions>
          <gpxtpx:TrackPointExtension xmlns:gpxtpx="http://www.garmin.com/xmlschemas/TrackPointExtension/v1">
            <gpxtpx:hr>105</gpxtpx:hr>
          </gpxtpx:TrackPointExtension>
        </extensions>
      </trkpt>
      <trkpt lat="43.49864" lon="1.43302">
        <ele>132.60000610352</ele>
        <time>2020-06-10T13:52:38.000Z</time>
        <extensions>
          <gpxtpx:TrackPointExtension xmlns:gpxtpx="http://www.garmin.com/xmlschemas/TrackPointExtension/v1">
            <gpxtpx:hr>108</gpxtpx:hr>
          </gpxtpx:TrackPointExtension>
        </extensions>
      </trkpt>
      <trkpt lat="43.49858" lon="1.43314">
        <ele>133.19999694824</ele>
        <time>2020-06-10T13:52:41.000Z</time>
        <extensions>
          <gpxtpx:TrackPointExtension xmlns:gpxtpx="http://www.garmin.com/xmlschemas/TrackPointExtension/v1">
            <gpxtpx:hr>111</gpxtpx:hr>
          </gpxtpx:TrackPointExtension>
        </extensions>
      </trkpt>
      <trkpt lat="43.49855" lon="1.43323">
        <ele>133.80000305176</ele>
        <time>2020-06-10T13:52:44.000Z</time>
        <extensions>
          <gpxtpx:TrackPointExtension xmlns:gpxtpx="http://www.garmin.com/xmlschemas/TrackPointExtension/v1">
            <gpxtpx:hr>113</gpxtpx:hr>
          </gpxtpx:TrackPointExtension>
        </extensions>
      </trkpt>
      <trkpt lat="43.49854" lon="1.43333">
        <ele>135.19999694824</ele>
        <time>2020-06-10T13:52:48.000Z</time>
        <extensions>
          <gpxtpx:TrackPointExtension xmlns:gpxtpx="http://www.garmin.com/xmlschemas/TrackPointExtension/v1">
            <gpxtpx:hr>114</gpxtpx:hr>
          </gpxtpx:TrackPointExtension>
        </extensions>
      </trkpt>
      <trkpt lat="43.49853" lon="1.43344">
        <ele>136.19999694824</ele>
        <time>2020-06-10T13:52:52.000Z</time>
        <extensions>
          <gpxtpx:TrackPointExtension xmlns:gpxtpx="http://www.garmin.com/xmlschemas/TrackPointExtension/v1">
            <gpxtpx:hr>113</gpxtpx:hr>
          </gpxtpx:TrackPointExtension>
        </extensions>
      </trkpt>
      <trkpt lat="43.49849" lon="1.43373">
        <ele>137.39999389648</ele>
        <time>2020-06-10T13:53:01.000Z</time>
        <extensions>
          <gpxtpx:TrackPointExtension xmlns:gpxtpx="http://www.garmin.com/xmlschemas/TrackPointExtension/v1">
            <gpxtpx:hr>112</gpxtpx:hr>
          </gpxtpx:TrackPointExtension>
        </extensions>
      </trkpt>
      <trkpt lat="43.49845" lon="1.43391">
        <ele>138.39999389648</ele>
        <time>2020-06-10T13:53:06.000Z</time>
        <extensions>
          <gpxtpx:TrackPointExtension xmlns:gpxtpx="http://www.garmin.com/xmlschemas/TrackPointExtension/v1">
            <gpxtpx:hr>113</gpxtpx:hr>
          </gpxtpx:TrackPointExtension>
        </extensions>
      </trkpt>
      <trkpt lat="43.49843" lon="1.43404">
        <ele>139.39999389648</ele>
        <time>2020-06-10T13:53:09.000Z</time>
        <extensions>
          <gpxtpx:TrackPointExtension xmlns:gpxtpx="http://www.garmin.com/xmlschemas/TrackPointExtension/v1">
            <gpxtpx:hr>116</gpxtpx:hr>
          </gpxtpx:TrackPointExtension>
        </extensions>
      </trkpt>
      <trkpt lat="43.49842" lon="1.43407">
        <ele>139.39999389648</ele>
        <time>2020-06-10T13:53:10.000Z</time>
        <extensions>
          <gpxtpx:TrackPointExtension xmlns:gpxtpx="http://www.garmin.com/xmlschemas/TrackPointExtension/v1">
            <gpxtpx:hr>116</gpxtpx:hr>
          </gpxtpx:TrackPointExtension>
        </extensions>
      </trkpt>
      <trkpt lat="43.49839" lon="1.43421">
        <ele>140.39999389648</ele>
        <time>2020-06-10T13:53:14.000Z</time>
        <extensions>
          <gpxtpx:TrackPointExtension xmlns:gpxtpx="http://www.garmin.com/xmlschemas/TrackPointExtension/v1">
            <gpxtpx:hr>119</gpxtpx:hr>
          </gpxtpx:TrackPointExtension>
        </extensions>
      </trkpt>
      <trkpt lat="43.49838" lon="1.43424">
        <ele>140.60000610352</ele>
        <time>2020-06-10T13:53:15.000Z</time>
        <extensions>
          <gpxtpx:TrackPointExtension xmlns:gpxtpx="http://www.garmin.com/xmlschemas/TrackPointExtension/v1">
            <gpxtpx:hr>120</gpxtpx:hr>
          </gpxtpx:TrackPointExtension>
        </extensions>
      </trkpt>
      <trkpt lat="43.4983" lon="1.43447">
        <ele>141.60000610352</ele>
        <time>2020-06-10T13:53:21.000Z</time>
        <extensions>
          <gpxtpx:TrackPointExtension xmlns:gpxtpx="http://www.garmin.com/xmlschemas/TrackPointExtension/v1">
            <gpxtpx:hr>122</gpxtpx:hr>
          </gpxtpx:TrackPointExtension>
        </extensions>
      </trkpt>
      <trkpt lat="43.49826" lon="1.43462">
        <ele>143.19999694824</ele>
        <time>2020-06-10T13:53:25.000Z</time>
        <extensions>
          <gpxtpx:TrackPointExtension xmlns:gpxtpx="http://www.garmin.com/xmlschemas/TrackPointExtension/v1">
            <gpxtpx:hr>123</gpxtpx:hr>
          </gpxtpx:TrackPointExtension>
        </extensions>
      </trkpt>
      <trkpt lat="43.49822" lon="1.43477">
        <ele>144.19999694824</ele>
        <time>2020-06-10T13:53:29.000Z</time>
        <extensions>
          <gpxtpx:TrackPointExtension xmlns:gpxtpx="http://www.garmin.com/xmlschemas/TrackPointExtension/v1">
            <gpxtpx:hr>123</gpxtpx:hr>
          </gpxtpx:TrackPointExtension>
        </extensions>
      </trkpt>
      <trkpt lat="43.49819" lon="1.43496">
        <ele>145.19999694824</ele>
        <time>2020-06-10T13:53:34.000Z</time>
        <extensions>
          <gpxtpx:TrackPointExtension xmlns:gpxtpx="http://www.garmin.com/xmlschemas/TrackPointExtension/v1">
            <gpxtpx:hr>122</gpxtpx:hr>
          </gpxtpx:TrackPointExtension>
        </extensions>
      </trkpt>
      <trkpt lat="43.49816" lon="1.4351">
        <ele>145.80000305176</ele>
        <time>2020-06-10T13:53:38.000Z</time>
        <extensions>
          <gpxtpx:TrackPointExtension xmlns:gpxtpx="http://www.garmin.com/xmlschemas/TrackPointExtension/v1">
            <gpxtpx:hr>119</gpxtpx:hr>
          </gpxtpx:TrackPointExtension>
        </extensions>
      </trkpt>
      <trkpt lat="43.49812" lon="1.43526">
        <ele>146.60000610352</ele>
        <time>2020-06-10T13:53:43.000Z</time>
        <extensions>
          <gpxtpx:TrackPointExtension xmlns:gpxtpx="http://www.garmin.com/xmlschemas/TrackPointExtension/v1">
            <gpxtpx:hr>117</gpxtpx:hr>
          </gpxtpx:TrackPointExtension>
        </extensions>
      </trkpt>
      <trkpt lat="43.49808" lon="1.43544">
        <ele>147.19999694824</ele>
        <time>2020-06-10T13:53:49.000Z</time>
        <extensions>
          <gpxtpx:TrackPointExtension xmlns:gpxtpx="http://www.garmin.com/xmlschemas/TrackPointExtension/v1">
            <gpxtpx:hr>114</gpxtpx:hr>
          </gpxtpx:TrackPointExtension>
        </extensions>
      </trkpt>
      <trkpt lat="43.49804" lon="1.43562">
        <ele>147.60000610352</ele>
        <time>2020-06-10T13:53:54.000Z</time>
        <extensions>
          <gpxtpx:TrackPointExtension xmlns:gpxtpx="http://www.garmin.com/xmlschemas/TrackPointExtension/v1">
            <gpxtpx:hr>112</gpxtpx:hr>
          </gpxtpx:TrackPointExtension>
        </extensions>
      </trkpt>
      <trkpt lat="43.49799" lon="1.43582">
        <ele>148.19999694824</ele>
        <time>2020-06-10T13:54:00.000Z</time>
        <extensions>
          <gpxtpx:TrackPointExtension xmlns:gpxtpx="http://www.garmin.com/xmlschemas/TrackPointExtension/v1">
            <gpxtpx:hr>109</gpxtpx:hr>
          </gpxtpx:TrackPointExtension>
        </extensions>
      </trkpt>
      <trkpt lat="43.49796" lon="1.43596">
        <ele>148.60000610352</ele>
        <time>2020-06-10T13:54:04.000Z</time>
        <extensions>
          <gpxtpx:TrackPointExtension xmlns:gpxtpx="http://www.garmin.com/xmlschemas/TrackPointExtension/v1">
            <gpxtpx:hr>109</gpxtpx:hr>
          </gpxtpx:TrackPointExtension>
        </extensions>
      </trkpt>
      <trkpt lat="43.4979" lon="1.4362">
        <ele>149.39999389648</ele>
        <time>2020-06-10T13:54:11.000Z</time>
        <extensions>
          <gpxtpx:TrackPointExtension xmlns:gpxtpx="http://www.garmin.com/xmlschemas/TrackPointExtension/v1">
            <gpxtpx:hr>105</gpxtpx:hr>
          </gpxtpx:TrackPointExtension>
        </extensions>
      </trkpt>
      <trkpt lat="43.49785" lon="1.43636">
        <ele>149.80000305176</ele>
        <time>2020-06-10T13:54:16.000Z</time>
        <extensions>
          <gpxtpx:TrackPointExtension xmlns:gpxtpx="http://www.garmin.com/xmlschemas/TrackPointExtension/v1">
            <gpxtpx:hr>103</gpxtpx:hr>
          </gpxtpx:TrackPointExtension>
        </extensions>
      </trkpt>
      <trkpt lat="43.49777" lon="1.43663">
        <ele>151</ele>
        <time>2020-06-10T13:54:24.000Z</time>
        <extensions>
          <gpxtpx:TrackPointExtension xmlns:gpxtpx="http://www.garmin.com/xmlschemas/TrackPointExtension/v1">
            <gpxtpx:hr>100</gpxtpx:hr>
          </gpxtpx:TrackPointExtension>
        </extensions>
      </trkpt>
      <trkpt lat="43.49776" lon="1.43667">
        <ele>151.19999694824</ele>
        <time>2020-06-10T13:54:25.000Z</time>
        <extensions>
          <gpxtpx:TrackPointExtension xmlns:gpxtpx="http://www.garmin.com/xmlschemas/TrackPointExtension/v1">
            <gpxtpx:hr>100</gpxtpx:hr>
          </gpxtpx:TrackPointExtension>
        </extensions>
      </trkpt>
      <trkpt lat="43.49768" lon="1.43694">
        <ele>151.80000305176</ele>
        <time>2020-06-10T13:54:33.000Z</time>
        <extensions>
          <gpxtpx:TrackPointExtension xmlns:gpxtpx="http://www.garmin.com/xmlschemas/TrackPointExtension/v1">
            <gpxtpx:hr>97</gpxtpx:hr>
          </gpxtpx:TrackPointExtension>
        </extensions>
      </trkpt>
      <trkpt lat="43.49764" lon="1.43708">
        <ele>152.19999694824</ele>
        <time>2020-06-10T13:54:37.000Z</time>
        <extensions>
          <gpxtpx:TrackPointExtension xmlns:gpxtpx="http://www.garmin.com/xmlschemas/TrackPointExtension/v1">
            <gpxtpx:hr>97</gpxtpx:hr>
          </gpxtpx:TrackPointExtension>
        </extensions>
      </trkpt>
      <trkpt lat="43.49755" lon="1.43727">
        <ele>152.60000610352</ele>
        <time>2020-06-10T13:54:44.000Z</time>
        <extensions>
          <gpxtpx:TrackPointExtension xmlns:gpxtpx="http://www.garmin.com/xmlschemas/TrackPointExtension/v1">
            <gpxtpx:hr>94</gpxtpx:hr>
          </gpxtpx:TrackPointExtension>
        </extensions>
      </trkpt>
      <trkpt lat="43.49744" lon="1.43755">
        <ele>153.39999389648</ele>
        <time>2020-06-10T13:54:52.000Z</time>
        <extensions>
          <gpxtpx:TrackPointExtension xmlns:gpxtpx="http://www.garmin.com/xmlschemas/TrackPointExtension/v1">
            <gpxtpx:hr>93</gpxtpx:hr>
          </gpxtpx:TrackPointExtension>
        </extensions>
      </trkpt>
      <trkpt lat="43.49733" lon="1.43786">
        <ele>154.39999389648</ele>
        <time>2020-06-10T13:55:02.000Z</time>
        <extensions>
          <gpxtpx:TrackPointExtension xmlns:gpxtpx="http://www.garmin.com/xmlschemas/TrackPointExtension/v1">
            <gpxtpx:hr>92</gpxtpx:hr>
          </gpxtpx:TrackPointExtension>
        </extensions>
      </trkpt>
      <trkpt lat="43.49723" lon="1.43809">
        <ele>154.80000305176</ele>
        <time>2020-06-10T13:55:09.000Z</time>
        <extensions>
          <gpxtpx:TrackPointExtension xmlns:gpxtpx="http://www.garmin.com/xmlschemas/TrackPointExtension/v1">
            <gpxtpx:hr>89</gpxtpx:hr>
          </gpxtpx:TrackPointExtension>
        </extensions>
      </trkpt>
      <trkpt lat="43.49709" lon="1.43835">
        <ele>155.80000305176</ele>
        <time>2020-06-10T13:55:19.000Z</time>
        <extensions>
          <gpxtpx:TrackPointExtension xmlns:gpxtpx="http://www.garmin.com/xmlschemas/TrackPointExtension/v1">
            <gpxtpx:hr>88</gpxtpx:hr>
          </gpxtpx:TrackPointExtension>
        </extensions>
      </trkpt>
      <trkpt lat="43.49694" lon="1.43864">
        <ele>156.80000305176</ele>
        <time>2020-06-10T13:55:29.000Z</time>
        <extensions>
          <gpxtpx:TrackPointExtension xmlns:gpxtpx="http://www.garmin.com/xmlschemas/TrackPointExtension/v1">
            <gpxtpx:hr>90</gpxtpx:hr>
          </gpxtpx:TrackPointExtension>
        </extensions>
      </trkpt>
      <trkpt lat="43.49687" lon="1.43878">
        <ele>157.19999694824</ele>
        <time>2020-06-10T13:55:33.000Z</time>
        <extensions>
          <gpxtpx:TrackPointExtension xmlns:gpxtpx="http://www.garmin.com/xmlschemas/TrackPointExtension/v1">
            <gpxtpx:hr>91</gpxtpx:hr>
          </gpxtpx:TrackPointExtension>
        </extensions>
      </trkpt>
      <trkpt lat="43.49677" lon="1.439">
        <ele>157.80000305176</ele>
        <time>2020-06-10T13:55:39.000Z</time>
        <extensions>
          <gpxtpx:TrackPointExtension xmlns:gpxtpx="http://www.garmin.com/xmlschemas/TrackPointExtension/v1">
            <gpxtpx:hr>92</gpxtpx:hr>
          </gpxtpx:TrackPointExtension>
        </extensions>
      </trkpt>
      <trkpt lat="43.49668" lon="1.43922">
        <ele>159</ele>
        <time>2020-06-10T13:55:46.000Z</time>
        <extensions>
          <gpxtpx:TrackPointExtension xmlns:gpxtpx="http://www.garmin.com/xmlschemas/TrackPointExtension/v1">
            <gpxtpx:hr>90</gpxtpx:hr>
          </gpxtpx:TrackPointExtension>
        </extensions>
      </trkpt>
      <trkpt lat="43.49653" lon="1.43959">
        <ele>160</ele>
        <time>2020-06-10T13:55:57.000Z</time>
        <extensions>
          <gpxtpx:TrackPointExtension xmlns:gpxtpx="http://www.garmin.com/xmlschemas/TrackPointExtension/v1">
            <gpxtpx:hr>89</gpxtpx:hr>
          </gpxtpx:TrackPointExtension>
        </extensions>
      </trkpt>
      <trkpt lat="43.49638" lon="1.44009">
        <ele>160.80000305176</ele>
        <time>2020-06-10T13:56:10.000Z</time>
        <extensions>
          <gpxtpx:TrackPointExtension xmlns:gpxtpx="http://www.garmin.com/xmlschemas/TrackPointExtension/v1">
            <gpxtpx:hr>86</gpxtpx:hr>
          </gpxtpx:TrackPointExtension>
        </extensions>
      </trkpt>
      <trkpt lat="43.49633" lon="1.44027">
        <ele>161.19999694824</ele>
        <time>2020-06-10T13:56:14.000Z</time>
        <extensions>
          <gpxtpx:TrackPointExtension xmlns:gpxtpx="http://www.garmin.com/xmlschemas/TrackPointExtension/v1">
            <gpxtpx:hr>86</gpxtpx:hr>
          </gpxtpx:TrackPointExtension>
        </extensions>
      </trkpt>
      <trkpt lat="43.49618" lon="1.44103">
        <ele>161.39999389648</ele>
        <time>2020-06-10T13:56:31.000Z</time>
        <extensions>
          <gpxtpx:TrackPointExtension xmlns:gpxtpx="http://www.garmin.com/xmlschemas/TrackPointExtension/v1">
            <gpxtpx:hr>84</gpxtpx:hr>
          </gpxtpx:TrackPointExtension>
        </extensions>
      </trkpt>
      <trkpt lat="43.49608" lon="1.44166">
        <ele>162.19999694824</ele>
        <time>2020-06-10T13:56:45.000Z</time>
        <extensions>
          <gpxtpx:TrackPointExtension xmlns:gpxtpx="http://www.garmin.com/xmlschemas/TrackPointExtension/v1">
            <gpxtpx:hr>83</gpxtpx:hr>
          </gpxtpx:TrackPointExtension>
        </extensions>
      </trkpt>
      <trkpt lat="43.496" lon="1.44217">
        <ele>162.19999694824</ele>
        <time>2020-06-10T13:56:54.000Z</time>
        <extensions>
          <gpxtpx:TrackPointExtension xmlns:gpxtpx="http://www.garmin.com/xmlschemas/TrackPointExtension/v1">
            <gpxtpx:hr>80</gpxtpx:hr>
          </gpxtpx:TrackPointExtension>
        </extensions>
      </trkpt>
      <trkpt lat="43.49597" lon="1.44247">
        <ele>162.19999694824</ele>
        <time>2020-06-10T13:57:00.000Z</time>
        <extensions>
          <gpxtpx:TrackPointExtension xmlns:gpxtpx="http://www.garmin.com/xmlschemas/TrackPointExtension/v1">
            <gpxtpx:hr>77</gpxtpx:hr>
          </gpxtpx:TrackPointExtension>
        </extensions>
      </trkpt>
      <trkpt lat="43.49589" lon="1.44312">
        <ele>162</ele>
        <time>2020-06-10T13:57:12.000Z</time>
        <extensions>
          <gpxtpx:TrackPointExtension xmlns:gpxtpx="http://www.garmin.com/xmlschemas/TrackPointExtension/v1">
            <gpxtpx:hr>74</gpxtpx:hr>
          </gpxtpx:TrackPointExtension>
        </extensions>
      </trkpt>
      <trkpt lat="43.49585" lon="1.4434">
        <ele>162</ele>
        <time>2020-06-10T13:57:17.000Z</time>
        <extensions>
          <gpxtpx:TrackPointExtension xmlns:gpxtpx="http://www.garmin.com/xmlschemas/TrackPointExtension/v1">
            <gpxtpx:hr>71</gpxtpx:hr>
          </gpxtpx:TrackPointExtension>
        </extensions>
      </trkpt>
      <trkpt lat="43.49572" lon="1.44414">
        <ele>162</ele>
        <time>2020-06-10T13:57:31.000Z</time>
        <extensions>
          <gpxtpx:TrackPointExtension xmlns:gpxtpx="http://www.garmin.com/xmlschemas/TrackPointExtension/v1">
            <gpxtpx:hr>73</gpxtpx:hr>
          </gpxtpx:TrackPointExtension>
        </extensions>
      </trkpt>
      <trkpt lat="43.49569" lon="1.44444">
        <ele>162.39999389648</ele>
        <time>2020-06-10T13:57:37.000Z</time>
        <extensions>
          <gpxtpx:TrackPointExtension xmlns:gpxtpx="http://www.garmin.com/xmlschemas/TrackPointExtension/v1">
            <gpxtpx:hr>75</gpxtpx:hr>
          </gpxtpx:TrackPointExtension>
        </extensions>
      </trkpt>
      <trkpt lat="43.49567" lon="1.44483">
        <ele>162.80000305176</ele>
        <time>2020-06-10T13:57:44.000Z</time>
        <extensions>
          <gpxtpx:TrackPointExtension xmlns:gpxtpx="http://www.garmin.com/xmlschemas/TrackPointExtension/v1">
            <gpxtpx:hr>75</gpxtpx:hr>
          </gpxtpx:TrackPointExtension>
        </extensions>
      </trkpt>
      <trkpt lat="43.49564" lon="1.44513">
        <ele>163</ele>
        <time>2020-06-10T13:57:49.000Z</time>
        <extensions>
          <gpxtpx:TrackPointExtension xmlns:gpxtpx="http://www.garmin.com/xmlschemas/TrackPointExtension/v1">
            <gpxtpx:hr>78</gpxtpx:hr>
          </gpxtpx:TrackPointExtension>
        </extensions>
      </trkpt>
      <trkpt lat="43.49562" lon="1.44524">
        <ele>163</ele>
        <time>2020-06-10T13:57:51.000Z</time>
        <extensions>
          <gpxtpx:TrackPointExtension xmlns:gpxtpx="http://www.garmin.com/xmlschemas/TrackPointExtension/v1">
            <gpxtpx:hr>82</gpxtpx:hr>
          </gpxtpx:TrackPointExtension>
        </extensions>
      </trkpt>
      <trkpt lat="43.4956" lon="1.446">
        <ele>163.39999389648</ele>
        <time>2020-06-10T13:58:04.000Z</time>
        <extensions>
          <gpxtpx:TrackPointExtension xmlns:gpxtpx="http://www.garmin.com/xmlschemas/TrackPointExtension/v1">
            <gpxtpx:hr>79</gpxtpx:hr>
          </gpxtpx:TrackPointExtension>
        </extensions>
      </trkpt>
      <trkpt lat="43.49568" lon="1.44671">
        <ele>162.60000610352</ele>
        <time>2020-06-10T13:58:12.000Z</time>
        <extensions>
          <gpxtpx:TrackPointExtension xmlns:gpxtpx="http://www.garmin.com/xmlschemas/TrackPointExtension/v1">
            <gpxtpx:hr>76</gpxtpx:hr>
          </gpxtpx:TrackPointExtension>
        </extensions>
      </trkpt>
      <trkpt lat="43.49571" lon="1.44701">
        <ele>161.39999389648</ele>
        <time>2020-06-10T13:58:15.000Z</time>
        <extensions>
          <gpxtpx:TrackPointExtension xmlns:gpxtpx="http://www.garmin.com/xmlschemas/TrackPointExtension/v1">
            <gpxtpx:hr>74</gpxtpx:hr>
          </gpxtpx:TrackPointExtension>
        </extensions>
      </trkpt>
      <trkpt lat="43.49572" lon="1.44721">
        <ele>160.19999694824</ele>
        <time>2020-06-10T13:58:17.000Z</time>
        <extensions>
          <gpxtpx:TrackPointExtension xmlns:gpxtpx="http://www.garmin.com/xmlschemas/TrackPointExtension/v1">
            <gpxtpx:hr>73</gpxtpx:hr>
          </gpxtpx:TrackPointExtension>
        </extensions>
      </trkpt>
      <trkpt lat="43.49574" lon="1.44749">
        <ele>159</ele>
        <time>2020-06-10T13:58:20.000Z</time>
        <extensions>
          <gpxtpx:TrackPointExtension xmlns:gpxtpx="http://www.garmin.com/xmlschemas/TrackPointExtension/v1">
            <gpxtpx:hr>71</gpxtpx:hr>
          </gpxtpx:TrackPointExtension>
        </extensions>
      </trkpt>
      <trkpt lat="43.49574" lon="1.44788">
        <ele>158.60000610352</ele>
        <time>2020-06-10T13:58:25.000Z</time>
        <extensions>
          <gpxtpx:TrackPointExtension xmlns:gpxtpx="http://www.garmin.com/xmlschemas/TrackPointExtension/v1">
            <gpxtpx:hr>68</gpxtpx:hr>
          </gpxtpx:TrackPointExtension>
        </extensions>
      </trkpt>
      <trkpt lat="43.49571" lon="1.44833">
        <ele>159.39999389648</ele>
        <time>2020-06-10T13:58:32.000Z</time>
        <extensions>
          <gpxtpx:TrackPointExtension xmlns:gpxtpx="http://www.garmin.com/xmlschemas/TrackPointExtension/v1">
            <gpxtpx:hr>71</gpxtpx:hr>
          </gpxtpx:TrackPointExtension>
        </extensions>
      </trkpt>
      <trkpt lat="43.49568" lon="1.44856">
        <ele>160</ele>
        <time>2020-06-10T13:58:35.000Z</time>
        <extensions>
          <gpxtpx:TrackPointExtension xmlns:gpxtpx="http://www.garmin.com/xmlschemas/TrackPointExtension/v1">
            <gpxtpx:hr>75</gpxtpx:hr>
          </gpxtpx:TrackPointExtension>
        </extensions>
      </trkpt>
      <trkpt lat="43.49567" lon="1.44863">
        <ele>160.19999694824</ele>
        <time>2020-06-10T13:58:36.000Z</time>
        <extensions>
          <gpxtpx:TrackPointExtension xmlns:gpxtpx="http://www.garmin.com/xmlschemas/TrackPointExtension/v1">
            <gpxtpx:hr>77</gpxtpx:hr>
          </gpxtpx:TrackPointExtension>
        </extensions>
      </trkpt>
      <trkpt lat="43.49565" lon="1.44885">
        <ele>160.60000610352</ele>
        <time>2020-06-10T13:58:39.000Z</time>
        <extensions>
          <gpxtpx:TrackPointExtension xmlns:gpxtpx="http://www.garmin.com/xmlschemas/TrackPointExtension/v1">
            <gpxtpx:hr>80</gpxtpx:hr>
          </gpxtpx:TrackPointExtension>
        </extensions>
      </trkpt>
      <trkpt lat="43.49563" lon="1.44905">
        <ele>161</ele>
        <time>2020-06-10T13:58:42.000Z</time>
        <extensions>
          <gpxtpx:TrackPointExtension xmlns:gpxtpx="http://www.garmin.com/xmlschemas/TrackPointExtension/v1">
            <gpxtpx:hr>83</gpxtpx:hr>
          </gpxtpx:TrackPointExtension>
        </extensions>
      </trkpt>
      <trkpt lat="43.49562" lon="1.44911">
        <ele>161.39999389648</ele>
        <time>2020-06-10T13:58:43.000Z</time>
        <extensions>
          <gpxtpx:TrackPointExtension xmlns:gpxtpx="http://www.garmin.com/xmlschemas/TrackPointExtension/v1">
            <gpxtpx:hr>83</gpxtpx:hr>
          </gpxtpx:TrackPointExtension>
        </extensions>
      </trkpt>
      <trkpt lat="43.4956" lon="1.44937">
        <ele>162.60000610352</ele>
        <time>2020-06-10T13:58:48.000Z</time>
        <extensions>
          <gpxtpx:TrackPointExtension xmlns:gpxtpx="http://www.garmin.com/xmlschemas/TrackPointExtension/v1">
            <gpxtpx:hr>85</gpxtpx:hr>
          </gpxtpx:TrackPointExtension>
        </extensions>
      </trkpt>
      <trkpt lat="43.49558" lon="1.44953">
        <ele>163.80000305176</ele>
        <time>2020-06-10T13:58:51.000Z</time>
        <extensions>
          <gpxtpx:TrackPointExtension xmlns:gpxtpx="http://www.garmin.com/xmlschemas/TrackPointExtension/v1">
            <gpxtpx:hr>88</gpxtpx:hr>
          </gpxtpx:TrackPointExtension>
        </extensions>
      </trkpt>
      <trkpt lat="43.49558" lon="1.44969">
        <ele>164.60000610352</ele>
        <time>2020-06-10T13:58:54.000Z</time>
        <extensions>
          <gpxtpx:TrackPointExtension xmlns:gpxtpx="http://www.garmin.com/xmlschemas/TrackPointExtension/v1">
            <gpxtpx:hr>91</gpxtpx:hr>
          </gpxtpx:TrackPointExtension>
        </extensions>
      </trkpt>
      <trkpt lat="43.49557" lon="1.44975">
        <ele>164.80000305176</ele>
        <time>2020-06-10T13:58:55.000Z</time>
        <extensions>
          <gpxtpx:TrackPointExtension xmlns:gpxtpx="http://www.garmin.com/xmlschemas/TrackPointExtension/v1">
            <gpxtpx:hr>91</gpxtpx:hr>
          </gpxtpx:TrackPointExtension>
        </extensions>
      </trkpt>
      <trkpt lat="43.49557" lon="1.44997">
        <ele>165.60000610352</ele>
        <time>2020-06-10T13:58:59.000Z</time>
        <extensions>
          <gpxtpx:TrackPointExtension xmlns:gpxtpx="http://www.garmin.com/xmlschemas/TrackPointExtension/v1">
            <gpxtpx:hr>94</gpxtpx:hr>
          </gpxtpx:TrackPointExtension>
        </extensions>
      </trkpt>
      <trkpt lat="43.49556" lon="1.45008">
        <ele>166</ele>
        <time>2020-06-10T13:59:01.000Z</time>
        <extensions>
          <gpxtpx:TrackPointExtension xmlns:gpxtpx="http://www.garmin.com/xmlschemas/TrackPointExtension/v1">
            <gpxtpx:hr>97</gpxtpx:hr>
          </gpxtpx:TrackPointExtension>
        </extensions>
      </trkpt>
      <trkpt lat="43.49556" lon="1.45023">
        <ele>166.60000610352</ele>
        <time>2020-06-10T13:59:04.000Z</time>
        <extensions>
          <gpxtpx:TrackPointExtension xmlns:gpxtpx="http://www.garmin.com/xmlschemas/TrackPointExtension/v1">
            <gpxtpx:hr>101</gpxtpx:hr>
          </gpxtpx:TrackPointExtension>
        </extensions>
      </trkpt>
      <trkpt lat="43.49556" lon="1.45043">
        <ele>167.19999694824</ele>
        <time>2020-06-10T13:59:08.000Z</time>
        <extensions>
          <gpxtpx:TrackPointExtension xmlns:gpxtpx="http://www.garmin.com/xmlschemas/TrackPointExtension/v1">
            <gpxtpx:hr>104</gpxtpx:hr>
          </gpxtpx:TrackPointExtension>
        </extensions>
      </trkpt>
      <trkpt lat="43.49553" lon="1.45063">
        <ele>168.19999694824</ele>
        <time>2020-06-10T13:59:12.000Z</time>
        <extensions>
          <gpxtpx:TrackPointExtension xmlns:gpxtpx="http://www.garmin.com/xmlschemas/TrackPointExtension/v1">
            <gpxtpx:hr>106</gpxtpx:hr>
          </gpxtpx:TrackPointExtension>
        </extensions>
      </trkpt>
      <trkpt lat="43.49551" lon="1.45101">
        <ele>169.19999694824</ele>
        <time>2020-06-10T13:59:19.000Z</time>
        <extensions>
          <gpxtpx:TrackPointExtension xmlns:gpxtpx="http://www.garmin.com/xmlschemas/TrackPointExtension/v1">
            <gpxtpx:hr>106</gpxtpx:hr>
          </gpxtpx:TrackPointExtension>
        </extensions>
      </trkpt>
      <trkpt lat="43.49549" lon="1.45152">
        <ele>170.39999389648</ele>
        <time>2020-06-10T13:59:29.000Z</time>
        <extensions>
          <gpxtpx:TrackPointExtension xmlns:gpxtpx="http://www.garmin.com/xmlschemas/TrackPointExtension/v1">
            <gpxtpx:hr>107</gpxtpx:hr>
          </gpxtpx:TrackPointExtension>
        </extensions>
      </trkpt>
      <trkpt lat="43.49548" lon="1.4519">
        <ele>171.39999389648</ele>
        <time>2020-06-10T13:59:37.000Z</time>
        <extensions>
          <gpxtpx:TrackPointExtension xmlns:gpxtpx="http://www.garmin.com/xmlschemas/TrackPointExtension/v1">
            <gpxtpx:hr>107</gpxtpx:hr>
          </gpxtpx:TrackPointExtension>
        </extensions>
      </trkpt>
      <trkpt lat="43.49547" lon="1.45215">
        <ele>172.39999389648</ele>
        <time>2020-06-10T13:59:42.000Z</time>
        <extensions>
          <gpxtpx:TrackPointExtension xmlns:gpxtpx="http://www.garmin.com/xmlschemas/TrackPointExtension/v1">
            <gpxtpx:hr>107</gpxtpx:hr>
          </gpxtpx:TrackPointExtension>
        </extensions>
      </trkpt>
      <trkpt lat="43.49545" lon="1.45258">
        <ele>173.60000610352</ele>
        <time>2020-06-10T13:59:51.000Z</time>
        <extensions>
          <gpxtpx:TrackPointExtension xmlns:gpxtpx="http://www.garmin.com/xmlschemas/TrackPointExtension/v1">
            <gpxtpx:hr>107</gpxtpx:hr>
          </gpxtpx:TrackPointExtension>
        </extensions>
      </trkpt>
      <trkpt lat="43.49541" lon="1.45295">
        <ele>174.60000610352</ele>
        <time>2020-06-10T13:59:59.000Z</time>
        <extensions>
          <gpxtpx:TrackPointExtension xmlns:gpxtpx="http://www.garmin.com/xmlschemas/TrackPointExtension/v1">
            <gpxtpx:hr>107</gpxtpx:hr>
          </gpxtpx:TrackPointExtension>
        </extensions>
      </trkpt>
      <trkpt lat="43.49535" lon="1.45336">
        <ele>175.80000305176</ele>
        <time>2020-06-10T14:00:08.000Z</time>
        <extensions>
          <gpxtpx:TrackPointExtension xmlns:gpxtpx="http://www.garmin.com/xmlschemas/TrackPointExtension/v1">
            <gpxtpx:hr>106</gpxtpx:hr>
          </gpxtpx:TrackPointExtension>
        </extensions>
      </trkpt>
      <trkpt lat="43.49531" lon="1.45363">
        <ele>177</ele>
        <time>2020-06-10T14:00:15.000Z</time>
        <extensions>
          <gpxtpx:TrackPointExtension xmlns:gpxtpx="http://www.garmin.com/xmlschemas/TrackPointExtension/v1">
            <gpxtpx:hr>104</gpxtpx:hr>
          </gpxtpx:TrackPointExtension>
        </extensions>
      </trkpt>
      <trkpt lat="43.49525" lon="1.45385">
        <ele>178</ele>
        <time>2020-06-10T14:00:22.000Z</time>
        <extensions>
          <gpxtpx:TrackPointExtension xmlns:gpxtpx="http://www.garmin.com/xmlschemas/TrackPointExtension/v1">
            <gpxtpx:hr>101</gpxtpx:hr>
          </gpxtpx:TrackPointExtension>
        </extensions>
      </trkpt>
      <trkpt lat="43.49521" lon="1.45398">
        <ele>179.19999694824</ele>
        <time>2020-06-10T14:00:27.000Z</time>
        <extensions>
          <gpxtpx:TrackPointExtension xmlns:gpxtpx="http://www.garmin.com/xmlschemas/TrackPointExtension/v1">
            <gpxtpx:hr>99</gpxtpx:hr>
          </gpxtpx:TrackPointExtension>
        </extensions>
      </trkpt>
      <trkpt lat="43.49522" lon="1.45401">
        <ele>179.39999389648</ele>
        <time>2020-06-10T14:00:28.000Z</time>
        <extensions>
          <gpxtpx:TrackPointExtension xmlns:gpxtpx="http://www.garmin.com/xmlschemas/TrackPointExtension/v1">
            <gpxtpx:hr>98</gpxtpx:hr>
          </gpxtpx:TrackPointExtension>
        </extensions>
      </trkpt>
      <trkpt lat="43.49523" lon="1.45403">
        <ele>179.60000610352</ele>
        <time>2020-06-10T14:00:29.000Z</time>
        <extensions>
          <gpxtpx:TrackPointExtension xmlns:gpxtpx="http://www.garmin.com/xmlschemas/TrackPointExtension/v1">
            <gpxtpx:hr>98</gpxtpx:hr>
          </gpxtpx:TrackPointExtension>
        </extensions>
      </trkpt>
      <trkpt lat="43.49526" lon="1.45402">
        <ele>179.60000610352</ele>
        <time>2020-06-10T14:03:23.000Z</time>
        <extensions>
          <gpxtpx:TrackPointExtension xmlns:gpxtpx="http://www.garmin.com/xmlschemas/TrackPointExtension/v1">
            <gpxtpx:hr>66</gpxtpx:hr>
          </gpxtpx:TrackPointExtension>
        </extensions>
      </trkpt>
      <trkpt lat="43.49526" lon="1.45401">
        <ele>179.60000610352</ele>
        <time>2020-06-10T14:03:24.000Z</time>
        <extensions>
          <gpxtpx:TrackPointExtension xmlns:gpxtpx="http://www.garmin.com/xmlschemas/TrackPointExtension/v1">
            <gpxtpx:hr>67</gpxtpx:hr>
          </gpxtpx:TrackPointExtension>
        </extensions>
      </trkpt>
      <trkpt lat="43.49532" lon="1.454">
        <ele>179.60000610352</ele>
        <time>2020-06-10T14:03:27.000Z</time>
        <extensions>
          <gpxtpx:TrackPointExtension xmlns:gpxtpx="http://www.garmin.com/xmlschemas/TrackPointExtension/v1">
            <gpxtpx:hr>70</gpxtpx:hr>
          </gpxtpx:TrackPointExtension>
        </extensions>
      </trkpt>
      <trkpt lat="43.49544" lon="1.45402">
        <ele>179.60000610352</ele>
        <time>2020-06-10T14:03:31.000Z</time>
        <extensions>
          <gpxtpx:TrackPointExtension xmlns:gpxtpx="http://www.garmin.com/xmlschemas/TrackPointExtension/v1">
            <gpxtpx:hr>73</gpxtpx:hr>
          </gpxtpx:TrackPointExtension>
        </extensions>
      </trkpt>
      <trkpt lat="43.4958" lon="1.45421">
        <ele>178.39999389648</ele>
        <time>2020-06-10T14:03:37.000Z</time>
        <extensions>
          <gpxtpx:TrackPointExtension xmlns:gpxtpx="http://www.garmin.com/xmlschemas/TrackPointExtension/v1">
            <gpxtpx:hr>73</gpxtpx:hr>
          </gpxtpx:TrackPointExtension>
        </extensions>
      </trkpt>
      <trkpt lat="43.49586" lon="1.45428">
        <ele>177.80000305176</ele>
        <time>2020-06-10T14:03:38.000Z</time>
        <extensions>
          <gpxtpx:TrackPointExtension xmlns:gpxtpx="http://www.garmin.com/xmlschemas/TrackPointExtension/v1">
            <gpxtpx:hr>72</gpxtpx:hr>
          </gpxtpx:TrackPointExtension>
        </extensions>
      </trkpt>
      <trkpt lat="43.49593" lon="1.45435">
        <ele>177.19999694824</ele>
        <time>2020-06-10T14:03:39.000Z</time>
        <extensions>
          <gpxtpx:TrackPointExtension xmlns:gpxtpx="http://www.garmin.com/xmlschemas/TrackPointExtension/v1">
            <gpxtpx:hr>72</gpxtpx:hr>
          </gpxtpx:TrackPointExtension>
        </extensions>
      </trkpt>
      <trkpt lat="43.49603" lon="1.45455">
        <ele>175.80000305176</ele>
        <time>2020-06-10T14:03:41.000Z</time>
        <extensions>
          <gpxtpx:TrackPointExtension xmlns:gpxtpx="http://www.garmin.com/xmlschemas/TrackPointExtension/v1">
            <gpxtpx:hr>72</gpxtpx:hr>
          </gpxtpx:TrackPointExtension>
        </extensions>
      </trkpt>
      <trkpt lat="43.49607" lon="1.45466">
        <ele>174.80000305176</ele>
        <time>2020-06-10T14:03:42.000Z</time>
        <extensions>
          <gpxtpx:TrackPointExtension xmlns:gpxtpx="http://www.garmin.com/xmlschemas/TrackPointExtension/v1">
            <gpxtpx:hr>72</gpxtpx:hr>
          </gpxtpx:TrackPointExtension>
        </extensions>
      </trkpt>
      <trkpt lat="43.4961" lon="1.45477">
        <ele>173.60000610352</ele>
        <time>2020-06-10T14:03:43.000Z</time>
        <extensions>
          <gpxtpx:TrackPointExtension xmlns:gpxtpx="http://www.garmin.com/xmlschemas/TrackPointExtension/v1">
            <gpxtpx:hr>71</gpxtpx:hr>
          </gpxtpx:TrackPointExtension>
        </extensions>
      </trkpt>
      <trkpt lat="43.49616" lon="1.45498">
        <ele>172.19999694824</ele>
        <time>2020-06-10T14:03:45.000Z</time>
        <extensions>
          <gpxtpx:TrackPointExtension xmlns:gpxtpx="http://www.garmin.com/xmlschemas/TrackPointExtension/v1">
            <gpxtpx:hr>71</gpxtpx:hr>
          </gpxtpx:TrackPointExtension>
        </extensions>
      </trkpt>
      <trkpt lat="43.49618" lon="1.45508">
        <ele>171</ele>
        <time>2020-06-10T14:03:46.000Z</time>
        <extensions>
          <gpxtpx:TrackPointExtension xmlns:gpxtpx="http://www.garmin.com/xmlschemas/TrackPointExtension/v1">
            <gpxtpx:hr>71</gpxtpx:hr>
          </gpxtpx:TrackPointExtension>
        </extensions>
      </trkpt>
      <trkpt lat="43.49623" lon="1.45526">
        <ele>169.19999694824</ele>
        <time>2020-06-10T14:03:48.000Z</time>
        <extensions>
          <gpxtpx:TrackPointExtension xmlns:gpxtpx="http://www.garmin.com/xmlschemas/TrackPointExtension/v1">
            <gpxtpx:hr>71</gpxtpx:hr>
          </gpxtpx:TrackPointExtension>
        </extensions>
      </trkpt>
      <trkpt lat="43.49627" lon="1.45546">
        <ele>168.19999694824</ele>
        <time>2020-06-10T14:03:50.000Z</time>
        <extensions>
          <gpxtpx:TrackPointExtension xmlns:gpxtpx="http://www.garmin.com/xmlschemas/TrackPointExtension/v1">
            <gpxtpx:hr>71</gpxtpx:hr>
          </gpxtpx:TrackPointExtension>
        </extensions>
      </trkpt>
      <trkpt lat="43.49635" lon="1.45588">
        <ele>167</ele>
        <time>2020-06-10T14:03:54.000Z</time>
        <extensions>
          <gpxtpx:TrackPointExtension xmlns:gpxtpx="http://www.garmin.com/xmlschemas/TrackPointExtension/v1">
            <gpxtpx:hr>69</gpxtpx:hr>
          </gpxtpx:TrackPointExtension>
        </extensions>
      </trkpt>
      <trkpt lat="43.4964" lon="1.4562">
        <ele>165.60000610352</ele>
        <time>2020-06-10T14:03:57.000Z</time>
        <extensions>
          <gpxtpx:TrackPointExtension xmlns:gpxtpx="http://www.garmin.com/xmlschemas/TrackPointExtension/v1">
            <gpxtpx:hr>69</gpxtpx:hr>
          </gpxtpx:TrackPointExtension>
        </extensions>
      </trkpt>
      <trkpt lat="43.49645" lon="1.45657">
        <ele>164.19999694824</ele>
        <time>2020-06-10T14:04:00.000Z</time>
        <extensions>
          <gpxtpx:TrackPointExtension xmlns:gpxtpx="http://www.garmin.com/xmlschemas/TrackPointExtension/v1">
            <gpxtpx:hr>68</gpxtpx:hr>
          </gpxtpx:TrackPointExtension>
        </extensions>
      </trkpt>
      <trkpt lat="43.49646" lon="1.45671">
        <ele>163</ele>
        <time>2020-06-10T14:04:01.000Z</time>
        <extensions>
          <gpxtpx:TrackPointExtension xmlns:gpxtpx="http://www.garmin.com/xmlschemas/TrackPointExtension/v1">
            <gpxtpx:hr>68</gpxtpx:hr>
          </gpxtpx:TrackPointExtension>
        </extensions>
      </trkpt>
      <trkpt lat="43.4965" lon="1.45698">
        <ele>161.60000610352</ele>
        <time>2020-06-10T14:04:03.000Z</time>
        <extensions>
          <gpxtpx:TrackPointExtension xmlns:gpxtpx="http://www.garmin.com/xmlschemas/TrackPointExtension/v1">
            <gpxtpx:hr>67</gpxtpx:hr>
          </gpxtpx:TrackPointExtension>
        </extensions>
      </trkpt>
      <trkpt lat="43.49652" lon="1.45725">
        <ele>159.80000305176</ele>
        <time>2020-06-10T14:04:05.000Z</time>
        <extensions>
          <gpxtpx:TrackPointExtension xmlns:gpxtpx="http://www.garmin.com/xmlschemas/TrackPointExtension/v1">
            <gpxtpx:hr>66</gpxtpx:hr>
          </gpxtpx:TrackPointExtension>
        </extensions>
      </trkpt>
      <trkpt lat="43.49653" lon="1.45738">
        <ele>158.60000610352</ele>
        <time>2020-06-10T14:04:06.000Z</time>
        <extensions>
          <gpxtpx:TrackPointExtension xmlns:gpxtpx="http://www.garmin.com/xmlschemas/TrackPointExtension/v1">
            <gpxtpx:hr>66</gpxtpx:hr>
          </gpxtpx:TrackPointExtension>
        </extensions>
      </trkpt>
      <trkpt lat="43.49657" lon="1.45765">
        <ele>157</ele>
        <time>2020-06-10T14:04:08.000Z</time>
        <extensions>
          <gpxtpx:TrackPointExtension xmlns:gpxtpx="http://www.garmin.com/xmlschemas/TrackPointExtension/v1">
            <gpxtpx:hr>66</gpxtpx:hr>
          </gpxtpx:TrackPointExtension>
        </extensions>
      </trkpt>
      <trkpt lat="43.49661" lon="1.45788">
        <ele>155.60000610352</ele>
        <time>2020-06-10T14:04:10.000Z</time>
        <extensions>
          <gpxtpx:TrackPointExtension xmlns:gpxtpx="http://www.garmin.com/xmlschemas/TrackPointExtension/v1">
            <gpxtpx:hr>66</gpxtpx:hr>
          </gpxtpx:TrackPointExtension>
        </extensions>
      </trkpt>
      <trkpt lat="43.49667" lon="1.45807">
        <ele>153.80000305176</ele>
        <time>2020-06-10T14:04:12.000Z</time>
        <extensions>
          <gpxtpx:TrackPointExtension xmlns:gpxtpx="http://www.garmin.com/xmlschemas/TrackPointExtension/v1">
            <gpxtpx:hr>65</gpxtpx:hr>
          </gpxtpx:TrackPointExtension>
        </extensions>
      </trkpt>
      <trkpt lat="43.49671" lon="1.45814">
        <ele>152.60000610352</ele>
        <time>2020-06-10T14:04:13.000Z</time>
        <extensions>
          <gpxtpx:TrackPointExtension xmlns:gpxtpx="http://www.garmin.com/xmlschemas/TrackPointExtension/v1">
            <gpxtpx:hr>65</gpxtpx:hr>
          </gpxtpx:TrackPointExtension>
        </extensions>
      </trkpt>
      <trkpt lat="43.49679" lon="1.45824">
        <ele>151.19999694824</ele>
        <time>2020-06-10T14:04:15.000Z</time>
        <extensions>
          <gpxtpx:TrackPointExtension xmlns:gpxtpx="http://www.garmin.com/xmlschemas/TrackPointExtension/v1">
            <gpxtpx:hr>65</gpxtpx:hr>
          </gpxtpx:TrackPointExtension>
        </extensions>
      </trkpt>
      <trkpt lat="43.49689" lon="1.45833">
        <ele>150.19999694824</ele>
        <time>2020-06-10T14:04:18.000Z</time>
        <extensions>
          <gpxtpx:TrackPointExtension xmlns:gpxtpx="http://www.garmin.com/xmlschemas/TrackPointExtension/v1">
            <gpxtpx:hr>64</gpxtpx:hr>
          </gpxtpx:TrackPointExtension>
        </extensions>
      </trkpt>
      <trkpt lat="43.49697" lon="1.45849">
        <ele>149</ele>
        <time>2020-06-10T14:04:25.000Z</time>
        <extensions>
          <gpxtpx:TrackPointExtension xmlns:gpxtpx="http://www.garmin.com/xmlschemas/TrackPointExtension/v1">
            <gpxtpx:hr>65</gpxtpx:hr>
          </gpxtpx:TrackPointExtension>
        </extensions>
      </trkpt>
      <trkpt lat="43.49691" lon="1.4586">
        <ele>148.60000610352</ele>
        <time>2020-06-10T14:04:29.000Z</time>
        <extensions>
          <gpxtpx:TrackPointExtension xmlns:gpxtpx="http://www.garmin.com/xmlschemas/TrackPointExtension/v1">
            <gpxtpx:hr>68</gpxtpx:hr>
          </gpxtpx:TrackPointExtension>
        </extensions>
      </trkpt>
      <trkpt lat="43.49685" lon="1.45869">
        <ele>148.39999389648</ele>
        <time>2020-06-10T14:04:32.000Z</time>
        <extensions>
          <gpxtpx:TrackPointExtension xmlns:gpxtpx="http://www.garmin.com/xmlschemas/TrackPointExtension/v1">
            <gpxtpx:hr>71</gpxtpx:hr>
          </gpxtpx:TrackPointExtension>
        </extensions>
      </trkpt>
      <trkpt lat="43.49679" lon="1.45879">
        <ele>148.39999389648</ele>
        <time>2020-06-10T14:04:35.000Z</time>
        <extensions>
          <gpxtpx:TrackPointExtension xmlns:gpxtpx="http://www.garmin.com/xmlschemas/TrackPointExtension/v1">
            <gpxtpx:hr>74</gpxtpx:hr>
          </gpxtpx:TrackPointExtension>
        </extensions>
      </trkpt>
      <trkpt lat="43.49666" lon="1.45903">
        <ele>149.19999694824</ele>
        <time>2020-06-10T14:04:41.000Z</time>
        <extensions>
          <gpxtpx:TrackPointExtension xmlns:gpxtpx="http://www.garmin.com/xmlschemas/TrackPointExtension/v1">
            <gpxtpx:hr>77</gpxtpx:hr>
          </gpxtpx:TrackPointExtension>
        </extensions>
      </trkpt>
      <trkpt lat="43.49658" lon="1.45919">
        <ele>149.39999389648</ele>
        <time>2020-06-10T14:04:45.000Z</time>
        <extensions>
          <gpxtpx:TrackPointExtension xmlns:gpxtpx="http://www.garmin.com/xmlschemas/TrackPointExtension/v1">
            <gpxtpx:hr>81</gpxtpx:hr>
          </gpxtpx:TrackPointExtension>
        </extensions>
      </trkpt>
      <trkpt lat="43.49651" lon="1.45935">
        <ele>150</ele>
        <time>2020-06-10T14:04:49.000Z</time>
        <extensions>
          <gpxtpx:TrackPointExtension xmlns:gpxtpx="http://www.garmin.com/xmlschemas/TrackPointExtension/v1">
            <gpxtpx:hr>84</gpxtpx:hr>
          </gpxtpx:TrackPointExtension>
        </extensions>
      </trkpt>
      <trkpt lat="43.49647" lon="1.45948">
        <ele>150.39999389648</ele>
        <time>2020-06-10T14:04:52.000Z</time>
        <extensions>
          <gpxtpx:TrackPointExtension xmlns:gpxtpx="http://www.garmin.com/xmlschemas/TrackPointExtension/v1">
            <gpxtpx:hr>86</gpxtpx:hr>
          </gpxtpx:TrackPointExtension>
        </extensions>
      </trkpt>
      <trkpt lat="43.49643" lon="1.45964">
        <ele>151</ele>
        <time>2020-06-10T14:04:56.000Z</time>
        <extensions>
          <gpxtpx:TrackPointExtension xmlns:gpxtpx="http://www.garmin.com/xmlschemas/TrackPointExtension/v1">
            <gpxtpx:hr>89</gpxtpx:hr>
          </gpxtpx:TrackPointExtension>
        </extensions>
      </trkpt>
      <trkpt lat="43.49638" lon="1.45977">
        <ele>151.39999389648</ele>
        <time>2020-06-10T14:04:59.000Z</time>
        <extensions>
          <gpxtpx:TrackPointExtension xmlns:gpxtpx="http://www.garmin.com/xmlschemas/TrackPointExtension/v1">
            <gpxtpx:hr>93</gpxtpx:hr>
          </gpxtpx:TrackPointExtension>
        </extensions>
      </trkpt>
      <trkpt lat="43.4963" lon="1.46003">
        <ele>152.60000610352</ele>
        <time>2020-06-10T14:05:05.000Z</time>
        <extensions>
          <gpxtpx:TrackPointExtension xmlns:gpxtpx="http://www.garmin.com/xmlschemas/TrackPointExtension/v1">
            <gpxtpx:hr>95</gpxtpx:hr>
          </gpxtpx:TrackPointExtension>
        </extensions>
      </trkpt>
      <trkpt lat="43.49606" lon="1.46031">
        <ele>153.60000610352</ele>
        <time>2020-06-10T14:05:15.000Z</time>
        <extensions>
          <gpxtpx:TrackPointExtension xmlns:gpxtpx="http://www.garmin.com/xmlschemas/TrackPointExtension/v1">
            <gpxtpx:hr>95</gpxtpx:hr>
          </gpxtpx:TrackPointExtension>
        </extensions>
      </trkpt>
      <trkpt lat="43.49592" lon="1.46033">
        <ele>154.60000610352</ele>
        <time>2020-06-10T14:05:21.000Z</time>
        <extensions>
          <gpxtpx:TrackPointExtension xmlns:gpxtpx="http://www.garmin.com/xmlschemas/TrackPointExtension/v1">
            <gpxtpx:hr>98</gpxtpx:hr>
          </gpxtpx:TrackPointExtension>
        </extensions>
      </trkpt>
      <trkpt lat="43.49589" lon="1.46034">
        <ele>154.80000305176</ele>
        <time>2020-06-10T14:05:22.000Z</time>
        <extensions>
          <gpxtpx:TrackPointExtension xmlns:gpxtpx="http://www.garmin.com/xmlschemas/TrackPointExtension/v1">
            <gpxtpx:hr>98</gpxtpx:hr>
          </gpxtpx:TrackPointExtension>
        </extensions>
      </trkpt>
      <trkpt lat="43.49577" lon="1.46038">
        <ele>156</ele>
        <time>2020-06-10T14:05:27.000Z</time>
        <extensions>
          <gpxtpx:TrackPointExtension xmlns:gpxtpx="http://www.garmin.com/xmlschemas/TrackPointExtension/v1">
            <gpxtpx:hr>100</gpxtpx:hr>
          </gpxtpx:TrackPointExtension>
        </extensions>
      </trkpt>
      <trkpt lat="43.49567" lon="1.46041">
        <ele>157</ele>
        <time>2020-06-10T14:05:31.000Z</time>
        <extensions>
          <gpxtpx:TrackPointExtension xmlns:gpxtpx="http://www.garmin.com/xmlschemas/TrackPointExtension/v1">
            <gpxtpx:hr>102</gpxtpx:hr>
          </gpxtpx:TrackPointExtension>
        </extensions>
      </trkpt>
      <trkpt lat="43.49552" lon="1.46048">
        <ele>158.19999694824</ele>
        <time>2020-06-10T14:05:37.000Z</time>
        <extensions>
          <gpxtpx:TrackPointExtension xmlns:gpxtpx="http://www.garmin.com/xmlschemas/TrackPointExtension/v1">
            <gpxtpx:hr>103</gpxtpx:hr>
          </gpxtpx:TrackPointExtension>
        </extensions>
      </trkpt>
      <trkpt lat="43.49535" lon="1.4606">
        <ele>159.60000610352</ele>
        <time>2020-06-10T14:05:44.000Z</time>
        <extensions>
          <gpxtpx:TrackPointExtension xmlns:gpxtpx="http://www.garmin.com/xmlschemas/TrackPointExtension/v1">
            <gpxtpx:hr>105</gpxtpx:hr>
          </gpxtpx:TrackPointExtension>
        </extensions>
      </trkpt>
      <trkpt lat="43.49524" lon="1.46068">
        <ele>160.39999389648</ele>
        <time>2020-06-10T14:05:49.000Z</time>
        <extensions>
          <gpxtpx:TrackPointExtension xmlns:gpxtpx="http://www.garmin.com/xmlschemas/TrackPointExtension/v1">
            <gpxtpx:hr>107</gpxtpx:hr>
          </gpxtpx:TrackPointExtension>
        </extensions>
      </trkpt>
      <trkpt lat="43.49519" lon="1.46073">
        <ele>160.80000305176</ele>
        <time>2020-06-10T14:05:51.000Z</time>
        <extensions>
          <gpxtpx:TrackPointExtension xmlns:gpxtpx="http://www.garmin.com/xmlschemas/TrackPointExtension/v1">
            <gpxtpx:hr>108</gpxtpx:hr>
          </gpxtpx:TrackPointExtension>
        </extensions>
      </trkpt>
      <trkpt lat="43.49506" lon="1.4609">
        <ele>161.80000305176</ele>
        <time>2020-06-10T14:05:57.000Z</time>
        <extensions>
          <gpxtpx:TrackPointExtension xmlns:gpxtpx="http://www.garmin.com/xmlschemas/TrackPointExtension/v1">
            <gpxtpx:hr>109</gpxtpx:hr>
          </gpxtpx:TrackPointExtension>
        </extensions>
      </trkpt>
      <trkpt lat="43.49488" lon="1.46121">
        <ele>163</ele>
        <time>2020-06-10T14:06:06.000Z</time>
        <extensions>
          <gpxtpx:TrackPointExtension xmlns:gpxtpx="http://www.garmin.com/xmlschemas/TrackPointExtension/v1">
            <gpxtpx:hr>110</gpxtpx:hr>
          </gpxtpx:TrackPointExtension>
        </extensions>
      </trkpt>
      <trkpt lat="43.49471" lon="1.46176">
        <ele>164</ele>
        <time>2020-06-10T14:06:17.000Z</time>
        <extensions>
          <gpxtpx:TrackPointExtension xmlns:gpxtpx="http://www.garmin.com/xmlschemas/TrackPointExtension/v1">
            <gpxtpx:hr>108</gpxtpx:hr>
          </gpxtpx:TrackPointExtension>
        </extensions>
      </trkpt>
      <trkpt lat="43.49462" lon="1.46224">
        <ele>165.39999389648</ele>
        <time>2020-06-10T14:06:26.000Z</time>
        <extensions>
          <gpxtpx:TrackPointExtension xmlns:gpxtpx="http://www.garmin.com/xmlschemas/TrackPointExtension/v1">
            <gpxtpx:hr>107</gpxtpx:hr>
          </gpxtpx:TrackPointExtension>
        </extensions>
      </trkpt>
      <trkpt lat="43.49454" lon="1.46269">
        <ele>166.60000610352</ele>
        <time>2020-06-10T14:06:35.000Z</time>
        <extensions>
          <gpxtpx:TrackPointExtension xmlns:gpxtpx="http://www.garmin.com/xmlschemas/TrackPointExtension/v1">
            <gpxtpx:hr>106</gpxtpx:hr>
          </gpxtpx:TrackPointExtension>
        </extensions>
      </trkpt>
      <trkpt lat="43.49449" lon="1.46295">
        <ele>167.80000305176</ele>
        <time>2020-06-10T14:06:41.000Z</time>
        <extensions>
          <gpxtpx:TrackPointExtension xmlns:gpxtpx="http://www.garmin.com/xmlschemas/TrackPointExtension/v1">
            <gpxtpx:hr>107</gpxtpx:hr>
          </gpxtpx:TrackPointExtension>
        </extensions>
      </trkpt>
      <trkpt lat="43.49445" lon="1.46316">
        <ele>169</ele>
        <time>2020-06-10T14:06:46.000Z</time>
        <extensions>
          <gpxtpx:TrackPointExtension xmlns:gpxtpx="http://www.garmin.com/xmlschemas/TrackPointExtension/v1">
            <gpxtpx:hr>108</gpxtpx:hr>
          </gpxtpx:TrackPointExtension>
        </extensions>
      </trkpt>
      <trkpt lat="43.49438" lon="1.46337">
        <ele>170.19999694824</ele>
        <time>2020-06-10T14:06:51.000Z</time>
        <extensions>
          <gpxtpx:TrackPointExtension xmlns:gpxtpx="http://www.garmin.com/xmlschemas/TrackPointExtension/v1">
            <gpxtpx:hr>110</gpxtpx:hr>
          </gpxtpx:TrackPointExtension>
        </extensions>
      </trkpt>
      <trkpt lat="43.49423" lon="1.46364">
        <ele>171.39999389648</ele>
        <time>2020-06-10T14:06:58.000Z</time>
        <extensions>
          <gpxtpx:TrackPointExtension xmlns:gpxtpx="http://www.garmin.com/xmlschemas/TrackPointExtension/v1">
            <gpxtpx:hr>110</gpxtpx:hr>
          </gpxtpx:TrackPointExtension>
        </extensions>
      </trkpt>
      <trkpt lat="43.49405" lon="1.46386">
        <ele>172.39999389648</ele>
        <time>2020-06-10T14:07:05.000Z</time>
        <extensions>
          <gpxtpx:TrackPointExtension xmlns:gpxtpx="http://www.garmin.com/xmlschemas/TrackPointExtension/v1">
            <gpxtpx:hr>109</gpxtpx:hr>
          </gpxtpx:TrackPointExtension>
        </extensions>
      </trkpt>
      <trkpt lat="43.49388" lon="1.4641">
        <ele>173.60000610352</ele>
        <time>2020-06-10T14:07:12.000Z</time>
        <extensions>
          <gpxtpx:TrackPointExtension xmlns:gpxtpx="http://www.garmin.com/xmlschemas/TrackPointExtension/v1">
            <gpxtpx:hr>108</gpxtpx:hr>
          </gpxtpx:TrackPointExtension>
        </extensions>
      </trkpt>
      <trkpt lat="43.4937" lon="1.46446">
        <ele>174.60000610352</ele>
        <time>2020-06-10T14:07:22.000Z</time>
        <extensions>
          <gpxtpx:TrackPointExtension xmlns:gpxtpx="http://www.garmin.com/xmlschemas/TrackPointExtension/v1">
            <gpxtpx:hr>107</gpxtpx:hr>
          </gpxtpx:TrackPointExtension>
        </extensions>
      </trkpt>
      <trkpt lat="43.49353" lon="1.46479">
        <ele>175.80000305176</ele>
        <time>2020-06-10T14:07:31.000Z</time>
        <extensions>
          <gpxtpx:TrackPointExtension xmlns:gpxtpx="http://www.garmin.com/xmlschemas/TrackPointExtension/v1">
            <gpxtpx:hr>106</gpxtpx:hr>
          </gpxtpx:TrackPointExtension>
        </extensions>
      </trkpt>
      <trkpt lat="43.49343" lon="1.46501">
        <ele>176.80000305176</ele>
        <time>2020-06-10T14:07:37.000Z</time>
        <extensions>
          <gpxtpx:TrackPointExtension xmlns:gpxtpx="http://www.garmin.com/xmlschemas/TrackPointExtension/v1">
            <gpxtpx:hr>107</gpxtpx:hr>
          </gpxtpx:TrackPointExtension>
        </extensions>
      </trkpt>
      <trkpt lat="43.49331" lon="1.46525">
        <ele>178</ele>
        <time>2020-06-10T14:07:44.000Z</time>
        <extensions>
          <gpxtpx:TrackPointExtension xmlns:gpxtpx="http://www.garmin.com/xmlschemas/TrackPointExtension/v1">
            <gpxtpx:hr>107</gpxtpx:hr>
          </gpxtpx:TrackPointExtension>
        </extensions>
      </trkpt>
      <trkpt lat="43.49319" lon="1.46551">
        <ele>179</ele>
        <time>2020-06-10T14:07:51.000Z</time>
        <extensions>
          <gpxtpx:TrackPointExtension xmlns:gpxtpx="http://www.garmin.com/xmlschemas/TrackPointExtension/v1">
            <gpxtpx:hr>107</gpxtpx:hr>
          </gpxtpx:TrackPointExtension>
        </extensions>
      </trkpt>
      <trkpt lat="43.49305" lon="1.46581">
        <ele>180.19999694824</ele>
        <time>2020-06-10T14:07:59.000Z</time>
        <extensions>
          <gpxtpx:TrackPointExtension xmlns:gpxtpx="http://www.garmin.com/xmlschemas/TrackPointExtension/v1">
            <gpxtpx:hr>107</gpxtpx:hr>
          </gpxtpx:TrackPointExtension>
        </extensions>
      </trkpt>
      <trkpt lat="43.49294" lon="1.46606">
        <ele>181.19999694824</ele>
        <time>2020-06-10T14:08:06.000Z</time>
        <extensions>
          <gpxtpx:TrackPointExtension xmlns:gpxtpx="http://www.garmin.com/xmlschemas/TrackPointExtension/v1">
            <gpxtpx:hr>106</gpxtpx:hr>
          </gpxtpx:TrackPointExtension>
        </extensions>
      </trkpt>
      <trkpt lat="43.49284" lon="1.46627">
        <ele>182.19999694824</ele>
        <time>2020-06-10T14:08:12.000Z</time>
        <extensions>
          <gpxtpx:TrackPointExtension xmlns:gpxtpx="http://www.garmin.com/xmlschemas/TrackPointExtension/v1">
            <gpxtpx:hr>106</gpxtpx:hr>
          </gpxtpx:TrackPointExtension>
        </extensions>
      </trkpt>
      <trkpt lat="43.4927" lon="1.46655">
        <ele>183.39999389648</ele>
        <time>2020-06-10T14:08:20.000Z</time>
        <extensions>
          <gpxtpx:TrackPointExtension xmlns:gpxtpx="http://www.garmin.com/xmlschemas/TrackPointExtension/v1">
            <gpxtpx:hr>104</gpxtpx:hr>
          </gpxtpx:TrackPointExtension>
        </extensions>
      </trkpt>
      <trkpt lat="43.49255" lon="1.46686">
        <ele>184.39999389648</ele>
        <time>2020-06-10T14:08:29.000Z</time>
        <extensions>
          <gpxtpx:TrackPointExtension xmlns:gpxtpx="http://www.garmin.com/xmlschemas/TrackPointExtension/v1">
            <gpxtpx:hr>103</gpxtpx:hr>
          </gpxtpx:TrackPointExtension>
        </extensions>
      </trkpt>
      <trkpt lat="43.49244" lon="1.46711">
        <ele>185.60000610352</ele>
        <time>2020-06-10T14:08:36.000Z</time>
        <extensions>
          <gpxtpx:TrackPointExtension xmlns:gpxtpx="http://www.garmin.com/xmlschemas/TrackPointExtension/v1">
            <gpxtpx:hr>102</gpxtpx:hr>
          </gpxtpx:TrackPointExtension>
        </extensions>
      </trkpt>
      <trkpt lat="43.49232" lon="1.46735">
        <ele>186.60000610352</ele>
        <time>2020-06-10T14:08:43.000Z</time>
        <extensions>
          <gpxtpx:TrackPointExtension xmlns:gpxtpx="http://www.garmin.com/xmlschemas/TrackPointExtension/v1">
            <gpxtpx:hr>102</gpxtpx:hr>
          </gpxtpx:TrackPointExtension>
        </extensions>
      </trkpt>
      <trkpt lat="43.49213" lon="1.46775">
        <ele>187.80000305176</ele>
        <time>2020-06-10T14:08:54.000Z</time>
        <extensions>
          <gpxtpx:TrackPointExtension xmlns:gpxtpx="http://www.garmin.com/xmlschemas/TrackPointExtension/v1">
            <gpxtpx:hr>102</gpxtpx:hr>
          </gpxtpx:TrackPointExtension>
        </extensions>
      </trkpt>
      <trkpt lat="43.49203" lon="1.46791">
        <ele>188.39999389648</ele>
        <time>2020-06-10T14:08:59.000Z</time>
        <extensions>
          <gpxtpx:TrackPointExtension xmlns:gpxtpx="http://www.garmin.com/xmlschemas/TrackPointExtension/v1">
            <gpxtpx:hr>99</gpxtpx:hr>
          </gpxtpx:TrackPointExtension>
        </extensions>
      </trkpt>
      <trkpt lat="43.4919" lon="1.4681">
        <ele>188.80000305176</ele>
        <time>2020-06-10T14:09:05.000Z</time>
        <extensions>
          <gpxtpx:TrackPointExtension xmlns:gpxtpx="http://www.garmin.com/xmlschemas/TrackPointExtension/v1">
            <gpxtpx:hr>97</gpxtpx:hr>
          </gpxtpx:TrackPointExtension>
        </extensions>
      </trkpt>
      <trkpt lat="43.49176" lon="1.46829">
        <ele>189.39999389648</ele>
        <time>2020-06-10T14:09:11.000Z</time>
        <extensions>
          <gpxtpx:TrackPointExtension xmlns:gpxtpx="http://www.garmin.com/xmlschemas/TrackPointExtension/v1">
            <gpxtpx:hr>94</gpxtpx:hr>
          </gpxtpx:TrackPointExtension>
        </extensions>
      </trkpt>
      <trkpt lat="43.4916" lon="1.46851">
        <ele>189.60000610352</ele>
        <time>2020-06-10T14:09:18.000Z</time>
        <extensions>
          <gpxtpx:TrackPointExtension xmlns:gpxtpx="http://www.garmin.com/xmlschemas/TrackPointExtension/v1">
            <gpxtpx:hr>94</gpxtpx:hr>
          </gpxtpx:TrackPointExtension>
        </extensions>
      </trkpt>
      <trkpt lat="43.49128" lon="1.46895">
        <ele>190.80000305176</ele>
        <time>2020-06-10T14:09:31.000Z</time>
        <extensions>
          <gpxtpx:TrackPointExtension xmlns:gpxtpx="http://www.garmin.com/xmlschemas/TrackPointExtension/v1">
            <gpxtpx:hr>94</gpxtpx:hr>
          </gpxtpx:TrackPointExtension>
        </extensions>
      </trkpt>
      <trkpt lat="43.49113" lon="1.46916">
        <ele>191.60000610352</ele>
        <time>2020-06-10T14:09:37.000Z</time>
        <extensions>
          <gpxtpx:TrackPointExtension xmlns:gpxtpx="http://www.garmin.com/xmlschemas/TrackPointExtension/v1">
            <gpxtpx:hr>97</gpxtpx:hr>
          </gpxtpx:TrackPointExtension>
        </extensions>
      </trkpt>
      <trkpt lat="43.49109" lon="1.46924">
        <ele>191.80000305176</ele>
        <time>2020-06-10T14:09:39.000Z</time>
        <extensions>
          <gpxtpx:TrackPointExtension xmlns:gpxtpx="http://www.garmin.com/xmlschemas/TrackPointExtension/v1">
            <gpxtpx:hr>98</gpxtpx:hr>
          </gpxtpx:TrackPointExtension>
        </extensions>
      </trkpt>
      <trkpt lat="43.49096" lon="1.46946">
        <ele>192.80000305176</ele>
        <time>2020-06-10T14:09:45.000Z</time>
        <extensions>
          <gpxtpx:TrackPointExtension xmlns:gpxtpx="http://www.garmin.com/xmlschemas/TrackPointExtension/v1">
            <gpxtpx:hr>98</gpxtpx:hr>
          </gpxtpx:TrackPointExtension>
        </extensions>
      </trkpt>
      <trkpt lat="43.49085" lon="1.46969">
        <ele>193.80000305176</ele>
        <time>2020-06-10T14:09:51.000Z</time>
        <extensions>
          <gpxtpx:TrackPointExtension xmlns:gpxtpx="http://www.garmin.com/xmlschemas/TrackPointExtension/v1">
            <gpxtpx:hr>99</gpxtpx:hr>
          </gpxtpx:TrackPointExtension>
        </extensions>
      </trkpt>
      <trkpt lat="43.49073" lon="1.46992">
        <ele>194.80000305176</ele>
        <time>2020-06-10T14:09:57.000Z</time>
        <extensions>
          <gpxtpx:TrackPointExtension xmlns:gpxtpx="http://www.garmin.com/xmlschemas/TrackPointExtension/v1">
            <gpxtpx:hr>100</gpxtpx:hr>
          </gpxtpx:TrackPointExtension>
        </extensions>
      </trkpt>
      <trkpt lat="43.49062" lon="1.47016">
        <ele>196</ele>
        <time>2020-06-10T14:10:03.000Z</time>
        <extensions>
          <gpxtpx:TrackPointExtension xmlns:gpxtpx="http://www.garmin.com/xmlschemas/TrackPointExtension/v1">
            <gpxtpx:hr>101</gpxtpx:hr>
          </gpxtpx:TrackPointExtension>
        </extensions>
      </trkpt>
      <trkpt lat="43.49043" lon="1.47064">
        <ele>197.19999694824</ele>
        <time>2020-06-10T14:10:14.000Z</time>
        <extensions>
          <gpxtpx:TrackPointExtension xmlns:gpxtpx="http://www.garmin.com/xmlschemas/TrackPointExtension/v1">
            <gpxtpx:hr>100</gpxtpx:hr>
          </gpxtpx:TrackPointExtension>
        </extensions>
      </trkpt>
      <trkpt lat="43.49026" lon="1.47106">
        <ele>197.39999389648</ele>
        <time>2020-06-10T14:10:23.000Z</time>
        <extensions>
          <gpxtpx:TrackPointExtension xmlns:gpxtpx="http://www.garmin.com/xmlschemas/TrackPointExtension/v1">
            <gpxtpx:hr>97</gpxtpx:hr>
          </gpxtpx:TrackPointExtension>
        </extensions>
      </trkpt>
      <trkpt lat="43.49004" lon="1.47146">
        <ele>197.60000610352</ele>
        <time>2020-06-10T14:10:31.000Z</time>
        <extensions>
          <gpxtpx:TrackPointExtension xmlns:gpxtpx="http://www.garmin.com/xmlschemas/TrackPointExtension/v1">
            <gpxtpx:hr>94</gpxtpx:hr>
          </gpxtpx:TrackPointExtension>
        </extensions>
      </trkpt>
      <trkpt lat="43.48991" lon="1.47168">
        <ele>197.39999389648</ele>
        <time>2020-06-10T14:10:35.000Z</time>
        <extensions>
          <gpxtpx:TrackPointExtension xmlns:gpxtpx="http://www.garmin.com/xmlschemas/TrackPointExtension/v1">
            <gpxtpx:hr>93</gpxtpx:hr>
          </gpxtpx:TrackPointExtension>
        </extensions>
      </trkpt>
      <trkpt lat="43.4898" lon="1.47181">
        <ele>197</ele>
        <time>2020-06-10T14:10:38.000Z</time>
        <extensions>
          <gpxtpx:TrackPointExtension xmlns:gpxtpx="http://www.garmin.com/xmlschemas/TrackPointExtension/v1">
            <gpxtpx:hr>90</gpxtpx:hr>
          </gpxtpx:TrackPointExtension>
        </extensions>
      </trkpt>
      <trkpt lat="43.48969" lon="1.47193">
        <ele>196.60000610352</ele>
        <time>2020-06-10T14:10:41.000Z</time>
        <extensions>
          <gpxtpx:TrackPointExtension xmlns:gpxtpx="http://www.garmin.com/xmlschemas/TrackPointExtension/v1">
            <gpxtpx:hr>87</gpxtpx:hr>
          </gpxtpx:TrackPointExtension>
        </extensions>
      </trkpt>
      <trkpt lat="43.48958" lon="1.472">
        <ele>196.60000610352</ele>
        <time>2020-06-10T14:10:44.000Z</time>
        <extensions>
          <gpxtpx:TrackPointExtension xmlns:gpxtpx="http://www.garmin.com/xmlschemas/TrackPointExtension/v1">
            <gpxtpx:hr>84</gpxtpx:hr>
          </gpxtpx:TrackPointExtension>
        </extensions>
      </trkpt>
      <trkpt lat="43.48948" lon="1.47202">
        <ele>196.60000610352</ele>
        <time>2020-06-10T14:10:48.000Z</time>
        <extensions>
          <gpxtpx:TrackPointExtension xmlns:gpxtpx="http://www.garmin.com/xmlschemas/TrackPointExtension/v1">
            <gpxtpx:hr>80</gpxtpx:hr>
          </gpxtpx:TrackPointExtension>
        </extensions>
      </trkpt>
      <trkpt lat="43.48943" lon="1.47204">
        <ele>196.39999389648</ele>
        <time>2020-06-10T14:10:50.000Z</time>
        <extensions>
          <gpxtpx:TrackPointExtension xmlns:gpxtpx="http://www.garmin.com/xmlschemas/TrackPointExtension/v1">
            <gpxtpx:hr>79</gpxtpx:hr>
          </gpxtpx:TrackPointExtension>
        </extensions>
      </trkpt>
      <trkpt lat="43.48942" lon="1.47214">
        <ele>196.39999389648</ele>
        <time>2020-06-10T14:10:53.000Z</time>
        <extensions>
          <gpxtpx:TrackPointExtension xmlns:gpxtpx="http://www.garmin.com/xmlschemas/TrackPointExtension/v1">
            <gpxtpx:hr>76</gpxtpx:hr>
          </gpxtpx:TrackPointExtension>
        </extensions>
      </trkpt>
      <trkpt lat="43.48942" lon="1.47218">
        <ele>196.39999389648</ele>
        <time>2020-06-10T14:10:54.000Z</time>
        <extensions>
          <gpxtpx:TrackPointExtension xmlns:gpxtpx="http://www.garmin.com/xmlschemas/TrackPointExtension/v1">
            <gpxtpx:hr>76</gpxtpx:hr>
          </gpxtpx:TrackPointExtension>
        </extensions>
      </trkpt>
      <trkpt lat="43.48943" lon="1.47236">
        <ele>196.39999389648</ele>
        <time>2020-06-10T14:10:57.000Z</time>
        <extensions>
          <gpxtpx:TrackPointExtension xmlns:gpxtpx="http://www.garmin.com/xmlschemas/TrackPointExtension/v1">
            <gpxtpx:hr>75</gpxtpx:hr>
          </gpxtpx:TrackPointExtension>
        </extensions>
      </trkpt>
      <trkpt lat="43.48941" lon="1.4726">
        <ele>196</ele>
        <time>2020-06-10T14:11:00.000Z</time>
        <extensions>
          <gpxtpx:TrackPointExtension xmlns:gpxtpx="http://www.garmin.com/xmlschemas/TrackPointExtension/v1">
            <gpxtpx:hr>73</gpxtpx:hr>
          </gpxtpx:TrackPointExtension>
        </extensions>
      </trkpt>
      <trkpt lat="43.48935" lon="1.47276">
        <ele>195.19999694824</ele>
        <time>2020-06-10T14:11:02.000Z</time>
        <extensions>
          <gpxtpx:TrackPointExtension xmlns:gpxtpx="http://www.garmin.com/xmlschemas/TrackPointExtension/v1">
            <gpxtpx:hr>72</gpxtpx:hr>
          </gpxtpx:TrackPointExtension>
        </extensions>
      </trkpt>
      <trkpt lat="43.48933" lon="1.47285">
        <ele>194.80000305176</ele>
        <time>2020-06-10T14:11:03.000Z</time>
        <extensions>
          <gpxtpx:TrackPointExtension xmlns:gpxtpx="http://www.garmin.com/xmlschemas/TrackPointExtension/v1">
            <gpxtpx:hr>72</gpxtpx:hr>
          </gpxtpx:TrackPointExtension>
        </extensions>
      </trkpt>
      <trkpt lat="43.48925" lon="1.4731">
        <ele>193.39999389648</ele>
        <time>2020-06-10T14:11:06.000Z</time>
        <extensions>
          <gpxtpx:TrackPointExtension xmlns:gpxtpx="http://www.garmin.com/xmlschemas/TrackPointExtension/v1">
            <gpxtpx:hr>71</gpxtpx:hr>
          </gpxtpx:TrackPointExtension>
        </extensions>
      </trkpt>
      <trkpt lat="43.4892" lon="1.47327">
        <ele>192.39999389648</ele>
        <time>2020-06-10T14:11:08.000Z</time>
        <extensions>
          <gpxtpx:TrackPointExtension xmlns:gpxtpx="http://www.garmin.com/xmlschemas/TrackPointExtension/v1">
            <gpxtpx:hr>70</gpxtpx:hr>
          </gpxtpx:TrackPointExtension>
        </extensions>
      </trkpt>
      <trkpt lat="43.48913" lon="1.4735">
        <ele>192</ele>
        <time>2020-06-10T14:11:11.000Z</time>
        <extensions>
          <gpxtpx:TrackPointExtension xmlns:gpxtpx="http://www.garmin.com/xmlschemas/TrackPointExtension/v1">
            <gpxtpx:hr>68</gpxtpx:hr>
          </gpxtpx:TrackPointExtension>
        </extensions>
      </trkpt>
      <trkpt lat="43.48907" lon="1.47362">
        <ele>192</ele>
        <time>2020-06-10T14:11:13.000Z</time>
        <extensions>
          <gpxtpx:TrackPointExtension xmlns:gpxtpx="http://www.garmin.com/xmlschemas/TrackPointExtension/v1">
            <gpxtpx:hr>68</gpxtpx:hr>
          </gpxtpx:TrackPointExtension>
        </extensions>
      </trkpt>
      <trkpt lat="43.48896" lon="1.47409">
        <ele>191.80000305176</ele>
        <time>2020-06-10T14:11:20.000Z</time>
        <extensions>
          <gpxtpx:TrackPointExtension xmlns:gpxtpx="http://www.garmin.com/xmlschemas/TrackPointExtension/v1">
            <gpxtpx:hr>71</gpxtpx:hr>
          </gpxtpx:TrackPointExtension>
        </extensions>
      </trkpt>
      <trkpt lat="43.48885" lon="1.47466">
        <ele>192.39999389648</ele>
        <time>2020-06-10T14:11:29.000Z</time>
        <extensions>
          <gpxtpx:TrackPointExtension xmlns:gpxtpx="http://www.garmin.com/xmlschemas/TrackPointExtension/v1">
            <gpxtpx:hr>74</gpxtpx:hr>
          </gpxtpx:TrackPointExtension>
        </extensions>
      </trkpt>
      <trkpt lat="43.48866" lon="1.47537">
        <ele>193</ele>
        <time>2020-06-10T14:11:41.000Z</time>
        <extensions>
          <gpxtpx:TrackPointExtension xmlns:gpxtpx="http://www.garmin.com/xmlschemas/TrackPointExtension/v1">
            <gpxtpx:hr>76</gpxtpx:hr>
          </gpxtpx:TrackPointExtension>
        </extensions>
      </trkpt>
      <trkpt lat="43.4886" lon="1.47554">
        <ele>193.39999389648</ele>
        <time>2020-06-10T14:11:44.000Z</time>
        <extensions>
          <gpxtpx:TrackPointExtension xmlns:gpxtpx="http://www.garmin.com/xmlschemas/TrackPointExtension/v1">
            <gpxtpx:hr>78</gpxtpx:hr>
          </gpxtpx:TrackPointExtension>
        </extensions>
      </trkpt>
      <trkpt lat="43.48851" lon="1.47574">
        <ele>193.80000305176</ele>
        <time>2020-06-10T14:11:48.000Z</time>
        <extensions>
          <gpxtpx:TrackPointExtension xmlns:gpxtpx="http://www.garmin.com/xmlschemas/TrackPointExtension/v1">
            <gpxtpx:hr>81</gpxtpx:hr>
          </gpxtpx:TrackPointExtension>
        </extensions>
      </trkpt>
      <trkpt lat="43.48835" lon="1.47601">
        <ele>194.19999694824</ele>
        <time>2020-06-10T14:11:54.000Z</time>
        <extensions>
          <gpxtpx:TrackPointExtension xmlns:gpxtpx="http://www.garmin.com/xmlschemas/TrackPointExtension/v1">
            <gpxtpx:hr>84</gpxtpx:hr>
          </gpxtpx:TrackPointExtension>
        </extensions>
      </trkpt>
      <trkpt lat="43.4883" lon="1.47609">
        <ele>194.39999389648</ele>
        <time>2020-06-10T14:11:56.000Z</time>
        <extensions>
          <gpxtpx:TrackPointExtension xmlns:gpxtpx="http://www.garmin.com/xmlschemas/TrackPointExtension/v1">
            <gpxtpx:hr>85</gpxtpx:hr>
          </gpxtpx:TrackPointExtension>
        </extensions>
      </trkpt>
      <trkpt lat="43.48821" lon="1.47624">
        <ele>194.80000305176</ele>
        <time>2020-06-10T14:12:00.000Z</time>
        <extensions>
          <gpxtpx:TrackPointExtension xmlns:gpxtpx="http://www.garmin.com/xmlschemas/TrackPointExtension/v1">
            <gpxtpx:hr>89</gpxtpx:hr>
          </gpxtpx:TrackPointExtension>
        </extensions>
      </trkpt>
      <trkpt lat="43.48814" lon="1.4764">
        <ele>196.19999694824</ele>
        <time>2020-06-10T14:12:04.000Z</time>
        <extensions>
          <gpxtpx:TrackPointExtension xmlns:gpxtpx="http://www.garmin.com/xmlschemas/TrackPointExtension/v1">
            <gpxtpx:hr>91</gpxtpx:hr>
          </gpxtpx:TrackPointExtension>
        </extensions>
      </trkpt>
      <trkpt lat="43.48809" lon="1.47656">
        <ele>197.19999694824</ele>
        <time>2020-06-10T14:12:08.000Z</time>
        <extensions>
          <gpxtpx:TrackPointExtension xmlns:gpxtpx="http://www.garmin.com/xmlschemas/TrackPointExtension/v1">
            <gpxtpx:hr>94</gpxtpx:hr>
          </gpxtpx:TrackPointExtension>
        </extensions>
      </trkpt>
      <trkpt lat="43.48802" lon="1.47688">
        <ele>198.19999694824</ele>
        <time>2020-06-10T14:12:15.000Z</time>
        <extensions>
          <gpxtpx:TrackPointExtension xmlns:gpxtpx="http://www.garmin.com/xmlschemas/TrackPointExtension/v1">
            <gpxtpx:hr>97</gpxtpx:hr>
          </gpxtpx:TrackPointExtension>
        </extensions>
      </trkpt>
      <trkpt lat="43.48798" lon="1.47731">
        <ele>199.39999389648</ele>
        <time>2020-06-10T14:12:24.000Z</time>
        <extensions>
          <gpxtpx:TrackPointExtension xmlns:gpxtpx="http://www.garmin.com/xmlschemas/TrackPointExtension/v1">
            <gpxtpx:hr>97</gpxtpx:hr>
          </gpxtpx:TrackPointExtension>
        </extensions>
      </trkpt>
      <trkpt lat="43.48804" lon="1.47791">
        <ele>200.19999694824</ele>
        <time>2020-06-10T14:12:36.000Z</time>
        <extensions>
          <gpxtpx:TrackPointExtension xmlns:gpxtpx="http://www.garmin.com/xmlschemas/TrackPointExtension/v1">
            <gpxtpx:hr>98</gpxtpx:hr>
          </gpxtpx:TrackPointExtension>
        </extensions>
      </trkpt>
      <trkpt lat="43.48812" lon="1.47837">
        <ele>201.39999389648</ele>
        <time>2020-06-10T14:12:45.000Z</time>
        <extensions>
          <gpxtpx:TrackPointExtension xmlns:gpxtpx="http://www.garmin.com/xmlschemas/TrackPointExtension/v1">
            <gpxtpx:hr>98</gpxtpx:hr>
          </gpxtpx:TrackPointExtension>
        </extensions>
      </trkpt>
      <trkpt lat="43.48817" lon="1.47872">
        <ele>201.80000305176</ele>
        <time>2020-06-10T14:12:52.000Z</time>
        <extensions>
          <gpxtpx:TrackPointExtension xmlns:gpxtpx="http://www.garmin.com/xmlschemas/TrackPointExtension/v1">
            <gpxtpx:hr>95</gpxtpx:hr>
          </gpxtpx:TrackPointExtension>
        </extensions>
      </trkpt>
      <trkpt lat="43.48821" lon="1.47907">
        <ele>202.39999389648</ele>
        <time>2020-06-10T14:12:59.000Z</time>
        <extensions>
          <gpxtpx:TrackPointExtension xmlns:gpxtpx="http://www.garmin.com/xmlschemas/TrackPointExtension/v1">
            <gpxtpx:hr>96</gpxtpx:hr>
          </gpxtpx:TrackPointExtension>
        </extensions>
      </trkpt>
      <trkpt lat="43.48822" lon="1.47945">
        <ele>203.60000610352</ele>
        <time>2020-06-10T14:13:07.000Z</time>
        <extensions>
          <gpxtpx:TrackPointExtension xmlns:gpxtpx="http://www.garmin.com/xmlschemas/TrackPointExtension/v1">
            <gpxtpx:hr>96</gpxtpx:hr>
          </gpxtpx:TrackPointExtension>
        </extensions>
      </trkpt>
      <trkpt lat="43.48816" lon="1.47967">
        <ele>205.19999694824</ele>
        <time>2020-06-10T14:13:12.000Z</time>
        <extensions>
          <gpxtpx:TrackPointExtension xmlns:gpxtpx="http://www.garmin.com/xmlschemas/TrackPointExtension/v1">
            <gpxtpx:hr>97</gpxtpx:hr>
          </gpxtpx:TrackPointExtension>
        </extensions>
      </trkpt>
      <trkpt lat="43.48808" lon="1.47986">
        <ele>206</ele>
        <time>2020-06-10T14:13:16.000Z</time>
        <extensions>
          <gpxtpx:TrackPointExtension xmlns:gpxtpx="http://www.garmin.com/xmlschemas/TrackPointExtension/v1">
            <gpxtpx:hr>100</gpxtpx:hr>
          </gpxtpx:TrackPointExtension>
        </extensions>
      </trkpt>
      <trkpt lat="43.48802" lon="1.48">
        <ele>206.19999694824</ele>
        <time>2020-06-10T14:13:19.000Z</time>
        <extensions>
          <gpxtpx:TrackPointExtension xmlns:gpxtpx="http://www.garmin.com/xmlschemas/TrackPointExtension/v1">
            <gpxtpx:hr>101</gpxtpx:hr>
          </gpxtpx:TrackPointExtension>
        </extensions>
      </trkpt>
      <trkpt lat="43.4877" lon="1.48065">
        <ele>207.19999694824</ele>
        <time>2020-06-10T14:13:33.000Z</time>
        <extensions>
          <gpxtpx:TrackPointExtension xmlns:gpxtpx="http://www.garmin.com/xmlschemas/TrackPointExtension/v1">
            <gpxtpx:hr>100</gpxtpx:hr>
          </gpxtpx:TrackPointExtension>
        </extensions>
      </trkpt>
      <trkpt lat="43.48765" lon="1.48074">
        <ele>207.19999694824</ele>
        <time>2020-06-10T14:13:35.000Z</time>
        <extensions>
          <gpxtpx:TrackPointExtension xmlns:gpxtpx="http://www.garmin.com/xmlschemas/TrackPointExtension/v1">
            <gpxtpx:hr>97</gpxtpx:hr>
          </gpxtpx:TrackPointExtension>
        </extensions>
      </trkpt>
      <trkpt lat="43.48754" lon="1.48095">
        <ele>207</ele>
        <time>2020-06-10T14:13:39.000Z</time>
        <extensions>
          <gpxtpx:TrackPointExtension xmlns:gpxtpx="http://www.garmin.com/xmlschemas/TrackPointExtension/v1">
            <gpxtpx:hr>94</gpxtpx:hr>
          </gpxtpx:TrackPointExtension>
        </extensions>
      </trkpt>
      <trkpt lat="43.48744" lon="1.48118">
        <ele>206.80000305176</ele>
        <time>2020-06-10T14:13:43.000Z</time>
        <extensions>
          <gpxtpx:TrackPointExtension xmlns:gpxtpx="http://www.garmin.com/xmlschemas/TrackPointExtension/v1">
            <gpxtpx:hr>91</gpxtpx:hr>
          </gpxtpx:TrackPointExtension>
        </extensions>
      </trkpt>
      <trkpt lat="43.48739" lon="1.4813">
        <ele>206.60000610352</ele>
        <time>2020-06-10T14:13:45.000Z</time>
        <extensions>
          <gpxtpx:TrackPointExtension xmlns:gpxtpx="http://www.garmin.com/xmlschemas/TrackPointExtension/v1">
            <gpxtpx:hr>88</gpxtpx:hr>
          </gpxtpx:TrackPointExtension>
        </extensions>
      </trkpt>
      <trkpt lat="43.4873" lon="1.48156">
        <ele>206.19999694824</ele>
        <time>2020-06-10T14:13:49.000Z</time>
        <extensions>
          <gpxtpx:TrackPointExtension xmlns:gpxtpx="http://www.garmin.com/xmlschemas/TrackPointExtension/v1">
            <gpxtpx:hr>84</gpxtpx:hr>
          </gpxtpx:TrackPointExtension>
        </extensions>
      </trkpt>
      <trkpt lat="43.48723" lon="1.48175">
        <ele>206</ele>
        <time>2020-06-10T14:13:52.000Z</time>
        <extensions>
          <gpxtpx:TrackPointExtension xmlns:gpxtpx="http://www.garmin.com/xmlschemas/TrackPointExtension/v1">
            <gpxtpx:hr>81</gpxtpx:hr>
          </gpxtpx:TrackPointExtension>
        </extensions>
      </trkpt>
      <trkpt lat="43.48711" lon="1.48209">
        <ele>205.19999694824</ele>
        <time>2020-06-10T14:13:58.000Z</time>
        <extensions>
          <gpxtpx:TrackPointExtension xmlns:gpxtpx="http://www.garmin.com/xmlschemas/TrackPointExtension/v1">
            <gpxtpx:hr>81</gpxtpx:hr>
          </gpxtpx:TrackPointExtension>
        </extensions>
      </trkpt>
      <trkpt lat="43.48704" lon="1.4823">
        <ele>205.19999694824</ele>
        <time>2020-06-10T14:14:02.000Z</time>
        <extensions>
          <gpxtpx:TrackPointExtension xmlns:gpxtpx="http://www.garmin.com/xmlschemas/TrackPointExtension/v1">
            <gpxtpx:hr>80</gpxtpx:hr>
          </gpxtpx:TrackPointExtension>
        </extensions>
      </trkpt>
      <trkpt lat="43.48685" lon="1.48309">
        <ele>205.80000305176</ele>
        <time>2020-06-10T14:14:15.000Z</time>
        <extensions>
          <gpxtpx:TrackPointExtension xmlns:gpxtpx="http://www.garmin.com/xmlschemas/TrackPointExtension/v1">
            <gpxtpx:hr>82</gpxtpx:hr>
          </gpxtpx:TrackPointExtension>
        </extensions>
      </trkpt>
      <trkpt lat="43.48678" lon="1.48344">
        <ele>206.39999389648</ele>
        <time>2020-06-10T14:14:21.000Z</time>
        <extensions>
          <gpxtpx:TrackPointExtension xmlns:gpxtpx="http://www.garmin.com/xmlschemas/TrackPointExtension/v1">
            <gpxtpx:hr>82</gpxtpx:hr>
          </gpxtpx:TrackPointExtension>
        </extensions>
      </trkpt>
      <trkpt lat="43.48677" lon="1.4835">
        <ele>206.39999389648</ele>
        <time>2020-06-10T14:14:22.000Z</time>
        <extensions>
          <gpxtpx:TrackPointExtension xmlns:gpxtpx="http://www.garmin.com/xmlschemas/TrackPointExtension/v1">
            <gpxtpx:hr>82</gpxtpx:hr>
          </gpxtpx:TrackPointExtension>
        </extensions>
      </trkpt>
      <trkpt lat="43.4867" lon="1.48425">
        <ele>207.19999694824</ele>
        <time>2020-06-10T14:14:35.000Z</time>
        <extensions>
          <gpxtpx:TrackPointExtension xmlns:gpxtpx="http://www.garmin.com/xmlschemas/TrackPointExtension/v1">
            <gpxtpx:hr>85</gpxtpx:hr>
          </gpxtpx:TrackPointExtension>
        </extensions>
      </trkpt>
      <trkpt lat="43.48671" lon="1.48435">
        <ele>207.39999389648</ele>
        <time>2020-06-10T14:14:37.000Z</time>
        <extensions>
          <gpxtpx:TrackPointExtension xmlns:gpxtpx="http://www.garmin.com/xmlschemas/TrackPointExtension/v1">
            <gpxtpx:hr>85</gpxtpx:hr>
          </gpxtpx:TrackPointExtension>
        </extensions>
      </trkpt>
      <trkpt lat="43.48672" lon="1.48461">
        <ele>207.80000305176</ele>
        <time>2020-06-10T14:14:42.000Z</time>
        <extensions>
          <gpxtpx:TrackPointExtension xmlns:gpxtpx="http://www.garmin.com/xmlschemas/TrackPointExtension/v1">
            <gpxtpx:hr>88</gpxtpx:hr>
          </gpxtpx:TrackPointExtension>
        </extensions>
      </trkpt>
      <trkpt lat="43.48675" lon="1.48482">
        <ele>208.60000610352</ele>
        <time>2020-06-10T14:14:46.000Z</time>
        <extensions>
          <gpxtpx:TrackPointExtension xmlns:gpxtpx="http://www.garmin.com/xmlschemas/TrackPointExtension/v1">
            <gpxtpx:hr>90</gpxtpx:hr>
          </gpxtpx:TrackPointExtension>
        </extensions>
      </trkpt>
      <trkpt lat="43.48682" lon="1.48516">
        <ele>209.60000610352</ele>
        <time>2020-06-10T14:14:53.000Z</time>
        <extensions>
          <gpxtpx:TrackPointExtension xmlns:gpxtpx="http://www.garmin.com/xmlschemas/TrackPointExtension/v1">
            <gpxtpx:hr>92</gpxtpx:hr>
          </gpxtpx:TrackPointExtension>
        </extensions>
      </trkpt>
      <trkpt lat="43.48689" lon="1.48538">
        <ele>210.60000610352</ele>
        <time>2020-06-10T14:14:58.000Z</time>
        <extensions>
          <gpxtpx:TrackPointExtension xmlns:gpxtpx="http://www.garmin.com/xmlschemas/TrackPointExtension/v1">
            <gpxtpx:hr>91</gpxtpx:hr>
          </gpxtpx:TrackPointExtension>
        </extensions>
      </trkpt>
      <trkpt lat="43.48712" lon="1.48589">
        <ele>210.80000305176</ele>
        <time>2020-06-10T14:15:07.000Z</time>
        <extensions>
          <gpxtpx:TrackPointExtension xmlns:gpxtpx="http://www.garmin.com/xmlschemas/TrackPointExtension/v1">
            <gpxtpx:hr>88</gpxtpx:hr>
          </gpxtpx:TrackPointExtension>
        </extensions>
      </trkpt>
      <trkpt lat="43.48722" lon="1.48607">
        <ele>210</ele>
        <time>2020-06-10T14:15:10.000Z</time>
        <extensions>
          <gpxtpx:TrackPointExtension xmlns:gpxtpx="http://www.garmin.com/xmlschemas/TrackPointExtension/v1">
            <gpxtpx:hr>85</gpxtpx:hr>
          </gpxtpx:TrackPointExtension>
        </extensions>
      </trkpt>
      <trkpt lat="43.48727" lon="1.4862">
        <ele>209.39999389648</ele>
        <time>2020-06-10T14:15:12.000Z</time>
        <extensions>
          <gpxtpx:TrackPointExtension xmlns:gpxtpx="http://www.garmin.com/xmlschemas/TrackPointExtension/v1">
            <gpxtpx:hr>83</gpxtpx:hr>
          </gpxtpx:TrackPointExtension>
        </extensions>
      </trkpt>
      <trkpt lat="43.48731" lon="1.48634">
        <ele>208.80000305176</ele>
        <time>2020-06-10T14:15:14.000Z</time>
        <extensions>
          <gpxtpx:TrackPointExtension xmlns:gpxtpx="http://www.garmin.com/xmlschemas/TrackPointExtension/v1">
            <gpxtpx:hr>82</gpxtpx:hr>
          </gpxtpx:TrackPointExtension>
        </extensions>
      </trkpt>
      <trkpt lat="43.48733" lon="1.48646">
        <ele>208.39999389648</ele>
        <time>2020-06-10T14:15:16.000Z</time>
        <extensions>
          <gpxtpx:TrackPointExtension xmlns:gpxtpx="http://www.garmin.com/xmlschemas/TrackPointExtension/v1">
            <gpxtpx:hr>81</gpxtpx:hr>
          </gpxtpx:TrackPointExtension>
        </extensions>
      </trkpt>
      <trkpt lat="43.48734" lon="1.4868">
        <ele>207.80000305176</ele>
        <time>2020-06-10T14:15:21.000Z</time>
        <extensions>
          <gpxtpx:TrackPointExtension xmlns:gpxtpx="http://www.garmin.com/xmlschemas/TrackPointExtension/v1">
            <gpxtpx:hr>79</gpxtpx:hr>
          </gpxtpx:TrackPointExtension>
        </extensions>
      </trkpt>
      <trkpt lat="43.48733" lon="1.48709">
        <ele>207.39999389648</ele>
        <time>2020-06-10T14:15:25.000Z</time>
        <extensions>
          <gpxtpx:TrackPointExtension xmlns:gpxtpx="http://www.garmin.com/xmlschemas/TrackPointExtension/v1">
            <gpxtpx:hr>77</gpxtpx:hr>
          </gpxtpx:TrackPointExtension>
        </extensions>
      </trkpt>
      <trkpt lat="43.48732" lon="1.48762">
        <ele>206.19999694824</ele>
        <time>2020-06-10T14:15:31.000Z</time>
        <extensions>
          <gpxtpx:TrackPointExtension xmlns:gpxtpx="http://www.garmin.com/xmlschemas/TrackPointExtension/v1">
            <gpxtpx:hr>74</gpxtpx:hr>
          </gpxtpx:TrackPointExtension>
        </extensions>
      </trkpt>
      <trkpt lat="43.48731" lon="1.48789">
        <ele>204.80000305176</ele>
        <time>2020-06-10T14:15:34.000Z</time>
        <extensions>
          <gpxtpx:TrackPointExtension xmlns:gpxtpx="http://www.garmin.com/xmlschemas/TrackPointExtension/v1">
            <gpxtpx:hr>73</gpxtpx:hr>
          </gpxtpx:TrackPointExtension>
        </extensions>
      </trkpt>
      <trkpt lat="43.4873" lon="1.48799">
        <ele>204.39999389648</ele>
        <time>2020-06-10T14:15:35.000Z</time>
        <extensions>
          <gpxtpx:TrackPointExtension xmlns:gpxtpx="http://www.garmin.com/xmlschemas/TrackPointExtension/v1">
            <gpxtpx:hr>73</gpxtpx:hr>
          </gpxtpx:TrackPointExtension>
        </extensions>
      </trkpt>
      <trkpt lat="43.48731" lon="1.48818">
        <ele>203.80000305176</ele>
        <time>2020-06-10T14:15:37.000Z</time>
        <extensions>
          <gpxtpx:TrackPointExtension xmlns:gpxtpx="http://www.garmin.com/xmlschemas/TrackPointExtension/v1">
            <gpxtpx:hr>72</gpxtpx:hr>
          </gpxtpx:TrackPointExtension>
        </extensions>
      </trkpt>
      <trkpt lat="43.48735" lon="1.48847">
        <ele>202.60000610352</ele>
        <time>2020-06-10T14:15:40.000Z</time>
        <extensions>
          <gpxtpx:TrackPointExtension xmlns:gpxtpx="http://www.garmin.com/xmlschemas/TrackPointExtension/v1">
            <gpxtpx:hr>72</gpxtpx:hr>
          </gpxtpx:TrackPointExtension>
        </extensions>
      </trkpt>
      <trkpt lat="43.48741" lon="1.48867">
        <ele>202</ele>
        <time>2020-06-10T14:15:42.000Z</time>
        <extensions>
          <gpxtpx:TrackPointExtension xmlns:gpxtpx="http://www.garmin.com/xmlschemas/TrackPointExtension/v1">
            <gpxtpx:hr>71</gpxtpx:hr>
          </gpxtpx:TrackPointExtension>
        </extensions>
      </trkpt>
      <trkpt lat="43.48753" lon="1.48905">
        <ele>201.39999389648</ele>
        <time>2020-06-10T14:15:46.000Z</time>
        <extensions>
          <gpxtpx:TrackPointExtension xmlns:gpxtpx="http://www.garmin.com/xmlschemas/TrackPointExtension/v1">
            <gpxtpx:hr>69</gpxtpx:hr>
          </gpxtpx:TrackPointExtension>
        </extensions>
      </trkpt>
      <trkpt lat="43.4876" lon="1.48934">
        <ele>200.19999694824</ele>
        <time>2020-06-10T14:15:49.000Z</time>
        <extensions>
          <gpxtpx:TrackPointExtension xmlns:gpxtpx="http://www.garmin.com/xmlschemas/TrackPointExtension/v1">
            <gpxtpx:hr>68</gpxtpx:hr>
          </gpxtpx:TrackPointExtension>
        </extensions>
      </trkpt>
      <trkpt lat="43.48763" lon="1.48976">
        <ele>200</ele>
        <time>2020-06-10T14:15:54.000Z</time>
        <extensions>
          <gpxtpx:TrackPointExtension xmlns:gpxtpx="http://www.garmin.com/xmlschemas/TrackPointExtension/v1">
            <gpxtpx:hr>71</gpxtpx:hr>
          </gpxtpx:TrackPointExtension>
        </extensions>
      </trkpt>
      <trkpt lat="43.48763" lon="1.48992">
        <ele>200</ele>
        <time>2020-06-10T14:15:56.000Z</time>
        <extensions>
          <gpxtpx:TrackPointExtension xmlns:gpxtpx="http://www.garmin.com/xmlschemas/TrackPointExtension/v1">
            <gpxtpx:hr>74</gpxtpx:hr>
          </gpxtpx:TrackPointExtension>
        </extensions>
      </trkpt>
      <trkpt lat="43.48762" lon="1.49016">
        <ele>200.19999694824</ele>
        <time>2020-06-10T14:15:59.000Z</time>
        <extensions>
          <gpxtpx:TrackPointExtension xmlns:gpxtpx="http://www.garmin.com/xmlschemas/TrackPointExtension/v1">
            <gpxtpx:hr>77</gpxtpx:hr>
          </gpxtpx:TrackPointExtension>
        </extensions>
      </trkpt>
      <trkpt lat="43.4876" lon="1.49052">
        <ele>201</ele>
        <time>2020-06-10T14:16:04.000Z</time>
        <extensions>
          <gpxtpx:TrackPointExtension xmlns:gpxtpx="http://www.garmin.com/xmlschemas/TrackPointExtension/v1">
            <gpxtpx:hr>80</gpxtpx:hr>
          </gpxtpx:TrackPointExtension>
        </extensions>
      </trkpt>
      <trkpt lat="43.4876" lon="1.49059">
        <ele>201.39999389648</ele>
        <time>2020-06-10T14:16:05.000Z</time>
        <extensions>
          <gpxtpx:TrackPointExtension xmlns:gpxtpx="http://www.garmin.com/xmlschemas/TrackPointExtension/v1">
            <gpxtpx:hr>81</gpxtpx:hr>
          </gpxtpx:TrackPointExtension>
        </extensions>
      </trkpt>
      <trkpt lat="43.48759" lon="1.4908">
        <ele>201.80000305176</ele>
        <time>2020-06-10T14:16:08.000Z</time>
        <extensions>
          <gpxtpx:TrackPointExtension xmlns:gpxtpx="http://www.garmin.com/xmlschemas/TrackPointExtension/v1">
            <gpxtpx:hr>84</gpxtpx:hr>
          </gpxtpx:TrackPointExtension>
        </extensions>
      </trkpt>
      <trkpt lat="43.48758" lon="1.49098">
        <ele>202.60000610352</ele>
        <time>2020-06-10T14:16:11.000Z</time>
        <extensions>
          <gpxtpx:TrackPointExtension xmlns:gpxtpx="http://www.garmin.com/xmlschemas/TrackPointExtension/v1">
            <gpxtpx:hr>86</gpxtpx:hr>
          </gpxtpx:TrackPointExtension>
        </extensions>
      </trkpt>
      <trkpt lat="43.48757" lon="1.49125">
        <ele>203.39999389648</ele>
        <time>2020-06-10T14:16:16.000Z</time>
        <extensions>
          <gpxtpx:TrackPointExtension xmlns:gpxtpx="http://www.garmin.com/xmlschemas/TrackPointExtension/v1">
            <gpxtpx:hr>89</gpxtpx:hr>
          </gpxtpx:TrackPointExtension>
        </extensions>
      </trkpt>
      <trkpt lat="43.48756" lon="1.49131">
        <ele>203.60000610352</ele>
        <time>2020-06-10T14:16:17.000Z</time>
        <extensions>
          <gpxtpx:TrackPointExtension xmlns:gpxtpx="http://www.garmin.com/xmlschemas/TrackPointExtension/v1">
            <gpxtpx:hr>89</gpxtpx:hr>
          </gpxtpx:TrackPointExtension>
        </extensions>
      </trkpt>
      <trkpt lat="43.48755" lon="1.49141">
        <ele>204.19999694824</ele>
        <time>2020-06-10T14:16:19.000Z</time>
        <extensions>
          <gpxtpx:TrackPointExtension xmlns:gpxtpx="http://www.garmin.com/xmlschemas/TrackPointExtension/v1">
            <gpxtpx:hr>90</gpxtpx:hr>
          </gpxtpx:TrackPointExtension>
        </extensions>
      </trkpt>
      <trkpt lat="43.48753" lon="1.49156">
        <ele>204.80000305176</ele>
        <time>2020-06-10T14:16:22.000Z</time>
        <extensions>
          <gpxtpx:TrackPointExtension xmlns:gpxtpx="http://www.garmin.com/xmlschemas/TrackPointExtension/v1">
            <gpxtpx:hr>92</gpxtpx:hr>
          </gpxtpx:TrackPointExtension>
        </extensions>
      </trkpt>
      <trkpt lat="43.48751" lon="1.49171">
        <ele>205.19999694824</ele>
        <time>2020-06-10T14:16:25.000Z</time>
        <extensions>
          <gpxtpx:TrackPointExtension xmlns:gpxtpx="http://www.garmin.com/xmlschemas/TrackPointExtension/v1">
            <gpxtpx:hr>95</gpxtpx:hr>
          </gpxtpx:TrackPointExtension>
        </extensions>
      </trkpt>
      <trkpt lat="43.4875" lon="1.49177">
        <ele>205.39999389648</ele>
        <time>2020-06-10T14:16:26.000Z</time>
        <extensions>
          <gpxtpx:TrackPointExtension xmlns:gpxtpx="http://www.garmin.com/xmlschemas/TrackPointExtension/v1">
            <gpxtpx:hr>96</gpxtpx:hr>
          </gpxtpx:TrackPointExtension>
        </extensions>
      </trkpt>
      <trkpt lat="43.48748" lon="1.49187">
        <ele>205.80000305176</ele>
        <time>2020-06-10T14:16:28.000Z</time>
        <extensions>
          <gpxtpx:TrackPointExtension xmlns:gpxtpx="http://www.garmin.com/xmlschemas/TrackPointExtension/v1">
            <gpxtpx:hr>98</gpxtpx:hr>
          </gpxtpx:TrackPointExtension>
        </extensions>
      </trkpt>
      <trkpt lat="43.48744" lon="1.49208">
        <ele>206.39999389648</ele>
        <time>2020-06-10T14:16:32.000Z</time>
        <extensions>
          <gpxtpx:TrackPointExtension xmlns:gpxtpx="http://www.garmin.com/xmlschemas/TrackPointExtension/v1">
            <gpxtpx:hr>101</gpxtpx:hr>
          </gpxtpx:TrackPointExtension>
        </extensions>
      </trkpt>
      <trkpt lat="43.48742" lon="1.49224">
        <ele>207</ele>
        <time>2020-06-10T14:16:35.000Z</time>
        <extensions>
          <gpxtpx:TrackPointExtension xmlns:gpxtpx="http://www.garmin.com/xmlschemas/TrackPointExtension/v1">
            <gpxtpx:hr>102</gpxtpx:hr>
          </gpxtpx:TrackPointExtension>
        </extensions>
      </trkpt>
      <trkpt lat="43.48743" lon="1.49242">
        <ele>208</ele>
        <time>2020-06-10T14:16:39.000Z</time>
        <extensions>
          <gpxtpx:TrackPointExtension xmlns:gpxtpx="http://www.garmin.com/xmlschemas/TrackPointExtension/v1">
            <gpxtpx:hr>103</gpxtpx:hr>
          </gpxtpx:TrackPointExtension>
        </extensions>
      </trkpt>
      <trkpt lat="43.48745" lon="1.49274">
        <ele>209.19999694824</ele>
        <time>2020-06-10T14:16:47.000Z</time>
        <extensions>
          <gpxtpx:TrackPointExtension xmlns:gpxtpx="http://www.garmin.com/xmlschemas/TrackPointExtension/v1">
            <gpxtpx:hr>105</gpxtpx:hr>
          </gpxtpx:TrackPointExtension>
        </extensions>
      </trkpt>
      <trkpt lat="43.48747" lon="1.49292">
        <ele>210.19999694824</ele>
        <time>2020-06-10T14:16:51.000Z</time>
        <extensions>
          <gpxtpx:TrackPointExtension xmlns:gpxtpx="http://www.garmin.com/xmlschemas/TrackPointExtension/v1">
            <gpxtpx:hr>108</gpxtpx:hr>
          </gpxtpx:TrackPointExtension>
        </extensions>
      </trkpt>
      <trkpt lat="43.48747" lon="1.49298">
        <ele>210.39999389648</ele>
        <time>2020-06-10T14:16:52.000Z</time>
        <extensions>
          <gpxtpx:TrackPointExtension xmlns:gpxtpx="http://www.garmin.com/xmlschemas/TrackPointExtension/v1">
            <gpxtpx:hr>109</gpxtpx:hr>
          </gpxtpx:TrackPointExtension>
        </extensions>
      </trkpt>
      <trkpt lat="43.48748" lon="1.49317">
        <ele>211.60000610352</ele>
        <time>2020-06-10T14:16:56.000Z</time>
        <extensions>
          <gpxtpx:TrackPointExtension xmlns:gpxtpx="http://www.garmin.com/xmlschemas/TrackPointExtension/v1">
            <gpxtpx:hr>111</gpxtpx:hr>
          </gpxtpx:TrackPointExtension>
        </extensions>
      </trkpt>
      <trkpt lat="43.48749" lon="1.49345">
        <ele>212.80000305176</ele>
        <time>2020-06-10T14:17:02.000Z</time>
        <extensions>
          <gpxtpx:TrackPointExtension xmlns:gpxtpx="http://www.garmin.com/xmlschemas/TrackPointExtension/v1">
            <gpxtpx:hr>113</gpxtpx:hr>
          </gpxtpx:TrackPointExtension>
        </extensions>
      </trkpt>
      <trkpt lat="43.48752" lon="1.49371">
        <ele>214</ele>
        <time>2020-06-10T14:17:08.000Z</time>
        <extensions>
          <gpxtpx:TrackPointExtension xmlns:gpxtpx="http://www.garmin.com/xmlschemas/TrackPointExtension/v1">
            <gpxtpx:hr>115</gpxtpx:hr>
          </gpxtpx:TrackPointExtension>
        </extensions>
      </trkpt>
      <trkpt lat="43.48755" lon="1.49391">
        <ele>215.19999694824</ele>
        <time>2020-06-10T14:17:13.000Z</time>
        <extensions>
          <gpxtpx:TrackPointExtension xmlns:gpxtpx="http://www.garmin.com/xmlschemas/TrackPointExtension/v1">
            <gpxtpx:hr>116</gpxtpx:hr>
          </gpxtpx:TrackPointExtension>
        </extensions>
      </trkpt>
      <trkpt lat="43.48759" lon="1.49418">
        <ele>216.19999694824</ele>
        <time>2020-06-10T14:17:21.000Z</time>
        <extensions>
          <gpxtpx:TrackPointExtension xmlns:gpxtpx="http://www.garmin.com/xmlschemas/TrackPointExtension/v1">
            <gpxtpx:hr>115</gpxtpx:hr>
          </gpxtpx:TrackPointExtension>
        </extensions>
      </trkpt>
      <trkpt lat="43.48765" lon="1.49443">
        <ele>216.80000305176</ele>
        <time>2020-06-10T14:17:28.000Z</time>
        <extensions>
          <gpxtpx:TrackPointExtension xmlns:gpxtpx="http://www.garmin.com/xmlschemas/TrackPointExtension/v1">
            <gpxtpx:hr>112</gpxtpx:hr>
          </gpxtpx:TrackPointExtension>
        </extensions>
      </trkpt>
      <trkpt lat="43.48769" lon="1.49461">
        <ele>217</ele>
        <time>2020-06-10T14:17:33.000Z</time>
        <extensions>
          <gpxtpx:TrackPointExtension xmlns:gpxtpx="http://www.garmin.com/xmlschemas/TrackPointExtension/v1">
            <gpxtpx:hr>109</gpxtpx:hr>
          </gpxtpx:TrackPointExtension>
        </extensions>
      </trkpt>
      <trkpt lat="43.48775" lon="1.49482">
        <ele>217</ele>
        <time>2020-06-10T14:17:38.000Z</time>
        <extensions>
          <gpxtpx:TrackPointExtension xmlns:gpxtpx="http://www.garmin.com/xmlschemas/TrackPointExtension/v1">
            <gpxtpx:hr>105</gpxtpx:hr>
          </gpxtpx:TrackPointExtension>
        </extensions>
      </trkpt>
      <trkpt lat="43.4878" lon="1.495">
        <ele>216.80000305176</ele>
        <time>2020-06-10T14:17:42.000Z</time>
        <extensions>
          <gpxtpx:TrackPointExtension xmlns:gpxtpx="http://www.garmin.com/xmlschemas/TrackPointExtension/v1">
            <gpxtpx:hr>102</gpxtpx:hr>
          </gpxtpx:TrackPointExtension>
        </extensions>
      </trkpt>
      <trkpt lat="43.48785" lon="1.49514">
        <ele>216.80000305176</ele>
        <time>2020-06-10T14:17:45.000Z</time>
        <extensions>
          <gpxtpx:TrackPointExtension xmlns:gpxtpx="http://www.garmin.com/xmlschemas/TrackPointExtension/v1">
            <gpxtpx:hr>99</gpxtpx:hr>
          </gpxtpx:TrackPointExtension>
        </extensions>
      </trkpt>
      <trkpt lat="43.48792" lon="1.49534">
        <ele>216.39999389648</ele>
        <time>2020-06-10T14:17:49.000Z</time>
        <extensions>
          <gpxtpx:TrackPointExtension xmlns:gpxtpx="http://www.garmin.com/xmlschemas/TrackPointExtension/v1">
            <gpxtpx:hr>96</gpxtpx:hr>
          </gpxtpx:TrackPointExtension>
        </extensions>
      </trkpt>
      <trkpt lat="43.48798" lon="1.49554">
        <ele>215.39999389648</ele>
        <time>2020-06-10T14:17:53.000Z</time>
        <extensions>
          <gpxtpx:TrackPointExtension xmlns:gpxtpx="http://www.garmin.com/xmlschemas/TrackPointExtension/v1">
            <gpxtpx:hr>92</gpxtpx:hr>
          </gpxtpx:TrackPointExtension>
        </extensions>
      </trkpt>
      <trkpt lat="43.48802" lon="1.49564">
        <ele>215.19999694824</ele>
        <time>2020-06-10T14:17:55.000Z</time>
        <extensions>
          <gpxtpx:TrackPointExtension xmlns:gpxtpx="http://www.garmin.com/xmlschemas/TrackPointExtension/v1">
            <gpxtpx:hr>89</gpxtpx:hr>
          </gpxtpx:TrackPointExtension>
        </extensions>
      </trkpt>
      <trkpt lat="43.48806" lon="1.49575">
        <ele>215</ele>
        <time>2020-06-10T14:17:57.000Z</time>
        <extensions>
          <gpxtpx:TrackPointExtension xmlns:gpxtpx="http://www.garmin.com/xmlschemas/TrackPointExtension/v1">
            <gpxtpx:hr>85</gpxtpx:hr>
          </gpxtpx:TrackPointExtension>
        </extensions>
      </trkpt>
      <trkpt lat="43.4881" lon="1.49588">
        <ele>214.80000305176</ele>
        <time>2020-06-10T14:17:59.000Z</time>
        <extensions>
          <gpxtpx:TrackPointExtension xmlns:gpxtpx="http://www.garmin.com/xmlschemas/TrackPointExtension/v1">
            <gpxtpx:hr>82</gpxtpx:hr>
          </gpxtpx:TrackPointExtension>
        </extensions>
      </trkpt>
      <trkpt lat="43.48819" lon="1.49613">
        <ele>214.19999694824</ele>
        <time>2020-06-10T14:18:03.000Z</time>
        <extensions>
          <gpxtpx:TrackPointExtension xmlns:gpxtpx="http://www.garmin.com/xmlschemas/TrackPointExtension/v1">
            <gpxtpx:hr>79</gpxtpx:hr>
          </gpxtpx:TrackPointExtension>
        </extensions>
      </trkpt>
      <trkpt lat="43.48821" lon="1.4962">
        <ele>213.80000305176</ele>
        <time>2020-06-10T14:18:04.000Z</time>
        <extensions>
          <gpxtpx:TrackPointExtension xmlns:gpxtpx="http://www.garmin.com/xmlschemas/TrackPointExtension/v1">
            <gpxtpx:hr>78</gpxtpx:hr>
          </gpxtpx:TrackPointExtension>
        </extensions>
      </trkpt>
      <trkpt lat="43.48826" lon="1.49634">
        <ele>212.80000305176</ele>
        <time>2020-06-10T14:18:06.000Z</time>
        <extensions>
          <gpxtpx:TrackPointExtension xmlns:gpxtpx="http://www.garmin.com/xmlschemas/TrackPointExtension/v1">
            <gpxtpx:hr>77</gpxtpx:hr>
          </gpxtpx:TrackPointExtension>
        </extensions>
      </trkpt>
      <trkpt lat="43.48835" lon="1.49661">
        <ele>212</ele>
        <time>2020-06-10T14:18:10.000Z</time>
        <extensions>
          <gpxtpx:TrackPointExtension xmlns:gpxtpx="http://www.garmin.com/xmlschemas/TrackPointExtension/v1">
            <gpxtpx:hr>74</gpxtpx:hr>
          </gpxtpx:TrackPointExtension>
        </extensions>
      </trkpt>
      <trkpt lat="43.48846" lon="1.49694">
        <ele>211.60000610352</ele>
        <time>2020-06-10T14:18:15.000Z</time>
        <extensions>
          <gpxtpx:TrackPointExtension xmlns:gpxtpx="http://www.garmin.com/xmlschemas/TrackPointExtension/v1">
            <gpxtpx:hr>72</gpxtpx:hr>
          </gpxtpx:TrackPointExtension>
        </extensions>
      </trkpt>
      <trkpt lat="43.48871" lon="1.49764">
        <ele>211</ele>
        <time>2020-06-10T14:18:26.000Z</time>
        <extensions>
          <gpxtpx:TrackPointExtension xmlns:gpxtpx="http://www.garmin.com/xmlschemas/TrackPointExtension/v1">
            <gpxtpx:hr>73</gpxtpx:hr>
          </gpxtpx:TrackPointExtension>
        </extensions>
      </trkpt>
      <trkpt lat="43.48885" lon="1.49802">
        <ele>211.19999694824</ele>
        <time>2020-06-10T14:18:32.000Z</time>
        <extensions>
          <gpxtpx:TrackPointExtension xmlns:gpxtpx="http://www.garmin.com/xmlschemas/TrackPointExtension/v1">
            <gpxtpx:hr>76</gpxtpx:hr>
          </gpxtpx:TrackPointExtension>
        </extensions>
      </trkpt>
      <trkpt lat="43.48894" lon="1.49826">
        <ele>211.19999694824</ele>
        <time>2020-06-10T14:18:36.000Z</time>
        <extensions>
          <gpxtpx:TrackPointExtension xmlns:gpxtpx="http://www.garmin.com/xmlschemas/TrackPointExtension/v1">
            <gpxtpx:hr>79</gpxtpx:hr>
          </gpxtpx:TrackPointExtension>
        </extensions>
      </trkpt>
      <trkpt lat="43.48903" lon="1.4985">
        <ele>211.80000305176</ele>
        <time>2020-06-10T14:18:40.000Z</time>
        <extensions>
          <gpxtpx:TrackPointExtension xmlns:gpxtpx="http://www.garmin.com/xmlschemas/TrackPointExtension/v1">
            <gpxtpx:hr>82</gpxtpx:hr>
          </gpxtpx:TrackPointExtension>
        </extensions>
      </trkpt>
      <trkpt lat="43.48909" lon="1.49867">
        <ele>212</ele>
        <time>2020-06-10T14:18:43.000Z</time>
        <extensions>
          <gpxtpx:TrackPointExtension xmlns:gpxtpx="http://www.garmin.com/xmlschemas/TrackPointExtension/v1">
            <gpxtpx:hr>85</gpxtpx:hr>
          </gpxtpx:TrackPointExtension>
        </extensions>
      </trkpt>
      <trkpt lat="43.48917" lon="1.49894">
        <ele>212.39999389648</ele>
        <time>2020-06-10T14:18:48.000Z</time>
        <extensions>
          <gpxtpx:TrackPointExtension xmlns:gpxtpx="http://www.garmin.com/xmlschemas/TrackPointExtension/v1">
            <gpxtpx:hr>88</gpxtpx:hr>
          </gpxtpx:TrackPointExtension>
        </extensions>
      </trkpt>
      <trkpt lat="43.4892" lon="1.49903">
        <ele>212.80000305176</ele>
        <time>2020-06-10T14:18:50.000Z</time>
        <extensions>
          <gpxtpx:TrackPointExtension xmlns:gpxtpx="http://www.garmin.com/xmlschemas/TrackPointExtension/v1">
            <gpxtpx:hr>89</gpxtpx:hr>
          </gpxtpx:TrackPointExtension>
        </extensions>
      </trkpt>
      <trkpt lat="43.48923" lon="1.49916">
        <ele>214</ele>
        <time>2020-06-10T14:18:53.000Z</time>
        <extensions>
          <gpxtpx:TrackPointExtension xmlns:gpxtpx="http://www.garmin.com/xmlschemas/TrackPointExtension/v1">
            <gpxtpx:hr>91</gpxtpx:hr>
          </gpxtpx:TrackPointExtension>
        </extensions>
      </trkpt>
      <trkpt lat="43.48926" lon="1.49926">
        <ele>215.19999694824</ele>
        <time>2020-06-10T14:18:56.000Z</time>
        <extensions>
          <gpxtpx:TrackPointExtension xmlns:gpxtpx="http://www.garmin.com/xmlschemas/TrackPointExtension/v1">
            <gpxtpx:hr>91</gpxtpx:hr>
          </gpxtpx:TrackPointExtension>
        </extensions>
      </trkpt>
      <trkpt lat="43.48938" lon="1.49946">
        <ele>216</ele>
        <time>2020-06-10T14:19:06.000Z</time>
        <extensions>
          <gpxtpx:TrackPointExtension xmlns:gpxtpx="http://www.garmin.com/xmlschemas/TrackPointExtension/v1">
            <gpxtpx:hr>90</gpxtpx:hr>
          </gpxtpx:TrackPointExtension>
        </extensions>
      </trkpt>
      <trkpt lat="43.48957" lon="1.49953">
        <ele>215.80000305176</ele>
        <time>2020-06-10T14:19:10.000Z</time>
        <extensions>
          <gpxtpx:TrackPointExtension xmlns:gpxtpx="http://www.garmin.com/xmlschemas/TrackPointExtension/v1">
            <gpxtpx:hr>90</gpxtpx:hr>
          </gpxtpx:TrackPointExtension>
        </extensions>
      </trkpt>
      <trkpt lat="43.48998" lon="1.49964">
        <ele>213.60000610352</ele>
        <time>2020-06-10T14:19:16.000Z</time>
        <extensions>
          <gpxtpx:TrackPointExtension xmlns:gpxtpx="http://www.garmin.com/xmlschemas/TrackPointExtension/v1">
            <gpxtpx:hr>90</gpxtpx:hr>
          </gpxtpx:TrackPointExtension>
        </extensions>
      </trkpt>
      <trkpt lat="43.49011" lon="1.4997">
        <ele>211.80000305176</ele>
        <time>2020-06-10T14:19:18.000Z</time>
        <extensions>
          <gpxtpx:TrackPointExtension xmlns:gpxtpx="http://www.garmin.com/xmlschemas/TrackPointExtension/v1">
            <gpxtpx:hr>90</gpxtpx:hr>
          </gpxtpx:TrackPointExtension>
        </extensions>
      </trkpt>
      <trkpt lat="43.49023" lon="1.49978">
        <ele>210.39999389648</ele>
        <time>2020-06-10T14:19:20.000Z</time>
        <extensions>
          <gpxtpx:TrackPointExtension xmlns:gpxtpx="http://www.garmin.com/xmlschemas/TrackPointExtension/v1">
            <gpxtpx:hr>87</gpxtpx:hr>
          </gpxtpx:TrackPointExtension>
        </extensions>
      </trkpt>
      <trkpt lat="43.49034" lon="1.49986">
        <ele>210</ele>
        <time>2020-06-10T14:19:22.000Z</time>
        <extensions>
          <gpxtpx:TrackPointExtension xmlns:gpxtpx="http://www.garmin.com/xmlschemas/TrackPointExtension/v1">
            <gpxtpx:hr>84</gpxtpx:hr>
          </gpxtpx:TrackPointExtension>
        </extensions>
      </trkpt>
      <trkpt lat="43.49069" lon="1.50003">
        <ele>209.39999389648</ele>
        <time>2020-06-10T14:19:27.000Z</time>
        <extensions>
          <gpxtpx:TrackPointExtension xmlns:gpxtpx="http://www.garmin.com/xmlschemas/TrackPointExtension/v1">
            <gpxtpx:hr>81</gpxtpx:hr>
          </gpxtpx:TrackPointExtension>
        </extensions>
      </trkpt>
      <trkpt lat="43.49095" lon="1.50008">
        <ele>208.19999694824</ele>
        <time>2020-06-10T14:19:30.000Z</time>
        <extensions>
          <gpxtpx:TrackPointExtension xmlns:gpxtpx="http://www.garmin.com/xmlschemas/TrackPointExtension/v1">
            <gpxtpx:hr>80</gpxtpx:hr>
          </gpxtpx:TrackPointExtension>
        </extensions>
      </trkpt>
      <trkpt lat="43.49125" lon="1.50012">
        <ele>206.60000610352</ele>
        <time>2020-06-10T14:19:33.000Z</time>
        <extensions>
          <gpxtpx:TrackPointExtension xmlns:gpxtpx="http://www.garmin.com/xmlschemas/TrackPointExtension/v1">
            <gpxtpx:hr>79</gpxtpx:hr>
          </gpxtpx:TrackPointExtension>
        </extensions>
      </trkpt>
      <trkpt lat="43.49146" lon="1.50015">
        <ele>205.39999389648</ele>
        <time>2020-06-10T14:19:35.000Z</time>
        <extensions>
          <gpxtpx:TrackPointExtension xmlns:gpxtpx="http://www.garmin.com/xmlschemas/TrackPointExtension/v1">
            <gpxtpx:hr>77</gpxtpx:hr>
          </gpxtpx:TrackPointExtension>
        </extensions>
      </trkpt>
      <trkpt lat="43.49157" lon="1.50016">
        <ele>204.19999694824</ele>
        <time>2020-06-10T14:19:36.000Z</time>
        <extensions>
          <gpxtpx:TrackPointExtension xmlns:gpxtpx="http://www.garmin.com/xmlschemas/TrackPointExtension/v1">
            <gpxtpx:hr>76</gpxtpx:hr>
          </gpxtpx:TrackPointExtension>
        </extensions>
      </trkpt>
      <trkpt lat="43.49167" lon="1.50017">
        <ele>202.60000610352</ele>
        <time>2020-06-10T14:19:37.000Z</time>
        <extensions>
          <gpxtpx:TrackPointExtension xmlns:gpxtpx="http://www.garmin.com/xmlschemas/TrackPointExtension/v1">
            <gpxtpx:hr>76</gpxtpx:hr>
          </gpxtpx:TrackPointExtension>
        </extensions>
      </trkpt>
      <trkpt lat="43.49178" lon="1.50018">
        <ele>201</ele>
        <time>2020-06-10T14:19:38.000Z</time>
        <extensions>
          <gpxtpx:TrackPointExtension xmlns:gpxtpx="http://www.garmin.com/xmlschemas/TrackPointExtension/v1">
            <gpxtpx:hr>75</gpxtpx:hr>
          </gpxtpx:TrackPointExtension>
        </extensions>
      </trkpt>
      <trkpt lat="43.49188" lon="1.50019">
        <ele>199.60000610352</ele>
        <time>2020-06-10T14:19:39.000Z</time>
        <extensions>
          <gpxtpx:TrackPointExtension xmlns:gpxtpx="http://www.garmin.com/xmlschemas/TrackPointExtension/v1">
            <gpxtpx:hr>74</gpxtpx:hr>
          </gpxtpx:TrackPointExtension>
        </extensions>
      </trkpt>
      <trkpt lat="43.49199" lon="1.50021">
        <ele>198.39999389648</ele>
        <time>2020-06-10T14:19:40.000Z</time>
        <extensions>
          <gpxtpx:TrackPointExtension xmlns:gpxtpx="http://www.garmin.com/xmlschemas/TrackPointExtension/v1">
            <gpxtpx:hr>73</gpxtpx:hr>
          </gpxtpx:TrackPointExtension>
        </extensions>
      </trkpt>
      <trkpt lat="43.49217" lon="1.50023">
        <ele>196.60000610352</ele>
        <time>2020-06-10T14:19:42.000Z</time>
        <extensions>
          <gpxtpx:TrackPointExtension xmlns:gpxtpx="http://www.garmin.com/xmlschemas/TrackPointExtension/v1">
            <gpxtpx:hr>72</gpxtpx:hr>
          </gpxtpx:TrackPointExtension>
        </extensions>
      </trkpt>
      <trkpt lat="43.49234" lon="1.50025">
        <ele>195.19999694824</ele>
        <time>2020-06-10T14:19:44.000Z</time>
        <extensions>
          <gpxtpx:TrackPointExtension xmlns:gpxtpx="http://www.garmin.com/xmlschemas/TrackPointExtension/v1">
            <gpxtpx:hr>70</gpxtpx:hr>
          </gpxtpx:TrackPointExtension>
        </extensions>
      </trkpt>
      <trkpt lat="43.49278" lon="1.50029">
        <ele>194.39999389648</ele>
        <time>2020-06-10T14:19:50.000Z</time>
        <extensions>
          <gpxtpx:TrackPointExtension xmlns:gpxtpx="http://www.garmin.com/xmlschemas/TrackPointExtension/v1">
            <gpxtpx:hr>67</gpxtpx:hr>
          </gpxtpx:TrackPointExtension>
        </extensions>
      </trkpt>
      <trkpt lat="43.49284" lon="1.50028">
        <ele>194.39999389648</ele>
        <time>2020-06-10T14:19:51.000Z</time>
        <extensions>
          <gpxtpx:TrackPointExtension xmlns:gpxtpx="http://www.garmin.com/xmlschemas/TrackPointExtension/v1">
            <gpxtpx:hr>67</gpxtpx:hr>
          </gpxtpx:TrackPointExtension>
        </extensions>
      </trkpt>
      <trkpt lat="43.49312" lon="1.50005">
        <ele>194.60000610352</ele>
        <time>2020-06-10T14:19:57.000Z</time>
        <extensions>
          <gpxtpx:TrackPointExtension xmlns:gpxtpx="http://www.garmin.com/xmlschemas/TrackPointExtension/v1">
            <gpxtpx:hr>66</gpxtpx:hr>
          </gpxtpx:TrackPointExtension>
        </extensions>
      </trkpt>
      <trkpt lat="43.4932" lon="1.49994">
        <ele>194.80000305176</ele>
        <time>2020-06-10T14:19:59.000Z</time>
        <extensions>
          <gpxtpx:TrackPointExtension xmlns:gpxtpx="http://www.garmin.com/xmlschemas/TrackPointExtension/v1">
            <gpxtpx:hr>69</gpxtpx:hr>
          </gpxtpx:TrackPointExtension>
        </extensions>
      </trkpt>
      <trkpt lat="43.49334" lon="1.49971">
        <ele>195.60000610352</ele>
        <time>2020-06-10T14:20:03.000Z</time>
        <extensions>
          <gpxtpx:TrackPointExtension xmlns:gpxtpx="http://www.garmin.com/xmlschemas/TrackPointExtension/v1">
            <gpxtpx:hr>72</gpxtpx:hr>
          </gpxtpx:TrackPointExtension>
        </extensions>
      </trkpt>
      <trkpt lat="43.49349" lon="1.4995">
        <ele>196</ele>
        <time>2020-06-10T14:20:07.000Z</time>
        <extensions>
          <gpxtpx:TrackPointExtension xmlns:gpxtpx="http://www.garmin.com/xmlschemas/TrackPointExtension/v1">
            <gpxtpx:hr>70</gpxtpx:hr>
          </gpxtpx:TrackPointExtension>
        </extensions>
      </trkpt>
      <trkpt lat="43.49363" lon="1.49932">
        <ele>196</ele>
        <time>2020-06-10T14:20:11.000Z</time>
        <extensions>
          <gpxtpx:TrackPointExtension xmlns:gpxtpx="http://www.garmin.com/xmlschemas/TrackPointExtension/v1">
            <gpxtpx:hr>68</gpxtpx:hr>
          </gpxtpx:TrackPointExtension>
        </extensions>
      </trkpt>
      <trkpt lat="43.49391" lon="1.49925">
        <ele>196</ele>
        <time>2020-06-10T14:20:17.000Z</time>
        <extensions>
          <gpxtpx:TrackPointExtension xmlns:gpxtpx="http://www.garmin.com/xmlschemas/TrackPointExtension/v1">
            <gpxtpx:hr>66</gpxtpx:hr>
          </gpxtpx:TrackPointExtension>
        </extensions>
      </trkpt>
      <trkpt lat="43.49439" lon="1.49947">
        <ele>195.60000610352</ele>
        <time>2020-06-10T14:20:25.000Z</time>
        <extensions>
          <gpxtpx:TrackPointExtension xmlns:gpxtpx="http://www.garmin.com/xmlschemas/TrackPointExtension/v1">
            <gpxtpx:hr>66</gpxtpx:hr>
          </gpxtpx:TrackPointExtension>
        </extensions>
      </trkpt>
      <trkpt lat="43.49452" lon="1.49959">
        <ele>194.80000305176</ele>
        <time>2020-06-10T14:20:27.000Z</time>
        <extensions>
          <gpxtpx:TrackPointExtension xmlns:gpxtpx="http://www.garmin.com/xmlschemas/TrackPointExtension/v1">
            <gpxtpx:hr>66</gpxtpx:hr>
          </gpxtpx:TrackPointExtension>
        </extensions>
      </trkpt>
      <trkpt lat="43.49465" lon="1.49973">
        <ele>193.60000610352</ele>
        <time>2020-06-10T14:20:29.000Z</time>
        <extensions>
          <gpxtpx:TrackPointExtension xmlns:gpxtpx="http://www.garmin.com/xmlschemas/TrackPointExtension/v1">
            <gpxtpx:hr>65</gpxtpx:hr>
          </gpxtpx:TrackPointExtension>
        </extensions>
      </trkpt>
      <trkpt lat="43.49477" lon="1.49987">
        <ele>192.39999389648</ele>
        <time>2020-06-10T14:20:31.000Z</time>
        <extensions>
          <gpxtpx:TrackPointExtension xmlns:gpxtpx="http://www.garmin.com/xmlschemas/TrackPointExtension/v1">
            <gpxtpx:hr>64</gpxtpx:hr>
          </gpxtpx:TrackPointExtension>
        </extensions>
      </trkpt>
      <trkpt lat="43.49489" lon="1.50001">
        <ele>191.19999694824</ele>
        <time>2020-06-10T14:20:33.000Z</time>
        <extensions>
          <gpxtpx:TrackPointExtension xmlns:gpxtpx="http://www.garmin.com/xmlschemas/TrackPointExtension/v1">
            <gpxtpx:hr>64</gpxtpx:hr>
          </gpxtpx:TrackPointExtension>
        </extensions>
      </trkpt>
      <trkpt lat="43.49501" lon="1.50014">
        <ele>189.80000305176</ele>
        <time>2020-06-10T14:20:35.000Z</time>
        <extensions>
          <gpxtpx:TrackPointExtension xmlns:gpxtpx="http://www.garmin.com/xmlschemas/TrackPointExtension/v1">
            <gpxtpx:hr>64</gpxtpx:hr>
          </gpxtpx:TrackPointExtension>
        </extensions>
      </trkpt>
      <trkpt lat="43.49522" lon="1.50055">
        <ele>189</ele>
        <time>2020-06-10T14:20:41.000Z</time>
        <extensions>
          <gpxtpx:TrackPointExtension xmlns:gpxtpx="http://www.garmin.com/xmlschemas/TrackPointExtension/v1">
            <gpxtpx:hr>67</gpxtpx:hr>
          </gpxtpx:TrackPointExtension>
        </extensions>
      </trkpt>
      <trkpt lat="43.4953" lon="1.5009">
        <ele>189.39999389648</ele>
        <time>2020-06-10T14:20:46.000Z</time>
        <extensions>
          <gpxtpx:TrackPointExtension xmlns:gpxtpx="http://www.garmin.com/xmlschemas/TrackPointExtension/v1">
            <gpxtpx:hr>70</gpxtpx:hr>
          </gpxtpx:TrackPointExtension>
        </extensions>
      </trkpt>
      <trkpt lat="43.49531" lon="1.5011">
        <ele>189.80000305176</ele>
        <time>2020-06-10T14:20:49.000Z</time>
        <extensions>
          <gpxtpx:TrackPointExtension xmlns:gpxtpx="http://www.garmin.com/xmlschemas/TrackPointExtension/v1">
            <gpxtpx:hr>73</gpxtpx:hr>
          </gpxtpx:TrackPointExtension>
        </extensions>
      </trkpt>
      <trkpt lat="43.49532" lon="1.50131">
        <ele>190.80000305176</ele>
        <time>2020-06-10T14:20:52.000Z</time>
        <extensions>
          <gpxtpx:TrackPointExtension xmlns:gpxtpx="http://www.garmin.com/xmlschemas/TrackPointExtension/v1">
            <gpxtpx:hr>76</gpxtpx:hr>
          </gpxtpx:TrackPointExtension>
        </extensions>
      </trkpt>
      <trkpt lat="43.49533" lon="1.50153">
        <ele>191.39999389648</ele>
        <time>2020-06-10T14:20:55.000Z</time>
        <extensions>
          <gpxtpx:TrackPointExtension xmlns:gpxtpx="http://www.garmin.com/xmlschemas/TrackPointExtension/v1">
            <gpxtpx:hr>79</gpxtpx:hr>
          </gpxtpx:TrackPointExtension>
        </extensions>
      </trkpt>
      <trkpt lat="43.49535" lon="1.50173">
        <ele>192</ele>
        <time>2020-06-10T14:20:58.000Z</time>
        <extensions>
          <gpxtpx:TrackPointExtension xmlns:gpxtpx="http://www.garmin.com/xmlschemas/TrackPointExtension/v1">
            <gpxtpx:hr>82</gpxtpx:hr>
          </gpxtpx:TrackPointExtension>
        </extensions>
      </trkpt>
      <trkpt lat="43.49536" lon="1.50192">
        <ele>192.19999694824</ele>
        <time>2020-06-10T14:21:01.000Z</time>
        <extensions>
          <gpxtpx:TrackPointExtension xmlns:gpxtpx="http://www.garmin.com/xmlschemas/TrackPointExtension/v1">
            <gpxtpx:hr>85</gpxtpx:hr>
          </gpxtpx:TrackPointExtension>
        </extensions>
      </trkpt>
      <trkpt lat="43.49538" lon="1.50204">
        <ele>192.60000610352</ele>
        <time>2020-06-10T14:21:03.000Z</time>
        <extensions>
          <gpxtpx:TrackPointExtension xmlns:gpxtpx="http://www.garmin.com/xmlschemas/TrackPointExtension/v1">
            <gpxtpx:hr>88</gpxtpx:hr>
          </gpxtpx:TrackPointExtension>
        </extensions>
      </trkpt>
      <trkpt lat="43.49542" lon="1.50221">
        <ele>193.19999694824</ele>
        <time>2020-06-10T14:21:06.000Z</time>
        <extensions>
          <gpxtpx:TrackPointExtension xmlns:gpxtpx="http://www.garmin.com/xmlschemas/TrackPointExtension/v1">
            <gpxtpx:hr>91</gpxtpx:hr>
          </gpxtpx:TrackPointExtension>
        </extensions>
      </trkpt>
      <trkpt lat="43.49551" lon="1.50243">
        <ele>194.19999694824</ele>
        <time>2020-06-10T14:21:11.000Z</time>
        <extensions>
          <gpxtpx:TrackPointExtension xmlns:gpxtpx="http://www.garmin.com/xmlschemas/TrackPointExtension/v1">
            <gpxtpx:hr>94</gpxtpx:hr>
          </gpxtpx:TrackPointExtension>
        </extensions>
      </trkpt>
      <trkpt lat="43.49585" lon="1.50292">
        <ele>195</ele>
        <time>2020-06-10T14:21:21.000Z</time>
        <extensions>
          <gpxtpx:TrackPointExtension xmlns:gpxtpx="http://www.garmin.com/xmlschemas/TrackPointExtension/v1">
            <gpxtpx:hr>92</gpxtpx:hr>
          </gpxtpx:TrackPointExtension>
        </extensions>
      </trkpt>
      <trkpt lat="43.49621" lon="1.50335">
        <ele>193.19999694824</ele>
        <time>2020-06-10T14:21:28.000Z</time>
        <extensions>
          <gpxtpx:TrackPointExtension xmlns:gpxtpx="http://www.garmin.com/xmlschemas/TrackPointExtension/v1">
            <gpxtpx:hr>89</gpxtpx:hr>
          </gpxtpx:TrackPointExtension>
        </extensions>
      </trkpt>
      <trkpt lat="43.49628" lon="1.50341">
        <ele>193.19999694824</ele>
        <time>2020-06-10T14:21:29.000Z</time>
        <extensions>
          <gpxtpx:TrackPointExtension xmlns:gpxtpx="http://www.garmin.com/xmlschemas/TrackPointExtension/v1">
            <gpxtpx:hr>89</gpxtpx:hr>
          </gpxtpx:TrackPointExtension>
        </extensions>
      </trkpt>
      <trkpt lat="43.49655" lon="1.50361">
        <ele>191.80000305176</ele>
        <time>2020-06-10T14:21:33.000Z</time>
        <extensions>
          <gpxtpx:TrackPointExtension xmlns:gpxtpx="http://www.garmin.com/xmlschemas/TrackPointExtension/v1">
            <gpxtpx:hr>87</gpxtpx:hr>
          </gpxtpx:TrackPointExtension>
        </extensions>
      </trkpt>
      <trkpt lat="43.49669" lon="1.5037">
        <ele>190.80000305176</ele>
        <time>2020-06-10T14:21:35.000Z</time>
        <extensions>
          <gpxtpx:TrackPointExtension xmlns:gpxtpx="http://www.garmin.com/xmlschemas/TrackPointExtension/v1">
            <gpxtpx:hr>86</gpxtpx:hr>
          </gpxtpx:TrackPointExtension>
        </extensions>
      </trkpt>
      <trkpt lat="43.49684" lon="1.50379">
        <ele>189.39999389648</ele>
        <time>2020-06-10T14:21:37.000Z</time>
        <extensions>
          <gpxtpx:TrackPointExtension xmlns:gpxtpx="http://www.garmin.com/xmlschemas/TrackPointExtension/v1">
            <gpxtpx:hr>84</gpxtpx:hr>
          </gpxtpx:TrackPointExtension>
        </extensions>
      </trkpt>
      <trkpt lat="43.49704" lon="1.50391">
        <ele>188</ele>
        <time>2020-06-10T14:21:40.000Z</time>
        <extensions>
          <gpxtpx:TrackPointExtension xmlns:gpxtpx="http://www.garmin.com/xmlschemas/TrackPointExtension/v1">
            <gpxtpx:hr>79</gpxtpx:hr>
          </gpxtpx:TrackPointExtension>
        </extensions>
      </trkpt>
      <trkpt lat="43.49722" lon="1.50402">
        <ele>186.80000305176</ele>
        <time>2020-06-10T14:21:43.000Z</time>
        <extensions>
          <gpxtpx:TrackPointExtension xmlns:gpxtpx="http://www.garmin.com/xmlschemas/TrackPointExtension/v1">
            <gpxtpx:hr>77</gpxtpx:hr>
          </gpxtpx:TrackPointExtension>
        </extensions>
      </trkpt>
      <trkpt lat="43.49744" lon="1.50415">
        <ele>186.60000610352</ele>
        <time>2020-06-10T14:21:47.000Z</time>
        <extensions>
          <gpxtpx:TrackPointExtension xmlns:gpxtpx="http://www.garmin.com/xmlschemas/TrackPointExtension/v1">
            <gpxtpx:hr>74</gpxtpx:hr>
          </gpxtpx:TrackPointExtension>
        </extensions>
      </trkpt>
      <trkpt lat="43.49776" lon="1.50432">
        <ele>188</ele>
        <time>2020-06-10T14:21:54.000Z</time>
        <extensions>
          <gpxtpx:TrackPointExtension xmlns:gpxtpx="http://www.garmin.com/xmlschemas/TrackPointExtension/v1">
            <gpxtpx:hr>74</gpxtpx:hr>
          </gpxtpx:TrackPointExtension>
        </extensions>
      </trkpt>
      <trkpt lat="43.49814" lon="1.50446">
        <ele>189</ele>
        <time>2020-06-10T14:22:03.000Z</time>
        <extensions>
          <gpxtpx:TrackPointExtension xmlns:gpxtpx="http://www.garmin.com/xmlschemas/TrackPointExtension/v1">
            <gpxtpx:hr>75</gpxtpx:hr>
          </gpxtpx:TrackPointExtension>
        </extensions>
      </trkpt>
      <trkpt lat="43.49855" lon="1.50459">
        <ele>189.19999694824</ele>
        <time>2020-06-10T14:22:14.000Z</time>
        <extensions>
          <gpxtpx:TrackPointExtension xmlns:gpxtpx="http://www.garmin.com/xmlschemas/TrackPointExtension/v1">
            <gpxtpx:hr>72</gpxtpx:hr>
          </gpxtpx:TrackPointExtension>
        </extensions>
      </trkpt>
      <trkpt lat="43.49862" lon="1.50459">
        <ele>189.19999694824</ele>
        <time>2020-06-10T14:22:16.000Z</time>
        <extensions>
          <gpxtpx:TrackPointExtension xmlns:gpxtpx="http://www.garmin.com/xmlschemas/TrackPointExtension/v1">
            <gpxtpx:hr>73</gpxtpx:hr>
          </gpxtpx:TrackPointExtension>
        </extensions>
      </trkpt>
      <trkpt lat="43.49883" lon="1.50446">
        <ele>189.19999694824</ele>
        <time>2020-06-10T14:22:21.000Z</time>
        <extensions>
          <gpxtpx:TrackPointExtension xmlns:gpxtpx="http://www.garmin.com/xmlschemas/TrackPointExtension/v1">
            <gpxtpx:hr>73</gpxtpx:hr>
          </gpxtpx:TrackPointExtension>
        </extensions>
      </trkpt>
      <trkpt lat="43.49903" lon="1.50421">
        <ele>188.80000305176</ele>
        <time>2020-06-10T14:22:26.000Z</time>
        <extensions>
          <gpxtpx:TrackPointExtension xmlns:gpxtpx="http://www.garmin.com/xmlschemas/TrackPointExtension/v1">
            <gpxtpx:hr>70</gpxtpx:hr>
          </gpxtpx:TrackPointExtension>
        </extensions>
      </trkpt>
      <trkpt lat="43.49916" lon="1.50407">
        <ele>187.60000610352</ele>
        <time>2020-06-10T14:22:29.000Z</time>
        <extensions>
          <gpxtpx:TrackPointExtension xmlns:gpxtpx="http://www.garmin.com/xmlschemas/TrackPointExtension/v1">
            <gpxtpx:hr>68</gpxtpx:hr>
          </gpxtpx:TrackPointExtension>
        </extensions>
      </trkpt>
      <trkpt lat="43.49939" lon="1.50433">
        <ele>186.80000305176</ele>
        <time>2020-06-10T14:22:36.000Z</time>
        <extensions>
          <gpxtpx:TrackPointExtension xmlns:gpxtpx="http://www.garmin.com/xmlschemas/TrackPointExtension/v1">
            <gpxtpx:hr>68</gpxtpx:hr>
          </gpxtpx:TrackPointExtension>
        </extensions>
      </trkpt>
      <trkpt lat="43.49949" lon="1.50471">
        <ele>186.39999389648</ele>
        <time>2020-06-10T14:22:40.000Z</time>
        <extensions>
          <gpxtpx:TrackPointExtension xmlns:gpxtpx="http://www.garmin.com/xmlschemas/TrackPointExtension/v1">
            <gpxtpx:hr>67</gpxtpx:hr>
          </gpxtpx:TrackPointExtension>
        </extensions>
      </trkpt>
      <trkpt lat="43.49953" lon="1.50481">
        <ele>185.80000305176</ele>
        <time>2020-06-10T14:22:41.000Z</time>
        <extensions>
          <gpxtpx:TrackPointExtension xmlns:gpxtpx="http://www.garmin.com/xmlschemas/TrackPointExtension/v1">
            <gpxtpx:hr>66</gpxtpx:hr>
          </gpxtpx:TrackPointExtension>
        </extensions>
      </trkpt>
      <trkpt lat="43.49955" lon="1.50489">
        <ele>185.19999694824</ele>
        <time>2020-06-10T14:22:42.000Z</time>
        <extensions>
          <gpxtpx:TrackPointExtension xmlns:gpxtpx="http://www.garmin.com/xmlschemas/TrackPointExtension/v1">
            <gpxtpx:hr>66</gpxtpx:hr>
          </gpxtpx:TrackPointExtension>
        </extensions>
      </trkpt>
      <trkpt lat="43.4996" lon="1.50504">
        <ele>183.60000610352</ele>
        <time>2020-06-10T14:22:44.000Z</time>
        <extensions>
          <gpxtpx:TrackPointExtension xmlns:gpxtpx="http://www.garmin.com/xmlschemas/TrackPointExtension/v1">
            <gpxtpx:hr>65</gpxtpx:hr>
          </gpxtpx:TrackPointExtension>
        </extensions>
      </trkpt>
      <trkpt lat="43.49962" lon="1.50513">
        <ele>182.60000610352</ele>
        <time>2020-06-10T14:22:45.000Z</time>
        <extensions>
          <gpxtpx:TrackPointExtension xmlns:gpxtpx="http://www.garmin.com/xmlschemas/TrackPointExtension/v1">
            <gpxtpx:hr>65</gpxtpx:hr>
          </gpxtpx:TrackPointExtension>
        </extensions>
      </trkpt>
      <trkpt lat="43.49962" lon="1.50522">
        <ele>181.80000305176</ele>
        <time>2020-06-10T14:22:46.000Z</time>
        <extensions>
          <gpxtpx:TrackPointExtension xmlns:gpxtpx="http://www.garmin.com/xmlschemas/TrackPointExtension/v1">
            <gpxtpx:hr>65</gpxtpx:hr>
          </gpxtpx:TrackPointExtension>
        </extensions>
      </trkpt>
      <trkpt lat="43.49961" lon="1.50543">
        <ele>180</ele>
        <time>2020-06-10T14:22:48.000Z</time>
        <extensions>
          <gpxtpx:TrackPointExtension xmlns:gpxtpx="http://www.garmin.com/xmlschemas/TrackPointExtension/v1">
            <gpxtpx:hr>65</gpxtpx:hr>
          </gpxtpx:TrackPointExtension>
        </extensions>
      </trkpt>
      <trkpt lat="43.49961" lon="1.50553">
        <ele>179.19999694824</ele>
        <time>2020-06-10T14:22:49.000Z</time>
        <extensions>
          <gpxtpx:TrackPointExtension xmlns:gpxtpx="http://www.garmin.com/xmlschemas/TrackPointExtension/v1">
            <gpxtpx:hr>65</gpxtpx:hr>
          </gpxtpx:TrackPointExtension>
        </extensions>
      </trkpt>
      <trkpt lat="43.49961" lon="1.50563">
        <ele>178.60000610352</ele>
        <time>2020-06-10T14:22:50.000Z</time>
        <extensions>
          <gpxtpx:TrackPointExtension xmlns:gpxtpx="http://www.garmin.com/xmlschemas/TrackPointExtension/v1">
            <gpxtpx:hr>65</gpxtpx:hr>
          </gpxtpx:TrackPointExtension>
        </extensions>
      </trkpt>
      <trkpt lat="43.49965" lon="1.50584">
        <ele>177.60000610352</ele>
        <time>2020-06-10T14:22:52.000Z</time>
        <extensions>
          <gpxtpx:TrackPointExtension xmlns:gpxtpx="http://www.garmin.com/xmlschemas/TrackPointExtension/v1">
            <gpxtpx:hr>65</gpxtpx:hr>
          </gpxtpx:TrackPointExtension>
        </extensions>
      </trkpt>
      <trkpt lat="43.49968" lon="1.50595">
        <ele>176.60000610352</ele>
        <time>2020-06-10T14:22:53.000Z</time>
        <extensions>
          <gpxtpx:TrackPointExtension xmlns:gpxtpx="http://www.garmin.com/xmlschemas/TrackPointExtension/v1">
            <gpxtpx:hr>65</gpxtpx:hr>
          </gpxtpx:TrackPointExtension>
        </extensions>
      </trkpt>
      <trkpt lat="43.49971" lon="1.50605">
        <ele>175.60000610352</ele>
        <time>2020-06-10T14:22:54.000Z</time>
        <extensions>
          <gpxtpx:TrackPointExtension xmlns:gpxtpx="http://www.garmin.com/xmlschemas/TrackPointExtension/v1">
            <gpxtpx:hr>65</gpxtpx:hr>
          </gpxtpx:TrackPointExtension>
        </extensions>
      </trkpt>
      <trkpt lat="43.49975" lon="1.50615">
        <ele>173.80000305176</ele>
        <time>2020-06-10T14:22:55.000Z</time>
        <extensions>
          <gpxtpx:TrackPointExtension xmlns:gpxtpx="http://www.garmin.com/xmlschemas/TrackPointExtension/v1">
            <gpxtpx:hr>65</gpxtpx:hr>
          </gpxtpx:TrackPointExtension>
        </extensions>
      </trkpt>
      <trkpt lat="43.49981" lon="1.50634">
        <ele>172.39999389648</ele>
        <time>2020-06-10T14:22:57.000Z</time>
        <extensions>
          <gpxtpx:TrackPointExtension xmlns:gpxtpx="http://www.garmin.com/xmlschemas/TrackPointExtension/v1">
            <gpxtpx:hr>64</gpxtpx:hr>
          </gpxtpx:TrackPointExtension>
        </extensions>
      </trkpt>
      <trkpt lat="43.49987" lon="1.5065">
        <ele>170.39999389648</ele>
        <time>2020-06-10T14:22:59.000Z</time>
        <extensions>
          <gpxtpx:TrackPointExtension xmlns:gpxtpx="http://www.garmin.com/xmlschemas/TrackPointExtension/v1">
            <gpxtpx:hr>64</gpxtpx:hr>
          </gpxtpx:TrackPointExtension>
        </extensions>
      </trkpt>
      <trkpt lat="43.49992" lon="1.50666">
        <ele>169.39999389648</ele>
        <time>2020-06-10T14:23:01.000Z</time>
        <extensions>
          <gpxtpx:TrackPointExtension xmlns:gpxtpx="http://www.garmin.com/xmlschemas/TrackPointExtension/v1">
            <gpxtpx:hr>63</gpxtpx:hr>
          </gpxtpx:TrackPointExtension>
        </extensions>
      </trkpt>
      <trkpt lat="43.50001" lon="1.50691">
        <ele>168.19999694824</ele>
        <time>2020-06-10T14:23:04.000Z</time>
        <extensions>
          <gpxtpx:TrackPointExtension xmlns:gpxtpx="http://www.garmin.com/xmlschemas/TrackPointExtension/v1">
            <gpxtpx:hr>63</gpxtpx:hr>
          </gpxtpx:TrackPointExtension>
        </extensions>
      </trkpt>
      <trkpt lat="43.50015" lon="1.50725">
        <ele>167</ele>
        <time>2020-06-10T14:23:08.000Z</time>
        <extensions>
          <gpxtpx:TrackPointExtension xmlns:gpxtpx="http://www.garmin.com/xmlschemas/TrackPointExtension/v1">
            <gpxtpx:hr>63</gpxtpx:hr>
          </gpxtpx:TrackPointExtension>
        </extensions>
      </trkpt>
      <trkpt lat="43.50022" lon="1.50742">
        <ele>165.80000305176</ele>
        <time>2020-06-10T14:23:10.000Z</time>
        <extensions>
          <gpxtpx:TrackPointExtension xmlns:gpxtpx="http://www.garmin.com/xmlschemas/TrackPointExtension/v1">
            <gpxtpx:hr>63</gpxtpx:hr>
          </gpxtpx:TrackPointExtension>
        </extensions>
      </trkpt>
      <trkpt lat="43.5003" lon="1.50759">
        <ele>164</ele>
        <time>2020-06-10T14:23:12.000Z</time>
        <extensions>
          <gpxtpx:TrackPointExtension xmlns:gpxtpx="http://www.garmin.com/xmlschemas/TrackPointExtension/v1">
            <gpxtpx:hr>62</gpxtpx:hr>
          </gpxtpx:TrackPointExtension>
        </extensions>
      </trkpt>
      <trkpt lat="43.50038" lon="1.50777">
        <ele>163</ele>
        <time>2020-06-10T14:23:14.000Z</time>
        <extensions>
          <gpxtpx:TrackPointExtension xmlns:gpxtpx="http://www.garmin.com/xmlschemas/TrackPointExtension/v1">
            <gpxtpx:hr>62</gpxtpx:hr>
          </gpxtpx:TrackPointExtension>
        </extensions>
      </trkpt>
      <trkpt lat="43.50041" lon="1.50786">
        <ele>162.39999389648</ele>
        <time>2020-06-10T14:23:15.000Z</time>
        <extensions>
          <gpxtpx:TrackPointExtension xmlns:gpxtpx="http://www.garmin.com/xmlschemas/TrackPointExtension/v1">
            <gpxtpx:hr>62</gpxtpx:hr>
          </gpxtpx:TrackPointExtension>
        </extensions>
      </trkpt>
      <trkpt lat="43.50044" lon="1.50795">
        <ele>161.60000610352</ele>
        <time>2020-06-10T14:23:16.000Z</time>
        <extensions>
          <gpxtpx:TrackPointExtension xmlns:gpxtpx="http://www.garmin.com/xmlschemas/TrackPointExtension/v1">
            <gpxtpx:hr>62</gpxtpx:hr>
          </gpxtpx:TrackPointExtension>
        </extensions>
      </trkpt>
      <trkpt lat="43.50046" lon="1.50814">
        <ele>160.60000610352</ele>
        <time>2020-06-10T14:23:18.000Z</time>
        <extensions>
          <gpxtpx:TrackPointExtension xmlns:gpxtpx="http://www.garmin.com/xmlschemas/TrackPointExtension/v1">
            <gpxtpx:hr>62</gpxtpx:hr>
          </gpxtpx:TrackPointExtension>
        </extensions>
      </trkpt>
      <trkpt lat="43.50045" lon="1.5083">
        <ele>159.39999389648</ele>
        <time>2020-06-10T14:23:20.000Z</time>
        <extensions>
          <gpxtpx:TrackPointExtension xmlns:gpxtpx="http://www.garmin.com/xmlschemas/TrackPointExtension/v1">
            <gpxtpx:hr>62</gpxtpx:hr>
          </gpxtpx:TrackPointExtension>
        </extensions>
      </trkpt>
      <trkpt lat="43.50044" lon="1.50838">
        <ele>159</ele>
        <time>2020-06-10T14:23:21.000Z</time>
        <extensions>
          <gpxtpx:TrackPointExtension xmlns:gpxtpx="http://www.garmin.com/xmlschemas/TrackPointExtension/v1">
            <gpxtpx:hr>62</gpxtpx:hr>
          </gpxtpx:TrackPointExtension>
        </extensions>
      </trkpt>
      <trkpt lat="43.50044" lon="1.50846">
        <ele>158.80000305176</ele>
        <time>2020-06-10T14:23:22.000Z</time>
        <extensions>
          <gpxtpx:TrackPointExtension xmlns:gpxtpx="http://www.garmin.com/xmlschemas/TrackPointExtension/v1">
            <gpxtpx:hr>63</gpxtpx:hr>
          </gpxtpx:TrackPointExtension>
        </extensions>
      </trkpt>
      <trkpt lat="43.50046" lon="1.50868">
        <ele>158.19999694824</ele>
        <time>2020-06-10T14:23:25.000Z</time>
        <extensions>
          <gpxtpx:TrackPointExtension xmlns:gpxtpx="http://www.garmin.com/xmlschemas/TrackPointExtension/v1">
            <gpxtpx:hr>62</gpxtpx:hr>
          </gpxtpx:TrackPointExtension>
        </extensions>
      </trkpt>
      <trkpt lat="43.5005" lon="1.50892">
        <ele>156.80000305176</ele>
        <time>2020-06-10T14:23:29.000Z</time>
        <extensions>
          <gpxtpx:TrackPointExtension xmlns:gpxtpx="http://www.garmin.com/xmlschemas/TrackPointExtension/v1">
            <gpxtpx:hr>62</gpxtpx:hr>
          </gpxtpx:TrackPointExtension>
        </extensions>
      </trkpt>
      <trkpt lat="43.50051" lon="1.50897">
        <ele>156.19999694824</ele>
        <time>2020-06-10T14:23:30.000Z</time>
        <extensions>
          <gpxtpx:TrackPointExtension xmlns:gpxtpx="http://www.garmin.com/xmlschemas/TrackPointExtension/v1">
            <gpxtpx:hr>62</gpxtpx:hr>
          </gpxtpx:TrackPointExtension>
        </extensions>
      </trkpt>
      <trkpt lat="43.50053" lon="1.50902">
        <ele>155.60000610352</ele>
        <time>2020-06-10T14:23:31.000Z</time>
        <extensions>
          <gpxtpx:TrackPointExtension xmlns:gpxtpx="http://www.garmin.com/xmlschemas/TrackPointExtension/v1">
            <gpxtpx:hr>62</gpxtpx:hr>
          </gpxtpx:TrackPointExtension>
        </extensions>
      </trkpt>
      <trkpt lat="43.50063" lon="1.50913">
        <ele>154</ele>
        <time>2020-06-10T14:23:34.000Z</time>
        <extensions>
          <gpxtpx:TrackPointExtension xmlns:gpxtpx="http://www.garmin.com/xmlschemas/TrackPointExtension/v1">
            <gpxtpx:hr>63</gpxtpx:hr>
          </gpxtpx:TrackPointExtension>
        </extensions>
      </trkpt>
      <trkpt lat="43.5007" lon="1.50917">
        <ele>153.19999694824</ele>
        <time>2020-06-10T14:23:36.000Z</time>
        <extensions>
          <gpxtpx:TrackPointExtension xmlns:gpxtpx="http://www.garmin.com/xmlschemas/TrackPointExtension/v1">
            <gpxtpx:hr>64</gpxtpx:hr>
          </gpxtpx:TrackPointExtension>
        </extensions>
      </trkpt>
      <trkpt lat="43.50078" lon="1.50923">
        <ele>152.80000305176</ele>
        <time>2020-06-10T14:23:38.000Z</time>
        <extensions>
          <gpxtpx:TrackPointExtension xmlns:gpxtpx="http://www.garmin.com/xmlschemas/TrackPointExtension/v1">
            <gpxtpx:hr>64</gpxtpx:hr>
          </gpxtpx:TrackPointExtension>
        </extensions>
      </trkpt>
      <trkpt lat="43.50093" lon="1.50934">
        <ele>151.80000305176</ele>
        <time>2020-06-10T14:23:41.000Z</time>
        <extensions>
          <gpxtpx:TrackPointExtension xmlns:gpxtpx="http://www.garmin.com/xmlschemas/TrackPointExtension/v1">
            <gpxtpx:hr>64</gpxtpx:hr>
          </gpxtpx:TrackPointExtension>
        </extensions>
      </trkpt>
      <trkpt lat="43.50116" lon="1.50952">
        <ele>150.39999389648</ele>
        <time>2020-06-10T14:23:45.000Z</time>
        <extensions>
          <gpxtpx:TrackPointExtension xmlns:gpxtpx="http://www.garmin.com/xmlschemas/TrackPointExtension/v1">
            <gpxtpx:hr>64</gpxtpx:hr>
          </gpxtpx:TrackPointExtension>
        </extensions>
      </trkpt>
      <trkpt lat="43.50134" lon="1.50965">
        <ele>149</ele>
        <time>2020-06-10T14:23:48.000Z</time>
        <extensions>
          <gpxtpx:TrackPointExtension xmlns:gpxtpx="http://www.garmin.com/xmlschemas/TrackPointExtension/v1">
            <gpxtpx:hr>63</gpxtpx:hr>
          </gpxtpx:TrackPointExtension>
        </extensions>
      </trkpt>
      <trkpt lat="43.50144" lon="1.5097">
        <ele>147.60000610352</ele>
        <time>2020-06-10T14:23:50.000Z</time>
        <extensions>
          <gpxtpx:TrackPointExtension xmlns:gpxtpx="http://www.garmin.com/xmlschemas/TrackPointExtension/v1">
            <gpxtpx:hr>64</gpxtpx:hr>
          </gpxtpx:TrackPointExtension>
        </extensions>
      </trkpt>
      <trkpt lat="43.50154" lon="1.50969">
        <ele>145.19999694824</ele>
        <time>2020-06-10T14:23:52.000Z</time>
        <extensions>
          <gpxtpx:TrackPointExtension xmlns:gpxtpx="http://www.garmin.com/xmlschemas/TrackPointExtension/v1">
            <gpxtpx:hr>64</gpxtpx:hr>
          </gpxtpx:TrackPointExtension>
        </extensions>
      </trkpt>
      <trkpt lat="43.50159" lon="1.50966">
        <ele>143.80000305176</ele>
        <time>2020-06-10T14:23:53.000Z</time>
        <extensions>
          <gpxtpx:TrackPointExtension xmlns:gpxtpx="http://www.garmin.com/xmlschemas/TrackPointExtension/v1">
            <gpxtpx:hr>64</gpxtpx:hr>
          </gpxtpx:TrackPointExtension>
        </extensions>
      </trkpt>
      <trkpt lat="43.50168" lon="1.50954">
        <ele>142.39999389648</ele>
        <time>2020-06-10T14:23:55.000Z</time>
        <extensions>
          <gpxtpx:TrackPointExtension xmlns:gpxtpx="http://www.garmin.com/xmlschemas/TrackPointExtension/v1">
            <gpxtpx:hr>64</gpxtpx:hr>
          </gpxtpx:TrackPointExtension>
        </extensions>
      </trkpt>
      <trkpt lat="43.50178" lon="1.50918">
        <ele>141</ele>
        <time>2020-06-10T14:23:59.000Z</time>
        <extensions>
          <gpxtpx:TrackPointExtension xmlns:gpxtpx="http://www.garmin.com/xmlschemas/TrackPointExtension/v1">
            <gpxtpx:hr>63</gpxtpx:hr>
          </gpxtpx:TrackPointExtension>
        </extensions>
      </trkpt>
      <trkpt lat="43.5018" lon="1.50909">
        <ele>140</ele>
        <time>2020-06-10T14:24:00.000Z</time>
        <extensions>
          <gpxtpx:TrackPointExtension xmlns:gpxtpx="http://www.garmin.com/xmlschemas/TrackPointExtension/v1">
            <gpxtpx:hr>63</gpxtpx:hr>
          </gpxtpx:TrackPointExtension>
        </extensions>
      </trkpt>
      <trkpt lat="43.50185" lon="1.50893">
        <ele>138.19999694824</ele>
        <time>2020-06-10T14:24:02.000Z</time>
        <extensions>
          <gpxtpx:TrackPointExtension xmlns:gpxtpx="http://www.garmin.com/xmlschemas/TrackPointExtension/v1">
            <gpxtpx:hr>63</gpxtpx:hr>
          </gpxtpx:TrackPointExtension>
        </extensions>
      </trkpt>
      <trkpt lat="43.50187" lon="1.50887">
        <ele>136.80000305176</ele>
        <time>2020-06-10T14:24:03.000Z</time>
        <extensions>
          <gpxtpx:TrackPointExtension xmlns:gpxtpx="http://www.garmin.com/xmlschemas/TrackPointExtension/v1">
            <gpxtpx:hr>63</gpxtpx:hr>
          </gpxtpx:TrackPointExtension>
        </extensions>
      </trkpt>
      <trkpt lat="43.50195" lon="1.50877">
        <ele>135.39999389648</ele>
        <time>2020-06-10T14:24:05.000Z</time>
        <extensions>
          <gpxtpx:TrackPointExtension xmlns:gpxtpx="http://www.garmin.com/xmlschemas/TrackPointExtension/v1">
            <gpxtpx:hr>64</gpxtpx:hr>
          </gpxtpx:TrackPointExtension>
        </extensions>
      </trkpt>
      <trkpt lat="43.50207" lon="1.50873">
        <ele>133.60000610352</ele>
        <time>2020-06-10T14:24:07.000Z</time>
        <extensions>
          <gpxtpx:TrackPointExtension xmlns:gpxtpx="http://www.garmin.com/xmlschemas/TrackPointExtension/v1">
            <gpxtpx:hr>65</gpxtpx:hr>
          </gpxtpx:TrackPointExtension>
        </extensions>
      </trkpt>
      <trkpt lat="43.5022" lon="1.50874">
        <ele>132.39999389648</ele>
        <time>2020-06-10T14:24:09.000Z</time>
        <extensions>
          <gpxtpx:TrackPointExtension xmlns:gpxtpx="http://www.garmin.com/xmlschemas/TrackPointExtension/v1">
            <gpxtpx:hr>66</gpxtpx:hr>
          </gpxtpx:TrackPointExtension>
        </extensions>
      </trkpt>
      <trkpt lat="43.50227" lon="1.50876">
        <ele>132</ele>
        <time>2020-06-10T14:24:10.000Z</time>
        <extensions>
          <gpxtpx:TrackPointExtension xmlns:gpxtpx="http://www.garmin.com/xmlschemas/TrackPointExtension/v1">
            <gpxtpx:hr>66</gpxtpx:hr>
          </gpxtpx:TrackPointExtension>
        </extensions>
      </trkpt>
      <trkpt lat="43.5024" lon="1.5088">
        <ele>130.80000305176</ele>
        <time>2020-06-10T14:24:12.000Z</time>
        <extensions>
          <gpxtpx:TrackPointExtension xmlns:gpxtpx="http://www.garmin.com/xmlschemas/TrackPointExtension/v1">
            <gpxtpx:hr>65</gpxtpx:hr>
          </gpxtpx:TrackPointExtension>
        </extensions>
      </trkpt>
      <trkpt lat="43.50247" lon="1.50882">
        <ele>129.60000610352</ele>
        <time>2020-06-10T14:24:13.000Z</time>
        <extensions>
          <gpxtpx:TrackPointExtension xmlns:gpxtpx="http://www.garmin.com/xmlschemas/TrackPointExtension/v1">
            <gpxtpx:hr>65</gpxtpx:hr>
          </gpxtpx:TrackPointExtension>
        </extensions>
      </trkpt>
      <trkpt lat="43.50254" lon="1.50884">
        <ele>128.39999389648</ele>
        <time>2020-06-10T14:24:14.000Z</time>
        <extensions>
          <gpxtpx:TrackPointExtension xmlns:gpxtpx="http://www.garmin.com/xmlschemas/TrackPointExtension/v1">
            <gpxtpx:hr>65</gpxtpx:hr>
          </gpxtpx:TrackPointExtension>
        </extensions>
      </trkpt>
      <trkpt lat="43.50268" lon="1.50888">
        <ele>126</ele>
        <time>2020-06-10T14:24:16.000Z</time>
        <extensions>
          <gpxtpx:TrackPointExtension xmlns:gpxtpx="http://www.garmin.com/xmlschemas/TrackPointExtension/v1">
            <gpxtpx:hr>65</gpxtpx:hr>
          </gpxtpx:TrackPointExtension>
        </extensions>
      </trkpt>
      <trkpt lat="43.50274" lon="1.50891">
        <ele>125</ele>
        <time>2020-06-10T14:24:17.000Z</time>
        <extensions>
          <gpxtpx:TrackPointExtension xmlns:gpxtpx="http://www.garmin.com/xmlschemas/TrackPointExtension/v1">
            <gpxtpx:hr>65</gpxtpx:hr>
          </gpxtpx:TrackPointExtension>
        </extensions>
      </trkpt>
      <trkpt lat="43.50286" lon="1.50898">
        <ele>123.59999847412</ele>
        <time>2020-06-10T14:24:19.000Z</time>
        <extensions>
          <gpxtpx:TrackPointExtension xmlns:gpxtpx="http://www.garmin.com/xmlschemas/TrackPointExtension/v1">
            <gpxtpx:hr>66</gpxtpx:hr>
          </gpxtpx:TrackPointExtension>
        </extensions>
      </trkpt>
      <trkpt lat="43.50292" lon="1.50903">
        <ele>122.59999847412</ele>
        <time>2020-06-10T14:24:20.000Z</time>
        <extensions>
          <gpxtpx:TrackPointExtension xmlns:gpxtpx="http://www.garmin.com/xmlschemas/TrackPointExtension/v1">
            <gpxtpx:hr>66</gpxtpx:hr>
          </gpxtpx:TrackPointExtension>
        </extensions>
      </trkpt>
      <trkpt lat="43.50297" lon="1.50909">
        <ele>121.59999847412</ele>
        <time>2020-06-10T14:24:21.000Z</time>
        <extensions>
          <gpxtpx:TrackPointExtension xmlns:gpxtpx="http://www.garmin.com/xmlschemas/TrackPointExtension/v1">
            <gpxtpx:hr>66</gpxtpx:hr>
          </gpxtpx:TrackPointExtension>
        </extensions>
      </trkpt>
      <trkpt lat="43.50302" lon="1.50915">
        <ele>120.40000152588</ele>
        <time>2020-06-10T14:24:22.000Z</time>
        <extensions>
          <gpxtpx:TrackPointExtension xmlns:gpxtpx="http://www.garmin.com/xmlschemas/TrackPointExtension/v1">
            <gpxtpx:hr>65</gpxtpx:hr>
          </gpxtpx:TrackPointExtension>
        </extensions>
      </trkpt>
      <trkpt lat="43.50305" lon="1.50923">
        <ele>119.59999847412</ele>
        <time>2020-06-10T14:24:23.000Z</time>
        <extensions>
          <gpxtpx:TrackPointExtension xmlns:gpxtpx="http://www.garmin.com/xmlschemas/TrackPointExtension/v1">
            <gpxtpx:hr>65</gpxtpx:hr>
          </gpxtpx:TrackPointExtension>
        </extensions>
      </trkpt>
      <trkpt lat="43.50312" lon="1.50938">
        <ele>118.19999694824</ele>
        <time>2020-06-10T14:24:25.000Z</time>
        <extensions>
          <gpxtpx:TrackPointExtension xmlns:gpxtpx="http://www.garmin.com/xmlschemas/TrackPointExtension/v1">
            <gpxtpx:hr>64</gpxtpx:hr>
          </gpxtpx:TrackPointExtension>
        </extensions>
      </trkpt>
      <trkpt lat="43.50315" lon="1.50946">
        <ele>117.80000305176</ele>
        <time>2020-06-10T14:24:26.000Z</time>
        <extensions>
          <gpxtpx:TrackPointExtension xmlns:gpxtpx="http://www.garmin.com/xmlschemas/TrackPointExtension/v1">
            <gpxtpx:hr>64</gpxtpx:hr>
          </gpxtpx:TrackPointExtension>
        </extensions>
      </trkpt>
      <trkpt lat="43.50322" lon="1.50966">
        <ele>117</ele>
        <time>2020-06-10T14:24:29.000Z</time>
        <extensions>
          <gpxtpx:TrackPointExtension xmlns:gpxtpx="http://www.garmin.com/xmlschemas/TrackPointExtension/v1">
            <gpxtpx:hr>64</gpxtpx:hr>
          </gpxtpx:TrackPointExtension>
        </extensions>
      </trkpt>
      <trkpt lat="43.50325" lon="1.50977">
        <ele>115.80000305176</ele>
        <time>2020-06-10T14:24:31.000Z</time>
        <extensions>
          <gpxtpx:TrackPointExtension xmlns:gpxtpx="http://www.garmin.com/xmlschemas/TrackPointExtension/v1">
            <gpxtpx:hr>63</gpxtpx:hr>
          </gpxtpx:TrackPointExtension>
        </extensions>
      </trkpt>
      <trkpt lat="43.50329" lon="1.50988">
        <ele>114.80000305176</ele>
        <time>2020-06-10T14:24:33.000Z</time>
        <extensions>
          <gpxtpx:TrackPointExtension xmlns:gpxtpx="http://www.garmin.com/xmlschemas/TrackPointExtension/v1">
            <gpxtpx:hr>64</gpxtpx:hr>
          </gpxtpx:TrackPointExtension>
        </extensions>
      </trkpt>
      <trkpt lat="43.50333" lon="1.50999">
        <ele>113.59999847412</ele>
        <time>2020-06-10T14:24:35.000Z</time>
        <extensions>
          <gpxtpx:TrackPointExtension xmlns:gpxtpx="http://www.garmin.com/xmlschemas/TrackPointExtension/v1">
            <gpxtpx:hr>64</gpxtpx:hr>
          </gpxtpx:TrackPointExtension>
        </extensions>
      </trkpt>
      <trkpt lat="43.50336" lon="1.51009">
        <ele>112.40000152588</ele>
        <time>2020-06-10T14:24:37.000Z</time>
        <extensions>
          <gpxtpx:TrackPointExtension xmlns:gpxtpx="http://www.garmin.com/xmlschemas/TrackPointExtension/v1">
            <gpxtpx:hr>65</gpxtpx:hr>
          </gpxtpx:TrackPointExtension>
        </extensions>
      </trkpt>
      <trkpt lat="43.50341" lon="1.51021">
        <ele>111.19999694824</ele>
        <time>2020-06-10T14:24:40.000Z</time>
        <extensions>
          <gpxtpx:TrackPointExtension xmlns:gpxtpx="http://www.garmin.com/xmlschemas/TrackPointExtension/v1">
            <gpxtpx:hr>64</gpxtpx:hr>
          </gpxtpx:TrackPointExtension>
        </extensions>
      </trkpt>
      <trkpt lat="43.50344" lon="1.5103">
        <ele>110.19999694824</ele>
        <time>2020-06-10T14:24:43.000Z</time>
        <extensions>
          <gpxtpx:TrackPointExtension xmlns:gpxtpx="http://www.garmin.com/xmlschemas/TrackPointExtension/v1">
            <gpxtpx:hr>64</gpxtpx:hr>
          </gpxtpx:TrackPointExtension>
        </extensions>
      </trkpt>
      <trkpt lat="43.50346" lon="1.51041">
        <ele>109.19999694824</ele>
        <time>2020-06-10T14:24:48.000Z</time>
        <extensions>
          <gpxtpx:TrackPointExtension xmlns:gpxtpx="http://www.garmin.com/xmlschemas/TrackPointExtension/v1">
            <gpxtpx:hr>65</gpxtpx:hr>
          </gpxtpx:TrackPointExtension>
        </extensions>
      </trkpt>
      <trkpt lat="43.50346" lon="1.51047">
        <ele>108.19999694824</ele>
        <time>2020-06-10T14:25:16.000Z</time>
        <extensions>
          <gpxtpx:TrackPointExtension xmlns:gpxtpx="http://www.garmin.com/xmlschemas/TrackPointExtension/v1">
            <gpxtpx:hr>68</gpxtpx:hr>
          </gpxtpx:TrackPointExtension>
        </extensions>
      </trkpt>
      <trkpt lat="43.50345" lon="1.51049">
        <ele>108.19999694824</ele>
        <time>2020-06-10T14:25:17.000Z</time>
        <extensions>
          <gpxtpx:TrackPointExtension xmlns:gpxtpx="http://www.garmin.com/xmlschemas/TrackPointExtension/v1">
            <gpxtpx:hr>69</gpxtpx:hr>
          </gpxtpx:TrackPointExtension>
        </extensions>
      </trkpt>
      <trkpt lat="43.50341" lon="1.5106">
        <ele>108</ele>
        <time>2020-06-10T14:25:20.000Z</time>
        <extensions>
          <gpxtpx:TrackPointExtension xmlns:gpxtpx="http://www.garmin.com/xmlschemas/TrackPointExtension/v1">
            <gpxtpx:hr>72</gpxtpx:hr>
          </gpxtpx:TrackPointExtension>
        </extensions>
      </trkpt>
      <trkpt lat="43.50338" lon="1.51064">
        <ele>108</ele>
        <time>2020-06-10T14:25:21.000Z</time>
        <extensions>
          <gpxtpx:TrackPointExtension xmlns:gpxtpx="http://www.garmin.com/xmlschemas/TrackPointExtension/v1">
            <gpxtpx:hr>72</gpxtpx:hr>
          </gpxtpx:TrackPointExtension>
        </extensions>
      </trkpt>
      <trkpt lat="43.50301" lon="1.51109">
        <ele>107.40000152588</ele>
        <time>2020-06-10T14:25:37.000Z</time>
        <extensions>
          <gpxtpx:TrackPointExtension xmlns:gpxtpx="http://www.garmin.com/xmlschemas/TrackPointExtension/v1">
            <gpxtpx:hr>72</gpxtpx:hr>
          </gpxtpx:TrackPointExtension>
        </extensions>
      </trkpt>
      <trkpt lat="43.50304" lon="1.51124">
        <ele>107.40000152588</ele>
        <time>2020-06-10T14:25:41.000Z</time>
        <extensions>
          <gpxtpx:TrackPointExtension xmlns:gpxtpx="http://www.garmin.com/xmlschemas/TrackPointExtension/v1">
            <gpxtpx:hr>74</gpxtpx:hr>
          </gpxtpx:TrackPointExtension>
        </extensions>
      </trkpt>
      <trkpt lat="43.50308" lon="1.51133">
        <ele>107.40000152588</ele>
        <time>2020-06-10T14:25:43.000Z</time>
        <extensions>
          <gpxtpx:TrackPointExtension xmlns:gpxtpx="http://www.garmin.com/xmlschemas/TrackPointExtension/v1">
            <gpxtpx:hr>74</gpxtpx:hr>
          </gpxtpx:TrackPointExtension>
        </extensions>
      </trkpt>
      <trkpt lat="43.50326" lon="1.5116">
        <ele>106.19999694824</ele>
        <time>2020-06-10T14:25:48.000Z</time>
        <extensions>
          <gpxtpx:TrackPointExtension xmlns:gpxtpx="http://www.garmin.com/xmlschemas/TrackPointExtension/v1">
            <gpxtpx:hr>72</gpxtpx:hr>
          </gpxtpx:TrackPointExtension>
        </extensions>
      </trkpt>
      <trkpt lat="43.50339" lon="1.51177">
        <ele>104.80000305176</ele>
        <time>2020-06-10T14:25:51.000Z</time>
        <extensions>
          <gpxtpx:TrackPointExtension xmlns:gpxtpx="http://www.garmin.com/xmlschemas/TrackPointExtension/v1">
            <gpxtpx:hr>70</gpxtpx:hr>
          </gpxtpx:TrackPointExtension>
        </extensions>
      </trkpt>
      <trkpt lat="43.50346" lon="1.51187">
        <ele>103.80000305176</ele>
        <time>2020-06-10T14:25:53.000Z</time>
        <extensions>
          <gpxtpx:TrackPointExtension xmlns:gpxtpx="http://www.garmin.com/xmlschemas/TrackPointExtension/v1">
            <gpxtpx:hr>69</gpxtpx:hr>
          </gpxtpx:TrackPointExtension>
        </extensions>
      </trkpt>
      <trkpt lat="43.50356" lon="1.51207">
        <ele>103</ele>
        <time>2020-06-10T14:25:57.000Z</time>
        <extensions>
          <gpxtpx:TrackPointExtension xmlns:gpxtpx="http://www.garmin.com/xmlschemas/TrackPointExtension/v1">
            <gpxtpx:hr>68</gpxtpx:hr>
          </gpxtpx:TrackPointExtension>
        </extensions>
      </trkpt>
      <trkpt lat="43.50367" lon="1.51222">
        <ele>102.80000305176</ele>
        <time>2020-06-10T14:26:01.000Z</time>
        <extensions>
          <gpxtpx:TrackPointExtension xmlns:gpxtpx="http://www.garmin.com/xmlschemas/TrackPointExtension/v1">
            <gpxtpx:hr>67</gpxtpx:hr>
          </gpxtpx:TrackPointExtension>
        </extensions>
      </trkpt>
      <trkpt lat="43.50374" lon="1.51228">
        <ele>102.80000305176</ele>
        <time>2020-06-10T14:26:03.000Z</time>
        <extensions>
          <gpxtpx:TrackPointExtension xmlns:gpxtpx="http://www.garmin.com/xmlschemas/TrackPointExtension/v1">
            <gpxtpx:hr>67</gpxtpx:hr>
          </gpxtpx:TrackPointExtension>
        </extensions>
      </trkpt>
      <trkpt lat="43.50407" lon="1.51275">
        <ele>102.40000152588</ele>
        <time>2020-06-10T14:26:13.000Z</time>
        <extensions>
          <gpxtpx:TrackPointExtension xmlns:gpxtpx="http://www.garmin.com/xmlschemas/TrackPointExtension/v1">
            <gpxtpx:hr>65</gpxtpx:hr>
          </gpxtpx:TrackPointExtension>
        </extensions>
      </trkpt>
      <trkpt lat="43.50417" lon="1.5129">
        <ele>101.80000305176</ele>
        <time>2020-06-10T14:26:16.000Z</time>
        <extensions>
          <gpxtpx:TrackPointExtension xmlns:gpxtpx="http://www.garmin.com/xmlschemas/TrackPointExtension/v1">
            <gpxtpx:hr>65</gpxtpx:hr>
          </gpxtpx:TrackPointExtension>
        </extensions>
      </trkpt>
      <trkpt lat="43.50441" lon="1.51327">
        <ele>100.80000305176</ele>
        <time>2020-06-10T14:26:23.000Z</time>
        <extensions>
          <gpxtpx:TrackPointExtension xmlns:gpxtpx="http://www.garmin.com/xmlschemas/TrackPointExtension/v1">
            <gpxtpx:hr>63</gpxtpx:hr>
          </gpxtpx:TrackPointExtension>
        </extensions>
      </trkpt>
      <trkpt lat="43.50481" lon="1.51379">
        <ele>99.800003051758</ele>
        <time>2020-06-10T14:26:34.000Z</time>
        <extensions>
          <gpxtpx:TrackPointExtension xmlns:gpxtpx="http://www.garmin.com/xmlschemas/TrackPointExtension/v1">
            <gpxtpx:hr>62</gpxtpx:hr>
          </gpxtpx:TrackPointExtension>
        </extensions>
      </trkpt>
      <trkpt lat="43.50518" lon="1.51405">
        <ele>99.400001525879</ele>
        <time>2020-06-10T14:26:43.000Z</time>
        <extensions>
          <gpxtpx:TrackPointExtension xmlns:gpxtpx="http://www.garmin.com/xmlschemas/TrackPointExtension/v1">
            <gpxtpx:hr>66</gpxtpx:hr>
          </gpxtpx:TrackPointExtension>
        </extensions>
      </trkpt>
      <trkpt lat="43.50532" lon="1.51414">
        <ele>99.199996948242</ele>
        <time>2020-06-10T14:26:46.000Z</time>
        <extensions>
          <gpxtpx:TrackPointExtension xmlns:gpxtpx="http://www.garmin.com/xmlschemas/TrackPointExtension/v1">
            <gpxtpx:hr>67</gpxtpx:hr>
          </gpxtpx:TrackPointExtension>
        </extensions>
      </trkpt>
      <trkpt lat="43.50545" lon="1.51435">
        <ele>99.199996948242</ele>
        <time>2020-06-10T14:26:50.000Z</time>
        <extensions>
          <gpxtpx:TrackPointExtension xmlns:gpxtpx="http://www.garmin.com/xmlschemas/TrackPointExtension/v1">
            <gpxtpx:hr>68</gpxtpx:hr>
          </gpxtpx:TrackPointExtension>
        </extensions>
      </trkpt>
      <trkpt lat="43.50552" lon="1.51454">
        <ele>99.199996948242</ele>
        <time>2020-06-10T14:26:53.000Z</time>
        <extensions>
          <gpxtpx:TrackPointExtension xmlns:gpxtpx="http://www.garmin.com/xmlschemas/TrackPointExtension/v1">
            <gpxtpx:hr>69</gpxtpx:hr>
          </gpxtpx:TrackPointExtension>
        </extensions>
      </trkpt>
      <trkpt lat="43.50562" lon="1.51503">
        <ele>99</ele>
        <time>2020-06-10T14:27:01.000Z</time>
        <extensions>
          <gpxtpx:TrackPointExtension xmlns:gpxtpx="http://www.garmin.com/xmlschemas/TrackPointExtension/v1">
            <gpxtpx:hr>71</gpxtpx:hr>
          </gpxtpx:TrackPointExtension>
        </extensions>
      </trkpt>
      <trkpt lat="43.50569" lon="1.51512">
        <ele>99</ele>
        <time>2020-06-10T14:27:03.000Z</time>
        <extensions>
          <gpxtpx:TrackPointExtension xmlns:gpxtpx="http://www.garmin.com/xmlschemas/TrackPointExtension/v1">
            <gpxtpx:hr>72</gpxtpx:hr>
          </gpxtpx:TrackPointExtension>
        </extensions>
      </trkpt>
      <trkpt lat="43.50577" lon="1.51521">
        <ele>98.800003051758</ele>
        <time>2020-06-10T14:27:05.000Z</time>
        <extensions>
          <gpxtpx:TrackPointExtension xmlns:gpxtpx="http://www.garmin.com/xmlschemas/TrackPointExtension/v1">
            <gpxtpx:hr>72</gpxtpx:hr>
          </gpxtpx:TrackPointExtension>
        </extensions>
      </trkpt>
      <trkpt lat="43.50605" lon="1.51523">
        <ele>98.599998474121</ele>
        <time>2020-06-10T14:27:11.000Z</time>
        <extensions>
          <gpxtpx:TrackPointExtension xmlns:gpxtpx="http://www.garmin.com/xmlschemas/TrackPointExtension/v1">
            <gpxtpx:hr>73</gpxtpx:hr>
          </gpxtpx:TrackPointExtension>
        </extensions>
      </trkpt>
      <trkpt lat="43.50617" lon="1.51516">
        <ele>98.599998474121</ele>
        <time>2020-06-10T14:27:17.000Z</time>
        <extensions>
          <gpxtpx:TrackPointExtension xmlns:gpxtpx="http://www.garmin.com/xmlschemas/TrackPointExtension/v1">
            <gpxtpx:hr>74</gpxtpx:hr>
          </gpxtpx:TrackPointExtension>
        </extensions>
      </trkpt>
      <trkpt lat="43.50619" lon="1.51513">
        <ele>99</ele>
        <time>2020-06-10T14:27:40.000Z</time>
        <extensions>
          <gpxtpx:TrackPointExtension xmlns:gpxtpx="http://www.garmin.com/xmlschemas/TrackPointExtension/v1">
            <gpxtpx:hr>75</gpxtpx:hr>
          </gpxtpx:TrackPointExtension>
        </extensions>
      </trkpt>
      <trkpt lat="43.50621" lon="1.51513">
        <ele>99</ele>
        <time>2020-06-10T14:27:41.000Z</time>
        <extensions>
          <gpxtpx:TrackPointExtension xmlns:gpxtpx="http://www.garmin.com/xmlschemas/TrackPointExtension/v1">
            <gpxtpx:hr>76</gpxtpx:hr>
          </gpxtpx:TrackPointExtension>
        </extensions>
      </trkpt>
      <trkpt lat="43.50656" lon="1.51496">
        <ele>98</ele>
        <time>2020-06-10T14:27:52.000Z</time>
        <extensions>
          <gpxtpx:TrackPointExtension xmlns:gpxtpx="http://www.garmin.com/xmlschemas/TrackPointExtension/v1">
            <gpxtpx:hr>77</gpxtpx:hr>
          </gpxtpx:TrackPointExtension>
        </extensions>
      </trkpt>
      <trkpt lat="43.50666" lon="1.51491">
        <ele>97.800003051758</ele>
        <time>2020-06-10T14:27:54.000Z</time>
        <extensions>
          <gpxtpx:TrackPointExtension xmlns:gpxtpx="http://www.garmin.com/xmlschemas/TrackPointExtension/v1">
            <gpxtpx:hr>80</gpxtpx:hr>
          </gpxtpx:TrackPointExtension>
        </extensions>
      </trkpt>
      <trkpt lat="43.50695" lon="1.51476">
        <ele>97</ele>
        <time>2020-06-10T14:28:00.000Z</time>
        <extensions>
          <gpxtpx:TrackPointExtension xmlns:gpxtpx="http://www.garmin.com/xmlschemas/TrackPointExtension/v1">
            <gpxtpx:hr>79</gpxtpx:hr>
          </gpxtpx:TrackPointExtension>
        </extensions>
      </trkpt>
      <trkpt lat="43.50704" lon="1.51474">
        <ele>96.800003051758</ele>
        <time>2020-06-10T14:28:02.000Z</time>
        <extensions>
          <gpxtpx:TrackPointExtension xmlns:gpxtpx="http://www.garmin.com/xmlschemas/TrackPointExtension/v1">
            <gpxtpx:hr>78</gpxtpx:hr>
          </gpxtpx:TrackPointExtension>
        </extensions>
      </trkpt>
      <trkpt lat="43.50721" lon="1.5148">
        <ele>96.599998474121</ele>
        <time>2020-06-10T14:28:06.000Z</time>
        <extensions>
          <gpxtpx:TrackPointExtension xmlns:gpxtpx="http://www.garmin.com/xmlschemas/TrackPointExtension/v1">
            <gpxtpx:hr>77</gpxtpx:hr>
          </gpxtpx:TrackPointExtension>
        </extensions>
      </trkpt>
      <trkpt lat="43.5073" lon="1.51484">
        <ele>96.599998474121</ele>
        <time>2020-06-10T14:28:08.000Z</time>
        <extensions>
          <gpxtpx:TrackPointExtension xmlns:gpxtpx="http://www.garmin.com/xmlschemas/TrackPointExtension/v1">
            <gpxtpx:hr>77</gpxtpx:hr>
          </gpxtpx:TrackPointExtension>
        </extensions>
      </trkpt>
      <trkpt lat="43.50751" lon="1.51481">
        <ele>96.800003051758</ele>
        <time>2020-06-10T14:28:13.000Z</time>
        <extensions>
          <gpxtpx:TrackPointExtension xmlns:gpxtpx="http://www.garmin.com/xmlschemas/TrackPointExtension/v1">
            <gpxtpx:hr>79</gpxtpx:hr>
          </gpxtpx:TrackPointExtension>
        </extensions>
      </trkpt>
      <trkpt lat="43.50804" lon="1.51466">
        <ele>96.800003051758</ele>
        <time>2020-06-10T14:28:25.000Z</time>
        <extensions>
          <gpxtpx:TrackPointExtension xmlns:gpxtpx="http://www.garmin.com/xmlschemas/TrackPointExtension/v1">
            <gpxtpx:hr>82</gpxtpx:hr>
          </gpxtpx:TrackPointExtension>
        </extensions>
      </trkpt>
      <trkpt lat="43.50861" lon="1.51463">
        <ele>96.800003051758</ele>
        <time>2020-06-10T14:28:38.000Z</time>
        <extensions>
          <gpxtpx:TrackPointExtension xmlns:gpxtpx="http://www.garmin.com/xmlschemas/TrackPointExtension/v1">
            <gpxtpx:hr>81</gpxtpx:hr>
          </gpxtpx:TrackPointExtension>
        </extensions>
      </trkpt>
      <trkpt lat="43.5089" lon="1.51469">
        <ele>96.800003051758</ele>
        <time>2020-06-10T14:28:44.000Z</time>
        <extensions>
          <gpxtpx:TrackPointExtension xmlns:gpxtpx="http://www.garmin.com/xmlschemas/TrackPointExtension/v1">
            <gpxtpx:hr>84</gpxtpx:hr>
          </gpxtpx:TrackPointExtension>
        </extensions>
      </trkpt>
      <trkpt lat="43.50923" lon="1.51475">
        <ele>96.800003051758</ele>
        <time>2020-06-10T14:28:51.000Z</time>
        <extensions>
          <gpxtpx:TrackPointExtension xmlns:gpxtpx="http://www.garmin.com/xmlschemas/TrackPointExtension/v1">
            <gpxtpx:hr>81</gpxtpx:hr>
          </gpxtpx:TrackPointExtension>
        </extensions>
      </trkpt>
      <trkpt lat="43.50944" lon="1.51478">
        <ele>96.800003051758</ele>
        <time>2020-06-10T14:28:56.000Z</time>
        <extensions>
          <gpxtpx:TrackPointExtension xmlns:gpxtpx="http://www.garmin.com/xmlschemas/TrackPointExtension/v1">
            <gpxtpx:hr>78</gpxtpx:hr>
          </gpxtpx:TrackPointExtension>
        </extensions>
      </trkpt>
      <trkpt lat="43.5098" lon="1.5151">
        <ele>97.599998474121</ele>
        <time>2020-06-10T14:29:08.000Z</time>
        <extensions>
          <gpxtpx:TrackPointExtension xmlns:gpxtpx="http://www.garmin.com/xmlschemas/TrackPointExtension/v1">
            <gpxtpx:hr>76</gpxtpx:hr>
          </gpxtpx:TrackPointExtension>
        </extensions>
      </trkpt>
      <trkpt lat="43.5099" lon="1.51532">
        <ele>97.800003051758</ele>
        <time>2020-06-10T14:29:12.000Z</time>
        <extensions>
          <gpxtpx:TrackPointExtension xmlns:gpxtpx="http://www.garmin.com/xmlschemas/TrackPointExtension/v1">
            <gpxtpx:hr>79</gpxtpx:hr>
          </gpxtpx:TrackPointExtension>
        </extensions>
      </trkpt>
      <trkpt lat="43.51004" lon="1.51552">
        <ele>97.599998474121</ele>
        <time>2020-06-10T14:29:16.000Z</time>
        <extensions>
          <gpxtpx:TrackPointExtension xmlns:gpxtpx="http://www.garmin.com/xmlschemas/TrackPointExtension/v1">
            <gpxtpx:hr>82</gpxtpx:hr>
          </gpxtpx:TrackPointExtension>
        </extensions>
      </trkpt>
      <trkpt lat="43.51033" lon="1.51583">
        <ele>97.400001525879</ele>
        <time>2020-06-10T14:29:23.000Z</time>
        <extensions>
          <gpxtpx:TrackPointExtension xmlns:gpxtpx="http://www.garmin.com/xmlschemas/TrackPointExtension/v1">
            <gpxtpx:hr>85</gpxtpx:hr>
          </gpxtpx:TrackPointExtension>
        </extensions>
      </trkpt>
      <trkpt lat="43.51069" lon="1.51618">
        <ele>97.599998474121</ele>
        <time>2020-06-10T14:29:32.000Z</time>
        <extensions>
          <gpxtpx:TrackPointExtension xmlns:gpxtpx="http://www.garmin.com/xmlschemas/TrackPointExtension/v1">
            <gpxtpx:hr>88</gpxtpx:hr>
          </gpxtpx:TrackPointExtension>
        </extensions>
      </trkpt>
      <trkpt lat="43.51084" lon="1.51636">
        <ele>98.599998474121</ele>
        <time>2020-06-10T14:29:36.000Z</time>
        <extensions>
          <gpxtpx:TrackPointExtension xmlns:gpxtpx="http://www.garmin.com/xmlschemas/TrackPointExtension/v1">
            <gpxtpx:hr>89</gpxtpx:hr>
          </gpxtpx:TrackPointExtension>
        </extensions>
      </trkpt>
      <trkpt lat="43.511" lon="1.51663">
        <ele>99.599998474121</ele>
        <time>2020-06-10T14:29:42.000Z</time>
        <extensions>
          <gpxtpx:TrackPointExtension xmlns:gpxtpx="http://www.garmin.com/xmlschemas/TrackPointExtension/v1">
            <gpxtpx:hr>89</gpxtpx:hr>
          </gpxtpx:TrackPointExtension>
        </extensions>
      </trkpt>
      <trkpt lat="43.51109" lon="1.51684">
        <ele>100.40000152588</ele>
        <time>2020-06-10T14:29:47.000Z</time>
        <extensions>
          <gpxtpx:TrackPointExtension xmlns:gpxtpx="http://www.garmin.com/xmlschemas/TrackPointExtension/v1">
            <gpxtpx:hr>89</gpxtpx:hr>
          </gpxtpx:TrackPointExtension>
        </extensions>
      </trkpt>
      <trkpt lat="43.51112" lon="1.51695">
        <ele>100.59999847412</ele>
        <time>2020-06-10T14:29:49.000Z</time>
        <extensions>
          <gpxtpx:TrackPointExtension xmlns:gpxtpx="http://www.garmin.com/xmlschemas/TrackPointExtension/v1">
            <gpxtpx:hr>89</gpxtpx:hr>
          </gpxtpx:TrackPointExtension>
        </extensions>
      </trkpt>
      <trkpt lat="43.51125" lon="1.51737">
        <ele>101</ele>
        <time>2020-06-10T14:29:57.000Z</time>
        <extensions>
          <gpxtpx:TrackPointExtension xmlns:gpxtpx="http://www.garmin.com/xmlschemas/TrackPointExtension/v1">
            <gpxtpx:hr>89</gpxtpx:hr>
          </gpxtpx:TrackPointExtension>
        </extensions>
      </trkpt>
      <trkpt lat="43.51139" lon="1.51735">
        <ele>101</ele>
        <time>2020-06-10T14:30:01.000Z</time>
        <extensions>
          <gpxtpx:TrackPointExtension xmlns:gpxtpx="http://www.garmin.com/xmlschemas/TrackPointExtension/v1">
            <gpxtpx:hr>86</gpxtpx:hr>
          </gpxtpx:TrackPointExtension>
        </extensions>
      </trkpt>
      <trkpt lat="43.51154" lon="1.51734">
        <ele>101</ele>
        <time>2020-06-10T14:30:04.000Z</time>
        <extensions>
          <gpxtpx:TrackPointExtension xmlns:gpxtpx="http://www.garmin.com/xmlschemas/TrackPointExtension/v1">
            <gpxtpx:hr>83</gpxtpx:hr>
          </gpxtpx:TrackPointExtension>
        </extensions>
      </trkpt>
      <trkpt lat="43.51165" lon="1.51732">
        <ele>100.80000305176</ele>
        <time>2020-06-10T14:30:06.000Z</time>
        <extensions>
          <gpxtpx:TrackPointExtension xmlns:gpxtpx="http://www.garmin.com/xmlschemas/TrackPointExtension/v1">
            <gpxtpx:hr>82</gpxtpx:hr>
          </gpxtpx:TrackPointExtension>
        </extensions>
      </trkpt>
      <trkpt lat="43.51186" lon="1.51725">
        <ele>99.199996948242</ele>
        <time>2020-06-10T14:30:10.000Z</time>
        <extensions>
          <gpxtpx:TrackPointExtension xmlns:gpxtpx="http://www.garmin.com/xmlschemas/TrackPointExtension/v1">
            <gpxtpx:hr>79</gpxtpx:hr>
          </gpxtpx:TrackPointExtension>
        </extensions>
      </trkpt>
      <trkpt lat="43.51195" lon="1.51722">
        <ele>98.400001525879</ele>
        <time>2020-06-10T14:30:12.000Z</time>
        <extensions>
          <gpxtpx:TrackPointExtension xmlns:gpxtpx="http://www.garmin.com/xmlschemas/TrackPointExtension/v1">
            <gpxtpx:hr>77</gpxtpx:hr>
          </gpxtpx:TrackPointExtension>
        </extensions>
      </trkpt>
      <trkpt lat="43.51214" lon="1.51714">
        <ele>97.599998474121</ele>
        <time>2020-06-10T14:30:17.000Z</time>
        <extensions>
          <gpxtpx:TrackPointExtension xmlns:gpxtpx="http://www.garmin.com/xmlschemas/TrackPointExtension/v1">
            <gpxtpx:hr>74</gpxtpx:hr>
          </gpxtpx:TrackPointExtension>
        </extensions>
      </trkpt>
      <trkpt lat="43.51227" lon="1.5171">
        <ele>97.400001525879</ele>
        <time>2020-06-10T14:30:20.000Z</time>
        <extensions>
          <gpxtpx:TrackPointExtension xmlns:gpxtpx="http://www.garmin.com/xmlschemas/TrackPointExtension/v1">
            <gpxtpx:hr>72</gpxtpx:hr>
          </gpxtpx:TrackPointExtension>
        </extensions>
      </trkpt>
      <trkpt lat="43.51245" lon="1.51705">
        <ele>97.400001525879</ele>
        <time>2020-06-10T14:30:24.000Z</time>
        <extensions>
          <gpxtpx:TrackPointExtension xmlns:gpxtpx="http://www.garmin.com/xmlschemas/TrackPointExtension/v1">
            <gpxtpx:hr>69</gpxtpx:hr>
          </gpxtpx:TrackPointExtension>
        </extensions>
      </trkpt>
      <trkpt lat="43.5125" lon="1.51704">
        <ele>97.400001525879</ele>
        <time>2020-06-10T14:30:25.000Z</time>
        <extensions>
          <gpxtpx:TrackPointExtension xmlns:gpxtpx="http://www.garmin.com/xmlschemas/TrackPointExtension/v1">
            <gpxtpx:hr>69</gpxtpx:hr>
          </gpxtpx:TrackPointExtension>
        </extensions>
      </trkpt>
      <trkpt lat="43.51255" lon="1.51703">
        <ele>97.400001525879</ele>
        <time>2020-06-10T14:30:26.000Z</time>
        <extensions>
          <gpxtpx:TrackPointExtension xmlns:gpxtpx="http://www.garmin.com/xmlschemas/TrackPointExtension/v1">
            <gpxtpx:hr>69</gpxtpx:hr>
          </gpxtpx:TrackPointExtension>
        </extensions>
      </trkpt>
      <trkpt lat="43.51277" lon="1.51698">
        <ele>97.400001525879</ele>
        <time>2020-06-10T14:30:31.000Z</time>
        <extensions>
          <gpxtpx:TrackPointExtension xmlns:gpxtpx="http://www.garmin.com/xmlschemas/TrackPointExtension/v1">
            <gpxtpx:hr>70</gpxtpx:hr>
          </gpxtpx:TrackPointExtension>
        </extensions>
      </trkpt>
      <trkpt lat="43.51334" lon="1.51682">
        <ele>98</ele>
        <time>2020-06-10T14:30:44.000Z</time>
        <extensions>
          <gpxtpx:TrackPointExtension xmlns:gpxtpx="http://www.garmin.com/xmlschemas/TrackPointExtension/v1">
            <gpxtpx:hr>70</gpxtpx:hr>
          </gpxtpx:TrackPointExtension>
        </extensions>
      </trkpt>
      <trkpt lat="43.51392" lon="1.51662">
        <ele>98.199996948242</ele>
        <time>2020-06-10T14:30:56.000Z</time>
        <extensions>
          <gpxtpx:TrackPointExtension xmlns:gpxtpx="http://www.garmin.com/xmlschemas/TrackPointExtension/v1">
            <gpxtpx:hr>73</gpxtpx:hr>
          </gpxtpx:TrackPointExtension>
        </extensions>
      </trkpt>
      <trkpt lat="43.51435" lon="1.51662">
        <ele>98.199996948242</ele>
        <time>2020-06-10T14:31:06.000Z</time>
        <extensions>
          <gpxtpx:TrackPointExtension xmlns:gpxtpx="http://www.garmin.com/xmlschemas/TrackPointExtension/v1">
            <gpxtpx:hr>71</gpxtpx:hr>
          </gpxtpx:TrackPointExtension>
        </extensions>
      </trkpt>
      <trkpt lat="43.51458" lon="1.51686">
        <ele>98.199996948242</ele>
        <time>2020-06-10T14:31:13.000Z</time>
        <extensions>
          <gpxtpx:TrackPointExtension xmlns:gpxtpx="http://www.garmin.com/xmlschemas/TrackPointExtension/v1">
            <gpxtpx:hr>72</gpxtpx:hr>
          </gpxtpx:TrackPointExtension>
        </extensions>
      </trkpt>
      <trkpt lat="43.51466" lon="1.51698">
        <ele>98.199996948242</ele>
        <time>2020-06-10T14:31:16.000Z</time>
        <extensions>
          <gpxtpx:TrackPointExtension xmlns:gpxtpx="http://www.garmin.com/xmlschemas/TrackPointExtension/v1">
            <gpxtpx:hr>72</gpxtpx:hr>
          </gpxtpx:TrackPointExtension>
        </extensions>
      </trkpt>
      <trkpt lat="43.5148" lon="1.51742">
        <ele>98.199996948242</ele>
        <time>2020-06-10T14:31:25.000Z</time>
        <extensions>
          <gpxtpx:TrackPointExtension xmlns:gpxtpx="http://www.garmin.com/xmlschemas/TrackPointExtension/v1">
            <gpxtpx:hr>71</gpxtpx:hr>
          </gpxtpx:TrackPointExtension>
        </extensions>
      </trkpt>
      <trkpt lat="43.51475" lon="1.51797">
        <ele>98.400001525879</ele>
        <time>2020-06-10T14:31:35.000Z</time>
        <extensions>
          <gpxtpx:TrackPointExtension xmlns:gpxtpx="http://www.garmin.com/xmlschemas/TrackPointExtension/v1">
            <gpxtpx:hr>68</gpxtpx:hr>
          </gpxtpx:TrackPointExtension>
        </extensions>
      </trkpt>
      <trkpt lat="43.51473" lon="1.51811">
        <ele>98.400001525879</ele>
        <time>2020-06-10T14:31:39.000Z</time>
        <extensions>
          <gpxtpx:TrackPointExtension xmlns:gpxtpx="http://www.garmin.com/xmlschemas/TrackPointExtension/v1">
            <gpxtpx:hr>65</gpxtpx:hr>
          </gpxtpx:TrackPointExtension>
        </extensions>
      </trkpt>
      <trkpt lat="43.51478" lon="1.51827">
        <ele>98.800003051758</ele>
        <time>2020-06-10T14:31:49.000Z</time>
        <extensions>
          <gpxtpx:TrackPointExtension xmlns:gpxtpx="http://www.garmin.com/xmlschemas/TrackPointExtension/v1">
            <gpxtpx:hr>65</gpxtpx:hr>
          </gpxtpx:TrackPointExtension>
        </extensions>
      </trkpt>
      <trkpt lat="43.51478" lon="1.51829">
        <ele>98.800003051758</ele>
        <time>2020-06-10T14:31:50.000Z</time>
        <extensions>
          <gpxtpx:TrackPointExtension xmlns:gpxtpx="http://www.garmin.com/xmlschemas/TrackPointExtension/v1">
            <gpxtpx:hr>65</gpxtpx:hr>
          </gpxtpx:TrackPointExtension>
        </extensions>
      </trkpt>
      <trkpt lat="43.51478" lon="1.51838">
        <ele>98.599998474121</ele>
        <time>2020-06-10T14:36:31.000Z</time>
        <extensions>
          <gpxtpx:TrackPointExtension xmlns:gpxtpx="http://www.garmin.com/xmlschemas/TrackPointExtension/v1">
            <gpxtpx:hr>67</gpxtpx:hr>
          </gpxtpx:TrackPointExtension>
        </extensions>
      </trkpt>
      <trkpt lat="43.51478" lon="1.51844">
        <ele>98.599998474121</ele>
        <time>2020-06-10T14:36:34.000Z</time>
        <extensions>
          <gpxtpx:TrackPointExtension xmlns:gpxtpx="http://www.garmin.com/xmlschemas/TrackPointExtension/v1">
            <gpxtpx:hr>70</gpxtpx:hr>
          </gpxtpx:TrackPointExtension>
        </extensions>
      </trkpt>
      <trkpt lat="43.51477" lon="1.51854">
        <ele>98.800003051758</ele>
        <time>2020-06-10T14:36:37.000Z</time>
        <extensions>
          <gpxtpx:TrackPointExtension xmlns:gpxtpx="http://www.garmin.com/xmlschemas/TrackPointExtension/v1">
            <gpxtpx:hr>73</gpxtpx:hr>
          </gpxtpx:TrackPointExtension>
        </extensions>
      </trkpt>
      <trkpt lat="43.51476" lon="1.5187">
        <ele>98.800003051758</ele>
        <time>2020-06-10T14:36:41.000Z</time>
        <extensions>
          <gpxtpx:TrackPointExtension xmlns:gpxtpx="http://www.garmin.com/xmlschemas/TrackPointExtension/v1">
            <gpxtpx:hr>76</gpxtpx:hr>
          </gpxtpx:TrackPointExtension>
        </extensions>
      </trkpt>
      <trkpt lat="43.5149" lon="1.51933">
        <ele>98.199996948242</ele>
        <time>2020-06-10T14:36:56.000Z</time>
        <extensions>
          <gpxtpx:TrackPointExtension xmlns:gpxtpx="http://www.garmin.com/xmlschemas/TrackPointExtension/v1">
            <gpxtpx:hr>75</gpxtpx:hr>
          </gpxtpx:TrackPointExtension>
        </extensions>
      </trkpt>
      <trkpt lat="43.51534" lon="1.51988">
        <ele>98</ele>
        <time>2020-06-10T14:37:11.000Z</time>
        <extensions>
          <gpxtpx:TrackPointExtension xmlns:gpxtpx="http://www.garmin.com/xmlschemas/TrackPointExtension/v1">
            <gpxtpx:hr>73</gpxtpx:hr>
          </gpxtpx:TrackPointExtension>
        </extensions>
      </trkpt>
      <trkpt lat="43.51552" lon="1.52011">
        <ele>98</ele>
        <time>2020-06-10T14:37:18.000Z</time>
        <extensions>
          <gpxtpx:TrackPointExtension xmlns:gpxtpx="http://www.garmin.com/xmlschemas/TrackPointExtension/v1">
            <gpxtpx:hr>70</gpxtpx:hr>
          </gpxtpx:TrackPointExtension>
        </extensions>
      </trkpt>
      <trkpt lat="43.51568" lon="1.52035">
        <ele>98.199996948242</ele>
        <time>2020-06-10T14:37:25.000Z</time>
        <extensions>
          <gpxtpx:TrackPointExtension xmlns:gpxtpx="http://www.garmin.com/xmlschemas/TrackPointExtension/v1">
            <gpxtpx:hr>73</gpxtpx:hr>
          </gpxtpx:TrackPointExtension>
        </extensions>
      </trkpt>
      <trkpt lat="43.51577" lon="1.52044">
        <ele>98.199996948242</ele>
        <time>2020-06-10T14:37:28.000Z</time>
        <extensions>
          <gpxtpx:TrackPointExtension xmlns:gpxtpx="http://www.garmin.com/xmlschemas/TrackPointExtension/v1">
            <gpxtpx:hr>76</gpxtpx:hr>
          </gpxtpx:TrackPointExtension>
        </extensions>
      </trkpt>
      <trkpt lat="43.51592" lon="1.52056">
        <ele>98.400001525879</ele>
        <time>2020-06-10T14:37:32.000Z</time>
        <extensions>
          <gpxtpx:TrackPointExtension xmlns:gpxtpx="http://www.garmin.com/xmlschemas/TrackPointExtension/v1">
            <gpxtpx:hr>74</gpxtpx:hr>
          </gpxtpx:TrackPointExtension>
        </extensions>
      </trkpt>
      <trkpt lat="43.5161" lon="1.52062">
        <ele>98.199996948242</ele>
        <time>2020-06-10T14:37:36.000Z</time>
        <extensions>
          <gpxtpx:TrackPointExtension xmlns:gpxtpx="http://www.garmin.com/xmlschemas/TrackPointExtension/v1">
            <gpxtpx:hr>74</gpxtpx:hr>
          </gpxtpx:TrackPointExtension>
        </extensions>
      </trkpt>
      <trkpt lat="43.51632" lon="1.52063">
        <ele>98.199996948242</ele>
        <time>2020-06-10T14:37:41.000Z</time>
        <extensions>
          <gpxtpx:TrackPointExtension xmlns:gpxtpx="http://www.garmin.com/xmlschemas/TrackPointExtension/v1">
            <gpxtpx:hr>74</gpxtpx:hr>
          </gpxtpx:TrackPointExtension>
        </extensions>
      </trkpt>
      <trkpt lat="43.51668" lon="1.52053">
        <ele>98</ele>
        <time>2020-06-10T14:37:49.000Z</time>
        <extensions>
          <gpxtpx:TrackPointExtension xmlns:gpxtpx="http://www.garmin.com/xmlschemas/TrackPointExtension/v1">
            <gpxtpx:hr>77</gpxtpx:hr>
          </gpxtpx:TrackPointExtension>
        </extensions>
      </trkpt>
      <trkpt lat="43.5168" lon="1.52047">
        <ele>98</ele>
        <time>2020-06-10T14:37:52.000Z</time>
        <extensions>
          <gpxtpx:TrackPointExtension xmlns:gpxtpx="http://www.garmin.com/xmlschemas/TrackPointExtension/v1">
            <gpxtpx:hr>77</gpxtpx:hr>
          </gpxtpx:TrackPointExtension>
        </extensions>
      </trkpt>
      <trkpt lat="43.51697" lon="1.5204">
        <ele>98</ele>
        <time>2020-06-10T14:37:56.000Z</time>
        <extensions>
          <gpxtpx:TrackPointExtension xmlns:gpxtpx="http://www.garmin.com/xmlschemas/TrackPointExtension/v1">
            <gpxtpx:hr>79</gpxtpx:hr>
          </gpxtpx:TrackPointExtension>
        </extensions>
      </trkpt>
      <trkpt lat="43.517" lon="1.52038">
        <ele>98</ele>
        <time>2020-06-10T14:37:57.000Z</time>
        <extensions>
          <gpxtpx:TrackPointExtension xmlns:gpxtpx="http://www.garmin.com/xmlschemas/TrackPointExtension/v1">
            <gpxtpx:hr>79</gpxtpx:hr>
          </gpxtpx:TrackPointExtension>
        </extensions>
      </trkpt>
      <trkpt lat="43.51751" lon="1.52004">
        <ele>97.800003051758</ele>
        <time>2020-06-10T14:38:10.000Z</time>
        <extensions>
          <gpxtpx:TrackPointExtension xmlns:gpxtpx="http://www.garmin.com/xmlschemas/TrackPointExtension/v1">
            <gpxtpx:hr>79</gpxtpx:hr>
          </gpxtpx:TrackPointExtension>
        </extensions>
      </trkpt>
      <trkpt lat="43.51758" lon="1.52">
        <ele>97.800003051758</ele>
        <time>2020-06-10T14:38:12.000Z</time>
        <extensions>
          <gpxtpx:TrackPointExtension xmlns:gpxtpx="http://www.garmin.com/xmlschemas/TrackPointExtension/v1">
            <gpxtpx:hr>79</gpxtpx:hr>
          </gpxtpx:TrackPointExtension>
        </extensions>
      </trkpt>
      <trkpt lat="43.51774" lon="1.5199">
        <ele>98</ele>
        <time>2020-06-10T14:38:16.000Z</time>
        <extensions>
          <gpxtpx:TrackPointExtension xmlns:gpxtpx="http://www.garmin.com/xmlschemas/TrackPointExtension/v1">
            <gpxtpx:hr>79</gpxtpx:hr>
          </gpxtpx:TrackPointExtension>
        </extensions>
      </trkpt>
      <trkpt lat="43.51794" lon="1.51982">
        <ele>98</ele>
        <time>2020-06-10T14:38:21.000Z</time>
        <extensions>
          <gpxtpx:TrackPointExtension xmlns:gpxtpx="http://www.garmin.com/xmlschemas/TrackPointExtension/v1">
            <gpxtpx:hr>79</gpxtpx:hr>
          </gpxtpx:TrackPointExtension>
        </extensions>
      </trkpt>
      <trkpt lat="43.51802" lon="1.51981">
        <ele>97.800003051758</ele>
        <time>2020-06-10T14:38:23.000Z</time>
        <extensions>
          <gpxtpx:TrackPointExtension xmlns:gpxtpx="http://www.garmin.com/xmlschemas/TrackPointExtension/v1">
            <gpxtpx:hr>78</gpxtpx:hr>
          </gpxtpx:TrackPointExtension>
        </extensions>
      </trkpt>
      <trkpt lat="43.51833" lon="1.51987">
        <ele>97.800003051758</ele>
        <time>2020-06-10T14:38:31.000Z</time>
        <extensions>
          <gpxtpx:TrackPointExtension xmlns:gpxtpx="http://www.garmin.com/xmlschemas/TrackPointExtension/v1">
            <gpxtpx:hr>75</gpxtpx:hr>
          </gpxtpx:TrackPointExtension>
        </extensions>
      </trkpt>
      <trkpt lat="43.51837" lon="1.51988">
        <ele>97.800003051758</ele>
        <time>2020-06-10T14:38:32.000Z</time>
        <extensions>
          <gpxtpx:TrackPointExtension xmlns:gpxtpx="http://www.garmin.com/xmlschemas/TrackPointExtension/v1">
            <gpxtpx:hr>75</gpxtpx:hr>
          </gpxtpx:TrackPointExtension>
        </extensions>
      </trkpt>
      <trkpt lat="43.5185" lon="1.51992">
        <ele>98</ele>
        <time>2020-06-10T14:38:35.000Z</time>
        <extensions>
          <gpxtpx:TrackPointExtension xmlns:gpxtpx="http://www.garmin.com/xmlschemas/TrackPointExtension/v1">
            <gpxtpx:hr>74</gpxtpx:hr>
          </gpxtpx:TrackPointExtension>
        </extensions>
      </trkpt>
      <trkpt lat="43.51873" lon="1.52003">
        <ele>98</ele>
        <time>2020-06-10T14:38:41.000Z</time>
        <extensions>
          <gpxtpx:TrackPointExtension xmlns:gpxtpx="http://www.garmin.com/xmlschemas/TrackPointExtension/v1">
            <gpxtpx:hr>71</gpxtpx:hr>
          </gpxtpx:TrackPointExtension>
        </extensions>
      </trkpt>
      <trkpt lat="43.51904" lon="1.52017">
        <ele>97.800003051758</ele>
        <time>2020-06-10T14:38:48.000Z</time>
        <extensions>
          <gpxtpx:TrackPointExtension xmlns:gpxtpx="http://www.garmin.com/xmlschemas/TrackPointExtension/v1">
            <gpxtpx:hr>71</gpxtpx:hr>
          </gpxtpx:TrackPointExtension>
        </extensions>
      </trkpt>
      <trkpt lat="43.51943" lon="1.52024">
        <ele>97.800003051758</ele>
        <time>2020-06-10T14:38:55.000Z</time>
        <extensions>
          <gpxtpx:TrackPointExtension xmlns:gpxtpx="http://www.garmin.com/xmlschemas/TrackPointExtension/v1">
            <gpxtpx:hr>74</gpxtpx:hr>
          </gpxtpx:TrackPointExtension>
        </extensions>
      </trkpt>
      <trkpt lat="43.51968" lon="1.52023">
        <ele>97.800003051758</ele>
        <time>2020-06-10T14:39:00.000Z</time>
        <extensions>
          <gpxtpx:TrackPointExtension xmlns:gpxtpx="http://www.garmin.com/xmlschemas/TrackPointExtension/v1">
            <gpxtpx:hr>76</gpxtpx:hr>
          </gpxtpx:TrackPointExtension>
        </extensions>
      </trkpt>
      <trkpt lat="43.51985" lon="1.52021">
        <ele>98.199996948242</ele>
        <time>2020-06-10T14:39:04.000Z</time>
        <extensions>
          <gpxtpx:TrackPointExtension xmlns:gpxtpx="http://www.garmin.com/xmlschemas/TrackPointExtension/v1">
            <gpxtpx:hr>77</gpxtpx:hr>
          </gpxtpx:TrackPointExtension>
        </extensions>
      </trkpt>
      <trkpt lat="43.52012" lon="1.52015">
        <ele>98.599998474121</ele>
        <time>2020-06-10T14:39:10.000Z</time>
        <extensions>
          <gpxtpx:TrackPointExtension xmlns:gpxtpx="http://www.garmin.com/xmlschemas/TrackPointExtension/v1">
            <gpxtpx:hr>77</gpxtpx:hr>
          </gpxtpx:TrackPointExtension>
        </extensions>
      </trkpt>
      <trkpt lat="43.52039" lon="1.52002">
        <ele>98.800003051758</ele>
        <time>2020-06-10T14:39:16.000Z</time>
        <extensions>
          <gpxtpx:TrackPointExtension xmlns:gpxtpx="http://www.garmin.com/xmlschemas/TrackPointExtension/v1">
            <gpxtpx:hr>76</gpxtpx:hr>
          </gpxtpx:TrackPointExtension>
        </extensions>
      </trkpt>
      <trkpt lat="43.52089" lon="1.51969">
        <ele>98.400001525879</ele>
        <time>2020-06-10T14:39:27.000Z</time>
        <extensions>
          <gpxtpx:TrackPointExtension xmlns:gpxtpx="http://www.garmin.com/xmlschemas/TrackPointExtension/v1">
            <gpxtpx:hr>74</gpxtpx:hr>
          </gpxtpx:TrackPointExtension>
        </extensions>
      </trkpt>
      <trkpt lat="43.52103" lon="1.51963">
        <ele>98.199996948242</ele>
        <time>2020-06-10T14:39:30.000Z</time>
        <extensions>
          <gpxtpx:TrackPointExtension xmlns:gpxtpx="http://www.garmin.com/xmlschemas/TrackPointExtension/v1">
            <gpxtpx:hr>75</gpxtpx:hr>
          </gpxtpx:TrackPointExtension>
        </extensions>
      </trkpt>
      <trkpt lat="43.52133" lon="1.51959">
        <ele>98</ele>
        <time>2020-06-10T14:39:37.000Z</time>
        <extensions>
          <gpxtpx:TrackPointExtension xmlns:gpxtpx="http://www.garmin.com/xmlschemas/TrackPointExtension/v1">
            <gpxtpx:hr>76</gpxtpx:hr>
          </gpxtpx:TrackPointExtension>
        </extensions>
      </trkpt>
      <trkpt lat="43.52145" lon="1.51957">
        <ele>98</ele>
        <time>2020-06-10T14:39:40.000Z</time>
        <extensions>
          <gpxtpx:TrackPointExtension xmlns:gpxtpx="http://www.garmin.com/xmlschemas/TrackPointExtension/v1">
            <gpxtpx:hr>76</gpxtpx:hr>
          </gpxtpx:TrackPointExtension>
        </extensions>
      </trkpt>
      <trkpt lat="43.52157" lon="1.51956">
        <ele>98</ele>
        <time>2020-06-10T14:39:43.000Z</time>
        <extensions>
          <gpxtpx:TrackPointExtension xmlns:gpxtpx="http://www.garmin.com/xmlschemas/TrackPointExtension/v1">
            <gpxtpx:hr>75</gpxtpx:hr>
          </gpxtpx:TrackPointExtension>
        </extensions>
      </trkpt>
      <trkpt lat="43.52164" lon="1.51954">
        <ele>98.199996948242</ele>
        <time>2020-06-10T14:39:45.000Z</time>
        <extensions>
          <gpxtpx:TrackPointExtension xmlns:gpxtpx="http://www.garmin.com/xmlschemas/TrackPointExtension/v1">
            <gpxtpx:hr>74</gpxtpx:hr>
          </gpxtpx:TrackPointExtension>
        </extensions>
      </trkpt>
      <trkpt lat="43.52172" lon="1.51953">
        <ele>98.199996948242</ele>
        <time>2020-06-10T14:39:47.000Z</time>
        <extensions>
          <gpxtpx:TrackPointExtension xmlns:gpxtpx="http://www.garmin.com/xmlschemas/TrackPointExtension/v1">
            <gpxtpx:hr>74</gpxtpx:hr>
          </gpxtpx:TrackPointExtension>
        </extensions>
      </trkpt>
      <trkpt lat="43.52232" lon="1.51934">
        <ele>98.800003051758</ele>
        <time>2020-06-10T14:40:01.000Z</time>
        <extensions>
          <gpxtpx:TrackPointExtension xmlns:gpxtpx="http://www.garmin.com/xmlschemas/TrackPointExtension/v1">
            <gpxtpx:hr>72</gpxtpx:hr>
          </gpxtpx:TrackPointExtension>
        </extensions>
      </trkpt>
      <trkpt lat="43.52292" lon="1.51912">
        <ele>99.199996948242</ele>
        <time>2020-06-10T14:40:16.000Z</time>
        <extensions>
          <gpxtpx:TrackPointExtension xmlns:gpxtpx="http://www.garmin.com/xmlschemas/TrackPointExtension/v1">
            <gpxtpx:hr>71</gpxtpx:hr>
          </gpxtpx:TrackPointExtension>
        </extensions>
      </trkpt>
      <trkpt lat="43.52319" lon="1.519">
        <ele>99.199996948242</ele>
        <time>2020-06-10T14:40:23.000Z</time>
        <extensions>
          <gpxtpx:TrackPointExtension xmlns:gpxtpx="http://www.garmin.com/xmlschemas/TrackPointExtension/v1">
            <gpxtpx:hr>68</gpxtpx:hr>
          </gpxtpx:TrackPointExtension>
        </extensions>
      </trkpt>
      <trkpt lat="43.52373" lon="1.51882">
        <ele>98.400001525879</ele>
        <time>2020-06-10T14:40:41.000Z</time>
        <extensions>
          <gpxtpx:TrackPointExtension xmlns:gpxtpx="http://www.garmin.com/xmlschemas/TrackPointExtension/v1">
            <gpxtpx:hr>69</gpxtpx:hr>
          </gpxtpx:TrackPointExtension>
        </extensions>
      </trkpt>
      <trkpt lat="43.524" lon="1.51876">
        <ele>98.400001525879</ele>
        <time>2020-06-10T14:40:50.000Z</time>
        <extensions>
          <gpxtpx:TrackPointExtension xmlns:gpxtpx="http://www.garmin.com/xmlschemas/TrackPointExtension/v1">
            <gpxtpx:hr>66</gpxtpx:hr>
          </gpxtpx:TrackPointExtension>
        </extensions>
      </trkpt>
      <trkpt lat="43.52449" lon="1.51856">
        <ele>98.400001525879</ele>
        <time>2020-06-10T14:41:00.000Z</time>
        <extensions>
          <gpxtpx:TrackPointExtension xmlns:gpxtpx="http://www.garmin.com/xmlschemas/TrackPointExtension/v1">
            <gpxtpx:hr>66</gpxtpx:hr>
          </gpxtpx:TrackPointExtension>
        </extensions>
      </trkpt>
      <trkpt lat="43.52456" lon="1.51852">
        <ele>98</ele>
        <time>2020-06-10T14:41:01.000Z</time>
        <extensions>
          <gpxtpx:TrackPointExtension xmlns:gpxtpx="http://www.garmin.com/xmlschemas/TrackPointExtension/v1">
            <gpxtpx:hr>66</gpxtpx:hr>
          </gpxtpx:TrackPointExtension>
        </extensions>
      </trkpt>
      <trkpt lat="43.52468" lon="1.51843">
        <ele>96.400001525879</ele>
        <time>2020-06-10T14:41:03.000Z</time>
        <extensions>
          <gpxtpx:TrackPointExtension xmlns:gpxtpx="http://www.garmin.com/xmlschemas/TrackPointExtension/v1">
            <gpxtpx:hr>65</gpxtpx:hr>
          </gpxtpx:TrackPointExtension>
        </extensions>
      </trkpt>
      <trkpt lat="43.5248" lon="1.51834">
        <ele>94.800003051758</ele>
        <time>2020-06-10T14:41:05.000Z</time>
        <extensions>
          <gpxtpx:TrackPointExtension xmlns:gpxtpx="http://www.garmin.com/xmlschemas/TrackPointExtension/v1">
            <gpxtpx:hr>65</gpxtpx:hr>
          </gpxtpx:TrackPointExtension>
        </extensions>
      </trkpt>
      <trkpt lat="43.52491" lon="1.51825">
        <ele>93.400001525879</ele>
        <time>2020-06-10T14:41:07.000Z</time>
        <extensions>
          <gpxtpx:TrackPointExtension xmlns:gpxtpx="http://www.garmin.com/xmlschemas/TrackPointExtension/v1">
            <gpxtpx:hr>65</gpxtpx:hr>
          </gpxtpx:TrackPointExtension>
        </extensions>
      </trkpt>
      <trkpt lat="43.52528" lon="1.51789">
        <ele>92.599998474121</ele>
        <time>2020-06-10T14:41:15.000Z</time>
        <extensions>
          <gpxtpx:TrackPointExtension xmlns:gpxtpx="http://www.garmin.com/xmlschemas/TrackPointExtension/v1">
            <gpxtpx:hr>63</gpxtpx:hr>
          </gpxtpx:TrackPointExtension>
        </extensions>
      </trkpt>
      <trkpt lat="43.52542" lon="1.51773">
        <ele>92.599998474121</ele>
        <time>2020-06-10T14:41:19.000Z</time>
        <extensions>
          <gpxtpx:TrackPointExtension xmlns:gpxtpx="http://www.garmin.com/xmlschemas/TrackPointExtension/v1">
            <gpxtpx:hr>63</gpxtpx:hr>
          </gpxtpx:TrackPointExtension>
        </extensions>
      </trkpt>
      <trkpt lat="43.52554" lon="1.51755">
        <ele>92.599998474121</ele>
        <time>2020-06-10T14:41:23.000Z</time>
        <extensions>
          <gpxtpx:TrackPointExtension xmlns:gpxtpx="http://www.garmin.com/xmlschemas/TrackPointExtension/v1">
            <gpxtpx:hr>66</gpxtpx:hr>
          </gpxtpx:TrackPointExtension>
        </extensions>
      </trkpt>
      <trkpt lat="43.52557" lon="1.5175">
        <ele>92.800003051758</ele>
        <time>2020-06-10T14:41:24.000Z</time>
        <extensions>
          <gpxtpx:TrackPointExtension xmlns:gpxtpx="http://www.garmin.com/xmlschemas/TrackPointExtension/v1">
            <gpxtpx:hr>67</gpxtpx:hr>
          </gpxtpx:TrackPointExtension>
        </extensions>
      </trkpt>
      <trkpt lat="43.52566" lon="1.51735">
        <ele>92.800003051758</ele>
        <time>2020-06-10T14:41:27.000Z</time>
        <extensions>
          <gpxtpx:TrackPointExtension xmlns:gpxtpx="http://www.garmin.com/xmlschemas/TrackPointExtension/v1">
            <gpxtpx:hr>68</gpxtpx:hr>
          </gpxtpx:TrackPointExtension>
        </extensions>
      </trkpt>
      <trkpt lat="43.52574" lon="1.5172">
        <ele>92.800003051758</ele>
        <time>2020-06-10T14:41:30.000Z</time>
        <extensions>
          <gpxtpx:TrackPointExtension xmlns:gpxtpx="http://www.garmin.com/xmlschemas/TrackPointExtension/v1">
            <gpxtpx:hr>68</gpxtpx:hr>
          </gpxtpx:TrackPointExtension>
        </extensions>
      </trkpt>
      <trkpt lat="43.52578" lon="1.5171">
        <ele>92.800003051758</ele>
        <time>2020-06-10T14:41:32.000Z</time>
        <extensions>
          <gpxtpx:TrackPointExtension xmlns:gpxtpx="http://www.garmin.com/xmlschemas/TrackPointExtension/v1">
            <gpxtpx:hr>67</gpxtpx:hr>
          </gpxtpx:TrackPointExtension>
        </extensions>
      </trkpt>
      <trkpt lat="43.52585" lon="1.51694">
        <ele>92.599998474121</ele>
        <time>2020-06-10T14:41:35.000Z</time>
        <extensions>
          <gpxtpx:TrackPointExtension xmlns:gpxtpx="http://www.garmin.com/xmlschemas/TrackPointExtension/v1">
            <gpxtpx:hr>68</gpxtpx:hr>
          </gpxtpx:TrackPointExtension>
        </extensions>
      </trkpt>
      <trkpt lat="43.52594" lon="1.51663">
        <ele>92.599998474121</ele>
        <time>2020-06-10T14:41:40.000Z</time>
        <extensions>
          <gpxtpx:TrackPointExtension xmlns:gpxtpx="http://www.garmin.com/xmlschemas/TrackPointExtension/v1">
            <gpxtpx:hr>71</gpxtpx:hr>
          </gpxtpx:TrackPointExtension>
        </extensions>
      </trkpt>
      <trkpt lat="43.52611" lon="1.5159">
        <ele>92.599998474121</ele>
        <time>2020-06-10T14:41:50.000Z</time>
        <extensions>
          <gpxtpx:TrackPointExtension xmlns:gpxtpx="http://www.garmin.com/xmlschemas/TrackPointExtension/v1">
            <gpxtpx:hr>73</gpxtpx:hr>
          </gpxtpx:TrackPointExtension>
        </extensions>
      </trkpt>
      <trkpt lat="43.52623" lon="1.51545">
        <ele>93</ele>
        <time>2020-06-10T14:41:57.000Z</time>
        <extensions>
          <gpxtpx:TrackPointExtension xmlns:gpxtpx="http://www.garmin.com/xmlschemas/TrackPointExtension/v1">
            <gpxtpx:hr>76</gpxtpx:hr>
          </gpxtpx:TrackPointExtension>
        </extensions>
      </trkpt>
      <trkpt lat="43.52624" lon="1.51539">
        <ele>93</ele>
        <time>2020-06-10T14:41:58.000Z</time>
        <extensions>
          <gpxtpx:TrackPointExtension xmlns:gpxtpx="http://www.garmin.com/xmlschemas/TrackPointExtension/v1">
            <gpxtpx:hr>76</gpxtpx:hr>
          </gpxtpx:TrackPointExtension>
        </extensions>
      </trkpt>
      <trkpt lat="43.52632" lon="1.51475">
        <ele>93</ele>
        <time>2020-06-10T14:42:08.000Z</time>
        <extensions>
          <gpxtpx:TrackPointExtension xmlns:gpxtpx="http://www.garmin.com/xmlschemas/TrackPointExtension/v1">
            <gpxtpx:hr>79</gpxtpx:hr>
          </gpxtpx:TrackPointExtension>
        </extensions>
      </trkpt>
      <trkpt lat="43.52637" lon="1.5143">
        <ele>93</ele>
        <time>2020-06-10T14:42:15.000Z</time>
        <extensions>
          <gpxtpx:TrackPointExtension xmlns:gpxtpx="http://www.garmin.com/xmlschemas/TrackPointExtension/v1">
            <gpxtpx:hr>82</gpxtpx:hr>
          </gpxtpx:TrackPointExtension>
        </extensions>
      </trkpt>
      <trkpt lat="43.5264" lon="1.51393">
        <ele>93</ele>
        <time>2020-06-10T14:42:21.000Z</time>
        <extensions>
          <gpxtpx:TrackPointExtension xmlns:gpxtpx="http://www.garmin.com/xmlschemas/TrackPointExtension/v1">
            <gpxtpx:hr>85</gpxtpx:hr>
          </gpxtpx:TrackPointExtension>
        </extensions>
      </trkpt>
      <trkpt lat="43.52642" lon="1.51364">
        <ele>93.400001525879</ele>
        <time>2020-06-10T14:42:26.000Z</time>
        <extensions>
          <gpxtpx:TrackPointExtension xmlns:gpxtpx="http://www.garmin.com/xmlschemas/TrackPointExtension/v1">
            <gpxtpx:hr>88</gpxtpx:hr>
          </gpxtpx:TrackPointExtension>
        </extensions>
      </trkpt>
      <trkpt lat="43.52645" lon="1.51286">
        <ele>94.199996948242</ele>
        <time>2020-06-10T14:42:39.000Z</time>
        <extensions>
          <gpxtpx:TrackPointExtension xmlns:gpxtpx="http://www.garmin.com/xmlschemas/TrackPointExtension/v1">
            <gpxtpx:hr>87</gpxtpx:hr>
          </gpxtpx:TrackPointExtension>
        </extensions>
      </trkpt>
      <trkpt lat="43.52646" lon="1.51252">
        <ele>94</ele>
        <time>2020-06-10T14:42:44.000Z</time>
        <extensions>
          <gpxtpx:TrackPointExtension xmlns:gpxtpx="http://www.garmin.com/xmlschemas/TrackPointExtension/v1">
            <gpxtpx:hr>84</gpxtpx:hr>
          </gpxtpx:TrackPointExtension>
        </extensions>
      </trkpt>
      <trkpt lat="43.52647" lon="1.51233">
        <ele>93.800003051758</ele>
        <time>2020-06-10T14:42:47.000Z</time>
        <extensions>
          <gpxtpx:TrackPointExtension xmlns:gpxtpx="http://www.garmin.com/xmlschemas/TrackPointExtension/v1">
            <gpxtpx:hr>81</gpxtpx:hr>
          </gpxtpx:TrackPointExtension>
        </extensions>
      </trkpt>
      <trkpt lat="43.52649" lon="1.51208">
        <ele>93.599998474121</ele>
        <time>2020-06-10T14:42:51.000Z</time>
        <extensions>
          <gpxtpx:TrackPointExtension xmlns:gpxtpx="http://www.garmin.com/xmlschemas/TrackPointExtension/v1">
            <gpxtpx:hr>78</gpxtpx:hr>
          </gpxtpx:TrackPointExtension>
        </extensions>
      </trkpt>
      <trkpt lat="43.52658" lon="1.51145">
        <ele>93.400001525879</ele>
        <time>2020-06-10T14:43:01.000Z</time>
        <extensions>
          <gpxtpx:TrackPointExtension xmlns:gpxtpx="http://www.garmin.com/xmlschemas/TrackPointExtension/v1">
            <gpxtpx:hr>75</gpxtpx:hr>
          </gpxtpx:TrackPointExtension>
        </extensions>
      </trkpt>
      <trkpt lat="43.52672" lon="1.51091">
        <ele>94.199996948242</ele>
        <time>2020-06-10T14:43:14.000Z</time>
        <extensions>
          <gpxtpx:TrackPointExtension xmlns:gpxtpx="http://www.garmin.com/xmlschemas/TrackPointExtension/v1">
            <gpxtpx:hr>72</gpxtpx:hr>
          </gpxtpx:TrackPointExtension>
        </extensions>
      </trkpt>
      <trkpt lat="43.52679" lon="1.51069">
        <ele>94.599998474121</ele>
        <time>2020-06-10T14:43:20.000Z</time>
        <extensions>
          <gpxtpx:TrackPointExtension xmlns:gpxtpx="http://www.garmin.com/xmlschemas/TrackPointExtension/v1">
            <gpxtpx:hr>71</gpxtpx:hr>
          </gpxtpx:TrackPointExtension>
        </extensions>
      </trkpt>
      <trkpt lat="43.5269" lon="1.51037">
        <ele>95.599998474121</ele>
        <time>2020-06-10T14:43:29.000Z</time>
        <extensions>
          <gpxtpx:TrackPointExtension xmlns:gpxtpx="http://www.garmin.com/xmlschemas/TrackPointExtension/v1">
            <gpxtpx:hr>74</gpxtpx:hr>
          </gpxtpx:TrackPointExtension>
        </extensions>
      </trkpt>
      <trkpt lat="43.52694" lon="1.51027">
        <ele>95.599998474121</ele>
        <time>2020-06-10T14:43:32.000Z</time>
        <extensions>
          <gpxtpx:TrackPointExtension xmlns:gpxtpx="http://www.garmin.com/xmlschemas/TrackPointExtension/v1">
            <gpxtpx:hr>75</gpxtpx:hr>
          </gpxtpx:TrackPointExtension>
        </extensions>
      </trkpt>
      <trkpt lat="43.52698" lon="1.5102">
        <ele>96</ele>
        <time>2020-06-10T14:43:34.000Z</time>
        <extensions>
          <gpxtpx:TrackPointExtension xmlns:gpxtpx="http://www.garmin.com/xmlschemas/TrackPointExtension/v1">
            <gpxtpx:hr>80</gpxtpx:hr>
          </gpxtpx:TrackPointExtension>
        </extensions>
      </trkpt>
      <trkpt lat="43.52726" lon="1.50959">
        <ele>96</ele>
        <time>2020-06-10T14:43:50.000Z</time>
        <extensions>
          <gpxtpx:TrackPointExtension xmlns:gpxtpx="http://www.garmin.com/xmlschemas/TrackPointExtension/v1">
            <gpxtpx:hr>80</gpxtpx:hr>
          </gpxtpx:TrackPointExtension>
        </extensions>
      </trkpt>
      <trkpt lat="43.5273" lon="1.50952">
        <ele>95.599998474121</ele>
        <time>2020-06-10T14:43:52.000Z</time>
        <extensions>
          <gpxtpx:TrackPointExtension xmlns:gpxtpx="http://www.garmin.com/xmlschemas/TrackPointExtension/v1">
            <gpxtpx:hr>78</gpxtpx:hr>
          </gpxtpx:TrackPointExtension>
        </extensions>
      </trkpt>
      <trkpt lat="43.52734" lon="1.50944">
        <ele>95.599998474121</ele>
        <time>2020-06-10T14:43:54.000Z</time>
        <extensions>
          <gpxtpx:TrackPointExtension xmlns:gpxtpx="http://www.garmin.com/xmlschemas/TrackPointExtension/v1">
            <gpxtpx:hr>76</gpxtpx:hr>
          </gpxtpx:TrackPointExtension>
        </extensions>
      </trkpt>
      <trkpt lat="43.52745" lon="1.50926">
        <ele>95.199996948242</ele>
        <time>2020-06-10T14:43:58.000Z</time>
        <extensions>
          <gpxtpx:TrackPointExtension xmlns:gpxtpx="http://www.garmin.com/xmlschemas/TrackPointExtension/v1">
            <gpxtpx:hr>73</gpxtpx:hr>
          </gpxtpx:TrackPointExtension>
        </extensions>
      </trkpt>
      <trkpt lat="43.52748" lon="1.50922">
        <ele>95.199996948242</ele>
        <time>2020-06-10T14:43:59.000Z</time>
        <extensions>
          <gpxtpx:TrackPointExtension xmlns:gpxtpx="http://www.garmin.com/xmlschemas/TrackPointExtension/v1">
            <gpxtpx:hr>73</gpxtpx:hr>
          </gpxtpx:TrackPointExtension>
        </extensions>
      </trkpt>
      <trkpt lat="43.52756" lon="1.50914">
        <ele>95</ele>
        <time>2020-06-10T14:44:01.000Z</time>
        <extensions>
          <gpxtpx:TrackPointExtension xmlns:gpxtpx="http://www.garmin.com/xmlschemas/TrackPointExtension/v1">
            <gpxtpx:hr>71</gpxtpx:hr>
          </gpxtpx:TrackPointExtension>
        </extensions>
      </trkpt>
      <trkpt lat="43.52763" lon="1.50907">
        <ele>94.800003051758</ele>
        <time>2020-06-10T14:44:03.000Z</time>
        <extensions>
          <gpxtpx:TrackPointExtension xmlns:gpxtpx="http://www.garmin.com/xmlschemas/TrackPointExtension/v1">
            <gpxtpx:hr>70</gpxtpx:hr>
          </gpxtpx:TrackPointExtension>
        </extensions>
      </trkpt>
      <trkpt lat="43.52776" lon="1.50894">
        <ele>94.400001525879</ele>
        <time>2020-06-10T14:44:07.000Z</time>
        <extensions>
          <gpxtpx:TrackPointExtension xmlns:gpxtpx="http://www.garmin.com/xmlschemas/TrackPointExtension/v1">
            <gpxtpx:hr>70</gpxtpx:hr>
          </gpxtpx:TrackPointExtension>
        </extensions>
      </trkpt>
      <trkpt lat="43.52783" lon="1.50889">
        <ele>94.400001525879</ele>
        <time>2020-06-10T14:44:09.000Z</time>
        <extensions>
          <gpxtpx:TrackPointExtension xmlns:gpxtpx="http://www.garmin.com/xmlschemas/TrackPointExtension/v1">
            <gpxtpx:hr>70</gpxtpx:hr>
          </gpxtpx:TrackPointExtension>
        </extensions>
      </trkpt>
      <trkpt lat="43.52795" lon="1.5088">
        <ele>94.400001525879</ele>
        <time>2020-06-10T14:44:12.000Z</time>
        <extensions>
          <gpxtpx:TrackPointExtension xmlns:gpxtpx="http://www.garmin.com/xmlschemas/TrackPointExtension/v1">
            <gpxtpx:hr>72</gpxtpx:hr>
          </gpxtpx:TrackPointExtension>
        </extensions>
      </trkpt>
      <trkpt lat="43.52827" lon="1.5086">
        <ele>94.199996948242</ele>
        <time>2020-06-10T14:44:20.000Z</time>
        <extensions>
          <gpxtpx:TrackPointExtension xmlns:gpxtpx="http://www.garmin.com/xmlschemas/TrackPointExtension/v1">
            <gpxtpx:hr>74</gpxtpx:hr>
          </gpxtpx:TrackPointExtension>
        </extensions>
      </trkpt>
      <trkpt lat="43.52846" lon="1.50847">
        <ele>94.199996948242</ele>
        <time>2020-06-10T14:44:24.000Z</time>
        <extensions>
          <gpxtpx:TrackPointExtension xmlns:gpxtpx="http://www.garmin.com/xmlschemas/TrackPointExtension/v1">
            <gpxtpx:hr>77</gpxtpx:hr>
          </gpxtpx:TrackPointExtension>
        </extensions>
      </trkpt>
      <trkpt lat="43.52855" lon="1.50841">
        <ele>94.400001525879</ele>
        <time>2020-06-10T14:44:26.000Z</time>
        <extensions>
          <gpxtpx:TrackPointExtension xmlns:gpxtpx="http://www.garmin.com/xmlschemas/TrackPointExtension/v1">
            <gpxtpx:hr>78</gpxtpx:hr>
          </gpxtpx:TrackPointExtension>
        </extensions>
      </trkpt>
      <trkpt lat="43.52881" lon="1.50821">
        <ele>94.199996948242</ele>
        <time>2020-06-10T14:44:32.000Z</time>
        <extensions>
          <gpxtpx:TrackPointExtension xmlns:gpxtpx="http://www.garmin.com/xmlschemas/TrackPointExtension/v1">
            <gpxtpx:hr>76</gpxtpx:hr>
          </gpxtpx:TrackPointExtension>
        </extensions>
      </trkpt>
      <trkpt lat="43.52896" lon="1.50808">
        <ele>94.199996948242</ele>
        <time>2020-06-10T14:44:36.000Z</time>
        <extensions>
          <gpxtpx:TrackPointExtension xmlns:gpxtpx="http://www.garmin.com/xmlschemas/TrackPointExtension/v1">
            <gpxtpx:hr>77</gpxtpx:hr>
          </gpxtpx:TrackPointExtension>
        </extensions>
      </trkpt>
      <trkpt lat="43.52909" lon="1.50792">
        <ele>94.599998474121</ele>
        <time>2020-06-10T14:44:40.000Z</time>
        <extensions>
          <gpxtpx:TrackPointExtension xmlns:gpxtpx="http://www.garmin.com/xmlschemas/TrackPointExtension/v1">
            <gpxtpx:hr>77</gpxtpx:hr>
          </gpxtpx:TrackPointExtension>
        </extensions>
      </trkpt>
      <trkpt lat="43.52913" lon="1.50788">
        <ele>94.599998474121</ele>
        <time>2020-06-10T14:44:41.000Z</time>
        <extensions>
          <gpxtpx:TrackPointExtension xmlns:gpxtpx="http://www.garmin.com/xmlschemas/TrackPointExtension/v1">
            <gpxtpx:hr>77</gpxtpx:hr>
          </gpxtpx:TrackPointExtension>
        </extensions>
      </trkpt>
      <trkpt lat="43.52931" lon="1.50768">
        <ele>94.800003051758</ele>
        <time>2020-06-10T14:44:47.000Z</time>
        <extensions>
          <gpxtpx:TrackPointExtension xmlns:gpxtpx="http://www.garmin.com/xmlschemas/TrackPointExtension/v1">
            <gpxtpx:hr>78</gpxtpx:hr>
          </gpxtpx:TrackPointExtension>
        </extensions>
      </trkpt>
      <trkpt lat="43.52937" lon="1.50762">
        <ele>94.800003051758</ele>
        <time>2020-06-10T14:44:49.000Z</time>
        <extensions>
          <gpxtpx:TrackPointExtension xmlns:gpxtpx="http://www.garmin.com/xmlschemas/TrackPointExtension/v1">
            <gpxtpx:hr>78</gpxtpx:hr>
          </gpxtpx:TrackPointExtension>
        </extensions>
      </trkpt>
      <trkpt lat="43.52947" lon="1.50752">
        <ele>94.800003051758</ele>
        <time>2020-06-10T14:44:52.000Z</time>
        <extensions>
          <gpxtpx:TrackPointExtension xmlns:gpxtpx="http://www.garmin.com/xmlschemas/TrackPointExtension/v1">
            <gpxtpx:hr>78</gpxtpx:hr>
          </gpxtpx:TrackPointExtension>
        </extensions>
      </trkpt>
      <trkpt lat="43.52955" lon="1.5074">
        <ele>94.800003051758</ele>
        <time>2020-06-10T14:44:55.000Z</time>
        <extensions>
          <gpxtpx:TrackPointExtension xmlns:gpxtpx="http://www.garmin.com/xmlschemas/TrackPointExtension/v1">
            <gpxtpx:hr>79</gpxtpx:hr>
          </gpxtpx:TrackPointExtension>
        </extensions>
      </trkpt>
      <trkpt lat="43.52969" lon="1.50725">
        <ele>94.800003051758</ele>
        <time>2020-06-10T14:44:59.000Z</time>
        <extensions>
          <gpxtpx:TrackPointExtension xmlns:gpxtpx="http://www.garmin.com/xmlschemas/TrackPointExtension/v1">
            <gpxtpx:hr>79</gpxtpx:hr>
          </gpxtpx:TrackPointExtension>
        </extensions>
      </trkpt>
      <trkpt lat="43.52988" lon="1.50706">
        <ele>94.800003051758</ele>
        <time>2020-06-10T14:45:04.000Z</time>
        <extensions>
          <gpxtpx:TrackPointExtension xmlns:gpxtpx="http://www.garmin.com/xmlschemas/TrackPointExtension/v1">
            <gpxtpx:hr>78</gpxtpx:hr>
          </gpxtpx:TrackPointExtension>
        </extensions>
      </trkpt>
      <trkpt lat="43.52997" lon="1.50694">
        <ele>94.800003051758</ele>
        <time>2020-06-10T14:45:07.000Z</time>
        <extensions>
          <gpxtpx:TrackPointExtension xmlns:gpxtpx="http://www.garmin.com/xmlschemas/TrackPointExtension/v1">
            <gpxtpx:hr>78</gpxtpx:hr>
          </gpxtpx:TrackPointExtension>
        </extensions>
      </trkpt>
      <trkpt lat="43.53029" lon="1.5066">
        <ele>95</ele>
        <time>2020-06-10T14:45:16.000Z</time>
        <extensions>
          <gpxtpx:TrackPointExtension xmlns:gpxtpx="http://www.garmin.com/xmlschemas/TrackPointExtension/v1">
            <gpxtpx:hr>76</gpxtpx:hr>
          </gpxtpx:TrackPointExtension>
        </extensions>
      </trkpt>
      <trkpt lat="43.5306" lon="1.50639">
        <ele>95</ele>
        <time>2020-06-10T14:45:22.000Z</time>
        <extensions>
          <gpxtpx:TrackPointExtension xmlns:gpxtpx="http://www.garmin.com/xmlschemas/TrackPointExtension/v1">
            <gpxtpx:hr>73</gpxtpx:hr>
          </gpxtpx:TrackPointExtension>
        </extensions>
      </trkpt>
      <trkpt lat="43.53075" lon="1.50629">
        <ele>94.400001525879</ele>
        <time>2020-06-10T14:45:25.000Z</time>
        <extensions>
          <gpxtpx:TrackPointExtension xmlns:gpxtpx="http://www.garmin.com/xmlschemas/TrackPointExtension/v1">
            <gpxtpx:hr>73</gpxtpx:hr>
          </gpxtpx:TrackPointExtension>
        </extensions>
      </trkpt>
      <trkpt lat="43.53081" lon="1.50626">
        <ele>94</ele>
        <time>2020-06-10T14:45:26.000Z</time>
        <extensions>
          <gpxtpx:TrackPointExtension xmlns:gpxtpx="http://www.garmin.com/xmlschemas/TrackPointExtension/v1">
            <gpxtpx:hr>73</gpxtpx:hr>
          </gpxtpx:TrackPointExtension>
        </extensions>
      </trkpt>
      <trkpt lat="43.53122" lon="1.50599">
        <ele>93.400001525879</ele>
        <time>2020-06-10T14:45:35.000Z</time>
        <extensions>
          <gpxtpx:TrackPointExtension xmlns:gpxtpx="http://www.garmin.com/xmlschemas/TrackPointExtension/v1">
            <gpxtpx:hr>75</gpxtpx:hr>
          </gpxtpx:TrackPointExtension>
        </extensions>
      </trkpt>
      <trkpt lat="43.53131" lon="1.50593">
        <ele>93.400001525879</ele>
        <time>2020-06-10T14:45:37.000Z</time>
        <extensions>
          <gpxtpx:TrackPointExtension xmlns:gpxtpx="http://www.garmin.com/xmlschemas/TrackPointExtension/v1">
            <gpxtpx:hr>76</gpxtpx:hr>
          </gpxtpx:TrackPointExtension>
        </extensions>
      </trkpt>
      <trkpt lat="43.53165" lon="1.50577">
        <ele>93.199996948242</ele>
        <time>2020-06-10T14:45:43.000Z</time>
        <extensions>
          <gpxtpx:TrackPointExtension xmlns:gpxtpx="http://www.garmin.com/xmlschemas/TrackPointExtension/v1">
            <gpxtpx:hr>79</gpxtpx:hr>
          </gpxtpx:TrackPointExtension>
        </extensions>
      </trkpt>
      <trkpt lat="43.5318" lon="1.50571">
        <ele>93</ele>
        <time>2020-06-10T14:45:46.000Z</time>
        <extensions>
          <gpxtpx:TrackPointExtension xmlns:gpxtpx="http://www.garmin.com/xmlschemas/TrackPointExtension/v1">
            <gpxtpx:hr>77</gpxtpx:hr>
          </gpxtpx:TrackPointExtension>
        </extensions>
      </trkpt>
      <trkpt lat="43.5322" lon="1.5056">
        <ele>93</ele>
        <time>2020-06-10T14:45:54.000Z</time>
        <extensions>
          <gpxtpx:TrackPointExtension xmlns:gpxtpx="http://www.garmin.com/xmlschemas/TrackPointExtension/v1">
            <gpxtpx:hr>80</gpxtpx:hr>
          </gpxtpx:TrackPointExtension>
        </extensions>
      </trkpt>
      <trkpt lat="43.53273" lon="1.50551">
        <ele>93.599998474121</ele>
        <time>2020-06-10T14:46:05.000Z</time>
        <extensions>
          <gpxtpx:TrackPointExtension xmlns:gpxtpx="http://www.garmin.com/xmlschemas/TrackPointExtension/v1">
            <gpxtpx:hr>83</gpxtpx:hr>
          </gpxtpx:TrackPointExtension>
        </extensions>
      </trkpt>
      <trkpt lat="43.53312" lon="1.50546">
        <ele>93.400001525879</ele>
        <time>2020-06-10T14:46:13.000Z</time>
        <extensions>
          <gpxtpx:TrackPointExtension xmlns:gpxtpx="http://www.garmin.com/xmlschemas/TrackPointExtension/v1">
            <gpxtpx:hr>85</gpxtpx:hr>
          </gpxtpx:TrackPointExtension>
        </extensions>
      </trkpt>
      <trkpt lat="43.5337" lon="1.50536">
        <ele>93.199996948242</ele>
        <time>2020-06-10T14:46:24.000Z</time>
        <extensions>
          <gpxtpx:TrackPointExtension xmlns:gpxtpx="http://www.garmin.com/xmlschemas/TrackPointExtension/v1">
            <gpxtpx:hr>86</gpxtpx:hr>
          </gpxtpx:TrackPointExtension>
        </extensions>
      </trkpt>
      <trkpt lat="43.53412" lon="1.5052">
        <ele>93</ele>
        <time>2020-06-10T14:46:32.000Z</time>
        <extensions>
          <gpxtpx:TrackPointExtension xmlns:gpxtpx="http://www.garmin.com/xmlschemas/TrackPointExtension/v1">
            <gpxtpx:hr>87</gpxtpx:hr>
          </gpxtpx:TrackPointExtension>
        </extensions>
      </trkpt>
      <trkpt lat="43.53466" lon="1.50485">
        <ele>93.400001525879</ele>
        <time>2020-06-10T14:46:43.000Z</time>
        <extensions>
          <gpxtpx:TrackPointExtension xmlns:gpxtpx="http://www.garmin.com/xmlschemas/TrackPointExtension/v1">
            <gpxtpx:hr>86</gpxtpx:hr>
          </gpxtpx:TrackPointExtension>
        </extensions>
      </trkpt>
      <trkpt lat="43.53501" lon="1.50459">
        <ele>93.400001525879</ele>
        <time>2020-06-10T14:46:51.000Z</time>
        <extensions>
          <gpxtpx:TrackPointExtension xmlns:gpxtpx="http://www.garmin.com/xmlschemas/TrackPointExtension/v1">
            <gpxtpx:hr>83</gpxtpx:hr>
          </gpxtpx:TrackPointExtension>
        </extensions>
      </trkpt>
      <trkpt lat="43.53508" lon="1.50453">
        <ele>93.599998474121</ele>
        <time>2020-06-10T14:46:53.000Z</time>
        <extensions>
          <gpxtpx:TrackPointExtension xmlns:gpxtpx="http://www.garmin.com/xmlschemas/TrackPointExtension/v1">
            <gpxtpx:hr>83</gpxtpx:hr>
          </gpxtpx:TrackPointExtension>
        </extensions>
      </trkpt>
      <trkpt lat="43.53523" lon="1.50441">
        <ele>93.599998474121</ele>
        <time>2020-06-10T14:46:57.000Z</time>
        <extensions>
          <gpxtpx:TrackPointExtension xmlns:gpxtpx="http://www.garmin.com/xmlschemas/TrackPointExtension/v1">
            <gpxtpx:hr>81</gpxtpx:hr>
          </gpxtpx:TrackPointExtension>
        </extensions>
      </trkpt>
      <trkpt lat="43.53572" lon="1.50399">
        <ele>93.800003051758</ele>
        <time>2020-06-10T14:47:09.000Z</time>
        <extensions>
          <gpxtpx:TrackPointExtension xmlns:gpxtpx="http://www.garmin.com/xmlschemas/TrackPointExtension/v1">
            <gpxtpx:hr>81</gpxtpx:hr>
          </gpxtpx:TrackPointExtension>
        </extensions>
      </trkpt>
      <trkpt lat="43.53588" lon="1.50385">
        <ele>93.800003051758</ele>
        <time>2020-06-10T14:47:13.000Z</time>
        <extensions>
          <gpxtpx:TrackPointExtension xmlns:gpxtpx="http://www.garmin.com/xmlschemas/TrackPointExtension/v1">
            <gpxtpx:hr>81</gpxtpx:hr>
          </gpxtpx:TrackPointExtension>
        </extensions>
      </trkpt>
      <trkpt lat="43.53629" lon="1.5034">
        <ele>93.599998474121</ele>
        <time>2020-06-10T14:47:24.000Z</time>
        <extensions>
          <gpxtpx:TrackPointExtension xmlns:gpxtpx="http://www.garmin.com/xmlschemas/TrackPointExtension/v1">
            <gpxtpx:hr>81</gpxtpx:hr>
          </gpxtpx:TrackPointExtension>
        </extensions>
      </trkpt>
      <trkpt lat="43.53658" lon="1.50304">
        <ele>93.599998474121</ele>
        <time>2020-06-10T14:47:32.000Z</time>
        <extensions>
          <gpxtpx:TrackPointExtension xmlns:gpxtpx="http://www.garmin.com/xmlschemas/TrackPointExtension/v1">
            <gpxtpx:hr>80</gpxtpx:hr>
          </gpxtpx:TrackPointExtension>
        </extensions>
      </trkpt>
      <trkpt lat="43.537" lon="1.5025">
        <ele>93.599998474121</ele>
        <time>2020-06-10T14:47:44.000Z</time>
        <extensions>
          <gpxtpx:TrackPointExtension xmlns:gpxtpx="http://www.garmin.com/xmlschemas/TrackPointExtension/v1">
            <gpxtpx:hr>79</gpxtpx:hr>
          </gpxtpx:TrackPointExtension>
        </extensions>
      </trkpt>
      <trkpt lat="43.53739" lon="1.50193">
        <ele>93.400001525879</ele>
        <time>2020-06-10T14:47:56.000Z</time>
        <extensions>
          <gpxtpx:TrackPointExtension xmlns:gpxtpx="http://www.garmin.com/xmlschemas/TrackPointExtension/v1">
            <gpxtpx:hr>77</gpxtpx:hr>
          </gpxtpx:TrackPointExtension>
        </extensions>
      </trkpt>
      <trkpt lat="43.53763" lon="1.50141">
        <ele>93.800003051758</ele>
        <time>2020-06-10T14:48:09.000Z</time>
        <extensions>
          <gpxtpx:TrackPointExtension xmlns:gpxtpx="http://www.garmin.com/xmlschemas/TrackPointExtension/v1">
            <gpxtpx:hr>76</gpxtpx:hr>
          </gpxtpx:TrackPointExtension>
        </extensions>
      </trkpt>
      <trkpt lat="43.53771" lon="1.50121">
        <ele>94</ele>
        <time>2020-06-10T14:48:13.000Z</time>
        <extensions>
          <gpxtpx:TrackPointExtension xmlns:gpxtpx="http://www.garmin.com/xmlschemas/TrackPointExtension/v1">
            <gpxtpx:hr>74</gpxtpx:hr>
          </gpxtpx:TrackPointExtension>
        </extensions>
      </trkpt>
      <trkpt lat="43.53789" lon="1.50088">
        <ele>94</ele>
        <time>2020-06-10T14:48:20.000Z</time>
        <extensions>
          <gpxtpx:TrackPointExtension xmlns:gpxtpx="http://www.garmin.com/xmlschemas/TrackPointExtension/v1">
            <gpxtpx:hr>73</gpxtpx:hr>
          </gpxtpx:TrackPointExtension>
        </extensions>
      </trkpt>
      <trkpt lat="43.53809" lon="1.50055">
        <ele>94</ele>
        <time>2020-06-10T14:48:28.000Z</time>
        <extensions>
          <gpxtpx:TrackPointExtension xmlns:gpxtpx="http://www.garmin.com/xmlschemas/TrackPointExtension/v1">
            <gpxtpx:hr>72</gpxtpx:hr>
          </gpxtpx:TrackPointExtension>
        </extensions>
      </trkpt>
      <trkpt lat="43.53816" lon="1.50041">
        <ele>94</ele>
        <time>2020-06-10T14:48:31.000Z</time>
        <extensions>
          <gpxtpx:TrackPointExtension xmlns:gpxtpx="http://www.garmin.com/xmlschemas/TrackPointExtension/v1">
            <gpxtpx:hr>73</gpxtpx:hr>
          </gpxtpx:TrackPointExtension>
        </extensions>
      </trkpt>
      <trkpt lat="43.53828" lon="1.50023">
        <ele>94</ele>
        <time>2020-06-10T14:48:35.000Z</time>
        <extensions>
          <gpxtpx:TrackPointExtension xmlns:gpxtpx="http://www.garmin.com/xmlschemas/TrackPointExtension/v1">
            <gpxtpx:hr>75</gpxtpx:hr>
          </gpxtpx:TrackPointExtension>
        </extensions>
      </trkpt>
      <trkpt lat="43.53837" lon="1.5001">
        <ele>94</ele>
        <time>2020-06-10T14:48:38.000Z</time>
        <extensions>
          <gpxtpx:TrackPointExtension xmlns:gpxtpx="http://www.garmin.com/xmlschemas/TrackPointExtension/v1">
            <gpxtpx:hr>75</gpxtpx:hr>
          </gpxtpx:TrackPointExtension>
        </extensions>
      </trkpt>
      <trkpt lat="43.53851" lon="1.49985">
        <ele>94.199996948242</ele>
        <time>2020-06-10T14:48:43.000Z</time>
        <extensions>
          <gpxtpx:TrackPointExtension xmlns:gpxtpx="http://www.garmin.com/xmlschemas/TrackPointExtension/v1">
            <gpxtpx:hr>75</gpxtpx:hr>
          </gpxtpx:TrackPointExtension>
        </extensions>
      </trkpt>
      <trkpt lat="43.53866" lon="1.4996">
        <ele>94.400001525879</ele>
        <time>2020-06-10T14:48:49.000Z</time>
        <extensions>
          <gpxtpx:TrackPointExtension xmlns:gpxtpx="http://www.garmin.com/xmlschemas/TrackPointExtension/v1">
            <gpxtpx:hr>75</gpxtpx:hr>
          </gpxtpx:TrackPointExtension>
        </extensions>
      </trkpt>
      <trkpt lat="43.53884" lon="1.49917">
        <ele>95.199996948242</ele>
        <time>2020-06-10T14:48:59.000Z</time>
        <extensions>
          <gpxtpx:TrackPointExtension xmlns:gpxtpx="http://www.garmin.com/xmlschemas/TrackPointExtension/v1">
            <gpxtpx:hr>75</gpxtpx:hr>
          </gpxtpx:TrackPointExtension>
        </extensions>
      </trkpt>
      <trkpt lat="43.53888" lon="1.49904">
        <ele>95.400001525879</ele>
        <time>2020-06-10T14:49:02.000Z</time>
        <extensions>
          <gpxtpx:TrackPointExtension xmlns:gpxtpx="http://www.garmin.com/xmlschemas/TrackPointExtension/v1">
            <gpxtpx:hr>75</gpxtpx:hr>
          </gpxtpx:TrackPointExtension>
        </extensions>
      </trkpt>
      <trkpt lat="43.53892" lon="1.49893">
        <ele>95.400001525879</ele>
        <time>2020-06-10T14:49:04.000Z</time>
        <extensions>
          <gpxtpx:TrackPointExtension xmlns:gpxtpx="http://www.garmin.com/xmlschemas/TrackPointExtension/v1">
            <gpxtpx:hr>75</gpxtpx:hr>
          </gpxtpx:TrackPointExtension>
        </extensions>
      </trkpt>
      <trkpt lat="43.53908" lon="1.49807">
        <ele>95.199996948242</ele>
        <time>2020-06-10T14:49:16.000Z</time>
        <extensions>
          <gpxtpx:TrackPointExtension xmlns:gpxtpx="http://www.garmin.com/xmlschemas/TrackPointExtension/v1">
            <gpxtpx:hr>76</gpxtpx:hr>
          </gpxtpx:TrackPointExtension>
        </extensions>
      </trkpt>
      <trkpt lat="43.53912" lon="1.49758">
        <ele>95.199996948242</ele>
        <time>2020-06-10T14:49:23.000Z</time>
        <extensions>
          <gpxtpx:TrackPointExtension xmlns:gpxtpx="http://www.garmin.com/xmlschemas/TrackPointExtension/v1">
            <gpxtpx:hr>75</gpxtpx:hr>
          </gpxtpx:TrackPointExtension>
        </extensions>
      </trkpt>
      <trkpt lat="43.53907" lon="1.49681">
        <ele>94.199996948242</ele>
        <time>2020-06-10T14:49:34.000Z</time>
        <extensions>
          <gpxtpx:TrackPointExtension xmlns:gpxtpx="http://www.garmin.com/xmlschemas/TrackPointExtension/v1">
            <gpxtpx:hr>77</gpxtpx:hr>
          </gpxtpx:TrackPointExtension>
        </extensions>
      </trkpt>
      <trkpt lat="43.53894" lon="1.496">
        <ele>94.199996948242</ele>
        <time>2020-06-10T14:49:45.000Z</time>
        <extensions>
          <gpxtpx:TrackPointExtension xmlns:gpxtpx="http://www.garmin.com/xmlschemas/TrackPointExtension/v1">
            <gpxtpx:hr>78</gpxtpx:hr>
          </gpxtpx:TrackPointExtension>
        </extensions>
      </trkpt>
      <trkpt lat="43.53881" lon="1.49521">
        <ele>94.400001525879</ele>
        <time>2020-06-10T14:49:56.000Z</time>
        <extensions>
          <gpxtpx:TrackPointExtension xmlns:gpxtpx="http://www.garmin.com/xmlschemas/TrackPointExtension/v1">
            <gpxtpx:hr>80</gpxtpx:hr>
          </gpxtpx:TrackPointExtension>
        </extensions>
      </trkpt>
      <trkpt lat="43.53877" lon="1.49486">
        <ele>94.400001525879</ele>
        <time>2020-06-10T14:50:01.000Z</time>
        <extensions>
          <gpxtpx:TrackPointExtension xmlns:gpxtpx="http://www.garmin.com/xmlschemas/TrackPointExtension/v1">
            <gpxtpx:hr>80</gpxtpx:hr>
          </gpxtpx:TrackPointExtension>
        </extensions>
      </trkpt>
      <trkpt lat="43.5387" lon="1.49408">
        <ele>95</ele>
        <time>2020-06-10T14:50:12.000Z</time>
        <extensions>
          <gpxtpx:TrackPointExtension xmlns:gpxtpx="http://www.garmin.com/xmlschemas/TrackPointExtension/v1">
            <gpxtpx:hr>82</gpxtpx:hr>
          </gpxtpx:TrackPointExtension>
        </extensions>
      </trkpt>
      <trkpt lat="43.53869" lon="1.4935">
        <ele>95</ele>
        <time>2020-06-10T14:50:20.000Z</time>
        <extensions>
          <gpxtpx:TrackPointExtension xmlns:gpxtpx="http://www.garmin.com/xmlschemas/TrackPointExtension/v1">
            <gpxtpx:hr>78</gpxtpx:hr>
          </gpxtpx:TrackPointExtension>
        </extensions>
      </trkpt>
      <trkpt lat="43.5387" lon="1.49338">
        <ele>95</ele>
        <time>2020-06-10T14:50:22.000Z</time>
        <extensions>
          <gpxtpx:TrackPointExtension xmlns:gpxtpx="http://www.garmin.com/xmlschemas/TrackPointExtension/v1">
            <gpxtpx:hr>78</gpxtpx:hr>
          </gpxtpx:TrackPointExtension>
        </extensions>
      </trkpt>
      <trkpt lat="43.53876" lon="1.49321">
        <ele>95</ele>
        <time>2020-06-10T14:50:25.000Z</time>
        <extensions>
          <gpxtpx:TrackPointExtension xmlns:gpxtpx="http://www.garmin.com/xmlschemas/TrackPointExtension/v1">
            <gpxtpx:hr>76</gpxtpx:hr>
          </gpxtpx:TrackPointExtension>
        </extensions>
      </trkpt>
      <trkpt lat="43.53884" lon="1.49305">
        <ele>94.800003051758</ele>
        <time>2020-06-10T14:50:28.000Z</time>
        <extensions>
          <gpxtpx:TrackPointExtension xmlns:gpxtpx="http://www.garmin.com/xmlschemas/TrackPointExtension/v1">
            <gpxtpx:hr>75</gpxtpx:hr>
          </gpxtpx:TrackPointExtension>
        </extensions>
      </trkpt>
      <trkpt lat="43.53896" lon="1.49289">
        <ele>94.800003051758</ele>
        <time>2020-06-10T14:50:32.000Z</time>
        <extensions>
          <gpxtpx:TrackPointExtension xmlns:gpxtpx="http://www.garmin.com/xmlschemas/TrackPointExtension/v1">
            <gpxtpx:hr>74</gpxtpx:hr>
          </gpxtpx:TrackPointExtension>
        </extensions>
      </trkpt>
      <trkpt lat="43.53919" lon="1.49271">
        <ele>94.599998474121</ele>
        <time>2020-06-10T14:50:38.000Z</time>
        <extensions>
          <gpxtpx:TrackPointExtension xmlns:gpxtpx="http://www.garmin.com/xmlschemas/TrackPointExtension/v1">
            <gpxtpx:hr>75</gpxtpx:hr>
          </gpxtpx:TrackPointExtension>
        </extensions>
      </trkpt>
      <trkpt lat="43.53933" lon="1.49264">
        <ele>94.400001525879</ele>
        <time>2020-06-10T14:50:42.000Z</time>
        <extensions>
          <gpxtpx:TrackPointExtension xmlns:gpxtpx="http://www.garmin.com/xmlschemas/TrackPointExtension/v1">
            <gpxtpx:hr>75</gpxtpx:hr>
          </gpxtpx:TrackPointExtension>
        </extensions>
      </trkpt>
      <trkpt lat="43.53963" lon="1.49252">
        <ele>94.199996948242</ele>
        <time>2020-06-10T14:50:49.000Z</time>
        <extensions>
          <gpxtpx:TrackPointExtension xmlns:gpxtpx="http://www.garmin.com/xmlschemas/TrackPointExtension/v1">
            <gpxtpx:hr>74</gpxtpx:hr>
          </gpxtpx:TrackPointExtension>
        </extensions>
      </trkpt>
      <trkpt lat="43.53992" lon="1.49245">
        <ele>94</ele>
        <time>2020-06-10T14:50:55.000Z</time>
        <extensions>
          <gpxtpx:TrackPointExtension xmlns:gpxtpx="http://www.garmin.com/xmlschemas/TrackPointExtension/v1">
            <gpxtpx:hr>77</gpxtpx:hr>
          </gpxtpx:TrackPointExtension>
        </extensions>
      </trkpt>
      <trkpt lat="43.53997" lon="1.49244">
        <ele>94</ele>
        <time>2020-06-10T14:50:56.000Z</time>
        <extensions>
          <gpxtpx:TrackPointExtension xmlns:gpxtpx="http://www.garmin.com/xmlschemas/TrackPointExtension/v1">
            <gpxtpx:hr>77</gpxtpx:hr>
          </gpxtpx:TrackPointExtension>
        </extensions>
      </trkpt>
      <trkpt lat="43.54029" lon="1.49232">
        <ele>94</ele>
        <time>2020-06-10T14:51:02.000Z</time>
        <extensions>
          <gpxtpx:TrackPointExtension xmlns:gpxtpx="http://www.garmin.com/xmlschemas/TrackPointExtension/v1">
            <gpxtpx:hr>80</gpxtpx:hr>
          </gpxtpx:TrackPointExtension>
        </extensions>
      </trkpt>
      <trkpt lat="43.5405" lon="1.49223">
        <ele>94</ele>
        <time>2020-06-10T14:51:06.000Z</time>
        <extensions>
          <gpxtpx:TrackPointExtension xmlns:gpxtpx="http://www.garmin.com/xmlschemas/TrackPointExtension/v1">
            <gpxtpx:hr>83</gpxtpx:hr>
          </gpxtpx:TrackPointExtension>
        </extensions>
      </trkpt>
      <trkpt lat="43.54078" lon="1.49207">
        <ele>93.800003051758</ele>
        <time>2020-06-10T14:51:11.000Z</time>
        <extensions>
          <gpxtpx:TrackPointExtension xmlns:gpxtpx="http://www.garmin.com/xmlschemas/TrackPointExtension/v1">
            <gpxtpx:hr>85</gpxtpx:hr>
          </gpxtpx:TrackPointExtension>
        </extensions>
      </trkpt>
      <trkpt lat="43.54103" lon="1.49191">
        <ele>93.199996948242</ele>
        <time>2020-06-10T14:51:16.000Z</time>
        <extensions>
          <gpxtpx:TrackPointExtension xmlns:gpxtpx="http://www.garmin.com/xmlschemas/TrackPointExtension/v1">
            <gpxtpx:hr>82</gpxtpx:hr>
          </gpxtpx:TrackPointExtension>
        </extensions>
      </trkpt>
      <trkpt lat="43.54107" lon="1.49188">
        <ele>93.199996948242</ele>
        <time>2020-06-10T14:51:17.000Z</time>
        <extensions>
          <gpxtpx:TrackPointExtension xmlns:gpxtpx="http://www.garmin.com/xmlschemas/TrackPointExtension/v1">
            <gpxtpx:hr>82</gpxtpx:hr>
          </gpxtpx:TrackPointExtension>
        </extensions>
      </trkpt>
      <trkpt lat="43.54123" lon="1.49178">
        <ele>93.199996948242</ele>
        <time>2020-06-10T14:51:21.000Z</time>
        <extensions>
          <gpxtpx:TrackPointExtension xmlns:gpxtpx="http://www.garmin.com/xmlschemas/TrackPointExtension/v1">
            <gpxtpx:hr>83</gpxtpx:hr>
          </gpxtpx:TrackPointExtension>
        </extensions>
      </trkpt>
      <trkpt lat="43.54177" lon="1.49144">
        <ele>94</ele>
        <time>2020-06-10T14:51:32.000Z</time>
        <extensions>
          <gpxtpx:TrackPointExtension xmlns:gpxtpx="http://www.garmin.com/xmlschemas/TrackPointExtension/v1">
            <gpxtpx:hr>84</gpxtpx:hr>
          </gpxtpx:TrackPointExtension>
        </extensions>
      </trkpt>
      <trkpt lat="43.54207" lon="1.49128">
        <ele>94.400001525879</ele>
        <time>2020-06-10T14:51:38.000Z</time>
        <extensions>
          <gpxtpx:TrackPointExtension xmlns:gpxtpx="http://www.garmin.com/xmlschemas/TrackPointExtension/v1">
            <gpxtpx:hr>85</gpxtpx:hr>
          </gpxtpx:TrackPointExtension>
        </extensions>
      </trkpt>
      <trkpt lat="43.54259" lon="1.491">
        <ele>94.400001525879</ele>
        <time>2020-06-10T14:51:49.000Z</time>
        <extensions>
          <gpxtpx:TrackPointExtension xmlns:gpxtpx="http://www.garmin.com/xmlschemas/TrackPointExtension/v1">
            <gpxtpx:hr>83</gpxtpx:hr>
          </gpxtpx:TrackPointExtension>
        </extensions>
      </trkpt>
      <trkpt lat="43.54264" lon="1.49098">
        <ele>94.400001525879</ele>
        <time>2020-06-10T14:51:50.000Z</time>
        <extensions>
          <gpxtpx:TrackPointExtension xmlns:gpxtpx="http://www.garmin.com/xmlschemas/TrackPointExtension/v1">
            <gpxtpx:hr>83</gpxtpx:hr>
          </gpxtpx:TrackPointExtension>
        </extensions>
      </trkpt>
      <trkpt lat="43.54281" lon="1.4909">
        <ele>94.199996948242</ele>
        <time>2020-06-10T14:51:54.000Z</time>
        <extensions>
          <gpxtpx:TrackPointExtension xmlns:gpxtpx="http://www.garmin.com/xmlschemas/TrackPointExtension/v1">
            <gpxtpx:hr>82</gpxtpx:hr>
          </gpxtpx:TrackPointExtension>
        </extensions>
      </trkpt>
      <trkpt lat="43.54303" lon="1.49077">
        <ele>94.199996948242</ele>
        <time>2020-06-10T14:52:00.000Z</time>
        <extensions>
          <gpxtpx:TrackPointExtension xmlns:gpxtpx="http://www.garmin.com/xmlschemas/TrackPointExtension/v1">
            <gpxtpx:hr>79</gpxtpx:hr>
          </gpxtpx:TrackPointExtension>
        </extensions>
      </trkpt>
      <trkpt lat="43.54325" lon="1.49069">
        <ele>94.400001525879</ele>
        <time>2020-06-10T14:52:06.000Z</time>
        <extensions>
          <gpxtpx:TrackPointExtension xmlns:gpxtpx="http://www.garmin.com/xmlschemas/TrackPointExtension/v1">
            <gpxtpx:hr>76</gpxtpx:hr>
          </gpxtpx:TrackPointExtension>
        </extensions>
      </trkpt>
      <trkpt lat="43.5436" lon="1.49054">
        <ele>94.800003051758</ele>
        <time>2020-06-10T14:52:15.000Z</time>
        <extensions>
          <gpxtpx:TrackPointExtension xmlns:gpxtpx="http://www.garmin.com/xmlschemas/TrackPointExtension/v1">
            <gpxtpx:hr>73</gpxtpx:hr>
          </gpxtpx:TrackPointExtension>
        </extensions>
      </trkpt>
      <trkpt lat="43.54381" lon="1.49045">
        <ele>94.800003051758</ele>
        <time>2020-06-10T14:52:21.000Z</time>
        <extensions>
          <gpxtpx:TrackPointExtension xmlns:gpxtpx="http://www.garmin.com/xmlschemas/TrackPointExtension/v1">
            <gpxtpx:hr>70</gpxtpx:hr>
          </gpxtpx:TrackPointExtension>
        </extensions>
      </trkpt>
      <trkpt lat="43.54413" lon="1.4903">
        <ele>94.800003051758</ele>
        <time>2020-06-10T14:52:30.000Z</time>
        <extensions>
          <gpxtpx:TrackPointExtension xmlns:gpxtpx="http://www.garmin.com/xmlschemas/TrackPointExtension/v1">
            <gpxtpx:hr>70</gpxtpx:hr>
          </gpxtpx:TrackPointExtension>
        </extensions>
      </trkpt>
      <trkpt lat="43.54449" lon="1.4901">
        <ele>95</ele>
        <time>2020-06-10T14:52:42.000Z</time>
        <extensions>
          <gpxtpx:TrackPointExtension xmlns:gpxtpx="http://www.garmin.com/xmlschemas/TrackPointExtension/v1">
            <gpxtpx:hr>71</gpxtpx:hr>
          </gpxtpx:TrackPointExtension>
        </extensions>
      </trkpt>
      <trkpt lat="43.54454" lon="1.49006">
        <ele>95.199996948242</ele>
        <time>2020-06-10T14:52:45.000Z</time>
        <extensions>
          <gpxtpx:TrackPointExtension xmlns:gpxtpx="http://www.garmin.com/xmlschemas/TrackPointExtension/v1">
            <gpxtpx:hr>72</gpxtpx:hr>
          </gpxtpx:TrackPointExtension>
        </extensions>
      </trkpt>
      <trkpt lat="43.54456" lon="1.48998">
        <ele>96</ele>
        <time>2020-06-10T14:52:49.000Z</time>
        <extensions>
          <gpxtpx:TrackPointExtension xmlns:gpxtpx="http://www.garmin.com/xmlschemas/TrackPointExtension/v1">
            <gpxtpx:hr>75</gpxtpx:hr>
          </gpxtpx:TrackPointExtension>
        </extensions>
      </trkpt>
      <trkpt lat="43.54454" lon="1.48993">
        <ele>96.400001525879</ele>
        <time>2020-06-10T14:52:51.000Z</time>
        <extensions>
          <gpxtpx:TrackPointExtension xmlns:gpxtpx="http://www.garmin.com/xmlschemas/TrackPointExtension/v1">
            <gpxtpx:hr>77</gpxtpx:hr>
          </gpxtpx:TrackPointExtension>
        </extensions>
      </trkpt>
      <trkpt lat="43.54452" lon="1.48988">
        <ele>96.800003051758</ele>
        <time>2020-06-10T14:52:53.000Z</time>
        <extensions>
          <gpxtpx:TrackPointExtension xmlns:gpxtpx="http://www.garmin.com/xmlschemas/TrackPointExtension/v1">
            <gpxtpx:hr>80</gpxtpx:hr>
          </gpxtpx:TrackPointExtension>
        </extensions>
      </trkpt>
      <trkpt lat="43.5445" lon="1.48984">
        <ele>97.199996948242</ele>
        <time>2020-06-10T14:52:55.000Z</time>
        <extensions>
          <gpxtpx:TrackPointExtension xmlns:gpxtpx="http://www.garmin.com/xmlschemas/TrackPointExtension/v1">
            <gpxtpx:hr>82</gpxtpx:hr>
          </gpxtpx:TrackPointExtension>
        </extensions>
      </trkpt>
      <trkpt lat="43.54447" lon="1.48979">
        <ele>97.599998474121</ele>
        <time>2020-06-10T14:52:57.000Z</time>
        <extensions>
          <gpxtpx:TrackPointExtension xmlns:gpxtpx="http://www.garmin.com/xmlschemas/TrackPointExtension/v1">
            <gpxtpx:hr>85</gpxtpx:hr>
          </gpxtpx:TrackPointExtension>
        </extensions>
      </trkpt>
      <trkpt lat="43.54445" lon="1.48976">
        <ele>97.599998474121</ele>
        <time>2020-06-10T14:52:58.000Z</time>
        <extensions>
          <gpxtpx:TrackPointExtension xmlns:gpxtpx="http://www.garmin.com/xmlschemas/TrackPointExtension/v1">
            <gpxtpx:hr>89</gpxtpx:hr>
          </gpxtpx:TrackPointExtension>
        </extensions>
      </trkpt>
      <trkpt lat="43.54442" lon="1.48969">
        <ele>97.800003051758</ele>
        <time>2020-06-10T14:53:00.000Z</time>
        <extensions>
          <gpxtpx:TrackPointExtension xmlns:gpxtpx="http://www.garmin.com/xmlschemas/TrackPointExtension/v1">
            <gpxtpx:hr>93</gpxtpx:hr>
          </gpxtpx:TrackPointExtension>
        </extensions>
      </trkpt>
      <trkpt lat="43.54416" lon="1.48898">
        <ele>97</ele>
        <time>2020-06-10T14:53:16.000Z</time>
        <extensions>
          <gpxtpx:TrackPointExtension xmlns:gpxtpx="http://www.garmin.com/xmlschemas/TrackPointExtension/v1">
            <gpxtpx:hr>92</gpxtpx:hr>
          </gpxtpx:TrackPointExtension>
        </extensions>
      </trkpt>
      <trkpt lat="43.5441" lon="1.48886">
        <ele>96.800003051758</ele>
        <time>2020-06-10T14:53:19.000Z</time>
        <extensions>
          <gpxtpx:TrackPointExtension xmlns:gpxtpx="http://www.garmin.com/xmlschemas/TrackPointExtension/v1">
            <gpxtpx:hr>88</gpxtpx:hr>
          </gpxtpx:TrackPointExtension>
        </extensions>
      </trkpt>
      <trkpt lat="43.54406" lon="1.48878">
        <ele>96.599998474121</ele>
        <time>2020-06-10T14:53:21.000Z</time>
        <extensions>
          <gpxtpx:TrackPointExtension xmlns:gpxtpx="http://www.garmin.com/xmlschemas/TrackPointExtension/v1">
            <gpxtpx:hr>85</gpxtpx:hr>
          </gpxtpx:TrackPointExtension>
        </extensions>
      </trkpt>
      <trkpt lat="43.54403" lon="1.48869">
        <ele>96.599998474121</ele>
        <time>2020-06-10T14:53:23.000Z</time>
        <extensions>
          <gpxtpx:TrackPointExtension xmlns:gpxtpx="http://www.garmin.com/xmlschemas/TrackPointExtension/v1">
            <gpxtpx:hr>82</gpxtpx:hr>
          </gpxtpx:TrackPointExtension>
        </extensions>
      </trkpt>
      <trkpt lat="43.54397" lon="1.48856">
        <ele>96.599998474121</ele>
        <time>2020-06-10T14:53:26.000Z</time>
        <extensions>
          <gpxtpx:TrackPointExtension xmlns:gpxtpx="http://www.garmin.com/xmlschemas/TrackPointExtension/v1">
            <gpxtpx:hr>79</gpxtpx:hr>
          </gpxtpx:TrackPointExtension>
        </extensions>
      </trkpt>
      <trkpt lat="43.54386" lon="1.48829">
        <ele>96.800003051758</ele>
        <time>2020-06-10T14:53:32.000Z</time>
        <extensions>
          <gpxtpx:TrackPointExtension xmlns:gpxtpx="http://www.garmin.com/xmlschemas/TrackPointExtension/v1">
            <gpxtpx:hr>76</gpxtpx:hr>
          </gpxtpx:TrackPointExtension>
        </extensions>
      </trkpt>
      <trkpt lat="43.54372" lon="1.48757">
        <ele>97.199996948242</ele>
        <time>2020-06-10T14:53:46.000Z</time>
        <extensions>
          <gpxtpx:TrackPointExtension xmlns:gpxtpx="http://www.garmin.com/xmlschemas/TrackPointExtension/v1">
            <gpxtpx:hr>75</gpxtpx:hr>
          </gpxtpx:TrackPointExtension>
        </extensions>
      </trkpt>
      <trkpt lat="43.54362" lon="1.48688">
        <ele>97.599998474121</ele>
        <time>2020-06-10T14:53:59.000Z</time>
        <extensions>
          <gpxtpx:TrackPointExtension xmlns:gpxtpx="http://www.garmin.com/xmlschemas/TrackPointExtension/v1">
            <gpxtpx:hr>78</gpxtpx:hr>
          </gpxtpx:TrackPointExtension>
        </extensions>
      </trkpt>
      <trkpt lat="43.54343" lon="1.48613">
        <ele>98.199996948242</ele>
        <time>2020-06-10T14:54:14.000Z</time>
        <extensions>
          <gpxtpx:TrackPointExtension xmlns:gpxtpx="http://www.garmin.com/xmlschemas/TrackPointExtension/v1">
            <gpxtpx:hr>79</gpxtpx:hr>
          </gpxtpx:TrackPointExtension>
        </extensions>
      </trkpt>
      <trkpt lat="43.54342" lon="1.48608">
        <ele>98.400001525879</ele>
        <time>2020-06-10T14:54:15.000Z</time>
        <extensions>
          <gpxtpx:TrackPointExtension xmlns:gpxtpx="http://www.garmin.com/xmlschemas/TrackPointExtension/v1">
            <gpxtpx:hr>79</gpxtpx:hr>
          </gpxtpx:TrackPointExtension>
        </extensions>
      </trkpt>
      <trkpt lat="43.54329" lon="1.4857">
        <ele>98.400001525879</ele>
        <time>2020-06-10T14:54:24.000Z</time>
        <extensions>
          <gpxtpx:TrackPointExtension xmlns:gpxtpx="http://www.garmin.com/xmlschemas/TrackPointExtension/v1">
            <gpxtpx:hr>76</gpxtpx:hr>
          </gpxtpx:TrackPointExtension>
        </extensions>
      </trkpt>
      <trkpt lat="43.54298" lon="1.48511">
        <ele>99</ele>
        <time>2020-06-10T14:54:40.000Z</time>
        <extensions>
          <gpxtpx:TrackPointExtension xmlns:gpxtpx="http://www.garmin.com/xmlschemas/TrackPointExtension/v1">
            <gpxtpx:hr>77</gpxtpx:hr>
          </gpxtpx:TrackPointExtension>
        </extensions>
      </trkpt>
      <trkpt lat="43.5427" lon="1.4846">
        <ele>99.400001525879</ele>
        <time>2020-06-10T14:54:53.000Z</time>
        <extensions>
          <gpxtpx:TrackPointExtension xmlns:gpxtpx="http://www.garmin.com/xmlschemas/TrackPointExtension/v1">
            <gpxtpx:hr>78</gpxtpx:hr>
          </gpxtpx:TrackPointExtension>
        </extensions>
      </trkpt>
      <trkpt lat="43.54242" lon="1.48406">
        <ele>100.40000152588</ele>
        <time>2020-06-10T14:55:07.000Z</time>
        <extensions>
          <gpxtpx:TrackPointExtension xmlns:gpxtpx="http://www.garmin.com/xmlschemas/TrackPointExtension/v1">
            <gpxtpx:hr>81</gpxtpx:hr>
          </gpxtpx:TrackPointExtension>
        </extensions>
      </trkpt>
      <trkpt lat="43.5424" lon="1.48402">
        <ele>100.59999847412</ele>
        <time>2020-06-10T14:55:08.000Z</time>
        <extensions>
          <gpxtpx:TrackPointExtension xmlns:gpxtpx="http://www.garmin.com/xmlschemas/TrackPointExtension/v1">
            <gpxtpx:hr>81</gpxtpx:hr>
          </gpxtpx:TrackPointExtension>
        </extensions>
      </trkpt>
      <trkpt lat="43.54233" lon="1.48388">
        <ele>101.59999847412</ele>
        <time>2020-06-10T14:55:12.000Z</time>
        <extensions>
          <gpxtpx:TrackPointExtension xmlns:gpxtpx="http://www.garmin.com/xmlschemas/TrackPointExtension/v1">
            <gpxtpx:hr>83</gpxtpx:hr>
          </gpxtpx:TrackPointExtension>
        </extensions>
      </trkpt>
      <trkpt lat="43.54219" lon="1.48357">
        <ele>102.40000152588</ele>
        <time>2020-06-10T14:55:20.000Z</time>
        <extensions>
          <gpxtpx:TrackPointExtension xmlns:gpxtpx="http://www.garmin.com/xmlschemas/TrackPointExtension/v1">
            <gpxtpx:hr>86</gpxtpx:hr>
          </gpxtpx:TrackPointExtension>
        </extensions>
      </trkpt>
      <trkpt lat="43.54212" lon="1.48341">
        <ele>102.59999847412</ele>
        <time>2020-06-10T14:55:24.000Z</time>
        <extensions>
          <gpxtpx:TrackPointExtension xmlns:gpxtpx="http://www.garmin.com/xmlschemas/TrackPointExtension/v1">
            <gpxtpx:hr>86</gpxtpx:hr>
          </gpxtpx:TrackPointExtension>
        </extensions>
      </trkpt>
      <trkpt lat="43.54195" lon="1.48291">
        <ele>103.59999847412</ele>
        <time>2020-06-10T14:55:38.000Z</time>
        <extensions>
          <gpxtpx:TrackPointExtension xmlns:gpxtpx="http://www.garmin.com/xmlschemas/TrackPointExtension/v1">
            <gpxtpx:hr>83</gpxtpx:hr>
          </gpxtpx:TrackPointExtension>
        </extensions>
      </trkpt>
      <trkpt lat="43.54195" lon="1.48288">
        <ele>103.80000305176</ele>
        <time>2020-06-10T14:55:39.000Z</time>
        <extensions>
          <gpxtpx:TrackPointExtension xmlns:gpxtpx="http://www.garmin.com/xmlschemas/TrackPointExtension/v1">
            <gpxtpx:hr>82</gpxtpx:hr>
          </gpxtpx:TrackPointExtension>
        </extensions>
      </trkpt>
      <trkpt lat="43.54189" lon="1.48276">
        <ele>104.40000152588</ele>
        <time>2020-06-10T14:55:46.000Z</time>
        <extensions>
          <gpxtpx:TrackPointExtension xmlns:gpxtpx="http://www.garmin.com/xmlschemas/TrackPointExtension/v1">
            <gpxtpx:hr>80</gpxtpx:hr>
          </gpxtpx:TrackPointExtension>
        </extensions>
      </trkpt>
      <trkpt lat="43.54185" lon="1.48273">
        <ele>104.80000305176</ele>
        <time>2020-06-10T14:55:49.000Z</time>
        <extensions>
          <gpxtpx:TrackPointExtension xmlns:gpxtpx="http://www.garmin.com/xmlschemas/TrackPointExtension/v1">
            <gpxtpx:hr>78</gpxtpx:hr>
          </gpxtpx:TrackPointExtension>
        </extensions>
      </trkpt>
      <trkpt lat="43.54182" lon="1.48271">
        <ele>105</ele>
        <time>2020-06-10T14:55:52.000Z</time>
        <extensions>
          <gpxtpx:TrackPointExtension xmlns:gpxtpx="http://www.garmin.com/xmlschemas/TrackPointExtension/v1">
            <gpxtpx:hr>77</gpxtpx:hr>
          </gpxtpx:TrackPointExtension>
        </extensions>
      </trkpt>
      <trkpt lat="43.54179" lon="1.48271">
        <ele>105.59999847412</ele>
        <time>2020-06-10T14:57:48.000Z</time>
        <extensions>
          <gpxtpx:TrackPointExtension xmlns:gpxtpx="http://www.garmin.com/xmlschemas/TrackPointExtension/v1">
            <gpxtpx:hr>62</gpxtpx:hr>
          </gpxtpx:TrackPointExtension>
        </extensions>
      </trkpt>
      <trkpt lat="43.54178" lon="1.48272">
        <ele>105.59999847412</ele>
        <time>2020-06-10T14:57:49.000Z</time>
        <extensions>
          <gpxtpx:TrackPointExtension xmlns:gpxtpx="http://www.garmin.com/xmlschemas/TrackPointExtension/v1">
            <gpxtpx:hr>63</gpxtpx:hr>
          </gpxtpx:TrackPointExtension>
        </extensions>
      </trkpt>
      <trkpt lat="43.54172" lon="1.48274">
        <ele>105.59999847412</ele>
        <time>2020-06-10T14:57:53.000Z</time>
        <extensions>
          <gpxtpx:TrackPointExtension xmlns:gpxtpx="http://www.garmin.com/xmlschemas/TrackPointExtension/v1">
            <gpxtpx:hr>66</gpxtpx:hr>
          </gpxtpx:TrackPointExtension>
        </extensions>
      </trkpt>
      <trkpt lat="43.54165" lon="1.48276">
        <ele>105.59999847412</ele>
        <time>2020-06-10T14:57:57.000Z</time>
        <extensions>
          <gpxtpx:TrackPointExtension xmlns:gpxtpx="http://www.garmin.com/xmlschemas/TrackPointExtension/v1">
            <gpxtpx:hr>69</gpxtpx:hr>
          </gpxtpx:TrackPointExtension>
        </extensions>
      </trkpt>
      <trkpt lat="43.54137" lon="1.48242">
        <ele>105.59999847412</ele>
        <time>2020-06-10T14:58:11.000Z</time>
        <extensions>
          <gpxtpx:TrackPointExtension xmlns:gpxtpx="http://www.garmin.com/xmlschemas/TrackPointExtension/v1">
            <gpxtpx:hr>72</gpxtpx:hr>
          </gpxtpx:TrackPointExtension>
        </extensions>
      </trkpt>
      <trkpt lat="43.54135" lon="1.48228">
        <ele>105.59999847412</ele>
        <time>2020-06-10T14:58:14.000Z</time>
        <extensions>
          <gpxtpx:TrackPointExtension xmlns:gpxtpx="http://www.garmin.com/xmlschemas/TrackPointExtension/v1">
            <gpxtpx:hr>75</gpxtpx:hr>
          </gpxtpx:TrackPointExtension>
        </extensions>
      </trkpt>
      <trkpt lat="43.5413" lon="1.48162">
        <ele>105.59999847412</ele>
        <time>2020-06-10T14:58:26.000Z</time>
        <extensions>
          <gpxtpx:TrackPointExtension xmlns:gpxtpx="http://www.garmin.com/xmlschemas/TrackPointExtension/v1">
            <gpxtpx:hr>78</gpxtpx:hr>
          </gpxtpx:TrackPointExtension>
        </extensions>
      </trkpt>
      <trkpt lat="43.54123" lon="1.48107">
        <ele>105.40000152588</ele>
        <time>2020-06-10T14:58:37.000Z</time>
        <extensions>
          <gpxtpx:TrackPointExtension xmlns:gpxtpx="http://www.garmin.com/xmlschemas/TrackPointExtension/v1">
            <gpxtpx:hr>81</gpxtpx:hr>
          </gpxtpx:TrackPointExtension>
        </extensions>
      </trkpt>
      <trkpt lat="43.54119" lon="1.48087">
        <ele>105.59999847412</ele>
        <time>2020-06-10T14:58:41.000Z</time>
        <extensions>
          <gpxtpx:TrackPointExtension xmlns:gpxtpx="http://www.garmin.com/xmlschemas/TrackPointExtension/v1">
            <gpxtpx:hr>84</gpxtpx:hr>
          </gpxtpx:TrackPointExtension>
        </extensions>
      </trkpt>
      <trkpt lat="43.54115" lon="1.48072">
        <ele>106</ele>
        <time>2020-06-10T14:58:44.000Z</time>
        <extensions>
          <gpxtpx:TrackPointExtension xmlns:gpxtpx="http://www.garmin.com/xmlschemas/TrackPointExtension/v1">
            <gpxtpx:hr>87</gpxtpx:hr>
          </gpxtpx:TrackPointExtension>
        </extensions>
      </trkpt>
      <trkpt lat="43.54109" lon="1.48053">
        <ele>106.59999847412</ele>
        <time>2020-06-10T14:58:48.000Z</time>
        <extensions>
          <gpxtpx:TrackPointExtension xmlns:gpxtpx="http://www.garmin.com/xmlschemas/TrackPointExtension/v1">
            <gpxtpx:hr>90</gpxtpx:hr>
          </gpxtpx:TrackPointExtension>
        </extensions>
      </trkpt>
      <trkpt lat="43.54106" lon="1.48045">
        <ele>107.19999694824</ele>
        <time>2020-06-10T14:58:50.000Z</time>
        <extensions>
          <gpxtpx:TrackPointExtension xmlns:gpxtpx="http://www.garmin.com/xmlschemas/TrackPointExtension/v1">
            <gpxtpx:hr>91</gpxtpx:hr>
          </gpxtpx:TrackPointExtension>
        </extensions>
      </trkpt>
      <trkpt lat="43.54098" lon="1.48027">
        <ele>108.40000152588</ele>
        <time>2020-06-10T14:58:54.000Z</time>
        <extensions>
          <gpxtpx:TrackPointExtension xmlns:gpxtpx="http://www.garmin.com/xmlschemas/TrackPointExtension/v1">
            <gpxtpx:hr>92</gpxtpx:hr>
          </gpxtpx:TrackPointExtension>
        </extensions>
      </trkpt>
      <trkpt lat="43.54087" lon="1.48003">
        <ele>109.40000152588</ele>
        <time>2020-06-10T14:59:01.000Z</time>
        <extensions>
          <gpxtpx:TrackPointExtension xmlns:gpxtpx="http://www.garmin.com/xmlschemas/TrackPointExtension/v1">
            <gpxtpx:hr>94</gpxtpx:hr>
          </gpxtpx:TrackPointExtension>
        </extensions>
      </trkpt>
      <trkpt lat="43.54075" lon="1.47979">
        <ele>110.40000152588</ele>
        <time>2020-06-10T14:59:08.000Z</time>
        <extensions>
          <gpxtpx:TrackPointExtension xmlns:gpxtpx="http://www.garmin.com/xmlschemas/TrackPointExtension/v1">
            <gpxtpx:hr>93</gpxtpx:hr>
          </gpxtpx:TrackPointExtension>
        </extensions>
      </trkpt>
      <trkpt lat="43.54066" lon="1.47956">
        <ele>111.19999694824</ele>
        <time>2020-06-10T14:59:17.000Z</time>
        <extensions>
          <gpxtpx:TrackPointExtension xmlns:gpxtpx="http://www.garmin.com/xmlschemas/TrackPointExtension/v1">
            <gpxtpx:hr>90</gpxtpx:hr>
          </gpxtpx:TrackPointExtension>
        </extensions>
      </trkpt>
      <trkpt lat="43.54063" lon="1.4795">
        <ele>111.59999847412</ele>
        <time>2020-06-10T14:59:20.000Z</time>
        <extensions>
          <gpxtpx:TrackPointExtension xmlns:gpxtpx="http://www.garmin.com/xmlschemas/TrackPointExtension/v1">
            <gpxtpx:hr>89</gpxtpx:hr>
          </gpxtpx:TrackPointExtension>
        </extensions>
      </trkpt>
      <trkpt lat="43.54058" lon="1.47941">
        <ele>111.80000305176</ele>
        <time>2020-06-10T14:59:25.000Z</time>
        <extensions>
          <gpxtpx:TrackPointExtension xmlns:gpxtpx="http://www.garmin.com/xmlschemas/TrackPointExtension/v1">
            <gpxtpx:hr>86</gpxtpx:hr>
          </gpxtpx:TrackPointExtension>
        </extensions>
      </trkpt>
      <trkpt lat="43.54054" lon="1.47933">
        <ele>112</ele>
        <time>2020-06-10T14:59:31.000Z</time>
        <extensions>
          <gpxtpx:TrackPointExtension xmlns:gpxtpx="http://www.garmin.com/xmlschemas/TrackPointExtension/v1">
            <gpxtpx:hr>85</gpxtpx:hr>
          </gpxtpx:TrackPointExtension>
        </extensions>
      </trkpt>
      <trkpt lat="43.54053" lon="1.4793">
        <ele>112.40000152588</ele>
        <time>2020-06-10T14:59:34.000Z</time>
        <extensions>
          <gpxtpx:TrackPointExtension xmlns:gpxtpx="http://www.garmin.com/xmlschemas/TrackPointExtension/v1">
            <gpxtpx:hr>84</gpxtpx:hr>
          </gpxtpx:TrackPointExtension>
        </extensions>
      </trkpt>
      <trkpt lat="43.54051" lon="1.47926">
        <ele>112.59999847412</ele>
        <time>2020-06-10T14:59:37.000Z</time>
        <extensions>
          <gpxtpx:TrackPointExtension xmlns:gpxtpx="http://www.garmin.com/xmlschemas/TrackPointExtension/v1">
            <gpxtpx:hr>84</gpxtpx:hr>
          </gpxtpx:TrackPointExtension>
        </extensions>
      </trkpt>
      <trkpt lat="43.54051" lon="1.47925">
        <ele>112.59999847412</ele>
        <time>2020-06-10T14:59:38.000Z</time>
        <extensions>
          <gpxtpx:TrackPointExtension xmlns:gpxtpx="http://www.garmin.com/xmlschemas/TrackPointExtension/v1">
            <gpxtpx:hr>84</gpxtpx:hr>
          </gpxtpx:TrackPointExtension>
        </extensions>
      </trkpt>
      <trkpt lat="43.54051" lon="1.47924">
        <ele>112.59999847412</ele>
        <time>2020-06-10T14:59:39.000Z</time>
        <extensions>
          <gpxtpx:TrackPointExtension xmlns:gpxtpx="http://www.garmin.com/xmlschemas/TrackPointExtension/v1">
            <gpxtpx:hr>83</gpxtpx:hr>
          </gpxtpx:TrackPointExtension>
        </extensions>
      </trkpt>
      <trkpt lat="43.5405" lon="1.47919">
        <ele>113</ele>
        <time>2020-06-10T15:00:17.000Z</time>
        <extensions>
          <gpxtpx:TrackPointExtension xmlns:gpxtpx="http://www.garmin.com/xmlschemas/TrackPointExtension/v1">
            <gpxtpx:hr>68</gpxtpx:hr>
          </gpxtpx:TrackPointExtension>
        </extensions>
      </trkpt>
      <trkpt lat="43.54049" lon="1.47917">
        <ele>113</ele>
        <time>2020-06-10T15:00:18.000Z</time>
        <extensions>
          <gpxtpx:TrackPointExtension xmlns:gpxtpx="http://www.garmin.com/xmlschemas/TrackPointExtension/v1">
            <gpxtpx:hr>69</gpxtpx:hr>
          </gpxtpx:TrackPointExtension>
        </extensions>
      </trkpt>
      <trkpt lat="43.54047" lon="1.47912">
        <ele>113</ele>
        <time>2020-06-10T15:00:20.000Z</time>
        <extensions>
          <gpxtpx:TrackPointExtension xmlns:gpxtpx="http://www.garmin.com/xmlschemas/TrackPointExtension/v1">
            <gpxtpx:hr>72</gpxtpx:hr>
          </gpxtpx:TrackPointExtension>
        </extensions>
      </trkpt>
      <trkpt lat="43.54045" lon="1.47908">
        <ele>113</ele>
        <time>2020-06-10T15:00:21.000Z</time>
        <extensions>
          <gpxtpx:TrackPointExtension xmlns:gpxtpx="http://www.garmin.com/xmlschemas/TrackPointExtension/v1">
            <gpxtpx:hr>75</gpxtpx:hr>
          </gpxtpx:TrackPointExtension>
        </extensions>
      </trkpt>
      <trkpt lat="43.5404" lon="1.47902">
        <ele>113</ele>
        <time>2020-06-10T15:00:23.000Z</time>
        <extensions>
          <gpxtpx:TrackPointExtension xmlns:gpxtpx="http://www.garmin.com/xmlschemas/TrackPointExtension/v1">
            <gpxtpx:hr>78</gpxtpx:hr>
          </gpxtpx:TrackPointExtension>
        </extensions>
      </trkpt>
      <trkpt lat="43.54032" lon="1.47893">
        <ele>113.19999694824</ele>
        <time>2020-06-10T15:00:26.000Z</time>
        <extensions>
          <gpxtpx:TrackPointExtension xmlns:gpxtpx="http://www.garmin.com/xmlschemas/TrackPointExtension/v1">
            <gpxtpx:hr>82</gpxtpx:hr>
          </gpxtpx:TrackPointExtension>
        </extensions>
      </trkpt>
      <trkpt lat="43.54012" lon="1.47866">
        <ele>113.59999847412</ele>
        <time>2020-06-10T15:00:34.000Z</time>
        <extensions>
          <gpxtpx:TrackPointExtension xmlns:gpxtpx="http://www.garmin.com/xmlschemas/TrackPointExtension/v1">
            <gpxtpx:hr>84</gpxtpx:hr>
          </gpxtpx:TrackPointExtension>
        </extensions>
      </trkpt>
      <trkpt lat="43.53989" lon="1.47838">
        <ele>114.59999847412</ele>
        <time>2020-06-10T15:00:42.000Z</time>
        <extensions>
          <gpxtpx:TrackPointExtension xmlns:gpxtpx="http://www.garmin.com/xmlschemas/TrackPointExtension/v1">
            <gpxtpx:hr>86</gpxtpx:hr>
          </gpxtpx:TrackPointExtension>
        </extensions>
      </trkpt>
      <trkpt lat="43.53975" lon="1.47818">
        <ele>115.40000152588</ele>
        <time>2020-06-10T15:00:48.000Z</time>
        <extensions>
          <gpxtpx:TrackPointExtension xmlns:gpxtpx="http://www.garmin.com/xmlschemas/TrackPointExtension/v1">
            <gpxtpx:hr>89</gpxtpx:hr>
          </gpxtpx:TrackPointExtension>
        </extensions>
      </trkpt>
      <trkpt lat="43.53965" lon="1.47805">
        <ele>116</ele>
        <time>2020-06-10T15:00:52.000Z</time>
        <extensions>
          <gpxtpx:TrackPointExtension xmlns:gpxtpx="http://www.garmin.com/xmlschemas/TrackPointExtension/v1">
            <gpxtpx:hr>91</gpxtpx:hr>
          </gpxtpx:TrackPointExtension>
        </extensions>
      </trkpt>
      <trkpt lat="43.53951" lon="1.4779">
        <ele>116.59999847412</ele>
        <time>2020-06-10T15:00:57.000Z</time>
        <extensions>
          <gpxtpx:TrackPointExtension xmlns:gpxtpx="http://www.garmin.com/xmlschemas/TrackPointExtension/v1">
            <gpxtpx:hr>94</gpxtpx:hr>
          </gpxtpx:TrackPointExtension>
        </extensions>
      </trkpt>
      <trkpt lat="43.53937" lon="1.47772">
        <ele>117.19999694824</ele>
        <time>2020-06-10T15:01:02.000Z</time>
        <extensions>
          <gpxtpx:TrackPointExtension xmlns:gpxtpx="http://www.garmin.com/xmlschemas/TrackPointExtension/v1">
            <gpxtpx:hr>96</gpxtpx:hr>
          </gpxtpx:TrackPointExtension>
        </extensions>
      </trkpt>
      <trkpt lat="43.53924" lon="1.47753">
        <ele>117.80000305176</ele>
        <time>2020-06-10T15:01:07.000Z</time>
        <extensions>
          <gpxtpx:TrackPointExtension xmlns:gpxtpx="http://www.garmin.com/xmlschemas/TrackPointExtension/v1">
            <gpxtpx:hr>99</gpxtpx:hr>
          </gpxtpx:TrackPointExtension>
        </extensions>
      </trkpt>
      <trkpt lat="43.53918" lon="1.47744">
        <ele>118.19999694824</ele>
        <time>2020-06-10T15:01:09.000Z</time>
        <extensions>
          <gpxtpx:TrackPointExtension xmlns:gpxtpx="http://www.garmin.com/xmlschemas/TrackPointExtension/v1">
            <gpxtpx:hr>99</gpxtpx:hr>
          </gpxtpx:TrackPointExtension>
        </extensions>
      </trkpt>
      <trkpt lat="43.53897" lon="1.47709">
        <ele>119.40000152588</ele>
        <time>2020-06-10T15:01:18.000Z</time>
        <extensions>
          <gpxtpx:TrackPointExtension xmlns:gpxtpx="http://www.garmin.com/xmlschemas/TrackPointExtension/v1">
            <gpxtpx:hr>100</gpxtpx:hr>
          </gpxtpx:TrackPointExtension>
        </extensions>
      </trkpt>
      <trkpt lat="43.53892" lon="1.47702">
        <ele>119.59999847412</ele>
        <time>2020-06-10T15:01:20.000Z</time>
        <extensions>
          <gpxtpx:TrackPointExtension xmlns:gpxtpx="http://www.garmin.com/xmlschemas/TrackPointExtension/v1">
            <gpxtpx:hr>100</gpxtpx:hr>
          </gpxtpx:TrackPointExtension>
        </extensions>
      </trkpt>
      <trkpt lat="43.53886" lon="1.4769">
        <ele>120</ele>
        <time>2020-06-10T15:01:23.000Z</time>
        <extensions>
          <gpxtpx:TrackPointExtension xmlns:gpxtpx="http://www.garmin.com/xmlschemas/TrackPointExtension/v1">
            <gpxtpx:hr>99</gpxtpx:hr>
          </gpxtpx:TrackPointExtension>
        </extensions>
      </trkpt>
      <trkpt lat="43.5388" lon="1.47676">
        <ele>120.40000152588</ele>
        <time>2020-06-10T15:01:26.000Z</time>
        <extensions>
          <gpxtpx:TrackPointExtension xmlns:gpxtpx="http://www.garmin.com/xmlschemas/TrackPointExtension/v1">
            <gpxtpx:hr>100</gpxtpx:hr>
          </gpxtpx:TrackPointExtension>
        </extensions>
      </trkpt>
      <trkpt lat="43.53869" lon="1.4765">
        <ele>121.80000305176</ele>
        <time>2020-06-10T15:01:32.000Z</time>
        <extensions>
          <gpxtpx:TrackPointExtension xmlns:gpxtpx="http://www.garmin.com/xmlschemas/TrackPointExtension/v1">
            <gpxtpx:hr>100</gpxtpx:hr>
          </gpxtpx:TrackPointExtension>
        </extensions>
      </trkpt>
      <trkpt lat="43.53867" lon="1.47646">
        <ele>121.80000305176</ele>
        <time>2020-06-10T15:01:33.000Z</time>
        <extensions>
          <gpxtpx:TrackPointExtension xmlns:gpxtpx="http://www.garmin.com/xmlschemas/TrackPointExtension/v1">
            <gpxtpx:hr>101</gpxtpx:hr>
          </gpxtpx:TrackPointExtension>
        </extensions>
      </trkpt>
      <trkpt lat="43.53859" lon="1.47625">
        <ele>122.19999694824</ele>
        <time>2020-06-10T15:01:38.000Z</time>
        <extensions>
          <gpxtpx:TrackPointExtension xmlns:gpxtpx="http://www.garmin.com/xmlschemas/TrackPointExtension/v1">
            <gpxtpx:hr>101</gpxtpx:hr>
          </gpxtpx:TrackPointExtension>
        </extensions>
      </trkpt>
      <trkpt lat="43.53852" lon="1.47602">
        <ele>123</ele>
        <time>2020-06-10T15:01:43.000Z</time>
        <extensions>
          <gpxtpx:TrackPointExtension xmlns:gpxtpx="http://www.garmin.com/xmlschemas/TrackPointExtension/v1">
            <gpxtpx:hr>101</gpxtpx:hr>
          </gpxtpx:TrackPointExtension>
        </extensions>
      </trkpt>
      <trkpt lat="43.53842" lon="1.47565">
        <ele>124</ele>
        <time>2020-06-10T15:01:51.000Z</time>
        <extensions>
          <gpxtpx:TrackPointExtension xmlns:gpxtpx="http://www.garmin.com/xmlschemas/TrackPointExtension/v1">
            <gpxtpx:hr>101</gpxtpx:hr>
          </gpxtpx:TrackPointExtension>
        </extensions>
      </trkpt>
      <trkpt lat="43.53828" lon="1.47524">
        <ele>125.19999694824</ele>
        <time>2020-06-10T15:02:00.000Z</time>
        <extensions>
          <gpxtpx:TrackPointExtension xmlns:gpxtpx="http://www.garmin.com/xmlschemas/TrackPointExtension/v1">
            <gpxtpx:hr>100</gpxtpx:hr>
          </gpxtpx:TrackPointExtension>
        </extensions>
      </trkpt>
      <trkpt lat="43.53821" lon="1.47501">
        <ele>126.19999694824</ele>
        <time>2020-06-10T15:02:06.000Z</time>
        <extensions>
          <gpxtpx:TrackPointExtension xmlns:gpxtpx="http://www.garmin.com/xmlschemas/TrackPointExtension/v1">
            <gpxtpx:hr>98</gpxtpx:hr>
          </gpxtpx:TrackPointExtension>
        </extensions>
      </trkpt>
      <trkpt lat="43.53811" lon="1.47467">
        <ele>127.59999847412</ele>
        <time>2020-06-10T15:02:14.000Z</time>
        <extensions>
          <gpxtpx:TrackPointExtension xmlns:gpxtpx="http://www.garmin.com/xmlschemas/TrackPointExtension/v1">
            <gpxtpx:hr>98</gpxtpx:hr>
          </gpxtpx:TrackPointExtension>
        </extensions>
      </trkpt>
      <trkpt lat="43.53805" lon="1.47434">
        <ele>128.60000610352</ele>
        <time>2020-06-10T15:02:19.000Z</time>
        <extensions>
          <gpxtpx:TrackPointExtension xmlns:gpxtpx="http://www.garmin.com/xmlschemas/TrackPointExtension/v1">
            <gpxtpx:hr>101</gpxtpx:hr>
          </gpxtpx:TrackPointExtension>
        </extensions>
      </trkpt>
      <trkpt lat="43.53803" lon="1.47423">
        <ele>128.80000305176</ele>
        <time>2020-06-10T15:02:21.000Z</time>
        <extensions>
          <gpxtpx:TrackPointExtension xmlns:gpxtpx="http://www.garmin.com/xmlschemas/TrackPointExtension/v1">
            <gpxtpx:hr>102</gpxtpx:hr>
          </gpxtpx:TrackPointExtension>
        </extensions>
      </trkpt>
      <trkpt lat="43.538" lon="1.47403">
        <ele>129.19999694824</ele>
        <time>2020-06-10T15:02:25.000Z</time>
        <extensions>
          <gpxtpx:TrackPointExtension xmlns:gpxtpx="http://www.garmin.com/xmlschemas/TrackPointExtension/v1">
            <gpxtpx:hr>105</gpxtpx:hr>
          </gpxtpx:TrackPointExtension>
        </extensions>
      </trkpt>
      <trkpt lat="43.53792" lon="1.47375">
        <ele>130</ele>
        <time>2020-06-10T15:02:30.000Z</time>
        <extensions>
          <gpxtpx:TrackPointExtension xmlns:gpxtpx="http://www.garmin.com/xmlschemas/TrackPointExtension/v1">
            <gpxtpx:hr>108</gpxtpx:hr>
          </gpxtpx:TrackPointExtension>
        </extensions>
      </trkpt>
      <trkpt lat="43.53792" lon="1.4737">
        <ele>130</ele>
        <time>2020-06-10T15:02:31.000Z</time>
        <extensions>
          <gpxtpx:TrackPointExtension xmlns:gpxtpx="http://www.garmin.com/xmlschemas/TrackPointExtension/v1">
            <gpxtpx:hr>108</gpxtpx:hr>
          </gpxtpx:TrackPointExtension>
        </extensions>
      </trkpt>
      <trkpt lat="43.53787" lon="1.47342">
        <ele>131</ele>
        <time>2020-06-10T15:02:37.000Z</time>
        <extensions>
          <gpxtpx:TrackPointExtension xmlns:gpxtpx="http://www.garmin.com/xmlschemas/TrackPointExtension/v1">
            <gpxtpx:hr>110</gpxtpx:hr>
          </gpxtpx:TrackPointExtension>
        </extensions>
      </trkpt>
      <trkpt lat="43.53783" lon="1.47328">
        <ele>132.39999389648</ele>
        <time>2020-06-10T15:02:41.000Z</time>
        <extensions>
          <gpxtpx:TrackPointExtension xmlns:gpxtpx="http://www.garmin.com/xmlschemas/TrackPointExtension/v1">
            <gpxtpx:hr>109</gpxtpx:hr>
          </gpxtpx:TrackPointExtension>
        </extensions>
      </trkpt>
      <trkpt lat="43.53773" lon="1.47307">
        <ele>133.60000610352</ele>
        <time>2020-06-10T15:02:47.000Z</time>
        <extensions>
          <gpxtpx:TrackPointExtension xmlns:gpxtpx="http://www.garmin.com/xmlschemas/TrackPointExtension/v1">
            <gpxtpx:hr>109</gpxtpx:hr>
          </gpxtpx:TrackPointExtension>
        </extensions>
      </trkpt>
      <trkpt lat="43.53759" lon="1.47294">
        <ele>134.60000610352</ele>
        <time>2020-06-10T15:02:53.000Z</time>
        <extensions>
          <gpxtpx:TrackPointExtension xmlns:gpxtpx="http://www.garmin.com/xmlschemas/TrackPointExtension/v1">
            <gpxtpx:hr>109</gpxtpx:hr>
          </gpxtpx:TrackPointExtension>
        </extensions>
      </trkpt>
      <trkpt lat="43.53737" lon="1.4727">
        <ele>136</ele>
        <time>2020-06-10T15:03:00.000Z</time>
        <extensions>
          <gpxtpx:TrackPointExtension xmlns:gpxtpx="http://www.garmin.com/xmlschemas/TrackPointExtension/v1">
            <gpxtpx:hr>109</gpxtpx:hr>
          </gpxtpx:TrackPointExtension>
        </extensions>
      </trkpt>
      <trkpt lat="43.53722" lon="1.47216">
        <ele>137.19999694824</ele>
        <time>2020-06-10T15:03:13.000Z</time>
        <extensions>
          <gpxtpx:TrackPointExtension xmlns:gpxtpx="http://www.garmin.com/xmlschemas/TrackPointExtension/v1">
            <gpxtpx:hr>107</gpxtpx:hr>
          </gpxtpx:TrackPointExtension>
        </extensions>
      </trkpt>
      <trkpt lat="43.53723" lon="1.47152">
        <ele>138.19999694824</ele>
        <time>2020-06-10T15:03:27.000Z</time>
        <extensions>
          <gpxtpx:TrackPointExtension xmlns:gpxtpx="http://www.garmin.com/xmlschemas/TrackPointExtension/v1">
            <gpxtpx:hr>106</gpxtpx:hr>
          </gpxtpx:TrackPointExtension>
        </extensions>
      </trkpt>
      <trkpt lat="43.53725" lon="1.47126">
        <ele>139.39999389648</ele>
        <time>2020-06-10T15:03:33.000Z</time>
        <extensions>
          <gpxtpx:TrackPointExtension xmlns:gpxtpx="http://www.garmin.com/xmlschemas/TrackPointExtension/v1">
            <gpxtpx:hr>107</gpxtpx:hr>
          </gpxtpx:TrackPointExtension>
        </extensions>
      </trkpt>
      <trkpt lat="43.53727" lon="1.471">
        <ele>140.39999389648</ele>
        <time>2020-06-10T15:03:39.000Z</time>
        <extensions>
          <gpxtpx:TrackPointExtension xmlns:gpxtpx="http://www.garmin.com/xmlschemas/TrackPointExtension/v1">
            <gpxtpx:hr>107</gpxtpx:hr>
          </gpxtpx:TrackPointExtension>
        </extensions>
      </trkpt>
      <trkpt lat="43.53732" lon="1.47081">
        <ele>141.60000610352</ele>
        <time>2020-06-10T15:03:45.000Z</time>
        <extensions>
          <gpxtpx:TrackPointExtension xmlns:gpxtpx="http://www.garmin.com/xmlschemas/TrackPointExtension/v1">
            <gpxtpx:hr>108</gpxtpx:hr>
          </gpxtpx:TrackPointExtension>
        </extensions>
      </trkpt>
      <trkpt lat="43.53735" lon="1.47068">
        <ele>142.80000305176</ele>
        <time>2020-06-10T15:03:49.000Z</time>
        <extensions>
          <gpxtpx:TrackPointExtension xmlns:gpxtpx="http://www.garmin.com/xmlschemas/TrackPointExtension/v1">
            <gpxtpx:hr>109</gpxtpx:hr>
          </gpxtpx:TrackPointExtension>
        </extensions>
      </trkpt>
      <trkpt lat="43.5374" lon="1.47055">
        <ele>144</ele>
        <time>2020-06-10T15:03:53.000Z</time>
        <extensions>
          <gpxtpx:TrackPointExtension xmlns:gpxtpx="http://www.garmin.com/xmlschemas/TrackPointExtension/v1">
            <gpxtpx:hr>112</gpxtpx:hr>
          </gpxtpx:TrackPointExtension>
        </extensions>
      </trkpt>
      <trkpt lat="43.53742" lon="1.47029">
        <ele>145</ele>
        <time>2020-06-10T15:03:58.000Z</time>
        <extensions>
          <gpxtpx:TrackPointExtension xmlns:gpxtpx="http://www.garmin.com/xmlschemas/TrackPointExtension/v1">
            <gpxtpx:hr>114</gpxtpx:hr>
          </gpxtpx:TrackPointExtension>
        </extensions>
      </trkpt>
      <trkpt lat="43.53735" lon="1.47002">
        <ele>146.39999389648</ele>
        <time>2020-06-10T15:04:03.000Z</time>
        <extensions>
          <gpxtpx:TrackPointExtension xmlns:gpxtpx="http://www.garmin.com/xmlschemas/TrackPointExtension/v1">
            <gpxtpx:hr>117</gpxtpx:hr>
          </gpxtpx:TrackPointExtension>
        </extensions>
      </trkpt>
      <trkpt lat="43.53724" lon="1.46984">
        <ele>147.39999389648</ele>
        <time>2020-06-10T15:04:08.000Z</time>
        <extensions>
          <gpxtpx:TrackPointExtension xmlns:gpxtpx="http://www.garmin.com/xmlschemas/TrackPointExtension/v1">
            <gpxtpx:hr>117</gpxtpx:hr>
          </gpxtpx:TrackPointExtension>
        </extensions>
      </trkpt>
      <trkpt lat="43.53715" lon="1.46975">
        <ele>147.60000610352</ele>
        <time>2020-06-10T15:04:11.000Z</time>
        <extensions>
          <gpxtpx:TrackPointExtension xmlns:gpxtpx="http://www.garmin.com/xmlschemas/TrackPointExtension/v1">
            <gpxtpx:hr>117</gpxtpx:hr>
          </gpxtpx:TrackPointExtension>
        </extensions>
      </trkpt>
      <trkpt lat="43.53684" lon="1.4696">
        <ele>148</ele>
        <time>2020-06-10T15:04:19.000Z</time>
        <extensions>
          <gpxtpx:TrackPointExtension xmlns:gpxtpx="http://www.garmin.com/xmlschemas/TrackPointExtension/v1">
            <gpxtpx:hr>114</gpxtpx:hr>
          </gpxtpx:TrackPointExtension>
        </extensions>
      </trkpt>
      <trkpt lat="43.53653" lon="1.46938">
        <ele>148.80000305176</ele>
        <time>2020-06-10T15:04:28.000Z</time>
        <extensions>
          <gpxtpx:TrackPointExtension xmlns:gpxtpx="http://www.garmin.com/xmlschemas/TrackPointExtension/v1">
            <gpxtpx:hr>111</gpxtpx:hr>
          </gpxtpx:TrackPointExtension>
        </extensions>
      </trkpt>
      <trkpt lat="43.5365" lon="1.46934">
        <ele>148.80000305176</ele>
        <time>2020-06-10T15:04:29.000Z</time>
        <extensions>
          <gpxtpx:TrackPointExtension xmlns:gpxtpx="http://www.garmin.com/xmlschemas/TrackPointExtension/v1">
            <gpxtpx:hr>111</gpxtpx:hr>
          </gpxtpx:TrackPointExtension>
        </extensions>
      </trkpt>
      <trkpt lat="43.53649" lon="1.46902">
        <ele>149.39999389648</ele>
        <time>2020-06-10T15:04:36.000Z</time>
        <extensions>
          <gpxtpx:TrackPointExtension xmlns:gpxtpx="http://www.garmin.com/xmlschemas/TrackPointExtension/v1">
            <gpxtpx:hr>108</gpxtpx:hr>
          </gpxtpx:TrackPointExtension>
        </extensions>
      </trkpt>
      <trkpt lat="43.53663" lon="1.46874">
        <ele>150</ele>
        <time>2020-06-10T15:04:44.000Z</time>
        <extensions>
          <gpxtpx:TrackPointExtension xmlns:gpxtpx="http://www.garmin.com/xmlschemas/TrackPointExtension/v1">
            <gpxtpx:hr>108</gpxtpx:hr>
          </gpxtpx:TrackPointExtension>
        </extensions>
      </trkpt>
      <trkpt lat="43.53693" lon="1.46813">
        <ele>151</ele>
        <time>2020-06-10T15:04:58.000Z</time>
        <extensions>
          <gpxtpx:TrackPointExtension xmlns:gpxtpx="http://www.garmin.com/xmlschemas/TrackPointExtension/v1">
            <gpxtpx:hr>109</gpxtpx:hr>
          </gpxtpx:TrackPointExtension>
        </extensions>
      </trkpt>
      <trkpt lat="43.53706" lon="1.46789">
        <ele>151.39999389648</ele>
        <time>2020-06-10T15:05:05.000Z</time>
        <extensions>
          <gpxtpx:TrackPointExtension xmlns:gpxtpx="http://www.garmin.com/xmlschemas/TrackPointExtension/v1">
            <gpxtpx:hr>106</gpxtpx:hr>
          </gpxtpx:TrackPointExtension>
        </extensions>
      </trkpt>
      <trkpt lat="43.53715" lon="1.46771">
        <ele>152.39999389648</ele>
        <time>2020-06-10T15:05:10.000Z</time>
        <extensions>
          <gpxtpx:TrackPointExtension xmlns:gpxtpx="http://www.garmin.com/xmlschemas/TrackPointExtension/v1">
            <gpxtpx:hr>104</gpxtpx:hr>
          </gpxtpx:TrackPointExtension>
        </extensions>
      </trkpt>
      <trkpt lat="43.53718" lon="1.46763">
        <ele>152.60000610352</ele>
        <time>2020-06-10T15:05:12.000Z</time>
        <extensions>
          <gpxtpx:TrackPointExtension xmlns:gpxtpx="http://www.garmin.com/xmlschemas/TrackPointExtension/v1">
            <gpxtpx:hr>101</gpxtpx:hr>
          </gpxtpx:TrackPointExtension>
        </extensions>
      </trkpt>
      <trkpt lat="43.53734" lon="1.46734">
        <ele>153</ele>
        <time>2020-06-10T15:05:20.000Z</time>
        <extensions>
          <gpxtpx:TrackPointExtension xmlns:gpxtpx="http://www.garmin.com/xmlschemas/TrackPointExtension/v1">
            <gpxtpx:hr>98</gpxtpx:hr>
          </gpxtpx:TrackPointExtension>
        </extensions>
      </trkpt>
      <trkpt lat="43.53741" lon="1.46724">
        <ele>153</ele>
        <time>2020-06-10T15:05:24.000Z</time>
        <extensions>
          <gpxtpx:TrackPointExtension xmlns:gpxtpx="http://www.garmin.com/xmlschemas/TrackPointExtension/v1">
            <gpxtpx:hr>95</gpxtpx:hr>
          </gpxtpx:TrackPointExtension>
        </extensions>
      </trkpt>
      <trkpt lat="43.53747" lon="1.46717">
        <ele>153.60000610352</ele>
        <time>2020-06-10T15:05:27.000Z</time>
        <extensions>
          <gpxtpx:TrackPointExtension xmlns:gpxtpx="http://www.garmin.com/xmlschemas/TrackPointExtension/v1">
            <gpxtpx:hr>95</gpxtpx:hr>
          </gpxtpx:TrackPointExtension>
        </extensions>
      </trkpt>
      <trkpt lat="43.53757" lon="1.46703">
        <ele>154</ele>
        <time>2020-06-10T15:05:32.000Z</time>
        <extensions>
          <gpxtpx:TrackPointExtension xmlns:gpxtpx="http://www.garmin.com/xmlschemas/TrackPointExtension/v1">
            <gpxtpx:hr>92</gpxtpx:hr>
          </gpxtpx:TrackPointExtension>
        </extensions>
      </trkpt>
      <trkpt lat="43.53769" lon="1.4669">
        <ele>154.80000305176</ele>
        <time>2020-06-10T15:05:37.000Z</time>
        <extensions>
          <gpxtpx:TrackPointExtension xmlns:gpxtpx="http://www.garmin.com/xmlschemas/TrackPointExtension/v1">
            <gpxtpx:hr>93</gpxtpx:hr>
          </gpxtpx:TrackPointExtension>
        </extensions>
      </trkpt>
      <trkpt lat="43.53793" lon="1.46658">
        <ele>155.80000305176</ele>
        <time>2020-06-10T15:05:48.000Z</time>
        <extensions>
          <gpxtpx:TrackPointExtension xmlns:gpxtpx="http://www.garmin.com/xmlschemas/TrackPointExtension/v1">
            <gpxtpx:hr>96</gpxtpx:hr>
          </gpxtpx:TrackPointExtension>
        </extensions>
      </trkpt>
      <trkpt lat="43.538" lon="1.46647">
        <ele>156</ele>
        <time>2020-06-10T15:05:51.000Z</time>
        <extensions>
          <gpxtpx:TrackPointExtension xmlns:gpxtpx="http://www.garmin.com/xmlschemas/TrackPointExtension/v1">
            <gpxtpx:hr>97</gpxtpx:hr>
          </gpxtpx:TrackPointExtension>
        </extensions>
      </trkpt>
      <trkpt lat="43.53823" lon="1.46614">
        <ele>157</ele>
        <time>2020-06-10T15:06:01.000Z</time>
        <extensions>
          <gpxtpx:TrackPointExtension xmlns:gpxtpx="http://www.garmin.com/xmlschemas/TrackPointExtension/v1">
            <gpxtpx:hr>97</gpxtpx:hr>
          </gpxtpx:TrackPointExtension>
        </extensions>
      </trkpt>
      <trkpt lat="43.53837" lon="1.46592">
        <ele>158</ele>
        <time>2020-06-10T15:06:07.000Z</time>
        <extensions>
          <gpxtpx:TrackPointExtension xmlns:gpxtpx="http://www.garmin.com/xmlschemas/TrackPointExtension/v1">
            <gpxtpx:hr>98</gpxtpx:hr>
          </gpxtpx:TrackPointExtension>
        </extensions>
      </trkpt>
      <trkpt lat="43.53869" lon="1.46543">
        <ele>159.19999694824</ele>
        <time>2020-06-10T15:06:21.000Z</time>
        <extensions>
          <gpxtpx:TrackPointExtension xmlns:gpxtpx="http://www.garmin.com/xmlschemas/TrackPointExtension/v1">
            <gpxtpx:hr>100</gpxtpx:hr>
          </gpxtpx:TrackPointExtension>
        </extensions>
      </trkpt>
      <trkpt lat="43.53879" lon="1.46518">
        <ele>160.19999694824</ele>
        <time>2020-06-10T15:06:27.000Z</time>
        <extensions>
          <gpxtpx:TrackPointExtension xmlns:gpxtpx="http://www.garmin.com/xmlschemas/TrackPointExtension/v1">
            <gpxtpx:hr>101</gpxtpx:hr>
          </gpxtpx:TrackPointExtension>
        </extensions>
      </trkpt>
      <trkpt lat="43.539" lon="1.46483">
        <ele>161.19999694824</ele>
        <time>2020-06-10T15:06:36.000Z</time>
        <extensions>
          <gpxtpx:TrackPointExtension xmlns:gpxtpx="http://www.garmin.com/xmlschemas/TrackPointExtension/v1">
            <gpxtpx:hr>103</gpxtpx:hr>
          </gpxtpx:TrackPointExtension>
        </extensions>
      </trkpt>
      <trkpt lat="43.53924" lon="1.46444">
        <ele>162.39999389648</ele>
        <time>2020-06-10T15:06:46.000Z</time>
        <extensions>
          <gpxtpx:TrackPointExtension xmlns:gpxtpx="http://www.garmin.com/xmlschemas/TrackPointExtension/v1">
            <gpxtpx:hr>102</gpxtpx:hr>
          </gpxtpx:TrackPointExtension>
        </extensions>
      </trkpt>
      <trkpt lat="43.53945" lon="1.46406">
        <ele>163.39999389648</ele>
        <time>2020-06-10T15:06:55.000Z</time>
        <extensions>
          <gpxtpx:TrackPointExtension xmlns:gpxtpx="http://www.garmin.com/xmlschemas/TrackPointExtension/v1">
            <gpxtpx:hr>104</gpxtpx:hr>
          </gpxtpx:TrackPointExtension>
        </extensions>
      </trkpt>
      <trkpt lat="43.53976" lon="1.46364">
        <ele>164.80000305176</ele>
        <time>2020-06-10T15:07:08.000Z</time>
        <extensions>
          <gpxtpx:TrackPointExtension xmlns:gpxtpx="http://www.garmin.com/xmlschemas/TrackPointExtension/v1">
            <gpxtpx:hr>102</gpxtpx:hr>
          </gpxtpx:TrackPointExtension>
        </extensions>
      </trkpt>
      <trkpt lat="43.53999" lon="1.4633">
        <ele>165.80000305176</ele>
        <time>2020-06-10T15:07:19.000Z</time>
        <extensions>
          <gpxtpx:TrackPointExtension xmlns:gpxtpx="http://www.garmin.com/xmlschemas/TrackPointExtension/v1">
            <gpxtpx:hr>100</gpxtpx:hr>
          </gpxtpx:TrackPointExtension>
        </extensions>
      </trkpt>
      <trkpt lat="43.54024" lon="1.463">
        <ele>167</ele>
        <time>2020-06-10T15:07:30.000Z</time>
        <extensions>
          <gpxtpx:TrackPointExtension xmlns:gpxtpx="http://www.garmin.com/xmlschemas/TrackPointExtension/v1">
            <gpxtpx:hr>98</gpxtpx:hr>
          </gpxtpx:TrackPointExtension>
        </extensions>
      </trkpt>
      <trkpt lat="43.54065" lon="1.46258">
        <ele>167.80000305176</ele>
        <time>2020-06-10T15:07:47.000Z</time>
        <extensions>
          <gpxtpx:TrackPointExtension xmlns:gpxtpx="http://www.garmin.com/xmlschemas/TrackPointExtension/v1">
            <gpxtpx:hr>99</gpxtpx:hr>
          </gpxtpx:TrackPointExtension>
        </extensions>
      </trkpt>
      <trkpt lat="43.54074" lon="1.46243">
        <ele>168.19999694824</ele>
        <time>2020-06-10T15:07:51.000Z</time>
        <extensions>
          <gpxtpx:TrackPointExtension xmlns:gpxtpx="http://www.garmin.com/xmlschemas/TrackPointExtension/v1">
            <gpxtpx:hr>99</gpxtpx:hr>
          </gpxtpx:TrackPointExtension>
        </extensions>
      </trkpt>
      <trkpt lat="43.54087" lon="1.46217">
        <ele>169</ele>
        <time>2020-06-10T15:07:57.000Z</time>
        <extensions>
          <gpxtpx:TrackPointExtension xmlns:gpxtpx="http://www.garmin.com/xmlschemas/TrackPointExtension/v1">
            <gpxtpx:hr>100</gpxtpx:hr>
          </gpxtpx:TrackPointExtension>
        </extensions>
      </trkpt>
      <trkpt lat="43.54095" lon="1.46203">
        <ele>169.19999694824</ele>
        <time>2020-06-10T15:08:00.000Z</time>
        <extensions>
          <gpxtpx:TrackPointExtension xmlns:gpxtpx="http://www.garmin.com/xmlschemas/TrackPointExtension/v1">
            <gpxtpx:hr>100</gpxtpx:hr>
          </gpxtpx:TrackPointExtension>
        </extensions>
      </trkpt>
      <trkpt lat="43.54111" lon="1.46174">
        <ele>170.19999694824</ele>
        <time>2020-06-10T15:08:06.000Z</time>
        <extensions>
          <gpxtpx:TrackPointExtension xmlns:gpxtpx="http://www.garmin.com/xmlschemas/TrackPointExtension/v1">
            <gpxtpx:hr>101</gpxtpx:hr>
          </gpxtpx:TrackPointExtension>
        </extensions>
      </trkpt>
      <trkpt lat="43.54131" lon="1.4614">
        <ele>171.19999694824</ele>
        <time>2020-06-10T15:08:13.000Z</time>
        <extensions>
          <gpxtpx:TrackPointExtension xmlns:gpxtpx="http://www.garmin.com/xmlschemas/TrackPointExtension/v1">
            <gpxtpx:hr>103</gpxtpx:hr>
          </gpxtpx:TrackPointExtension>
        </extensions>
      </trkpt>
      <trkpt lat="43.54138" lon="1.46125">
        <ele>171.60000610352</ele>
        <time>2020-06-10T15:08:16.000Z</time>
        <extensions>
          <gpxtpx:TrackPointExtension xmlns:gpxtpx="http://www.garmin.com/xmlschemas/TrackPointExtension/v1">
            <gpxtpx:hr>104</gpxtpx:hr>
          </gpxtpx:TrackPointExtension>
        </extensions>
      </trkpt>
      <trkpt lat="43.54153" lon="1.46097">
        <ele>172.39999389648</ele>
        <time>2020-06-10T15:08:22.000Z</time>
        <extensions>
          <gpxtpx:TrackPointExtension xmlns:gpxtpx="http://www.garmin.com/xmlschemas/TrackPointExtension/v1">
            <gpxtpx:hr>105</gpxtpx:hr>
          </gpxtpx:TrackPointExtension>
        </extensions>
      </trkpt>
      <trkpt lat="43.54168" lon="1.46068">
        <ele>173.39999389648</ele>
        <time>2020-06-10T15:08:28.000Z</time>
        <extensions>
          <gpxtpx:TrackPointExtension xmlns:gpxtpx="http://www.garmin.com/xmlschemas/TrackPointExtension/v1">
            <gpxtpx:hr>107</gpxtpx:hr>
          </gpxtpx:TrackPointExtension>
        </extensions>
      </trkpt>
      <trkpt lat="43.54186" lon="1.46021">
        <ele>174.60000610352</ele>
        <time>2020-06-10T15:08:37.000Z</time>
        <extensions>
          <gpxtpx:TrackPointExtension xmlns:gpxtpx="http://www.garmin.com/xmlschemas/TrackPointExtension/v1">
            <gpxtpx:hr>107</gpxtpx:hr>
          </gpxtpx:TrackPointExtension>
        </extensions>
      </trkpt>
      <trkpt lat="43.54191" lon="1.46011">
        <ele>174.60000610352</ele>
        <time>2020-06-10T15:08:39.000Z</time>
        <extensions>
          <gpxtpx:TrackPointExtension xmlns:gpxtpx="http://www.garmin.com/xmlschemas/TrackPointExtension/v1">
            <gpxtpx:hr>107</gpxtpx:hr>
          </gpxtpx:TrackPointExtension>
        </extensions>
      </trkpt>
      <trkpt lat="43.54212" lon="1.45957">
        <ele>175.19999694824</ele>
        <time>2020-06-10T15:08:49.000Z</time>
        <extensions>
          <gpxtpx:TrackPointExtension xmlns:gpxtpx="http://www.garmin.com/xmlschemas/TrackPointExtension/v1">
            <gpxtpx:hr>104</gpxtpx:hr>
          </gpxtpx:TrackPointExtension>
        </extensions>
      </trkpt>
      <trkpt lat="43.54231" lon="1.45908">
        <ele>175.19999694824</ele>
        <time>2020-06-10T15:08:57.000Z</time>
        <extensions>
          <gpxtpx:TrackPointExtension xmlns:gpxtpx="http://www.garmin.com/xmlschemas/TrackPointExtension/v1">
            <gpxtpx:hr>101</gpxtpx:hr>
          </gpxtpx:TrackPointExtension>
        </extensions>
      </trkpt>
      <trkpt lat="43.54258" lon="1.45856">
        <ele>174.19999694824</ele>
        <time>2020-06-10T15:09:04.000Z</time>
        <extensions>
          <gpxtpx:TrackPointExtension xmlns:gpxtpx="http://www.garmin.com/xmlschemas/TrackPointExtension/v1">
            <gpxtpx:hr>102</gpxtpx:hr>
          </gpxtpx:TrackPointExtension>
        </extensions>
      </trkpt>
      <trkpt lat="43.54282" lon="1.45817">
        <ele>173.39999389648</ele>
        <time>2020-06-10T15:09:08.000Z</time>
        <extensions>
          <gpxtpx:TrackPointExtension xmlns:gpxtpx="http://www.garmin.com/xmlschemas/TrackPointExtension/v1">
            <gpxtpx:hr>104</gpxtpx:hr>
          </gpxtpx:TrackPointExtension>
        </extensions>
      </trkpt>
      <trkpt lat="43.54293" lon="1.45799">
        <ele>172</ele>
        <time>2020-06-10T15:09:10.000Z</time>
        <extensions>
          <gpxtpx:TrackPointExtension xmlns:gpxtpx="http://www.garmin.com/xmlschemas/TrackPointExtension/v1">
            <gpxtpx:hr>106</gpxtpx:hr>
          </gpxtpx:TrackPointExtension>
        </extensions>
      </trkpt>
      <trkpt lat="43.54299" lon="1.4579">
        <ele>171</ele>
        <time>2020-06-10T15:09:11.000Z</time>
        <extensions>
          <gpxtpx:TrackPointExtension xmlns:gpxtpx="http://www.garmin.com/xmlschemas/TrackPointExtension/v1">
            <gpxtpx:hr>106</gpxtpx:hr>
          </gpxtpx:TrackPointExtension>
        </extensions>
      </trkpt>
      <trkpt lat="43.54309" lon="1.45774">
        <ele>169.39999389648</ele>
        <time>2020-06-10T15:09:13.000Z</time>
        <extensions>
          <gpxtpx:TrackPointExtension xmlns:gpxtpx="http://www.garmin.com/xmlschemas/TrackPointExtension/v1">
            <gpxtpx:hr>108</gpxtpx:hr>
          </gpxtpx:TrackPointExtension>
        </extensions>
      </trkpt>
      <trkpt lat="43.54349" lon="1.45711">
        <ele>169</ele>
        <time>2020-06-10T15:09:21.000Z</time>
        <extensions>
          <gpxtpx:TrackPointExtension xmlns:gpxtpx="http://www.garmin.com/xmlschemas/TrackPointExtension/v1">
            <gpxtpx:hr>110</gpxtpx:hr>
          </gpxtpx:TrackPointExtension>
        </extensions>
      </trkpt>
      <trkpt lat="43.54374" lon="1.4567">
        <ele>170</ele>
        <time>2020-06-10T15:09:26.000Z</time>
        <extensions>
          <gpxtpx:TrackPointExtension xmlns:gpxtpx="http://www.garmin.com/xmlschemas/TrackPointExtension/v1">
            <gpxtpx:hr>113</gpxtpx:hr>
          </gpxtpx:TrackPointExtension>
        </extensions>
      </trkpt>
      <trkpt lat="43.54405" lon="1.45625">
        <ele>170.60000610352</ele>
        <time>2020-06-10T15:09:34.000Z</time>
        <extensions>
          <gpxtpx:TrackPointExtension xmlns:gpxtpx="http://www.garmin.com/xmlschemas/TrackPointExtension/v1">
            <gpxtpx:hr>112</gpxtpx:hr>
          </gpxtpx:TrackPointExtension>
        </extensions>
      </trkpt>
      <trkpt lat="43.54418" lon="1.4561">
        <ele>171.60000610352</ele>
        <time>2020-06-10T15:09:38.000Z</time>
        <extensions>
          <gpxtpx:TrackPointExtension xmlns:gpxtpx="http://www.garmin.com/xmlschemas/TrackPointExtension/v1">
            <gpxtpx:hr>110</gpxtpx:hr>
          </gpxtpx:TrackPointExtension>
        </extensions>
      </trkpt>
      <trkpt lat="43.54425" lon="1.45605">
        <ele>172.80000305176</ele>
        <time>2020-06-10T15:09:40.000Z</time>
        <extensions>
          <gpxtpx:TrackPointExtension xmlns:gpxtpx="http://www.garmin.com/xmlschemas/TrackPointExtension/v1">
            <gpxtpx:hr>110</gpxtpx:hr>
          </gpxtpx:TrackPointExtension>
        </extensions>
      </trkpt>
      <trkpt lat="43.54429" lon="1.45606">
        <ele>173.39999389648</ele>
        <time>2020-06-10T15:09:41.000Z</time>
        <extensions>
          <gpxtpx:TrackPointExtension xmlns:gpxtpx="http://www.garmin.com/xmlschemas/TrackPointExtension/v1">
            <gpxtpx:hr>110</gpxtpx:hr>
          </gpxtpx:TrackPointExtension>
        </extensions>
      </trkpt>
      <trkpt lat="43.54432" lon="1.45608">
        <ele>174</ele>
        <time>2020-06-10T15:09:42.000Z</time>
        <extensions>
          <gpxtpx:TrackPointExtension xmlns:gpxtpx="http://www.garmin.com/xmlschemas/TrackPointExtension/v1">
            <gpxtpx:hr>109</gpxtpx:hr>
          </gpxtpx:TrackPointExtension>
        </extensions>
      </trkpt>
      <trkpt lat="43.54435" lon="1.45622">
        <ele>175.19999694824</ele>
        <time>2020-06-10T15:09:45.000Z</time>
        <extensions>
          <gpxtpx:TrackPointExtension xmlns:gpxtpx="http://www.garmin.com/xmlschemas/TrackPointExtension/v1">
            <gpxtpx:hr>107</gpxtpx:hr>
          </gpxtpx:TrackPointExtension>
        </extensions>
      </trkpt>
      <trkpt lat="43.54432" lon="1.45636">
        <ele>175.80000305176</ele>
        <time>2020-06-10T15:09:48.000Z</time>
        <extensions>
          <gpxtpx:TrackPointExtension xmlns:gpxtpx="http://www.garmin.com/xmlschemas/TrackPointExtension/v1">
            <gpxtpx:hr>105</gpxtpx:hr>
          </gpxtpx:TrackPointExtension>
        </extensions>
      </trkpt>
      <trkpt lat="43.5443" lon="1.45653">
        <ele>176</ele>
        <time>2020-06-10T15:09:52.000Z</time>
        <extensions>
          <gpxtpx:TrackPointExtension xmlns:gpxtpx="http://www.garmin.com/xmlschemas/TrackPointExtension/v1">
            <gpxtpx:hr>102</gpxtpx:hr>
          </gpxtpx:TrackPointExtension>
        </extensions>
      </trkpt>
      <trkpt lat="43.54427" lon="1.45671">
        <ele>176</ele>
        <time>2020-06-10T15:09:56.000Z</time>
        <extensions>
          <gpxtpx:TrackPointExtension xmlns:gpxtpx="http://www.garmin.com/xmlschemas/TrackPointExtension/v1">
            <gpxtpx:hr>99</gpxtpx:hr>
          </gpxtpx:TrackPointExtension>
        </extensions>
      </trkpt>
      <trkpt lat="43.54425" lon="1.45676">
        <ele>176</ele>
        <time>2020-06-10T15:09:57.000Z</time>
        <extensions>
          <gpxtpx:TrackPointExtension xmlns:gpxtpx="http://www.garmin.com/xmlschemas/TrackPointExtension/v1">
            <gpxtpx:hr>99</gpxtpx:hr>
          </gpxtpx:TrackPointExtension>
        </extensions>
      </trkpt>
      <trkpt lat="43.54412" lon="1.45696">
        <ele>176.19999694824</ele>
        <time>2020-06-10T15:10:01.000Z</time>
        <extensions>
          <gpxtpx:TrackPointExtension xmlns:gpxtpx="http://www.garmin.com/xmlschemas/TrackPointExtension/v1">
            <gpxtpx:hr>96</gpxtpx:hr>
          </gpxtpx:TrackPointExtension>
        </extensions>
      </trkpt>
      <trkpt lat="43.54405" lon="1.45711">
        <ele>176.19999694824</ele>
        <time>2020-06-10T15:10:03.000Z</time>
        <extensions>
          <gpxtpx:TrackPointExtension xmlns:gpxtpx="http://www.garmin.com/xmlschemas/TrackPointExtension/v1">
            <gpxtpx:hr>94</gpxtpx:hr>
          </gpxtpx:TrackPointExtension>
        </extensions>
      </trkpt>
      <trkpt lat="43.54396" lon="1.45734">
        <ele>176</ele>
        <time>2020-06-10T15:10:06.000Z</time>
        <extensions>
          <gpxtpx:TrackPointExtension xmlns:gpxtpx="http://www.garmin.com/xmlschemas/TrackPointExtension/v1">
            <gpxtpx:hr>91</gpxtpx:hr>
          </gpxtpx:TrackPointExtension>
        </extensions>
      </trkpt>
      <trkpt lat="43.54384" lon="1.45737">
        <ele>174.80000305176</ele>
        <time>2020-06-10T15:10:08.000Z</time>
        <extensions>
          <gpxtpx:TrackPointExtension xmlns:gpxtpx="http://www.garmin.com/xmlschemas/TrackPointExtension/v1">
            <gpxtpx:hr>90</gpxtpx:hr>
          </gpxtpx:TrackPointExtension>
        </extensions>
      </trkpt>
      <trkpt lat="43.54374" lon="1.4574">
        <ele>173.39999389648</ele>
        <time>2020-06-10T15:10:10.000Z</time>
        <extensions>
          <gpxtpx:TrackPointExtension xmlns:gpxtpx="http://www.garmin.com/xmlschemas/TrackPointExtension/v1">
            <gpxtpx:hr>87</gpxtpx:hr>
          </gpxtpx:TrackPointExtension>
        </extensions>
      </trkpt>
      <trkpt lat="43.54365" lon="1.4575">
        <ele>172.39999389648</ele>
        <time>2020-06-10T15:10:12.000Z</time>
        <extensions>
          <gpxtpx:TrackPointExtension xmlns:gpxtpx="http://www.garmin.com/xmlschemas/TrackPointExtension/v1">
            <gpxtpx:hr>86</gpxtpx:hr>
          </gpxtpx:TrackPointExtension>
        </extensions>
      </trkpt>
      <trkpt lat="43.54362" lon="1.45756">
        <ele>172</ele>
        <time>2020-06-10T15:10:13.000Z</time>
        <extensions>
          <gpxtpx:TrackPointExtension xmlns:gpxtpx="http://www.garmin.com/xmlschemas/TrackPointExtension/v1">
            <gpxtpx:hr>85</gpxtpx:hr>
          </gpxtpx:TrackPointExtension>
        </extensions>
      </trkpt>
      <trkpt lat="43.54351" lon="1.45772">
        <ele>171.39999389648</ele>
        <time>2020-06-10T15:10:16.000Z</time>
        <extensions>
          <gpxtpx:TrackPointExtension xmlns:gpxtpx="http://www.garmin.com/xmlschemas/TrackPointExtension/v1">
            <gpxtpx:hr>82</gpxtpx:hr>
          </gpxtpx:TrackPointExtension>
        </extensions>
      </trkpt>
      <trkpt lat="43.5434" lon="1.4579">
        <ele>171</ele>
        <time>2020-06-10T15:10:20.000Z</time>
        <extensions>
          <gpxtpx:TrackPointExtension xmlns:gpxtpx="http://www.garmin.com/xmlschemas/TrackPointExtension/v1">
            <gpxtpx:hr>79</gpxtpx:hr>
          </gpxtpx:TrackPointExtension>
        </extensions>
      </trkpt>
      <trkpt lat="43.54332" lon="1.45806">
        <ele>170.60000610352</ele>
        <time>2020-06-10T15:10:25.000Z</time>
        <extensions>
          <gpxtpx:TrackPointExtension xmlns:gpxtpx="http://www.garmin.com/xmlschemas/TrackPointExtension/v1">
            <gpxtpx:hr>76</gpxtpx:hr>
          </gpxtpx:TrackPointExtension>
        </extensions>
      </trkpt>
      <trkpt lat="43.54329" lon="1.45809">
        <ele>170.60000610352</ele>
        <time>2020-06-10T15:10:27.000Z</time>
        <extensions>
          <gpxtpx:TrackPointExtension xmlns:gpxtpx="http://www.garmin.com/xmlschemas/TrackPointExtension/v1">
            <gpxtpx:hr>76</gpxtpx:hr>
          </gpxtpx:TrackPointExtension>
        </extensions>
      </trkpt>
      <trkpt lat="43.54328" lon="1.4581">
        <ele>170.60000610352</ele>
        <time>2020-06-10T15:10:28.000Z</time>
        <extensions>
          <gpxtpx:TrackPointExtension xmlns:gpxtpx="http://www.garmin.com/xmlschemas/TrackPointExtension/v1">
            <gpxtpx:hr>76</gpxtpx:hr>
          </gpxtpx:TrackPointExtension>
        </extensions>
      </trkpt>
      <trkpt lat="43.54327" lon="1.4581">
        <ele>170.39999389648</ele>
        <time>2020-06-10T15:10:29.000Z</time>
        <extensions>
          <gpxtpx:TrackPointExtension xmlns:gpxtpx="http://www.garmin.com/xmlschemas/TrackPointExtension/v1">
            <gpxtpx:hr>76</gpxtpx:hr>
          </gpxtpx:TrackPointExtension>
        </extensions>
      </trkpt>
      <trkpt lat="43.54327" lon="1.45811">
        <ele>170.39999389648</ele>
        <time>2020-06-10T15:10:33.000Z</time>
        <extensions>
          <gpxtpx:TrackPointExtension xmlns:gpxtpx="http://www.garmin.com/xmlschemas/TrackPointExtension/v1">
            <gpxtpx:hr>75</gpxtpx:hr>
          </gpxtpx:TrackPointExtension>
        </extensions>
      </trkpt>
      <trkpt lat="43.54325" lon="1.45811">
        <ele>170.39999389648</ele>
        <time>2020-06-10T15:10:35.000Z</time>
        <extensions>
          <gpxtpx:TrackPointExtension xmlns:gpxtpx="http://www.garmin.com/xmlschemas/TrackPointExtension/v1">
            <gpxtpx:hr>76</gpxtpx:hr>
          </gpxtpx:TrackPointExtension>
        </extensions>
      </trkpt>
      <trkpt lat="43.54314" lon="1.45811">
        <ele>170.39999389648</ele>
        <time>2020-06-10T15:10:41.000Z</time>
        <extensions>
          <gpxtpx:TrackPointExtension xmlns:gpxtpx="http://www.garmin.com/xmlschemas/TrackPointExtension/v1">
            <gpxtpx:hr>72</gpxtpx:hr>
          </gpxtpx:TrackPointExtension>
        </extensions>
      </trkpt>
      <trkpt lat="43.54313" lon="1.45811">
        <ele>170.19999694824</ele>
        <time>2020-06-10T15:10:42.000Z</time>
        <extensions>
          <gpxtpx:TrackPointExtension xmlns:gpxtpx="http://www.garmin.com/xmlschemas/TrackPointExtension/v1">
            <gpxtpx:hr>72</gpxtpx:hr>
          </gpxtpx:TrackPointExtension>
        </extensions>
      </trkpt>
    </trkseg>
  </trk>
  <trk>
    <name><![CDATA[Ramonville-Saint-Agne Cyclisme sur route]]></name>
    <extensions>
      <line xmlns="http://www.topografix.com/GPX/gpx_style/0/2">
        <color>ff0000</color>
        <width>4</width>
      </line>
    </extensions>
    <trkseg>
      <trkpt lat="43.54314" lon="1.4582">
        <ele>221.80000305176</ele>
        <time>2020-06-08T13:20:37.000Z</time>
      </trkpt>
      <trkpt lat="43.54314" lon="1.4582">
        <ele>221.80000305176</ele>
        <time>2020-06-08T13:20:37.000Z</time>
      </trkpt>
      <trkpt lat="43.54315" lon="1.45821">
        <ele>221.80000305176</ele>
        <time>2020-06-08T13:20:39.000Z</time>
      </trkpt>
      <trkpt lat="43.54328" lon="1.45822">
        <ele>221.39999389648</ele>
        <time>2020-06-08T13:20:48.000Z</time>
      </trkpt>
      <trkpt lat="43.54329" lon="1.45821">
        <ele>221.60000610352</ele>
        <time>2020-06-08T13:20:50.000Z</time>
      </trkpt>
      <trkpt lat="43.54332" lon="1.45819">
        <ele>221.60000610352</ele>
        <time>2020-06-08T13:20:52.000Z</time>
      </trkpt>
      <trkpt lat="43.54333" lon="1.45819">
        <ele>221.60000610352</ele>
        <time>2020-06-08T13:20:54.000Z</time>
      </trkpt>
      <trkpt lat="43.54336" lon="1.45821">
        <ele>222.39999389648</ele>
        <time>2020-06-08T13:21:11.000Z</time>
      </trkpt>
      <trkpt lat="43.54336" lon="1.45823">
        <ele>222.39999389648</ele>
        <time>2020-06-08T13:21:12.000Z</time>
      </trkpt>
      <trkpt lat="43.54337" lon="1.45829">
        <ele>222.39999389648</ele>
        <time>2020-06-08T13:21:14.000Z</time>
      </trkpt>
      <trkpt lat="43.54338" lon="1.45836">
        <ele>222.39999389648</ele>
        <time>2020-06-08T13:21:16.000Z</time>
      </trkpt>
      <trkpt lat="43.5434" lon="1.45844">
        <ele>222.19999694824</ele>
        <time>2020-06-08T13:21:18.000Z</time>
      </trkpt>
      <trkpt lat="43.54344" lon="1.45853">
        <ele>222.19999694824</ele>
        <time>2020-06-08T13:21:20.000Z</time>
      </trkpt>
      <trkpt lat="43.54348" lon="1.45863">
        <ele>222.19999694824</ele>
        <time>2020-06-08T13:21:22.000Z</time>
      </trkpt>
      <trkpt lat="43.54351" lon="1.45874">
        <ele>221.80000305176</ele>
        <time>2020-06-08T13:21:24.000Z</time>
      </trkpt>
      <trkpt lat="43.54351" lon="1.45887">
        <ele>221.39999389648</ele>
        <time>2020-06-08T13:21:26.000Z</time>
      </trkpt>
      <trkpt lat="43.54351" lon="1.45901">
        <ele>221</ele>
        <time>2020-06-08T13:21:28.000Z</time>
      </trkpt>
      <trkpt lat="43.54355" lon="1.45915">
        <ele>220.39999389648</ele>
        <time>2020-06-08T13:21:30.000Z</time>
      </trkpt>
      <trkpt lat="43.54358" lon="1.45922">
        <ele>220.19999694824</ele>
        <time>2020-06-08T13:21:31.000Z</time>
      </trkpt>
      <trkpt lat="43.54361" lon="1.4593">
        <ele>219.80000305176</ele>
        <time>2020-06-08T13:21:32.000Z</time>
      </trkpt>
      <trkpt lat="43.54366" lon="1.45943">
        <ele>219.39999389648</ele>
        <time>2020-06-08T13:21:34.000Z</time>
      </trkpt>
      <trkpt lat="43.54371" lon="1.45956">
        <ele>218.80000305176</ele>
        <time>2020-06-08T13:21:36.000Z</time>
      </trkpt>
      <trkpt lat="43.54377" lon="1.45966">
        <ele>218.39999389648</ele>
        <time>2020-06-08T13:21:38.000Z</time>
      </trkpt>
      <trkpt lat="43.54384" lon="1.45973">
        <ele>218.39999389648</ele>
        <time>2020-06-08T13:21:40.000Z</time>
      </trkpt>
      <trkpt lat="43.54391" lon="1.45977">
        <ele>218.39999389648</ele>
        <time>2020-06-08T13:21:42.000Z</time>
      </trkpt>
      <trkpt lat="43.54398" lon="1.45974">
        <ele>218.39999389648</ele>
        <time>2020-06-08T13:21:44.000Z</time>
      </trkpt>
      <trkpt lat="43.54402" lon="1.45967">
        <ele>218.39999389648</ele>
        <time>2020-06-08T13:21:46.000Z</time>
      </trkpt>
      <trkpt lat="43.54405" lon="1.4596">
        <ele>218.39999389648</ele>
        <time>2020-06-08T13:21:48.000Z</time>
      </trkpt>
      <trkpt lat="43.54407" lon="1.45953">
        <ele>218.80000305176</ele>
        <time>2020-06-08T13:21:50.000Z</time>
      </trkpt>
      <trkpt lat="43.54408" lon="1.45949">
        <ele>219</ele>
        <time>2020-06-08T13:21:51.000Z</time>
      </trkpt>
      <trkpt lat="43.54409" lon="1.45944">
        <ele>219.19999694824</ele>
        <time>2020-06-08T13:21:52.000Z</time>
      </trkpt>
      <trkpt lat="43.54411" lon="1.45936">
        <ele>219.80000305176</ele>
        <time>2020-06-08T13:21:54.000Z</time>
      </trkpt>
      <trkpt lat="43.54412" lon="1.45931">
        <ele>220.19999694824</ele>
        <time>2020-06-08T13:21:55.000Z</time>
      </trkpt>
      <trkpt lat="43.54412" lon="1.45927">
        <ele>220.39999389648</ele>
        <time>2020-06-08T13:21:56.000Z</time>
      </trkpt>
      <trkpt lat="43.54412" lon="1.45917">
        <ele>221</ele>
        <time>2020-06-08T13:21:58.000Z</time>
      </trkpt>
      <trkpt lat="43.54412" lon="1.45912">
        <ele>221.19999694824</ele>
        <time>2020-06-08T13:21:59.000Z</time>
      </trkpt>
      <trkpt lat="43.54412" lon="1.45907">
        <ele>221.60000610352</ele>
        <time>2020-06-08T13:22:00.000Z</time>
      </trkpt>
      <trkpt lat="43.54411" lon="1.45897">
        <ele>222</ele>
        <time>2020-06-08T13:22:02.000Z</time>
      </trkpt>
      <trkpt lat="43.54411" lon="1.45892">
        <ele>222.39999389648</ele>
        <time>2020-06-08T13:22:03.000Z</time>
      </trkpt>
      <trkpt lat="43.5441" lon="1.45887">
        <ele>222.60000610352</ele>
        <time>2020-06-08T13:22:04.000Z</time>
      </trkpt>
      <trkpt lat="43.54409" lon="1.45877">
        <ele>223</ele>
        <time>2020-06-08T13:22:06.000Z</time>
      </trkpt>
      <trkpt lat="43.54408" lon="1.45866">
        <ele>223.19999694824</ele>
        <time>2020-06-08T13:22:08.000Z</time>
      </trkpt>
      <trkpt lat="43.54406" lon="1.45856">
        <ele>223.19999694824</ele>
        <time>2020-06-08T13:22:10.000Z</time>
      </trkpt>
      <trkpt lat="43.54405" lon="1.45846">
        <ele>223.19999694824</ele>
        <time>2020-06-08T13:22:12.000Z</time>
      </trkpt>
      <trkpt lat="43.54404" lon="1.45835">
        <ele>223.19999694824</ele>
        <time>2020-06-08T13:22:14.000Z</time>
      </trkpt>
      <trkpt lat="43.54402" lon="1.45824">
        <ele>223</ele>
        <time>2020-06-08T13:22:16.000Z</time>
      </trkpt>
      <trkpt lat="43.54401" lon="1.45813">
        <ele>223</ele>
        <time>2020-06-08T13:22:18.000Z</time>
      </trkpt>
      <trkpt lat="43.544" lon="1.45802">
        <ele>223</ele>
        <time>2020-06-08T13:22:20.000Z</time>
      </trkpt>
      <trkpt lat="43.54399" lon="1.45791">
        <ele>223</ele>
        <time>2020-06-08T13:22:22.000Z</time>
      </trkpt>
      <trkpt lat="43.54399" lon="1.4578">
        <ele>223.19999694824</ele>
        <time>2020-06-08T13:22:24.000Z</time>
      </trkpt>
      <trkpt lat="43.54398" lon="1.45775">
        <ele>223.19999694824</ele>
        <time>2020-06-08T13:22:25.000Z</time>
      </trkpt>
      <trkpt lat="43.54398" lon="1.4577">
        <ele>223.19999694824</ele>
        <time>2020-06-08T13:22:26.000Z</time>
      </trkpt>
      <trkpt lat="43.54398" lon="1.45765">
        <ele>223.19999694824</ele>
        <time>2020-06-08T13:22:27.000Z</time>
      </trkpt>
      <trkpt lat="43.54399" lon="1.4576">
        <ele>223.19999694824</ele>
        <time>2020-06-08T13:22:28.000Z</time>
      </trkpt>
      <trkpt lat="43.544" lon="1.4575">
        <ele>223.39999389648</ele>
        <time>2020-06-08T13:22:30.000Z</time>
      </trkpt>
      <trkpt lat="43.54402" lon="1.4574">
        <ele>223.60000610352</ele>
        <time>2020-06-08T13:22:32.000Z</time>
      </trkpt>
      <trkpt lat="43.54404" lon="1.45731">
        <ele>223.80000305176</ele>
        <time>2020-06-08T13:22:34.000Z</time>
      </trkpt>
      <trkpt lat="43.54407" lon="1.45722">
        <ele>224.39999389648</ele>
        <time>2020-06-08T13:22:36.000Z</time>
      </trkpt>
      <trkpt lat="43.5441" lon="1.45714">
        <ele>225</ele>
        <time>2020-06-08T13:22:38.000Z</time>
      </trkpt>
      <trkpt lat="43.54413" lon="1.45707">
        <ele>225.39999389648</ele>
        <time>2020-06-08T13:22:40.000Z</time>
      </trkpt>
      <trkpt lat="43.54415" lon="1.45704">
        <ele>225.60000610352</ele>
        <time>2020-06-08T13:22:41.000Z</time>
      </trkpt>
      <trkpt lat="43.54417" lon="1.457">
        <ele>225.60000610352</ele>
        <time>2020-06-08T13:22:42.000Z</time>
      </trkpt>
      <trkpt lat="43.54421" lon="1.45694">
        <ele>226</ele>
        <time>2020-06-08T13:22:44.000Z</time>
      </trkpt>
      <trkpt lat="43.54425" lon="1.45689">
        <ele>226.60000610352</ele>
        <time>2020-06-08T13:22:46.000Z</time>
      </trkpt>
      <trkpt lat="43.5443" lon="1.45684">
        <ele>227</ele>
        <time>2020-06-08T13:22:48.000Z</time>
      </trkpt>
      <trkpt lat="43.54434" lon="1.45678">
        <ele>227.60000610352</ele>
        <time>2020-06-08T13:22:50.000Z</time>
      </trkpt>
      <trkpt lat="43.54436" lon="1.45676">
        <ele>227.80000305176</ele>
        <time>2020-06-08T13:22:51.000Z</time>
      </trkpt>
      <trkpt lat="43.54438" lon="1.45673">
        <ele>228</ele>
        <time>2020-06-08T13:22:52.000Z</time>
      </trkpt>
      <trkpt lat="43.54441" lon="1.45668">
        <ele>228.19999694824</ele>
        <time>2020-06-08T13:22:54.000Z</time>
      </trkpt>
      <trkpt lat="43.5444" lon="1.45661">
        <ele>228.19999694824</ele>
        <time>2020-06-08T13:22:56.000Z</time>
      </trkpt>
      <trkpt lat="43.54439" lon="1.45654">
        <ele>228.39999389648</ele>
        <time>2020-06-08T13:22:58.000Z</time>
      </trkpt>
      <trkpt lat="43.54439" lon="1.45644">
        <ele>228.80000305176</ele>
        <time>2020-06-08T13:23:00.000Z</time>
      </trkpt>
      <trkpt lat="43.5444" lon="1.45634">
        <ele>228.80000305176</ele>
        <time>2020-06-08T13:23:02.000Z</time>
      </trkpt>
      <trkpt lat="43.54441" lon="1.45622">
        <ele>229</ele>
        <time>2020-06-08T13:23:04.000Z</time>
      </trkpt>
      <trkpt lat="43.54444" lon="1.45613">
        <ele>229</ele>
        <time>2020-06-08T13:23:06.000Z</time>
      </trkpt>
      <trkpt lat="43.54447" lon="1.45603">
        <ele>229.19999694824</ele>
        <time>2020-06-08T13:23:08.000Z</time>
      </trkpt>
      <trkpt lat="43.54447" lon="1.45593">
        <ele>229.19999694824</ele>
        <time>2020-06-08T13:23:10.000Z</time>
      </trkpt>
      <trkpt lat="43.54445" lon="1.45584">
        <ele>229.39999389648</ele>
        <time>2020-06-08T13:23:12.000Z</time>
      </trkpt>
      <trkpt lat="43.54444" lon="1.45574">
        <ele>229.19999694824</ele>
        <time>2020-06-08T13:23:14.000Z</time>
      </trkpt>
      <trkpt lat="43.54445" lon="1.45563">
        <ele>229.19999694824</ele>
        <time>2020-06-08T13:23:16.000Z</time>
      </trkpt>
      <trkpt lat="43.54448" lon="1.45553">
        <ele>229.19999694824</ele>
        <time>2020-06-08T13:23:18.000Z</time>
      </trkpt>
      <trkpt lat="43.54451" lon="1.45549">
        <ele>229.19999694824</ele>
        <time>2020-06-08T13:23:19.000Z</time>
      </trkpt>
      <trkpt lat="43.54453" lon="1.45545">
        <ele>229.19999694824</ele>
        <time>2020-06-08T13:23:20.000Z</time>
      </trkpt>
      <trkpt lat="43.54458" lon="1.45537">
        <ele>229.19999694824</ele>
        <time>2020-06-08T13:23:22.000Z</time>
      </trkpt>
      <trkpt lat="43.54463" lon="1.4553">
        <ele>229.39999389648</ele>
        <time>2020-06-08T13:23:24.000Z</time>
      </trkpt>
      <trkpt lat="43.54468" lon="1.45523">
        <ele>229.39999389648</ele>
        <time>2020-06-08T13:23:26.000Z</time>
      </trkpt>
      <trkpt lat="43.54474" lon="1.45516">
        <ele>229.19999694824</ele>
        <time>2020-06-08T13:23:28.000Z</time>
      </trkpt>
      <trkpt lat="43.54479" lon="1.45509">
        <ele>229.19999694824</ele>
        <time>2020-06-08T13:23:30.000Z</time>
      </trkpt>
      <trkpt lat="43.54484" lon="1.45502">
        <ele>229.39999389648</ele>
        <time>2020-06-08T13:23:32.000Z</time>
      </trkpt>
      <trkpt lat="43.54489" lon="1.45494">
        <ele>229.39999389648</ele>
        <time>2020-06-08T13:23:34.000Z</time>
      </trkpt>
      <trkpt lat="43.54494" lon="1.45486">
        <ele>229.60000610352</ele>
        <time>2020-06-08T13:23:36.000Z</time>
      </trkpt>
      <trkpt lat="43.54499" lon="1.45477">
        <ele>229.39999389648</ele>
        <time>2020-06-08T13:23:38.000Z</time>
      </trkpt>
      <trkpt lat="43.54505" lon="1.45469">
        <ele>229.39999389648</ele>
        <time>2020-06-08T13:23:40.000Z</time>
      </trkpt>
      <trkpt lat="43.54511" lon="1.4546">
        <ele>229.39999389648</ele>
        <time>2020-06-08T13:23:42.000Z</time>
      </trkpt>
      <trkpt lat="43.54517" lon="1.45451">
        <ele>229.60000610352</ele>
        <time>2020-06-08T13:23:44.000Z</time>
      </trkpt>
      <trkpt lat="43.54523" lon="1.45442">
        <ele>229.39999389648</ele>
        <time>2020-06-08T13:23:46.000Z</time>
      </trkpt>
      <trkpt lat="43.54529" lon="1.45433">
        <ele>229.39999389648</ele>
        <time>2020-06-08T13:23:48.000Z</time>
      </trkpt>
      <trkpt lat="43.54532" lon="1.45428">
        <ele>229.39999389648</ele>
        <time>2020-06-08T13:23:49.000Z</time>
      </trkpt>
      <trkpt lat="43.54534" lon="1.45423">
        <ele>229.19999694824</ele>
        <time>2020-06-08T13:23:50.000Z</time>
      </trkpt>
      <trkpt lat="43.54538" lon="1.45412">
        <ele>229</ele>
        <time>2020-06-08T13:23:52.000Z</time>
      </trkpt>
      <trkpt lat="43.54541" lon="1.454">
        <ele>228.60000610352</ele>
        <time>2020-06-08T13:23:54.000Z</time>
      </trkpt>
      <trkpt lat="43.54544" lon="1.45387">
        <ele>228.39999389648</ele>
        <time>2020-06-08T13:23:56.000Z</time>
      </trkpt>
      <trkpt lat="43.54547" lon="1.45373">
        <ele>228.60000610352</ele>
        <time>2020-06-08T13:23:58.000Z</time>
      </trkpt>
      <trkpt lat="43.54554" lon="1.45362">
        <ele>228.39999389648</ele>
        <time>2020-06-08T13:24:00.000Z</time>
      </trkpt>
      <trkpt lat="43.54562" lon="1.45351">
        <ele>228.19999694824</ele>
        <time>2020-06-08T13:24:02.000Z</time>
      </trkpt>
      <trkpt lat="43.54571" lon="1.45341">
        <ele>228.19999694824</ele>
        <time>2020-06-08T13:24:04.000Z</time>
      </trkpt>
      <trkpt lat="43.5458" lon="1.45331">
        <ele>228</ele>
        <time>2020-06-08T13:24:06.000Z</time>
      </trkpt>
      <trkpt lat="43.5459" lon="1.45322">
        <ele>228</ele>
        <time>2020-06-08T13:24:08.000Z</time>
      </trkpt>
      <trkpt lat="43.54601" lon="1.45316">
        <ele>227.80000305176</ele>
        <time>2020-06-08T13:24:10.000Z</time>
      </trkpt>
      <trkpt lat="43.54607" lon="1.45314">
        <ele>227.80000305176</ele>
        <time>2020-06-08T13:24:11.000Z</time>
      </trkpt>
      <trkpt lat="43.54613" lon="1.45313">
        <ele>227.39999389648</ele>
        <time>2020-06-08T13:24:12.000Z</time>
      </trkpt>
      <trkpt lat="43.54625" lon="1.45315">
        <ele>227.19999694824</ele>
        <time>2020-06-08T13:24:14.000Z</time>
      </trkpt>
      <trkpt lat="43.54637" lon="1.45313">
        <ele>227</ele>
        <time>2020-06-08T13:24:16.000Z</time>
      </trkpt>
      <trkpt lat="43.54644" lon="1.45301">
        <ele>226.80000305176</ele>
        <time>2020-06-08T13:24:18.000Z</time>
      </trkpt>
      <trkpt lat="43.54643" lon="1.45293">
        <ele>226.80000305176</ele>
        <time>2020-06-08T13:24:19.000Z</time>
      </trkpt>
      <trkpt lat="43.5464" lon="1.45286">
        <ele>226.60000610352</ele>
        <time>2020-06-08T13:24:20.000Z</time>
      </trkpt>
      <trkpt lat="43.54629" lon="1.45276">
        <ele>226.19999694824</ele>
        <time>2020-06-08T13:24:22.000Z</time>
      </trkpt>
      <trkpt lat="43.54619" lon="1.45267">
        <ele>225.80000305176</ele>
        <time>2020-06-08T13:24:24.000Z</time>
      </trkpt>
      <trkpt lat="43.54615" lon="1.45262">
        <ele>225.39999389648</ele>
        <time>2020-06-08T13:24:25.000Z</time>
      </trkpt>
      <trkpt lat="43.54611" lon="1.45257">
        <ele>225.19999694824</ele>
        <time>2020-06-08T13:24:26.000Z</time>
      </trkpt>
      <trkpt lat="43.54605" lon="1.45248">
        <ele>225.19999694824</ele>
        <time>2020-06-08T13:24:28.000Z</time>
      </trkpt>
      <trkpt lat="43.54599" lon="1.45242">
        <ele>225</ele>
        <time>2020-06-08T13:24:30.000Z</time>
      </trkpt>
      <trkpt lat="43.54593" lon="1.45235">
        <ele>225</ele>
        <time>2020-06-08T13:24:32.000Z</time>
      </trkpt>
      <trkpt lat="43.54587" lon="1.45229">
        <ele>225</ele>
        <time>2020-06-08T13:24:34.000Z</time>
      </trkpt>
      <trkpt lat="43.54581" lon="1.45224">
        <ele>225.19999694824</ele>
        <time>2020-06-08T13:24:36.000Z</time>
      </trkpt>
      <trkpt lat="43.54575" lon="1.45219">
        <ele>225.60000610352</ele>
        <time>2020-06-08T13:24:38.000Z</time>
      </trkpt>
      <trkpt lat="43.54568" lon="1.45213">
        <ele>226.19999694824</ele>
        <time>2020-06-08T13:24:40.000Z</time>
      </trkpt>
      <trkpt lat="43.54565" lon="1.4521">
        <ele>226.39999389648</ele>
        <time>2020-06-08T13:24:41.000Z</time>
      </trkpt>
      <trkpt lat="43.54562" lon="1.45207">
        <ele>226.80000305176</ele>
        <time>2020-06-08T13:24:42.000Z</time>
      </trkpt>
      <trkpt lat="43.54555" lon="1.45202">
        <ele>227.39999389648</ele>
        <time>2020-06-08T13:24:44.000Z</time>
      </trkpt>
      <trkpt lat="43.54552" lon="1.45199">
        <ele>227.60000610352</ele>
        <time>2020-06-08T13:24:45.000Z</time>
      </trkpt>
      <trkpt lat="43.54549" lon="1.45196">
        <ele>227.80000305176</ele>
        <time>2020-06-08T13:24:46.000Z</time>
      </trkpt>
      <trkpt lat="43.54541" lon="1.4519">
        <ele>228</ele>
        <time>2020-06-08T13:24:48.000Z</time>
      </trkpt>
      <trkpt lat="43.54534" lon="1.45185">
        <ele>228.19999694824</ele>
        <time>2020-06-08T13:24:50.000Z</time>
      </trkpt>
      <trkpt lat="43.54526" lon="1.4518">
        <ele>228.39999389648</ele>
        <time>2020-06-08T13:24:52.000Z</time>
      </trkpt>
      <trkpt lat="43.54518" lon="1.45174">
        <ele>228.80000305176</ele>
        <time>2020-06-08T13:24:54.000Z</time>
      </trkpt>
      <trkpt lat="43.54511" lon="1.45169">
        <ele>228.80000305176</ele>
        <time>2020-06-08T13:24:56.000Z</time>
      </trkpt>
      <trkpt lat="43.54502" lon="1.45165">
        <ele>228.80000305176</ele>
        <time>2020-06-08T13:24:58.000Z</time>
      </trkpt>
      <trkpt lat="43.54493" lon="1.4516">
        <ele>229</ele>
        <time>2020-06-08T13:25:00.000Z</time>
      </trkpt>
      <trkpt lat="43.54484" lon="1.45155">
        <ele>229</ele>
        <time>2020-06-08T13:25:02.000Z</time>
      </trkpt>
      <trkpt lat="43.54473" lon="1.4515">
        <ele>229</ele>
        <time>2020-06-08T13:25:04.000Z</time>
      </trkpt>
      <trkpt lat="43.54462" lon="1.45145">
        <ele>228.80000305176</ele>
        <time>2020-06-08T13:25:06.000Z</time>
      </trkpt>
      <trkpt lat="43.54449" lon="1.45139">
        <ele>228.80000305176</ele>
        <time>2020-06-08T13:25:08.000Z</time>
      </trkpt>
      <trkpt lat="43.54436" lon="1.45132">
        <ele>228.60000610352</ele>
        <time>2020-06-08T13:25:10.000Z</time>
      </trkpt>
      <trkpt lat="43.54422" lon="1.45126">
        <ele>228.19999694824</ele>
        <time>2020-06-08T13:25:12.000Z</time>
      </trkpt>
      <trkpt lat="43.54408" lon="1.4512">
        <ele>227.19999694824</ele>
        <time>2020-06-08T13:25:14.000Z</time>
      </trkpt>
      <trkpt lat="43.54394" lon="1.45113">
        <ele>226.19999694824</ele>
        <time>2020-06-08T13:25:16.000Z</time>
      </trkpt>
      <trkpt lat="43.54381" lon="1.45106">
        <ele>225.39999389648</ele>
        <time>2020-06-08T13:25:18.000Z</time>
      </trkpt>
      <trkpt lat="43.54374" lon="1.45104">
        <ele>225.19999694824</ele>
        <time>2020-06-08T13:25:19.000Z</time>
      </trkpt>
      <trkpt lat="43.54369" lon="1.45101">
        <ele>225</ele>
        <time>2020-06-08T13:25:20.000Z</time>
      </trkpt>
      <trkpt lat="43.54358" lon="1.45097">
        <ele>225</ele>
        <time>2020-06-08T13:25:22.000Z</time>
      </trkpt>
      <trkpt lat="43.54353" lon="1.45094">
        <ele>224.80000305176</ele>
        <time>2020-06-08T13:25:23.000Z</time>
      </trkpt>
      <trkpt lat="43.54349" lon="1.45091">
        <ele>224.80000305176</ele>
        <time>2020-06-08T13:25:24.000Z</time>
      </trkpt>
      <trkpt lat="43.54341" lon="1.45085">
        <ele>224.80000305176</ele>
        <time>2020-06-08T13:25:26.000Z</time>
      </trkpt>
      <trkpt lat="43.54334" lon="1.45079">
        <ele>225</ele>
        <time>2020-06-08T13:25:28.000Z</time>
      </trkpt>
      <trkpt lat="43.54328" lon="1.45074">
        <ele>225.39999389648</ele>
        <time>2020-06-08T13:25:30.000Z</time>
      </trkpt>
      <trkpt lat="43.54322" lon="1.45069">
        <ele>225.80000305176</ele>
        <time>2020-06-08T13:25:32.000Z</time>
      </trkpt>
      <trkpt lat="43.54316" lon="1.45064">
        <ele>226</ele>
        <time>2020-06-08T13:25:34.000Z</time>
      </trkpt>
      <trkpt lat="43.54314" lon="1.45062">
        <ele>226.19999694824</ele>
        <time>2020-06-08T13:25:35.000Z</time>
      </trkpt>
      <trkpt lat="43.54311" lon="1.45059">
        <ele>226.19999694824</ele>
        <time>2020-06-08T13:25:36.000Z</time>
      </trkpt>
      <trkpt lat="43.54307" lon="1.45053">
        <ele>226.60000610352</ele>
        <time>2020-06-08T13:25:38.000Z</time>
      </trkpt>
      <trkpt lat="43.54303" lon="1.45049">
        <ele>226.80000305176</ele>
        <time>2020-06-08T13:25:40.000Z</time>
      </trkpt>
      <trkpt lat="43.54301" lon="1.45046">
        <ele>227.19999694824</ele>
        <time>2020-06-08T13:25:41.000Z</time>
      </trkpt>
      <trkpt lat="43.543" lon="1.45044">
        <ele>227.60000610352</ele>
        <time>2020-06-08T13:25:42.000Z</time>
      </trkpt>
      <trkpt lat="43.54297" lon="1.4504">
        <ele>228.19999694824</ele>
        <time>2020-06-08T13:25:44.000Z</time>
      </trkpt>
      <trkpt lat="43.54294" lon="1.45037">
        <ele>228.60000610352</ele>
        <time>2020-06-08T13:25:46.000Z</time>
      </trkpt>
      <trkpt lat="43.54291" lon="1.45032">
        <ele>229</ele>
        <time>2020-06-08T13:25:48.000Z</time>
      </trkpt>
      <trkpt lat="43.5429" lon="1.45029">
        <ele>229.39999389648</ele>
        <time>2020-06-08T13:25:49.000Z</time>
      </trkpt>
      <trkpt lat="43.54289" lon="1.45026">
        <ele>229.80000305176</ele>
        <time>2020-06-08T13:25:50.000Z</time>
      </trkpt>
      <trkpt lat="43.54285" lon="1.45022">
        <ele>230.39999389648</ele>
        <time>2020-06-08T13:25:52.000Z</time>
      </trkpt>
      <trkpt lat="43.54282" lon="1.45018">
        <ele>231.19999694824</ele>
        <time>2020-06-08T13:25:54.000Z</time>
      </trkpt>
      <trkpt lat="43.54279" lon="1.45014">
        <ele>231.60000610352</ele>
        <time>2020-06-08T13:25:56.000Z</time>
      </trkpt>
      <trkpt lat="43.54275" lon="1.45009">
        <ele>232</ele>
        <time>2020-06-08T13:25:58.000Z</time>
      </trkpt>
      <trkpt lat="43.5427" lon="1.45005">
        <ele>232.60000610352</ele>
        <time>2020-06-08T13:26:00.000Z</time>
      </trkpt>
      <trkpt lat="43.54267" lon="1.45003">
        <ele>232.80000305176</ele>
        <time>2020-06-08T13:26:01.000Z</time>
      </trkpt>
      <trkpt lat="43.54264" lon="1.45002">
        <ele>232.80000305176</ele>
        <time>2020-06-08T13:26:02.000Z</time>
      </trkpt>
      <trkpt lat="43.54256" lon="1.44999">
        <ele>233.19999694824</ele>
        <time>2020-06-08T13:26:04.000Z</time>
      </trkpt>
      <trkpt lat="43.5425" lon="1.44998">
        <ele>233.39999389648</ele>
        <time>2020-06-08T13:26:06.000Z</time>
      </trkpt>
      <trkpt lat="43.54244" lon="1.44996">
        <ele>233.80000305176</ele>
        <time>2020-06-08T13:26:08.000Z</time>
      </trkpt>
      <trkpt lat="43.54239" lon="1.44994">
        <ele>234.19999694824</ele>
        <time>2020-06-08T13:26:10.000Z</time>
      </trkpt>
      <trkpt lat="43.54233" lon="1.44994">
        <ele>234.80000305176</ele>
        <time>2020-06-08T13:26:12.000Z</time>
      </trkpt>
      <trkpt lat="43.54231" lon="1.44994">
        <ele>235.19999694824</ele>
        <time>2020-06-08T13:26:13.000Z</time>
      </trkpt>
      <trkpt lat="43.54229" lon="1.44994">
        <ele>235.39999389648</ele>
        <time>2020-06-08T13:26:14.000Z</time>
      </trkpt>
      <trkpt lat="43.54225" lon="1.44995">
        <ele>235.60000610352</ele>
        <time>2020-06-08T13:26:16.000Z</time>
      </trkpt>
      <trkpt lat="43.54221" lon="1.44996">
        <ele>235.80000305176</ele>
        <time>2020-06-08T13:26:18.000Z</time>
      </trkpt>
      <trkpt lat="43.54216" lon="1.44997">
        <ele>236</ele>
        <time>2020-06-08T13:26:20.000Z</time>
      </trkpt>
      <trkpt lat="43.54211" lon="1.44999">
        <ele>236.19999694824</ele>
        <time>2020-06-08T13:26:22.000Z</time>
      </trkpt>
      <trkpt lat="43.54204" lon="1.45001">
        <ele>236.19999694824</ele>
        <time>2020-06-08T13:26:24.000Z</time>
      </trkpt>
      <trkpt lat="43.54195" lon="1.45004">
        <ele>236.19999694824</ele>
        <time>2020-06-08T13:26:26.000Z</time>
      </trkpt>
      <trkpt lat="43.54182" lon="1.45009">
        <ele>236.19999694824</ele>
        <time>2020-06-08T13:26:28.000Z</time>
      </trkpt>
      <trkpt lat="43.54166" lon="1.45015">
        <ele>235.80000305176</ele>
        <time>2020-06-08T13:26:30.000Z</time>
      </trkpt>
      <trkpt lat="43.54149" lon="1.45022">
        <ele>235</ele>
        <time>2020-06-08T13:26:32.000Z</time>
      </trkpt>
      <trkpt lat="43.54132" lon="1.45029">
        <ele>233.19999694824</ele>
        <time>2020-06-08T13:26:34.000Z</time>
      </trkpt>
      <trkpt lat="43.54123" lon="1.45032">
        <ele>232</ele>
        <time>2020-06-08T13:26:35.000Z</time>
      </trkpt>
      <trkpt lat="43.54115" lon="1.45035">
        <ele>230.60000610352</ele>
        <time>2020-06-08T13:26:36.000Z</time>
      </trkpt>
      <trkpt lat="43.54107" lon="1.45038">
        <ele>229.39999389648</ele>
        <time>2020-06-08T13:26:37.000Z</time>
      </trkpt>
      <trkpt lat="43.54099" lon="1.45041">
        <ele>228.19999694824</ele>
        <time>2020-06-08T13:26:38.000Z</time>
      </trkpt>
      <trkpt lat="43.54092" lon="1.45044">
        <ele>226.80000305176</ele>
        <time>2020-06-08T13:26:39.000Z</time>
      </trkpt>
      <trkpt lat="43.54084" lon="1.45047">
        <ele>225.60000610352</ele>
        <time>2020-06-08T13:26:40.000Z</time>
      </trkpt>
      <trkpt lat="43.54069" lon="1.45053">
        <ele>224.19999694824</ele>
        <time>2020-06-08T13:26:42.000Z</time>
      </trkpt>
      <trkpt lat="43.54054" lon="1.45059">
        <ele>223.60000610352</ele>
        <time>2020-06-08T13:26:44.000Z</time>
      </trkpt>
      <trkpt lat="43.54038" lon="1.45068">
        <ele>223</ele>
        <time>2020-06-08T13:26:46.000Z</time>
      </trkpt>
      <trkpt lat="43.54023" lon="1.4508">
        <ele>222.19999694824</ele>
        <time>2020-06-08T13:26:48.000Z</time>
      </trkpt>
      <trkpt lat="43.54015" lon="1.45086">
        <ele>221.39999389648</ele>
        <time>2020-06-08T13:26:49.000Z</time>
      </trkpt>
      <trkpt lat="43.54008" lon="1.45094">
        <ele>220.60000610352</ele>
        <time>2020-06-08T13:26:50.000Z</time>
      </trkpt>
      <trkpt lat="43.54002" lon="1.45102">
        <ele>220.19999694824</ele>
        <time>2020-06-08T13:26:51.000Z</time>
      </trkpt>
      <trkpt lat="43.53996" lon="1.45111">
        <ele>219.60000610352</ele>
        <time>2020-06-08T13:26:52.000Z</time>
      </trkpt>
      <trkpt lat="43.53989" lon="1.4512">
        <ele>218.80000305176</ele>
        <time>2020-06-08T13:26:53.000Z</time>
      </trkpt>
      <trkpt lat="43.53983" lon="1.45129">
        <ele>217.60000610352</ele>
        <time>2020-06-08T13:26:54.000Z</time>
      </trkpt>
      <trkpt lat="43.53972" lon="1.45149">
        <ele>215.60000610352</ele>
        <time>2020-06-08T13:26:56.000Z</time>
      </trkpt>
      <trkpt lat="43.53961" lon="1.4517">
        <ele>214.60000610352</ele>
        <time>2020-06-08T13:26:58.000Z</time>
      </trkpt>
      <trkpt lat="43.53949" lon="1.4519">
        <ele>213.80000305176</ele>
        <time>2020-06-08T13:27:00.000Z</time>
      </trkpt>
      <trkpt lat="43.53944" lon="1.45199">
        <ele>213.19999694824</ele>
        <time>2020-06-08T13:27:01.000Z</time>
      </trkpt>
      <trkpt lat="43.53939" lon="1.45209">
        <ele>212.60000610352</ele>
        <time>2020-06-08T13:27:02.000Z</time>
      </trkpt>
      <trkpt lat="43.53931" lon="1.45231">
        <ele>211.60000610352</ele>
        <time>2020-06-08T13:27:04.000Z</time>
      </trkpt>
      <trkpt lat="43.53927" lon="1.45243">
        <ele>211</ele>
        <time>2020-06-08T13:27:05.000Z</time>
      </trkpt>
      <trkpt lat="43.53924" lon="1.45254">
        <ele>209.60000610352</ele>
        <time>2020-06-08T13:27:06.000Z</time>
      </trkpt>
      <trkpt lat="43.5392" lon="1.45264">
        <ele>208.39999389648</ele>
        <time>2020-06-08T13:27:07.000Z</time>
      </trkpt>
      <trkpt lat="43.53917" lon="1.45273">
        <ele>207.39999389648</ele>
        <time>2020-06-08T13:27:08.000Z</time>
      </trkpt>
      <trkpt lat="43.53913" lon="1.45282">
        <ele>207.19999694824</ele>
        <time>2020-06-08T13:27:09.000Z</time>
      </trkpt>
      <trkpt lat="43.53908" lon="1.4529">
        <ele>206.60000610352</ele>
        <time>2020-06-08T13:27:10.000Z</time>
      </trkpt>
      <trkpt lat="43.53903" lon="1.45297">
        <ele>205.60000610352</ele>
        <time>2020-06-08T13:27:11.000Z</time>
      </trkpt>
      <trkpt lat="43.53896" lon="1.45305">
        <ele>205</ele>
        <time>2020-06-08T13:27:12.000Z</time>
      </trkpt>
      <trkpt lat="43.5389" lon="1.45312">
        <ele>204.60000610352</ele>
        <time>2020-06-08T13:27:13.000Z</time>
      </trkpt>
      <trkpt lat="43.53884" lon="1.45319">
        <ele>204.39999389648</ele>
        <time>2020-06-08T13:27:14.000Z</time>
      </trkpt>
      <trkpt lat="43.53873" lon="1.45333">
        <ele>204</ele>
        <time>2020-06-08T13:27:16.000Z</time>
      </trkpt>
      <trkpt lat="43.53863" lon="1.45347">
        <ele>203.80000305176</ele>
        <time>2020-06-08T13:27:18.000Z</time>
      </trkpt>
      <trkpt lat="43.53852" lon="1.45359">
        <ele>203.80000305176</ele>
        <time>2020-06-08T13:27:20.000Z</time>
      </trkpt>
      <trkpt lat="43.53842" lon="1.45368">
        <ele>203.80000305176</ele>
        <time>2020-06-08T13:27:22.000Z</time>
      </trkpt>
      <trkpt lat="43.53833" lon="1.45376">
        <ele>204</ele>
        <time>2020-06-08T13:27:24.000Z</time>
      </trkpt>
      <trkpt lat="43.53825" lon="1.45383">
        <ele>204</ele>
        <time>2020-06-08T13:27:26.000Z</time>
      </trkpt>
      <trkpt lat="43.53817" lon="1.4539">
        <ele>204</ele>
        <time>2020-06-08T13:27:28.000Z</time>
      </trkpt>
      <trkpt lat="43.53809" lon="1.45396">
        <ele>204.19999694824</ele>
        <time>2020-06-08T13:27:30.000Z</time>
      </trkpt>
      <trkpt lat="43.53801" lon="1.45402">
        <ele>204.60000610352</ele>
        <time>2020-06-08T13:27:32.000Z</time>
      </trkpt>
      <trkpt lat="43.53792" lon="1.45409">
        <ele>204.80000305176</ele>
        <time>2020-06-08T13:27:34.000Z</time>
      </trkpt>
      <trkpt lat="43.53783" lon="1.45417">
        <ele>204.80000305176</ele>
        <time>2020-06-08T13:27:36.000Z</time>
      </trkpt>
      <trkpt lat="43.53772" lon="1.45424">
        <ele>204.80000305176</ele>
        <time>2020-06-08T13:27:38.000Z</time>
      </trkpt>
      <trkpt lat="43.53759" lon="1.45434">
        <ele>204.80000305176</ele>
        <time>2020-06-08T13:27:40.000Z</time>
      </trkpt>
      <trkpt lat="43.53743" lon="1.45444">
        <ele>204.39999389648</ele>
        <time>2020-06-08T13:27:42.000Z</time>
      </trkpt>
      <trkpt lat="43.53724" lon="1.45455">
        <ele>203.80000305176</ele>
        <time>2020-06-08T13:27:44.000Z</time>
      </trkpt>
      <trkpt lat="43.53715" lon="1.45459">
        <ele>203.39999389648</ele>
        <time>2020-06-08T13:27:45.000Z</time>
      </trkpt>
      <trkpt lat="43.53705" lon="1.45463">
        <ele>203</ele>
        <time>2020-06-08T13:27:46.000Z</time>
      </trkpt>
      <trkpt lat="43.53696" lon="1.45466">
        <ele>202</ele>
        <time>2020-06-08T13:27:47.000Z</time>
      </trkpt>
      <trkpt lat="43.53686" lon="1.45469">
        <ele>201</ele>
        <time>2020-06-08T13:27:48.000Z</time>
      </trkpt>
      <trkpt lat="43.53675" lon="1.45472">
        <ele>200</ele>
        <time>2020-06-08T13:27:49.000Z</time>
      </trkpt>
      <trkpt lat="43.53665" lon="1.45475">
        <ele>199</ele>
        <time>2020-06-08T13:27:50.000Z</time>
      </trkpt>
      <trkpt lat="43.53655" lon="1.45478">
        <ele>197.39999389648</ele>
        <time>2020-06-08T13:27:51.000Z</time>
      </trkpt>
      <trkpt lat="43.53645" lon="1.45482">
        <ele>195.80000305176</ele>
        <time>2020-06-08T13:27:52.000Z</time>
      </trkpt>
      <trkpt lat="43.53636" lon="1.45486">
        <ele>194.80000305176</ele>
        <time>2020-06-08T13:27:53.000Z</time>
      </trkpt>
      <trkpt lat="43.53627" lon="1.45491">
        <ele>193.80000305176</ele>
        <time>2020-06-08T13:27:54.000Z</time>
      </trkpt>
      <trkpt lat="43.53618" lon="1.45496">
        <ele>192.80000305176</ele>
        <time>2020-06-08T13:27:55.000Z</time>
      </trkpt>
      <trkpt lat="43.53609" lon="1.45502">
        <ele>191.19999694824</ele>
        <time>2020-06-08T13:27:56.000Z</time>
      </trkpt>
      <trkpt lat="43.536" lon="1.45508">
        <ele>189.39999389648</ele>
        <time>2020-06-08T13:27:57.000Z</time>
      </trkpt>
      <trkpt lat="43.53591" lon="1.45516">
        <ele>187.80000305176</ele>
        <time>2020-06-08T13:27:58.000Z</time>
      </trkpt>
      <trkpt lat="43.53583" lon="1.45524">
        <ele>185.80000305176</ele>
        <time>2020-06-08T13:27:59.000Z</time>
      </trkpt>
      <trkpt lat="43.53574" lon="1.4553">
        <ele>184.19999694824</ele>
        <time>2020-06-08T13:28:00.000Z</time>
      </trkpt>
      <trkpt lat="43.53566" lon="1.45536">
        <ele>183</ele>
        <time>2020-06-08T13:28:01.000Z</time>
      </trkpt>
      <trkpt lat="43.53558" lon="1.45542">
        <ele>182.60000610352</ele>
        <time>2020-06-08T13:28:02.000Z</time>
      </trkpt>
      <trkpt lat="43.5355" lon="1.45547">
        <ele>182</ele>
        <time>2020-06-08T13:28:03.000Z</time>
      </trkpt>
      <trkpt lat="43.53541" lon="1.45553">
        <ele>181.60000610352</ele>
        <time>2020-06-08T13:28:04.000Z</time>
      </trkpt>
      <trkpt lat="43.53525" lon="1.45567">
        <ele>180.80000305176</ele>
        <time>2020-06-08T13:28:06.000Z</time>
      </trkpt>
      <trkpt lat="43.5351" lon="1.45584">
        <ele>180.39999389648</ele>
        <time>2020-06-08T13:28:08.000Z</time>
      </trkpt>
      <trkpt lat="43.53502" lon="1.45593">
        <ele>179.19999694824</ele>
        <time>2020-06-08T13:28:09.000Z</time>
      </trkpt>
      <trkpt lat="43.53495" lon="1.45601">
        <ele>178.39999389648</ele>
        <time>2020-06-08T13:28:10.000Z</time>
      </trkpt>
      <trkpt lat="43.53488" lon="1.4561">
        <ele>177.39999389648</ele>
        <time>2020-06-08T13:28:11.000Z</time>
      </trkpt>
      <trkpt lat="43.53482" lon="1.45618">
        <ele>175.80000305176</ele>
        <time>2020-06-08T13:28:12.000Z</time>
      </trkpt>
      <trkpt lat="43.53475" lon="1.45627">
        <ele>175</ele>
        <time>2020-06-08T13:28:13.000Z</time>
      </trkpt>
      <trkpt lat="43.5347" lon="1.45635">
        <ele>174</ele>
        <time>2020-06-08T13:28:14.000Z</time>
      </trkpt>
      <trkpt lat="43.53464" lon="1.45643">
        <ele>173.19999694824</ele>
        <time>2020-06-08T13:28:15.000Z</time>
      </trkpt>
      <trkpt lat="43.53459" lon="1.45652">
        <ele>172.60000610352</ele>
        <time>2020-06-08T13:28:16.000Z</time>
      </trkpt>
      <trkpt lat="43.53448" lon="1.45666">
        <ele>172</ele>
        <time>2020-06-08T13:28:18.000Z</time>
      </trkpt>
      <trkpt lat="43.53439" lon="1.45682">
        <ele>172</ele>
        <time>2020-06-08T13:28:20.000Z</time>
      </trkpt>
      <trkpt lat="43.5343" lon="1.45697">
        <ele>171.80000305176</ele>
        <time>2020-06-08T13:28:22.000Z</time>
      </trkpt>
      <trkpt lat="43.53422" lon="1.45711">
        <ele>171.80000305176</ele>
        <time>2020-06-08T13:28:24.000Z</time>
      </trkpt>
      <trkpt lat="43.53415" lon="1.45724">
        <ele>171.60000610352</ele>
        <time>2020-06-08T13:28:26.000Z</time>
      </trkpt>
      <trkpt lat="43.53408" lon="1.45735">
        <ele>172</ele>
        <time>2020-06-08T13:28:28.000Z</time>
      </trkpt>
      <trkpt lat="43.53401" lon="1.45746">
        <ele>172.60000610352</ele>
        <time>2020-06-08T13:28:30.000Z</time>
      </trkpt>
      <trkpt lat="43.53394" lon="1.45756">
        <ele>173.19999694824</ele>
        <time>2020-06-08T13:28:32.000Z</time>
      </trkpt>
      <trkpt lat="43.53388" lon="1.45766">
        <ele>173.60000610352</ele>
        <time>2020-06-08T13:28:34.000Z</time>
      </trkpt>
      <trkpt lat="43.53383" lon="1.45776">
        <ele>174.19999694824</ele>
        <time>2020-06-08T13:28:36.000Z</time>
      </trkpt>
      <trkpt lat="43.53381" lon="1.45781">
        <ele>174.39999389648</ele>
        <time>2020-06-08T13:28:37.000Z</time>
      </trkpt>
      <trkpt lat="43.53378" lon="1.45787">
        <ele>174.39999389648</ele>
        <time>2020-06-08T13:28:38.000Z</time>
      </trkpt>
      <trkpt lat="43.53373" lon="1.45798">
        <ele>174.60000610352</ele>
        <time>2020-06-08T13:28:40.000Z</time>
      </trkpt>
      <trkpt lat="43.53368" lon="1.45809">
        <ele>174.60000610352</ele>
        <time>2020-06-08T13:28:42.000Z</time>
      </trkpt>
      <trkpt lat="43.53363" lon="1.45821">
        <ele>174.80000305176</ele>
        <time>2020-06-08T13:28:44.000Z</time>
      </trkpt>
      <trkpt lat="43.53358" lon="1.45833">
        <ele>175.19999694824</ele>
        <time>2020-06-08T13:28:46.000Z</time>
      </trkpt>
      <trkpt lat="43.53356" lon="1.4584">
        <ele>175.39999389648</ele>
        <time>2020-06-08T13:28:47.000Z</time>
      </trkpt>
      <trkpt lat="43.53354" lon="1.45846">
        <ele>175.39999389648</ele>
        <time>2020-06-08T13:28:48.000Z</time>
      </trkpt>
      <trkpt lat="43.5335" lon="1.45858">
        <ele>175.80000305176</ele>
        <time>2020-06-08T13:28:50.000Z</time>
      </trkpt>
      <trkpt lat="43.53346" lon="1.45871">
        <ele>176</ele>
        <time>2020-06-08T13:28:52.000Z</time>
      </trkpt>
      <trkpt lat="43.53342" lon="1.45883">
        <ele>176.19999694824</ele>
        <time>2020-06-08T13:28:54.000Z</time>
      </trkpt>
      <trkpt lat="43.5334" lon="1.45889">
        <ele>176.19999694824</ele>
        <time>2020-06-08T13:28:55.000Z</time>
      </trkpt>
      <trkpt lat="43.53338" lon="1.45894">
        <ele>176.39999389648</ele>
        <time>2020-06-08T13:28:56.000Z</time>
      </trkpt>
      <trkpt lat="43.53334" lon="1.45905">
        <ele>176.39999389648</ele>
        <time>2020-06-08T13:28:58.000Z</time>
      </trkpt>
      <trkpt lat="43.5333" lon="1.45915">
        <ele>176.39999389648</ele>
        <time>2020-06-08T13:29:00.000Z</time>
      </trkpt>
      <trkpt lat="43.53325" lon="1.45927">
        <ele>176.60000610352</ele>
        <time>2020-06-08T13:29:02.000Z</time>
      </trkpt>
      <trkpt lat="43.53322" lon="1.45938">
        <ele>176.80000305176</ele>
        <time>2020-06-08T13:29:04.000Z</time>
      </trkpt>
      <trkpt lat="43.53318" lon="1.45949">
        <ele>177</ele>
        <time>2020-06-08T13:29:06.000Z</time>
      </trkpt>
      <trkpt lat="43.53315" lon="1.45959">
        <ele>177</ele>
        <time>2020-06-08T13:29:08.000Z</time>
      </trkpt>
      <trkpt lat="43.53311" lon="1.4597">
        <ele>177.19999694824</ele>
        <time>2020-06-08T13:29:10.000Z</time>
      </trkpt>
      <trkpt lat="43.53308" lon="1.45981">
        <ele>177.60000610352</ele>
        <time>2020-06-08T13:29:12.000Z</time>
      </trkpt>
      <trkpt lat="43.53304" lon="1.45992">
        <ele>177.60000610352</ele>
        <time>2020-06-08T13:29:14.000Z</time>
      </trkpt>
      <trkpt lat="43.533" lon="1.46003">
        <ele>177.60000610352</ele>
        <time>2020-06-08T13:29:16.000Z</time>
      </trkpt>
      <trkpt lat="43.53297" lon="1.46014">
        <ele>177.60000610352</ele>
        <time>2020-06-08T13:29:18.000Z</time>
      </trkpt>
      <trkpt lat="43.53293" lon="1.46024">
        <ele>177.80000305176</ele>
        <time>2020-06-08T13:29:20.000Z</time>
      </trkpt>
      <trkpt lat="43.5329" lon="1.46035">
        <ele>177.80000305176</ele>
        <time>2020-06-08T13:29:22.000Z</time>
      </trkpt>
      <trkpt lat="43.53288" lon="1.46045">
        <ele>177.80000305176</ele>
        <time>2020-06-08T13:29:24.000Z</time>
      </trkpt>
      <trkpt lat="43.53285" lon="1.46056">
        <ele>178</ele>
        <time>2020-06-08T13:29:26.000Z</time>
      </trkpt>
      <trkpt lat="43.53283" lon="1.46067">
        <ele>178.19999694824</ele>
        <time>2020-06-08T13:29:28.000Z</time>
      </trkpt>
      <trkpt lat="43.53281" lon="1.46077">
        <ele>178.39999389648</ele>
        <time>2020-06-08T13:29:30.000Z</time>
      </trkpt>
      <trkpt lat="43.53279" lon="1.46087">
        <ele>178.60000610352</ele>
        <time>2020-06-08T13:29:32.000Z</time>
      </trkpt>
      <trkpt lat="43.53278" lon="1.46098">
        <ele>178.60000610352</ele>
        <time>2020-06-08T13:29:34.000Z</time>
      </trkpt>
      <trkpt lat="43.53276" lon="1.46108">
        <ele>178.60000610352</ele>
        <time>2020-06-08T13:29:36.000Z</time>
      </trkpt>
      <trkpt lat="43.53276" lon="1.46118">
        <ele>178.80000305176</ele>
        <time>2020-06-08T13:29:38.000Z</time>
      </trkpt>
      <trkpt lat="43.53275" lon="1.46123">
        <ele>178.80000305176</ele>
        <time>2020-06-08T13:29:39.000Z</time>
      </trkpt>
      <trkpt lat="43.53275" lon="1.46128">
        <ele>179</ele>
        <time>2020-06-08T13:29:40.000Z</time>
      </trkpt>
      <trkpt lat="43.53274" lon="1.46138">
        <ele>179.19999694824</ele>
        <time>2020-06-08T13:29:42.000Z</time>
      </trkpt>
      <trkpt lat="43.53273" lon="1.46147">
        <ele>179.19999694824</ele>
        <time>2020-06-08T13:29:44.000Z</time>
      </trkpt>
      <trkpt lat="43.53272" lon="1.46156">
        <ele>179.60000610352</ele>
        <time>2020-06-08T13:29:46.000Z</time>
      </trkpt>
      <trkpt lat="43.53271" lon="1.46165">
        <ele>180</ele>
        <time>2020-06-08T13:29:48.000Z</time>
      </trkpt>
      <trkpt lat="43.5327" lon="1.46174">
        <ele>180.19999694824</ele>
        <time>2020-06-08T13:29:50.000Z</time>
      </trkpt>
      <trkpt lat="43.53269" lon="1.46183">
        <ele>180.39999389648</ele>
        <time>2020-06-08T13:29:52.000Z</time>
      </trkpt>
      <trkpt lat="43.53268" lon="1.46192">
        <ele>180.60000610352</ele>
        <time>2020-06-08T13:29:54.000Z</time>
      </trkpt>
      <trkpt lat="43.53266" lon="1.46201">
        <ele>180.80000305176</ele>
        <time>2020-06-08T13:29:56.000Z</time>
      </trkpt>
      <trkpt lat="43.53266" lon="1.46205">
        <ele>181</ele>
        <time>2020-06-08T13:29:57.000Z</time>
      </trkpt>
      <trkpt lat="43.53265" lon="1.4621">
        <ele>181.19999694824</ele>
        <time>2020-06-08T13:29:58.000Z</time>
      </trkpt>
      <trkpt lat="43.53264" lon="1.46219">
        <ele>181.60000610352</ele>
        <time>2020-06-08T13:30:00.000Z</time>
      </trkpt>
      <trkpt lat="43.53262" lon="1.46228">
        <ele>181.80000305176</ele>
        <time>2020-06-08T13:30:02.000Z</time>
      </trkpt>
      <trkpt lat="43.53261" lon="1.46236">
        <ele>182</ele>
        <time>2020-06-08T13:30:04.000Z</time>
      </trkpt>
      <trkpt lat="43.5326" lon="1.46245">
        <ele>182.19999694824</ele>
        <time>2020-06-08T13:30:06.000Z</time>
      </trkpt>
      <trkpt lat="43.53259" lon="1.46249">
        <ele>182.19999694824</ele>
        <time>2020-06-08T13:30:07.000Z</time>
      </trkpt>
      <trkpt lat="43.53259" lon="1.46253">
        <ele>182.39999389648</ele>
        <time>2020-06-08T13:30:08.000Z</time>
      </trkpt>
      <trkpt lat="43.53258" lon="1.46261">
        <ele>182.39999389648</ele>
        <time>2020-06-08T13:30:10.000Z</time>
      </trkpt>
      <trkpt lat="43.53257" lon="1.46269">
        <ele>182.60000610352</ele>
        <time>2020-06-08T13:30:12.000Z</time>
      </trkpt>
      <trkpt lat="43.53256" lon="1.46278">
        <ele>183.19999694824</ele>
        <time>2020-06-08T13:30:14.000Z</time>
      </trkpt>
      <trkpt lat="43.53256" lon="1.46282">
        <ele>183.39999389648</ele>
        <time>2020-06-08T13:30:15.000Z</time>
      </trkpt>
      <trkpt lat="43.53256" lon="1.46286">
        <ele>183.39999389648</ele>
        <time>2020-06-08T13:30:16.000Z</time>
      </trkpt>
      <trkpt lat="43.53256" lon="1.46294">
        <ele>183.60000610352</ele>
        <time>2020-06-08T13:30:18.000Z</time>
      </trkpt>
      <trkpt lat="43.53256" lon="1.46303">
        <ele>184</ele>
        <time>2020-06-08T13:30:20.000Z</time>
      </trkpt>
      <trkpt lat="43.53255" lon="1.46311">
        <ele>184.19999694824</ele>
        <time>2020-06-08T13:30:22.000Z</time>
      </trkpt>
      <trkpt lat="43.53255" lon="1.46319">
        <ele>184.39999389648</ele>
        <time>2020-06-08T13:30:24.000Z</time>
      </trkpt>
      <trkpt lat="43.53254" lon="1.46326">
        <ele>184.60000610352</ele>
        <time>2020-06-08T13:30:26.000Z</time>
      </trkpt>
      <trkpt lat="43.53253" lon="1.46333">
        <ele>184.60000610352</ele>
        <time>2020-06-08T13:30:28.000Z</time>
      </trkpt>
      <trkpt lat="43.53251" lon="1.46342">
        <ele>184.60000610352</ele>
        <time>2020-06-08T13:30:30.000Z</time>
      </trkpt>
      <trkpt lat="43.53248" lon="1.46349">
        <ele>184.80000305176</ele>
        <time>2020-06-08T13:30:32.000Z</time>
      </trkpt>
      <trkpt lat="43.53246" lon="1.46356">
        <ele>184.80000305176</ele>
        <time>2020-06-08T13:30:34.000Z</time>
      </trkpt>
      <trkpt lat="43.53244" lon="1.46362">
        <ele>185</ele>
        <time>2020-06-08T13:30:36.000Z</time>
      </trkpt>
      <trkpt lat="43.53243" lon="1.46368">
        <ele>185</ele>
        <time>2020-06-08T13:30:38.000Z</time>
      </trkpt>
      <trkpt lat="43.53241" lon="1.46375">
        <ele>185.19999694824</ele>
        <time>2020-06-08T13:30:40.000Z</time>
      </trkpt>
      <trkpt lat="43.53239" lon="1.46383">
        <ele>185.39999389648</ele>
        <time>2020-06-08T13:30:42.000Z</time>
      </trkpt>
      <trkpt lat="43.53236" lon="1.46391">
        <ele>185.60000610352</ele>
        <time>2020-06-08T13:30:44.000Z</time>
      </trkpt>
      <trkpt lat="43.53234" lon="1.46399">
        <ele>185.60000610352</ele>
        <time>2020-06-08T13:30:46.000Z</time>
      </trkpt>
      <trkpt lat="43.53231" lon="1.46406">
        <ele>185.60000610352</ele>
        <time>2020-06-08T13:30:48.000Z</time>
      </trkpt>
      <trkpt lat="43.53229" lon="1.46409">
        <ele>185.80000305176</ele>
        <time>2020-06-08T13:30:49.000Z</time>
      </trkpt>
      <trkpt lat="43.53227" lon="1.4641">
        <ele>185.80000305176</ele>
        <time>2020-06-08T13:30:50.000Z</time>
      </trkpt>
      <trkpt lat="43.53223" lon="1.4641">
        <ele>185.80000305176</ele>
        <time>2020-06-08T13:30:52.000Z</time>
      </trkpt>
      <trkpt lat="43.53221" lon="1.46407">
        <ele>185.80000305176</ele>
        <time>2020-06-08T13:30:54.000Z</time>
      </trkpt>
      <trkpt lat="43.53219" lon="1.46403">
        <ele>186</ele>
        <time>2020-06-08T13:30:56.000Z</time>
      </trkpt>
      <trkpt lat="43.53218" lon="1.464">
        <ele>186</ele>
        <time>2020-06-08T13:30:57.000Z</time>
      </trkpt>
      <trkpt lat="43.53217" lon="1.46396">
        <ele>186</ele>
        <time>2020-06-08T13:30:58.000Z</time>
      </trkpt>
      <trkpt lat="43.53215" lon="1.46388">
        <ele>186</ele>
        <time>2020-06-08T13:31:00.000Z</time>
      </trkpt>
      <trkpt lat="43.53213" lon="1.4638">
        <ele>186.19999694824</ele>
        <time>2020-06-08T13:31:02.000Z</time>
      </trkpt>
      <trkpt lat="43.53211" lon="1.46371">
        <ele>186.19999694824</ele>
        <time>2020-06-08T13:31:04.000Z</time>
      </trkpt>
      <trkpt lat="43.53209" lon="1.46364">
        <ele>186.19999694824</ele>
        <time>2020-06-08T13:31:06.000Z</time>
      </trkpt>
      <trkpt lat="43.53206" lon="1.46357">
        <ele>186.39999389648</ele>
        <time>2020-06-08T13:31:08.000Z</time>
      </trkpt>
      <trkpt lat="43.53204" lon="1.46351">
        <ele>186.60000610352</ele>
        <time>2020-06-08T13:31:10.000Z</time>
      </trkpt>
      <trkpt lat="43.53203" lon="1.46345">
        <ele>187</ele>
        <time>2020-06-08T13:31:12.000Z</time>
      </trkpt>
      <trkpt lat="43.53202" lon="1.4634">
        <ele>187.39999389648</ele>
        <time>2020-06-08T13:31:14.000Z</time>
      </trkpt>
      <trkpt lat="43.53201" lon="1.46336">
        <ele>187.39999389648</ele>
        <time>2020-06-08T13:31:16.000Z</time>
      </trkpt>
      <trkpt lat="43.53199" lon="1.46332">
        <ele>187.60000610352</ele>
        <time>2020-06-08T13:31:18.000Z</time>
      </trkpt>
      <trkpt lat="43.53198" lon="1.46329">
        <ele>187.60000610352</ele>
        <time>2020-06-08T13:31:19.000Z</time>
      </trkpt>
      <trkpt lat="43.53198" lon="1.46327">
        <ele>187.60000610352</ele>
        <time>2020-06-08T13:31:20.000Z</time>
      </trkpt>
      <trkpt lat="43.53197" lon="1.46322">
        <ele>188</ele>
        <time>2020-06-08T13:31:22.000Z</time>
      </trkpt>
      <trkpt lat="43.53195" lon="1.46317">
        <ele>188.60000610352</ele>
        <time>2020-06-08T13:31:24.000Z</time>
      </trkpt>
      <trkpt lat="43.53195" lon="1.46314">
        <ele>188.80000305176</ele>
        <time>2020-06-08T13:31:25.000Z</time>
      </trkpt>
      <trkpt lat="43.53194" lon="1.46312">
        <ele>189.19999694824</ele>
        <time>2020-06-08T13:31:26.000Z</time>
      </trkpt>
      <trkpt lat="43.53193" lon="1.46306">
        <ele>190</ele>
        <time>2020-06-08T13:31:28.000Z</time>
      </trkpt>
      <trkpt lat="43.53191" lon="1.463">
        <ele>190.19999694824</ele>
        <time>2020-06-08T13:31:30.000Z</time>
      </trkpt>
      <trkpt lat="43.53189" lon="1.46294">
        <ele>190.19999694824</ele>
        <time>2020-06-08T13:31:32.000Z</time>
      </trkpt>
      <trkpt lat="43.53188" lon="1.46288">
        <ele>190.60000610352</ele>
        <time>2020-06-08T13:31:34.000Z</time>
      </trkpt>
      <trkpt lat="43.53187" lon="1.46285">
        <ele>191</ele>
        <time>2020-06-08T13:31:35.000Z</time>
      </trkpt>
      <trkpt lat="43.53186" lon="1.46283">
        <ele>191.19999694824</ele>
        <time>2020-06-08T13:31:36.000Z</time>
      </trkpt>
      <trkpt lat="43.53185" lon="1.46277">
        <ele>191.39999389648</ele>
        <time>2020-06-08T13:31:38.000Z</time>
      </trkpt>
      <trkpt lat="43.53184" lon="1.46271">
        <ele>191.60000610352</ele>
        <time>2020-06-08T13:31:40.000Z</time>
      </trkpt>
      <trkpt lat="43.53182" lon="1.46266">
        <ele>191.80000305176</ele>
        <time>2020-06-08T13:31:42.000Z</time>
      </trkpt>
      <trkpt lat="43.53181" lon="1.46263">
        <ele>192</ele>
        <time>2020-06-08T13:31:43.000Z</time>
      </trkpt>
      <trkpt lat="43.53181" lon="1.4626">
        <ele>192.19999694824</ele>
        <time>2020-06-08T13:31:44.000Z</time>
      </trkpt>
      <trkpt lat="43.53179" lon="1.46254">
        <ele>193</ele>
        <time>2020-06-08T13:31:46.000Z</time>
      </trkpt>
      <trkpt lat="43.53178" lon="1.4625">
        <ele>193</ele>
        <time>2020-06-08T13:31:47.000Z</time>
      </trkpt>
      <trkpt lat="43.53177" lon="1.46247">
        <ele>193.19999694824</ele>
        <time>2020-06-08T13:31:48.000Z</time>
      </trkpt>
      <trkpt lat="43.53175" lon="1.46241">
        <ele>193.60000610352</ele>
        <time>2020-06-08T13:31:50.000Z</time>
      </trkpt>
      <trkpt lat="43.53173" lon="1.46235">
        <ele>193.80000305176</ele>
        <time>2020-06-08T13:31:52.000Z</time>
      </trkpt>
      <trkpt lat="43.53172" lon="1.46232">
        <ele>194.19999694824</ele>
        <time>2020-06-08T13:31:53.000Z</time>
      </trkpt>
      <trkpt lat="43.53171" lon="1.46229">
        <ele>194.60000610352</ele>
        <time>2020-06-08T13:31:54.000Z</time>
      </trkpt>
      <trkpt lat="43.5317" lon="1.46224">
        <ele>195.19999694824</ele>
        <time>2020-06-08T13:31:56.000Z</time>
      </trkpt>
      <trkpt lat="43.53167" lon="1.46218">
        <ele>195.60000610352</ele>
        <time>2020-06-08T13:31:58.000Z</time>
      </trkpt>
      <trkpt lat="43.53165" lon="1.46213">
        <ele>196</ele>
        <time>2020-06-08T13:32:00.000Z</time>
      </trkpt>
      <trkpt lat="43.53163" lon="1.46208">
        <ele>196.19999694824</ele>
        <time>2020-06-08T13:32:02.000Z</time>
      </trkpt>
      <trkpt lat="43.5316" lon="1.46203">
        <ele>196.60000610352</ele>
        <time>2020-06-08T13:32:04.000Z</time>
      </trkpt>
      <trkpt lat="43.53158" lon="1.46198">
        <ele>197</ele>
        <time>2020-06-08T13:32:06.000Z</time>
      </trkpt>
      <trkpt lat="43.53156" lon="1.46194">
        <ele>197.19999694824</ele>
        <time>2020-06-08T13:32:08.000Z</time>
      </trkpt>
      <trkpt lat="43.53155" lon="1.46191">
        <ele>197.39999389648</ele>
        <time>2020-06-08T13:32:09.000Z</time>
      </trkpt>
      <trkpt lat="43.53154" lon="1.46189">
        <ele>197.60000610352</ele>
        <time>2020-06-08T13:32:10.000Z</time>
      </trkpt>
      <trkpt lat="43.53151" lon="1.46184">
        <ele>198.19999694824</ele>
        <time>2020-06-08T13:32:12.000Z</time>
      </trkpt>
      <trkpt lat="43.5315" lon="1.46181">
        <ele>198.60000610352</ele>
        <time>2020-06-08T13:32:13.000Z</time>
      </trkpt>
      <trkpt lat="43.53148" lon="1.46179">
        <ele>198.80000305176</ele>
        <time>2020-06-08T13:32:14.000Z</time>
      </trkpt>
      <trkpt lat="43.53144" lon="1.46175">
        <ele>199</ele>
        <time>2020-06-08T13:32:16.000Z</time>
      </trkpt>
      <trkpt lat="43.53141" lon="1.46171">
        <ele>199.19999694824</ele>
        <time>2020-06-08T13:32:18.000Z</time>
      </trkpt>
      <trkpt lat="43.53138" lon="1.46167">
        <ele>199.19999694824</ele>
        <time>2020-06-08T13:32:20.000Z</time>
      </trkpt>
      <trkpt lat="43.53135" lon="1.46164">
        <ele>199.60000610352</ele>
        <time>2020-06-08T13:32:22.000Z</time>
      </trkpt>
      <trkpt lat="43.53133" lon="1.46161">
        <ele>200</ele>
        <time>2020-06-08T13:32:24.000Z</time>
      </trkpt>
      <trkpt lat="43.5313" lon="1.46158">
        <ele>200.39999389648</ele>
        <time>2020-06-08T13:32:26.000Z</time>
      </trkpt>
      <trkpt lat="43.53127" lon="1.46155">
        <ele>200.60000610352</ele>
        <time>2020-06-08T13:32:28.000Z</time>
      </trkpt>
      <trkpt lat="43.53124" lon="1.46152">
        <ele>201</ele>
        <time>2020-06-08T13:32:30.000Z</time>
      </trkpt>
      <trkpt lat="43.53121" lon="1.46149">
        <ele>201.39999389648</ele>
        <time>2020-06-08T13:32:32.000Z</time>
      </trkpt>
      <trkpt lat="43.53118" lon="1.46145">
        <ele>201.80000305176</ele>
        <time>2020-06-08T13:32:34.000Z</time>
      </trkpt>
      <trkpt lat="43.53114" lon="1.46142">
        <ele>202</ele>
        <time>2020-06-08T13:32:36.000Z</time>
      </trkpt>
      <trkpt lat="43.53111" lon="1.46139">
        <ele>202</ele>
        <time>2020-06-08T13:32:38.000Z</time>
      </trkpt>
      <trkpt lat="43.53107" lon="1.46136">
        <ele>202.19999694824</ele>
        <time>2020-06-08T13:32:40.000Z</time>
      </trkpt>
      <trkpt lat="43.53103" lon="1.46133">
        <ele>202.60000610352</ele>
        <time>2020-06-08T13:32:42.000Z</time>
      </trkpt>
      <trkpt lat="43.53101" lon="1.46132">
        <ele>202.80000305176</ele>
        <time>2020-06-08T13:32:43.000Z</time>
      </trkpt>
      <trkpt lat="43.53099" lon="1.4613">
        <ele>203.19999694824</ele>
        <time>2020-06-08T13:32:44.000Z</time>
      </trkpt>
      <trkpt lat="43.53095" lon="1.46128">
        <ele>203.39999389648</ele>
        <time>2020-06-08T13:32:46.000Z</time>
      </trkpt>
      <trkpt lat="43.53092" lon="1.46125">
        <ele>203.60000610352</ele>
        <time>2020-06-08T13:32:48.000Z</time>
      </trkpt>
      <trkpt lat="43.53088" lon="1.46123">
        <ele>203.80000305176</ele>
        <time>2020-06-08T13:32:50.000Z</time>
      </trkpt>
      <trkpt lat="43.53085" lon="1.46121">
        <ele>204</ele>
        <time>2020-06-08T13:32:52.000Z</time>
      </trkpt>
      <trkpt lat="43.53081" lon="1.4612">
        <ele>204.39999389648</ele>
        <time>2020-06-08T13:32:54.000Z</time>
      </trkpt>
      <trkpt lat="43.53077" lon="1.46117">
        <ele>204.80000305176</ele>
        <time>2020-06-08T13:32:56.000Z</time>
      </trkpt>
      <trkpt lat="43.53074" lon="1.46115">
        <ele>205.19999694824</ele>
        <time>2020-06-08T13:32:58.000Z</time>
      </trkpt>
      <trkpt lat="43.5307" lon="1.46113">
        <ele>205.60000610352</ele>
        <time>2020-06-08T13:33:00.000Z</time>
      </trkpt>
      <trkpt lat="43.53065" lon="1.46112">
        <ele>205.80000305176</ele>
        <time>2020-06-08T13:33:02.000Z</time>
      </trkpt>
      <trkpt lat="43.53061" lon="1.46109">
        <ele>206.19999694824</ele>
        <time>2020-06-08T13:33:04.000Z</time>
      </trkpt>
      <trkpt lat="43.53057" lon="1.46108">
        <ele>206.19999694824</ele>
        <time>2020-06-08T13:33:06.000Z</time>
      </trkpt>
      <trkpt lat="43.53053" lon="1.46106">
        <ele>206.80000305176</ele>
        <time>2020-06-08T13:33:08.000Z</time>
      </trkpt>
      <trkpt lat="43.53051" lon="1.46106">
        <ele>207</ele>
        <time>2020-06-08T13:33:09.000Z</time>
      </trkpt>
      <trkpt lat="43.53049" lon="1.46105">
        <ele>207.19999694824</ele>
        <time>2020-06-08T13:33:10.000Z</time>
      </trkpt>
      <trkpt lat="43.53045" lon="1.46105">
        <ele>207.60000610352</ele>
        <time>2020-06-08T13:33:12.000Z</time>
      </trkpt>
      <trkpt lat="43.53041" lon="1.46104">
        <ele>208.19999694824</ele>
        <time>2020-06-08T13:33:14.000Z</time>
      </trkpt>
      <trkpt lat="43.53037" lon="1.46103">
        <ele>208.39999389648</ele>
        <time>2020-06-08T13:33:16.000Z</time>
      </trkpt>
      <trkpt lat="43.53034" lon="1.46103">
        <ele>208.80000305176</ele>
        <time>2020-06-08T13:33:18.000Z</time>
      </trkpt>
      <trkpt lat="43.53032" lon="1.46102">
        <ele>209.19999694824</ele>
        <time>2020-06-08T13:33:19.000Z</time>
      </trkpt>
      <trkpt lat="43.5303" lon="1.46102">
        <ele>209.39999389648</ele>
        <time>2020-06-08T13:33:20.000Z</time>
      </trkpt>
      <trkpt lat="43.53026" lon="1.46102">
        <ele>209.60000610352</ele>
        <time>2020-06-08T13:33:22.000Z</time>
      </trkpt>
      <trkpt lat="43.53022" lon="1.46102">
        <ele>210</ele>
        <time>2020-06-08T13:33:24.000Z</time>
      </trkpt>
      <trkpt lat="43.53019" lon="1.46102">
        <ele>210.19999694824</ele>
        <time>2020-06-08T13:33:26.000Z</time>
      </trkpt>
      <trkpt lat="43.53017" lon="1.46102">
        <ele>210.39999389648</ele>
        <time>2020-06-08T13:33:27.000Z</time>
      </trkpt>
      <trkpt lat="43.53015" lon="1.46102">
        <ele>210.39999389648</ele>
        <time>2020-06-08T13:33:28.000Z</time>
      </trkpt>
      <trkpt lat="43.53011" lon="1.46102">
        <ele>210.60000610352</ele>
        <time>2020-06-08T13:33:30.000Z</time>
      </trkpt>
      <trkpt lat="43.53008" lon="1.46102">
        <ele>211</ele>
        <time>2020-06-08T13:33:32.000Z</time>
      </trkpt>
      <trkpt lat="43.53004" lon="1.46102">
        <ele>211.39999389648</ele>
        <time>2020-06-08T13:33:34.000Z</time>
      </trkpt>
      <trkpt lat="43.53" lon="1.46102">
        <ele>211.80000305176</ele>
        <time>2020-06-08T13:33:36.000Z</time>
      </trkpt>
      <trkpt lat="43.52996" lon="1.46104">
        <ele>212</ele>
        <time>2020-06-08T13:33:38.000Z</time>
      </trkpt>
      <trkpt lat="43.52991" lon="1.46105">
        <ele>212.19999694824</ele>
        <time>2020-06-08T13:33:40.000Z</time>
      </trkpt>
      <trkpt lat="43.52987" lon="1.46107">
        <ele>212.60000610352</ele>
        <time>2020-06-08T13:33:42.000Z</time>
      </trkpt>
      <trkpt lat="43.52982" lon="1.46109">
        <ele>212.60000610352</ele>
        <time>2020-06-08T13:33:44.000Z</time>
      </trkpt>
      <trkpt lat="43.52977" lon="1.46111">
        <ele>213</ele>
        <time>2020-06-08T13:33:46.000Z</time>
      </trkpt>
      <trkpt lat="43.52972" lon="1.46113">
        <ele>213.39999389648</ele>
        <time>2020-06-08T13:33:48.000Z</time>
      </trkpt>
      <trkpt lat="43.5297" lon="1.46114">
        <ele>213.60000610352</ele>
        <time>2020-06-08T13:33:49.000Z</time>
      </trkpt>
      <trkpt lat="43.52967" lon="1.46115">
        <ele>213.80000305176</ele>
        <time>2020-06-08T13:33:50.000Z</time>
      </trkpt>
      <trkpt lat="43.52963" lon="1.46118">
        <ele>214</ele>
        <time>2020-06-08T13:33:52.000Z</time>
      </trkpt>
      <trkpt lat="43.52959" lon="1.46121">
        <ele>214.60000610352</ele>
        <time>2020-06-08T13:33:54.000Z</time>
      </trkpt>
      <trkpt lat="43.52956" lon="1.46122">
        <ele>214.80000305176</ele>
        <time>2020-06-08T13:33:55.000Z</time>
      </trkpt>
      <trkpt lat="43.52954" lon="1.46124">
        <ele>215</ele>
        <time>2020-06-08T13:33:56.000Z</time>
      </trkpt>
      <trkpt lat="43.52951" lon="1.46127">
        <ele>215.39999389648</ele>
        <time>2020-06-08T13:33:58.000Z</time>
      </trkpt>
      <trkpt lat="43.52947" lon="1.46129">
        <ele>215.60000610352</ele>
        <time>2020-06-08T13:34:00.000Z</time>
      </trkpt>
      <trkpt lat="43.52946" lon="1.46131">
        <ele>215.80000305176</ele>
        <time>2020-06-08T13:34:01.000Z</time>
      </trkpt>
      <trkpt lat="43.52944" lon="1.46132">
        <ele>216</ele>
        <time>2020-06-08T13:34:02.000Z</time>
      </trkpt>
      <trkpt lat="43.5294" lon="1.46135">
        <ele>216.60000610352</ele>
        <time>2020-06-08T13:34:04.000Z</time>
      </trkpt>
      <trkpt lat="43.52938" lon="1.46137">
        <ele>216.80000305176</ele>
        <time>2020-06-08T13:34:05.000Z</time>
      </trkpt>
      <trkpt lat="43.52936" lon="1.46138">
        <ele>217</ele>
        <time>2020-06-08T13:34:06.000Z</time>
      </trkpt>
      <trkpt lat="43.52932" lon="1.46141">
        <ele>217.19999694824</ele>
        <time>2020-06-08T13:34:08.000Z</time>
      </trkpt>
      <trkpt lat="43.5293" lon="1.46142">
        <ele>217.19999694824</ele>
        <time>2020-06-08T13:34:09.000Z</time>
      </trkpt>
      <trkpt lat="43.52928" lon="1.46144">
        <ele>217.39999389648</ele>
        <time>2020-06-08T13:34:10.000Z</time>
      </trkpt>
      <trkpt lat="43.52924" lon="1.46146">
        <ele>217.60000610352</ele>
        <time>2020-06-08T13:34:12.000Z</time>
      </trkpt>
      <trkpt lat="43.5292" lon="1.46149">
        <ele>217.80000305176</ele>
        <time>2020-06-08T13:34:14.000Z</time>
      </trkpt>
      <trkpt lat="43.52917" lon="1.46152">
        <ele>218</ele>
        <time>2020-06-08T13:34:16.000Z</time>
      </trkpt>
      <trkpt lat="43.52913" lon="1.46154">
        <ele>218.19999694824</ele>
        <time>2020-06-08T13:34:18.000Z</time>
      </trkpt>
      <trkpt lat="43.5291" lon="1.46156">
        <ele>218.80000305176</ele>
        <time>2020-06-08T13:34:20.000Z</time>
      </trkpt>
      <trkpt lat="43.52908" lon="1.46157">
        <ele>219</ele>
        <time>2020-06-08T13:34:21.000Z</time>
      </trkpt>
      <trkpt lat="43.52907" lon="1.46159">
        <ele>219.19999694824</ele>
        <time>2020-06-08T13:34:22.000Z</time>
      </trkpt>
      <trkpt lat="43.52903" lon="1.46161">
        <ele>219.60000610352</ele>
        <time>2020-06-08T13:34:24.000Z</time>
      </trkpt>
      <trkpt lat="43.52899" lon="1.46164">
        <ele>219.80000305176</ele>
        <time>2020-06-08T13:34:26.000Z</time>
      </trkpt>
      <trkpt lat="43.52896" lon="1.46166">
        <ele>219.80000305176</ele>
        <time>2020-06-08T13:34:28.000Z</time>
      </trkpt>
      <trkpt lat="43.52891" lon="1.46169">
        <ele>220</ele>
        <time>2020-06-08T13:34:30.000Z</time>
      </trkpt>
      <trkpt lat="43.52889" lon="1.4617">
        <ele>220.19999694824</ele>
        <time>2020-06-08T13:34:31.000Z</time>
      </trkpt>
      <trkpt lat="43.52887" lon="1.46171">
        <ele>220.19999694824</ele>
        <time>2020-06-08T13:34:32.000Z</time>
      </trkpt>
      <trkpt lat="43.52883" lon="1.46174">
        <ele>220.60000610352</ele>
        <time>2020-06-08T13:34:34.000Z</time>
      </trkpt>
      <trkpt lat="43.52879" lon="1.46177">
        <ele>221</ele>
        <time>2020-06-08T13:34:36.000Z</time>
      </trkpt>
      <trkpt lat="43.52875" lon="1.4618">
        <ele>221.39999389648</ele>
        <time>2020-06-08T13:34:38.000Z</time>
      </trkpt>
      <trkpt lat="43.52871" lon="1.46183">
        <ele>221.80000305176</ele>
        <time>2020-06-08T13:34:40.000Z</time>
      </trkpt>
      <trkpt lat="43.52867" lon="1.46185">
        <ele>222</ele>
        <time>2020-06-08T13:34:42.000Z</time>
      </trkpt>
      <trkpt lat="43.52863" lon="1.46188">
        <ele>222</ele>
        <time>2020-06-08T13:34:44.000Z</time>
      </trkpt>
      <trkpt lat="43.52859" lon="1.46191">
        <ele>222.19999694824</ele>
        <time>2020-06-08T13:34:46.000Z</time>
      </trkpt>
      <trkpt lat="43.52855" lon="1.46194">
        <ele>222.39999389648</ele>
        <time>2020-06-08T13:34:48.000Z</time>
      </trkpt>
      <trkpt lat="43.52853" lon="1.46195">
        <ele>222.60000610352</ele>
        <time>2020-06-08T13:34:49.000Z</time>
      </trkpt>
      <trkpt lat="43.52851" lon="1.46196">
        <ele>223</ele>
        <time>2020-06-08T13:34:50.000Z</time>
      </trkpt>
      <trkpt lat="43.52846" lon="1.46199">
        <ele>223.80000305176</ele>
        <time>2020-06-08T13:34:52.000Z</time>
      </trkpt>
      <trkpt lat="43.52842" lon="1.46202">
        <ele>224</ele>
        <time>2020-06-08T13:34:54.000Z</time>
      </trkpt>
      <trkpt lat="43.52838" lon="1.46204">
        <ele>224.19999694824</ele>
        <time>2020-06-08T13:34:56.000Z</time>
      </trkpt>
      <trkpt lat="43.52834" lon="1.46207">
        <ele>224.19999694824</ele>
        <time>2020-06-08T13:34:58.000Z</time>
      </trkpt>
      <trkpt lat="43.5283" lon="1.4621">
        <ele>224.60000610352</ele>
        <time>2020-06-08T13:35:00.000Z</time>
      </trkpt>
      <trkpt lat="43.52828" lon="1.46211">
        <ele>224.80000305176</ele>
        <time>2020-06-08T13:35:01.000Z</time>
      </trkpt>
      <trkpt lat="43.52826" lon="1.46212">
        <ele>225</ele>
        <time>2020-06-08T13:35:02.000Z</time>
      </trkpt>
      <trkpt lat="43.52822" lon="1.46216">
        <ele>225.39999389648</ele>
        <time>2020-06-08T13:35:04.000Z</time>
      </trkpt>
      <trkpt lat="43.52819" lon="1.46219">
        <ele>225.60000610352</ele>
        <time>2020-06-08T13:35:06.000Z</time>
      </trkpt>
      <trkpt lat="43.52815" lon="1.46221">
        <ele>226</ele>
        <time>2020-06-08T13:35:08.000Z</time>
      </trkpt>
      <trkpt lat="43.52811" lon="1.46224">
        <ele>226.39999389648</ele>
        <time>2020-06-08T13:35:10.000Z</time>
      </trkpt>
      <trkpt lat="43.52807" lon="1.46227">
        <ele>226.39999389648</ele>
        <time>2020-06-08T13:35:12.000Z</time>
      </trkpt>
      <trkpt lat="43.52803" lon="1.46229">
        <ele>226.60000610352</ele>
        <time>2020-06-08T13:35:14.000Z</time>
      </trkpt>
      <trkpt lat="43.52799" lon="1.46232">
        <ele>226.80000305176</ele>
        <time>2020-06-08T13:35:16.000Z</time>
      </trkpt>
      <trkpt lat="43.52795" lon="1.46235">
        <ele>227.19999694824</ele>
        <time>2020-06-08T13:35:18.000Z</time>
      </trkpt>
      <trkpt lat="43.52791" lon="1.46237">
        <ele>227.39999389648</ele>
        <time>2020-06-08T13:35:20.000Z</time>
      </trkpt>
      <trkpt lat="43.52787" lon="1.4624">
        <ele>227.80000305176</ele>
        <time>2020-06-08T13:35:22.000Z</time>
      </trkpt>
      <trkpt lat="43.52782" lon="1.46242">
        <ele>228.19999694824</ele>
        <time>2020-06-08T13:35:24.000Z</time>
      </trkpt>
      <trkpt lat="43.5278" lon="1.46243">
        <ele>228.39999389648</ele>
        <time>2020-06-08T13:35:25.000Z</time>
      </trkpt>
      <trkpt lat="43.52778" lon="1.46244">
        <ele>228.39999389648</ele>
        <time>2020-06-08T13:35:26.000Z</time>
      </trkpt>
      <trkpt lat="43.52774" lon="1.46247">
        <ele>228.80000305176</ele>
        <time>2020-06-08T13:35:28.000Z</time>
      </trkpt>
      <trkpt lat="43.5277" lon="1.4625">
        <ele>229.19999694824</ele>
        <time>2020-06-08T13:35:30.000Z</time>
      </trkpt>
      <trkpt lat="43.52766" lon="1.46253">
        <ele>229.39999389648</ele>
        <time>2020-06-08T13:35:32.000Z</time>
      </trkpt>
      <trkpt lat="43.52762" lon="1.46255">
        <ele>229.60000610352</ele>
        <time>2020-06-08T13:35:34.000Z</time>
      </trkpt>
      <trkpt lat="43.52758" lon="1.46257">
        <ele>230</ele>
        <time>2020-06-08T13:35:36.000Z</time>
      </trkpt>
      <trkpt lat="43.52754" lon="1.46259">
        <ele>230.39999389648</ele>
        <time>2020-06-08T13:35:38.000Z</time>
      </trkpt>
      <trkpt lat="43.52752" lon="1.4626">
        <ele>230.60000610352</ele>
        <time>2020-06-08T13:35:39.000Z</time>
      </trkpt>
      <trkpt lat="43.5275" lon="1.46262">
        <ele>230.80000305176</ele>
        <time>2020-06-08T13:35:40.000Z</time>
      </trkpt>
      <trkpt lat="43.52745" lon="1.46264">
        <ele>231.19999694824</ele>
        <time>2020-06-08T13:35:42.000Z</time>
      </trkpt>
      <trkpt lat="43.52743" lon="1.46265">
        <ele>231.60000610352</ele>
        <time>2020-06-08T13:35:43.000Z</time>
      </trkpt>
      <trkpt lat="43.52741" lon="1.46266">
        <ele>231.80000305176</ele>
        <time>2020-06-08T13:35:44.000Z</time>
      </trkpt>
      <trkpt lat="43.52737" lon="1.46269">
        <ele>232.19999694824</ele>
        <time>2020-06-08T13:35:46.000Z</time>
      </trkpt>
      <trkpt lat="43.52732" lon="1.46271">
        <ele>232.60000610352</ele>
        <time>2020-06-08T13:35:48.000Z</time>
      </trkpt>
      <trkpt lat="43.52728" lon="1.46273">
        <ele>233</ele>
        <time>2020-06-08T13:35:50.000Z</time>
      </trkpt>
      <trkpt lat="43.52724" lon="1.46275">
        <ele>233.39999389648</ele>
        <time>2020-06-08T13:35:52.000Z</time>
      </trkpt>
      <trkpt lat="43.52722" lon="1.46276">
        <ele>233.60000610352</ele>
        <time>2020-06-08T13:35:53.000Z</time>
      </trkpt>
      <trkpt lat="43.5272" lon="1.46276">
        <ele>233.80000305176</ele>
        <time>2020-06-08T13:35:54.000Z</time>
      </trkpt>
      <trkpt lat="43.52715" lon="1.46278">
        <ele>234.19999694824</ele>
        <time>2020-06-08T13:35:56.000Z</time>
      </trkpt>
      <trkpt lat="43.52711" lon="1.46279">
        <ele>234.60000610352</ele>
        <time>2020-06-08T13:35:58.000Z</time>
      </trkpt>
      <trkpt lat="43.52706" lon="1.46279">
        <ele>234.60000610352</ele>
        <time>2020-06-08T13:36:00.000Z</time>
      </trkpt>
      <trkpt lat="43.52701" lon="1.4628">
        <ele>235</ele>
        <time>2020-06-08T13:36:02.000Z</time>
      </trkpt>
      <trkpt lat="43.52696" lon="1.4628">
        <ele>235.39999389648</ele>
        <time>2020-06-08T13:36:04.000Z</time>
      </trkpt>
      <trkpt lat="43.52691" lon="1.46279">
        <ele>235.80000305176</ele>
        <time>2020-06-08T13:36:06.000Z</time>
      </trkpt>
      <trkpt lat="43.52686" lon="1.46279">
        <ele>236.39999389648</ele>
        <time>2020-06-08T13:36:08.000Z</time>
      </trkpt>
      <trkpt lat="43.52682" lon="1.46278">
        <ele>236.80000305176</ele>
        <time>2020-06-08T13:36:10.000Z</time>
      </trkpt>
      <trkpt lat="43.52679" lon="1.46277">
        <ele>237</ele>
        <time>2020-06-08T13:36:11.000Z</time>
      </trkpt>
      <trkpt lat="43.52677" lon="1.46277">
        <ele>237.19999694824</ele>
        <time>2020-06-08T13:36:12.000Z</time>
      </trkpt>
      <trkpt lat="43.52672" lon="1.46275">
        <ele>237.19999694824</ele>
        <time>2020-06-08T13:36:14.000Z</time>
      </trkpt>
      <trkpt lat="43.52667" lon="1.46274">
        <ele>237.60000610352</ele>
        <time>2020-06-08T13:36:16.000Z</time>
      </trkpt>
      <trkpt lat="43.52663" lon="1.46273">
        <ele>237.80000305176</ele>
        <time>2020-06-08T13:36:18.000Z</time>
      </trkpt>
      <trkpt lat="43.52658" lon="1.46271">
        <ele>238</ele>
        <time>2020-06-08T13:36:20.000Z</time>
      </trkpt>
      <trkpt lat="43.52656" lon="1.4627">
        <ele>238</ele>
        <time>2020-06-08T13:36:21.000Z</time>
      </trkpt>
      <trkpt lat="43.52654" lon="1.46269">
        <ele>238.19999694824</ele>
        <time>2020-06-08T13:36:22.000Z</time>
      </trkpt>
      <trkpt lat="43.52649" lon="1.46268">
        <ele>238.39999389648</ele>
        <time>2020-06-08T13:36:24.000Z</time>
      </trkpt>
      <trkpt lat="43.52645" lon="1.46266">
        <ele>238.39999389648</ele>
        <time>2020-06-08T13:36:26.000Z</time>
      </trkpt>
      <trkpt lat="43.5264" lon="1.46264">
        <ele>238.80000305176</ele>
        <time>2020-06-08T13:36:28.000Z</time>
      </trkpt>
      <trkpt lat="43.52635" lon="1.46262">
        <ele>239</ele>
        <time>2020-06-08T13:36:30.000Z</time>
      </trkpt>
      <trkpt lat="43.52633" lon="1.46261">
        <ele>239.19999694824</ele>
        <time>2020-06-08T13:36:31.000Z</time>
      </trkpt>
      <trkpt lat="43.5263" lon="1.4626">
        <ele>239.39999389648</ele>
        <time>2020-06-08T13:36:32.000Z</time>
      </trkpt>
      <trkpt lat="43.52625" lon="1.46258">
        <ele>239.80000305176</ele>
        <time>2020-06-08T13:36:34.000Z</time>
      </trkpt>
      <trkpt lat="43.52621" lon="1.46257">
        <ele>240</ele>
        <time>2020-06-08T13:36:36.000Z</time>
      </trkpt>
      <trkpt lat="43.52616" lon="1.46255">
        <ele>240.19999694824</ele>
        <time>2020-06-08T13:36:38.000Z</time>
      </trkpt>
      <trkpt lat="43.52611" lon="1.46253">
        <ele>240.60000610352</ele>
        <time>2020-06-08T13:36:40.000Z</time>
      </trkpt>
      <trkpt lat="43.52606" lon="1.46251">
        <ele>241</ele>
        <time>2020-06-08T13:36:42.000Z</time>
      </trkpt>
      <trkpt lat="43.52601" lon="1.46249">
        <ele>241.39999389648</ele>
        <time>2020-06-08T13:36:44.000Z</time>
      </trkpt>
      <trkpt lat="43.52596" lon="1.46247">
        <ele>241.80000305176</ele>
        <time>2020-06-08T13:36:46.000Z</time>
      </trkpt>
      <trkpt lat="43.52591" lon="1.46245">
        <ele>242</ele>
        <time>2020-06-08T13:36:48.000Z</time>
      </trkpt>
      <trkpt lat="43.52587" lon="1.46244">
        <ele>242.19999694824</ele>
        <time>2020-06-08T13:36:50.000Z</time>
      </trkpt>
      <trkpt lat="43.52584" lon="1.46243">
        <ele>242.39999389648</ele>
        <time>2020-06-08T13:36:51.000Z</time>
      </trkpt>
      <trkpt lat="43.52582" lon="1.46242">
        <ele>242.60000610352</ele>
        <time>2020-06-08T13:36:52.000Z</time>
      </trkpt>
      <trkpt lat="43.52577" lon="1.4624">
        <ele>242.80000305176</ele>
        <time>2020-06-08T13:36:54.000Z</time>
      </trkpt>
      <trkpt lat="43.52572" lon="1.46237">
        <ele>243</ele>
        <time>2020-06-08T13:36:56.000Z</time>
      </trkpt>
      <trkpt lat="43.52567" lon="1.46235">
        <ele>243.19999694824</ele>
        <time>2020-06-08T13:36:58.000Z</time>
      </trkpt>
      <trkpt lat="43.52563" lon="1.46233">
        <ele>243.60000610352</ele>
        <time>2020-06-08T13:37:00.000Z</time>
      </trkpt>
      <trkpt lat="43.52558" lon="1.46231">
        <ele>243.80000305176</ele>
        <time>2020-06-08T13:37:02.000Z</time>
      </trkpt>
      <trkpt lat="43.52553" lon="1.4623">
        <ele>243.80000305176</ele>
        <time>2020-06-08T13:37:04.000Z</time>
      </trkpt>
      <trkpt lat="43.52548" lon="1.46228">
        <ele>244</ele>
        <time>2020-06-08T13:37:06.000Z</time>
      </trkpt>
      <trkpt lat="43.52543" lon="1.46227">
        <ele>244.19999694824</ele>
        <time>2020-06-08T13:37:08.000Z</time>
      </trkpt>
      <trkpt lat="43.52538" lon="1.46225">
        <ele>244.39999389648</ele>
        <time>2020-06-08T13:37:10.000Z</time>
      </trkpt>
      <trkpt lat="43.52536" lon="1.46224">
        <ele>244.60000610352</ele>
        <time>2020-06-08T13:37:11.000Z</time>
      </trkpt>
      <trkpt lat="43.52534" lon="1.46223">
        <ele>244.80000305176</ele>
        <time>2020-06-08T13:37:12.000Z</time>
      </trkpt>
      <trkpt lat="43.52529" lon="1.46222">
        <ele>245</ele>
        <time>2020-06-08T13:37:14.000Z</time>
      </trkpt>
      <trkpt lat="43.52525" lon="1.46221">
        <ele>245.60000610352</ele>
        <time>2020-06-08T13:37:16.000Z</time>
      </trkpt>
      <trkpt lat="43.5252" lon="1.46219">
        <ele>245.80000305176</ele>
        <time>2020-06-08T13:37:18.000Z</time>
      </trkpt>
      <trkpt lat="43.52515" lon="1.46217">
        <ele>246.19999694824</ele>
        <time>2020-06-08T13:37:20.000Z</time>
      </trkpt>
      <trkpt lat="43.5251" lon="1.46217">
        <ele>246.60000610352</ele>
        <time>2020-06-08T13:37:22.000Z</time>
      </trkpt>
      <trkpt lat="43.52504" lon="1.46216">
        <ele>247</ele>
        <time>2020-06-08T13:37:24.000Z</time>
      </trkpt>
      <trkpt lat="43.52498" lon="1.46215">
        <ele>247.39999389648</ele>
        <time>2020-06-08T13:37:26.000Z</time>
      </trkpt>
      <trkpt lat="43.52493" lon="1.46213">
        <ele>247.60000610352</ele>
        <time>2020-06-08T13:37:28.000Z</time>
      </trkpt>
      <trkpt lat="43.52488" lon="1.46212">
        <ele>248</ele>
        <time>2020-06-08T13:37:30.000Z</time>
      </trkpt>
      <trkpt lat="43.52482" lon="1.46211">
        <ele>248</ele>
        <time>2020-06-08T13:37:32.000Z</time>
      </trkpt>
      <trkpt lat="43.52477" lon="1.46211">
        <ele>248.19999694824</ele>
        <time>2020-06-08T13:37:34.000Z</time>
      </trkpt>
      <trkpt lat="43.52472" lon="1.4621">
        <ele>248.39999389648</ele>
        <time>2020-06-08T13:37:36.000Z</time>
      </trkpt>
      <trkpt lat="43.52467" lon="1.4621">
        <ele>248.60000610352</ele>
        <time>2020-06-08T13:37:38.000Z</time>
      </trkpt>
      <trkpt lat="43.52462" lon="1.4621">
        <ele>248.60000610352</ele>
        <time>2020-06-08T13:37:40.000Z</time>
      </trkpt>
      <trkpt lat="43.52457" lon="1.4621">
        <ele>248.80000305176</ele>
        <time>2020-06-08T13:37:42.000Z</time>
      </trkpt>
      <trkpt lat="43.52452" lon="1.4621">
        <ele>248.80000305176</ele>
        <time>2020-06-08T13:37:44.000Z</time>
      </trkpt>
      <trkpt lat="43.52447" lon="1.46209">
        <ele>249</ele>
        <time>2020-06-08T13:37:46.000Z</time>
      </trkpt>
      <trkpt lat="43.52442" lon="1.46209">
        <ele>249</ele>
        <time>2020-06-08T13:37:48.000Z</time>
      </trkpt>
      <trkpt lat="43.52436" lon="1.46209">
        <ele>249</ele>
        <time>2020-06-08T13:37:50.000Z</time>
      </trkpt>
      <trkpt lat="43.5243" lon="1.4621">
        <ele>249</ele>
        <time>2020-06-08T13:37:52.000Z</time>
      </trkpt>
      <trkpt lat="43.52424" lon="1.4621">
        <ele>249</ele>
        <time>2020-06-08T13:37:54.000Z</time>
      </trkpt>
      <trkpt lat="43.52417" lon="1.46211">
        <ele>248.80000305176</ele>
        <time>2020-06-08T13:37:56.000Z</time>
      </trkpt>
      <trkpt lat="43.52411" lon="1.46212">
        <ele>248.60000610352</ele>
        <time>2020-06-08T13:37:58.000Z</time>
      </trkpt>
      <trkpt lat="43.52404" lon="1.46212">
        <ele>248.39999389648</ele>
        <time>2020-06-08T13:38:00.000Z</time>
      </trkpt>
      <trkpt lat="43.52397" lon="1.46212">
        <ele>248.39999389648</ele>
        <time>2020-06-08T13:38:02.000Z</time>
      </trkpt>
      <trkpt lat="43.5239" lon="1.46212">
        <ele>248.19999694824</ele>
        <time>2020-06-08T13:38:04.000Z</time>
      </trkpt>
      <trkpt lat="43.52384" lon="1.46212">
        <ele>248.19999694824</ele>
        <time>2020-06-08T13:38:06.000Z</time>
      </trkpt>
      <trkpt lat="43.52377" lon="1.46212">
        <ele>248.19999694824</ele>
        <time>2020-06-08T13:38:08.000Z</time>
      </trkpt>
      <trkpt lat="43.5237" lon="1.46212">
        <ele>248.19999694824</ele>
        <time>2020-06-08T13:38:10.000Z</time>
      </trkpt>
      <trkpt lat="43.52364" lon="1.46212">
        <ele>248.19999694824</ele>
        <time>2020-06-08T13:38:12.000Z</time>
      </trkpt>
      <trkpt lat="43.52357" lon="1.46213">
        <ele>248.39999389648</ele>
        <time>2020-06-08T13:38:14.000Z</time>
      </trkpt>
      <trkpt lat="43.5235" lon="1.46214">
        <ele>248.39999389648</ele>
        <time>2020-06-08T13:38:16.000Z</time>
      </trkpt>
      <trkpt lat="43.52344" lon="1.46215">
        <ele>248.39999389648</ele>
        <time>2020-06-08T13:38:18.000Z</time>
      </trkpt>
      <trkpt lat="43.52337" lon="1.46216">
        <ele>248.39999389648</ele>
        <time>2020-06-08T13:38:20.000Z</time>
      </trkpt>
      <trkpt lat="43.52331" lon="1.46217">
        <ele>248.60000610352</ele>
        <time>2020-06-08T13:38:22.000Z</time>
      </trkpt>
      <trkpt lat="43.52324" lon="1.46219">
        <ele>248.60000610352</ele>
        <time>2020-06-08T13:38:24.000Z</time>
      </trkpt>
      <trkpt lat="43.52317" lon="1.4622">
        <ele>248.60000610352</ele>
        <time>2020-06-08T13:38:26.000Z</time>
      </trkpt>
      <trkpt lat="43.52309" lon="1.46222">
        <ele>248.80000305176</ele>
        <time>2020-06-08T13:38:28.000Z</time>
      </trkpt>
      <trkpt lat="43.52302" lon="1.46223">
        <ele>248.80000305176</ele>
        <time>2020-06-08T13:38:30.000Z</time>
      </trkpt>
      <trkpt lat="43.52295" lon="1.46224">
        <ele>248.80000305176</ele>
        <time>2020-06-08T13:38:32.000Z</time>
      </trkpt>
      <trkpt lat="43.52288" lon="1.46226">
        <ele>249</ele>
        <time>2020-06-08T13:38:34.000Z</time>
      </trkpt>
      <trkpt lat="43.52281" lon="1.46228">
        <ele>249</ele>
        <time>2020-06-08T13:38:36.000Z</time>
      </trkpt>
      <trkpt lat="43.52273" lon="1.4623">
        <ele>249</ele>
        <time>2020-06-08T13:38:38.000Z</time>
      </trkpt>
      <trkpt lat="43.52265" lon="1.46231">
        <ele>249</ele>
        <time>2020-06-08T13:38:40.000Z</time>
      </trkpt>
      <trkpt lat="43.52257" lon="1.46231">
        <ele>249.19999694824</ele>
        <time>2020-06-08T13:38:42.000Z</time>
      </trkpt>
      <trkpt lat="43.52249" lon="1.46233">
        <ele>249.19999694824</ele>
        <time>2020-06-08T13:38:44.000Z</time>
      </trkpt>
      <trkpt lat="43.52239" lon="1.46234">
        <ele>249.19999694824</ele>
        <time>2020-06-08T13:38:46.000Z</time>
      </trkpt>
      <trkpt lat="43.52229" lon="1.46237">
        <ele>249.19999694824</ele>
        <time>2020-06-08T13:38:48.000Z</time>
      </trkpt>
      <trkpt lat="43.5222" lon="1.46239">
        <ele>249.19999694824</ele>
        <time>2020-06-08T13:38:50.000Z</time>
      </trkpt>
      <trkpt lat="43.5221" lon="1.46241">
        <ele>249.19999694824</ele>
        <time>2020-06-08T13:38:52.000Z</time>
      </trkpt>
      <trkpt lat="43.52201" lon="1.46243">
        <ele>249.39999389648</ele>
        <time>2020-06-08T13:38:54.000Z</time>
      </trkpt>
      <trkpt lat="43.52192" lon="1.46245">
        <ele>249.39999389648</ele>
        <time>2020-06-08T13:38:56.000Z</time>
      </trkpt>
      <trkpt lat="43.52184" lon="1.46247">
        <ele>250</ele>
        <time>2020-06-08T13:38:58.000Z</time>
      </trkpt>
      <trkpt lat="43.52175" lon="1.46249">
        <ele>250.19999694824</ele>
        <time>2020-06-08T13:39:00.000Z</time>
      </trkpt>
      <trkpt lat="43.52171" lon="1.46249">
        <ele>250.19999694824</ele>
        <time>2020-06-08T13:39:01.000Z</time>
      </trkpt>
      <trkpt lat="43.52167" lon="1.4625">
        <ele>250.19999694824</ele>
        <time>2020-06-08T13:39:02.000Z</time>
      </trkpt>
      <trkpt lat="43.52158" lon="1.46252">
        <ele>250.39999389648</ele>
        <time>2020-06-08T13:39:04.000Z</time>
      </trkpt>
      <trkpt lat="43.5215" lon="1.46254">
        <ele>250.80000305176</ele>
        <time>2020-06-08T13:39:06.000Z</time>
      </trkpt>
      <trkpt lat="43.52142" lon="1.46256">
        <ele>251</ele>
        <time>2020-06-08T13:39:08.000Z</time>
      </trkpt>
      <trkpt lat="43.52133" lon="1.46259">
        <ele>251.19999694824</ele>
        <time>2020-06-08T13:39:10.000Z</time>
      </trkpt>
      <trkpt lat="43.52125" lon="1.46262">
        <ele>251.60000610352</ele>
        <time>2020-06-08T13:39:12.000Z</time>
      </trkpt>
      <trkpt lat="43.52118" lon="1.46265">
        <ele>251.80000305176</ele>
        <time>2020-06-08T13:39:14.000Z</time>
      </trkpt>
      <trkpt lat="43.52111" lon="1.46267">
        <ele>252</ele>
        <time>2020-06-08T13:39:16.000Z</time>
      </trkpt>
      <trkpt lat="43.52108" lon="1.46268">
        <ele>252.19999694824</ele>
        <time>2020-06-08T13:39:17.000Z</time>
      </trkpt>
      <trkpt lat="43.52105" lon="1.4627">
        <ele>252.39999389648</ele>
        <time>2020-06-08T13:39:18.000Z</time>
      </trkpt>
      <trkpt lat="43.521" lon="1.46272">
        <ele>252.60000610352</ele>
        <time>2020-06-08T13:39:20.000Z</time>
      </trkpt>
      <trkpt lat="43.52094" lon="1.46275">
        <ele>252.80000305176</ele>
        <time>2020-06-08T13:39:22.000Z</time>
      </trkpt>
      <trkpt lat="43.52088" lon="1.46278">
        <ele>253.60000610352</ele>
        <time>2020-06-08T13:39:24.000Z</time>
      </trkpt>
      <trkpt lat="43.52083" lon="1.46279">
        <ele>253.80000305176</ele>
        <time>2020-06-08T13:39:26.000Z</time>
      </trkpt>
      <trkpt lat="43.52077" lon="1.46282">
        <ele>254.19999694824</ele>
        <time>2020-06-08T13:39:28.000Z</time>
      </trkpt>
      <trkpt lat="43.52074" lon="1.46283">
        <ele>254.39999389648</ele>
        <time>2020-06-08T13:39:29.000Z</time>
      </trkpt>
      <trkpt lat="43.52071" lon="1.46284">
        <ele>254.60000610352</ele>
        <time>2020-06-08T13:39:30.000Z</time>
      </trkpt>
      <trkpt lat="43.52065" lon="1.46287">
        <ele>254.80000305176</ele>
        <time>2020-06-08T13:39:32.000Z</time>
      </trkpt>
      <trkpt lat="43.52059" lon="1.4629">
        <ele>255</ele>
        <time>2020-06-08T13:39:34.000Z</time>
      </trkpt>
      <trkpt lat="43.52052" lon="1.46293">
        <ele>255.19999694824</ele>
        <time>2020-06-08T13:39:36.000Z</time>
      </trkpt>
      <trkpt lat="43.52046" lon="1.46295">
        <ele>255.80000305176</ele>
        <time>2020-06-08T13:39:38.000Z</time>
      </trkpt>
      <trkpt lat="43.52039" lon="1.46298">
        <ele>256</ele>
        <time>2020-06-08T13:39:40.000Z</time>
      </trkpt>
      <trkpt lat="43.52032" lon="1.46301">
        <ele>256.39999389648</ele>
        <time>2020-06-08T13:39:42.000Z</time>
      </trkpt>
      <trkpt lat="43.52026" lon="1.46304">
        <ele>256.60000610352</ele>
        <time>2020-06-08T13:39:44.000Z</time>
      </trkpt>
      <trkpt lat="43.52019" lon="1.46307">
        <ele>257</ele>
        <time>2020-06-08T13:39:46.000Z</time>
      </trkpt>
      <trkpt lat="43.52012" lon="1.46309">
        <ele>257.79998779297</ele>
        <time>2020-06-08T13:39:48.000Z</time>
      </trkpt>
      <trkpt lat="43.52006" lon="1.46312">
        <ele>258.20001220703</ele>
        <time>2020-06-08T13:39:50.000Z</time>
      </trkpt>
      <trkpt lat="43.51999" lon="1.46313">
        <ele>258.20001220703</ele>
        <time>2020-06-08T13:39:52.000Z</time>
      </trkpt>
      <trkpt lat="43.51993" lon="1.46315">
        <ele>258.39999389648</ele>
        <time>2020-06-08T13:39:54.000Z</time>
      </trkpt>
      <trkpt lat="43.51987" lon="1.46316">
        <ele>258.60000610352</ele>
        <time>2020-06-08T13:39:56.000Z</time>
      </trkpt>
      <trkpt lat="43.51981" lon="1.46318">
        <ele>258.79998779297</ele>
        <time>2020-06-08T13:39:58.000Z</time>
      </trkpt>
      <trkpt lat="43.51975" lon="1.46319">
        <ele>258.79998779297</ele>
        <time>2020-06-08T13:40:00.000Z</time>
      </trkpt>
      <trkpt lat="43.51969" lon="1.4632">
        <ele>259</ele>
        <time>2020-06-08T13:40:02.000Z</time>
      </trkpt>
      <trkpt lat="43.51964" lon="1.4632">
        <ele>259.20001220703</ele>
        <time>2020-06-08T13:40:04.000Z</time>
      </trkpt>
      <trkpt lat="43.51958" lon="1.46321">
        <ele>259.39999389648</ele>
        <time>2020-06-08T13:40:06.000Z</time>
      </trkpt>
      <trkpt lat="43.51951" lon="1.46321">
        <ele>259.60000610352</ele>
        <time>2020-06-08T13:40:08.000Z</time>
      </trkpt>
      <trkpt lat="43.51948" lon="1.46322">
        <ele>260</ele>
        <time>2020-06-08T13:40:09.000Z</time>
      </trkpt>
      <trkpt lat="43.51944" lon="1.46322">
        <ele>260</ele>
        <time>2020-06-08T13:40:10.000Z</time>
      </trkpt>
      <trkpt lat="43.51938" lon="1.46323">
        <ele>260.39999389648</ele>
        <time>2020-06-08T13:40:12.000Z</time>
      </trkpt>
      <trkpt lat="43.51931" lon="1.46323">
        <ele>261.20001220703</ele>
        <time>2020-06-08T13:40:14.000Z</time>
      </trkpt>
      <trkpt lat="43.51924" lon="1.46323">
        <ele>261.60000610352</ele>
        <time>2020-06-08T13:40:16.000Z</time>
      </trkpt>
      <trkpt lat="43.51917" lon="1.46323">
        <ele>262</ele>
        <time>2020-06-08T13:40:18.000Z</time>
      </trkpt>
      <trkpt lat="43.51914" lon="1.46323">
        <ele>262.39999389648</ele>
        <time>2020-06-08T13:40:19.000Z</time>
      </trkpt>
      <trkpt lat="43.5191" lon="1.46323">
        <ele>262.79998779297</ele>
        <time>2020-06-08T13:40:20.000Z</time>
      </trkpt>
      <trkpt lat="43.51903" lon="1.46323">
        <ele>263.39999389648</ele>
        <time>2020-06-08T13:40:22.000Z</time>
      </trkpt>
      <trkpt lat="43.51896" lon="1.46323">
        <ele>264</ele>
        <time>2020-06-08T13:40:24.000Z</time>
      </trkpt>
      <trkpt lat="43.51889" lon="1.46323">
        <ele>264.39999389648</ele>
        <time>2020-06-08T13:40:26.000Z</time>
      </trkpt>
      <trkpt lat="43.51886" lon="1.46322">
        <ele>264.60000610352</ele>
        <time>2020-06-08T13:40:27.000Z</time>
      </trkpt>
      <trkpt lat="43.51882" lon="1.46322">
        <ele>264.79998779297</ele>
        <time>2020-06-08T13:40:28.000Z</time>
      </trkpt>
      <trkpt lat="43.51877" lon="1.46321">
        <ele>265.20001220703</ele>
        <time>2020-06-08T13:40:30.000Z</time>
      </trkpt>
      <trkpt lat="43.5187" lon="1.4632">
        <ele>265.60000610352</ele>
        <time>2020-06-08T13:40:32.000Z</time>
      </trkpt>
      <trkpt lat="43.51867" lon="1.46319">
        <ele>265.60000610352</ele>
        <time>2020-06-08T13:40:33.000Z</time>
      </trkpt>
      <trkpt lat="43.51864" lon="1.46318">
        <ele>265.79998779297</ele>
        <time>2020-06-08T13:40:34.000Z</time>
      </trkpt>
      <trkpt lat="43.51858" lon="1.46317">
        <ele>266.20001220703</ele>
        <time>2020-06-08T13:40:36.000Z</time>
      </trkpt>
      <trkpt lat="43.51852" lon="1.46315">
        <ele>266.60000610352</ele>
        <time>2020-06-08T13:40:38.000Z</time>
      </trkpt>
      <trkpt lat="43.51849" lon="1.46314">
        <ele>266.79998779297</ele>
        <time>2020-06-08T13:40:39.000Z</time>
      </trkpt>
      <trkpt lat="43.51846" lon="1.46313">
        <ele>267</ele>
        <time>2020-06-08T13:40:40.000Z</time>
      </trkpt>
      <trkpt lat="43.5184" lon="1.46312">
        <ele>267.60000610352</ele>
        <time>2020-06-08T13:40:42.000Z</time>
      </trkpt>
      <trkpt lat="43.51838" lon="1.46311">
        <ele>267.79998779297</ele>
        <time>2020-06-08T13:40:43.000Z</time>
      </trkpt>
      <trkpt lat="43.51835" lon="1.4631">
        <ele>268</ele>
        <time>2020-06-08T13:40:44.000Z</time>
      </trkpt>
      <trkpt lat="43.51829" lon="1.46308">
        <ele>268.60000610352</ele>
        <time>2020-06-08T13:40:46.000Z</time>
      </trkpt>
      <trkpt lat="43.51823" lon="1.46305">
        <ele>269</ele>
        <time>2020-06-08T13:40:48.000Z</time>
      </trkpt>
      <trkpt lat="43.51817" lon="1.46303">
        <ele>269.39999389648</ele>
        <time>2020-06-08T13:40:50.000Z</time>
      </trkpt>
      <trkpt lat="43.51811" lon="1.46301">
        <ele>269.79998779297</ele>
        <time>2020-06-08T13:40:52.000Z</time>
      </trkpt>
      <trkpt lat="43.51808" lon="1.46299">
        <ele>270</ele>
        <time>2020-06-08T13:40:53.000Z</time>
      </trkpt>
      <trkpt lat="43.51805" lon="1.46298">
        <ele>270</ele>
        <time>2020-06-08T13:40:54.000Z</time>
      </trkpt>
      <trkpt lat="43.51799" lon="1.46296">
        <ele>270.39999389648</ele>
        <time>2020-06-08T13:40:56.000Z</time>
      </trkpt>
      <trkpt lat="43.51793" lon="1.46293">
        <ele>270.39999389648</ele>
        <time>2020-06-08T13:40:58.000Z</time>
      </trkpt>
      <trkpt lat="43.51787" lon="1.46289">
        <ele>270.60000610352</ele>
        <time>2020-06-08T13:41:00.000Z</time>
      </trkpt>
      <trkpt lat="43.51781" lon="1.46285">
        <ele>270.79998779297</ele>
        <time>2020-06-08T13:41:02.000Z</time>
      </trkpt>
      <trkpt lat="43.51776" lon="1.46281">
        <ele>270.79998779297</ele>
        <time>2020-06-08T13:41:04.000Z</time>
      </trkpt>
      <trkpt lat="43.51769" lon="1.46277">
        <ele>271.20001220703</ele>
        <time>2020-06-08T13:41:06.000Z</time>
      </trkpt>
      <trkpt lat="43.51765" lon="1.46275">
        <ele>271.20001220703</ele>
        <time>2020-06-08T13:41:07.000Z</time>
      </trkpt>
      <trkpt lat="43.51761" lon="1.46273">
        <ele>271.20001220703</ele>
        <time>2020-06-08T13:41:08.000Z</time>
      </trkpt>
      <trkpt lat="43.51754" lon="1.46268">
        <ele>271.60000610352</ele>
        <time>2020-06-08T13:41:10.000Z</time>
      </trkpt>
      <trkpt lat="43.51747" lon="1.46264">
        <ele>271.79998779297</ele>
        <time>2020-06-08T13:41:12.000Z</time>
      </trkpt>
      <trkpt lat="43.5174" lon="1.4626">
        <ele>272</ele>
        <time>2020-06-08T13:41:14.000Z</time>
      </trkpt>
      <trkpt lat="43.51734" lon="1.46257">
        <ele>272.20001220703</ele>
        <time>2020-06-08T13:41:16.000Z</time>
      </trkpt>
      <trkpt lat="43.51727" lon="1.46255">
        <ele>272.20001220703</ele>
        <time>2020-06-08T13:41:18.000Z</time>
      </trkpt>
      <trkpt lat="43.51719" lon="1.46252">
        <ele>272.20001220703</ele>
        <time>2020-06-08T13:41:20.000Z</time>
      </trkpt>
      <trkpt lat="43.51711" lon="1.46249">
        <ele>272.20001220703</ele>
        <time>2020-06-08T13:41:22.000Z</time>
      </trkpt>
      <trkpt lat="43.51703" lon="1.46246">
        <ele>272.20001220703</ele>
        <time>2020-06-08T13:41:24.000Z</time>
      </trkpt>
      <trkpt lat="43.51694" lon="1.46245">
        <ele>272.20001220703</ele>
        <time>2020-06-08T13:41:26.000Z</time>
      </trkpt>
      <trkpt lat="43.51685" lon="1.46244">
        <ele>272.20001220703</ele>
        <time>2020-06-08T13:41:28.000Z</time>
      </trkpt>
      <trkpt lat="43.51676" lon="1.46243">
        <ele>272.20001220703</ele>
        <time>2020-06-08T13:41:30.000Z</time>
      </trkpt>
      <trkpt lat="43.51666" lon="1.46243">
        <ele>272.20001220703</ele>
        <time>2020-06-08T13:41:32.000Z</time>
      </trkpt>
      <trkpt lat="43.51657" lon="1.46242">
        <ele>272</ele>
        <time>2020-06-08T13:41:34.000Z</time>
      </trkpt>
      <trkpt lat="43.51647" lon="1.46241">
        <ele>271.79998779297</ele>
        <time>2020-06-08T13:41:36.000Z</time>
      </trkpt>
      <trkpt lat="43.51637" lon="1.46239">
        <ele>271.79998779297</ele>
        <time>2020-06-08T13:41:38.000Z</time>
      </trkpt>
      <trkpt lat="43.51627" lon="1.46238">
        <ele>271.79998779297</ele>
        <time>2020-06-08T13:41:40.000Z</time>
      </trkpt>
      <trkpt lat="43.51617" lon="1.46237">
        <ele>271.79998779297</ele>
        <time>2020-06-08T13:41:42.000Z</time>
      </trkpt>
      <trkpt lat="43.51607" lon="1.46235">
        <ele>271.60000610352</ele>
        <time>2020-06-08T13:41:44.000Z</time>
      </trkpt>
      <trkpt lat="43.51597" lon="1.46234">
        <ele>271.60000610352</ele>
        <time>2020-06-08T13:41:46.000Z</time>
      </trkpt>
      <trkpt lat="43.51587" lon="1.46233">
        <ele>271.60000610352</ele>
        <time>2020-06-08T13:41:48.000Z</time>
      </trkpt>
      <trkpt lat="43.51577" lon="1.46232">
        <ele>271.60000610352</ele>
        <time>2020-06-08T13:41:50.000Z</time>
      </trkpt>
      <trkpt lat="43.51567" lon="1.4623">
        <ele>271.39999389648</ele>
        <time>2020-06-08T13:41:52.000Z</time>
      </trkpt>
      <trkpt lat="43.51556" lon="1.4623">
        <ele>271.39999389648</ele>
        <time>2020-06-08T13:41:54.000Z</time>
      </trkpt>
      <trkpt lat="43.51551" lon="1.46229">
        <ele>271.20001220703</ele>
        <time>2020-06-08T13:41:55.000Z</time>
      </trkpt>
      <trkpt lat="43.51546" lon="1.46229">
        <ele>271.20001220703</ele>
        <time>2020-06-08T13:41:56.000Z</time>
      </trkpt>
      <trkpt lat="43.51536" lon="1.46228">
        <ele>271</ele>
        <time>2020-06-08T13:41:58.000Z</time>
      </trkpt>
      <trkpt lat="43.51526" lon="1.46228">
        <ele>271</ele>
        <time>2020-06-08T13:42:00.000Z</time>
      </trkpt>
      <trkpt lat="43.51517" lon="1.46229">
        <ele>271</ele>
        <time>2020-06-08T13:42:02.000Z</time>
      </trkpt>
      <trkpt lat="43.51507" lon="1.4623">
        <ele>270.79998779297</ele>
        <time>2020-06-08T13:42:04.000Z</time>
      </trkpt>
      <trkpt lat="43.51495" lon="1.46233">
        <ele>270.79998779297</ele>
        <time>2020-06-08T13:42:06.000Z</time>
      </trkpt>
      <trkpt lat="43.51483" lon="1.46235">
        <ele>270.60000610352</ele>
        <time>2020-06-08T13:42:08.000Z</time>
      </trkpt>
      <trkpt lat="43.51469" lon="1.46238">
        <ele>270.20001220703</ele>
        <time>2020-06-08T13:42:10.000Z</time>
      </trkpt>
      <trkpt lat="43.51463" lon="1.4624">
        <ele>269.79998779297</ele>
        <time>2020-06-08T13:42:11.000Z</time>
      </trkpt>
      <trkpt lat="43.51457" lon="1.46241">
        <ele>269.60000610352</ele>
        <time>2020-06-08T13:42:12.000Z</time>
      </trkpt>
      <trkpt lat="43.51446" lon="1.46243">
        <ele>268.79998779297</ele>
        <time>2020-06-08T13:42:14.000Z</time>
      </trkpt>
      <trkpt lat="43.51436" lon="1.46244">
        <ele>268.20001220703</ele>
        <time>2020-06-08T13:42:16.000Z</time>
      </trkpt>
      <trkpt lat="43.51428" lon="1.46243">
        <ele>267.79998779297</ele>
        <time>2020-06-08T13:42:18.000Z</time>
      </trkpt>
      <trkpt lat="43.51422" lon="1.46242">
        <ele>267.39999389648</ele>
        <time>2020-06-08T13:42:20.000Z</time>
      </trkpt>
      <trkpt lat="43.51416" lon="1.46237">
        <ele>266.39999389648</ele>
        <time>2020-06-08T13:42:22.000Z</time>
      </trkpt>
      <trkpt lat="43.51409" lon="1.46231">
        <ele>265.60000610352</ele>
        <time>2020-06-08T13:42:24.000Z</time>
      </trkpt>
      <trkpt lat="43.51405" lon="1.46229">
        <ele>265.39999389648</ele>
        <time>2020-06-08T13:42:25.000Z</time>
      </trkpt>
      <trkpt lat="43.514" lon="1.46227">
        <ele>265.20001220703</ele>
        <time>2020-06-08T13:42:26.000Z</time>
      </trkpt>
      <trkpt lat="43.5139" lon="1.46229">
        <ele>265</ele>
        <time>2020-06-08T13:42:28.000Z</time>
      </trkpt>
      <trkpt lat="43.51385" lon="1.46232">
        <ele>264.60000610352</ele>
        <time>2020-06-08T13:42:29.000Z</time>
      </trkpt>
      <trkpt lat="43.5138" lon="1.46234">
        <ele>264.39999389648</ele>
        <time>2020-06-08T13:42:30.000Z</time>
      </trkpt>
      <trkpt lat="43.51375" lon="1.46236">
        <ele>264</ele>
        <time>2020-06-08T13:42:31.000Z</time>
      </trkpt>
      <trkpt lat="43.51369" lon="1.46237">
        <ele>263.60000610352</ele>
        <time>2020-06-08T13:42:32.000Z</time>
      </trkpt>
      <trkpt lat="43.51356" lon="1.46235">
        <ele>263.39999389648</ele>
        <time>2020-06-08T13:42:34.000Z</time>
      </trkpt>
      <trkpt lat="43.51344" lon="1.46232">
        <ele>263.20001220703</ele>
        <time>2020-06-08T13:42:36.000Z</time>
      </trkpt>
      <trkpt lat="43.51331" lon="1.46227">
        <ele>263</ele>
        <time>2020-06-08T13:42:38.000Z</time>
      </trkpt>
      <trkpt lat="43.51318" lon="1.46221">
        <ele>262.60000610352</ele>
        <time>2020-06-08T13:42:40.000Z</time>
      </trkpt>
      <trkpt lat="43.51306" lon="1.46215">
        <ele>262</ele>
        <time>2020-06-08T13:42:42.000Z</time>
      </trkpt>
      <trkpt lat="43.51299" lon="1.46212">
        <ele>261.60000610352</ele>
        <time>2020-06-08T13:42:43.000Z</time>
      </trkpt>
      <trkpt lat="43.51292" lon="1.46208">
        <ele>261.20001220703</ele>
        <time>2020-06-08T13:42:44.000Z</time>
      </trkpt>
      <trkpt lat="43.51279" lon="1.46201">
        <ele>261</ele>
        <time>2020-06-08T13:42:46.000Z</time>
      </trkpt>
      <trkpt lat="43.51264" lon="1.46194">
        <ele>260.60000610352</ele>
        <time>2020-06-08T13:42:48.000Z</time>
      </trkpt>
      <trkpt lat="43.51249" lon="1.46187">
        <ele>260.20001220703</ele>
        <time>2020-06-08T13:42:50.000Z</time>
      </trkpt>
      <trkpt lat="43.51234" lon="1.46179">
        <ele>260</ele>
        <time>2020-06-08T13:42:52.000Z</time>
      </trkpt>
      <trkpt lat="43.5122" lon="1.46171">
        <ele>259.79998779297</ele>
        <time>2020-06-08T13:42:54.000Z</time>
      </trkpt>
      <trkpt lat="43.51205" lon="1.46163">
        <ele>259</ele>
        <time>2020-06-08T13:42:56.000Z</time>
      </trkpt>
      <trkpt lat="43.51197" lon="1.4616">
        <ele>257.79998779297</ele>
        <time>2020-06-08T13:42:57.000Z</time>
      </trkpt>
      <trkpt lat="43.5119" lon="1.46156">
        <ele>256.79998779297</ele>
        <time>2020-06-08T13:42:58.000Z</time>
      </trkpt>
      <trkpt lat="43.51183" lon="1.46153">
        <ele>256</ele>
        <time>2020-06-08T13:42:59.000Z</time>
      </trkpt>
      <trkpt lat="43.51175" lon="1.46149">
        <ele>255.60000610352</ele>
        <time>2020-06-08T13:43:00.000Z</time>
      </trkpt>
      <trkpt lat="43.51162" lon="1.46143">
        <ele>255</ele>
        <time>2020-06-08T13:43:02.000Z</time>
      </trkpt>
      <trkpt lat="43.51155" lon="1.4614">
        <ele>254.80000305176</ele>
        <time>2020-06-08T13:43:03.000Z</time>
      </trkpt>
      <trkpt lat="43.51149" lon="1.46137">
        <ele>254.80000305176</ele>
        <time>2020-06-08T13:43:04.000Z</time>
      </trkpt>
      <trkpt lat="43.51138" lon="1.46131">
        <ele>254.80000305176</ele>
        <time>2020-06-08T13:43:06.000Z</time>
      </trkpt>
      <trkpt lat="43.51127" lon="1.46125">
        <ele>254.80000305176</ele>
        <time>2020-06-08T13:43:08.000Z</time>
      </trkpt>
      <trkpt lat="43.51118" lon="1.46119">
        <ele>255</ele>
        <time>2020-06-08T13:43:10.000Z</time>
      </trkpt>
      <trkpt lat="43.51108" lon="1.46114">
        <ele>255.39999389648</ele>
        <time>2020-06-08T13:43:12.000Z</time>
      </trkpt>
      <trkpt lat="43.51099" lon="1.4611">
        <ele>255.39999389648</ele>
        <time>2020-06-08T13:43:14.000Z</time>
      </trkpt>
      <trkpt lat="43.5109" lon="1.46106">
        <ele>255.39999389648</ele>
        <time>2020-06-08T13:43:16.000Z</time>
      </trkpt>
      <trkpt lat="43.51081" lon="1.46102">
        <ele>255.60000610352</ele>
        <time>2020-06-08T13:43:18.000Z</time>
      </trkpt>
      <trkpt lat="43.51072" lon="1.46099">
        <ele>255.60000610352</ele>
        <time>2020-06-08T13:43:20.000Z</time>
      </trkpt>
      <trkpt lat="43.51062" lon="1.46095">
        <ele>255.19999694824</ele>
        <time>2020-06-08T13:43:22.000Z</time>
      </trkpt>
      <trkpt lat="43.51053" lon="1.46092">
        <ele>255</ele>
        <time>2020-06-08T13:43:24.000Z</time>
      </trkpt>
      <trkpt lat="43.51043" lon="1.46089">
        <ele>255</ele>
        <time>2020-06-08T13:43:26.000Z</time>
      </trkpt>
      <trkpt lat="43.51033" lon="1.46087">
        <ele>254.60000610352</ele>
        <time>2020-06-08T13:43:28.000Z</time>
      </trkpt>
      <trkpt lat="43.51022" lon="1.46083">
        <ele>254.60000610352</ele>
        <time>2020-06-08T13:43:30.000Z</time>
      </trkpt>
      <trkpt lat="43.51012" lon="1.4608">
        <ele>254.19999694824</ele>
        <time>2020-06-08T13:43:32.000Z</time>
      </trkpt>
      <trkpt lat="43.51002" lon="1.46077">
        <ele>254.19999694824</ele>
        <time>2020-06-08T13:43:34.000Z</time>
      </trkpt>
      <trkpt lat="43.50991" lon="1.46073">
        <ele>254.19999694824</ele>
        <time>2020-06-08T13:43:36.000Z</time>
      </trkpt>
      <trkpt lat="43.50981" lon="1.4607">
        <ele>254.19999694824</ele>
        <time>2020-06-08T13:43:38.000Z</time>
      </trkpt>
      <trkpt lat="43.50971" lon="1.46066">
        <ele>254.39999389648</ele>
        <time>2020-06-08T13:43:40.000Z</time>
      </trkpt>
      <trkpt lat="43.50959" lon="1.46065">
        <ele>254.60000610352</ele>
        <time>2020-06-08T13:43:42.000Z</time>
      </trkpt>
      <trkpt lat="43.50948" lon="1.46063">
        <ele>254.60000610352</ele>
        <time>2020-06-08T13:43:44.000Z</time>
      </trkpt>
      <trkpt lat="43.50938" lon="1.46061">
        <ele>254.60000610352</ele>
        <time>2020-06-08T13:43:46.000Z</time>
      </trkpt>
      <trkpt lat="43.50927" lon="1.46058">
        <ele>254.60000610352</ele>
        <time>2020-06-08T13:43:48.000Z</time>
      </trkpt>
      <trkpt lat="43.50917" lon="1.46056">
        <ele>254.60000610352</ele>
        <time>2020-06-08T13:43:50.000Z</time>
      </trkpt>
      <trkpt lat="43.50906" lon="1.46054">
        <ele>254.60000610352</ele>
        <time>2020-06-08T13:43:52.000Z</time>
      </trkpt>
      <trkpt lat="43.50894" lon="1.46053">
        <ele>254.60000610352</ele>
        <time>2020-06-08T13:43:54.000Z</time>
      </trkpt>
      <trkpt lat="43.50883" lon="1.4605">
        <ele>254.60000610352</ele>
        <time>2020-06-08T13:43:56.000Z</time>
      </trkpt>
      <trkpt lat="43.50872" lon="1.46048">
        <ele>254.39999389648</ele>
        <time>2020-06-08T13:43:58.000Z</time>
      </trkpt>
      <trkpt lat="43.50861" lon="1.46047">
        <ele>254.39999389648</ele>
        <time>2020-06-08T13:44:00.000Z</time>
      </trkpt>
      <trkpt lat="43.5085" lon="1.46045">
        <ele>254.39999389648</ele>
        <time>2020-06-08T13:44:02.000Z</time>
      </trkpt>
      <trkpt lat="43.50839" lon="1.46043">
        <ele>254.19999694824</ele>
        <time>2020-06-08T13:44:04.000Z</time>
      </trkpt>
      <trkpt lat="43.50828" lon="1.46042">
        <ele>254.19999694824</ele>
        <time>2020-06-08T13:44:06.000Z</time>
      </trkpt>
      <trkpt lat="43.50818" lon="1.4604">
        <ele>254.19999694824</ele>
        <time>2020-06-08T13:44:08.000Z</time>
      </trkpt>
      <trkpt lat="43.50808" lon="1.46039">
        <ele>254.19999694824</ele>
        <time>2020-06-08T13:44:10.000Z</time>
      </trkpt>
      <trkpt lat="43.50799" lon="1.46037">
        <ele>254.19999694824</ele>
        <time>2020-06-08T13:44:12.000Z</time>
      </trkpt>
      <trkpt lat="43.5079" lon="1.46036">
        <ele>254.19999694824</ele>
        <time>2020-06-08T13:44:14.000Z</time>
      </trkpt>
      <trkpt lat="43.50781" lon="1.46034">
        <ele>254.19999694824</ele>
        <time>2020-06-08T13:44:16.000Z</time>
      </trkpt>
      <trkpt lat="43.50772" lon="1.46033">
        <ele>254.39999389648</ele>
        <time>2020-06-08T13:44:18.000Z</time>
      </trkpt>
      <trkpt lat="43.50763" lon="1.46031">
        <ele>254.39999389648</ele>
        <time>2020-06-08T13:44:20.000Z</time>
      </trkpt>
      <trkpt lat="43.50754" lon="1.46029">
        <ele>254.39999389648</ele>
        <time>2020-06-08T13:44:22.000Z</time>
      </trkpt>
      <trkpt lat="43.50745" lon="1.46026">
        <ele>254.60000610352</ele>
        <time>2020-06-08T13:44:24.000Z</time>
      </trkpt>
      <trkpt lat="43.50737" lon="1.46024">
        <ele>254.60000610352</ele>
        <time>2020-06-08T13:44:26.000Z</time>
      </trkpt>
      <trkpt lat="43.50731" lon="1.46022">
        <ele>254.80000305176</ele>
        <time>2020-06-08T13:44:28.000Z</time>
      </trkpt>
      <trkpt lat="43.50725" lon="1.46021">
        <ele>255</ele>
        <time>2020-06-08T13:44:30.000Z</time>
      </trkpt>
      <trkpt lat="43.50719" lon="1.46019">
        <ele>255</ele>
        <time>2020-06-08T13:44:32.000Z</time>
      </trkpt>
      <trkpt lat="43.50714" lon="1.46018">
        <ele>255</ele>
        <time>2020-06-08T13:44:34.000Z</time>
      </trkpt>
      <trkpt lat="43.50709" lon="1.46016">
        <ele>255</ele>
        <time>2020-06-08T13:44:36.000Z</time>
      </trkpt>
      <trkpt lat="43.50704" lon="1.46013">
        <ele>255</ele>
        <time>2020-06-08T13:44:38.000Z</time>
      </trkpt>
      <trkpt lat="43.50701" lon="1.46011">
        <ele>255</ele>
        <time>2020-06-08T13:44:40.000Z</time>
      </trkpt>
      <trkpt lat="43.50698" lon="1.4601">
        <ele>254.80000305176</ele>
        <time>2020-06-08T13:44:42.000Z</time>
      </trkpt>
      <trkpt lat="43.50696" lon="1.46009">
        <ele>254.39999389648</ele>
        <time>2020-06-08T13:44:44.000Z</time>
      </trkpt>
      <trkpt lat="43.50694" lon="1.46008">
        <ele>254</ele>
        <time>2020-06-08T13:44:46.000Z</time>
      </trkpt>
      <trkpt lat="43.50693" lon="1.46008">
        <ele>254</ele>
        <time>2020-06-08T13:44:47.000Z</time>
      </trkpt>
      <trkpt lat="43.50692" lon="1.46007">
        <ele>253.80000305176</ele>
        <time>2020-06-08T13:44:48.000Z</time>
      </trkpt>
      <trkpt lat="43.50691" lon="1.46006">
        <ele>253.80000305176</ele>
        <time>2020-06-08T13:44:50.000Z</time>
      </trkpt>
      <trkpt lat="43.50689" lon="1.46006">
        <ele>253.60000610352</ele>
        <time>2020-06-08T13:44:52.000Z</time>
      </trkpt>
      <trkpt lat="43.50687" lon="1.46004">
        <ele>253.60000610352</ele>
        <time>2020-06-08T13:44:54.000Z</time>
      </trkpt>
      <trkpt lat="43.50682" lon="1.46001">
        <ele>253.39999389648</ele>
        <time>2020-06-08T13:44:56.000Z</time>
      </trkpt>
      <trkpt lat="43.50677" lon="1.45997">
        <ele>253.19999694824</ele>
        <time>2020-06-08T13:44:58.000Z</time>
      </trkpt>
      <trkpt lat="43.5067" lon="1.45992">
        <ele>253.19999694824</ele>
        <time>2020-06-08T13:45:00.000Z</time>
      </trkpt>
      <trkpt lat="43.50661" lon="1.45985">
        <ele>252.80000305176</ele>
        <time>2020-06-08T13:45:02.000Z</time>
      </trkpt>
      <trkpt lat="43.50651" lon="1.45976">
        <ele>252.19999694824</ele>
        <time>2020-06-08T13:45:04.000Z</time>
      </trkpt>
      <trkpt lat="43.5064" lon="1.45967">
        <ele>252.19999694824</ele>
        <time>2020-06-08T13:45:06.000Z</time>
      </trkpt>
      <trkpt lat="43.50628" lon="1.45958">
        <ele>251.80000305176</ele>
        <time>2020-06-08T13:45:08.000Z</time>
      </trkpt>
      <trkpt lat="43.50617" lon="1.45948">
        <ele>251.19999694824</ele>
        <time>2020-06-08T13:45:10.000Z</time>
      </trkpt>
      <trkpt lat="43.50604" lon="1.45937">
        <ele>250.60000610352</ele>
        <time>2020-06-08T13:45:12.000Z</time>
      </trkpt>
      <trkpt lat="43.50591" lon="1.45926">
        <ele>249.19999694824</ele>
        <time>2020-06-08T13:45:14.000Z</time>
      </trkpt>
      <trkpt lat="43.50578" lon="1.45914">
        <ele>248.19999694824</ele>
        <time>2020-06-08T13:45:16.000Z</time>
      </trkpt>
      <trkpt lat="43.50571" lon="1.45908">
        <ele>247.80000305176</ele>
        <time>2020-06-08T13:45:17.000Z</time>
      </trkpt>
      <trkpt lat="43.50564" lon="1.45902">
        <ele>247.39999389648</ele>
        <time>2020-06-08T13:45:18.000Z</time>
      </trkpt>
      <trkpt lat="43.5055" lon="1.45891">
        <ele>246.39999389648</ele>
        <time>2020-06-08T13:45:20.000Z</time>
      </trkpt>
      <trkpt lat="43.50538" lon="1.45881">
        <ele>245.19999694824</ele>
        <time>2020-06-08T13:45:22.000Z</time>
      </trkpt>
      <trkpt lat="43.50526" lon="1.4587">
        <ele>243</ele>
        <time>2020-06-08T13:45:24.000Z</time>
      </trkpt>
      <trkpt lat="43.50513" lon="1.45859">
        <ele>242</ele>
        <time>2020-06-08T13:45:26.000Z</time>
      </trkpt>
      <trkpt lat="43.50507" lon="1.45854">
        <ele>241.80000305176</ele>
        <time>2020-06-08T13:45:27.000Z</time>
      </trkpt>
      <trkpt lat="43.50501" lon="1.45848">
        <ele>241.39999389648</ele>
        <time>2020-06-08T13:45:28.000Z</time>
      </trkpt>
      <trkpt lat="43.50487" lon="1.45838">
        <ele>240.60000610352</ele>
        <time>2020-06-08T13:45:30.000Z</time>
      </trkpt>
      <trkpt lat="43.50473" lon="1.45829">
        <ele>240</ele>
        <time>2020-06-08T13:45:32.000Z</time>
      </trkpt>
      <trkpt lat="43.50466" lon="1.45823">
        <ele>239.60000610352</ele>
        <time>2020-06-08T13:45:33.000Z</time>
      </trkpt>
      <trkpt lat="43.50459" lon="1.45817">
        <ele>239</ele>
        <time>2020-06-08T13:45:34.000Z</time>
      </trkpt>
      <trkpt lat="43.50445" lon="1.45804">
        <ele>238.39999389648</ele>
        <time>2020-06-08T13:45:36.000Z</time>
      </trkpt>
      <trkpt lat="43.5043" lon="1.45791">
        <ele>237.19999694824</ele>
        <time>2020-06-08T13:45:38.000Z</time>
      </trkpt>
      <trkpt lat="43.50423" lon="1.45784">
        <ele>236.19999694824</ele>
        <time>2020-06-08T13:45:39.000Z</time>
      </trkpt>
      <trkpt lat="43.50415" lon="1.45777">
        <ele>235.60000610352</ele>
        <time>2020-06-08T13:45:40.000Z</time>
      </trkpt>
      <trkpt lat="43.50401" lon="1.45763">
        <ele>235</ele>
        <time>2020-06-08T13:45:42.000Z</time>
      </trkpt>
      <trkpt lat="43.50385" lon="1.4575">
        <ele>234</ele>
        <time>2020-06-08T13:45:44.000Z</time>
      </trkpt>
      <trkpt lat="43.5037" lon="1.45736">
        <ele>232.60000610352</ele>
        <time>2020-06-08T13:45:46.000Z</time>
      </trkpt>
      <trkpt lat="43.50354" lon="1.45723">
        <ele>231.60000610352</ele>
        <time>2020-06-08T13:45:48.000Z</time>
      </trkpt>
      <trkpt lat="43.50337" lon="1.45711">
        <ele>230.39999389648</ele>
        <time>2020-06-08T13:45:50.000Z</time>
      </trkpt>
      <trkpt lat="43.5032" lon="1.45699">
        <ele>229.39999389648</ele>
        <time>2020-06-08T13:45:52.000Z</time>
      </trkpt>
      <trkpt lat="43.50305" lon="1.4569">
        <ele>228.19999694824</ele>
        <time>2020-06-08T13:45:54.000Z</time>
      </trkpt>
      <trkpt lat="43.50291" lon="1.45681">
        <ele>227</ele>
        <time>2020-06-08T13:45:56.000Z</time>
      </trkpt>
      <trkpt lat="43.50278" lon="1.4567">
        <ele>225.19999694824</ele>
        <time>2020-06-08T13:45:58.000Z</time>
      </trkpt>
      <trkpt lat="43.50271" lon="1.45662">
        <ele>224</ele>
        <time>2020-06-08T13:45:59.000Z</time>
      </trkpt>
      <trkpt lat="43.50264" lon="1.45654">
        <ele>223.60000610352</ele>
        <time>2020-06-08T13:46:00.000Z</time>
      </trkpt>
      <trkpt lat="43.50252" lon="1.45634">
        <ele>223.19999694824</ele>
        <time>2020-06-08T13:46:02.000Z</time>
      </trkpt>
      <trkpt lat="43.50243" lon="1.45609">
        <ele>222.80000305176</ele>
        <time>2020-06-08T13:46:04.000Z</time>
      </trkpt>
      <trkpt lat="43.50239" lon="1.45582">
        <ele>221.19999694824</ele>
        <time>2020-06-08T13:46:06.000Z</time>
      </trkpt>
      <trkpt lat="43.5024" lon="1.45569">
        <ele>220</ele>
        <time>2020-06-08T13:46:07.000Z</time>
      </trkpt>
      <trkpt lat="43.50241" lon="1.45556">
        <ele>218.80000305176</ele>
        <time>2020-06-08T13:46:08.000Z</time>
      </trkpt>
      <trkpt lat="43.50244" lon="1.45543">
        <ele>217.39999389648</ele>
        <time>2020-06-08T13:46:09.000Z</time>
      </trkpt>
      <trkpt lat="43.50247" lon="1.4553">
        <ele>216.19999694824</ele>
        <time>2020-06-08T13:46:10.000Z</time>
      </trkpt>
      <trkpt lat="43.50249" lon="1.45518">
        <ele>215</ele>
        <time>2020-06-08T13:46:11.000Z</time>
      </trkpt>
      <trkpt lat="43.50251" lon="1.45506">
        <ele>213.80000305176</ele>
        <time>2020-06-08T13:46:12.000Z</time>
      </trkpt>
      <trkpt lat="43.50252" lon="1.45494">
        <ele>212.80000305176</ele>
        <time>2020-06-08T13:46:13.000Z</time>
      </trkpt>
      <trkpt lat="43.50253" lon="1.45484">
        <ele>211.80000305176</ele>
        <time>2020-06-08T13:46:14.000Z</time>
      </trkpt>
      <trkpt lat="43.50252" lon="1.45473">
        <ele>211</ele>
        <time>2020-06-08T13:46:15.000Z</time>
      </trkpt>
      <trkpt lat="43.5025" lon="1.45463">
        <ele>210.39999389648</ele>
        <time>2020-06-08T13:46:16.000Z</time>
      </trkpt>
      <trkpt lat="43.50246" lon="1.45453">
        <ele>209.80000305176</ele>
        <time>2020-06-08T13:46:17.000Z</time>
      </trkpt>
      <trkpt lat="43.50242" lon="1.45443">
        <ele>209.39999389648</ele>
        <time>2020-06-08T13:46:18.000Z</time>
      </trkpt>
      <trkpt lat="43.50236" lon="1.45434">
        <ele>208.60000610352</ele>
        <time>2020-06-08T13:46:19.000Z</time>
      </trkpt>
      <trkpt lat="43.50229" lon="1.45426">
        <ele>208.19999694824</ele>
        <time>2020-06-08T13:46:20.000Z</time>
      </trkpt>
      <trkpt lat="43.50211" lon="1.45417">
        <ele>207.80000305176</ele>
        <time>2020-06-08T13:46:22.000Z</time>
      </trkpt>
      <trkpt lat="43.50201" lon="1.45414">
        <ele>207.39999389648</ele>
        <time>2020-06-08T13:46:23.000Z</time>
      </trkpt>
      <trkpt lat="43.50191" lon="1.45412">
        <ele>207.19999694824</ele>
        <time>2020-06-08T13:46:24.000Z</time>
      </trkpt>
      <trkpt lat="43.5017" lon="1.45408">
        <ele>206.60000610352</ele>
        <time>2020-06-08T13:46:26.000Z</time>
      </trkpt>
      <trkpt lat="43.5016" lon="1.45405">
        <ele>205.60000610352</ele>
        <time>2020-06-08T13:46:27.000Z</time>
      </trkpt>
      <trkpt lat="43.50149" lon="1.45404">
        <ele>204.39999389648</ele>
        <time>2020-06-08T13:46:28.000Z</time>
      </trkpt>
      <trkpt lat="43.50139" lon="1.45403">
        <ele>203</ele>
        <time>2020-06-08T13:46:29.000Z</time>
      </trkpt>
      <trkpt lat="43.50129" lon="1.45403">
        <ele>201.80000305176</ele>
        <time>2020-06-08T13:46:30.000Z</time>
      </trkpt>
      <trkpt lat="43.50119" lon="1.45403">
        <ele>200.80000305176</ele>
        <time>2020-06-08T13:46:31.000Z</time>
      </trkpt>
      <trkpt lat="43.5011" lon="1.45404">
        <ele>199.80000305176</ele>
        <time>2020-06-08T13:46:32.000Z</time>
      </trkpt>
      <trkpt lat="43.50101" lon="1.45406">
        <ele>198.80000305176</ele>
        <time>2020-06-08T13:46:33.000Z</time>
      </trkpt>
      <trkpt lat="43.50092" lon="1.45411">
        <ele>196.60000610352</ele>
        <time>2020-06-08T13:46:34.000Z</time>
      </trkpt>
      <trkpt lat="43.50084" lon="1.45419">
        <ele>195.60000610352</ele>
        <time>2020-06-08T13:46:35.000Z</time>
      </trkpt>
      <trkpt lat="43.50076" lon="1.45428">
        <ele>194.60000610352</ele>
        <time>2020-06-08T13:46:36.000Z</time>
      </trkpt>
      <trkpt lat="43.50069" lon="1.45439">
        <ele>194</ele>
        <time>2020-06-08T13:46:37.000Z</time>
      </trkpt>
      <trkpt lat="43.50062" lon="1.4545">
        <ele>193.39999389648</ele>
        <time>2020-06-08T13:46:38.000Z</time>
      </trkpt>
      <trkpt lat="43.50055" lon="1.45461">
        <ele>193</ele>
        <time>2020-06-08T13:46:39.000Z</time>
      </trkpt>
      <trkpt lat="43.50048" lon="1.45473">
        <ele>192.60000610352</ele>
        <time>2020-06-08T13:46:40.000Z</time>
      </trkpt>
      <trkpt lat="43.50034" lon="1.45495">
        <ele>191.60000610352</ele>
        <time>2020-06-08T13:46:42.000Z</time>
      </trkpt>
      <trkpt lat="43.50021" lon="1.45515">
        <ele>190.80000305176</ele>
        <time>2020-06-08T13:46:44.000Z</time>
      </trkpt>
      <trkpt lat="43.50014" lon="1.45524">
        <ele>190.39999389648</ele>
        <time>2020-06-08T13:46:45.000Z</time>
      </trkpt>
      <trkpt lat="43.50006" lon="1.45532">
        <ele>190</ele>
        <time>2020-06-08T13:46:46.000Z</time>
      </trkpt>
      <trkpt lat="43.49997" lon="1.45539">
        <ele>188.80000305176</ele>
        <time>2020-06-08T13:46:47.000Z</time>
      </trkpt>
      <trkpt lat="43.49988" lon="1.45545">
        <ele>187.80000305176</ele>
        <time>2020-06-08T13:46:48.000Z</time>
      </trkpt>
      <trkpt lat="43.49968" lon="1.45551">
        <ele>186.39999389648</ele>
        <time>2020-06-08T13:46:50.000Z</time>
      </trkpt>
      <trkpt lat="43.49948" lon="1.45551">
        <ele>185.80000305176</ele>
        <time>2020-06-08T13:46:52.000Z</time>
      </trkpt>
      <trkpt lat="43.49938" lon="1.4555">
        <ele>185.19999694824</ele>
        <time>2020-06-08T13:46:53.000Z</time>
      </trkpt>
      <trkpt lat="43.4993" lon="1.45548">
        <ele>184.80000305176</ele>
        <time>2020-06-08T13:46:54.000Z</time>
      </trkpt>
      <trkpt lat="43.49914" lon="1.45545">
        <ele>184.19999694824</ele>
        <time>2020-06-08T13:46:56.000Z</time>
      </trkpt>
      <trkpt lat="43.49902" lon="1.45543">
        <ele>184</ele>
        <time>2020-06-08T13:46:58.000Z</time>
      </trkpt>
      <trkpt lat="43.49892" lon="1.45542">
        <ele>183.80000305176</ele>
        <time>2020-06-08T13:47:00.000Z</time>
      </trkpt>
      <trkpt lat="43.49883" lon="1.45542">
        <ele>183.80000305176</ele>
        <time>2020-06-08T13:47:02.000Z</time>
      </trkpt>
      <trkpt lat="43.49879" lon="1.45543">
        <ele>183.80000305176</ele>
        <time>2020-06-08T13:47:03.000Z</time>
      </trkpt>
      <trkpt lat="43.49874" lon="1.45544">
        <ele>183.80000305176</ele>
        <time>2020-06-08T13:47:04.000Z</time>
      </trkpt>
      <trkpt lat="43.49867" lon="1.45548">
        <ele>185</ele>
        <time>2020-06-08T13:47:06.000Z</time>
      </trkpt>
      <trkpt lat="43.49863" lon="1.4555">
        <ele>185.60000610352</ele>
        <time>2020-06-08T13:47:07.000Z</time>
      </trkpt>
      <trkpt lat="43.4986" lon="1.45553">
        <ele>187</ele>
        <time>2020-06-08T13:47:08.000Z</time>
      </trkpt>
      <trkpt lat="43.49854" lon="1.45559">
        <ele>188.19999694824</ele>
        <time>2020-06-08T13:47:10.000Z</time>
      </trkpt>
      <trkpt lat="43.49849" lon="1.45566">
        <ele>188.80000305176</ele>
        <time>2020-06-08T13:47:12.000Z</time>
      </trkpt>
      <trkpt lat="43.49847" lon="1.4557">
        <ele>189.39999389648</ele>
        <time>2020-06-08T13:47:13.000Z</time>
      </trkpt>
      <trkpt lat="43.49845" lon="1.45573">
        <ele>189.80000305176</ele>
        <time>2020-06-08T13:47:14.000Z</time>
      </trkpt>
      <trkpt lat="43.49841" lon="1.45579">
        <ele>190.39999389648</ele>
        <time>2020-06-08T13:47:16.000Z</time>
      </trkpt>
      <trkpt lat="43.49837" lon="1.45586">
        <ele>191.19999694824</ele>
        <time>2020-06-08T13:47:18.000Z</time>
      </trkpt>
      <trkpt lat="43.49835" lon="1.4559">
        <ele>191.39999389648</ele>
        <time>2020-06-08T13:47:19.000Z</time>
      </trkpt>
      <trkpt lat="43.49833" lon="1.45594">
        <ele>191.80000305176</ele>
        <time>2020-06-08T13:47:20.000Z</time>
      </trkpt>
      <trkpt lat="43.4983" lon="1.45601">
        <ele>192.60000610352</ele>
        <time>2020-06-08T13:47:22.000Z</time>
      </trkpt>
      <trkpt lat="43.49828" lon="1.45605">
        <ele>193</ele>
        <time>2020-06-08T13:47:23.000Z</time>
      </trkpt>
      <trkpt lat="43.49826" lon="1.45608">
        <ele>193.19999694824</ele>
        <time>2020-06-08T13:47:24.000Z</time>
      </trkpt>
      <trkpt lat="43.49821" lon="1.45615">
        <ele>193.80000305176</ele>
        <time>2020-06-08T13:47:26.000Z</time>
      </trkpt>
      <trkpt lat="43.49819" lon="1.45619">
        <ele>194</ele>
        <time>2020-06-08T13:47:27.000Z</time>
      </trkpt>
      <trkpt lat="43.49817" lon="1.45622">
        <ele>194.19999694824</ele>
        <time>2020-06-08T13:47:28.000Z</time>
      </trkpt>
      <trkpt lat="43.49814" lon="1.45629">
        <ele>194.60000610352</ele>
        <time>2020-06-08T13:47:30.000Z</time>
      </trkpt>
      <trkpt lat="43.4981" lon="1.45636">
        <ele>194.80000305176</ele>
        <time>2020-06-08T13:47:32.000Z</time>
      </trkpt>
      <trkpt lat="43.49808" lon="1.4564">
        <ele>195</ele>
        <time>2020-06-08T13:47:33.000Z</time>
      </trkpt>
      <trkpt lat="43.49806" lon="1.45644">
        <ele>195</ele>
        <time>2020-06-08T13:47:34.000Z</time>
      </trkpt>
      <trkpt lat="43.49803" lon="1.45651">
        <ele>195.60000610352</ele>
        <time>2020-06-08T13:47:36.000Z</time>
      </trkpt>
      <trkpt lat="43.49799" lon="1.45658">
        <ele>196</ele>
        <time>2020-06-08T13:47:38.000Z</time>
      </trkpt>
      <trkpt lat="43.49796" lon="1.45664">
        <ele>196.19999694824</ele>
        <time>2020-06-08T13:47:40.000Z</time>
      </trkpt>
      <trkpt lat="43.49793" lon="1.4567">
        <ele>196.80000305176</ele>
        <time>2020-06-08T13:47:42.000Z</time>
      </trkpt>
      <trkpt lat="43.49791" lon="1.45673">
        <ele>197.19999694824</ele>
        <time>2020-06-08T13:47:43.000Z</time>
      </trkpt>
      <trkpt lat="43.4979" lon="1.45677">
        <ele>197.19999694824</ele>
        <time>2020-06-08T13:47:44.000Z</time>
      </trkpt>
      <trkpt lat="43.49786" lon="1.45683">
        <ele>197.60000610352</ele>
        <time>2020-06-08T13:47:46.000Z</time>
      </trkpt>
      <trkpt lat="43.49783" lon="1.4569">
        <ele>197.60000610352</ele>
        <time>2020-06-08T13:47:48.000Z</time>
      </trkpt>
      <trkpt lat="43.4978" lon="1.45696">
        <ele>198.19999694824</ele>
        <time>2020-06-08T13:47:50.000Z</time>
      </trkpt>
      <trkpt lat="43.49777" lon="1.45703">
        <ele>198.80000305176</ele>
        <time>2020-06-08T13:47:52.000Z</time>
      </trkpt>
      <trkpt lat="43.49773" lon="1.45709">
        <ele>199</ele>
        <time>2020-06-08T13:47:54.000Z</time>
      </trkpt>
      <trkpt lat="43.4977" lon="1.45715">
        <ele>199.39999389648</ele>
        <time>2020-06-08T13:47:56.000Z</time>
      </trkpt>
      <trkpt lat="43.49767" lon="1.45721">
        <ele>199.60000610352</ele>
        <time>2020-06-08T13:47:58.000Z</time>
      </trkpt>
      <trkpt lat="43.49764" lon="1.45727">
        <ele>200</ele>
        <time>2020-06-08T13:48:00.000Z</time>
      </trkpt>
      <trkpt lat="43.49762" lon="1.4573">
        <ele>200.39999389648</ele>
        <time>2020-06-08T13:48:01.000Z</time>
      </trkpt>
      <trkpt lat="43.49761" lon="1.45733">
        <ele>200.60000610352</ele>
        <time>2020-06-08T13:48:02.000Z</time>
      </trkpt>
      <trkpt lat="43.49757" lon="1.4574">
        <ele>200.80000305176</ele>
        <time>2020-06-08T13:48:04.000Z</time>
      </trkpt>
      <trkpt lat="43.49754" lon="1.45746">
        <ele>201</ele>
        <time>2020-06-08T13:48:06.000Z</time>
      </trkpt>
      <trkpt lat="43.49751" lon="1.45752">
        <ele>201.19999694824</ele>
        <time>2020-06-08T13:48:08.000Z</time>
      </trkpt>
      <trkpt lat="43.49747" lon="1.45759">
        <ele>201.19999694824</ele>
        <time>2020-06-08T13:48:10.000Z</time>
      </trkpt>
      <trkpt lat="43.49744" lon="1.45765">
        <ele>201.39999389648</ele>
        <time>2020-06-08T13:48:12.000Z</time>
      </trkpt>
      <trkpt lat="43.49741" lon="1.45771">
        <ele>201.39999389648</ele>
        <time>2020-06-08T13:48:14.000Z</time>
      </trkpt>
      <trkpt lat="43.49738" lon="1.45776">
        <ele>201.60000610352</ele>
        <time>2020-06-08T13:48:16.000Z</time>
      </trkpt>
      <trkpt lat="43.49735" lon="1.45782">
        <ele>202.19999694824</ele>
        <time>2020-06-08T13:48:18.000Z</time>
      </trkpt>
      <trkpt lat="43.49732" lon="1.45788">
        <ele>202.39999389648</ele>
        <time>2020-06-08T13:48:20.000Z</time>
      </trkpt>
      <trkpt lat="43.49729" lon="1.45794">
        <ele>202.60000610352</ele>
        <time>2020-06-08T13:48:22.000Z</time>
      </trkpt>
      <trkpt lat="43.49725" lon="1.458">
        <ele>202.80000305176</ele>
        <time>2020-06-08T13:48:24.000Z</time>
      </trkpt>
      <trkpt lat="43.49722" lon="1.45806">
        <ele>203</ele>
        <time>2020-06-08T13:48:26.000Z</time>
      </trkpt>
      <trkpt lat="43.49718" lon="1.45812">
        <ele>203.39999389648</ele>
        <time>2020-06-08T13:48:28.000Z</time>
      </trkpt>
      <trkpt lat="43.49715" lon="1.45819">
        <ele>203.39999389648</ele>
        <time>2020-06-08T13:48:30.000Z</time>
      </trkpt>
      <trkpt lat="43.49712" lon="1.45825">
        <ele>203.80000305176</ele>
        <time>2020-06-08T13:48:32.000Z</time>
      </trkpt>
      <trkpt lat="43.49709" lon="1.45831">
        <ele>204</ele>
        <time>2020-06-08T13:48:34.000Z</time>
      </trkpt>
      <trkpt lat="43.49705" lon="1.45838">
        <ele>204.19999694824</ele>
        <time>2020-06-08T13:48:36.000Z</time>
      </trkpt>
      <trkpt lat="43.49702" lon="1.45844">
        <ele>204.39999389648</ele>
        <time>2020-06-08T13:48:38.000Z</time>
      </trkpt>
      <trkpt lat="43.49701" lon="1.45847">
        <ele>204.80000305176</ele>
        <time>2020-06-08T13:48:39.000Z</time>
      </trkpt>
      <trkpt lat="43.49699" lon="1.4585">
        <ele>205</ele>
        <time>2020-06-08T13:48:40.000Z</time>
      </trkpt>
      <trkpt lat="43.49696" lon="1.45856">
        <ele>205.19999694824</ele>
        <time>2020-06-08T13:48:42.000Z</time>
      </trkpt>
      <trkpt lat="43.49692" lon="1.45862">
        <ele>205.39999389648</ele>
        <time>2020-06-08T13:48:44.000Z</time>
      </trkpt>
      <trkpt lat="43.49689" lon="1.45868">
        <ele>205.60000610352</ele>
        <time>2020-06-08T13:48:46.000Z</time>
      </trkpt>
      <trkpt lat="43.49685" lon="1.45874">
        <ele>205.60000610352</ele>
        <time>2020-06-08T13:48:48.000Z</time>
      </trkpt>
      <trkpt lat="43.49683" lon="1.45877">
        <ele>205.80000305176</ele>
        <time>2020-06-08T13:48:49.000Z</time>
      </trkpt>
      <trkpt lat="43.49682" lon="1.4588">
        <ele>205.80000305176</ele>
        <time>2020-06-08T13:48:50.000Z</time>
      </trkpt>
      <trkpt lat="43.49678" lon="1.45886">
        <ele>206.60000610352</ele>
        <time>2020-06-08T13:48:52.000Z</time>
      </trkpt>
      <trkpt lat="43.49675" lon="1.45892">
        <ele>206.80000305176</ele>
        <time>2020-06-08T13:48:54.000Z</time>
      </trkpt>
      <trkpt lat="43.49673" lon="1.45895">
        <ele>206.80000305176</ele>
        <time>2020-06-08T13:48:55.000Z</time>
      </trkpt>
      <trkpt lat="43.49672" lon="1.45898">
        <ele>206.80000305176</ele>
        <time>2020-06-08T13:48:56.000Z</time>
      </trkpt>
      <trkpt lat="43.49668" lon="1.45903">
        <ele>207</ele>
        <time>2020-06-08T13:48:58.000Z</time>
      </trkpt>
      <trkpt lat="43.49665" lon="1.45909">
        <ele>207</ele>
        <time>2020-06-08T13:49:00.000Z</time>
      </trkpt>
      <trkpt lat="43.49663" lon="1.45915">
        <ele>207.39999389648</ele>
        <time>2020-06-08T13:49:02.000Z</time>
      </trkpt>
      <trkpt lat="43.49659" lon="1.45921">
        <ele>207.60000610352</ele>
        <time>2020-06-08T13:49:04.000Z</time>
      </trkpt>
      <trkpt lat="43.49656" lon="1.45927">
        <ele>207.60000610352</ele>
        <time>2020-06-08T13:49:06.000Z</time>
      </trkpt>
      <trkpt lat="43.49654" lon="1.45935">
        <ele>207.80000305176</ele>
        <time>2020-06-08T13:49:08.000Z</time>
      </trkpt>
      <trkpt lat="43.49651" lon="1.45942">
        <ele>208</ele>
        <time>2020-06-08T13:49:10.000Z</time>
      </trkpt>
      <trkpt lat="43.49649" lon="1.4595">
        <ele>208.39999389648</ele>
        <time>2020-06-08T13:49:12.000Z</time>
      </trkpt>
      <trkpt lat="43.49647" lon="1.45957">
        <ele>208.60000610352</ele>
        <time>2020-06-08T13:49:14.000Z</time>
      </trkpt>
      <trkpt lat="43.49645" lon="1.45965">
        <ele>208.80000305176</ele>
        <time>2020-06-08T13:49:16.000Z</time>
      </trkpt>
      <trkpt lat="43.49644" lon="1.45968">
        <ele>208.80000305176</ele>
        <time>2020-06-08T13:49:17.000Z</time>
      </trkpt>
      <trkpt lat="43.49643" lon="1.45972">
        <ele>208.80000305176</ele>
        <time>2020-06-08T13:49:18.000Z</time>
      </trkpt>
      <trkpt lat="43.49641" lon="1.45979">
        <ele>209</ele>
        <time>2020-06-08T13:49:20.000Z</time>
      </trkpt>
      <trkpt lat="43.49639" lon="1.45986">
        <ele>209.19999694824</ele>
        <time>2020-06-08T13:49:22.000Z</time>
      </trkpt>
      <trkpt lat="43.49637" lon="1.45992">
        <ele>209.60000610352</ele>
        <time>2020-06-08T13:49:24.000Z</time>
      </trkpt>
      <trkpt lat="43.49634" lon="1.45999">
        <ele>209.80000305176</ele>
        <time>2020-06-08T13:49:26.000Z</time>
      </trkpt>
      <trkpt lat="43.49632" lon="1.46007">
        <ele>210.19999694824</ele>
        <time>2020-06-08T13:49:28.000Z</time>
      </trkpt>
      <trkpt lat="43.49629" lon="1.46014">
        <ele>210.39999389648</ele>
        <time>2020-06-08T13:49:30.000Z</time>
      </trkpt>
      <trkpt lat="43.49625" lon="1.4602">
        <ele>210.60000610352</ele>
        <time>2020-06-08T13:49:32.000Z</time>
      </trkpt>
      <trkpt lat="43.49621" lon="1.46025">
        <ele>210.80000305176</ele>
        <time>2020-06-08T13:49:34.000Z</time>
      </trkpt>
      <trkpt lat="43.49616" lon="1.46029">
        <ele>211</ele>
        <time>2020-06-08T13:49:36.000Z</time>
      </trkpt>
      <trkpt lat="43.49612" lon="1.46032">
        <ele>211.19999694824</ele>
        <time>2020-06-08T13:49:38.000Z</time>
      </trkpt>
      <trkpt lat="43.49607" lon="1.46034">
        <ele>211.39999389648</ele>
        <time>2020-06-08T13:49:40.000Z</time>
      </trkpt>
      <trkpt lat="43.49603" lon="1.46036">
        <ele>211.60000610352</ele>
        <time>2020-06-08T13:49:42.000Z</time>
      </trkpt>
      <trkpt lat="43.49599" lon="1.46036">
        <ele>211.80000305176</ele>
        <time>2020-06-08T13:49:44.000Z</time>
      </trkpt>
      <trkpt lat="43.49597" lon="1.46036">
        <ele>212</ele>
        <time>2020-06-08T13:49:45.000Z</time>
      </trkpt>
      <trkpt lat="43.49596" lon="1.46037">
        <ele>212.19999694824</ele>
        <time>2020-06-08T13:49:46.000Z</time>
      </trkpt>
      <trkpt lat="43.49592" lon="1.46036">
        <ele>212.39999389648</ele>
        <time>2020-06-08T13:49:48.000Z</time>
      </trkpt>
      <trkpt lat="43.49588" lon="1.46037">
        <ele>212.80000305176</ele>
        <time>2020-06-08T13:49:50.000Z</time>
      </trkpt>
      <trkpt lat="43.49585" lon="1.46038">
        <ele>213.19999694824</ele>
        <time>2020-06-08T13:49:52.000Z</time>
      </trkpt>
      <trkpt lat="43.4958" lon="1.46039">
        <ele>213.39999389648</ele>
        <time>2020-06-08T13:49:54.000Z</time>
      </trkpt>
      <trkpt lat="43.49576" lon="1.4604">
        <ele>214</ele>
        <time>2020-06-08T13:49:56.000Z</time>
      </trkpt>
      <trkpt lat="43.49574" lon="1.46039">
        <ele>214.19999694824</ele>
        <time>2020-06-08T13:49:57.000Z</time>
      </trkpt>
      <trkpt lat="43.49572" lon="1.46039">
        <ele>214.39999389648</ele>
        <time>2020-06-08T13:49:58.000Z</time>
      </trkpt>
      <trkpt lat="43.49569" lon="1.46039">
        <ele>214.60000610352</ele>
        <time>2020-06-08T13:49:59.000Z</time>
      </trkpt>
      <trkpt lat="43.49567" lon="1.4604">
        <ele>215</ele>
        <time>2020-06-08T13:50:00.000Z</time>
      </trkpt>
      <trkpt lat="43.49563" lon="1.46041">
        <ele>215.19999694824</ele>
        <time>2020-06-08T13:50:02.000Z</time>
      </trkpt>
      <trkpt lat="43.49559" lon="1.46042">
        <ele>215.39999389648</ele>
        <time>2020-06-08T13:50:04.000Z</time>
      </trkpt>
      <trkpt lat="43.49557" lon="1.46043">
        <ele>215.39999389648</ele>
        <time>2020-06-08T13:50:05.000Z</time>
      </trkpt>
      <trkpt lat="43.49555" lon="1.46044">
        <ele>215.60000610352</ele>
        <time>2020-06-08T13:50:06.000Z</time>
      </trkpt>
      <trkpt lat="43.49551" lon="1.46046">
        <ele>215.80000305176</ele>
        <time>2020-06-08T13:50:08.000Z</time>
      </trkpt>
      <trkpt lat="43.49548" lon="1.4605">
        <ele>216.19999694824</ele>
        <time>2020-06-08T13:50:10.000Z</time>
      </trkpt>
      <trkpt lat="43.49544" lon="1.46053">
        <ele>216.60000610352</ele>
        <time>2020-06-08T13:50:12.000Z</time>
      </trkpt>
      <trkpt lat="43.4954" lon="1.46056">
        <ele>217</ele>
        <time>2020-06-08T13:50:14.000Z</time>
      </trkpt>
      <trkpt lat="43.49536" lon="1.4606">
        <ele>217.39999389648</ele>
        <time>2020-06-08T13:50:16.000Z</time>
      </trkpt>
      <trkpt lat="43.49534" lon="1.46062">
        <ele>217.60000610352</ele>
        <time>2020-06-08T13:50:17.000Z</time>
      </trkpt>
      <trkpt lat="43.49532" lon="1.46064">
        <ele>217.80000305176</ele>
        <time>2020-06-08T13:50:18.000Z</time>
      </trkpt>
      <trkpt lat="43.49528" lon="1.46068">
        <ele>218.19999694824</ele>
        <time>2020-06-08T13:50:20.000Z</time>
      </trkpt>
      <trkpt lat="43.49524" lon="1.46071">
        <ele>218.39999389648</ele>
        <time>2020-06-08T13:50:22.000Z</time>
      </trkpt>
      <trkpt lat="43.4952" lon="1.46076">
        <ele>218.80000305176</ele>
        <time>2020-06-08T13:50:24.000Z</time>
      </trkpt>
      <trkpt lat="43.49516" lon="1.46082">
        <ele>219</ele>
        <time>2020-06-08T13:50:26.000Z</time>
      </trkpt>
      <trkpt lat="43.49512" lon="1.46087">
        <ele>219.19999694824</ele>
        <time>2020-06-08T13:50:28.000Z</time>
      </trkpt>
      <trkpt lat="43.49509" lon="1.46092">
        <ele>219.39999389648</ele>
        <time>2020-06-08T13:50:30.000Z</time>
      </trkpt>
      <trkpt lat="43.49505" lon="1.46097">
        <ele>219.60000610352</ele>
        <time>2020-06-08T13:50:32.000Z</time>
      </trkpt>
      <trkpt lat="43.49501" lon="1.46102">
        <ele>219.80000305176</ele>
        <time>2020-06-08T13:50:34.000Z</time>
      </trkpt>
      <trkpt lat="43.495" lon="1.46104">
        <ele>220</ele>
        <time>2020-06-08T13:50:35.000Z</time>
      </trkpt>
      <trkpt lat="43.49498" lon="1.46106">
        <ele>220.19999694824</ele>
        <time>2020-06-08T13:50:36.000Z</time>
      </trkpt>
      <trkpt lat="43.49495" lon="1.46111">
        <ele>217.19999694824</ele>
        <time>2020-06-08T13:50:38.000Z</time>
      </trkpt>
      <trkpt lat="43.49491" lon="1.46117">
        <ele>220.60000610352</ele>
        <time>2020-06-08T13:50:40.000Z</time>
      </trkpt>
      <trkpt lat="43.49488" lon="1.46124">
        <ele>220.80000305176</ele>
        <time>2020-06-08T13:50:42.000Z</time>
      </trkpt>
      <trkpt lat="43.49487" lon="1.46128">
        <ele>221</ele>
        <time>2020-06-08T13:50:43.000Z</time>
      </trkpt>
      <trkpt lat="43.49486" lon="1.46132">
        <ele>221</ele>
        <time>2020-06-08T13:50:44.000Z</time>
      </trkpt>
      <trkpt lat="43.49484" lon="1.46139">
        <ele>221.19999694824</ele>
        <time>2020-06-08T13:50:46.000Z</time>
      </trkpt>
      <trkpt lat="43.49482" lon="1.46146">
        <ele>221.39999389648</ele>
        <time>2020-06-08T13:50:48.000Z</time>
      </trkpt>
      <trkpt lat="43.4948" lon="1.46154">
        <ele>221.60000610352</ele>
        <time>2020-06-08T13:50:50.000Z</time>
      </trkpt>
      <trkpt lat="43.49478" lon="1.46163">
        <ele>221.80000305176</ele>
        <time>2020-06-08T13:50:52.000Z</time>
      </trkpt>
      <trkpt lat="43.49476" lon="1.4617">
        <ele>222</ele>
        <time>2020-06-08T13:50:54.000Z</time>
      </trkpt>
      <trkpt lat="43.49474" lon="1.46178">
        <ele>222</ele>
        <time>2020-06-08T13:50:56.000Z</time>
      </trkpt>
      <trkpt lat="43.49472" lon="1.46187">
        <ele>222.19999694824</ele>
        <time>2020-06-08T13:50:58.000Z</time>
      </trkpt>
      <trkpt lat="43.4947" lon="1.46196">
        <ele>222.19999694824</ele>
        <time>2020-06-08T13:51:00.000Z</time>
      </trkpt>
      <trkpt lat="43.49469" lon="1.46204">
        <ele>222.39999389648</ele>
        <time>2020-06-08T13:51:02.000Z</time>
      </trkpt>
      <trkpt lat="43.49467" lon="1.46213">
        <ele>222.80000305176</ele>
        <time>2020-06-08T13:51:04.000Z</time>
      </trkpt>
      <trkpt lat="43.49466" lon="1.46222">
        <ele>223.19999694824</ele>
        <time>2020-06-08T13:51:06.000Z</time>
      </trkpt>
      <trkpt lat="43.49465" lon="1.46231">
        <ele>223.39999389648</ele>
        <time>2020-06-08T13:51:08.000Z</time>
      </trkpt>
      <trkpt lat="43.49464" lon="1.46235">
        <ele>223.60000610352</ele>
        <time>2020-06-08T13:51:09.000Z</time>
      </trkpt>
      <trkpt lat="43.49463" lon="1.46239">
        <ele>223.60000610352</ele>
        <time>2020-06-08T13:51:10.000Z</time>
      </trkpt>
      <trkpt lat="43.49462" lon="1.46247">
        <ele>223.80000305176</ele>
        <time>2020-06-08T13:51:12.000Z</time>
      </trkpt>
      <trkpt lat="43.49461" lon="1.46255">
        <ele>224</ele>
        <time>2020-06-08T13:51:14.000Z</time>
      </trkpt>
      <trkpt lat="43.49459" lon="1.46262">
        <ele>224.39999389648</ele>
        <time>2020-06-08T13:51:16.000Z</time>
      </trkpt>
      <trkpt lat="43.49458" lon="1.46266">
        <ele>224.60000610352</ele>
        <time>2020-06-08T13:51:17.000Z</time>
      </trkpt>
      <trkpt lat="43.49457" lon="1.4627">
        <ele>224.80000305176</ele>
        <time>2020-06-08T13:51:18.000Z</time>
      </trkpt>
      <trkpt lat="43.49455" lon="1.46277">
        <ele>225.19999694824</ele>
        <time>2020-06-08T13:51:20.000Z</time>
      </trkpt>
      <trkpt lat="43.49454" lon="1.46285">
        <ele>225.39999389648</ele>
        <time>2020-06-08T13:51:22.000Z</time>
      </trkpt>
      <trkpt lat="43.49453" lon="1.46289">
        <ele>225.60000610352</ele>
        <time>2020-06-08T13:51:23.000Z</time>
      </trkpt>
      <trkpt lat="43.49452" lon="1.46292">
        <ele>225.60000610352</ele>
        <time>2020-06-08T13:51:24.000Z</time>
      </trkpt>
      <trkpt lat="43.49451" lon="1.46299">
        <ele>225.80000305176</ele>
        <time>2020-06-08T13:51:26.000Z</time>
      </trkpt>
      <trkpt lat="43.4945" lon="1.46306">
        <ele>226.19999694824</ele>
        <time>2020-06-08T13:51:28.000Z</time>
      </trkpt>
      <trkpt lat="43.49448" lon="1.46315">
        <ele>226.80000305176</ele>
        <time>2020-06-08T13:51:30.000Z</time>
      </trkpt>
      <trkpt lat="43.49447" lon="1.46322">
        <ele>227</ele>
        <time>2020-06-08T13:51:32.000Z</time>
      </trkpt>
      <trkpt lat="43.49444" lon="1.4633">
        <ele>227.19999694824</ele>
        <time>2020-06-08T13:51:34.000Z</time>
      </trkpt>
      <trkpt lat="43.49442" lon="1.46338">
        <ele>227.60000610352</ele>
        <time>2020-06-08T13:51:36.000Z</time>
      </trkpt>
      <trkpt lat="43.49441" lon="1.46342">
        <ele>227.80000305176</ele>
        <time>2020-06-08T13:51:37.000Z</time>
      </trkpt>
      <trkpt lat="43.49439" lon="1.46346">
        <ele>227.80000305176</ele>
        <time>2020-06-08T13:51:38.000Z</time>
      </trkpt>
      <trkpt lat="43.49436" lon="1.46353">
        <ele>228.19999694824</ele>
        <time>2020-06-08T13:51:40.000Z</time>
      </trkpt>
      <trkpt lat="43.49432" lon="1.4636">
        <ele>228.39999389648</ele>
        <time>2020-06-08T13:51:42.000Z</time>
      </trkpt>
      <trkpt lat="43.49427" lon="1.46367">
        <ele>228.60000610352</ele>
        <time>2020-06-08T13:51:44.000Z</time>
      </trkpt>
      <trkpt lat="43.49425" lon="1.4637">
        <ele>228.80000305176</ele>
        <time>2020-06-08T13:51:45.000Z</time>
      </trkpt>
      <trkpt lat="43.49423" lon="1.46373">
        <ele>229.19999694824</ele>
        <time>2020-06-08T13:51:46.000Z</time>
      </trkpt>
      <trkpt lat="43.49418" lon="1.46378">
        <ele>229.39999389648</ele>
        <time>2020-06-08T13:51:48.000Z</time>
      </trkpt>
      <trkpt lat="43.49413" lon="1.46383">
        <ele>229.60000610352</ele>
        <time>2020-06-08T13:51:50.000Z</time>
      </trkpt>
      <trkpt lat="43.49408" lon="1.46388">
        <ele>229.60000610352</ele>
        <time>2020-06-08T13:51:52.000Z</time>
      </trkpt>
      <trkpt lat="43.49403" lon="1.46394">
        <ele>229.80000305176</ele>
        <time>2020-06-08T13:51:54.000Z</time>
      </trkpt>
      <trkpt lat="43.49398" lon="1.464">
        <ele>230</ele>
        <time>2020-06-08T13:51:56.000Z</time>
      </trkpt>
      <trkpt lat="43.49394" lon="1.46406">
        <ele>230.19999694824</ele>
        <time>2020-06-08T13:51:58.000Z</time>
      </trkpt>
      <trkpt lat="43.4939" lon="1.46412">
        <ele>230.19999694824</ele>
        <time>2020-06-08T13:52:00.000Z</time>
      </trkpt>
      <trkpt lat="43.49386" lon="1.46418">
        <ele>230.39999389648</ele>
        <time>2020-06-08T13:52:02.000Z</time>
      </trkpt>
      <trkpt lat="43.49382" lon="1.46425">
        <ele>230.80000305176</ele>
        <time>2020-06-08T13:52:04.000Z</time>
      </trkpt>
      <trkpt lat="43.49381" lon="1.46428">
        <ele>231</ele>
        <time>2020-06-08T13:52:05.000Z</time>
      </trkpt>
      <trkpt lat="43.49379" lon="1.46431">
        <ele>231.19999694824</ele>
        <time>2020-06-08T13:52:06.000Z</time>
      </trkpt>
      <trkpt lat="43.49376" lon="1.46438">
        <ele>231.60000610352</ele>
        <time>2020-06-08T13:52:08.000Z</time>
      </trkpt>
      <trkpt lat="43.49372" lon="1.46444">
        <ele>231.80000305176</ele>
        <time>2020-06-08T13:52:10.000Z</time>
      </trkpt>
      <trkpt lat="43.49369" lon="1.46451">
        <ele>232</ele>
        <time>2020-06-08T13:52:12.000Z</time>
      </trkpt>
      <trkpt lat="43.49366" lon="1.46458">
        <ele>232.19999694824</ele>
        <time>2020-06-08T13:52:14.000Z</time>
      </trkpt>
      <trkpt lat="43.49362" lon="1.46465">
        <ele>232.60000610352</ele>
        <time>2020-06-08T13:52:16.000Z</time>
      </trkpt>
      <trkpt lat="43.49361" lon="1.46468">
        <ele>232.39999389648</ele>
        <time>2020-06-08T13:52:17.000Z</time>
      </trkpt>
      <trkpt lat="43.49359" lon="1.46471">
        <ele>232.60000610352</ele>
        <time>2020-06-08T13:52:18.000Z</time>
      </trkpt>
      <trkpt lat="43.49356" lon="1.46478">
        <ele>233</ele>
        <time>2020-06-08T13:52:20.000Z</time>
      </trkpt>
      <trkpt lat="43.49355" lon="1.46481">
        <ele>233.19999694824</ele>
        <time>2020-06-08T13:52:21.000Z</time>
      </trkpt>
      <trkpt lat="43.49353" lon="1.46484">
        <ele>233.60000610352</ele>
        <time>2020-06-08T13:52:22.000Z</time>
      </trkpt>
      <trkpt lat="43.4935" lon="1.4649">
        <ele>233.80000305176</ele>
        <time>2020-06-08T13:52:24.000Z</time>
      </trkpt>
      <trkpt lat="43.49347" lon="1.46497">
        <ele>234</ele>
        <time>2020-06-08T13:52:26.000Z</time>
      </trkpt>
      <trkpt lat="43.49344" lon="1.46503">
        <ele>234.39999389648</ele>
        <time>2020-06-08T13:52:28.000Z</time>
      </trkpt>
      <trkpt lat="43.49343" lon="1.46506">
        <ele>234.39999389648</ele>
        <time>2020-06-08T13:52:29.000Z</time>
      </trkpt>
      <trkpt lat="43.49341" lon="1.46509">
        <ele>234.80000305176</ele>
        <time>2020-06-08T13:52:30.000Z</time>
      </trkpt>
      <trkpt lat="43.49338" lon="1.46516">
        <ele>235.19999694824</ele>
        <time>2020-06-08T13:52:32.000Z</time>
      </trkpt>
      <trkpt lat="43.49336" lon="1.46521">
        <ele>235.39999389648</ele>
        <time>2020-06-08T13:52:34.000Z</time>
      </trkpt>
      <trkpt lat="43.49334" lon="1.46524">
        <ele>235.60000610352</ele>
        <time>2020-06-08T13:52:35.000Z</time>
      </trkpt>
      <trkpt lat="43.49333" lon="1.46527">
        <ele>235.60000610352</ele>
        <time>2020-06-08T13:52:36.000Z</time>
      </trkpt>
      <trkpt lat="43.4933" lon="1.46534">
        <ele>235.60000610352</ele>
        <time>2020-06-08T13:52:38.000Z</time>
      </trkpt>
      <trkpt lat="43.49327" lon="1.4654">
        <ele>235.80000305176</ele>
        <time>2020-06-08T13:52:40.000Z</time>
      </trkpt>
      <trkpt lat="43.49324" lon="1.46547">
        <ele>236.19999694824</ele>
        <time>2020-06-08T13:52:42.000Z</time>
      </trkpt>
      <trkpt lat="43.49321" lon="1.46553">
        <ele>236.60000610352</ele>
        <time>2020-06-08T13:52:44.000Z</time>
      </trkpt>
      <trkpt lat="43.49318" lon="1.4656">
        <ele>236.80000305176</ele>
        <time>2020-06-08T13:52:46.000Z</time>
      </trkpt>
      <trkpt lat="43.49315" lon="1.46566">
        <ele>237.19999694824</ele>
        <time>2020-06-08T13:52:48.000Z</time>
      </trkpt>
      <trkpt lat="43.49312" lon="1.46572">
        <ele>237.19999694824</ele>
        <time>2020-06-08T13:52:50.000Z</time>
      </trkpt>
      <trkpt lat="43.49309" lon="1.46579">
        <ele>237.39999389648</ele>
        <time>2020-06-08T13:52:52.000Z</time>
      </trkpt>
      <trkpt lat="43.49306" lon="1.46585">
        <ele>238</ele>
        <time>2020-06-08T13:52:54.000Z</time>
      </trkpt>
      <trkpt lat="43.49303" lon="1.46592">
        <ele>238.39999389648</ele>
        <time>2020-06-08T13:52:56.000Z</time>
      </trkpt>
      <trkpt lat="43.493" lon="1.46598">
        <ele>239</ele>
        <time>2020-06-08T13:52:58.000Z</time>
      </trkpt>
      <trkpt lat="43.49298" lon="1.46601">
        <ele>239</ele>
        <time>2020-06-08T13:52:59.000Z</time>
      </trkpt>
      <trkpt lat="43.49297" lon="1.46604">
        <ele>239</ele>
        <time>2020-06-08T13:53:00.000Z</time>
      </trkpt>
      <trkpt lat="43.49294" lon="1.4661">
        <ele>239.39999389648</ele>
        <time>2020-06-08T13:53:02.000Z</time>
      </trkpt>
      <trkpt lat="43.49291" lon="1.46617">
        <ele>239.80000305176</ele>
        <time>2020-06-08T13:53:04.000Z</time>
      </trkpt>
      <trkpt lat="43.49287" lon="1.46623">
        <ele>240</ele>
        <time>2020-06-08T13:53:06.000Z</time>
      </trkpt>
      <trkpt lat="43.49284" lon="1.4663">
        <ele>240</ele>
        <time>2020-06-08T13:53:08.000Z</time>
      </trkpt>
      <trkpt lat="43.49281" lon="1.46636">
        <ele>240.19999694824</ele>
        <time>2020-06-08T13:53:10.000Z</time>
      </trkpt>
      <trkpt lat="43.49278" lon="1.46642">
        <ele>240.60000610352</ele>
        <time>2020-06-08T13:53:12.000Z</time>
      </trkpt>
      <trkpt lat="43.49275" lon="1.46649">
        <ele>240.80000305176</ele>
        <time>2020-06-08T13:53:14.000Z</time>
      </trkpt>
      <trkpt lat="43.49271" lon="1.46656">
        <ele>241</ele>
        <time>2020-06-08T13:53:16.000Z</time>
      </trkpt>
      <trkpt lat="43.49268" lon="1.46663">
        <ele>241.19999694824</ele>
        <time>2020-06-08T13:53:18.000Z</time>
      </trkpt>
      <trkpt lat="43.49265" lon="1.46669">
        <ele>241.39999389648</ele>
        <time>2020-06-08T13:53:20.000Z</time>
      </trkpt>
      <trkpt lat="43.49262" lon="1.46676">
        <ele>241.60000610352</ele>
        <time>2020-06-08T13:53:22.000Z</time>
      </trkpt>
      <trkpt lat="43.49259" lon="1.46683">
        <ele>241.80000305176</ele>
        <time>2020-06-08T13:53:24.000Z</time>
      </trkpt>
      <trkpt lat="43.49255" lon="1.4669">
        <ele>242</ele>
        <time>2020-06-08T13:53:26.000Z</time>
      </trkpt>
      <trkpt lat="43.49252" lon="1.46696">
        <ele>242</ele>
        <time>2020-06-08T13:53:28.000Z</time>
      </trkpt>
      <trkpt lat="43.4925" lon="1.46699">
        <ele>242.19999694824</ele>
        <time>2020-06-08T13:53:29.000Z</time>
      </trkpt>
      <trkpt lat="43.49249" lon="1.46702">
        <ele>242.60000610352</ele>
        <time>2020-06-08T13:53:30.000Z</time>
      </trkpt>
      <trkpt lat="43.49246" lon="1.46709">
        <ele>243</ele>
        <time>2020-06-08T13:53:32.000Z</time>
      </trkpt>
      <trkpt lat="43.49242" lon="1.46716">
        <ele>243.19999694824</ele>
        <time>2020-06-08T13:53:34.000Z</time>
      </trkpt>
      <trkpt lat="43.49239" lon="1.46722">
        <ele>243.39999389648</ele>
        <time>2020-06-08T13:53:36.000Z</time>
      </trkpt>
      <trkpt lat="43.49236" lon="1.46729">
        <ele>243.60000610352</ele>
        <time>2020-06-08T13:53:38.000Z</time>
      </trkpt>
      <trkpt lat="43.49232" lon="1.46736">
        <ele>243.80000305176</ele>
        <time>2020-06-08T13:53:40.000Z</time>
      </trkpt>
      <trkpt lat="43.49229" lon="1.46743">
        <ele>244</ele>
        <time>2020-06-08T13:53:42.000Z</time>
      </trkpt>
      <trkpt lat="43.49226" lon="1.46751">
        <ele>244.60000610352</ele>
        <time>2020-06-08T13:53:44.000Z</time>
      </trkpt>
      <trkpt lat="43.49222" lon="1.46758">
        <ele>245</ele>
        <time>2020-06-08T13:53:46.000Z</time>
      </trkpt>
      <trkpt lat="43.49219" lon="1.46765">
        <ele>245.39999389648</ele>
        <time>2020-06-08T13:53:48.000Z</time>
      </trkpt>
      <trkpt lat="43.49217" lon="1.46768">
        <ele>245.60000610352</ele>
        <time>2020-06-08T13:53:49.000Z</time>
      </trkpt>
      <trkpt lat="43.49215" lon="1.46771">
        <ele>245.60000610352</ele>
        <time>2020-06-08T13:53:50.000Z</time>
      </trkpt>
      <trkpt lat="43.49212" lon="1.46778">
        <ele>245.80000305176</ele>
        <time>2020-06-08T13:53:52.000Z</time>
      </trkpt>
      <trkpt lat="43.49208" lon="1.46785">
        <ele>246.19999694824</ele>
        <time>2020-06-08T13:53:54.000Z</time>
      </trkpt>
      <trkpt lat="43.49204" lon="1.46791">
        <ele>246.39999389648</ele>
        <time>2020-06-08T13:53:56.000Z</time>
      </trkpt>
      <trkpt lat="43.492" lon="1.46797">
        <ele>246.60000610352</ele>
        <time>2020-06-08T13:53:58.000Z</time>
      </trkpt>
      <trkpt lat="43.49197" lon="1.468">
        <ele>246.60000610352</ele>
        <time>2020-06-08T13:53:59.000Z</time>
      </trkpt>
      <trkpt lat="43.49195" lon="1.46804">
        <ele>246.60000610352</ele>
        <time>2020-06-08T13:54:00.000Z</time>
      </trkpt>
      <trkpt lat="43.49191" lon="1.4681">
        <ele>246.80000305176</ele>
        <time>2020-06-08T13:54:02.000Z</time>
      </trkpt>
      <trkpt lat="43.49187" lon="1.46816">
        <ele>247</ele>
        <time>2020-06-08T13:54:04.000Z</time>
      </trkpt>
      <trkpt lat="43.49182" lon="1.46822">
        <ele>247.19999694824</ele>
        <time>2020-06-08T13:54:06.000Z</time>
      </trkpt>
      <trkpt lat="43.49178" lon="1.46829">
        <ele>247.39999389648</ele>
        <time>2020-06-08T13:54:08.000Z</time>
      </trkpt>
      <trkpt lat="43.49173" lon="1.46835">
        <ele>247.39999389648</ele>
        <time>2020-06-08T13:54:10.000Z</time>
      </trkpt>
      <trkpt lat="43.49168" lon="1.46841">
        <ele>247.60000610352</ele>
        <time>2020-06-08T13:54:12.000Z</time>
      </trkpt>
      <trkpt lat="43.49166" lon="1.46844">
        <ele>247.60000610352</ele>
        <time>2020-06-08T13:54:13.000Z</time>
      </trkpt>
      <trkpt lat="43.49164" lon="1.46847">
        <ele>247.60000610352</ele>
        <time>2020-06-08T13:54:14.000Z</time>
      </trkpt>
      <trkpt lat="43.4916" lon="1.46853">
        <ele>247.60000610352</ele>
        <time>2020-06-08T13:54:16.000Z</time>
      </trkpt>
      <trkpt lat="43.49155" lon="1.46859">
        <ele>247.80000305176</ele>
        <time>2020-06-08T13:54:18.000Z</time>
      </trkpt>
      <trkpt lat="43.49151" lon="1.46865">
        <ele>248</ele>
        <time>2020-06-08T13:54:20.000Z</time>
      </trkpt>
      <trkpt lat="43.49147" lon="1.46871">
        <ele>248.19999694824</ele>
        <time>2020-06-08T13:54:22.000Z</time>
      </trkpt>
      <trkpt lat="43.49143" lon="1.46877">
        <ele>248.19999694824</ele>
        <time>2020-06-08T13:54:24.000Z</time>
      </trkpt>
      <trkpt lat="43.49139" lon="1.46882">
        <ele>248.39999389648</ele>
        <time>2020-06-08T13:54:26.000Z</time>
      </trkpt>
      <trkpt lat="43.49135" lon="1.46888">
        <ele>248.39999389648</ele>
        <time>2020-06-08T13:54:28.000Z</time>
      </trkpt>
      <trkpt lat="43.49131" lon="1.46894">
        <ele>248.60000610352</ele>
        <time>2020-06-08T13:54:30.000Z</time>
      </trkpt>
      <trkpt lat="43.49129" lon="1.46896">
        <ele>248.60000610352</ele>
        <time>2020-06-08T13:54:31.000Z</time>
      </trkpt>
      <trkpt lat="43.49127" lon="1.46899">
        <ele>248.80000305176</ele>
        <time>2020-06-08T13:54:32.000Z</time>
      </trkpt>
      <trkpt lat="43.49123" lon="1.46905">
        <ele>249.19999694824</ele>
        <time>2020-06-08T13:54:34.000Z</time>
      </trkpt>
      <trkpt lat="43.49119" lon="1.46911">
        <ele>249.19999694824</ele>
        <time>2020-06-08T13:54:36.000Z</time>
      </trkpt>
      <trkpt lat="43.49115" lon="1.46916">
        <ele>249.39999389648</ele>
        <time>2020-06-08T13:54:38.000Z</time>
      </trkpt>
      <trkpt lat="43.49112" lon="1.46922">
        <ele>249.80000305176</ele>
        <time>2020-06-08T13:54:40.000Z</time>
      </trkpt>
      <trkpt lat="43.4911" lon="1.46925">
        <ele>250</ele>
        <time>2020-06-08T13:54:41.000Z</time>
      </trkpt>
      <trkpt lat="43.49108" lon="1.46928">
        <ele>249.80000305176</ele>
        <time>2020-06-08T13:54:42.000Z</time>
      </trkpt>
      <trkpt lat="43.49105" lon="1.46934">
        <ele>250.39999389648</ele>
        <time>2020-06-08T13:54:44.000Z</time>
      </trkpt>
      <trkpt lat="43.49101" lon="1.4694">
        <ele>250.60000610352</ele>
        <time>2020-06-08T13:54:46.000Z</time>
      </trkpt>
      <trkpt lat="43.49098" lon="1.46946">
        <ele>250.80000305176</ele>
        <time>2020-06-08T13:54:48.000Z</time>
      </trkpt>
      <trkpt lat="43.49094" lon="1.46952">
        <ele>251</ele>
        <time>2020-06-08T13:54:50.000Z</time>
      </trkpt>
      <trkpt lat="43.49091" lon="1.46959">
        <ele>251.60000610352</ele>
        <time>2020-06-08T13:54:52.000Z</time>
      </trkpt>
      <trkpt lat="43.49088" lon="1.46966">
        <ele>252</ele>
        <time>2020-06-08T13:54:54.000Z</time>
      </trkpt>
      <trkpt lat="43.49087" lon="1.46969">
        <ele>252</ele>
        <time>2020-06-08T13:54:55.000Z</time>
      </trkpt>
      <trkpt lat="43.49085" lon="1.46972">
        <ele>252.19999694824</ele>
        <time>2020-06-08T13:54:56.000Z</time>
      </trkpt>
      <trkpt lat="43.49082" lon="1.46978">
        <ele>252.39999389648</ele>
        <time>2020-06-08T13:54:58.000Z</time>
      </trkpt>
      <trkpt lat="43.49079" lon="1.46985">
        <ele>252.60000610352</ele>
        <time>2020-06-08T13:55:00.000Z</time>
      </trkpt>
      <trkpt lat="43.49076" lon="1.46992">
        <ele>252.80000305176</ele>
        <time>2020-06-08T13:55:02.000Z</time>
      </trkpt>
      <trkpt lat="43.49073" lon="1.46999">
        <ele>252.80000305176</ele>
        <time>2020-06-08T13:55:04.000Z</time>
      </trkpt>
      <trkpt lat="43.4907" lon="1.47006">
        <ele>253</ele>
        <time>2020-06-08T13:55:06.000Z</time>
      </trkpt>
      <trkpt lat="43.49069" lon="1.4701">
        <ele>253.19999694824</ele>
        <time>2020-06-08T13:55:07.000Z</time>
      </trkpt>
      <trkpt lat="43.49067" lon="1.47014">
        <ele>253.19999694824</ele>
        <time>2020-06-08T13:55:08.000Z</time>
      </trkpt>
      <trkpt lat="43.49064" lon="1.47021">
        <ele>253.39999389648</ele>
        <time>2020-06-08T13:55:10.000Z</time>
      </trkpt>
      <trkpt lat="43.49061" lon="1.47028">
        <ele>253.80000305176</ele>
        <time>2020-06-08T13:55:12.000Z</time>
      </trkpt>
      <trkpt lat="43.49058" lon="1.47036">
        <ele>254.19999694824</ele>
        <time>2020-06-08T13:55:14.000Z</time>
      </trkpt>
      <trkpt lat="43.49055" lon="1.47043">
        <ele>254.19999694824</ele>
        <time>2020-06-08T13:55:16.000Z</time>
      </trkpt>
      <trkpt lat="43.49052" lon="1.47051">
        <ele>254.39999389648</ele>
        <time>2020-06-08T13:55:18.000Z</time>
      </trkpt>
      <trkpt lat="43.49049" lon="1.4706">
        <ele>254.60000610352</ele>
        <time>2020-06-08T13:55:20.000Z</time>
      </trkpt>
      <trkpt lat="43.49045" lon="1.47068">
        <ele>254.80000305176</ele>
        <time>2020-06-08T13:55:22.000Z</time>
      </trkpt>
      <trkpt lat="43.49042" lon="1.47076">
        <ele>254.80000305176</ele>
        <time>2020-06-08T13:55:24.000Z</time>
      </trkpt>
      <trkpt lat="43.49039" lon="1.47084">
        <ele>255</ele>
        <time>2020-06-08T13:55:26.000Z</time>
      </trkpt>
      <trkpt lat="43.49035" lon="1.47092">
        <ele>255</ele>
        <time>2020-06-08T13:55:28.000Z</time>
      </trkpt>
      <trkpt lat="43.49031" lon="1.471">
        <ele>255</ele>
        <time>2020-06-08T13:55:30.000Z</time>
      </trkpt>
      <trkpt lat="43.49028" lon="1.47108">
        <ele>255</ele>
        <time>2020-06-08T13:55:32.000Z</time>
      </trkpt>
      <trkpt lat="43.49024" lon="1.47117">
        <ele>255</ele>
        <time>2020-06-08T13:55:34.000Z</time>
      </trkpt>
      <trkpt lat="43.4902" lon="1.47125">
        <ele>255</ele>
        <time>2020-06-08T13:55:36.000Z</time>
      </trkpt>
      <trkpt lat="43.49015" lon="1.47133">
        <ele>255.19999694824</ele>
        <time>2020-06-08T13:55:38.000Z</time>
      </trkpt>
      <trkpt lat="43.4901" lon="1.47142">
        <ele>255.19999694824</ele>
        <time>2020-06-08T13:55:40.000Z</time>
      </trkpt>
      <trkpt lat="43.49004" lon="1.47152">
        <ele>255.19999694824</ele>
        <time>2020-06-08T13:55:42.000Z</time>
      </trkpt>
      <trkpt lat="43.48998" lon="1.47162">
        <ele>255.19999694824</ele>
        <time>2020-06-08T13:55:44.000Z</time>
      </trkpt>
      <trkpt lat="43.48991" lon="1.4717">
        <ele>255.19999694824</ele>
        <time>2020-06-08T13:55:46.000Z</time>
      </trkpt>
      <trkpt lat="43.48984" lon="1.47179">
        <ele>254.60000610352</ele>
        <time>2020-06-08T13:55:48.000Z</time>
      </trkpt>
      <trkpt lat="43.48977" lon="1.47187">
        <ele>254.19999694824</ele>
        <time>2020-06-08T13:55:50.000Z</time>
      </trkpt>
      <trkpt lat="43.4897" lon="1.47192">
        <ele>253.80000305176</ele>
        <time>2020-06-08T13:55:52.000Z</time>
      </trkpt>
      <trkpt lat="43.48964" lon="1.47196">
        <ele>253.80000305176</ele>
        <time>2020-06-08T13:55:54.000Z</time>
      </trkpt>
      <trkpt lat="43.48959" lon="1.47199">
        <ele>253.80000305176</ele>
        <time>2020-06-08T13:55:56.000Z</time>
      </trkpt>
      <trkpt lat="43.48954" lon="1.47201">
        <ele>253.80000305176</ele>
        <time>2020-06-08T13:55:58.000Z</time>
      </trkpt>
      <trkpt lat="43.4895" lon="1.47203">
        <ele>253.80000305176</ele>
        <time>2020-06-08T13:56:00.000Z</time>
      </trkpt>
      <trkpt lat="43.48946" lon="1.47206">
        <ele>253.80000305176</ele>
        <time>2020-06-08T13:56:02.000Z</time>
      </trkpt>
      <trkpt lat="43.48943" lon="1.47208">
        <ele>253.80000305176</ele>
        <time>2020-06-08T13:56:04.000Z</time>
      </trkpt>
      <trkpt lat="43.48942" lon="1.47209">
        <ele>253.80000305176</ele>
        <time>2020-06-08T13:56:05.000Z</time>
      </trkpt>
      <trkpt lat="43.48943" lon="1.47214">
        <ele>253.80000305176</ele>
        <time>2020-06-08T13:57:58.000Z</time>
      </trkpt>
      <trkpt lat="43.48944" lon="1.47218">
        <ele>253.60000610352</ele>
        <time>2020-06-08T13:58:00.000Z</time>
      </trkpt>
      <trkpt lat="43.48945" lon="1.47225">
        <ele>253.60000610352</ele>
        <time>2020-06-08T13:58:02.000Z</time>
      </trkpt>
      <trkpt lat="43.48945" lon="1.4723">
        <ele>253.60000610352</ele>
        <time>2020-06-08T13:58:03.000Z</time>
      </trkpt>
      <trkpt lat="43.48945" lon="1.47236">
        <ele>253.39999389648</ele>
        <time>2020-06-08T13:58:04.000Z</time>
      </trkpt>
      <trkpt lat="43.48943" lon="1.4725">
        <ele>253.39999389648</ele>
        <time>2020-06-08T13:58:06.000Z</time>
      </trkpt>
      <trkpt lat="43.48939" lon="1.47265">
        <ele>253.19999694824</ele>
        <time>2020-06-08T13:58:08.000Z</time>
      </trkpt>
      <trkpt lat="43.48935" lon="1.47281">
        <ele>252.80000305176</ele>
        <time>2020-06-08T13:58:10.000Z</time>
      </trkpt>
      <trkpt lat="43.48932" lon="1.47289">
        <ele>252.39999389648</ele>
        <time>2020-06-08T13:58:11.000Z</time>
      </trkpt>
      <trkpt lat="43.4893" lon="1.47297">
        <ele>252</ele>
        <time>2020-06-08T13:58:12.000Z</time>
      </trkpt>
      <trkpt lat="43.48925" lon="1.47313">
        <ele>251.19999694824</ele>
        <time>2020-06-08T13:58:14.000Z</time>
      </trkpt>
      <trkpt lat="43.48921" lon="1.47328">
        <ele>250.39999389648</ele>
        <time>2020-06-08T13:58:16.000Z</time>
      </trkpt>
      <trkpt lat="43.48919" lon="1.47336">
        <ele>250</ele>
        <time>2020-06-08T13:58:17.000Z</time>
      </trkpt>
      <trkpt lat="43.48916" lon="1.47343">
        <ele>249.80000305176</ele>
        <time>2020-06-08T13:58:18.000Z</time>
      </trkpt>
      <trkpt lat="43.4891" lon="1.47355">
        <ele>249.60000610352</ele>
        <time>2020-06-08T13:58:20.000Z</time>
      </trkpt>
      <trkpt lat="43.48906" lon="1.47368">
        <ele>249.60000610352</ele>
        <time>2020-06-08T13:58:22.000Z</time>
      </trkpt>
      <trkpt lat="43.48904" lon="1.47374">
        <ele>249.60000610352</ele>
        <time>2020-06-08T13:58:23.000Z</time>
      </trkpt>
      <trkpt lat="43.48903" lon="1.47381">
        <ele>249.60000610352</ele>
        <time>2020-06-08T13:58:24.000Z</time>
      </trkpt>
      <trkpt lat="43.489" lon="1.47394">
        <ele>249.60000610352</ele>
        <time>2020-06-08T13:58:26.000Z</time>
      </trkpt>
      <trkpt lat="43.48898" lon="1.47407">
        <ele>249.80000305176</ele>
        <time>2020-06-08T13:58:28.000Z</time>
      </trkpt>
      <trkpt lat="43.48895" lon="1.4742">
        <ele>250</ele>
        <time>2020-06-08T13:58:30.000Z</time>
      </trkpt>
      <trkpt lat="43.48893" lon="1.47433">
        <ele>250</ele>
        <time>2020-06-08T13:58:32.000Z</time>
      </trkpt>
      <trkpt lat="43.48891" lon="1.47446">
        <ele>250.19999694824</ele>
        <time>2020-06-08T13:58:34.000Z</time>
      </trkpt>
      <trkpt lat="43.48888" lon="1.47458">
        <ele>250.19999694824</ele>
        <time>2020-06-08T13:58:36.000Z</time>
      </trkpt>
      <trkpt lat="43.48885" lon="1.47471">
        <ele>250.39999389648</ele>
        <time>2020-06-08T13:58:38.000Z</time>
      </trkpt>
      <trkpt lat="43.48882" lon="1.47483">
        <ele>250.60000610352</ele>
        <time>2020-06-08T13:58:40.000Z</time>
      </trkpt>
      <trkpt lat="43.48878" lon="1.47495">
        <ele>250.80000305176</ele>
        <time>2020-06-08T13:58:42.000Z</time>
      </trkpt>
      <trkpt lat="43.48875" lon="1.47507">
        <ele>251</ele>
        <time>2020-06-08T13:58:44.000Z</time>
      </trkpt>
      <trkpt lat="43.48874" lon="1.47513">
        <ele>251.19999694824</ele>
        <time>2020-06-08T13:58:45.000Z</time>
      </trkpt>
      <trkpt lat="43.48872" lon="1.47519">
        <ele>251.39999389648</ele>
        <time>2020-06-08T13:58:46.000Z</time>
      </trkpt>
      <trkpt lat="43.48868" lon="1.47531">
        <ele>251.39999389648</ele>
        <time>2020-06-08T13:58:48.000Z</time>
      </trkpt>
      <trkpt lat="43.48864" lon="1.47542">
        <ele>251.60000610352</ele>
        <time>2020-06-08T13:58:50.000Z</time>
      </trkpt>
      <trkpt lat="43.48859" lon="1.47554">
        <ele>251.60000610352</ele>
        <time>2020-06-08T13:58:52.000Z</time>
      </trkpt>
      <trkpt lat="43.48855" lon="1.47565">
        <ele>251.60000610352</ele>
        <time>2020-06-08T13:58:54.000Z</time>
      </trkpt>
      <trkpt lat="43.48849" lon="1.47576">
        <ele>251.80000305176</ele>
        <time>2020-06-08T13:58:56.000Z</time>
      </trkpt>
      <trkpt lat="43.48844" lon="1.47586">
        <ele>252</ele>
        <time>2020-06-08T13:58:58.000Z</time>
      </trkpt>
      <trkpt lat="43.48838" lon="1.47596">
        <ele>252.19999694824</ele>
        <time>2020-06-08T13:59:00.000Z</time>
      </trkpt>
      <trkpt lat="43.48833" lon="1.47604">
        <ele>252.19999694824</ele>
        <time>2020-06-08T13:59:02.000Z</time>
      </trkpt>
      <trkpt lat="43.48828" lon="1.47612">
        <ele>252.39999389648</ele>
        <time>2020-06-08T13:59:04.000Z</time>
      </trkpt>
      <trkpt lat="43.48824" lon="1.47621">
        <ele>252.39999389648</ele>
        <time>2020-06-08T13:59:06.000Z</time>
      </trkpt>
      <trkpt lat="43.4882" lon="1.47629">
        <ele>252.80000305176</ele>
        <time>2020-06-08T13:59:08.000Z</time>
      </trkpt>
      <trkpt lat="43.48816" lon="1.47637">
        <ele>253.19999694824</ele>
        <time>2020-06-08T13:59:10.000Z</time>
      </trkpt>
      <trkpt lat="43.48815" lon="1.47641">
        <ele>253.60000610352</ele>
        <time>2020-06-08T13:59:11.000Z</time>
      </trkpt>
      <trkpt lat="43.48813" lon="1.47646">
        <ele>254.19999694824</ele>
        <time>2020-06-08T13:59:12.000Z</time>
      </trkpt>
      <trkpt lat="43.48811" lon="1.47655">
        <ele>254.80000305176</ele>
        <time>2020-06-08T13:59:14.000Z</time>
      </trkpt>
      <trkpt lat="43.48808" lon="1.47665">
        <ele>255.19999694824</ele>
        <time>2020-06-08T13:59:16.000Z</time>
      </trkpt>
      <trkpt lat="43.48806" lon="1.47675">
        <ele>255.80000305176</ele>
        <time>2020-06-08T13:59:18.000Z</time>
      </trkpt>
      <trkpt lat="43.48805" lon="1.4768">
        <ele>255.80000305176</ele>
        <time>2020-06-08T13:59:19.000Z</time>
      </trkpt>
      <trkpt lat="43.48804" lon="1.47685">
        <ele>256.20001220703</ele>
        <time>2020-06-08T13:59:20.000Z</time>
      </trkpt>
      <trkpt lat="43.48803" lon="1.47696">
        <ele>256.60000610352</ele>
        <time>2020-06-08T13:59:22.000Z</time>
      </trkpt>
      <trkpt lat="43.48801" lon="1.47706">
        <ele>256.79998779297</ele>
        <time>2020-06-08T13:59:24.000Z</time>
      </trkpt>
      <trkpt lat="43.488" lon="1.47717">
        <ele>257</ele>
        <time>2020-06-08T13:59:26.000Z</time>
      </trkpt>
      <trkpt lat="43.488" lon="1.47728">
        <ele>257.20001220703</ele>
        <time>2020-06-08T13:59:28.000Z</time>
      </trkpt>
      <trkpt lat="43.48801" lon="1.47738">
        <ele>257.39999389648</ele>
        <time>2020-06-08T13:59:30.000Z</time>
      </trkpt>
      <trkpt lat="43.48802" lon="1.47748">
        <ele>257.79998779297</ele>
        <time>2020-06-08T13:59:32.000Z</time>
      </trkpt>
      <trkpt lat="43.48803" lon="1.47758">
        <ele>257.79998779297</ele>
        <time>2020-06-08T13:59:34.000Z</time>
      </trkpt>
      <trkpt lat="43.48803" lon="1.47763">
        <ele>258</ele>
        <time>2020-06-08T13:59:35.000Z</time>
      </trkpt>
      <trkpt lat="43.48804" lon="1.47768">
        <ele>258</ele>
        <time>2020-06-08T13:59:36.000Z</time>
      </trkpt>
      <trkpt lat="43.48805" lon="1.47778">
        <ele>258</ele>
        <time>2020-06-08T13:59:38.000Z</time>
      </trkpt>
      <trkpt lat="43.48807" lon="1.47789">
        <ele>258.20001220703</ele>
        <time>2020-06-08T13:59:40.000Z</time>
      </trkpt>
      <trkpt lat="43.48808" lon="1.47799">
        <ele>258.20001220703</ele>
        <time>2020-06-08T13:59:42.000Z</time>
      </trkpt>
      <trkpt lat="43.4881" lon="1.4781">
        <ele>258.60000610352</ele>
        <time>2020-06-08T13:59:44.000Z</time>
      </trkpt>
      <trkpt lat="43.48811" lon="1.47821">
        <ele>258.79998779297</ele>
        <time>2020-06-08T13:59:46.000Z</time>
      </trkpt>
      <trkpt lat="43.48812" lon="1.47826">
        <ele>259</ele>
        <time>2020-06-08T13:59:47.000Z</time>
      </trkpt>
      <trkpt lat="43.48813" lon="1.47831">
        <ele>259</ele>
        <time>2020-06-08T13:59:48.000Z</time>
      </trkpt>
      <trkpt lat="43.48814" lon="1.47842">
        <ele>259.20001220703</ele>
        <time>2020-06-08T13:59:50.000Z</time>
      </trkpt>
      <trkpt lat="43.48815" lon="1.47852">
        <ele>259.39999389648</ele>
        <time>2020-06-08T13:59:52.000Z</time>
      </trkpt>
      <trkpt lat="43.48817" lon="1.47863">
        <ele>259.60000610352</ele>
        <time>2020-06-08T13:59:54.000Z</time>
      </trkpt>
      <trkpt lat="43.48818" lon="1.47873">
        <ele>259.79998779297</ele>
        <time>2020-06-08T13:59:56.000Z</time>
      </trkpt>
      <trkpt lat="43.4882" lon="1.47883">
        <ele>260</ele>
        <time>2020-06-08T13:59:58.000Z</time>
      </trkpt>
      <trkpt lat="43.48821" lon="1.47888">
        <ele>260.20001220703</ele>
        <time>2020-06-08T13:59:59.000Z</time>
      </trkpt>
      <trkpt lat="43.48822" lon="1.47893">
        <ele>260.39999389648</ele>
        <time>2020-06-08T14:00:00.000Z</time>
      </trkpt>
      <trkpt lat="43.48823" lon="1.47903">
        <ele>260.39999389648</ele>
        <time>2020-06-08T14:00:02.000Z</time>
      </trkpt>
      <trkpt lat="43.48824" lon="1.47913">
        <ele>260.60000610352</ele>
        <time>2020-06-08T14:00:04.000Z</time>
      </trkpt>
      <trkpt lat="43.48825" lon="1.47923">
        <ele>260.79998779297</ele>
        <time>2020-06-08T14:00:06.000Z</time>
      </trkpt>
      <trkpt lat="43.48825" lon="1.47932">
        <ele>261</ele>
        <time>2020-06-08T14:00:08.000Z</time>
      </trkpt>
      <trkpt lat="43.48825" lon="1.47937">
        <ele>261.20001220703</ele>
        <time>2020-06-08T14:00:09.000Z</time>
      </trkpt>
      <trkpt lat="43.48825" lon="1.47941">
        <ele>261.39999389648</ele>
        <time>2020-06-08T14:00:10.000Z</time>
      </trkpt>
      <trkpt lat="43.48824" lon="1.47951">
        <ele>261.79998779297</ele>
        <time>2020-06-08T14:00:12.000Z</time>
      </trkpt>
      <trkpt lat="43.48822" lon="1.4796">
        <ele>262</ele>
        <time>2020-06-08T14:00:14.000Z</time>
      </trkpt>
      <trkpt lat="43.48819" lon="1.47968">
        <ele>262.39999389648</ele>
        <time>2020-06-08T14:00:16.000Z</time>
      </trkpt>
      <trkpt lat="43.48816" lon="1.47976">
        <ele>262.79998779297</ele>
        <time>2020-06-08T14:00:18.000Z</time>
      </trkpt>
      <trkpt lat="43.48812" lon="1.47984">
        <ele>263.20001220703</ele>
        <time>2020-06-08T14:00:20.000Z</time>
      </trkpt>
      <trkpt lat="43.48808" lon="1.47991">
        <ele>263.39999389648</ele>
        <time>2020-06-08T14:00:22.000Z</time>
      </trkpt>
      <trkpt lat="43.48804" lon="1.47998">
        <ele>263.60000610352</ele>
        <time>2020-06-08T14:00:24.000Z</time>
      </trkpt>
      <trkpt lat="43.488" lon="1.48005">
        <ele>264</ele>
        <time>2020-06-08T14:00:26.000Z</time>
      </trkpt>
      <trkpt lat="43.48797" lon="1.48013">
        <ele>264.60000610352</ele>
        <time>2020-06-08T14:00:28.000Z</time>
      </trkpt>
      <trkpt lat="43.48795" lon="1.48017">
        <ele>264.79998779297</ele>
        <time>2020-06-08T14:00:29.000Z</time>
      </trkpt>
      <trkpt lat="43.48793" lon="1.4802">
        <ele>265</ele>
        <time>2020-06-08T14:00:30.000Z</time>
      </trkpt>
      <trkpt lat="43.48788" lon="1.48029">
        <ele>265.39999389648</ele>
        <time>2020-06-08T14:00:32.000Z</time>
      </trkpt>
      <trkpt lat="43.48783" lon="1.48038">
        <ele>265.39999389648</ele>
        <time>2020-06-08T14:00:34.000Z</time>
      </trkpt>
      <trkpt lat="43.48778" lon="1.48048">
        <ele>265.39999389648</ele>
        <time>2020-06-08T14:00:36.000Z</time>
      </trkpt>
      <trkpt lat="43.48773" lon="1.48058">
        <ele>265.39999389648</ele>
        <time>2020-06-08T14:00:38.000Z</time>
      </trkpt>
      <trkpt lat="43.48768" lon="1.48069">
        <ele>265.39999389648</ele>
        <time>2020-06-08T14:00:40.000Z</time>
      </trkpt>
      <trkpt lat="43.48763" lon="1.48079">
        <ele>265.20001220703</ele>
        <time>2020-06-08T14:00:42.000Z</time>
      </trkpt>
      <trkpt lat="43.48758" lon="1.4809">
        <ele>265.20001220703</ele>
        <time>2020-06-08T14:00:44.000Z</time>
      </trkpt>
      <trkpt lat="43.48753" lon="1.481">
        <ele>265</ele>
        <time>2020-06-08T14:00:46.000Z</time>
      </trkpt>
      <trkpt lat="43.48747" lon="1.48112">
        <ele>265</ele>
        <time>2020-06-08T14:00:48.000Z</time>
      </trkpt>
      <trkpt lat="43.48742" lon="1.48124">
        <ele>265</ele>
        <time>2020-06-08T14:00:50.000Z</time>
      </trkpt>
      <trkpt lat="43.48737" lon="1.48136">
        <ele>264.79998779297</ele>
        <time>2020-06-08T14:00:52.000Z</time>
      </trkpt>
      <trkpt lat="43.48732" lon="1.4815">
        <ele>264.39999389648</ele>
        <time>2020-06-08T14:00:54.000Z</time>
      </trkpt>
      <trkpt lat="43.48727" lon="1.48164">
        <ele>264</ele>
        <time>2020-06-08T14:00:56.000Z</time>
      </trkpt>
      <trkpt lat="43.48722" lon="1.48179">
        <ele>263.60000610352</ele>
        <time>2020-06-08T14:00:58.000Z</time>
      </trkpt>
      <trkpt lat="43.48717" lon="1.48193">
        <ele>263.39999389648</ele>
        <time>2020-06-08T14:01:00.000Z</time>
      </trkpt>
      <trkpt lat="43.48712" lon="1.48205">
        <ele>263.39999389648</ele>
        <time>2020-06-08T14:01:02.000Z</time>
      </trkpt>
      <trkpt lat="43.48708" lon="1.48217">
        <ele>263.39999389648</ele>
        <time>2020-06-08T14:01:04.000Z</time>
      </trkpt>
      <trkpt lat="43.48704" lon="1.4823">
        <ele>263.20001220703</ele>
        <time>2020-06-08T14:01:06.000Z</time>
      </trkpt>
      <trkpt lat="43.48701" lon="1.48242">
        <ele>263.20001220703</ele>
        <time>2020-06-08T14:01:08.000Z</time>
      </trkpt>
      <trkpt lat="43.48698" lon="1.48256">
        <ele>263.20001220703</ele>
        <time>2020-06-08T14:01:10.000Z</time>
      </trkpt>
      <trkpt lat="43.48694" lon="1.48269">
        <ele>263.39999389648</ele>
        <time>2020-06-08T14:01:12.000Z</time>
      </trkpt>
      <trkpt lat="43.48692" lon="1.48283">
        <ele>263.60000610352</ele>
        <time>2020-06-08T14:01:14.000Z</time>
      </trkpt>
      <trkpt lat="43.48688" lon="1.48297">
        <ele>263.79998779297</ele>
        <time>2020-06-08T14:01:16.000Z</time>
      </trkpt>
      <trkpt lat="43.48685" lon="1.4831">
        <ele>263.79998779297</ele>
        <time>2020-06-08T14:01:18.000Z</time>
      </trkpt>
      <trkpt lat="43.48683" lon="1.48324">
        <ele>264</ele>
        <time>2020-06-08T14:01:20.000Z</time>
      </trkpt>
      <trkpt lat="43.4868" lon="1.48337">
        <ele>264.20001220703</ele>
        <time>2020-06-08T14:01:22.000Z</time>
      </trkpt>
      <trkpt lat="43.48678" lon="1.48351">
        <ele>264.20001220703</ele>
        <time>2020-06-08T14:01:24.000Z</time>
      </trkpt>
      <trkpt lat="43.48676" lon="1.48365">
        <ele>264.20001220703</ele>
        <time>2020-06-08T14:01:26.000Z</time>
      </trkpt>
      <trkpt lat="43.48675" lon="1.48378">
        <ele>264.20001220703</ele>
        <time>2020-06-08T14:01:28.000Z</time>
      </trkpt>
      <trkpt lat="43.48674" lon="1.48392">
        <ele>264.60000610352</ele>
        <time>2020-06-08T14:01:30.000Z</time>
      </trkpt>
      <trkpt lat="43.48673" lon="1.48405">
        <ele>264.79998779297</ele>
        <time>2020-06-08T14:01:32.000Z</time>
      </trkpt>
      <trkpt lat="43.48672" lon="1.48418">
        <ele>264.79998779297</ele>
        <time>2020-06-08T14:01:34.000Z</time>
      </trkpt>
      <trkpt lat="43.48672" lon="1.48429">
        <ele>265</ele>
        <time>2020-06-08T14:01:36.000Z</time>
      </trkpt>
      <trkpt lat="43.48672" lon="1.48441">
        <ele>265.39999389648</ele>
        <time>2020-06-08T14:01:38.000Z</time>
      </trkpt>
      <trkpt lat="43.48673" lon="1.48452">
        <ele>265.79998779297</ele>
        <time>2020-06-08T14:01:40.000Z</time>
      </trkpt>
      <trkpt lat="43.48673" lon="1.48458">
        <ele>266</ele>
        <time>2020-06-08T14:01:41.000Z</time>
      </trkpt>
      <trkpt lat="43.48673" lon="1.48463">
        <ele>266.20001220703</ele>
        <time>2020-06-08T14:01:42.000Z</time>
      </trkpt>
      <trkpt lat="43.48675" lon="1.48475">
        <ele>266.79998779297</ele>
        <time>2020-06-08T14:01:44.000Z</time>
      </trkpt>
      <trkpt lat="43.48676" lon="1.4848">
        <ele>267</ele>
        <time>2020-06-08T14:01:45.000Z</time>
      </trkpt>
      <trkpt lat="43.48677" lon="1.48486">
        <ele>267.20001220703</ele>
        <time>2020-06-08T14:01:46.000Z</time>
      </trkpt>
      <trkpt lat="43.48679" lon="1.48497">
        <ele>267.39999389648</ele>
        <time>2020-06-08T14:01:48.000Z</time>
      </trkpt>
      <trkpt lat="43.48681" lon="1.48508">
        <ele>267.60000610352</ele>
        <time>2020-06-08T14:01:50.000Z</time>
      </trkpt>
      <trkpt lat="43.48684" lon="1.48519">
        <ele>267.79998779297</ele>
        <time>2020-06-08T14:01:52.000Z</time>
      </trkpt>
      <trkpt lat="43.48687" lon="1.48529">
        <ele>268.20001220703</ele>
        <time>2020-06-08T14:01:54.000Z</time>
      </trkpt>
      <trkpt lat="43.48692" lon="1.4854">
        <ele>268.39999389648</ele>
        <time>2020-06-08T14:01:56.000Z</time>
      </trkpt>
      <trkpt lat="43.48696" lon="1.48552">
        <ele>268.60000610352</ele>
        <time>2020-06-08T14:01:58.000Z</time>
      </trkpt>
      <trkpt lat="43.48702" lon="1.48564">
        <ele>268.60000610352</ele>
        <time>2020-06-08T14:02:00.000Z</time>
      </trkpt>
      <trkpt lat="43.48709" lon="1.48577">
        <ele>268.60000610352</ele>
        <time>2020-06-08T14:02:02.000Z</time>
      </trkpt>
      <trkpt lat="43.48716" lon="1.48592">
        <ele>268.60000610352</ele>
        <time>2020-06-08T14:02:04.000Z</time>
      </trkpt>
      <trkpt lat="43.48723" lon="1.48607">
        <ele>268.39999389648</ele>
        <time>2020-06-08T14:02:06.000Z</time>
      </trkpt>
      <trkpt lat="43.48727" lon="1.48615">
        <ele>268</ele>
        <time>2020-06-08T14:02:07.000Z</time>
      </trkpt>
      <trkpt lat="43.48729" lon="1.48624">
        <ele>267.60000610352</ele>
        <time>2020-06-08T14:02:08.000Z</time>
      </trkpt>
      <trkpt lat="43.48733" lon="1.48642">
        <ele>267.20001220703</ele>
        <time>2020-06-08T14:02:10.000Z</time>
      </trkpt>
      <trkpt lat="43.48735" lon="1.48651">
        <ele>266.79998779297</ele>
        <time>2020-06-08T14:02:11.000Z</time>
      </trkpt>
      <trkpt lat="43.48736" lon="1.48661">
        <ele>266.39999389648</ele>
        <time>2020-06-08T14:02:12.000Z</time>
      </trkpt>
      <trkpt lat="43.48736" lon="1.4867">
        <ele>265.79998779297</ele>
        <time>2020-06-08T14:02:13.000Z</time>
      </trkpt>
      <trkpt lat="43.48736" lon="1.4868">
        <ele>265.39999389648</ele>
        <time>2020-06-08T14:02:14.000Z</time>
      </trkpt>
      <trkpt lat="43.48736" lon="1.48699">
        <ele>264.79998779297</ele>
        <time>2020-06-08T14:02:16.000Z</time>
      </trkpt>
      <trkpt lat="43.48735" lon="1.48719">
        <ele>264</ele>
        <time>2020-06-08T14:02:18.000Z</time>
      </trkpt>
      <trkpt lat="43.48735" lon="1.4874">
        <ele>263.79998779297</ele>
        <time>2020-06-08T14:02:20.000Z</time>
      </trkpt>
      <trkpt lat="43.48734" lon="1.48751">
        <ele>263.60000610352</ele>
        <time>2020-06-08T14:02:21.000Z</time>
      </trkpt>
      <trkpt lat="43.48734" lon="1.48763">
        <ele>263.60000610352</ele>
        <time>2020-06-08T14:02:22.000Z</time>
      </trkpt>
      <trkpt lat="43.48733" lon="1.48786">
        <ele>263.20001220703</ele>
        <time>2020-06-08T14:02:24.000Z</time>
      </trkpt>
      <trkpt lat="43.48733" lon="1.4881">
        <ele>263</ele>
        <time>2020-06-08T14:02:26.000Z</time>
      </trkpt>
      <trkpt lat="43.48734" lon="1.48822">
        <ele>262.79998779297</ele>
        <time>2020-06-08T14:02:27.000Z</time>
      </trkpt>
      <trkpt lat="43.48736" lon="1.48835">
        <ele>262.20001220703</ele>
        <time>2020-06-08T14:02:28.000Z</time>
      </trkpt>
      <trkpt lat="43.48741" lon="1.48859">
        <ele>260.79998779297</ele>
        <time>2020-06-08T14:02:30.000Z</time>
      </trkpt>
      <trkpt lat="43.48748" lon="1.48882">
        <ele>259.79998779297</ele>
        <time>2020-06-08T14:02:32.000Z</time>
      </trkpt>
      <trkpt lat="43.48752" lon="1.48893">
        <ele>259.60000610352</ele>
        <time>2020-06-08T14:02:33.000Z</time>
      </trkpt>
      <trkpt lat="43.48755" lon="1.48904">
        <ele>259.39999389648</ele>
        <time>2020-06-08T14:02:34.000Z</time>
      </trkpt>
      <trkpt lat="43.48761" lon="1.48926">
        <ele>258.79998779297</ele>
        <time>2020-06-08T14:02:36.000Z</time>
      </trkpt>
      <trkpt lat="43.48764" lon="1.48946">
        <ele>257.79998779297</ele>
        <time>2020-06-08T14:02:38.000Z</time>
      </trkpt>
      <trkpt lat="43.48765" lon="1.48956">
        <ele>256.60000610352</ele>
        <time>2020-06-08T14:02:39.000Z</time>
      </trkpt>
      <trkpt lat="43.48765" lon="1.48965">
        <ele>256.39999389648</ele>
        <time>2020-06-08T14:02:40.000Z</time>
      </trkpt>
      <trkpt lat="43.48766" lon="1.48981">
        <ele>256.20001220703</ele>
        <time>2020-06-08T14:02:42.000Z</time>
      </trkpt>
      <trkpt lat="43.48766" lon="1.48996">
        <ele>256.20001220703</ele>
        <time>2020-06-08T14:02:44.000Z</time>
      </trkpt>
      <trkpt lat="43.48765" lon="1.49008">
        <ele>256.20001220703</ele>
        <time>2020-06-08T14:02:46.000Z</time>
      </trkpt>
      <trkpt lat="43.48765" lon="1.49019">
        <ele>256.39999389648</ele>
        <time>2020-06-08T14:02:48.000Z</time>
      </trkpt>
      <trkpt lat="43.48764" lon="1.49029">
        <ele>256.79998779297</ele>
        <time>2020-06-08T14:02:50.000Z</time>
      </trkpt>
      <trkpt lat="43.48763" lon="1.4904">
        <ele>257.79998779297</ele>
        <time>2020-06-08T14:02:52.000Z</time>
      </trkpt>
      <trkpt lat="43.48764" lon="1.4905">
        <ele>258.79998779297</ele>
        <time>2020-06-08T14:02:54.000Z</time>
      </trkpt>
      <trkpt lat="43.48763" lon="1.49055">
        <ele>259.39999389648</ele>
        <time>2020-06-08T14:02:55.000Z</time>
      </trkpt>
      <trkpt lat="43.48763" lon="1.49059">
        <ele>259.60000610352</ele>
        <time>2020-06-08T14:02:56.000Z</time>
      </trkpt>
      <trkpt lat="43.48763" lon="1.49067">
        <ele>260</ele>
        <time>2020-06-08T14:02:58.000Z</time>
      </trkpt>
      <trkpt lat="43.48762" lon="1.49074">
        <ele>260.20001220703</ele>
        <time>2020-06-08T14:03:00.000Z</time>
      </trkpt>
      <trkpt lat="43.48762" lon="1.49081">
        <ele>260.39999389648</ele>
        <time>2020-06-08T14:03:02.000Z</time>
      </trkpt>
      <trkpt lat="43.48761" lon="1.49085">
        <ele>260.39999389648</ele>
        <time>2020-06-08T14:03:03.000Z</time>
      </trkpt>
      <trkpt lat="43.48761" lon="1.49088">
        <ele>260.39999389648</ele>
        <time>2020-06-08T14:03:04.000Z</time>
      </trkpt>
      <trkpt lat="43.48761" lon="1.49094">
        <ele>261</ele>
        <time>2020-06-08T14:03:06.000Z</time>
      </trkpt>
      <trkpt lat="43.4876" lon="1.49099">
        <ele>261.39999389648</ele>
        <time>2020-06-08T14:03:08.000Z</time>
      </trkpt>
      <trkpt lat="43.4876" lon="1.49102">
        <ele>261.60000610352</ele>
        <time>2020-06-08T14:03:09.000Z</time>
      </trkpt>
      <trkpt lat="43.48759" lon="1.49105">
        <ele>261.60000610352</ele>
        <time>2020-06-08T14:03:10.000Z</time>
      </trkpt>
      <trkpt lat="43.48759" lon="1.49111">
        <ele>262</ele>
        <time>2020-06-08T14:03:12.000Z</time>
      </trkpt>
      <trkpt lat="43.48758" lon="1.49118">
        <ele>262.20001220703</ele>
        <time>2020-06-08T14:03:14.000Z</time>
      </trkpt>
      <trkpt lat="43.48757" lon="1.49124">
        <ele>262.60000610352</ele>
        <time>2020-06-08T14:03:16.000Z</time>
      </trkpt>
      <trkpt lat="43.48756" lon="1.49131">
        <ele>262.79998779297</ele>
        <time>2020-06-08T14:03:18.000Z</time>
      </trkpt>
      <trkpt lat="43.48755" lon="1.49139">
        <ele>263</ele>
        <time>2020-06-08T14:03:20.000Z</time>
      </trkpt>
      <trkpt lat="43.48754" lon="1.49147">
        <ele>263.20001220703</ele>
        <time>2020-06-08T14:03:22.000Z</time>
      </trkpt>
      <trkpt lat="43.48753" lon="1.49154">
        <ele>263.39999389648</ele>
        <time>2020-06-08T14:03:24.000Z</time>
      </trkpt>
      <trkpt lat="43.48752" lon="1.49162">
        <ele>263.79998779297</ele>
        <time>2020-06-08T14:03:26.000Z</time>
      </trkpt>
      <trkpt lat="43.48751" lon="1.49166">
        <ele>263.79998779297</ele>
        <time>2020-06-08T14:03:27.000Z</time>
      </trkpt>
      <trkpt lat="43.48751" lon="1.4917">
        <ele>264</ele>
        <time>2020-06-08T14:03:28.000Z</time>
      </trkpt>
      <trkpt lat="43.48749" lon="1.49178">
        <ele>264</ele>
        <time>2020-06-08T14:03:30.000Z</time>
      </trkpt>
      <trkpt lat="43.48748" lon="1.49186">
        <ele>264.60000610352</ele>
        <time>2020-06-08T14:03:32.000Z</time>
      </trkpt>
      <trkpt lat="43.48747" lon="1.49194">
        <ele>264.60000610352</ele>
        <time>2020-06-08T14:03:34.000Z</time>
      </trkpt>
      <trkpt lat="43.48746" lon="1.49203">
        <ele>264.79998779297</ele>
        <time>2020-06-08T14:03:36.000Z</time>
      </trkpt>
      <trkpt lat="43.48746" lon="1.49207">
        <ele>264.79998779297</ele>
        <time>2020-06-08T14:03:37.000Z</time>
      </trkpt>
      <trkpt lat="43.48745" lon="1.49211">
        <ele>265</ele>
        <time>2020-06-08T14:03:38.000Z</time>
      </trkpt>
      <trkpt lat="43.48744" lon="1.4922">
        <ele>265</ele>
        <time>2020-06-08T14:03:40.000Z</time>
      </trkpt>
      <trkpt lat="43.48744" lon="1.49229">
        <ele>265.20001220703</ele>
        <time>2020-06-08T14:03:42.000Z</time>
      </trkpt>
      <trkpt lat="43.48744" lon="1.49238">
        <ele>265.60000610352</ele>
        <time>2020-06-08T14:03:44.000Z</time>
      </trkpt>
      <trkpt lat="43.48743" lon="1.49246">
        <ele>265.79998779297</ele>
        <time>2020-06-08T14:03:46.000Z</time>
      </trkpt>
      <trkpt lat="43.48743" lon="1.4925">
        <ele>266</ele>
        <time>2020-06-08T14:03:47.000Z</time>
      </trkpt>
      <trkpt lat="43.48743" lon="1.49254">
        <ele>266.20001220703</ele>
        <time>2020-06-08T14:03:48.000Z</time>
      </trkpt>
      <trkpt lat="43.48743" lon="1.49263">
        <ele>266.39999389648</ele>
        <time>2020-06-08T14:03:50.000Z</time>
      </trkpt>
      <trkpt lat="43.48744" lon="1.4927">
        <ele>266.79998779297</ele>
        <time>2020-06-08T14:03:52.000Z</time>
      </trkpt>
      <trkpt lat="43.48744" lon="1.49274">
        <ele>267</ele>
        <time>2020-06-08T14:03:53.000Z</time>
      </trkpt>
      <trkpt lat="43.48744" lon="1.49279">
        <ele>267.20001220703</ele>
        <time>2020-06-08T14:03:54.000Z</time>
      </trkpt>
      <trkpt lat="43.48745" lon="1.49288">
        <ele>267.39999389648</ele>
        <time>2020-06-08T14:03:56.000Z</time>
      </trkpt>
      <trkpt lat="43.48745" lon="1.49298">
        <ele>267.60000610352</ele>
        <time>2020-06-08T14:03:58.000Z</time>
      </trkpt>
      <trkpt lat="43.48745" lon="1.49304">
        <ele>267.60000610352</ele>
        <time>2020-06-08T14:03:59.000Z</time>
      </trkpt>
      <trkpt lat="43.48746" lon="1.4931">
        <ele>267.79998779297</ele>
        <time>2020-06-08T14:04:00.000Z</time>
      </trkpt>
      <trkpt lat="43.48747" lon="1.49322">
        <ele>268.20001220703</ele>
        <time>2020-06-08T14:04:02.000Z</time>
      </trkpt>
      <trkpt lat="43.48748" lon="1.49334">
        <ele>268.79998779297</ele>
        <time>2020-06-08T14:04:04.000Z</time>
      </trkpt>
      <trkpt lat="43.48749" lon="1.49346">
        <ele>269.20001220703</ele>
        <time>2020-06-08T14:04:06.000Z</time>
      </trkpt>
      <trkpt lat="43.4875" lon="1.49357">
        <ele>269.79998779297</ele>
        <time>2020-06-08T14:04:08.000Z</time>
      </trkpt>
      <trkpt lat="43.4875" lon="1.49367">
        <ele>270.20001220703</ele>
        <time>2020-06-08T14:04:10.000Z</time>
      </trkpt>
      <trkpt lat="43.48751" lon="1.49372">
        <ele>270.39999389648</ele>
        <time>2020-06-08T14:04:11.000Z</time>
      </trkpt>
      <trkpt lat="43.48752" lon="1.49377">
        <ele>270.79998779297</ele>
        <time>2020-06-08T14:04:12.000Z</time>
      </trkpt>
      <trkpt lat="43.48752" lon="1.49387">
        <ele>271.39999389648</ele>
        <time>2020-06-08T14:04:14.000Z</time>
      </trkpt>
      <trkpt lat="43.48753" lon="1.49393">
        <ele>271.79998779297</ele>
        <time>2020-06-08T14:04:15.000Z</time>
      </trkpt>
      <trkpt lat="43.48754" lon="1.49398">
        <ele>271.79998779297</ele>
        <time>2020-06-08T14:04:16.000Z</time>
      </trkpt>
      <trkpt lat="43.48756" lon="1.49408">
        <ele>272.20001220703</ele>
        <time>2020-06-08T14:04:18.000Z</time>
      </trkpt>
      <trkpt lat="43.48758" lon="1.49418">
        <ele>273.20001220703</ele>
        <time>2020-06-08T14:04:20.000Z</time>
      </trkpt>
      <trkpt lat="43.4876" lon="1.49428">
        <ele>273.60000610352</ele>
        <time>2020-06-08T14:04:22.000Z</time>
      </trkpt>
      <trkpt lat="43.48763" lon="1.49436">
        <ele>274</ele>
        <time>2020-06-08T14:04:24.000Z</time>
      </trkpt>
      <trkpt lat="43.48765" lon="1.49445">
        <ele>274</ele>
        <time>2020-06-08T14:04:26.000Z</time>
      </trkpt>
      <trkpt lat="43.48767" lon="1.4945">
        <ele>274.20001220703</ele>
        <time>2020-06-08T14:04:27.000Z</time>
      </trkpt>
      <trkpt lat="43.48768" lon="1.49453">
        <ele>274.39999389648</ele>
        <time>2020-06-08T14:04:28.000Z</time>
      </trkpt>
      <trkpt lat="43.4877" lon="1.49461">
        <ele>274.60000610352</ele>
        <time>2020-06-08T14:04:30.000Z</time>
      </trkpt>
      <trkpt lat="43.48772" lon="1.49468">
        <ele>274.79998779297</ele>
        <time>2020-06-08T14:04:32.000Z</time>
      </trkpt>
      <trkpt lat="43.48774" lon="1.49476">
        <ele>274.79998779297</ele>
        <time>2020-06-08T14:04:34.000Z</time>
      </trkpt>
      <trkpt lat="43.48776" lon="1.49484">
        <ele>274.79998779297</ele>
        <time>2020-06-08T14:04:36.000Z</time>
      </trkpt>
      <trkpt lat="43.48779" lon="1.49493">
        <ele>275</ele>
        <time>2020-06-08T14:04:38.000Z</time>
      </trkpt>
      <trkpt lat="43.48782" lon="1.49503">
        <ele>275</ele>
        <time>2020-06-08T14:04:40.000Z</time>
      </trkpt>
      <trkpt lat="43.48786" lon="1.49515">
        <ele>274.79998779297</ele>
        <time>2020-06-08T14:04:42.000Z</time>
      </trkpt>
      <trkpt lat="43.48789" lon="1.49521">
        <ele>274.79998779297</ele>
        <time>2020-06-08T14:04:43.000Z</time>
      </trkpt>
      <trkpt lat="43.48791" lon="1.49528">
        <ele>274.79998779297</ele>
        <time>2020-06-08T14:04:44.000Z</time>
      </trkpt>
      <trkpt lat="43.48796" lon="1.49542">
        <ele>274.60000610352</ele>
        <time>2020-06-08T14:04:46.000Z</time>
      </trkpt>
      <trkpt lat="43.48801" lon="1.49557">
        <ele>274.39999389648</ele>
        <time>2020-06-08T14:04:48.000Z</time>
      </trkpt>
      <trkpt lat="43.48806" lon="1.49572">
        <ele>274</ele>
        <time>2020-06-08T14:04:50.000Z</time>
      </trkpt>
      <trkpt lat="43.48812" lon="1.49589">
        <ele>273.60000610352</ele>
        <time>2020-06-08T14:04:52.000Z</time>
      </trkpt>
      <trkpt lat="43.48815" lon="1.49597">
        <ele>273.20001220703</ele>
        <time>2020-06-08T14:04:53.000Z</time>
      </trkpt>
      <trkpt lat="43.48818" lon="1.49606">
        <ele>272.79998779297</ele>
        <time>2020-06-08T14:04:54.000Z</time>
      </trkpt>
      <trkpt lat="43.48821" lon="1.49614">
        <ele>272.20001220703</ele>
        <time>2020-06-08T14:04:55.000Z</time>
      </trkpt>
      <trkpt lat="43.48824" lon="1.49623">
        <ele>271.79998779297</ele>
        <time>2020-06-08T14:04:56.000Z</time>
      </trkpt>
      <trkpt lat="43.4883" lon="1.49641">
        <ele>271.20001220703</ele>
        <time>2020-06-08T14:04:58.000Z</time>
      </trkpt>
      <trkpt lat="43.48834" lon="1.4965">
        <ele>271</ele>
        <time>2020-06-08T14:04:59.000Z</time>
      </trkpt>
      <trkpt lat="43.48837" lon="1.49659">
        <ele>270.79998779297</ele>
        <time>2020-06-08T14:05:00.000Z</time>
      </trkpt>
      <trkpt lat="43.48844" lon="1.49676">
        <ele>270.60000610352</ele>
        <time>2020-06-08T14:05:02.000Z</time>
      </trkpt>
      <trkpt lat="43.4885" lon="1.49694">
        <ele>270.60000610352</ele>
        <time>2020-06-08T14:05:04.000Z</time>
      </trkpt>
      <trkpt lat="43.48856" lon="1.49711">
        <ele>270</ele>
        <time>2020-06-08T14:05:06.000Z</time>
      </trkpt>
      <trkpt lat="43.48859" lon="1.4972">
        <ele>270</ele>
        <time>2020-06-08T14:05:07.000Z</time>
      </trkpt>
      <trkpt lat="43.48863" lon="1.49728">
        <ele>269.79998779297</ele>
        <time>2020-06-08T14:05:08.000Z</time>
      </trkpt>
      <trkpt lat="43.48868" lon="1.49744">
        <ele>269.60000610352</ele>
        <time>2020-06-08T14:05:10.000Z</time>
      </trkpt>
      <trkpt lat="43.48874" lon="1.4976">
        <ele>269.60000610352</ele>
        <time>2020-06-08T14:05:12.000Z</time>
      </trkpt>
      <trkpt lat="43.4888" lon="1.49775">
        <ele>269.60000610352</ele>
        <time>2020-06-08T14:05:14.000Z</time>
      </trkpt>
      <trkpt lat="43.48885" lon="1.4979">
        <ele>269.60000610352</ele>
        <time>2020-06-08T14:05:16.000Z</time>
      </trkpt>
      <trkpt lat="43.48891" lon="1.49805">
        <ele>269.60000610352</ele>
        <time>2020-06-08T14:05:18.000Z</time>
      </trkpt>
      <trkpt lat="43.48896" lon="1.49818">
        <ele>269.60000610352</ele>
        <time>2020-06-08T14:05:20.000Z</time>
      </trkpt>
      <trkpt lat="43.48901" lon="1.49832">
        <ele>269.60000610352</ele>
        <time>2020-06-08T14:05:22.000Z</time>
      </trkpt>
      <trkpt lat="43.48905" lon="1.49844">
        <ele>269.79998779297</ele>
        <time>2020-06-08T14:05:24.000Z</time>
      </trkpt>
      <trkpt lat="43.4891" lon="1.49855">
        <ele>270.20001220703</ele>
        <time>2020-06-08T14:05:26.000Z</time>
      </trkpt>
      <trkpt lat="43.48913" lon="1.49865">
        <ele>270.60000610352</ele>
        <time>2020-06-08T14:05:28.000Z</time>
      </trkpt>
      <trkpt lat="43.48916" lon="1.49876">
        <ele>271</ele>
        <time>2020-06-08T14:05:30.000Z</time>
      </trkpt>
      <trkpt lat="43.4892" lon="1.49885">
        <ele>271.20001220703</ele>
        <time>2020-06-08T14:05:32.000Z</time>
      </trkpt>
      <trkpt lat="43.48922" lon="1.49894">
        <ele>271.79998779297</ele>
        <time>2020-06-08T14:05:34.000Z</time>
      </trkpt>
      <trkpt lat="43.48923" lon="1.49898">
        <ele>272</ele>
        <time>2020-06-08T14:05:35.000Z</time>
      </trkpt>
      <trkpt lat="43.48925" lon="1.49902">
        <ele>272.39999389648</ele>
        <time>2020-06-08T14:05:36.000Z</time>
      </trkpt>
      <trkpt lat="43.48926" lon="1.49909">
        <ele>272.60000610352</ele>
        <time>2020-06-08T14:05:38.000Z</time>
      </trkpt>
      <trkpt lat="43.48927" lon="1.49915">
        <ele>273</ele>
        <time>2020-06-08T14:05:40.000Z</time>
      </trkpt>
      <trkpt lat="43.48928" lon="1.49918">
        <ele>273.20001220703</ele>
        <time>2020-06-08T14:05:41.000Z</time>
      </trkpt>
      <trkpt lat="43.48928" lon="1.4992">
        <ele>273.60000610352</ele>
        <time>2020-06-08T14:05:42.000Z</time>
      </trkpt>
      <trkpt lat="43.48928" lon="1.49924">
        <ele>274</ele>
        <time>2020-06-08T14:05:44.000Z</time>
      </trkpt>
      <trkpt lat="43.48929" lon="1.49926">
        <ele>274.20001220703</ele>
        <time>2020-06-08T14:05:45.000Z</time>
      </trkpt>
      <trkpt lat="43.48929" lon="1.49928">
        <ele>275.20001220703</ele>
        <time>2020-06-08T14:07:35.000Z</time>
      </trkpt>
      <trkpt lat="43.4893" lon="1.49929">
        <ele>275.20001220703</ele>
        <time>2020-06-08T14:07:36.000Z</time>
      </trkpt>
      <trkpt lat="43.48931" lon="1.49931">
        <ele>275.20001220703</ele>
        <time>2020-06-08T14:07:38.000Z</time>
      </trkpt>
      <trkpt lat="43.48931" lon="1.49935">
        <ele>275.20001220703</ele>
        <time>2020-06-08T14:07:40.000Z</time>
      </trkpt>
      <trkpt lat="43.48931" lon="1.4994">
        <ele>275.20001220703</ele>
        <time>2020-06-08T14:07:42.000Z</time>
      </trkpt>
      <trkpt lat="43.48928" lon="1.49946">
        <ele>275.20001220703</ele>
        <time>2020-06-08T14:07:44.000Z</time>
      </trkpt>
      <trkpt lat="43.48923" lon="1.49951">
        <ele>275.20001220703</ele>
        <time>2020-06-08T14:07:46.000Z</time>
      </trkpt>
      <trkpt lat="43.48921" lon="1.49954">
        <ele>275.20001220703</ele>
        <time>2020-06-08T14:07:47.000Z</time>
      </trkpt>
      <trkpt lat="43.48918" lon="1.49956">
        <ele>275.20001220703</ele>
        <time>2020-06-08T14:07:48.000Z</time>
      </trkpt>
      <trkpt lat="43.48911" lon="1.49962">
        <ele>275</ele>
        <time>2020-06-08T14:07:50.000Z</time>
      </trkpt>
      <trkpt lat="43.48903" lon="1.49967">
        <ele>274.79998779297</ele>
        <time>2020-06-08T14:07:52.000Z</time>
      </trkpt>
      <trkpt lat="43.48895" lon="1.49972">
        <ele>274.60000610352</ele>
        <time>2020-06-08T14:07:54.000Z</time>
      </trkpt>
      <trkpt lat="43.48885" lon="1.49976">
        <ele>274.20001220703</ele>
        <time>2020-06-08T14:07:56.000Z</time>
      </trkpt>
      <trkpt lat="43.48875" lon="1.4998">
        <ele>273.60000610352</ele>
        <time>2020-06-08T14:07:58.000Z</time>
      </trkpt>
      <trkpt lat="43.48865" lon="1.49985">
        <ele>273</ele>
        <time>2020-06-08T14:08:00.000Z</time>
      </trkpt>
      <trkpt lat="43.48854" lon="1.49989">
        <ele>272.79998779297</ele>
        <time>2020-06-08T14:08:02.000Z</time>
      </trkpt>
      <trkpt lat="43.48843" lon="1.49994">
        <ele>272.39999389648</ele>
        <time>2020-06-08T14:08:04.000Z</time>
      </trkpt>
      <trkpt lat="43.48832" lon="1.49998">
        <ele>271.39999389648</ele>
        <time>2020-06-08T14:08:06.000Z</time>
      </trkpt>
      <trkpt lat="43.48821" lon="1.50004">
        <ele>270.79998779297</ele>
        <time>2020-06-08T14:08:08.000Z</time>
      </trkpt>
      <trkpt lat="43.4881" lon="1.5001">
        <ele>270.39999389648</ele>
        <time>2020-06-08T14:08:10.000Z</time>
      </trkpt>
      <trkpt lat="43.488" lon="1.50016">
        <ele>270</ele>
        <time>2020-06-08T14:08:12.000Z</time>
      </trkpt>
      <trkpt lat="43.48789" lon="1.50023">
        <ele>269.60000610352</ele>
        <time>2020-06-08T14:08:14.000Z</time>
      </trkpt>
      <trkpt lat="43.48779" lon="1.5003">
        <ele>269.39999389648</ele>
        <time>2020-06-08T14:08:16.000Z</time>
      </trkpt>
      <trkpt lat="43.48769" lon="1.50038">
        <ele>269</ele>
        <time>2020-06-08T14:08:18.000Z</time>
      </trkpt>
      <trkpt lat="43.48758" lon="1.50046">
        <ele>268.79998779297</ele>
        <time>2020-06-08T14:08:20.000Z</time>
      </trkpt>
      <trkpt lat="43.48747" lon="1.50054">
        <ele>268.79998779297</ele>
        <time>2020-06-08T14:08:22.000Z</time>
      </trkpt>
      <trkpt lat="43.48736" lon="1.50062">
        <ele>268.60000610352</ele>
        <time>2020-06-08T14:08:24.000Z</time>
      </trkpt>
      <trkpt lat="43.48726" lon="1.5007">
        <ele>268.20001220703</ele>
        <time>2020-06-08T14:08:26.000Z</time>
      </trkpt>
      <trkpt lat="43.48715" lon="1.50078">
        <ele>268.20001220703</ele>
        <time>2020-06-08T14:08:28.000Z</time>
      </trkpt>
      <trkpt lat="43.4871" lon="1.50082">
        <ele>268.20001220703</ele>
        <time>2020-06-08T14:08:29.000Z</time>
      </trkpt>
      <trkpt lat="43.48705" lon="1.50086">
        <ele>268</ele>
        <time>2020-06-08T14:08:30.000Z</time>
      </trkpt>
      <trkpt lat="43.48695" lon="1.50093">
        <ele>267.79998779297</ele>
        <time>2020-06-08T14:08:32.000Z</time>
      </trkpt>
      <trkpt lat="43.48685" lon="1.501">
        <ele>268</ele>
        <time>2020-06-08T14:08:34.000Z</time>
      </trkpt>
      <trkpt lat="43.48675" lon="1.50107">
        <ele>267.79998779297</ele>
        <time>2020-06-08T14:08:36.000Z</time>
      </trkpt>
      <trkpt lat="43.48666" lon="1.50114">
        <ele>267.79998779297</ele>
        <time>2020-06-08T14:08:38.000Z</time>
      </trkpt>
      <trkpt lat="43.48656" lon="1.50121">
        <ele>267.79998779297</ele>
        <time>2020-06-08T14:08:40.000Z</time>
      </trkpt>
      <trkpt lat="43.48647" lon="1.50127">
        <ele>267.60000610352</ele>
        <time>2020-06-08T14:08:42.000Z</time>
      </trkpt>
      <trkpt lat="43.48638" lon="1.50133">
        <ele>267.60000610352</ele>
        <time>2020-06-08T14:08:44.000Z</time>
      </trkpt>
      <trkpt lat="43.4863" lon="1.50139">
        <ele>267.39999389648</ele>
        <time>2020-06-08T14:08:46.000Z</time>
      </trkpt>
      <trkpt lat="43.48622" lon="1.50145">
        <ele>267.39999389648</ele>
        <time>2020-06-08T14:08:48.000Z</time>
      </trkpt>
      <trkpt lat="43.48614" lon="1.5015">
        <ele>267.20001220703</ele>
        <time>2020-06-08T14:08:50.000Z</time>
      </trkpt>
      <trkpt lat="43.48606" lon="1.50155">
        <ele>267.20001220703</ele>
        <time>2020-06-08T14:08:52.000Z</time>
      </trkpt>
      <trkpt lat="43.48598" lon="1.50161">
        <ele>267.20001220703</ele>
        <time>2020-06-08T14:08:54.000Z</time>
      </trkpt>
      <trkpt lat="43.48591" lon="1.50167">
        <ele>267.20001220703</ele>
        <time>2020-06-08T14:08:56.000Z</time>
      </trkpt>
      <trkpt lat="43.48584" lon="1.50171">
        <ele>267.20001220703</ele>
        <time>2020-06-08T14:08:58.000Z</time>
      </trkpt>
      <trkpt lat="43.48578" lon="1.50176">
        <ele>267.20001220703</ele>
        <time>2020-06-08T14:09:00.000Z</time>
      </trkpt>
      <trkpt lat="43.48571" lon="1.5018">
        <ele>267.39999389648</ele>
        <time>2020-06-08T14:09:02.000Z</time>
      </trkpt>
      <trkpt lat="43.48564" lon="1.50185">
        <ele>267.60000610352</ele>
        <time>2020-06-08T14:09:04.000Z</time>
      </trkpt>
      <trkpt lat="43.48557" lon="1.50189">
        <ele>267.60000610352</ele>
        <time>2020-06-08T14:09:06.000Z</time>
      </trkpt>
      <trkpt lat="43.4855" lon="1.50194">
        <ele>268</ele>
        <time>2020-06-08T14:09:08.000Z</time>
      </trkpt>
      <trkpt lat="43.48541" lon="1.50199">
        <ele>268</ele>
        <time>2020-06-08T14:09:10.000Z</time>
      </trkpt>
      <trkpt lat="43.48531" lon="1.50205">
        <ele>268</ele>
        <time>2020-06-08T14:09:12.000Z</time>
      </trkpt>
      <trkpt lat="43.4852" lon="1.5021">
        <ele>268</ele>
        <time>2020-06-08T14:09:14.000Z</time>
      </trkpt>
      <trkpt lat="43.48507" lon="1.50216">
        <ele>268</ele>
        <time>2020-06-08T14:09:16.000Z</time>
      </trkpt>
      <trkpt lat="43.48492" lon="1.50224">
        <ele>267.60000610352</ele>
        <time>2020-06-08T14:09:18.000Z</time>
      </trkpt>
      <trkpt lat="43.48476" lon="1.50232">
        <ele>267.20001220703</ele>
        <time>2020-06-08T14:09:20.000Z</time>
      </trkpt>
      <trkpt lat="43.48459" lon="1.50241">
        <ele>266.39999389648</ele>
        <time>2020-06-08T14:09:22.000Z</time>
      </trkpt>
      <trkpt lat="43.48451" lon="1.50245">
        <ele>266</ele>
        <time>2020-06-08T14:09:23.000Z</time>
      </trkpt>
      <trkpt lat="43.48442" lon="1.5025">
        <ele>265.20001220703</ele>
        <time>2020-06-08T14:09:24.000Z</time>
      </trkpt>
      <trkpt lat="43.48433" lon="1.50255">
        <ele>264.60000610352</ele>
        <time>2020-06-08T14:09:25.000Z</time>
      </trkpt>
      <trkpt lat="43.48425" lon="1.50261">
        <ele>263.79998779297</ele>
        <time>2020-06-08T14:09:26.000Z</time>
      </trkpt>
      <trkpt lat="43.48416" lon="1.50267">
        <ele>263</ele>
        <time>2020-06-08T14:09:27.000Z</time>
      </trkpt>
      <trkpt lat="43.48408" lon="1.50272">
        <ele>262.60000610352</ele>
        <time>2020-06-08T14:09:28.000Z</time>
      </trkpt>
      <trkpt lat="43.48393" lon="1.50283">
        <ele>261.20001220703</ele>
        <time>2020-06-08T14:09:30.000Z</time>
      </trkpt>
      <trkpt lat="43.48378" lon="1.50294">
        <ele>260.39999389648</ele>
        <time>2020-06-08T14:09:32.000Z</time>
      </trkpt>
      <trkpt lat="43.48371" lon="1.50299">
        <ele>260</ele>
        <time>2020-06-08T14:09:33.000Z</time>
      </trkpt>
      <trkpt lat="43.48363" lon="1.50305">
        <ele>260</ele>
        <time>2020-06-08T14:09:34.000Z</time>
      </trkpt>
      <trkpt lat="43.48349" lon="1.50316">
        <ele>259.79998779297</ele>
        <time>2020-06-08T14:09:36.000Z</time>
      </trkpt>
      <trkpt lat="43.48335" lon="1.50329">
        <ele>259.60000610352</ele>
        <time>2020-06-08T14:09:38.000Z</time>
      </trkpt>
      <trkpt lat="43.48328" lon="1.50335">
        <ele>259.60000610352</ele>
        <time>2020-06-08T14:09:39.000Z</time>
      </trkpt>
      <trkpt lat="43.48321" lon="1.50341">
        <ele>259.60000610352</ele>
        <time>2020-06-08T14:09:40.000Z</time>
      </trkpt>
      <trkpt lat="43.48307" lon="1.50351">
        <ele>259.39999389648</ele>
        <time>2020-06-08T14:09:42.000Z</time>
      </trkpt>
      <trkpt lat="43.48293" lon="1.50361">
        <ele>259.39999389648</ele>
        <time>2020-06-08T14:09:44.000Z</time>
      </trkpt>
      <trkpt lat="43.48282" lon="1.50369">
        <ele>259.39999389648</ele>
        <time>2020-06-08T14:09:46.000Z</time>
      </trkpt>
      <trkpt lat="43.48273" lon="1.50377">
        <ele>259.20001220703</ele>
        <time>2020-06-08T14:09:48.000Z</time>
      </trkpt>
      <trkpt lat="43.48267" lon="1.50383">
        <ele>259.20001220703</ele>
        <time>2020-06-08T14:09:50.000Z</time>
      </trkpt>
      <trkpt lat="43.48264" lon="1.50391">
        <ele>259.20001220703</ele>
        <time>2020-06-08T14:09:52.000Z</time>
      </trkpt>
      <trkpt lat="43.48267" lon="1.50399">
        <ele>259</ele>
        <time>2020-06-08T14:09:54.000Z</time>
      </trkpt>
      <trkpt lat="43.48273" lon="1.50405">
        <ele>259</ele>
        <time>2020-06-08T14:09:56.000Z</time>
      </trkpt>
      <trkpt lat="43.48279" lon="1.50412">
        <ele>258.79998779297</ele>
        <time>2020-06-08T14:09:58.000Z</time>
      </trkpt>
      <trkpt lat="43.48285" lon="1.50419">
        <ele>258.60000610352</ele>
        <time>2020-06-08T14:10:00.000Z</time>
      </trkpt>
      <trkpt lat="43.48292" lon="1.50428">
        <ele>258.39999389648</ele>
        <time>2020-06-08T14:10:02.000Z</time>
      </trkpt>
      <trkpt lat="43.48299" lon="1.50438">
        <ele>258.39999389648</ele>
        <time>2020-06-08T14:10:04.000Z</time>
      </trkpt>
      <trkpt lat="43.48306" lon="1.50449">
        <ele>258.20001220703</ele>
        <time>2020-06-08T14:10:06.000Z</time>
      </trkpt>
      <trkpt lat="43.48308" lon="1.50455">
        <ele>258.20001220703</ele>
        <time>2020-06-08T14:10:07.000Z</time>
      </trkpt>
      <trkpt lat="43.48311" lon="1.50461">
        <ele>258.20001220703</ele>
        <time>2020-06-08T14:10:08.000Z</time>
      </trkpt>
      <trkpt lat="43.48317" lon="1.50474">
        <ele>258</ele>
        <time>2020-06-08T14:10:10.000Z</time>
      </trkpt>
      <trkpt lat="43.48322" lon="1.50488">
        <ele>258</ele>
        <time>2020-06-08T14:10:12.000Z</time>
      </trkpt>
      <trkpt lat="43.48328" lon="1.50502">
        <ele>258</ele>
        <time>2020-06-08T14:10:14.000Z</time>
      </trkpt>
      <trkpt lat="43.48333" lon="1.50517">
        <ele>257.79998779297</ele>
        <time>2020-06-08T14:10:16.000Z</time>
      </trkpt>
      <trkpt lat="43.48339" lon="1.50531">
        <ele>257.60000610352</ele>
        <time>2020-06-08T14:10:18.000Z</time>
      </trkpt>
      <trkpt lat="43.48344" lon="1.50546">
        <ele>257.39999389648</ele>
        <time>2020-06-08T14:10:20.000Z</time>
      </trkpt>
      <trkpt lat="43.48349" lon="1.5056">
        <ele>257.20001220703</ele>
        <time>2020-06-08T14:10:22.000Z</time>
      </trkpt>
      <trkpt lat="43.48354" lon="1.50574">
        <ele>257</ele>
        <time>2020-06-08T14:10:24.000Z</time>
      </trkpt>
      <trkpt lat="43.48359" lon="1.50587">
        <ele>256.79998779297</ele>
        <time>2020-06-08T14:10:26.000Z</time>
      </trkpt>
      <trkpt lat="43.48363" lon="1.506">
        <ele>256.79998779297</ele>
        <time>2020-06-08T14:10:28.000Z</time>
      </trkpt>
      <trkpt lat="43.48368" lon="1.50613">
        <ele>256.79998779297</ele>
        <time>2020-06-08T14:10:30.000Z</time>
      </trkpt>
      <trkpt lat="43.48372" lon="1.50625">
        <ele>256.79998779297</ele>
        <time>2020-06-08T14:10:32.000Z</time>
      </trkpt>
      <trkpt lat="43.48377" lon="1.50638">
        <ele>256.79998779297</ele>
        <time>2020-06-08T14:10:34.000Z</time>
      </trkpt>
      <trkpt lat="43.48381" lon="1.5065">
        <ele>256.79998779297</ele>
        <time>2020-06-08T14:10:36.000Z</time>
      </trkpt>
      <trkpt lat="43.48386" lon="1.50662">
        <ele>256.60000610352</ele>
        <time>2020-06-08T14:10:38.000Z</time>
      </trkpt>
      <trkpt lat="43.4839" lon="1.50675">
        <ele>256.60000610352</ele>
        <time>2020-06-08T14:10:40.000Z</time>
      </trkpt>
      <trkpt lat="43.48395" lon="1.50687">
        <ele>256.79998779297</ele>
        <time>2020-06-08T14:10:42.000Z</time>
      </trkpt>
      <trkpt lat="43.48399" lon="1.50699">
        <ele>256.79998779297</ele>
        <time>2020-06-08T14:10:44.000Z</time>
      </trkpt>
      <trkpt lat="43.48403" lon="1.50712">
        <ele>257</ele>
        <time>2020-06-08T14:10:46.000Z</time>
      </trkpt>
      <trkpt lat="43.48406" lon="1.50725">
        <ele>257</ele>
        <time>2020-06-08T14:10:48.000Z</time>
      </trkpt>
      <trkpt lat="43.48409" lon="1.50739">
        <ele>257</ele>
        <time>2020-06-08T14:10:50.000Z</time>
      </trkpt>
      <trkpt lat="43.48412" lon="1.50752">
        <ele>257</ele>
        <time>2020-06-08T14:10:52.000Z</time>
      </trkpt>
      <trkpt lat="43.48415" lon="1.50766">
        <ele>257</ele>
        <time>2020-06-08T14:10:54.000Z</time>
      </trkpt>
      <trkpt lat="43.48418" lon="1.5078">
        <ele>257</ele>
        <time>2020-06-08T14:10:56.000Z</time>
      </trkpt>
      <trkpt lat="43.4842" lon="1.50795">
        <ele>257</ele>
        <time>2020-06-08T14:10:58.000Z</time>
      </trkpt>
      <trkpt lat="43.48423" lon="1.5081">
        <ele>256.79998779297</ele>
        <time>2020-06-08T14:11:00.000Z</time>
      </trkpt>
      <trkpt lat="43.48426" lon="1.50826">
        <ele>256.60000610352</ele>
        <time>2020-06-08T14:11:02.000Z</time>
      </trkpt>
      <trkpt lat="43.48429" lon="1.50841">
        <ele>256.20001220703</ele>
        <time>2020-06-08T14:11:04.000Z</time>
      </trkpt>
      <trkpt lat="43.4843" lon="1.50848">
        <ele>256</ele>
        <time>2020-06-08T14:11:05.000Z</time>
      </trkpt>
      <trkpt lat="43.48432" lon="1.50856">
        <ele>255.80000305176</ele>
        <time>2020-06-08T14:11:06.000Z</time>
      </trkpt>
      <trkpt lat="43.48434" lon="1.50873">
        <ele>255</ele>
        <time>2020-06-08T14:11:08.000Z</time>
      </trkpt>
      <trkpt lat="43.48437" lon="1.50892">
        <ele>254.39999389648</ele>
        <time>2020-06-08T14:11:10.000Z</time>
      </trkpt>
      <trkpt lat="43.4844" lon="1.50912">
        <ele>254</ele>
        <time>2020-06-08T14:11:12.000Z</time>
      </trkpt>
      <trkpt lat="43.48442" lon="1.50934">
        <ele>253</ele>
        <time>2020-06-08T14:11:14.000Z</time>
      </trkpt>
      <trkpt lat="43.48443" lon="1.50945">
        <ele>252.80000305176</ele>
        <time>2020-06-08T14:11:15.000Z</time>
      </trkpt>
      <trkpt lat="43.48444" lon="1.50955">
        <ele>252</ele>
        <time>2020-06-08T14:11:16.000Z</time>
      </trkpt>
      <trkpt lat="43.48445" lon="1.50966">
        <ele>251.60000610352</ele>
        <time>2020-06-08T14:11:17.000Z</time>
      </trkpt>
      <trkpt lat="43.48446" lon="1.50977">
        <ele>251.19999694824</ele>
        <time>2020-06-08T14:11:18.000Z</time>
      </trkpt>
      <trkpt lat="43.48448" lon="1.50999">
        <ele>249.80000305176</ele>
        <time>2020-06-08T14:11:20.000Z</time>
      </trkpt>
      <trkpt lat="43.4845" lon="1.51021">
        <ele>249.19999694824</ele>
        <time>2020-06-08T14:11:22.000Z</time>
      </trkpt>
      <trkpt lat="43.48452" lon="1.51043">
        <ele>248.39999389648</ele>
        <time>2020-06-08T14:11:24.000Z</time>
      </trkpt>
      <trkpt lat="43.48454" lon="1.51062">
        <ele>247</ele>
        <time>2020-06-08T14:11:26.000Z</time>
      </trkpt>
      <trkpt lat="43.48456" lon="1.51072">
        <ele>246.39999389648</ele>
        <time>2020-06-08T14:11:27.000Z</time>
      </trkpt>
      <trkpt lat="43.48458" lon="1.51081">
        <ele>246</ele>
        <time>2020-06-08T14:11:28.000Z</time>
      </trkpt>
      <trkpt lat="43.48462" lon="1.5109">
        <ele>245.80000305176</ele>
        <time>2020-06-08T14:11:29.000Z</time>
      </trkpt>
      <trkpt lat="43.48466" lon="1.51098">
        <ele>245.39999389648</ele>
        <time>2020-06-08T14:11:30.000Z</time>
      </trkpt>
      <trkpt lat="43.48471" lon="1.51106">
        <ele>244.60000610352</ele>
        <time>2020-06-08T14:11:31.000Z</time>
      </trkpt>
      <trkpt lat="43.48478" lon="1.51113">
        <ele>244</ele>
        <time>2020-06-08T14:11:32.000Z</time>
      </trkpt>
      <trkpt lat="43.48485" lon="1.5112">
        <ele>243.39999389648</ele>
        <time>2020-06-08T14:11:33.000Z</time>
      </trkpt>
      <trkpt lat="43.48493" lon="1.51127">
        <ele>243</ele>
        <time>2020-06-08T14:11:34.000Z</time>
      </trkpt>
      <trkpt lat="43.48501" lon="1.51134">
        <ele>242.19999694824</ele>
        <time>2020-06-08T14:11:35.000Z</time>
      </trkpt>
      <trkpt lat="43.4851" lon="1.5114">
        <ele>241.19999694824</ele>
        <time>2020-06-08T14:11:36.000Z</time>
      </trkpt>
      <trkpt lat="43.48519" lon="1.51147">
        <ele>240.19999694824</ele>
        <time>2020-06-08T14:11:37.000Z</time>
      </trkpt>
      <trkpt lat="43.48529" lon="1.51153">
        <ele>239.60000610352</ele>
        <time>2020-06-08T14:11:38.000Z</time>
      </trkpt>
      <trkpt lat="43.48547" lon="1.51166">
        <ele>238.80000305176</ele>
        <time>2020-06-08T14:11:40.000Z</time>
      </trkpt>
      <trkpt lat="43.48565" lon="1.51178">
        <ele>236.60000610352</ele>
        <time>2020-06-08T14:11:42.000Z</time>
      </trkpt>
      <trkpt lat="43.48574" lon="1.51185">
        <ele>235.19999694824</ele>
        <time>2020-06-08T14:11:43.000Z</time>
      </trkpt>
      <trkpt lat="43.48584" lon="1.51191">
        <ele>234.39999389648</ele>
        <time>2020-06-08T14:11:44.000Z</time>
      </trkpt>
      <trkpt lat="43.48593" lon="1.51197">
        <ele>234</ele>
        <time>2020-06-08T14:11:45.000Z</time>
      </trkpt>
      <trkpt lat="43.48602" lon="1.51203">
        <ele>232.60000610352</ele>
        <time>2020-06-08T14:11:46.000Z</time>
      </trkpt>
      <trkpt lat="43.4861" lon="1.51209">
        <ele>231.60000610352</ele>
        <time>2020-06-08T14:11:47.000Z</time>
      </trkpt>
      <trkpt lat="43.48619" lon="1.51215">
        <ele>230.60000610352</ele>
        <time>2020-06-08T14:11:48.000Z</time>
      </trkpt>
      <trkpt lat="43.48628" lon="1.5122">
        <ele>230</ele>
        <time>2020-06-08T14:11:49.000Z</time>
      </trkpt>
      <trkpt lat="43.48637" lon="1.51226">
        <ele>229.19999694824</ele>
        <time>2020-06-08T14:11:50.000Z</time>
      </trkpt>
      <trkpt lat="43.48645" lon="1.51232">
        <ele>228.19999694824</ele>
        <time>2020-06-08T14:11:51.000Z</time>
      </trkpt>
      <trkpt lat="43.48654" lon="1.51237">
        <ele>227.39999389648</ele>
        <time>2020-06-08T14:11:52.000Z</time>
      </trkpt>
      <trkpt lat="43.48662" lon="1.51243">
        <ele>226.80000305176</ele>
        <time>2020-06-08T14:11:53.000Z</time>
      </trkpt>
      <trkpt lat="43.48669" lon="1.51248">
        <ele>226.39999389648</ele>
        <time>2020-06-08T14:11:54.000Z</time>
      </trkpt>
      <trkpt lat="43.48677" lon="1.51253">
        <ele>225.80000305176</ele>
        <time>2020-06-08T14:11:55.000Z</time>
      </trkpt>
      <trkpt lat="43.48685" lon="1.51259">
        <ele>225.60000610352</ele>
        <time>2020-06-08T14:11:56.000Z</time>
      </trkpt>
      <trkpt lat="43.487" lon="1.51269">
        <ele>225.39999389648</ele>
        <time>2020-06-08T14:11:58.000Z</time>
      </trkpt>
      <trkpt lat="43.48715" lon="1.51278">
        <ele>225.19999694824</ele>
        <time>2020-06-08T14:12:00.000Z</time>
      </trkpt>
      <trkpt lat="43.48728" lon="1.51287">
        <ele>224.80000305176</ele>
        <time>2020-06-08T14:12:02.000Z</time>
      </trkpt>
      <trkpt lat="43.48734" lon="1.51291">
        <ele>224.60000610352</ele>
        <time>2020-06-08T14:12:03.000Z</time>
      </trkpt>
      <trkpt lat="43.48739" lon="1.51295">
        <ele>224.39999389648</ele>
        <time>2020-06-08T14:12:04.000Z</time>
      </trkpt>
      <trkpt lat="43.4875" lon="1.513">
        <ele>224.19999694824</ele>
        <time>2020-06-08T14:12:06.000Z</time>
      </trkpt>
      <trkpt lat="43.48761" lon="1.51301">
        <ele>224</ele>
        <time>2020-06-08T14:12:08.000Z</time>
      </trkpt>
      <trkpt lat="43.48772" lon="1.51297">
        <ele>223.80000305176</ele>
        <time>2020-06-08T14:12:10.000Z</time>
      </trkpt>
      <trkpt lat="43.48784" lon="1.51291">
        <ele>223.60000610352</ele>
        <time>2020-06-08T14:12:12.000Z</time>
      </trkpt>
      <trkpt lat="43.48789" lon="1.51289">
        <ele>223.39999389648</ele>
        <time>2020-06-08T14:12:13.000Z</time>
      </trkpt>
      <trkpt lat="43.48795" lon="1.51287">
        <ele>223.19999694824</ele>
        <time>2020-06-08T14:12:14.000Z</time>
      </trkpt>
      <trkpt lat="43.48806" lon="1.51288">
        <ele>223</ele>
        <time>2020-06-08T14:12:16.000Z</time>
      </trkpt>
      <trkpt lat="43.48817" lon="1.51294">
        <ele>221.80000305176</ele>
        <time>2020-06-08T14:12:18.000Z</time>
      </trkpt>
      <trkpt lat="43.48829" lon="1.51307">
        <ele>220.19999694824</ele>
        <time>2020-06-08T14:12:20.000Z</time>
      </trkpt>
      <trkpt lat="43.48835" lon="1.51315">
        <ele>219.80000305176</ele>
        <time>2020-06-08T14:12:21.000Z</time>
      </trkpt>
      <trkpt lat="43.4884" lon="1.51323">
        <ele>219.39999389648</ele>
        <time>2020-06-08T14:12:22.000Z</time>
      </trkpt>
      <trkpt lat="43.48846" lon="1.51332">
        <ele>219</ele>
        <time>2020-06-08T14:12:23.000Z</time>
      </trkpt>
      <trkpt lat="43.48852" lon="1.5134">
        <ele>218.19999694824</ele>
        <time>2020-06-08T14:12:24.000Z</time>
      </trkpt>
      <trkpt lat="43.48858" lon="1.51348">
        <ele>217.80000305176</ele>
        <time>2020-06-08T14:12:25.000Z</time>
      </trkpt>
      <trkpt lat="43.48864" lon="1.51357">
        <ele>217.39999389648</ele>
        <time>2020-06-08T14:12:26.000Z</time>
      </trkpt>
      <trkpt lat="43.48876" lon="1.51374">
        <ele>217</ele>
        <time>2020-06-08T14:12:28.000Z</time>
      </trkpt>
      <trkpt lat="43.48882" lon="1.51383">
        <ele>215.39999389648</ele>
        <time>2020-06-08T14:12:29.000Z</time>
      </trkpt>
      <trkpt lat="43.48888" lon="1.51392">
        <ele>214.39999389648</ele>
        <time>2020-06-08T14:12:30.000Z</time>
      </trkpt>
      <trkpt lat="43.48894" lon="1.514">
        <ele>213.60000610352</ele>
        <time>2020-06-08T14:12:31.000Z</time>
      </trkpt>
      <trkpt lat="43.489" lon="1.51408">
        <ele>212.80000305176</ele>
        <time>2020-06-08T14:12:32.000Z</time>
      </trkpt>
      <trkpt lat="43.48904" lon="1.51415">
        <ele>211.60000610352</ele>
        <time>2020-06-08T14:12:33.000Z</time>
      </trkpt>
      <trkpt lat="43.48909" lon="1.51422">
        <ele>211</ele>
        <time>2020-06-08T14:12:34.000Z</time>
      </trkpt>
      <trkpt lat="43.48914" lon="1.51428">
        <ele>210.60000610352</ele>
        <time>2020-06-08T14:12:35.000Z</time>
      </trkpt>
      <trkpt lat="43.4892" lon="1.51434">
        <ele>209.80000305176</ele>
        <time>2020-06-08T14:12:36.000Z</time>
      </trkpt>
      <trkpt lat="43.48926" lon="1.5144">
        <ele>209</ele>
        <time>2020-06-08T14:12:37.000Z</time>
      </trkpt>
      <trkpt lat="43.48932" lon="1.51447">
        <ele>208.19999694824</ele>
        <time>2020-06-08T14:12:38.000Z</time>
      </trkpt>
      <trkpt lat="43.48938" lon="1.51455">
        <ele>207.60000610352</ele>
        <time>2020-06-08T14:12:39.000Z</time>
      </trkpt>
      <trkpt lat="43.48942" lon="1.51463">
        <ele>207.19999694824</ele>
        <time>2020-06-08T14:12:40.000Z</time>
      </trkpt>
      <trkpt lat="43.48951" lon="1.51478">
        <ele>206.60000610352</ele>
        <time>2020-06-08T14:12:42.000Z</time>
      </trkpt>
      <trkpt lat="43.48955" lon="1.51486">
        <ele>206.19999694824</ele>
        <time>2020-06-08T14:12:43.000Z</time>
      </trkpt>
      <trkpt lat="43.4896" lon="1.51494">
        <ele>205.80000305176</ele>
        <time>2020-06-08T14:12:44.000Z</time>
      </trkpt>
      <trkpt lat="43.48969" lon="1.51509">
        <ele>205.39999389648</ele>
        <time>2020-06-08T14:12:46.000Z</time>
      </trkpt>
      <trkpt lat="43.48974" lon="1.51515">
        <ele>205</ele>
        <time>2020-06-08T14:12:47.000Z</time>
      </trkpt>
      <trkpt lat="43.48979" lon="1.51522">
        <ele>204.39999389648</ele>
        <time>2020-06-08T14:12:48.000Z</time>
      </trkpt>
      <trkpt lat="43.48988" lon="1.51534">
        <ele>203.60000610352</ele>
        <time>2020-06-08T14:12:50.000Z</time>
      </trkpt>
      <trkpt lat="43.48997" lon="1.51548">
        <ele>202.80000305176</ele>
        <time>2020-06-08T14:12:52.000Z</time>
      </trkpt>
      <trkpt lat="43.49001" lon="1.51554">
        <ele>202.60000610352</ele>
        <time>2020-06-08T14:12:53.000Z</time>
      </trkpt>
      <trkpt lat="43.49005" lon="1.5156">
        <ele>202.39999389648</ele>
        <time>2020-06-08T14:12:54.000Z</time>
      </trkpt>
      <trkpt lat="43.49012" lon="1.5157">
        <ele>202</ele>
        <time>2020-06-08T14:12:56.000Z</time>
      </trkpt>
      <trkpt lat="43.49017" lon="1.51578">
        <ele>201.19999694824</ele>
        <time>2020-06-08T14:12:58.000Z</time>
      </trkpt>
      <trkpt lat="43.49022" lon="1.51586">
        <ele>200.19999694824</ele>
        <time>2020-06-08T14:13:00.000Z</time>
      </trkpt>
      <trkpt lat="43.49025" lon="1.51591">
        <ele>200</ele>
        <time>2020-06-08T14:13:01.000Z</time>
      </trkpt>
      <trkpt lat="43.49028" lon="1.51596">
        <ele>199.80000305176</ele>
        <time>2020-06-08T14:13:02.000Z</time>
      </trkpt>
      <trkpt lat="43.49036" lon="1.51607">
        <ele>199.19999694824</ele>
        <time>2020-06-08T14:13:04.000Z</time>
      </trkpt>
      <trkpt lat="43.4904" lon="1.51613">
        <ele>199</ele>
        <time>2020-06-08T14:13:05.000Z</time>
      </trkpt>
      <trkpt lat="43.49044" lon="1.51619">
        <ele>198.80000305176</ele>
        <time>2020-06-08T14:13:06.000Z</time>
      </trkpt>
      <trkpt lat="43.49052" lon="1.51631">
        <ele>198.60000610352</ele>
        <time>2020-06-08T14:13:08.000Z</time>
      </trkpt>
      <trkpt lat="43.49061" lon="1.51644">
        <ele>198.19999694824</ele>
        <time>2020-06-08T14:13:10.000Z</time>
      </trkpt>
      <trkpt lat="43.4907" lon="1.51657">
        <ele>197.80000305176</ele>
        <time>2020-06-08T14:13:12.000Z</time>
      </trkpt>
      <trkpt lat="43.49078" lon="1.5167">
        <ele>197.39999389648</ele>
        <time>2020-06-08T14:13:14.000Z</time>
      </trkpt>
      <trkpt lat="43.49088" lon="1.51682">
        <ele>196.60000610352</ele>
        <time>2020-06-08T14:13:16.000Z</time>
      </trkpt>
      <trkpt lat="43.49097" lon="1.51694">
        <ele>195.39999389648</ele>
        <time>2020-06-08T14:13:18.000Z</time>
      </trkpt>
      <trkpt lat="43.49106" lon="1.51705">
        <ele>194.60000610352</ele>
        <time>2020-06-08T14:13:20.000Z</time>
      </trkpt>
      <trkpt lat="43.49113" lon="1.51715">
        <ele>194.39999389648</ele>
        <time>2020-06-08T14:13:22.000Z</time>
      </trkpt>
      <trkpt lat="43.49121" lon="1.51725">
        <ele>194.19999694824</ele>
        <time>2020-06-08T14:13:24.000Z</time>
      </trkpt>
      <trkpt lat="43.49128" lon="1.51736">
        <ele>194</ele>
        <time>2020-06-08T14:13:26.000Z</time>
      </trkpt>
      <trkpt lat="43.49134" lon="1.51747">
        <ele>193.80000305176</ele>
        <time>2020-06-08T14:13:28.000Z</time>
      </trkpt>
      <trkpt lat="43.4914" lon="1.51758">
        <ele>193.60000610352</ele>
        <time>2020-06-08T14:13:30.000Z</time>
      </trkpt>
      <trkpt lat="43.49143" lon="1.51763">
        <ele>193.39999389648</ele>
        <time>2020-06-08T14:13:31.000Z</time>
      </trkpt>
      <trkpt lat="43.49147" lon="1.51768">
        <ele>193</ele>
        <time>2020-06-08T14:13:32.000Z</time>
      </trkpt>
      <trkpt lat="43.49153" lon="1.51778">
        <ele>192.60000610352</ele>
        <time>2020-06-08T14:13:34.000Z</time>
      </trkpt>
      <trkpt lat="43.49158" lon="1.51786">
        <ele>192.39999389648</ele>
        <time>2020-06-08T14:13:36.000Z</time>
      </trkpt>
      <trkpt lat="43.49163" lon="1.51794">
        <ele>192</ele>
        <time>2020-06-08T14:13:38.000Z</time>
      </trkpt>
      <trkpt lat="43.4917" lon="1.51801">
        <ele>191.80000305176</ele>
        <time>2020-06-08T14:13:40.000Z</time>
      </trkpt>
      <trkpt lat="43.49178" lon="1.51808">
        <ele>191.39999389648</ele>
        <time>2020-06-08T14:13:42.000Z</time>
      </trkpt>
      <trkpt lat="43.49182" lon="1.51813">
        <ele>191.39999389648</ele>
        <time>2020-06-08T14:13:43.000Z</time>
      </trkpt>
      <trkpt lat="43.49186" lon="1.51817">
        <ele>191.19999694824</ele>
        <time>2020-06-08T14:13:44.000Z</time>
      </trkpt>
      <trkpt lat="43.49195" lon="1.51825">
        <ele>190.60000610352</ele>
        <time>2020-06-08T14:13:46.000Z</time>
      </trkpt>
      <trkpt lat="43.49199" lon="1.51829">
        <ele>190.19999694824</ele>
        <time>2020-06-08T14:13:47.000Z</time>
      </trkpt>
      <trkpt lat="43.49204" lon="1.51833">
        <ele>189.60000610352</ele>
        <time>2020-06-08T14:13:48.000Z</time>
      </trkpt>
      <trkpt lat="43.49209" lon="1.51836">
        <ele>189.39999389648</ele>
        <time>2020-06-08T14:13:49.000Z</time>
      </trkpt>
      <trkpt lat="43.49214" lon="1.5184">
        <ele>189.39999389648</ele>
        <time>2020-06-08T14:13:50.000Z</time>
      </trkpt>
      <trkpt lat="43.49219" lon="1.51843">
        <ele>189.19999694824</ele>
        <time>2020-06-08T14:13:51.000Z</time>
      </trkpt>
      <trkpt lat="43.49224" lon="1.51847">
        <ele>188.80000305176</ele>
        <time>2020-06-08T14:13:52.000Z</time>
      </trkpt>
      <trkpt lat="43.49233" lon="1.51855">
        <ele>188</ele>
        <time>2020-06-08T14:13:54.000Z</time>
      </trkpt>
      <trkpt lat="43.49241" lon="1.51866">
        <ele>187.19999694824</ele>
        <time>2020-06-08T14:13:56.000Z</time>
      </trkpt>
      <trkpt lat="43.49245" lon="1.51873">
        <ele>186.80000305176</ele>
        <time>2020-06-08T14:13:57.000Z</time>
      </trkpt>
      <trkpt lat="43.49249" lon="1.5188">
        <ele>186</ele>
        <time>2020-06-08T14:13:58.000Z</time>
      </trkpt>
      <trkpt lat="43.49253" lon="1.51886">
        <ele>185.39999389648</ele>
        <time>2020-06-08T14:13:59.000Z</time>
      </trkpt>
      <trkpt lat="43.49257" lon="1.51893">
        <ele>185</ele>
        <time>2020-06-08T14:14:00.000Z</time>
      </trkpt>
      <trkpt lat="43.49265" lon="1.51908">
        <ele>184</ele>
        <time>2020-06-08T14:14:02.000Z</time>
      </trkpt>
      <trkpt lat="43.49274" lon="1.51921">
        <ele>182.60000610352</ele>
        <time>2020-06-08T14:14:04.000Z</time>
      </trkpt>
      <trkpt lat="43.49285" lon="1.51934">
        <ele>181.39999389648</ele>
        <time>2020-06-08T14:14:06.000Z</time>
      </trkpt>
      <trkpt lat="43.49296" lon="1.51945">
        <ele>180.19999694824</ele>
        <time>2020-06-08T14:14:08.000Z</time>
      </trkpt>
      <trkpt lat="43.49308" lon="1.51955">
        <ele>179.39999389648</ele>
        <time>2020-06-08T14:14:10.000Z</time>
      </trkpt>
      <trkpt lat="43.49313" lon="1.51959">
        <ele>179</ele>
        <time>2020-06-08T14:14:11.000Z</time>
      </trkpt>
      <trkpt lat="43.49318" lon="1.51962">
        <ele>178.60000610352</ele>
        <time>2020-06-08T14:14:12.000Z</time>
      </trkpt>
      <trkpt lat="43.49324" lon="1.51965">
        <ele>177.19999694824</ele>
        <time>2020-06-08T14:14:13.000Z</time>
      </trkpt>
      <trkpt lat="43.49329" lon="1.51969">
        <ele>176.39999389648</ele>
        <time>2020-06-08T14:14:14.000Z</time>
      </trkpt>
      <trkpt lat="43.49335" lon="1.51973">
        <ele>175.80000305176</ele>
        <time>2020-06-08T14:14:15.000Z</time>
      </trkpt>
      <trkpt lat="43.4934" lon="1.51977">
        <ele>175.19999694824</ele>
        <time>2020-06-08T14:14:16.000Z</time>
      </trkpt>
      <trkpt lat="43.4935" lon="1.51984">
        <ele>174.19999694824</ele>
        <time>2020-06-08T14:14:18.000Z</time>
      </trkpt>
      <trkpt lat="43.49359" lon="1.51993">
        <ele>173.19999694824</ele>
        <time>2020-06-08T14:14:20.000Z</time>
      </trkpt>
      <trkpt lat="43.49369" lon="1.52002">
        <ele>172</ele>
        <time>2020-06-08T14:14:22.000Z</time>
      </trkpt>
      <trkpt lat="43.49373" lon="1.52007">
        <ele>171.39999389648</ele>
        <time>2020-06-08T14:14:23.000Z</time>
      </trkpt>
      <trkpt lat="43.49377" lon="1.52012">
        <ele>170.80000305176</ele>
        <time>2020-06-08T14:14:24.000Z</time>
      </trkpt>
      <trkpt lat="43.49385" lon="1.52023">
        <ele>169.60000610352</ele>
        <time>2020-06-08T14:14:26.000Z</time>
      </trkpt>
      <trkpt lat="43.49392" lon="1.52035">
        <ele>168.80000305176</ele>
        <time>2020-06-08T14:14:28.000Z</time>
      </trkpt>
      <trkpt lat="43.49395" lon="1.5204">
        <ele>168.39999389648</ele>
        <time>2020-06-08T14:14:29.000Z</time>
      </trkpt>
      <trkpt lat="43.49398" lon="1.52045">
        <ele>168.19999694824</ele>
        <time>2020-06-08T14:14:30.000Z</time>
      </trkpt>
      <trkpt lat="43.49406" lon="1.52056">
        <ele>167.60000610352</ele>
        <time>2020-06-08T14:14:32.000Z</time>
      </trkpt>
      <trkpt lat="43.49409" lon="1.52061">
        <ele>167.19999694824</ele>
        <time>2020-06-08T14:14:33.000Z</time>
      </trkpt>
      <trkpt lat="43.49412" lon="1.52066">
        <ele>166.80000305176</ele>
        <time>2020-06-08T14:14:34.000Z</time>
      </trkpt>
      <trkpt lat="43.49418" lon="1.52075">
        <ele>166.39999389648</ele>
        <time>2020-06-08T14:14:36.000Z</time>
      </trkpt>
      <trkpt lat="43.49421" lon="1.52079">
        <ele>166.19999694824</ele>
        <time>2020-06-08T14:14:37.000Z</time>
      </trkpt>
      <trkpt lat="43.49423" lon="1.52083">
        <ele>165.80000305176</ele>
        <time>2020-06-08T14:14:38.000Z</time>
      </trkpt>
      <trkpt lat="43.49427" lon="1.52089">
        <ele>165.19999694824</ele>
        <time>2020-06-08T14:14:40.000Z</time>
      </trkpt>
      <trkpt lat="43.49429" lon="1.52091">
        <ele>165.19999694824</ele>
        <time>2020-06-08T14:14:41.000Z</time>
      </trkpt>
      <trkpt lat="43.4943" lon="1.52094">
        <ele>165</ele>
        <time>2020-06-08T14:14:42.000Z</time>
      </trkpt>
      <trkpt lat="43.49432" lon="1.52099">
        <ele>165</ele>
        <time>2020-06-08T14:14:44.000Z</time>
      </trkpt>
      <trkpt lat="43.49433" lon="1.52103">
        <ele>165</ele>
        <time>2020-06-08T14:14:46.000Z</time>
      </trkpt>
      <trkpt lat="43.49433" lon="1.52105">
        <ele>165</ele>
        <time>2020-06-08T14:14:48.000Z</time>
      </trkpt>
      <trkpt lat="43.49433" lon="1.52107">
        <ele>165</ele>
        <time>2020-06-08T14:16:01.000Z</time>
      </trkpt>
      <trkpt lat="43.49434" lon="1.52109">
        <ele>165</ele>
        <time>2020-06-08T14:16:02.000Z</time>
      </trkpt>
      <trkpt lat="43.49433" lon="1.52115">
        <ele>165</ele>
        <time>2020-06-08T14:16:04.000Z</time>
      </trkpt>
      <trkpt lat="43.49431" lon="1.52121">
        <ele>165.19999694824</ele>
        <time>2020-06-08T14:16:06.000Z</time>
      </trkpt>
      <trkpt lat="43.49427" lon="1.52128">
        <ele>165.19999694824</ele>
        <time>2020-06-08T14:16:08.000Z</time>
      </trkpt>
      <trkpt lat="43.49422" lon="1.52136">
        <ele>165.19999694824</ele>
        <time>2020-06-08T14:16:10.000Z</time>
      </trkpt>
      <trkpt lat="43.49418" lon="1.52144">
        <ele>165.19999694824</ele>
        <time>2020-06-08T14:16:12.000Z</time>
      </trkpt>
      <trkpt lat="43.49415" lon="1.52151">
        <ele>165</ele>
        <time>2020-06-08T14:16:14.000Z</time>
      </trkpt>
      <trkpt lat="43.49415" lon="1.52155">
        <ele>165</ele>
        <time>2020-06-08T14:16:15.000Z</time>
      </trkpt>
      <trkpt lat="43.49416" lon="1.5216">
        <ele>165</ele>
        <time>2020-06-08T14:16:16.000Z</time>
      </trkpt>
      <trkpt lat="43.4942" lon="1.52168">
        <ele>164.80000305176</ele>
        <time>2020-06-08T14:16:18.000Z</time>
      </trkpt>
      <trkpt lat="43.49424" lon="1.52179">
        <ele>164.80000305176</ele>
        <time>2020-06-08T14:16:20.000Z</time>
      </trkpt>
      <trkpt lat="43.49427" lon="1.52192">
        <ele>164.60000610352</ele>
        <time>2020-06-08T14:16:22.000Z</time>
      </trkpt>
      <trkpt lat="43.49428" lon="1.52207">
        <ele>164.60000610352</ele>
        <time>2020-06-08T14:16:24.000Z</time>
      </trkpt>
      <trkpt lat="43.49429" lon="1.52221">
        <ele>164.39999389648</ele>
        <time>2020-06-08T14:16:26.000Z</time>
      </trkpt>
      <trkpt lat="43.4943" lon="1.52236">
        <ele>163.39999389648</ele>
        <time>2020-06-08T14:16:28.000Z</time>
      </trkpt>
      <trkpt lat="43.49431" lon="1.52243">
        <ele>163</ele>
        <time>2020-06-08T14:16:29.000Z</time>
      </trkpt>
      <trkpt lat="43.49431" lon="1.52251">
        <ele>162.60000610352</ele>
        <time>2020-06-08T14:16:30.000Z</time>
      </trkpt>
      <trkpt lat="43.49429" lon="1.52264">
        <ele>162.19999694824</ele>
        <time>2020-06-08T14:16:32.000Z</time>
      </trkpt>
      <trkpt lat="43.49427" lon="1.52277">
        <ele>162.19999694824</ele>
        <time>2020-06-08T14:16:34.000Z</time>
      </trkpt>
      <trkpt lat="43.49426" lon="1.5229">
        <ele>162</ele>
        <time>2020-06-08T14:16:36.000Z</time>
      </trkpt>
      <trkpt lat="43.49424" lon="1.52303">
        <ele>162</ele>
        <time>2020-06-08T14:16:38.000Z</time>
      </trkpt>
      <trkpt lat="43.49422" lon="1.52317">
        <ele>162</ele>
        <time>2020-06-08T14:16:40.000Z</time>
      </trkpt>
      <trkpt lat="43.4942" lon="1.52331">
        <ele>161.80000305176</ele>
        <time>2020-06-08T14:16:42.000Z</time>
      </trkpt>
      <trkpt lat="43.49417" lon="1.52345">
        <ele>161.80000305176</ele>
        <time>2020-06-08T14:16:44.000Z</time>
      </trkpt>
      <trkpt lat="43.49415" lon="1.52358">
        <ele>161.60000610352</ele>
        <time>2020-06-08T14:16:46.000Z</time>
      </trkpt>
      <trkpt lat="43.49413" lon="1.52372">
        <ele>161.60000610352</ele>
        <time>2020-06-08T14:16:48.000Z</time>
      </trkpt>
      <trkpt lat="43.49411" lon="1.52385">
        <ele>161.39999389648</ele>
        <time>2020-06-08T14:16:50.000Z</time>
      </trkpt>
      <trkpt lat="43.4941" lon="1.52399">
        <ele>161.39999389648</ele>
        <time>2020-06-08T14:16:52.000Z</time>
      </trkpt>
      <trkpt lat="43.49408" lon="1.52413">
        <ele>161.39999389648</ele>
        <time>2020-06-08T14:16:54.000Z</time>
      </trkpt>
      <trkpt lat="43.49406" lon="1.52427">
        <ele>161.19999694824</ele>
        <time>2020-06-08T14:16:56.000Z</time>
      </trkpt>
      <trkpt lat="43.49403" lon="1.52441">
        <ele>161</ele>
        <time>2020-06-08T14:16:58.000Z</time>
      </trkpt>
      <trkpt lat="43.49401" lon="1.52455">
        <ele>161</ele>
        <time>2020-06-08T14:17:00.000Z</time>
      </trkpt>
      <trkpt lat="43.49397" lon="1.52467">
        <ele>161</ele>
        <time>2020-06-08T14:17:02.000Z</time>
      </trkpt>
      <trkpt lat="43.49394" lon="1.5248">
        <ele>161</ele>
        <time>2020-06-08T14:17:04.000Z</time>
      </trkpt>
      <trkpt lat="43.49391" lon="1.52492">
        <ele>161</ele>
        <time>2020-06-08T14:17:06.000Z</time>
      </trkpt>
      <trkpt lat="43.49387" lon="1.52505">
        <ele>161</ele>
        <time>2020-06-08T14:17:08.000Z</time>
      </trkpt>
      <trkpt lat="43.49386" lon="1.52512">
        <ele>160.80000305176</ele>
        <time>2020-06-08T14:17:09.000Z</time>
      </trkpt>
      <trkpt lat="43.49384" lon="1.52518">
        <ele>160.80000305176</ele>
        <time>2020-06-08T14:17:10.000Z</time>
      </trkpt>
      <trkpt lat="43.4938" lon="1.52532">
        <ele>160.80000305176</ele>
        <time>2020-06-08T14:17:12.000Z</time>
      </trkpt>
      <trkpt lat="43.49376" lon="1.52545">
        <ele>160.80000305176</ele>
        <time>2020-06-08T14:17:14.000Z</time>
      </trkpt>
      <trkpt lat="43.49373" lon="1.52559">
        <ele>160.80000305176</ele>
        <time>2020-06-08T14:17:16.000Z</time>
      </trkpt>
      <trkpt lat="43.4937" lon="1.52572">
        <ele>160.60000610352</ele>
        <time>2020-06-08T14:17:18.000Z</time>
      </trkpt>
      <trkpt lat="43.49369" lon="1.52579">
        <ele>160.39999389648</ele>
        <time>2020-06-08T14:17:19.000Z</time>
      </trkpt>
      <trkpt lat="43.49368" lon="1.52593">
        <ele>160.39999389648</ele>
        <time>2020-06-08T14:17:21.000Z</time>
      </trkpt>
      <trkpt lat="43.49367" lon="1.52607">
        <ele>160.19999694824</ele>
        <time>2020-06-08T14:17:23.000Z</time>
      </trkpt>
      <trkpt lat="43.49365" lon="1.52687">
        <ele>160</ele>
        <time>2020-06-08T14:17:35.000Z</time>
      </trkpt>
      <trkpt lat="43.49367" lon="1.527">
        <ele>160</ele>
        <time>2020-06-08T14:17:37.000Z</time>
      </trkpt>
      <trkpt lat="43.49372" lon="1.52725">
        <ele>160</ele>
        <time>2020-06-08T14:17:41.000Z</time>
      </trkpt>
      <trkpt lat="43.49386" lon="1.52766">
        <ele>159.80000305176</ele>
        <time>2020-06-08T14:17:48.000Z</time>
      </trkpt>
      <trkpt lat="43.49409" lon="1.52833">
        <ele>159.80000305176</ele>
        <time>2020-06-08T14:17:59.000Z</time>
      </trkpt>
      <trkpt lat="43.49428" lon="1.52909">
        <ele>159.60000610352</ele>
        <time>2020-06-08T14:18:11.000Z</time>
      </trkpt>
      <trkpt lat="43.4943" lon="1.52929">
        <ele>159.60000610352</ele>
        <time>2020-06-08T14:18:14.000Z</time>
      </trkpt>
      <trkpt lat="43.49416" lon="1.53003">
        <ele>159.39999389648</ele>
        <time>2020-06-08T14:18:26.000Z</time>
      </trkpt>
      <trkpt lat="43.49408" lon="1.53027">
        <ele>159</ele>
        <time>2020-06-08T14:18:30.000Z</time>
      </trkpt>
      <trkpt lat="43.49391" lon="1.53104">
        <ele>158.39999389648</ele>
        <time>2020-06-08T14:18:42.000Z</time>
      </trkpt>
      <trkpt lat="43.49387" lon="1.53123">
        <ele>158.39999389648</ele>
        <time>2020-06-08T14:18:45.000Z</time>
      </trkpt>
      <trkpt lat="43.49386" lon="1.53136">
        <ele>158.39999389648</ele>
        <time>2020-06-08T14:18:47.000Z</time>
      </trkpt>
      <trkpt lat="43.49397" lon="1.53177">
        <ele>158.60000610352</ele>
        <time>2020-06-08T14:18:54.000Z</time>
      </trkpt>
      <trkpt lat="43.49432" lon="1.53239">
        <ele>158.39999389648</ele>
        <time>2020-06-08T14:19:06.000Z</time>
      </trkpt>
      <trkpt lat="43.49472" lon="1.53292">
        <ele>158.39999389648</ele>
        <time>2020-06-08T14:19:18.000Z</time>
      </trkpt>
      <trkpt lat="43.49511" lon="1.53352">
        <ele>158</ele>
        <time>2020-06-08T14:19:29.000Z</time>
      </trkpt>
      <trkpt lat="43.4954" lon="1.53419">
        <ele>158.19999694824</ele>
        <time>2020-06-08T14:19:39.000Z</time>
      </trkpt>
      <trkpt lat="43.49561" lon="1.5347">
        <ele>158</ele>
        <time>2020-06-08T14:19:47.000Z</time>
      </trkpt>
      <trkpt lat="43.49587" lon="1.53535">
        <ele>158.19999694824</ele>
        <time>2020-06-08T14:20:01.000Z</time>
      </trkpt>
      <trkpt lat="43.49596" lon="1.53555">
        <ele>159.19999694824</ele>
        <time>2020-06-08T14:20:07.000Z</time>
      </trkpt>
      <trkpt lat="43.49607" lon="1.53573">
        <ele>159.60000610352</ele>
        <time>2020-06-08T14:20:14.000Z</time>
      </trkpt>
      <trkpt lat="43.4962" lon="1.53558">
        <ele>159.60000610352</ele>
        <time>2020-06-08T14:20:20.000Z</time>
      </trkpt>
      <trkpt lat="43.49639" lon="1.53539">
        <ele>158.19999694824</ele>
        <time>2020-06-08T14:20:25.000Z</time>
      </trkpt>
      <trkpt lat="43.49656" lon="1.5352">
        <ele>157</ele>
        <time>2020-06-08T14:20:30.000Z</time>
      </trkpt>
      <trkpt lat="43.49662" lon="1.53512">
        <ele>156.80000305176</ele>
        <time>2020-06-08T14:20:32.000Z</time>
      </trkpt>
      <trkpt lat="43.497" lon="1.53456">
        <ele>156.39999389648</ele>
        <time>2020-06-08T14:20:45.000Z</time>
      </trkpt>
      <trkpt lat="43.49716" lon="1.53429">
        <ele>156.19999694824</ele>
        <time>2020-06-08T14:20:51.000Z</time>
      </trkpt>
      <trkpt lat="43.49748" lon="1.53363">
        <ele>156.39999389648</ele>
        <time>2020-06-08T14:21:03.000Z</time>
      </trkpt>
      <trkpt lat="43.49784" lon="1.53303">
        <ele>156.39999389648</ele>
        <time>2020-06-08T14:21:14.000Z</time>
      </trkpt>
      <trkpt lat="43.49794" lon="1.53287">
        <ele>156</ele>
        <time>2020-06-08T14:21:17.000Z</time>
      </trkpt>
      <trkpt lat="43.49826" lon="1.53246">
        <ele>155.80000305176</ele>
        <time>2020-06-08T14:21:26.000Z</time>
      </trkpt>
      <trkpt lat="43.49846" lon="1.53222">
        <ele>155.80000305176</ele>
        <time>2020-06-08T14:21:32.000Z</time>
      </trkpt>
      <trkpt lat="43.49893" lon="1.53175">
        <ele>156</ele>
        <time>2020-06-08T14:21:44.000Z</time>
      </trkpt>
      <trkpt lat="43.49921" lon="1.53153">
        <ele>156.19999694824</ele>
        <time>2020-06-08T14:21:52.000Z</time>
      </trkpt>
      <trkpt lat="43.49954" lon="1.53125">
        <ele>157</ele>
        <time>2020-06-08T14:22:01.000Z</time>
      </trkpt>
      <trkpt lat="43.49965" lon="1.53114">
        <ele>157</ele>
        <time>2020-06-08T14:22:04.000Z</time>
      </trkpt>
      <trkpt lat="43.49984" lon="1.53096">
        <ele>157</ele>
        <time>2020-06-08T14:22:09.000Z</time>
      </trkpt>
      <trkpt lat="43.5001" lon="1.53071">
        <ele>156.80000305176</ele>
        <time>2020-06-08T14:22:15.000Z</time>
      </trkpt>
      <trkpt lat="43.50032" lon="1.53042">
        <ele>156</ele>
        <time>2020-06-08T14:22:21.000Z</time>
      </trkpt>
      <trkpt lat="43.50055" lon="1.53012">
        <ele>155.60000610352</ele>
        <time>2020-06-08T14:22:27.000Z</time>
      </trkpt>
      <trkpt lat="43.501" lon="1.52956">
        <ele>155.60000610352</ele>
        <time>2020-06-08T14:22:38.000Z</time>
      </trkpt>
      <trkpt lat="43.50109" lon="1.52948">
        <ele>155.60000610352</ele>
        <time>2020-06-08T14:22:43.000Z</time>
      </trkpt>
      <trkpt lat="43.5011" lon="1.52947">
        <ele>157</ele>
        <time>2020-06-08T14:23:00.000Z</time>
      </trkpt>
      <trkpt lat="43.5011" lon="1.52948">
        <ele>157</ele>
        <time>2020-06-08T14:23:03.000Z</time>
      </trkpt>
      <trkpt lat="43.5011" lon="1.52947">
        <ele>157</ele>
        <time>2020-06-08T14:27:51.000Z</time>
      </trkpt>
      <trkpt lat="43.50111" lon="1.52946">
        <ele>157</ele>
        <time>2020-06-08T14:27:56.000Z</time>
      </trkpt>
      <trkpt lat="43.50112" lon="1.52944">
        <ele>157.19999694824</ele>
        <time>2020-06-08T14:28:13.000Z</time>
      </trkpt>
      <trkpt lat="43.50113" lon="1.52941">
        <ele>157.19999694824</ele>
        <time>2020-06-08T14:28:17.000Z</time>
      </trkpt>
      <trkpt lat="43.50113" lon="1.52941">
        <ele>157.19999694824</ele>
        <time>2020-06-08T14:28:18.000Z</time>
      </trkpt>
      <trkpt lat="43.50114" lon="1.5294">
        <ele>157.19999694824</ele>
        <time>2020-06-08T14:28:19.000Z</time>
      </trkpt>
      <trkpt lat="43.50139" lon="1.52912">
        <ele>157.60000610352</ele>
        <time>2020-06-08T14:28:37.000Z</time>
      </trkpt>
      <trkpt lat="43.50184" lon="1.52878">
        <ele>157.60000610352</ele>
        <time>2020-06-08T14:28:54.000Z</time>
      </trkpt>
      <trkpt lat="43.50194" lon="1.52866">
        <ele>157.39999389648</ele>
        <time>2020-06-08T14:28:58.000Z</time>
      </trkpt>
      <trkpt lat="43.50207" lon="1.52856">
        <ele>157.19999694824</ele>
        <time>2020-06-08T14:29:02.000Z</time>
      </trkpt>
      <trkpt lat="43.50219" lon="1.52846">
        <ele>157.19999694824</ele>
        <time>2020-06-08T14:29:05.000Z</time>
      </trkpt>
      <trkpt lat="43.50259" lon="1.52811">
        <ele>156.80000305176</ele>
        <time>2020-06-08T14:29:16.000Z</time>
      </trkpt>
      <trkpt lat="43.50287" lon="1.52784">
        <ele>156.80000305176</ele>
        <time>2020-06-08T14:29:25.000Z</time>
      </trkpt>
      <trkpt lat="43.50308" lon="1.52761">
        <ele>157</ele>
        <time>2020-06-08T14:29:31.000Z</time>
      </trkpt>
      <trkpt lat="43.50318" lon="1.5275">
        <ele>156.80000305176</ele>
        <time>2020-06-08T14:29:34.000Z</time>
      </trkpt>
      <trkpt lat="43.50332" lon="1.52735">
        <ele>156.60000610352</ele>
        <time>2020-06-08T14:29:38.000Z</time>
      </trkpt>
      <trkpt lat="43.5034" lon="1.52723">
        <ele>156.39999389648</ele>
        <time>2020-06-08T14:29:41.000Z</time>
      </trkpt>
      <trkpt lat="43.50368" lon="1.52676">
        <ele>155.80000305176</ele>
        <time>2020-06-08T14:29:51.000Z</time>
      </trkpt>
      <trkpt lat="43.50387" lon="1.52622">
        <ele>156</ele>
        <time>2020-06-08T14:30:02.000Z</time>
      </trkpt>
      <trkpt lat="43.50395" lon="1.52593">
        <ele>155.80000305176</ele>
        <time>2020-06-08T14:30:07.000Z</time>
      </trkpt>
      <trkpt lat="43.50406" lon="1.52551">
        <ele>156</ele>
        <time>2020-06-08T14:30:14.000Z</time>
      </trkpt>
      <trkpt lat="43.50424" lon="1.52479">
        <ele>155.80000305176</ele>
        <time>2020-06-08T14:30:26.000Z</time>
      </trkpt>
      <trkpt lat="43.50428" lon="1.5246">
        <ele>155.60000610352</ele>
        <time>2020-06-08T14:30:29.000Z</time>
      </trkpt>
      <trkpt lat="43.50435" lon="1.52429">
        <ele>155.60000610352</ele>
        <time>2020-06-08T14:30:34.000Z</time>
      </trkpt>
      <trkpt lat="43.50436" lon="1.52402">
        <ele>155.60000610352</ele>
        <time>2020-06-08T14:30:38.000Z</time>
      </trkpt>
      <trkpt lat="43.50435" lon="1.52309">
        <ele>155.80000305176</ele>
        <time>2020-06-08T14:30:55.000Z</time>
      </trkpt>
      <trkpt lat="43.50434" lon="1.52287">
        <ele>156.19999694824</ele>
        <time>2020-06-08T14:30:59.000Z</time>
      </trkpt>
      <trkpt lat="43.50441" lon="1.52209">
        <ele>156.39999389648</ele>
        <time>2020-06-08T14:31:14.000Z</time>
      </trkpt>
      <trkpt lat="43.50448" lon="1.52187">
        <ele>156.60000610352</ele>
        <time>2020-06-08T14:31:18.000Z</time>
      </trkpt>
      <trkpt lat="43.50459" lon="1.52166">
        <ele>156.60000610352</ele>
        <time>2020-06-08T14:31:22.000Z</time>
      </trkpt>
      <trkpt lat="43.50499" lon="1.52116">
        <ele>156.39999389648</ele>
        <time>2020-06-08T14:31:34.000Z</time>
      </trkpt>
      <trkpt lat="43.50547" lon="1.52088">
        <ele>156.19999694824</ele>
        <time>2020-06-08T14:31:46.000Z</time>
      </trkpt>
      <trkpt lat="43.5058" lon="1.52082">
        <ele>156.19999694824</ele>
        <time>2020-06-08T14:31:53.000Z</time>
      </trkpt>
      <trkpt lat="43.50637" lon="1.52074">
        <ele>156</ele>
        <time>2020-06-08T14:32:05.000Z</time>
      </trkpt>
      <trkpt lat="43.50669" lon="1.52069">
        <ele>156</ele>
        <time>2020-06-08T14:32:12.000Z</time>
      </trkpt>
      <trkpt lat="43.50711" lon="1.52049">
        <ele>155.80000305176</ele>
        <time>2020-06-08T14:32:21.000Z</time>
      </trkpt>
      <trkpt lat="43.50726" lon="1.52038">
        <ele>155.60000610352</ele>
        <time>2020-06-08T14:32:25.000Z</time>
      </trkpt>
      <trkpt lat="43.50748" lon="1.52017">
        <ele>155.39999389648</ele>
        <time>2020-06-08T14:32:31.000Z</time>
      </trkpt>
      <trkpt lat="43.50765" lon="1.52002">
        <ele>155.39999389648</ele>
        <time>2020-06-08T14:32:35.000Z</time>
      </trkpt>
      <trkpt lat="43.50785" lon="1.51982">
        <ele>155.39999389648</ele>
        <time>2020-06-08T14:32:40.000Z</time>
      </trkpt>
      <trkpt lat="43.50828" lon="1.5193">
        <ele>155.60000610352</ele>
        <time>2020-06-08T14:32:52.000Z</time>
      </trkpt>
      <trkpt lat="43.50868" lon="1.51885">
        <ele>156.80000305176</ele>
        <time>2020-06-08T14:33:03.000Z</time>
      </trkpt>
      <trkpt lat="43.50912" lon="1.5184">
        <ele>157.19999694824</ele>
        <time>2020-06-08T14:33:14.000Z</time>
      </trkpt>
      <trkpt lat="43.5096" lon="1.51799">
        <ele>156.60000610352</ele>
        <time>2020-06-08T14:33:25.000Z</time>
      </trkpt>
      <trkpt lat="43.51014" lon="1.51778">
        <ele>156.60000610352</ele>
        <time>2020-06-08T14:33:37.000Z</time>
      </trkpt>
      <trkpt lat="43.5107" lon="1.51759">
        <ele>156.60000610352</ele>
        <time>2020-06-08T14:33:48.000Z</time>
      </trkpt>
      <trkpt lat="43.51117" lon="1.51743">
        <ele>156.60000610352</ele>
        <time>2020-06-08T14:34:03.000Z</time>
      </trkpt>
      <trkpt lat="43.51122" lon="1.51741">
        <ele>159.19999694824</ele>
        <time>2020-06-08T14:34:22.000Z</time>
      </trkpt>
      <trkpt lat="43.51167" lon="1.5173">
        <ele>158</ele>
        <time>2020-06-08T14:34:36.000Z</time>
      </trkpt>
      <trkpt lat="43.51176" lon="1.51727">
        <ele>157.19999694824</ele>
        <time>2020-06-08T14:34:38.000Z</time>
      </trkpt>
      <trkpt lat="43.5118" lon="1.51725">
        <ele>156.60000610352</ele>
        <time>2020-06-08T14:34:39.000Z</time>
      </trkpt>
      <trkpt lat="43.51187" lon="1.51723">
        <ele>156</ele>
        <time>2020-06-08T14:34:41.000Z</time>
      </trkpt>
      <trkpt lat="43.51196" lon="1.5172">
        <ele>155.60000610352</ele>
        <time>2020-06-08T14:34:44.000Z</time>
      </trkpt>
      <trkpt lat="43.51205" lon="1.51718">
        <ele>155.39999389648</ele>
        <time>2020-06-08T14:34:47.000Z</time>
      </trkpt>
      <trkpt lat="43.51219" lon="1.51713">
        <ele>155.19999694824</ele>
        <time>2020-06-08T14:34:51.000Z</time>
      </trkpt>
      <trkpt lat="43.51236" lon="1.51708">
        <ele>155</ele>
        <time>2020-06-08T14:34:55.000Z</time>
      </trkpt>
      <trkpt lat="43.51253" lon="1.51704">
        <ele>154.80000305176</ele>
        <time>2020-06-08T14:34:59.000Z</time>
      </trkpt>
      <trkpt lat="43.51263" lon="1.51701">
        <ele>154.60000610352</ele>
        <time>2020-06-08T14:35:01.000Z</time>
      </trkpt>
      <trkpt lat="43.51272" lon="1.51699">
        <ele>154.60000610352</ele>
        <time>2020-06-08T14:35:03.000Z</time>
      </trkpt>
      <trkpt lat="43.5129" lon="1.51694">
        <ele>154.60000610352</ele>
        <time>2020-06-08T14:35:07.000Z</time>
      </trkpt>
      <trkpt lat="43.51307" lon="1.5169">
        <ele>154.60000610352</ele>
        <time>2020-06-08T14:35:11.000Z</time>
      </trkpt>
      <trkpt lat="43.51368" lon="1.51668">
        <ele>154.80000305176</ele>
        <time>2020-06-08T14:35:24.000Z</time>
      </trkpt>
      <trkpt lat="43.51409" lon="1.51658">
        <ele>155</ele>
        <time>2020-06-08T14:35:32.000Z</time>
      </trkpt>
      <trkpt lat="43.5144" lon="1.51664">
        <ele>155.19999694824</ele>
        <time>2020-06-08T14:35:38.000Z</time>
      </trkpt>
      <trkpt lat="43.51472" lon="1.51706">
        <ele>155</ele>
        <time>2020-06-08T14:35:46.000Z</time>
      </trkpt>
      <trkpt lat="43.51478" lon="1.51719">
        <ele>155</ele>
        <time>2020-06-08T14:35:48.000Z</time>
      </trkpt>
      <trkpt lat="43.51482" lon="1.51737">
        <ele>154.80000305176</ele>
        <time>2020-06-08T14:35:51.000Z</time>
      </trkpt>
      <trkpt lat="43.51476" lon="1.51805">
        <ele>154.80000305176</ele>
        <time>2020-06-08T14:36:02.000Z</time>
      </trkpt>
      <trkpt lat="43.51478" lon="1.51837">
        <ele>154.80000305176</ele>
        <time>2020-06-08T14:36:07.000Z</time>
      </trkpt>
      <trkpt lat="43.5148" lon="1.51872">
        <ele>154.60000610352</ele>
        <time>2020-06-08T14:36:12.000Z</time>
      </trkpt>
      <trkpt lat="43.51483" lon="1.51891">
        <ele>154.60000610352</ele>
        <time>2020-06-08T14:36:15.000Z</time>
      </trkpt>
      <trkpt lat="43.51494" lon="1.51924">
        <ele>154.39999389648</ele>
        <time>2020-06-08T14:36:20.000Z</time>
      </trkpt>
      <trkpt lat="43.51509" lon="1.51953">
        <ele>154.19999694824</ele>
        <time>2020-06-08T14:36:25.000Z</time>
      </trkpt>
      <trkpt lat="43.51551" lon="1.52004">
        <ele>153.80000305176</ele>
        <time>2020-06-08T14:36:36.000Z</time>
      </trkpt>
      <trkpt lat="43.51593" lon="1.52052">
        <ele>153.80000305176</ele>
        <time>2020-06-08T14:36:47.000Z</time>
      </trkpt>
      <trkpt lat="43.51597" lon="1.52054">
        <ele>153.80000305176</ele>
        <time>2020-06-08T14:36:48.000Z</time>
      </trkpt>
      <trkpt lat="43.5161" lon="1.52059">
        <ele>153.80000305176</ele>
        <time>2020-06-08T14:36:51.000Z</time>
      </trkpt>
      <trkpt lat="43.51646" lon="1.5206">
        <ele>153.60000610352</ele>
        <time>2020-06-08T14:36:58.000Z</time>
      </trkpt>
      <trkpt lat="43.517" lon="1.52041">
        <ele>153.60000610352</ele>
        <time>2020-06-08T14:37:10.000Z</time>
      </trkpt>
      <trkpt lat="43.51725" lon="1.52022">
        <ele>153.60000610352</ele>
        <time>2020-06-08T14:37:17.000Z</time>
      </trkpt>
      <trkpt lat="43.51744" lon="1.52008">
        <ele>153.39999389648</ele>
        <time>2020-06-08T14:37:22.000Z</time>
      </trkpt>
      <trkpt lat="43.51756" lon="1.51999">
        <ele>153.19999694824</ele>
        <time>2020-06-08T14:37:25.000Z</time>
      </trkpt>
      <trkpt lat="43.51785" lon="1.51982">
        <ele>153.19999694824</ele>
        <time>2020-06-08T14:37:32.000Z</time>
      </trkpt>
      <trkpt lat="43.51795" lon="1.5198">
        <ele>153.19999694824</ele>
        <time>2020-06-08T14:37:34.000Z</time>
      </trkpt>
      <trkpt lat="43.51814" lon="1.51982">
        <ele>153</ele>
        <time>2020-06-08T14:37:38.000Z</time>
      </trkpt>
      <trkpt lat="43.51866" lon="1.51999">
        <ele>153.39999389648</ele>
        <time>2020-06-08T14:37:50.000Z</time>
      </trkpt>
      <trkpt lat="43.51905" lon="1.52014">
        <ele>153.39999389648</ele>
        <time>2020-06-08T14:37:59.000Z</time>
      </trkpt>
      <trkpt lat="43.5192" lon="1.5202">
        <ele>153.19999694824</ele>
        <time>2020-06-08T14:38:03.000Z</time>
      </trkpt>
      <trkpt lat="43.51949" lon="1.52026">
        <ele>153.39999389648</ele>
        <time>2020-06-08T14:38:10.000Z</time>
      </trkpt>
      <trkpt lat="43.52003" lon="1.52018">
        <ele>153.80000305176</ele>
        <time>2020-06-08T14:38:22.000Z</time>
      </trkpt>
      <trkpt lat="43.52015" lon="1.52013">
        <ele>154</ele>
        <time>2020-06-08T14:38:25.000Z</time>
      </trkpt>
      <trkpt lat="43.5203" lon="1.52005">
        <ele>154</ele>
        <time>2020-06-08T14:38:29.000Z</time>
      </trkpt>
      <trkpt lat="43.5205" lon="1.5199">
        <ele>153.80000305176</ele>
        <time>2020-06-08T14:38:34.000Z</time>
      </trkpt>
      <trkpt lat="43.52094" lon="1.51964">
        <ele>153.19999694824</ele>
        <time>2020-06-08T14:38:43.000Z</time>
      </trkpt>
      <trkpt lat="43.52103" lon="1.51962">
        <ele>153</ele>
        <time>2020-06-08T14:38:45.000Z</time>
      </trkpt>
      <trkpt lat="43.52134" lon="1.5196">
        <ele>152.60000610352</ele>
        <time>2020-06-08T14:38:51.000Z</time>
      </trkpt>
      <trkpt lat="43.52172" lon="1.51956">
        <ele>152.80000305176</ele>
        <time>2020-06-08T14:39:00.000Z</time>
      </trkpt>
      <trkpt lat="43.52238" lon="1.51939">
        <ele>153.60000610352</ele>
        <time>2020-06-08T14:39:14.000Z</time>
      </trkpt>
      <trkpt lat="43.52293" lon="1.51915">
        <ele>154.19999694824</ele>
        <time>2020-06-08T14:39:30.000Z</time>
      </trkpt>
      <trkpt lat="43.52324" lon="1.51902">
        <ele>154</ele>
        <time>2020-06-08T14:39:38.000Z</time>
      </trkpt>
      <trkpt lat="43.52377" lon="1.51882">
        <ele>153</ele>
        <time>2020-06-08T14:39:52.000Z</time>
      </trkpt>
      <trkpt lat="43.52406" lon="1.51865">
        <ele>153.39999389648</ele>
        <time>2020-06-08T14:40:04.000Z</time>
      </trkpt>
      <trkpt lat="43.52405" lon="1.51859">
        <ele>153.60000610352</ele>
        <time>2020-06-08T14:40:07.000Z</time>
      </trkpt>
      <trkpt lat="43.52405" lon="1.51857">
        <ele>155</ele>
        <time>2020-06-08T14:41:02.000Z</time>
      </trkpt>
      <trkpt lat="43.52406" lon="1.51856">
        <ele>155</ele>
        <time>2020-06-08T14:41:05.000Z</time>
      </trkpt>
      <trkpt lat="43.52407" lon="1.51857">
        <ele>155.60000610352</ele>
        <time>2020-06-08T14:41:42.000Z</time>
      </trkpt>
      <trkpt lat="43.52407" lon="1.51858">
        <ele>155.60000610352</ele>
        <time>2020-06-08T14:41:43.000Z</time>
      </trkpt>
      <trkpt lat="43.52407" lon="1.5186">
        <ele>155.60000610352</ele>
        <time>2020-06-08T14:41:44.000Z</time>
      </trkpt>
      <trkpt lat="43.52407" lon="1.51871">
        <ele>155.39999389648</ele>
        <time>2020-06-08T14:41:50.000Z</time>
      </trkpt>
      <trkpt lat="43.52408" lon="1.51872">
        <ele>155.19999694824</ele>
        <time>2020-06-08T14:41:53.000Z</time>
      </trkpt>
      <trkpt lat="43.52409" lon="1.51874">
        <ele>155.19999694824</ele>
        <time>2020-06-08T14:41:54.000Z</time>
      </trkpt>
      <trkpt lat="43.52437" lon="1.51865">
        <ele>154.80000305176</ele>
        <time>2020-06-08T14:42:01.000Z</time>
      </trkpt>
      <trkpt lat="43.52462" lon="1.5185">
        <ele>153.80000305176</ele>
        <time>2020-06-08T14:42:05.000Z</time>
      </trkpt>
      <trkpt lat="43.52474" lon="1.51842">
        <ele>152.19999694824</ele>
        <time>2020-06-08T14:42:07.000Z</time>
      </trkpt>
      <trkpt lat="43.52486" lon="1.51834">
        <ele>150.60000610352</ele>
        <time>2020-06-08T14:42:09.000Z</time>
      </trkpt>
      <trkpt lat="43.52496" lon="1.51825">
        <ele>149.19999694824</ele>
        <time>2020-06-08T14:42:11.000Z</time>
      </trkpt>
      <trkpt lat="43.5252" lon="1.51803">
        <ele>148.19999694824</ele>
        <time>2020-06-08T14:42:16.000Z</time>
      </trkpt>
      <trkpt lat="43.52552" lon="1.51766">
        <ele>148.19999694824</ele>
        <time>2020-06-08T14:42:25.000Z</time>
      </trkpt>
      <trkpt lat="43.52559" lon="1.51756">
        <ele>148.19999694824</ele>
        <time>2020-06-08T14:42:27.000Z</time>
      </trkpt>
      <trkpt lat="43.52578" lon="1.51724">
        <ele>148.39999389648</ele>
        <time>2020-06-08T14:42:33.000Z</time>
      </trkpt>
      <trkpt lat="43.52594" lon="1.51681">
        <ele>148.39999389648</ele>
        <time>2020-06-08T14:42:40.000Z</time>
      </trkpt>
      <trkpt lat="43.52612" lon="1.51598">
        <ele>148.39999389648</ele>
        <time>2020-06-08T14:42:52.000Z</time>
      </trkpt>
      <trkpt lat="43.52616" lon="1.5158">
        <ele>148.19999694824</ele>
        <time>2020-06-08T14:42:55.000Z</time>
      </trkpt>
      <trkpt lat="43.52627" lon="1.51547">
        <ele>148.19999694824</ele>
        <time>2020-06-08T14:43:01.000Z</time>
      </trkpt>
      <trkpt lat="43.52635" lon="1.51468">
        <ele>147.80000305176</ele>
        <time>2020-06-08T14:43:14.000Z</time>
      </trkpt>
      <trkpt lat="43.52642" lon="1.51392">
        <ele>148.19999694824</ele>
        <time>2020-06-08T14:43:28.000Z</time>
      </trkpt>
      <trkpt lat="43.52647" lon="1.51313">
        <ele>149</ele>
        <time>2020-06-08T14:43:43.000Z</time>
      </trkpt>
      <trkpt lat="43.52649" lon="1.51235">
        <ele>148.39999389648</ele>
        <time>2020-06-08T14:43:55.000Z</time>
      </trkpt>
      <trkpt lat="43.52657" lon="1.5116">
        <ele>148.39999389648</ele>
        <time>2020-06-08T14:44:07.000Z</time>
      </trkpt>
      <trkpt lat="43.5266" lon="1.51149">
        <ele>148.80000305176</ele>
        <time>2020-06-08T14:44:09.000Z</time>
      </trkpt>
      <trkpt lat="43.52678" lon="1.51105">
        <ele>149.19999694824</ele>
        <time>2020-06-08T14:44:20.000Z</time>
      </trkpt>
      <trkpt lat="43.52682" lon="1.51092">
        <ele>149.39999389648</ele>
        <time>2020-06-08T14:44:23.000Z</time>
      </trkpt>
      <trkpt lat="43.52684" lon="1.51088">
        <ele>149.60000610352</ele>
        <time>2020-06-08T14:44:24.000Z</time>
      </trkpt>
      <trkpt lat="43.52691" lon="1.5107">
        <ele>149.80000305176</ele>
        <time>2020-06-08T14:44:28.000Z</time>
      </trkpt>
      <trkpt lat="43.52699" lon="1.51048">
        <ele>150.19999694824</ele>
        <time>2020-06-08T14:44:32.000Z</time>
      </trkpt>
      <trkpt lat="43.52701" lon="1.51042">
        <ele>150.39999389648</ele>
        <time>2020-06-08T14:44:33.000Z</time>
      </trkpt>
      <trkpt lat="43.52706" lon="1.51031">
        <ele>150.39999389648</ele>
        <time>2020-06-08T14:44:35.000Z</time>
      </trkpt>
      <trkpt lat="43.52736" lon="1.5096">
        <ele>150.39999389648</ele>
        <time>2020-06-08T14:44:47.000Z</time>
      </trkpt>
      <trkpt lat="43.52758" lon="1.50924">
        <ele>150.19999694824</ele>
        <time>2020-06-08T14:44:54.000Z</time>
      </trkpt>
      <trkpt lat="43.52777" lon="1.509">
        <ele>149.60000610352</ele>
        <time>2020-06-08T14:44:59.000Z</time>
      </trkpt>
      <trkpt lat="43.52792" lon="1.50885">
        <ele>148.80000305176</ele>
        <time>2020-06-08T14:45:03.000Z</time>
      </trkpt>
      <trkpt lat="43.52814" lon="1.5087">
        <ele>148.60000610352</ele>
        <time>2020-06-08T14:45:09.000Z</time>
      </trkpt>
      <trkpt lat="43.5286" lon="1.50834">
        <ele>149</ele>
        <time>2020-06-08T14:45:21.000Z</time>
      </trkpt>
      <trkpt lat="43.5289" lon="1.50807">
        <ele>149.39999389648</ele>
        <time>2020-06-08T14:45:29.000Z</time>
      </trkpt>
      <trkpt lat="43.52942" lon="1.5076">
        <ele>150.39999389648</ele>
        <time>2020-06-08T14:45:44.000Z</time>
      </trkpt>
      <trkpt lat="43.52966" lon="1.50734">
        <ele>150.19999694824</ele>
        <time>2020-06-08T14:45:52.000Z</time>
      </trkpt>
      <trkpt lat="43.53006" lon="1.50687">
        <ele>150.39999389648</ele>
        <time>2020-06-08T14:46:04.000Z</time>
      </trkpt>
      <trkpt lat="43.53042" lon="1.50651">
        <ele>150.60000610352</ele>
        <time>2020-06-08T14:46:14.000Z</time>
      </trkpt>
      <trkpt lat="43.53058" lon="1.5064">
        <ele>150.60000610352</ele>
        <time>2020-06-08T14:46:18.000Z</time>
      </trkpt>
      <trkpt lat="43.53101" lon="1.50612">
        <ele>149.19999694824</ele>
        <time>2020-06-08T14:46:32.000Z</time>
      </trkpt>
      <trkpt lat="43.5313" lon="1.50592">
        <ele>149.19999694824</ele>
        <time>2020-06-08T14:46:40.000Z</time>
      </trkpt>
      <trkpt lat="43.53183" lon="1.50571">
        <ele>148.80000305176</ele>
        <time>2020-06-08T14:46:54.000Z</time>
      </trkpt>
      <trkpt lat="43.53196" lon="1.50566">
        <ele>148.80000305176</ele>
        <time>2020-06-08T14:46:57.000Z</time>
      </trkpt>
      <trkpt lat="43.53249" lon="1.50554">
        <ele>149</ele>
        <time>2020-06-08T14:47:10.000Z</time>
      </trkpt>
      <trkpt lat="43.53294" lon="1.50548">
        <ele>149.19999694824</ele>
        <time>2020-06-08T14:47:21.000Z</time>
      </trkpt>
      <trkpt lat="43.53324" lon="1.50545">
        <ele>149.39999389648</ele>
        <time>2020-06-08T14:47:28.000Z</time>
      </trkpt>
      <trkpt lat="43.53352" lon="1.5054">
        <ele>149.39999389648</ele>
        <time>2020-06-08T14:47:35.000Z</time>
      </trkpt>
      <trkpt lat="43.53381" lon="1.50531">
        <ele>149.60000610352</ele>
        <time>2020-06-08T14:47:43.000Z</time>
      </trkpt>
      <trkpt lat="43.53431" lon="1.50506">
        <ele>149.60000610352</ele>
        <time>2020-06-08T14:47:58.000Z</time>
      </trkpt>
      <trkpt lat="43.53472" lon="1.50484">
        <ele>149.39999389648</ele>
        <time>2020-06-08T14:48:08.000Z</time>
      </trkpt>
      <trkpt lat="43.53508" lon="1.50455">
        <ele>149.60000610352</ele>
        <time>2020-06-08T14:48:18.000Z</time>
      </trkpt>
      <trkpt lat="43.53518" lon="1.50445">
        <ele>149.60000610352</ele>
        <time>2020-06-08T14:48:22.000Z</time>
      </trkpt>
      <trkpt lat="43.53567" lon="1.50404">
        <ele>149.80000305176</ele>
        <time>2020-06-08T14:48:37.000Z</time>
      </trkpt>
      <trkpt lat="43.53581" lon="1.50393">
        <ele>149.80000305176</ele>
        <time>2020-06-08T14:48:41.000Z</time>
      </trkpt>
      <trkpt lat="43.53628" lon="1.50342">
        <ele>149</ele>
        <time>2020-06-08T14:48:55.000Z</time>
      </trkpt>
      <trkpt lat="43.53671" lon="1.50286">
        <ele>149</ele>
        <time>2020-06-08T14:49:10.000Z</time>
      </trkpt>
      <trkpt lat="43.53702" lon="1.50245">
        <ele>149</ele>
        <time>2020-06-08T14:49:21.000Z</time>
      </trkpt>
      <trkpt lat="43.53728" lon="1.5021">
        <ele>149.19999694824</ele>
        <time>2020-06-08T14:49:30.000Z</time>
      </trkpt>
      <trkpt lat="43.5374" lon="1.50191">
        <ele>149.19999694824</ele>
        <time>2020-06-08T14:49:34.000Z</time>
      </trkpt>
      <trkpt lat="43.53743" lon="1.50186">
        <ele>149.19999694824</ele>
        <time>2020-06-08T14:49:35.000Z</time>
      </trkpt>
      <trkpt lat="43.53771" lon="1.50123">
        <ele>149.19999694824</ele>
        <time>2020-06-08T14:49:49.000Z</time>
      </trkpt>
      <trkpt lat="43.53792" lon="1.50081">
        <ele>149.60000610352</ele>
        <time>2020-06-08T14:49:58.000Z</time>
      </trkpt>
      <trkpt lat="43.53809" lon="1.50057">
        <ele>149.39999389648</ele>
        <time>2020-06-08T14:50:04.000Z</time>
      </trkpt>
      <trkpt lat="43.53818" lon="1.50039">
        <ele>149.19999694824</ele>
        <time>2020-06-08T14:50:08.000Z</time>
      </trkpt>
      <trkpt lat="43.53827" lon="1.50026">
        <ele>149.39999389648</ele>
        <time>2020-06-08T14:50:11.000Z</time>
      </trkpt>
      <trkpt lat="43.53862" lon="1.49968">
        <ele>150</ele>
        <time>2020-06-08T14:50:24.000Z</time>
      </trkpt>
      <trkpt lat="43.53866" lon="1.4996">
        <ele>150.19999694824</ele>
        <time>2020-06-08T14:50:26.000Z</time>
      </trkpt>
      <trkpt lat="43.53868" lon="1.49956">
        <ele>150.19999694824</ele>
        <time>2020-06-08T14:50:27.000Z</time>
      </trkpt>
      <trkpt lat="43.53874" lon="1.49943">
        <ele>150.19999694824</ele>
        <time>2020-06-08T14:50:30.000Z</time>
      </trkpt>
      <trkpt lat="43.5388" lon="1.49928">
        <ele>150.39999389648</ele>
        <time>2020-06-08T14:50:33.000Z</time>
      </trkpt>
      <trkpt lat="43.53888" lon="1.499">
        <ele>151.19999694824</ele>
        <time>2020-06-08T14:50:38.000Z</time>
      </trkpt>
      <trkpt lat="43.53903" lon="1.49838">
        <ele>151.39999389648</ele>
        <time>2020-06-08T14:50:47.000Z</time>
      </trkpt>
      <trkpt lat="43.5391" lon="1.49796">
        <ele>150.19999694824</ele>
        <time>2020-06-08T14:50:53.000Z</time>
      </trkpt>
      <trkpt lat="43.53916" lon="1.49741">
        <ele>149.19999694824</ele>
        <time>2020-06-08T14:51:01.000Z</time>
      </trkpt>
      <trkpt lat="43.53916" lon="1.49716">
        <ele>149.19999694824</ele>
        <time>2020-06-08T14:51:05.000Z</time>
      </trkpt>
      <trkpt lat="43.5391" lon="1.49668">
        <ele>149.39999389648</ele>
        <time>2020-06-08T14:51:12.000Z</time>
      </trkpt>
      <trkpt lat="43.53896" lon="1.49592">
        <ele>149.60000610352</ele>
        <time>2020-06-08T14:51:22.000Z</time>
      </trkpt>
      <trkpt lat="43.53886" lon="1.49535">
        <ele>150.19999694824</ele>
        <time>2020-06-08T14:51:31.000Z</time>
      </trkpt>
      <trkpt lat="43.53881" lon="1.49491">
        <ele>150.39999389648</ele>
        <time>2020-06-08T14:51:39.000Z</time>
      </trkpt>
      <trkpt lat="43.53878" lon="1.4946">
        <ele>150.60000610352</ele>
        <time>2020-06-08T14:51:44.000Z</time>
      </trkpt>
      <trkpt lat="43.53875" lon="1.49423">
        <ele>150.39999389648</ele>
        <time>2020-06-08T14:51:50.000Z</time>
      </trkpt>
      <trkpt lat="43.53873" lon="1.49349">
        <ele>150</ele>
        <time>2020-06-08T14:52:01.000Z</time>
      </trkpt>
      <trkpt lat="43.53876" lon="1.49334">
        <ele>149.80000305176</ele>
        <time>2020-06-08T14:52:03.000Z</time>
      </trkpt>
      <trkpt lat="43.5388" lon="1.49321">
        <ele>149.80000305176</ele>
        <time>2020-06-08T14:52:05.000Z</time>
      </trkpt>
      <trkpt lat="43.53897" lon="1.4929">
        <ele>149.60000610352</ele>
        <time>2020-06-08T14:52:11.000Z</time>
      </trkpt>
      <trkpt lat="43.539" lon="1.49286">
        <ele>149.60000610352</ele>
        <time>2020-06-08T14:52:12.000Z</time>
      </trkpt>
      <trkpt lat="43.53907" lon="1.49279">
        <ele>149.39999389648</ele>
        <time>2020-06-08T14:52:14.000Z</time>
      </trkpt>
      <trkpt lat="43.53956" lon="1.49255">
        <ele>149.39999389648</ele>
        <time>2020-06-08T14:52:27.000Z</time>
      </trkpt>
      <trkpt lat="43.53975" lon="1.4925">
        <ele>149.80000305176</ele>
        <time>2020-06-08T14:52:33.000Z</time>
      </trkpt>
      <trkpt lat="43.5403" lon="1.49232">
        <ele>150.80000305176</ele>
        <time>2020-06-08T14:52:46.000Z</time>
      </trkpt>
      <trkpt lat="43.5408" lon="1.49208">
        <ele>150.39999389648</ele>
        <time>2020-06-08T14:53:01.000Z</time>
      </trkpt>
      <trkpt lat="43.54087" lon="1.49203">
        <ele>150.39999389648</ele>
        <time>2020-06-08T14:53:03.000Z</time>
      </trkpt>
      <trkpt lat="43.54135" lon="1.49168">
        <ele>150</ele>
        <time>2020-06-08T14:53:16.000Z</time>
      </trkpt>
      <trkpt lat="43.54145" lon="1.49162">
        <ele>150.19999694824</ele>
        <time>2020-06-08T14:53:19.000Z</time>
      </trkpt>
      <trkpt lat="43.54185" lon="1.49139">
        <ele>150.39999389648</ele>
        <time>2020-06-08T14:53:29.000Z</time>
      </trkpt>
      <trkpt lat="43.54234" lon="1.49112">
        <ele>150.60000610352</ele>
        <time>2020-06-08T14:53:41.000Z</time>
      </trkpt>
      <trkpt lat="43.54238" lon="1.4911">
        <ele>150.60000610352</ele>
        <time>2020-06-08T14:53:42.000Z</time>
      </trkpt>
      <trkpt lat="43.54277" lon="1.4909">
        <ele>150</ele>
        <time>2020-06-08T14:53:51.000Z</time>
      </trkpt>
      <trkpt lat="43.5431" lon="1.49073">
        <ele>149.60000610352</ele>
        <time>2020-06-08T14:54:00.000Z</time>
      </trkpt>
      <trkpt lat="43.54328" lon="1.49064">
        <ele>149.60000610352</ele>
        <time>2020-06-08T14:54:05.000Z</time>
      </trkpt>
      <trkpt lat="43.54331" lon="1.49062">
        <ele>149.60000610352</ele>
        <time>2020-06-08T14:54:06.000Z</time>
      </trkpt>
      <trkpt lat="43.54349" lon="1.49052">
        <ele>149.60000610352</ele>
        <time>2020-06-08T14:54:10.000Z</time>
      </trkpt>
      <trkpt lat="43.54413" lon="1.49029">
        <ele>150</ele>
        <time>2020-06-08T14:54:23.000Z</time>
      </trkpt>
      <trkpt lat="43.54462" lon="1.48997">
        <ele>151</ele>
        <time>2020-06-08T14:54:40.000Z</time>
      </trkpt>
      <trkpt lat="43.5448" lon="1.4897">
        <ele>151.19999694824</ele>
        <time>2020-06-08T14:54:47.000Z</time>
      </trkpt>
      <trkpt lat="43.54487" lon="1.48956">
        <ele>151.19999694824</ele>
        <time>2020-06-08T14:54:50.000Z</time>
      </trkpt>
      <trkpt lat="43.54516" lon="1.48906">
        <ele>150</ele>
        <time>2020-06-08T14:55:02.000Z</time>
      </trkpt>
      <trkpt lat="43.54539" lon="1.4885">
        <ele>150.39999389648</ele>
        <time>2020-06-08T14:55:12.000Z</time>
      </trkpt>
      <trkpt lat="43.54546" lon="1.48831">
        <ele>150.39999389648</ele>
        <time>2020-06-08T14:55:15.000Z</time>
      </trkpt>
      <trkpt lat="43.5457" lon="1.48768">
        <ele>150</ele>
        <time>2020-06-08T14:55:26.000Z</time>
      </trkpt>
      <trkpt lat="43.54582" lon="1.48744">
        <ele>149.80000305176</ele>
        <time>2020-06-08T14:55:30.000Z</time>
      </trkpt>
      <trkpt lat="43.54587" lon="1.48732">
        <ele>149.80000305176</ele>
        <time>2020-06-08T14:55:32.000Z</time>
      </trkpt>
      <trkpt lat="43.54595" lon="1.48713">
        <ele>149.80000305176</ele>
        <time>2020-06-08T14:55:35.000Z</time>
      </trkpt>
      <trkpt lat="43.54625" lon="1.48645">
        <ele>149.80000305176</ele>
        <time>2020-06-08T14:55:46.000Z</time>
      </trkpt>
      <trkpt lat="43.54661" lon="1.48588">
        <ele>150.60000610352</ele>
        <time>2020-06-08T14:55:57.000Z</time>
      </trkpt>
      <trkpt lat="43.54706" lon="1.48546">
        <ele>150.39999389648</ele>
        <time>2020-06-08T14:56:08.000Z</time>
      </trkpt>
      <trkpt lat="43.54715" lon="1.48539">
        <ele>150.39999389648</ele>
        <time>2020-06-08T14:56:10.000Z</time>
      </trkpt>
      <trkpt lat="43.54733" lon="1.48525">
        <ele>150.39999389648</ele>
        <time>2020-06-08T14:56:15.000Z</time>
      </trkpt>
      <trkpt lat="43.5474" lon="1.4852">
        <ele>150.39999389648</ele>
        <time>2020-06-08T14:56:17.000Z</time>
      </trkpt>
      <trkpt lat="43.54787" lon="1.48484">
        <ele>150.60000610352</ele>
        <time>2020-06-08T14:56:30.000Z</time>
      </trkpt>
      <trkpt lat="43.54824" lon="1.48455">
        <ele>150.60000610352</ele>
        <time>2020-06-08T14:56:43.000Z</time>
      </trkpt>
      <trkpt lat="43.54864" lon="1.48503">
        <ele>150.39999389648</ele>
        <time>2020-06-08T14:57:03.000Z</time>
      </trkpt>
      <trkpt lat="43.54878" lon="1.48532">
        <ele>150.60000610352</ele>
        <time>2020-06-08T14:57:13.000Z</time>
      </trkpt>
      <trkpt lat="43.54897" lon="1.48517">
        <ele>150.60000610352</ele>
        <time>2020-06-08T14:57:21.000Z</time>
      </trkpt>
      <trkpt lat="43.54939" lon="1.4847">
        <ele>149.80000305176</ele>
        <time>2020-06-08T14:57:39.000Z</time>
      </trkpt>
      <trkpt lat="43.54979" lon="1.48425">
        <ele>151.19999694824</ele>
        <time>2020-06-08T14:57:58.000Z</time>
      </trkpt>
      <trkpt lat="43.54968" lon="1.48393">
        <ele>151.19999694824</ele>
        <time>2020-06-08T14:58:07.000Z</time>
      </trkpt>
      <trkpt lat="43.54966" lon="1.48356">
        <ele>151.19999694824</ele>
        <time>2020-06-08T14:58:16.000Z</time>
      </trkpt>
      <trkpt lat="43.54977" lon="1.48326">
        <ele>151.80000305176</ele>
        <time>2020-06-08T14:58:35.000Z</time>
      </trkpt>
      <trkpt lat="43.54971" lon="1.48331">
        <ele>152.80000305176</ele>
        <time>2020-06-08T14:58:45.000Z</time>
      </trkpt>
      <trkpt lat="43.54963" lon="1.48341">
        <ele>152.80000305176</ele>
        <time>2020-06-08T14:58:49.000Z</time>
      </trkpt>
      <trkpt lat="43.54944" lon="1.48361">
        <ele>153.80000305176</ele>
        <time>2020-06-08T14:59:01.000Z</time>
      </trkpt>
      <trkpt lat="43.54939" lon="1.48364">
        <ele>154</ele>
        <time>2020-06-08T14:59:04.000Z</time>
      </trkpt>
      <trkpt lat="43.54931" lon="1.48358">
        <ele>154</ele>
        <time>2020-06-08T14:59:09.000Z</time>
      </trkpt>
      <trkpt lat="43.54906" lon="1.48304">
        <ele>154</ele>
        <time>2020-06-08T14:59:26.000Z</time>
      </trkpt>
      <trkpt lat="43.54899" lon="1.48285">
        <ele>153</ele>
        <time>2020-06-08T14:59:29.000Z</time>
      </trkpt>
      <trkpt lat="43.54893" lon="1.48272">
        <ele>151.80000305176</ele>
        <time>2020-06-08T14:59:31.000Z</time>
      </trkpt>
      <trkpt lat="43.54869" lon="1.48197">
        <ele>151.39999389648</ele>
        <time>2020-06-08T14:59:46.000Z</time>
      </trkpt>
      <trkpt lat="43.54857" lon="1.48174">
        <ele>152.19999694824</ele>
        <time>2020-06-08T14:59:52.000Z</time>
      </trkpt>
      <trkpt lat="43.54846" lon="1.48177">
        <ele>153</ele>
        <time>2020-06-08T14:59:56.000Z</time>
      </trkpt>
      <trkpt lat="43.54838" lon="1.48185">
        <ele>153.39999389648</ele>
        <time>2020-06-08T14:59:59.000Z</time>
      </trkpt>
      <trkpt lat="43.54797" lon="1.48239">
        <ele>153.80000305176</ele>
        <time>2020-06-08T15:00:13.000Z</time>
      </trkpt>
      <trkpt lat="43.54773" lon="1.48286">
        <ele>153</ele>
        <time>2020-06-08T15:00:21.000Z</time>
      </trkpt>
      <trkpt lat="43.54747" lon="1.48295">
        <ele>152.19999694824</ele>
        <time>2020-06-08T15:00:27.000Z</time>
      </trkpt>
      <trkpt lat="43.54705" lon="1.48283">
        <ele>152.39999389648</ele>
        <time>2020-06-08T15:00:36.000Z</time>
      </trkpt>
      <trkpt lat="43.54659" lon="1.4827">
        <ele>154.19999694824</ele>
        <time>2020-06-08T15:00:48.000Z</time>
      </trkpt>
      <trkpt lat="43.54622" lon="1.48261">
        <ele>154.39999389648</ele>
        <time>2020-06-08T15:00:58.000Z</time>
      </trkpt>
      <trkpt lat="43.54572" lon="1.48248">
        <ele>154.80000305176</ele>
        <time>2020-06-08T15:01:12.000Z</time>
      </trkpt>
      <trkpt lat="43.54545" lon="1.4824">
        <ele>155.39999389648</ele>
        <time>2020-06-08T15:01:19.000Z</time>
      </trkpt>
      <trkpt lat="43.54506" lon="1.4822">
        <ele>156.39999389648</ele>
        <time>2020-06-08T15:01:30.000Z</time>
      </trkpt>
      <trkpt lat="43.54452" lon="1.48192">
        <ele>157.19999694824</ele>
        <time>2020-06-08T15:01:46.000Z</time>
      </trkpt>
      <trkpt lat="43.54443" lon="1.48187">
        <ele>157.39999389648</ele>
        <time>2020-06-08T15:01:49.000Z</time>
      </trkpt>
      <trkpt lat="43.544" lon="1.4816">
        <ele>158.39999389648</ele>
        <time>2020-06-08T15:02:04.000Z</time>
      </trkpt>
      <trkpt lat="43.54373" lon="1.48147">
        <ele>159.39999389648</ele>
        <time>2020-06-08T15:02:18.000Z</time>
      </trkpt>
      <trkpt lat="43.54323" lon="1.48171">
        <ele>160</ele>
        <time>2020-06-08T15:02:40.000Z</time>
      </trkpt>
      <trkpt lat="43.54276" lon="1.48213">
        <ele>160.80000305176</ele>
        <time>2020-06-08T15:02:57.000Z</time>
      </trkpt>
      <trkpt lat="43.5423" lon="1.48258">
        <ele>161.19999694824</ele>
        <time>2020-06-08T15:03:14.000Z</time>
      </trkpt>
      <trkpt lat="43.54181" lon="1.4828">
        <ele>161.39999389648</ele>
        <time>2020-06-08T15:03:30.000Z</time>
      </trkpt>
      <trkpt lat="43.54138" lon="1.48249">
        <ele>161.39999389648</ele>
        <time>2020-06-08T15:03:50.000Z</time>
      </trkpt>
      <trkpt lat="43.54134" lon="1.48216">
        <ele>161.19999694824</ele>
        <time>2020-06-08T15:03:57.000Z</time>
      </trkpt>
      <trkpt lat="43.54129" lon="1.4817">
        <ele>160.80000305176</ele>
        <time>2020-06-08T15:04:05.000Z</time>
      </trkpt>
      <trkpt lat="43.54123" lon="1.48098">
        <ele>161</ele>
        <time>2020-06-08T15:04:20.000Z</time>
      </trkpt>
      <trkpt lat="43.54115" lon="1.4807">
        <ele>161.80000305176</ele>
        <time>2020-06-08T15:04:27.000Z</time>
      </trkpt>
      <trkpt lat="43.54107" lon="1.48049">
        <ele>163</ele>
        <time>2020-06-08T15:04:32.000Z</time>
      </trkpt>
      <trkpt lat="43.54096" lon="1.48021">
        <ele>164.19999694824</ele>
        <time>2020-06-08T15:04:40.000Z</time>
      </trkpt>
      <trkpt lat="43.54078" lon="1.47982">
        <ele>165.19999694824</ele>
        <time>2020-06-08T15:04:51.000Z</time>
      </trkpt>
      <trkpt lat="43.54072" lon="1.4797">
        <ele>166.39999389648</ele>
        <time>2020-06-08T15:04:57.000Z</time>
      </trkpt>
      <trkpt lat="43.54044" lon="1.47909">
        <ele>167.39999389648</ele>
        <time>2020-06-08T15:05:16.000Z</time>
      </trkpt>
      <trkpt lat="43.54038" lon="1.47901">
        <ele>167.39999389648</ele>
        <time>2020-06-08T15:05:18.000Z</time>
      </trkpt>
      <trkpt lat="43.54018" lon="1.47873">
        <ele>168.39999389648</ele>
        <time>2020-06-08T15:05:26.000Z</time>
      </trkpt>
      <trkpt lat="43.53997" lon="1.47847">
        <ele>169.60000610352</ele>
        <time>2020-06-08T15:05:34.000Z</time>
      </trkpt>
      <trkpt lat="43.53982" lon="1.47826">
        <ele>170.60000610352</ele>
        <time>2020-06-08T15:05:40.000Z</time>
      </trkpt>
      <trkpt lat="43.53962" lon="1.47801">
        <ele>171.80000305176</ele>
        <time>2020-06-08T15:05:49.000Z</time>
      </trkpt>
      <trkpt lat="43.53942" lon="1.47779">
        <ele>172.80000305176</ele>
        <time>2020-06-08T15:05:57.000Z</time>
      </trkpt>
      <trkpt lat="43.53911" lon="1.47732">
        <ele>174</ele>
        <time>2020-06-08T15:06:09.000Z</time>
      </trkpt>
      <trkpt lat="43.53899" lon="1.47713">
        <ele>175</ele>
        <time>2020-06-08T15:06:13.000Z</time>
      </trkpt>
      <trkpt lat="43.53892" lon="1.47701">
        <ele>175.60000610352</ele>
        <time>2020-06-08T15:06:16.000Z</time>
      </trkpt>
      <trkpt lat="43.53884" lon="1.47684">
        <ele>176.19999694824</ele>
        <time>2020-06-08T15:06:20.000Z</time>
      </trkpt>
      <trkpt lat="43.53878" lon="1.47673">
        <ele>176.80000305176</ele>
        <time>2020-06-08T15:06:23.000Z</time>
      </trkpt>
      <trkpt lat="43.53871" lon="1.47658">
        <ele>177.39999389648</ele>
        <time>2020-06-08T15:06:27.000Z</time>
      </trkpt>
      <trkpt lat="43.53856" lon="1.47601">
        <ele>178.80000305176</ele>
        <time>2020-06-08T15:06:40.000Z</time>
      </trkpt>
      <trkpt lat="43.53848" lon="1.47572">
        <ele>179.80000305176</ele>
        <time>2020-06-08T15:06:46.000Z</time>
      </trkpt>
      <trkpt lat="43.53835" lon="1.47535">
        <ele>181</ele>
        <time>2020-06-08T15:06:56.000Z</time>
      </trkpt>
      <trkpt lat="43.53826" lon="1.47505">
        <ele>182.19999694824</ele>
        <time>2020-06-08T15:07:04.000Z</time>
      </trkpt>
      <trkpt lat="43.53819" lon="1.47485">
        <ele>183.39999389648</ele>
        <time>2020-06-08T15:07:10.000Z</time>
      </trkpt>
      <trkpt lat="43.53811" lon="1.47444">
        <ele>184.80000305176</ele>
        <time>2020-06-08T15:07:19.000Z</time>
      </trkpt>
      <trkpt lat="43.53805" lon="1.47409">
        <ele>186</ele>
        <time>2020-06-08T15:07:27.000Z</time>
      </trkpt>
      <trkpt lat="43.53802" lon="1.47383">
        <ele>187.39999389648</ele>
        <time>2020-06-08T15:07:33.000Z</time>
      </trkpt>
      <trkpt lat="43.53798" lon="1.47356">
        <ele>188.60000610352</ele>
        <time>2020-06-08T15:07:40.000Z</time>
      </trkpt>
      <trkpt lat="43.53789" lon="1.47325">
        <ele>190.19999694824</ele>
        <time>2020-06-08T15:07:50.000Z</time>
      </trkpt>
      <trkpt lat="43.53774" lon="1.4731">
        <ele>191.39999389648</ele>
        <time>2020-06-08T15:07:57.000Z</time>
      </trkpt>
      <trkpt lat="43.53736" lon="1.47245">
        <ele>193</ele>
        <time>2020-06-08T15:08:14.000Z</time>
      </trkpt>
      <trkpt lat="43.53729" lon="1.47166">
        <ele>194.19999694824</ele>
        <time>2020-06-08T15:08:31.000Z</time>
      </trkpt>
      <trkpt lat="43.5373" lon="1.47151">
        <ele>194.60000610352</ele>
        <time>2020-06-08T15:08:35.000Z</time>
      </trkpt>
      <trkpt lat="43.53733" lon="1.47117">
        <ele>195.80000305176</ele>
        <time>2020-06-08T15:08:44.000Z</time>
      </trkpt>
      <trkpt lat="43.53738" lon="1.4709">
        <ele>197.19999694824</ele>
        <time>2020-06-08T15:08:52.000Z</time>
      </trkpt>
      <trkpt lat="43.53738" lon="1.47074">
        <ele>198.39999389648</ele>
        <time>2020-06-08T15:08:57.000Z</time>
      </trkpt>
      <trkpt lat="43.53741" lon="1.4706">
        <ele>199.60000610352</ele>
        <time>2020-06-08T15:09:01.000Z</time>
      </trkpt>
      <trkpt lat="43.53744" lon="1.47039">
        <ele>200.60000610352</ele>
        <time>2020-06-08T15:09:06.000Z</time>
      </trkpt>
      <trkpt lat="43.53742" lon="1.47017">
        <ele>202</ele>
        <time>2020-06-08T15:09:10.000Z</time>
      </trkpt>
      <trkpt lat="43.53735" lon="1.46994">
        <ele>203.19999694824</ele>
        <time>2020-06-08T15:09:15.000Z</time>
      </trkpt>
      <trkpt lat="43.53686" lon="1.46959">
        <ele>204.19999694824</ele>
        <time>2020-06-08T15:09:30.000Z</time>
      </trkpt>
      <trkpt lat="43.53649" lon="1.46908">
        <ele>204.60000610352</ele>
        <time>2020-06-08T15:09:47.000Z</time>
      </trkpt>
      <trkpt lat="43.53649" lon="1.46904">
        <ele>204.60000610352</ele>
        <time>2020-06-08T15:09:48.000Z</time>
      </trkpt>
      <trkpt lat="43.53664" lon="1.46871">
        <ele>205.80000305176</ele>
        <time>2020-06-08T15:09:58.000Z</time>
      </trkpt>
      <trkpt lat="43.53685" lon="1.46834">
        <ele>206.80000305176</ele>
        <time>2020-06-08T15:10:09.000Z</time>
      </trkpt>
      <trkpt lat="43.53712" lon="1.4677">
        <ele>207.39999389648</ele>
        <time>2020-06-08T15:10:25.000Z</time>
      </trkpt>
      <trkpt lat="43.53717" lon="1.4676">
        <ele>207.80000305176</ele>
        <time>2020-06-08T15:10:28.000Z</time>
      </trkpt>
      <trkpt lat="43.53754" lon="1.46706">
        <ele>208.80000305176</ele>
        <time>2020-06-08T15:10:43.000Z</time>
      </trkpt>
      <trkpt lat="43.53762" lon="1.46697">
        <ele>208.80000305176</ele>
        <time>2020-06-08T15:10:46.000Z</time>
      </trkpt>
      <trkpt lat="43.53793" lon="1.46656">
        <ele>209.80000305176</ele>
        <time>2020-06-08T15:10:59.000Z</time>
      </trkpt>
      <trkpt lat="43.53817" lon="1.46625">
        <ele>211</ele>
        <time>2020-06-08T15:11:08.000Z</time>
      </trkpt>
      <trkpt lat="43.53828" lon="1.46609">
        <ele>212.19999694824</ele>
        <time>2020-06-08T15:11:12.000Z</time>
      </trkpt>
      <trkpt lat="43.53858" lon="1.46565">
        <ele>213.19999694824</ele>
        <time>2020-06-08T15:11:22.000Z</time>
      </trkpt>
      <trkpt lat="43.53872" lon="1.4654">
        <ele>214</ele>
        <time>2020-06-08T15:11:27.000Z</time>
      </trkpt>
      <trkpt lat="43.53874" lon="1.46535">
        <ele>214.39999389648</ele>
        <time>2020-06-08T15:11:28.000Z</time>
      </trkpt>
      <trkpt lat="43.53881" lon="1.46518">
        <ele>214.80000305176</ele>
        <time>2020-06-08T15:11:31.000Z</time>
      </trkpt>
      <trkpt lat="43.53896" lon="1.46493">
        <ele>215.39999389648</ele>
        <time>2020-06-08T15:11:36.000Z</time>
      </trkpt>
      <trkpt lat="43.53923" lon="1.46445">
        <ele>216.60000610352</ele>
        <time>2020-06-08T15:11:46.000Z</time>
      </trkpt>
      <trkpt lat="43.53935" lon="1.46421">
        <ele>217.80000305176</ele>
        <time>2020-06-08T15:11:54.000Z</time>
      </trkpt>
      <trkpt lat="43.53939" lon="1.46415">
        <ele>219</ele>
        <time>2020-06-08T15:11:57.000Z</time>
      </trkpt>
      <trkpt lat="43.53957" lon="1.46388">
        <ele>219.80000305176</ele>
        <time>2020-06-08T15:12:07.000Z</time>
      </trkpt>
      <trkpt lat="43.53965" lon="1.46378">
        <ele>220.19999694824</ele>
        <time>2020-06-08T15:12:10.000Z</time>
      </trkpt>
      <trkpt lat="43.53996" lon="1.46339">
        <ele>221.19999694824</ele>
        <time>2020-06-08T15:12:21.000Z</time>
      </trkpt>
      <trkpt lat="43.54026" lon="1.46299">
        <ele>222.19999694824</ele>
        <time>2020-06-08T15:12:36.000Z</time>
      </trkpt>
      <trkpt lat="43.54032" lon="1.46295">
        <ele>223</ele>
        <time>2020-06-08T15:12:43.000Z</time>
      </trkpt>
      <trkpt lat="43.54036" lon="1.46298">
        <ele>223.39999389648</ele>
        <time>2020-06-08T15:12:46.000Z</time>
      </trkpt>
      <trkpt lat="43.54041" lon="1.46295">
        <ele>223.60000610352</ele>
        <time>2020-06-08T15:12:48.000Z</time>
      </trkpt>
      <trkpt lat="43.54077" lon="1.46241">
        <ele>223.80000305176</ele>
        <time>2020-06-08T15:13:05.000Z</time>
      </trkpt>
      <trkpt lat="43.54098" lon="1.46206">
        <ele>224.60000610352</ele>
        <time>2020-06-08T15:13:14.000Z</time>
      </trkpt>
      <trkpt lat="43.5412" lon="1.46164">
        <ele>225.60000610352</ele>
        <time>2020-06-08T15:13:24.000Z</time>
      </trkpt>
      <trkpt lat="43.54139" lon="1.46124">
        <ele>226.80000305176</ele>
        <time>2020-06-08T15:13:33.000Z</time>
      </trkpt>
      <trkpt lat="43.54149" lon="1.46104">
        <ele>228</ele>
        <time>2020-06-08T15:13:38.000Z</time>
      </trkpt>
      <trkpt lat="43.54169" lon="1.46065">
        <ele>229</ele>
        <time>2020-06-08T15:13:48.000Z</time>
      </trkpt>
      <trkpt lat="43.54183" lon="1.46029">
        <ele>229.60000610352</ele>
        <time>2020-06-08T15:13:56.000Z</time>
      </trkpt>
      <trkpt lat="43.54192" lon="1.46008">
        <ele>230</ele>
        <time>2020-06-08T15:14:00.000Z</time>
      </trkpt>
      <trkpt lat="43.54216" lon="1.45947">
        <ele>231</ele>
        <time>2020-06-08T15:14:12.000Z</time>
      </trkpt>
      <trkpt lat="43.54244" lon="1.45883">
        <ele>231.19999694824</ele>
        <time>2020-06-08T15:14:23.000Z</time>
      </trkpt>
      <trkpt lat="43.5428" lon="1.45825">
        <ele>229.60000610352</ele>
        <time>2020-06-08T15:14:31.000Z</time>
      </trkpt>
      <trkpt lat="43.54289" lon="1.4581">
        <ele>228.39999389648</ele>
        <time>2020-06-08T15:14:33.000Z</time>
      </trkpt>
      <trkpt lat="43.54298" lon="1.45796">
        <ele>227.19999694824</ele>
        <time>2020-06-08T15:14:35.000Z</time>
      </trkpt>
      <trkpt lat="43.54335" lon="1.45739">
        <ele>226.39999389648</ele>
        <time>2020-06-08T15:14:44.000Z</time>
      </trkpt>
      <trkpt lat="43.5437" lon="1.45682">
        <ele>227.39999389648</ele>
        <time>2020-06-08T15:14:53.000Z</time>
      </trkpt>
      <trkpt lat="43.54394" lon="1.45644">
        <ele>228.19999694824</ele>
        <time>2020-06-08T15:15:00.000Z</time>
      </trkpt>
      <trkpt lat="43.54421" lon="1.4561">
        <ele>229.39999389648</ele>
        <time>2020-06-08T15:15:08.000Z</time>
      </trkpt>
      <trkpt lat="43.54427" lon="1.45607">
        <ele>229.80000305176</ele>
        <time>2020-06-08T15:15:10.000Z</time>
      </trkpt>
      <trkpt lat="43.54435" lon="1.4562">
        <ele>230.39999389648</ele>
        <time>2020-06-08T15:15:14.000Z</time>
      </trkpt>
      <trkpt lat="43.54434" lon="1.45625">
        <ele>230.80000305176</ele>
        <time>2020-06-08T15:15:15.000Z</time>
      </trkpt>
      <trkpt lat="43.54431" lon="1.45646">
        <ele>231.39999389648</ele>
        <time>2020-06-08T15:15:19.000Z</time>
      </trkpt>
      <trkpt lat="43.54424" lon="1.45677">
        <ele>232</ele>
        <time>2020-06-08T15:15:25.000Z</time>
      </trkpt>
      <trkpt lat="43.54396" lon="1.45734">
        <ele>231.80000305176</ele>
        <time>2020-06-08T15:15:34.000Z</time>
      </trkpt>
      <trkpt lat="43.54375" lon="1.4574">
        <ele>230.39999389648</ele>
        <time>2020-06-08T15:15:38.000Z</time>
      </trkpt>
      <trkpt lat="43.54366" lon="1.45749">
        <ele>229.60000610352</ele>
        <time>2020-06-08T15:15:40.000Z</time>
      </trkpt>
      <trkpt lat="43.54362" lon="1.45755">
        <ele>229.19999694824</ele>
        <time>2020-06-08T15:15:41.000Z</time>
      </trkpt>
      <trkpt lat="43.54351" lon="1.45772">
        <ele>227.80000305176</ele>
        <time>2020-06-08T15:15:44.000Z</time>
      </trkpt>
      <trkpt lat="43.54333" lon="1.45805">
        <ele>226.80000305176</ele>
        <time>2020-06-08T15:15:52.000Z</time>
      </trkpt>
      <trkpt lat="43.5433" lon="1.45809">
        <ele>226.60000610352</ele>
        <time>2020-06-08T15:15:56.000Z</time>
      </trkpt>
      <trkpt lat="43.54327" lon="1.4581">
        <ele>226.39999389648</ele>
        <time>2020-06-08T15:16:13.000Z</time>
      </trkpt>
      <trkpt lat="43.54314" lon="1.45813">
        <ele>226.19999694824</ele>
        <time>2020-06-08T15:16:22.000Z</time>
      </trkpt>
      <trkpt lat="43.54308" lon="1.45816">
        <ele>225.60000610352</ele>
        <time>2020-06-08T15:16:34.000Z</time>
      </trkpt>
      <trkpt lat="43.5431" lon="1.45823">
        <ele>225.60000610352</ele>
        <time>2020-06-08T15:16:45.000Z</time>
      </trkpt>
    </trkseg>
  </trk>
</gpx>